<?xml version="1.0" encoding="UTF-8" standalone="no" ?>
<gpx xmlns="http://www.topografix.com/GPX/1/1" xmlns:xsi="http://www.w3.org/2001/XMLSchema-instance" xsi:schemaLocation="http://www.topografix.com/GPX/1/1 http://www.topografix.com/GPX/1/1/gpx.xsd" version="1.1" creator="VisuGPX - https://www.visugpx.com">
  <metadata>
    <name>sortie longue</name>
    <desc><![CDATA[vers Blaison et retour par la route et chemin]]></desc>
  </metadata>
  <trk>
    <name><![CDATA[Track_2013_02_13_09_20_39]]></name>
    <trkseg>
      <trkpt lat="47.3815" lon="-0.46225">
        <ele>39.1</ele>
        <time>2013-02-13T08:20:42.670Z</time>
      </trkpt>
      <trkpt lat="47.38154" lon="-0.46232">
        <ele>49</ele>
        <time>2013-02-13T08:20:43.800Z</time>
      </trkpt>
      <trkpt lat="47.38164" lon="-0.46252">
        <ele>49</ele>
        <time>2013-02-13T08:20:45.740Z</time>
      </trkpt>
      <trkpt lat="47.38169" lon="-0.46261">
        <ele>48.9</ele>
        <time>2013-02-13T08:20:46.670Z</time>
      </trkpt>
      <trkpt lat="47.38173" lon="-0.46269">
        <ele>48.8</ele>
        <time>2013-02-13T08:20:47.670Z</time>
      </trkpt>
      <trkpt lat="47.38187" lon="-0.46292">
        <ele>48.1</ele>
        <time>2013-02-13T08:20:48.670Z</time>
      </trkpt>
      <trkpt lat="47.38189" lon="-0.46293">
        <ele>48.1</ele>
        <time>2013-02-13T08:20:49.670Z</time>
      </trkpt>
      <trkpt lat="47.3819" lon="-0.46294">
        <ele>48.1</ele>
        <time>2013-02-13T08:20:50.680Z</time>
      </trkpt>
      <trkpt lat="47.38197" lon="-0.46306">
        <ele>48</ele>
        <time>2013-02-13T08:20:51.670Z</time>
      </trkpt>
      <trkpt lat="47.38198" lon="-0.46307">
        <ele>48</ele>
        <time>2013-02-13T08:20:52.740Z</time>
      </trkpt>
      <trkpt lat="47.382" lon="-0.46313">
        <ele>47.9</ele>
        <time>2013-02-13T08:20:54.740Z</time>
      </trkpt>
      <trkpt lat="47.382" lon="-0.46312">
        <ele>48</ele>
        <time>2013-02-13T08:20:57.730Z</time>
      </trkpt>
      <trkpt lat="47.382" lon="-0.4631">
        <ele>48</ele>
        <time>2013-02-13T08:20:58.860Z</time>
      </trkpt>
      <trkpt lat="47.38202" lon="-0.46314">
        <ele>27.7</ele>
        <time>2013-02-13T08:20:59.850Z</time>
      </trkpt>
      <trkpt lat="47.38201" lon="-0.46313">
        <ele>47.9</ele>
        <time>2013-02-13T08:21:01.670Z</time>
      </trkpt>
      <trkpt lat="47.38209" lon="-0.46319">
        <ele>47.7</ele>
        <time>2013-02-13T08:21:03.670Z</time>
      </trkpt>
      <trkpt lat="47.38214" lon="-0.46333">
        <ele>47.3</ele>
        <time>2013-02-13T08:21:04.670Z</time>
      </trkpt>
      <trkpt lat="47.38219" lon="-0.46348">
        <ele>47.1</ele>
        <time>2013-02-13T08:21:05.670Z</time>
      </trkpt>
      <trkpt lat="47.38221" lon="-0.4636">
        <ele>47</ele>
        <time>2013-02-13T08:21:06.830Z</time>
      </trkpt>
      <trkpt lat="47.38226" lon="-0.46386">
        <ele>47</ele>
        <time>2013-02-13T08:21:08.730Z</time>
      </trkpt>
      <trkpt lat="47.38222" lon="-0.46406">
        <ele>47</ele>
        <time>2013-02-13T08:21:10.730Z</time>
      </trkpt>
      <trkpt lat="47.38222" lon="-0.46417">
        <ele>47</ele>
        <time>2013-02-13T08:21:11.730Z</time>
      </trkpt>
      <trkpt lat="47.38222" lon="-0.46428">
        <ele>47</ele>
        <time>2013-02-13T08:21:12.690Z</time>
      </trkpt>
      <trkpt lat="47.38223" lon="-0.46429">
        <ele>47</ele>
        <time>2013-02-13T08:21:13.730Z</time>
      </trkpt>
      <trkpt lat="47.38223" lon="-0.46437">
        <ele>47</ele>
        <time>2013-02-13T08:21:16.680Z</time>
      </trkpt>
      <trkpt lat="47.38223" lon="-0.46435">
        <ele>47</ele>
        <time>2013-02-13T08:21:17.670Z</time>
      </trkpt>
      <trkpt lat="47.38222" lon="-0.46433">
        <ele>47</ele>
        <time>2013-02-13T08:21:18.670Z</time>
      </trkpt>
      <trkpt lat="47.38222" lon="-0.46431">
        <ele>47</ele>
        <time>2013-02-13T08:21:19.680Z</time>
      </trkpt>
      <trkpt lat="47.38221" lon="-0.46429">
        <ele>47</ele>
        <time>2013-02-13T08:21:20.670Z</time>
      </trkpt>
      <trkpt lat="47.38221" lon="-0.46426">
        <ele>47</ele>
        <time>2013-02-13T08:21:21.670Z</time>
      </trkpt>
      <trkpt lat="47.3822" lon="-0.46424">
        <ele>47</ele>
        <time>2013-02-13T08:21:22.730Z</time>
      </trkpt>
      <trkpt lat="47.38219" lon="-0.46421">
        <ele>47</ele>
        <time>2013-02-13T08:21:23.730Z</time>
      </trkpt>
      <trkpt lat="47.38216" lon="-0.46417">
        <ele>47</ele>
        <time>2013-02-13T08:21:25.730Z</time>
      </trkpt>
      <trkpt lat="47.38215" lon="-0.46415">
        <ele>47</ele>
        <time>2013-02-13T08:21:26.730Z</time>
      </trkpt>
      <trkpt lat="47.38215" lon="-0.46413">
        <ele>47</ele>
        <time>2013-02-13T08:21:27.730Z</time>
      </trkpt>
      <trkpt lat="47.38214" lon="-0.46411">
        <ele>47</ele>
        <time>2013-02-13T08:21:28.730Z</time>
      </trkpt>
      <trkpt lat="47.38214" lon="-0.46408">
        <ele>47</ele>
        <time>2013-02-13T08:21:29.820Z</time>
      </trkpt>
      <trkpt lat="47.38213" lon="-0.46403">
        <ele>47</ele>
        <time>2013-02-13T08:21:31.670Z</time>
      </trkpt>
      <trkpt lat="47.38213" lon="-0.464">
        <ele>47</ele>
        <time>2013-02-13T08:21:32.670Z</time>
      </trkpt>
      <trkpt lat="47.38214" lon="-0.46379">
        <ele>47.1</ele>
        <time>2013-02-13T08:21:33.780Z</time>
      </trkpt>
      <trkpt lat="47.38218" lon="-0.46356">
        <ele>47.2</ele>
        <time>2013-02-13T08:21:35.670Z</time>
      </trkpt>
      <trkpt lat="47.3822" lon="-0.46348">
        <ele>47.1</ele>
        <time>2013-02-13T08:21:36.670Z</time>
      </trkpt>
      <trkpt lat="47.38222" lon="-0.46338">
        <ele>47</ele>
        <time>2013-02-13T08:21:37.670Z</time>
      </trkpt>
      <trkpt lat="47.38223" lon="-0.46334">
        <ele>47</ele>
        <time>2013-02-13T08:21:38.670Z</time>
      </trkpt>
      <trkpt lat="47.38225" lon="-0.4633">
        <ele>47.1</ele>
        <time>2013-02-13T08:21:39.670Z</time>
      </trkpt>
      <trkpt lat="47.38227" lon="-0.46326">
        <ele>47.2</ele>
        <time>2013-02-13T08:21:40.670Z</time>
      </trkpt>
      <trkpt lat="47.38227" lon="-0.46322">
        <ele>47.3</ele>
        <time>2013-02-13T08:21:41.670Z</time>
      </trkpt>
      <trkpt lat="47.38228" lon="-0.46319">
        <ele>47.4</ele>
        <time>2013-02-13T08:21:42.670Z</time>
      </trkpt>
      <trkpt lat="47.38229" lon="-0.46316">
        <ele>47.5</ele>
        <time>2013-02-13T08:21:43.670Z</time>
      </trkpt>
      <trkpt lat="47.38229" lon="-0.46314">
        <ele>47.5</ele>
        <time>2013-02-13T08:21:44.720Z</time>
      </trkpt>
      <trkpt lat="47.3823" lon="-0.46311">
        <ele>47.6</ele>
        <time>2013-02-13T08:21:45.720Z</time>
      </trkpt>
      <trkpt lat="47.38231" lon="-0.46308">
        <ele>47.6</ele>
        <time>2013-02-13T08:21:46.780Z</time>
      </trkpt>
      <trkpt lat="47.38233" lon="-0.46305">
        <ele>47.6</ele>
        <time>2013-02-13T08:21:48.670Z</time>
      </trkpt>
      <trkpt lat="47.38234" lon="-0.46302">
        <ele>47.6</ele>
        <time>2013-02-13T08:21:49.670Z</time>
      </trkpt>
      <trkpt lat="47.38235" lon="-0.463">
        <ele>47.6</ele>
        <time>2013-02-13T08:21:50.680Z</time>
      </trkpt>
      <trkpt lat="47.38236" lon="-0.46298">
        <ele>47.6</ele>
        <time>2013-02-13T08:21:51.720Z</time>
      </trkpt>
      <trkpt lat="47.38237" lon="-0.46295">
        <ele>47.7</ele>
        <time>2013-02-13T08:21:52.850Z</time>
      </trkpt>
      <trkpt lat="47.3824" lon="-0.46291">
        <ele>47.7</ele>
        <time>2013-02-13T08:21:54.760Z</time>
      </trkpt>
      <trkpt lat="47.38244" lon="-0.46287">
        <ele>47.7</ele>
        <time>2013-02-13T08:21:56.850Z</time>
      </trkpt>
      <trkpt lat="47.38248" lon="-0.46284">
        <ele>47.8</ele>
        <time>2013-02-13T08:21:58.720Z</time>
      </trkpt>
      <trkpt lat="47.3825" lon="-0.46282">
        <ele>26</ele>
        <time>2013-02-13T08:21:59.830Z</time>
      </trkpt>
      <trkpt lat="47.38253" lon="-0.46278">
        <ele>48</ele>
        <time>2013-02-13T08:22:01.850Z</time>
      </trkpt>
      <trkpt lat="47.38257" lon="-0.46273">
        <ele>48</ele>
        <time>2013-02-13T08:22:03.810Z</time>
      </trkpt>
      <trkpt lat="47.38261" lon="-0.4627">
        <ele>48</ele>
        <time>2013-02-13T08:22:05.780Z</time>
      </trkpt>
      <trkpt lat="47.38265" lon="-0.46268">
        <ele>48</ele>
        <time>2013-02-13T08:22:07.770Z</time>
      </trkpt>
      <trkpt lat="47.38268" lon="-0.46265">
        <ele>48</ele>
        <time>2013-02-13T08:22:09.780Z</time>
      </trkpt>
      <trkpt lat="47.38272" lon="-0.46262">
        <ele>48</ele>
        <time>2013-02-13T08:22:11.770Z</time>
      </trkpt>
      <trkpt lat="47.38276" lon="-0.46259">
        <ele>48</ele>
        <time>2013-02-13T08:22:13.670Z</time>
      </trkpt>
      <trkpt lat="47.38277" lon="-0.46257">
        <ele>48</ele>
        <time>2013-02-13T08:22:14.670Z</time>
      </trkpt>
      <trkpt lat="47.38278" lon="-0.46255">
        <ele>48</ele>
        <time>2013-02-13T08:22:15.670Z</time>
      </trkpt>
      <trkpt lat="47.38279" lon="-0.46253">
        <ele>48</ele>
        <time>2013-02-13T08:22:16.680Z</time>
      </trkpt>
      <trkpt lat="47.38281" lon="-0.46252">
        <ele>48</ele>
        <time>2013-02-13T08:22:17.710Z</time>
      </trkpt>
      <trkpt lat="47.38282" lon="-0.46251">
        <ele>48</ele>
        <time>2013-02-13T08:22:18.790Z</time>
      </trkpt>
      <trkpt lat="47.38283" lon="-0.46249">
        <ele>48</ele>
        <time>2013-02-13T08:22:19.780Z</time>
      </trkpt>
      <trkpt lat="47.38285" lon="-0.46247">
        <ele>48.1</ele>
        <time>2013-02-13T08:22:20.700Z</time>
      </trkpt>
      <trkpt lat="47.38289" lon="-0.46244">
        <ele>48.2</ele>
        <time>2013-02-13T08:22:22.670Z</time>
      </trkpt>
      <trkpt lat="47.3829" lon="-0.46242">
        <ele>48.3</ele>
        <time>2013-02-13T08:22:23.780Z</time>
      </trkpt>
      <trkpt lat="47.38295" lon="-0.4624">
        <ele>48.4</ele>
        <time>2013-02-13T08:22:25.850Z</time>
      </trkpt>
      <trkpt lat="47.38298" lon="-0.46236">
        <ele>48.5</ele>
        <time>2013-02-13T08:22:27.710Z</time>
      </trkpt>
      <trkpt lat="47.38299" lon="-0.46234">
        <ele>48.6</ele>
        <time>2013-02-13T08:22:28.790Z</time>
      </trkpt>
      <trkpt lat="47.38302" lon="-0.4623">
        <ele>48.7</ele>
        <time>2013-02-13T08:22:30.780Z</time>
      </trkpt>
      <trkpt lat="47.38305" lon="-0.46225">
        <ele>48.9</ele>
        <time>2013-02-13T08:22:32.670Z</time>
      </trkpt>
      <trkpt lat="47.38305" lon="-0.46224">
        <ele>48.9</ele>
        <time>2013-02-13T08:22:33.680Z</time>
      </trkpt>
      <trkpt lat="47.38307" lon="-0.46223">
        <ele>48.9</ele>
        <time>2013-02-13T08:22:34.780Z</time>
      </trkpt>
      <trkpt lat="47.38309" lon="-0.4622">
        <ele>48.9</ele>
        <time>2013-02-13T08:22:36.780Z</time>
      </trkpt>
      <trkpt lat="47.38314" lon="-0.46218">
        <ele>48.7</ele>
        <time>2013-02-13T08:22:38.780Z</time>
      </trkpt>
      <trkpt lat="47.38317" lon="-0.46217">
        <ele>48.6</ele>
        <time>2013-02-13T08:22:40.780Z</time>
      </trkpt>
      <trkpt lat="47.38322" lon="-0.46217">
        <ele>48.4</ele>
        <time>2013-02-13T08:22:42.780Z</time>
      </trkpt>
      <trkpt lat="47.38326" lon="-0.46216">
        <ele>48.3</ele>
        <time>2013-02-13T08:22:44.710Z</time>
      </trkpt>
      <trkpt lat="47.38327" lon="-0.46217">
        <ele>48.2</ele>
        <time>2013-02-13T08:22:45.800Z</time>
      </trkpt>
      <trkpt lat="47.3833" lon="-0.46218">
        <ele>48.1</ele>
        <time>2013-02-13T08:22:47.670Z</time>
      </trkpt>
      <trkpt lat="47.38333" lon="-0.46219">
        <ele>48</ele>
        <time>2013-02-13T08:22:48.670Z</time>
      </trkpt>
      <trkpt lat="47.38335" lon="-0.4622">
        <ele>48</ele>
        <time>2013-02-13T08:22:49.880Z</time>
      </trkpt>
      <trkpt lat="47.38339" lon="-0.46222">
        <ele>48</ele>
        <time>2013-02-13T08:22:51.670Z</time>
      </trkpt>
      <trkpt lat="47.3834" lon="-0.46224">
        <ele>48</ele>
        <time>2013-02-13T08:22:52.670Z</time>
      </trkpt>
      <trkpt lat="47.38341" lon="-0.46227">
        <ele>48</ele>
        <time>2013-02-13T08:22:53.780Z</time>
      </trkpt>
      <trkpt lat="47.38343" lon="-0.46229">
        <ele>48</ele>
        <time>2013-02-13T08:22:54.680Z</time>
      </trkpt>
      <trkpt lat="47.38344" lon="-0.46231">
        <ele>48</ele>
        <time>2013-02-13T08:22:55.800Z</time>
      </trkpt>
      <trkpt lat="47.38346" lon="-0.46236">
        <ele>48</ele>
        <time>2013-02-13T08:22:57.710Z</time>
      </trkpt>
      <trkpt lat="47.38347" lon="-0.46238">
        <ele>48</ele>
        <time>2013-02-13T08:22:58.780Z</time>
      </trkpt>
      <trkpt lat="47.38347" lon="-0.46241">
        <ele>45.2</ele>
        <time>2013-02-13T08:22:59.850Z</time>
      </trkpt>
      <trkpt lat="47.38349" lon="-0.46245">
        <ele>48</ele>
        <time>2013-02-13T08:23:01.790Z</time>
      </trkpt>
      <trkpt lat="47.38352" lon="-0.4625">
        <ele>48</ele>
        <time>2013-02-13T08:23:03.880Z</time>
      </trkpt>
      <trkpt lat="47.38354" lon="-0.46255">
        <ele>48</ele>
        <time>2013-02-13T08:23:05.670Z</time>
      </trkpt>
      <trkpt lat="47.38355" lon="-0.46259">
        <ele>48</ele>
        <time>2013-02-13T08:23:06.770Z</time>
      </trkpt>
      <trkpt lat="47.38357" lon="-0.46264">
        <ele>48</ele>
        <time>2013-02-13T08:23:08.770Z</time>
      </trkpt>
      <trkpt lat="47.3836" lon="-0.46268">
        <ele>48</ele>
        <time>2013-02-13T08:23:10.770Z</time>
      </trkpt>
      <trkpt lat="47.38365" lon="-0.4627">
        <ele>48</ele>
        <time>2013-02-13T08:23:12.770Z</time>
      </trkpt>
      <trkpt lat="47.3837" lon="-0.46268">
        <ele>48</ele>
        <time>2013-02-13T08:23:14.780Z</time>
      </trkpt>
      <trkpt lat="47.38374" lon="-0.46266">
        <ele>48</ele>
        <time>2013-02-13T08:23:16.680Z</time>
      </trkpt>
      <trkpt lat="47.38378" lon="-0.46263">
        <ele>48</ele>
        <time>2013-02-13T08:23:18.670Z</time>
      </trkpt>
      <trkpt lat="47.38381" lon="-0.46263">
        <ele>48</ele>
        <time>2013-02-13T08:23:19.700Z</time>
      </trkpt>
      <trkpt lat="47.38383" lon="-0.46261">
        <ele>48</ele>
        <time>2013-02-13T08:23:20.770Z</time>
      </trkpt>
      <trkpt lat="47.38387" lon="-0.4626">
        <ele>48</ele>
        <time>2013-02-13T08:23:22.780Z</time>
      </trkpt>
      <trkpt lat="47.38391" lon="-0.46258">
        <ele>48.1</ele>
        <time>2013-02-13T08:23:24.700Z</time>
      </trkpt>
      <trkpt lat="47.38393" lon="-0.46257">
        <ele>48.1</ele>
        <time>2013-02-13T08:23:25.770Z</time>
      </trkpt>
      <trkpt lat="47.38397" lon="-0.46255">
        <ele>48.3</ele>
        <time>2013-02-13T08:23:27.770Z</time>
      </trkpt>
      <trkpt lat="47.38402" lon="-0.46254">
        <ele>48.5</ele>
        <time>2013-02-13T08:23:29.670Z</time>
      </trkpt>
      <trkpt lat="47.38404" lon="-0.46253">
        <ele>48.5</ele>
        <time>2013-02-13T08:23:30.700Z</time>
      </trkpt>
      <trkpt lat="47.38407" lon="-0.46252">
        <ele>48.6</ele>
        <time>2013-02-13T08:23:31.860Z</time>
      </trkpt>
      <trkpt lat="47.38411" lon="-0.46251">
        <ele>48.8</ele>
        <time>2013-02-13T08:23:33.680Z</time>
      </trkpt>
      <trkpt lat="47.38414" lon="-0.46251">
        <ele>48.9</ele>
        <time>2013-02-13T08:23:34.670Z</time>
      </trkpt>
      <trkpt lat="47.38416" lon="-0.4625">
        <ele>49</ele>
        <time>2013-02-13T08:23:35.670Z</time>
      </trkpt>
      <trkpt lat="47.38418" lon="-0.4625">
        <ele>49</ele>
        <time>2013-02-13T08:23:36.670Z</time>
      </trkpt>
      <trkpt lat="47.3842" lon="-0.4625">
        <ele>49</ele>
        <time>2013-02-13T08:23:37.870Z</time>
      </trkpt>
      <trkpt lat="47.38425" lon="-0.46248">
        <ele>49</ele>
        <time>2013-02-13T08:23:39.790Z</time>
      </trkpt>
      <trkpt lat="47.3843" lon="-0.46246">
        <ele>49.1</ele>
        <time>2013-02-13T08:23:41.670Z</time>
      </trkpt>
      <trkpt lat="47.38432" lon="-0.46246">
        <ele>49.1</ele>
        <time>2013-02-13T08:23:42.690Z</time>
      </trkpt>
      <trkpt lat="47.38435" lon="-0.46245">
        <ele>49.1</ele>
        <time>2013-02-13T08:23:43.770Z</time>
      </trkpt>
      <trkpt lat="47.38438" lon="-0.46243">
        <ele>49.2</ele>
        <time>2013-02-13T08:23:45.820Z</time>
      </trkpt>
      <trkpt lat="47.38441" lon="-0.46241">
        <ele>49.3</ele>
        <time>2013-02-13T08:23:47.670Z</time>
      </trkpt>
      <trkpt lat="47.38444" lon="-0.46241">
        <ele>49.3</ele>
        <time>2013-02-13T08:23:48.690Z</time>
      </trkpt>
      <trkpt lat="47.38446" lon="-0.4624">
        <ele>49.4</ele>
        <time>2013-02-13T08:23:49.770Z</time>
      </trkpt>
      <trkpt lat="47.38449" lon="-0.46239">
        <ele>49.5</ele>
        <time>2013-02-13T08:23:51.670Z</time>
      </trkpt>
      <trkpt lat="47.38451" lon="-0.46238">
        <ele>49.6</ele>
        <time>2013-02-13T08:23:52.960Z</time>
      </trkpt>
      <trkpt lat="47.38455" lon="-0.46237">
        <ele>49.7</ele>
        <time>2013-02-13T08:23:54.790Z</time>
      </trkpt>
      <trkpt lat="47.38459" lon="-0.46235">
        <ele>49.8</ele>
        <time>2013-02-13T08:23:56.870Z</time>
      </trkpt>
      <trkpt lat="47.38463" lon="-0.46233">
        <ele>49.9</ele>
        <time>2013-02-13T08:23:58.770Z</time>
      </trkpt>
      <trkpt lat="47.38466" lon="-0.46231">
        <ele>49.9</ele>
        <time>2013-02-13T08:24:00.670Z</time>
      </trkpt>
      <trkpt lat="47.38468" lon="-0.4623">
        <ele>50</ele>
        <time>2013-02-13T08:24:01.860Z</time>
      </trkpt>
      <trkpt lat="47.38472" lon="-0.46228">
        <ele>50</ele>
        <time>2013-02-13T08:24:03.670Z</time>
      </trkpt>
      <trkpt lat="47.38474" lon="-0.46227">
        <ele>50</ele>
        <time>2013-02-13T08:24:04.780Z</time>
      </trkpt>
      <trkpt lat="47.38476" lon="-0.46227">
        <ele>50</ele>
        <time>2013-02-13T08:24:05.860Z</time>
      </trkpt>
      <trkpt lat="47.38481" lon="-0.46224">
        <ele>50</ele>
        <time>2013-02-13T08:24:07.780Z</time>
      </trkpt>
      <trkpt lat="47.38484" lon="-0.46223">
        <ele>50</ele>
        <time>2013-02-13T08:24:09.790Z</time>
      </trkpt>
      <trkpt lat="47.38487" lon="-0.46221">
        <ele>50</ele>
        <time>2013-02-13T08:24:11.690Z</time>
      </trkpt>
      <trkpt lat="47.38489" lon="-0.4622">
        <ele>50</ele>
        <time>2013-02-13T08:24:12.690Z</time>
      </trkpt>
      <trkpt lat="47.38491" lon="-0.46219">
        <ele>50</ele>
        <time>2013-02-13T08:24:13.770Z</time>
      </trkpt>
      <trkpt lat="47.38496" lon="-0.46217">
        <ele>50</ele>
        <time>2013-02-13T08:24:15.870Z</time>
      </trkpt>
      <trkpt lat="47.38497" lon="-0.46215">
        <ele>50</ele>
        <time>2013-02-13T08:24:16.830Z</time>
      </trkpt>
      <trkpt lat="47.38501" lon="-0.46212">
        <ele>50</ele>
        <time>2013-02-13T08:24:18.780Z</time>
      </trkpt>
      <trkpt lat="47.38504" lon="-0.46208">
        <ele>50</ele>
        <time>2013-02-13T08:24:20.670Z</time>
      </trkpt>
      <trkpt lat="47.38506" lon="-0.46206">
        <ele>50</ele>
        <time>2013-02-13T08:24:21.670Z</time>
      </trkpt>
      <trkpt lat="47.38508" lon="-0.46205">
        <ele>50</ele>
        <time>2013-02-13T08:24:22.780Z</time>
      </trkpt>
      <trkpt lat="47.38511" lon="-0.46201">
        <ele>50</ele>
        <time>2013-02-13T08:24:24.670Z</time>
      </trkpt>
      <trkpt lat="47.38512" lon="-0.46199">
        <ele>50</ele>
        <time>2013-02-13T08:24:25.780Z</time>
      </trkpt>
      <trkpt lat="47.38514" lon="-0.46194">
        <ele>50</ele>
        <time>2013-02-13T08:24:27.780Z</time>
      </trkpt>
      <trkpt lat="47.38516" lon="-0.46189">
        <ele>50</ele>
        <time>2013-02-13T08:24:29.880Z</time>
      </trkpt>
      <trkpt lat="47.38517" lon="-0.46184">
        <ele>50</ele>
        <time>2013-02-13T08:24:31.800Z</time>
      </trkpt>
      <trkpt lat="47.38518" lon="-0.46178">
        <ele>50</ele>
        <time>2013-02-13T08:24:33.820Z</time>
      </trkpt>
      <trkpt lat="47.38519" lon="-0.46171">
        <ele>50</ele>
        <time>2013-02-13T08:24:35.670Z</time>
      </trkpt>
      <trkpt lat="47.38519" lon="-0.46168">
        <ele>50</ele>
        <time>2013-02-13T08:24:36.810Z</time>
      </trkpt>
      <trkpt lat="47.38519" lon="-0.4616">
        <ele>50</ele>
        <time>2013-02-13T08:24:38.670Z</time>
      </trkpt>
      <trkpt lat="47.38519" lon="-0.46158">
        <ele>50</ele>
        <time>2013-02-13T08:24:39.670Z</time>
      </trkpt>
      <trkpt lat="47.38518" lon="-0.46154">
        <ele>50</ele>
        <time>2013-02-13T08:24:40.810Z</time>
      </trkpt>
      <trkpt lat="47.38517" lon="-0.46148">
        <ele>50</ele>
        <time>2013-02-13T08:24:42.780Z</time>
      </trkpt>
      <trkpt lat="47.38516" lon="-0.46142">
        <ele>50</ele>
        <time>2013-02-13T08:24:44.680Z</time>
      </trkpt>
      <trkpt lat="47.38516" lon="-0.4614">
        <ele>50</ele>
        <time>2013-02-13T08:24:45.780Z</time>
      </trkpt>
      <trkpt lat="47.38515" lon="-0.46134">
        <ele>50.1</ele>
        <time>2013-02-13T08:24:47.780Z</time>
      </trkpt>
      <trkpt lat="47.38514" lon="-0.46128">
        <ele>50.2</ele>
        <time>2013-02-13T08:24:49.760Z</time>
      </trkpt>
      <trkpt lat="47.38513" lon="-0.46125">
        <ele>50.2</ele>
        <time>2013-02-13T08:24:50.690Z</time>
      </trkpt>
      <trkpt lat="47.38512" lon="-0.46121">
        <ele>50.3</ele>
        <time>2013-02-13T08:24:51.670Z</time>
      </trkpt>
      <trkpt lat="47.38511" lon="-0.46117">
        <ele>50.3</ele>
        <time>2013-02-13T08:24:52.810Z</time>
      </trkpt>
      <trkpt lat="47.38511" lon="-0.46114">
        <ele>50.3</ele>
        <time>2013-02-13T08:24:53.730Z</time>
      </trkpt>
      <trkpt lat="47.3851" lon="-0.46108">
        <ele>50.4</ele>
        <time>2013-02-13T08:24:55.670Z</time>
      </trkpt>
      <trkpt lat="47.38509" lon="-0.46105">
        <ele>50.5</ele>
        <time>2013-02-13T08:24:56.800Z</time>
      </trkpt>
      <trkpt lat="47.38508" lon="-0.461">
        <ele>50.6</ele>
        <time>2013-02-13T08:24:58.670Z</time>
      </trkpt>
      <trkpt lat="47.38507" lon="-0.46096">
        <ele>51.6</ele>
        <time>2013-02-13T08:24:59.830Z</time>
      </trkpt>
      <trkpt lat="47.38506" lon="-0.4609">
        <ele>50.8</ele>
        <time>2013-02-13T08:25:01.780Z</time>
      </trkpt>
      <trkpt lat="47.38505" lon="-0.46084">
        <ele>51</ele>
        <time>2013-02-13T08:25:03.760Z</time>
      </trkpt>
      <trkpt lat="47.38505" lon="-0.46081">
        <ele>51</ele>
        <time>2013-02-13T08:25:04.670Z</time>
      </trkpt>
      <trkpt lat="47.38504" lon="-0.46078">
        <ele>51</ele>
        <time>2013-02-13T08:25:05.680Z</time>
      </trkpt>
      <trkpt lat="47.38503" lon="-0.46075">
        <ele>51</ele>
        <time>2013-02-13T08:25:06.670Z</time>
      </trkpt>
      <trkpt lat="47.38503" lon="-0.46072">
        <ele>51</ele>
        <time>2013-02-13T08:25:07.800Z</time>
      </trkpt>
      <trkpt lat="47.38501" lon="-0.46065">
        <ele>51</ele>
        <time>2013-02-13T08:25:09.670Z</time>
      </trkpt>
      <trkpt lat="47.385" lon="-0.46062">
        <ele>51</ele>
        <time>2013-02-13T08:25:10.800Z</time>
      </trkpt>
      <trkpt lat="47.38498" lon="-0.46057">
        <ele>51</ele>
        <time>2013-02-13T08:25:12.670Z</time>
      </trkpt>
      <trkpt lat="47.38498" lon="-0.46054">
        <ele>51</ele>
        <time>2013-02-13T08:25:13.770Z</time>
      </trkpt>
      <trkpt lat="47.38497" lon="-0.46049">
        <ele>51</ele>
        <time>2013-02-13T08:25:15.910Z</time>
      </trkpt>
      <trkpt lat="47.38495" lon="-0.46044">
        <ele>51</ele>
        <time>2013-02-13T08:25:17.790Z</time>
      </trkpt>
      <trkpt lat="47.38494" lon="-0.46037">
        <ele>51</ele>
        <time>2013-02-13T08:25:19.800Z</time>
      </trkpt>
      <trkpt lat="47.38491" lon="-0.46031">
        <ele>51</ele>
        <time>2013-02-13T08:25:21.670Z</time>
      </trkpt>
      <trkpt lat="47.3849" lon="-0.46028">
        <ele>51</ele>
        <time>2013-02-13T08:25:22.770Z</time>
      </trkpt>
      <trkpt lat="47.3849" lon="-0.46025">
        <ele>51.1</ele>
        <time>2013-02-13T08:25:23.670Z</time>
      </trkpt>
      <trkpt lat="47.38489" lon="-0.46022">
        <ele>51.2</ele>
        <time>2013-02-13T08:25:24.770Z</time>
      </trkpt>
      <trkpt lat="47.38488" lon="-0.4602">
        <ele>51.3</ele>
        <time>2013-02-13T08:25:25.670Z</time>
      </trkpt>
      <trkpt lat="47.38487" lon="-0.46017">
        <ele>51.4</ele>
        <time>2013-02-13T08:25:26.670Z</time>
      </trkpt>
      <trkpt lat="47.38486" lon="-0.46014">
        <ele>51.5</ele>
        <time>2013-02-13T08:25:27.720Z</time>
      </trkpt>
      <trkpt lat="47.38485" lon="-0.4601">
        <ele>51.6</ele>
        <time>2013-02-13T08:25:28.670Z</time>
      </trkpt>
      <trkpt lat="47.38485" lon="-0.46008">
        <ele>51.7</ele>
        <time>2013-02-13T08:25:29.800Z</time>
      </trkpt>
      <trkpt lat="47.38485" lon="-0.46002">
        <ele>51.9</ele>
        <time>2013-02-13T08:25:31.670Z</time>
      </trkpt>
      <trkpt lat="47.38484" lon="-0.45999">
        <ele>52</ele>
        <time>2013-02-13T08:25:32.770Z</time>
      </trkpt>
      <trkpt lat="47.38483" lon="-0.45996">
        <ele>52</ele>
        <time>2013-02-13T08:25:33.680Z</time>
      </trkpt>
      <trkpt lat="47.38483" lon="-0.45993">
        <ele>52</ele>
        <time>2013-02-13T08:25:34.670Z</time>
      </trkpt>
      <trkpt lat="47.38482" lon="-0.45989">
        <ele>52</ele>
        <time>2013-02-13T08:25:35.780Z</time>
      </trkpt>
      <trkpt lat="47.38481" lon="-0.45983">
        <ele>52</ele>
        <time>2013-02-13T08:25:37.670Z</time>
      </trkpt>
      <trkpt lat="47.3848" lon="-0.45979">
        <ele>52</ele>
        <time>2013-02-13T08:25:38.770Z</time>
      </trkpt>
      <trkpt lat="47.38478" lon="-0.45973">
        <ele>52</ele>
        <time>2013-02-13T08:25:40.770Z</time>
      </trkpt>
      <trkpt lat="47.38475" lon="-0.45968">
        <ele>52.1</ele>
        <time>2013-02-13T08:25:42.670Z</time>
      </trkpt>
      <trkpt lat="47.38473" lon="-0.45966">
        <ele>52.2</ele>
        <time>2013-02-13T08:25:43.760Z</time>
      </trkpt>
      <trkpt lat="47.38472" lon="-0.45963">
        <ele>52.3</ele>
        <time>2013-02-13T08:25:44.690Z</time>
      </trkpt>
      <trkpt lat="47.38471" lon="-0.45961">
        <ele>52.4</ele>
        <time>2013-02-13T08:25:45.790Z</time>
      </trkpt>
      <trkpt lat="47.38469" lon="-0.45959">
        <ele>52.4</ele>
        <time>2013-02-13T08:25:46.800Z</time>
      </trkpt>
      <trkpt lat="47.38467" lon="-0.45954">
        <ele>52.5</ele>
        <time>2013-02-13T08:25:48.760Z</time>
      </trkpt>
      <trkpt lat="47.38466" lon="-0.45951">
        <ele>52.6</ele>
        <time>2013-02-13T08:25:49.670Z</time>
      </trkpt>
      <trkpt lat="47.38464" lon="-0.45948">
        <ele>52.6</ele>
        <time>2013-02-13T08:25:50.720Z</time>
      </trkpt>
      <trkpt lat="47.38462" lon="-0.45946">
        <ele>52.6</ele>
        <time>2013-02-13T08:25:51.670Z</time>
      </trkpt>
      <trkpt lat="47.3846" lon="-0.45942">
        <ele>52.6</ele>
        <time>2013-02-13T08:25:52.800Z</time>
      </trkpt>
      <trkpt lat="47.38458" lon="-0.45937">
        <ele>52.6</ele>
        <time>2013-02-13T08:25:54.670Z</time>
      </trkpt>
      <trkpt lat="47.38456" lon="-0.45934">
        <ele>52.6</ele>
        <time>2013-02-13T08:25:55.770Z</time>
      </trkpt>
      <trkpt lat="47.38455" lon="-0.45929">
        <ele>52.7</ele>
        <time>2013-02-13T08:25:57.670Z</time>
      </trkpt>
      <trkpt lat="47.38454" lon="-0.45927">
        <ele>52.8</ele>
        <time>2013-02-13T08:25:58.790Z</time>
      </trkpt>
      <trkpt lat="47.38452" lon="-0.45921">
        <ele>54.9</ele>
        <time>2013-02-13T08:26:00.670Z</time>
      </trkpt>
      <trkpt lat="47.38451" lon="-0.45918">
        <ele>53</ele>
        <time>2013-02-13T08:26:01.680Z</time>
      </trkpt>
      <trkpt lat="47.38449" lon="-0.45911">
        <ele>53</ele>
        <time>2013-02-13T08:26:03.790Z</time>
      </trkpt>
      <trkpt lat="47.38448" lon="-0.45905">
        <ele>53</ele>
        <time>2013-02-13T08:26:05.670Z</time>
      </trkpt>
      <trkpt lat="47.38447" lon="-0.45901">
        <ele>53</ele>
        <time>2013-02-13T08:26:06.880Z</time>
      </trkpt>
      <trkpt lat="47.38445" lon="-0.45896">
        <ele>53</ele>
        <time>2013-02-13T08:26:08.790Z</time>
      </trkpt>
      <trkpt lat="47.38443" lon="-0.4589">
        <ele>53</ele>
        <time>2013-02-13T08:26:10.670Z</time>
      </trkpt>
      <trkpt lat="47.38443" lon="-0.45887">
        <ele>53</ele>
        <time>2013-02-13T08:26:11.670Z</time>
      </trkpt>
      <trkpt lat="47.38442" lon="-0.45884">
        <ele>53</ele>
        <time>2013-02-13T08:26:12.780Z</time>
      </trkpt>
      <trkpt lat="47.3844" lon="-0.45879">
        <ele>53</ele>
        <time>2013-02-13T08:26:14.890Z</time>
      </trkpt>
      <trkpt lat="47.38439" lon="-0.45877">
        <ele>53</ele>
        <time>2013-02-13T08:26:15.670Z</time>
      </trkpt>
      <trkpt lat="47.38438" lon="-0.45874">
        <ele>53</ele>
        <time>2013-02-13T08:26:16.710Z</time>
      </trkpt>
      <trkpt lat="47.38437" lon="-0.45872">
        <ele>53</ele>
        <time>2013-02-13T08:26:17.680Z</time>
      </trkpt>
      <trkpt lat="47.38436" lon="-0.45869">
        <ele>53</ele>
        <time>2013-02-13T08:26:18.810Z</time>
      </trkpt>
      <trkpt lat="47.38434" lon="-0.45862">
        <ele>53</ele>
        <time>2013-02-13T08:26:20.670Z</time>
      </trkpt>
      <trkpt lat="47.38434" lon="-0.45858">
        <ele>53</ele>
        <time>2013-02-13T08:26:21.880Z</time>
      </trkpt>
      <trkpt lat="47.38432" lon="-0.45851">
        <ele>53</ele>
        <time>2013-02-13T08:26:23.790Z</time>
      </trkpt>
      <trkpt lat="47.38431" lon="-0.45843">
        <ele>53</ele>
        <time>2013-02-13T08:26:25.670Z</time>
      </trkpt>
      <trkpt lat="47.3843" lon="-0.45841">
        <ele>53</ele>
        <time>2013-02-13T08:26:26.750Z</time>
      </trkpt>
      <trkpt lat="47.38429" lon="-0.45838">
        <ele>53</ele>
        <time>2013-02-13T08:26:27.670Z</time>
      </trkpt>
      <trkpt lat="47.38428" lon="-0.45835">
        <ele>53</ele>
        <time>2013-02-13T08:26:28.780Z</time>
      </trkpt>
      <trkpt lat="47.38426" lon="-0.45828">
        <ele>52.8</ele>
        <time>2013-02-13T08:26:30.670Z</time>
      </trkpt>
      <trkpt lat="47.38425" lon="-0.45826">
        <ele>52.7</ele>
        <time>2013-02-13T08:26:31.870Z</time>
      </trkpt>
      <trkpt lat="47.38423" lon="-0.4582">
        <ele>52.5</ele>
        <time>2013-02-13T08:26:33.840Z</time>
      </trkpt>
      <trkpt lat="47.38421" lon="-0.45815">
        <ele>52.3</ele>
        <time>2013-02-13T08:26:35.920Z</time>
      </trkpt>
      <trkpt lat="47.3842" lon="-0.4581">
        <ele>52.1</ele>
        <time>2013-02-13T08:26:37.670Z</time>
      </trkpt>
      <trkpt lat="47.38419" lon="-0.45807">
        <ele>52</ele>
        <time>2013-02-13T08:26:38.790Z</time>
      </trkpt>
      <trkpt lat="47.38418" lon="-0.45803">
        <ele>52</ele>
        <time>2013-02-13T08:26:39.770Z</time>
      </trkpt>
      <trkpt lat="47.38416" lon="-0.45796">
        <ele>52</ele>
        <time>2013-02-13T08:26:41.780Z</time>
      </trkpt>
      <trkpt lat="47.38415" lon="-0.45789">
        <ele>52</ele>
        <time>2013-02-13T08:26:43.670Z</time>
      </trkpt>
      <trkpt lat="47.38414" lon="-0.45785">
        <ele>52</ele>
        <time>2013-02-13T08:26:44.860Z</time>
      </trkpt>
      <trkpt lat="47.38412" lon="-0.45779">
        <ele>52</ele>
        <time>2013-02-13T08:26:46.750Z</time>
      </trkpt>
      <trkpt lat="47.38411" lon="-0.45775">
        <ele>51.9</ele>
        <time>2013-02-13T08:26:47.670Z</time>
      </trkpt>
      <trkpt lat="47.3841" lon="-0.45773">
        <ele>51.8</ele>
        <time>2013-02-13T08:26:48.800Z</time>
      </trkpt>
      <trkpt lat="47.38407" lon="-0.45766">
        <ele>51.6</ele>
        <time>2013-02-13T08:26:50.680Z</time>
      </trkpt>
      <trkpt lat="47.38406" lon="-0.45764">
        <ele>51.5</ele>
        <time>2013-02-13T08:26:51.670Z</time>
      </trkpt>
      <trkpt lat="47.38406" lon="-0.45761">
        <ele>51.4</ele>
        <time>2013-02-13T08:26:52.700Z</time>
      </trkpt>
      <trkpt lat="47.38405" lon="-0.45758">
        <ele>51.3</ele>
        <time>2013-02-13T08:26:53.670Z</time>
      </trkpt>
      <trkpt lat="47.38404" lon="-0.45755">
        <ele>51.2</ele>
        <time>2013-02-13T08:26:54.780Z</time>
      </trkpt>
      <trkpt lat="47.38404" lon="-0.45752">
        <ele>51.1</ele>
        <time>2013-02-13T08:26:55.770Z</time>
      </trkpt>
      <trkpt lat="47.38403" lon="-0.45747">
        <ele>51</ele>
        <time>2013-02-13T08:26:57.780Z</time>
      </trkpt>
      <trkpt lat="47.38401" lon="-0.45741">
        <ele>56.8</ele>
        <time>2013-02-13T08:26:59.700Z</time>
      </trkpt>
      <trkpt lat="47.38399" lon="-0.45733">
        <ele>51</ele>
        <time>2013-02-13T08:27:01.670Z</time>
      </trkpt>
      <trkpt lat="47.38399" lon="-0.4573">
        <ele>51</ele>
        <time>2013-02-13T08:27:02.800Z</time>
      </trkpt>
      <trkpt lat="47.38397" lon="-0.45723">
        <ele>51</ele>
        <time>2013-02-13T08:27:04.670Z</time>
      </trkpt>
      <trkpt lat="47.38396" lon="-0.4572">
        <ele>51</ele>
        <time>2013-02-13T08:27:05.740Z</time>
      </trkpt>
      <trkpt lat="47.38394" lon="-0.45714">
        <ele>51</ele>
        <time>2013-02-13T08:27:07.770Z</time>
      </trkpt>
      <trkpt lat="47.38391" lon="-0.45708">
        <ele>51</ele>
        <time>2013-02-13T08:27:09.680Z</time>
      </trkpt>
      <trkpt lat="47.3839" lon="-0.45705">
        <ele>51</ele>
        <time>2013-02-13T08:27:10.670Z</time>
      </trkpt>
      <trkpt lat="47.38389" lon="-0.45702">
        <ele>51</ele>
        <time>2013-02-13T08:27:11.670Z</time>
      </trkpt>
      <trkpt lat="47.38388" lon="-0.45699">
        <ele>51</ele>
        <time>2013-02-13T08:27:12.740Z</time>
      </trkpt>
      <trkpt lat="47.38387" lon="-0.45696">
        <ele>51.1</ele>
        <time>2013-02-13T08:27:13.670Z</time>
      </trkpt>
      <trkpt lat="47.38386" lon="-0.45692">
        <ele>51.1</ele>
        <time>2013-02-13T08:27:14.740Z</time>
      </trkpt>
      <trkpt lat="47.38384" lon="-0.45689">
        <ele>51.2</ele>
        <time>2013-02-13T08:27:15.670Z</time>
      </trkpt>
      <trkpt lat="47.38384" lon="-0.45686">
        <ele>51.2</ele>
        <time>2013-02-13T08:27:16.700Z</time>
      </trkpt>
      <trkpt lat="47.38383" lon="-0.45683">
        <ele>51.2</ele>
        <time>2013-02-13T08:27:17.670Z</time>
      </trkpt>
      <trkpt lat="47.3838" lon="-0.45676">
        <ele>51.3</ele>
        <time>2013-02-13T08:27:19.770Z</time>
      </trkpt>
      <trkpt lat="47.38378" lon="-0.45669">
        <ele>51.4</ele>
        <time>2013-02-13T08:27:21.670Z</time>
      </trkpt>
      <trkpt lat="47.38378" lon="-0.45667">
        <ele>51.4</ele>
        <time>2013-02-13T08:27:22.850Z</time>
      </trkpt>
      <trkpt lat="47.38376" lon="-0.45662">
        <ele>51.5</ele>
        <time>2013-02-13T08:27:24.770Z</time>
      </trkpt>
      <trkpt lat="47.38375" lon="-0.45659">
        <ele>51.5</ele>
        <time>2013-02-13T08:27:25.740Z</time>
      </trkpt>
      <trkpt lat="47.38374" lon="-0.45655">
        <ele>51.5</ele>
        <time>2013-02-13T08:27:26.680Z</time>
      </trkpt>
      <trkpt lat="47.38374" lon="-0.45652">
        <ele>51.6</ele>
        <time>2013-02-13T08:27:27.670Z</time>
      </trkpt>
      <trkpt lat="47.38373" lon="-0.45649">
        <ele>51.6</ele>
        <time>2013-02-13T08:27:28.780Z</time>
      </trkpt>
      <trkpt lat="47.38371" lon="-0.45643">
        <ele>51.6</ele>
        <time>2013-02-13T08:27:30.670Z</time>
      </trkpt>
      <trkpt lat="47.38371" lon="-0.4564">
        <ele>51.6</ele>
        <time>2013-02-13T08:27:31.780Z</time>
      </trkpt>
      <trkpt lat="47.3837" lon="-0.45635">
        <ele>51.6</ele>
        <time>2013-02-13T08:27:33.830Z</time>
      </trkpt>
      <trkpt lat="47.38369" lon="-0.4563">
        <ele>51.5</ele>
        <time>2013-02-13T08:27:35.790Z</time>
      </trkpt>
      <trkpt lat="47.38368" lon="-0.45627">
        <ele>51.4</ele>
        <time>2013-02-13T08:27:37.420Z</time>
      </trkpt>
      <trkpt lat="47.38367" lon="-0.4562">
        <ele>51.3</ele>
        <time>2013-02-13T08:27:38.670Z</time>
      </trkpt>
      <trkpt lat="47.38366" lon="-0.45617">
        <ele>51.2</ele>
        <time>2013-02-13T08:27:39.670Z</time>
      </trkpt>
      <trkpt lat="47.38365" lon="-0.45614">
        <ele>51.1</ele>
        <time>2013-02-13T08:27:40.670Z</time>
      </trkpt>
      <trkpt lat="47.38365" lon="-0.4561">
        <ele>51</ele>
        <time>2013-02-13T08:27:42.020Z</time>
      </trkpt>
      <trkpt lat="47.38363" lon="-0.45603">
        <ele>51</ele>
        <time>2013-02-13T08:27:43.820Z</time>
      </trkpt>
      <trkpt lat="47.38361" lon="-0.45595">
        <ele>51</ele>
        <time>2013-02-13T08:27:45.770Z</time>
      </trkpt>
      <trkpt lat="47.38357" lon="-0.45587">
        <ele>51.1</ele>
        <time>2013-02-13T08:27:47.730Z</time>
      </trkpt>
      <trkpt lat="47.38356" lon="-0.45583">
        <ele>51.2</ele>
        <time>2013-02-13T08:27:48.870Z</time>
      </trkpt>
      <trkpt lat="47.38355" lon="-0.45576">
        <ele>51.2</ele>
        <time>2013-02-13T08:27:50.830Z</time>
      </trkpt>
      <trkpt lat="47.38354" lon="-0.4557">
        <ele>51.3</ele>
        <time>2013-02-13T08:27:52.790Z</time>
      </trkpt>
      <trkpt lat="47.38352" lon="-0.45562">
        <ele>51.3</ele>
        <time>2013-02-13T08:27:54.670Z</time>
      </trkpt>
      <trkpt lat="47.38351" lon="-0.45558">
        <ele>51.4</ele>
        <time>2013-02-13T08:27:55.670Z</time>
      </trkpt>
      <trkpt lat="47.38351" lon="-0.45555">
        <ele>51.4</ele>
        <time>2013-02-13T08:27:56.770Z</time>
      </trkpt>
      <trkpt lat="47.3835" lon="-0.45548">
        <ele>51.4</ele>
        <time>2013-02-13T08:27:58.670Z</time>
      </trkpt>
      <trkpt lat="47.3835" lon="-0.45545">
        <ele>56.6</ele>
        <time>2013-02-13T08:27:59.770Z</time>
      </trkpt>
      <trkpt lat="47.38349" lon="-0.45538">
        <ele>51.4</ele>
        <time>2013-02-13T08:28:01.730Z</time>
      </trkpt>
      <trkpt lat="47.38348" lon="-0.45534">
        <ele>51.5</ele>
        <time>2013-02-13T08:28:02.730Z</time>
      </trkpt>
      <trkpt lat="47.38348" lon="-0.45531">
        <ele>51.5</ele>
        <time>2013-02-13T08:28:03.780Z</time>
      </trkpt>
      <trkpt lat="47.38347" lon="-0.45524">
        <ele>51.5</ele>
        <time>2013-02-13T08:28:05.730Z</time>
      </trkpt>
      <trkpt lat="47.38347" lon="-0.45521">
        <ele>51.5</ele>
        <time>2013-02-13T08:28:06.730Z</time>
      </trkpt>
      <trkpt lat="47.38346" lon="-0.45518">
        <ele>51.5</ele>
        <time>2013-02-13T08:28:07.780Z</time>
      </trkpt>
      <trkpt lat="47.38344" lon="-0.45511">
        <ele>51.6</ele>
        <time>2013-02-13T08:28:09.670Z</time>
      </trkpt>
      <trkpt lat="47.38343" lon="-0.45508">
        <ele>51.7</ele>
        <time>2013-02-13T08:28:10.670Z</time>
      </trkpt>
      <trkpt lat="47.38342" lon="-0.45505">
        <ele>51.7</ele>
        <time>2013-02-13T08:28:11.760Z</time>
      </trkpt>
      <trkpt lat="47.38342" lon="-0.45502">
        <ele>51.7</ele>
        <time>2013-02-13T08:28:12.670Z</time>
      </trkpt>
      <trkpt lat="47.38341" lon="-0.45499">
        <ele>51.7</ele>
        <time>2013-02-13T08:28:13.670Z</time>
      </trkpt>
      <trkpt lat="47.38341" lon="-0.45496">
        <ele>51.7</ele>
        <time>2013-02-13T08:28:14.730Z</time>
      </trkpt>
      <trkpt lat="47.3834" lon="-0.45492">
        <ele>51.8</ele>
        <time>2013-02-13T08:28:15.780Z</time>
      </trkpt>
      <trkpt lat="47.3834" lon="-0.45489">
        <ele>51.8</ele>
        <time>2013-02-13T08:28:16.810Z</time>
      </trkpt>
      <trkpt lat="47.38339" lon="-0.45483">
        <ele>51.8</ele>
        <time>2013-02-13T08:28:18.670Z</time>
      </trkpt>
      <trkpt lat="47.38338" lon="-0.4548">
        <ele>51.8</ele>
        <time>2013-02-13T08:28:19.670Z</time>
      </trkpt>
      <trkpt lat="47.38337" lon="-0.45476">
        <ele>51.9</ele>
        <time>2013-02-13T08:28:20.670Z</time>
      </trkpt>
      <trkpt lat="47.38337" lon="-0.45473">
        <ele>51.9</ele>
        <time>2013-02-13T08:28:21.670Z</time>
      </trkpt>
      <trkpt lat="47.38337" lon="-0.4547">
        <ele>51.9</ele>
        <time>2013-02-13T08:28:22.860Z</time>
      </trkpt>
      <trkpt lat="47.38336" lon="-0.45466">
        <ele>51.9</ele>
        <time>2013-02-13T08:28:23.790Z</time>
      </trkpt>
      <trkpt lat="47.38335" lon="-0.45459">
        <ele>51.9</ele>
        <time>2013-02-13T08:28:25.790Z</time>
      </trkpt>
      <trkpt lat="47.38334" lon="-0.45454">
        <ele>52</ele>
        <time>2013-02-13T08:28:27.780Z</time>
      </trkpt>
      <trkpt lat="47.38332" lon="-0.45448">
        <ele>52</ele>
        <time>2013-02-13T08:28:29.670Z</time>
      </trkpt>
      <trkpt lat="47.38332" lon="-0.45445">
        <ele>52.1</ele>
        <time>2013-02-13T08:28:30.720Z</time>
      </trkpt>
      <trkpt lat="47.3833" lon="-0.45441">
        <ele>52.1</ele>
        <time>2013-02-13T08:28:31.720Z</time>
      </trkpt>
      <trkpt lat="47.38329" lon="-0.45438">
        <ele>52.2</ele>
        <time>2013-02-13T08:28:32.780Z</time>
      </trkpt>
      <trkpt lat="47.38326" lon="-0.45432">
        <ele>52.3</ele>
        <time>2013-02-13T08:28:34.700Z</time>
      </trkpt>
      <trkpt lat="47.38324" lon="-0.45429">
        <ele>52.3</ele>
        <time>2013-02-13T08:28:35.780Z</time>
      </trkpt>
      <trkpt lat="47.38322" lon="-0.45424">
        <ele>52.4</ele>
        <time>2013-02-13T08:28:37.670Z</time>
      </trkpt>
      <trkpt lat="47.3832" lon="-0.45421">
        <ele>52.5</ele>
        <time>2013-02-13T08:28:38.670Z</time>
      </trkpt>
      <trkpt lat="47.38319" lon="-0.45418">
        <ele>52.5</ele>
        <time>2013-02-13T08:28:39.670Z</time>
      </trkpt>
      <trkpt lat="47.38318" lon="-0.45415">
        <ele>52.5</ele>
        <time>2013-02-13T08:28:40.790Z</time>
      </trkpt>
      <trkpt lat="47.38314" lon="-0.4541">
        <ele>52.5</ele>
        <time>2013-02-13T08:28:42.670Z</time>
      </trkpt>
      <trkpt lat="47.38313" lon="-0.45406">
        <ele>52.5</ele>
        <time>2013-02-13T08:28:43.670Z</time>
      </trkpt>
      <trkpt lat="47.38311" lon="-0.45403">
        <ele>52.4</ele>
        <time>2013-02-13T08:28:44.670Z</time>
      </trkpt>
      <trkpt lat="47.3831" lon="-0.454">
        <ele>52.3</ele>
        <time>2013-02-13T08:28:45.950Z</time>
      </trkpt>
      <trkpt lat="47.38307" lon="-0.45393">
        <ele>52.1</ele>
        <time>2013-02-13T08:28:47.670Z</time>
      </trkpt>
      <trkpt lat="47.38306" lon="-0.4539">
        <ele>52</ele>
        <time>2013-02-13T08:28:48.670Z</time>
      </trkpt>
      <trkpt lat="47.38304" lon="-0.45387">
        <ele>52.1</ele>
        <time>2013-02-13T08:28:49.790Z</time>
      </trkpt>
      <trkpt lat="47.38302" lon="-0.4538">
        <ele>52.4</ele>
        <time>2013-02-13T08:28:51.680Z</time>
      </trkpt>
      <trkpt lat="47.38301" lon="-0.45377">
        <ele>52.6</ele>
        <time>2013-02-13T08:28:52.790Z</time>
      </trkpt>
      <trkpt lat="47.38299" lon="-0.45371">
        <ele>52.9</ele>
        <time>2013-02-13T08:28:54.670Z</time>
      </trkpt>
      <trkpt lat="47.38298" lon="-0.45368">
        <ele>53</ele>
        <time>2013-02-13T08:28:55.670Z</time>
      </trkpt>
      <trkpt lat="47.38297" lon="-0.45364">
        <ele>53.2</ele>
        <time>2013-02-13T08:28:56.800Z</time>
      </trkpt>
      <trkpt lat="47.38294" lon="-0.45357">
        <ele>53.4</ele>
        <time>2013-02-13T08:28:58.670Z</time>
      </trkpt>
      <trkpt lat="47.38294" lon="-0.45354">
        <ele>57.2</ele>
        <time>2013-02-13T08:28:59.700Z</time>
      </trkpt>
      <trkpt lat="47.38292" lon="-0.4535">
        <ele>53.5</ele>
        <time>2013-02-13T08:29:00.720Z</time>
      </trkpt>
      <trkpt lat="47.38292" lon="-0.45347">
        <ele>53.5</ele>
        <time>2013-02-13T08:29:01.770Z</time>
      </trkpt>
      <trkpt lat="47.3829" lon="-0.45341">
        <ele>53.6</ele>
        <time>2013-02-13T08:29:03.670Z</time>
      </trkpt>
      <trkpt lat="47.38289" lon="-0.45338">
        <ele>53.6</ele>
        <time>2013-02-13T08:29:04.670Z</time>
      </trkpt>
      <trkpt lat="47.38288" lon="-0.45335">
        <ele>53.6</ele>
        <time>2013-02-13T08:29:05.670Z</time>
      </trkpt>
      <trkpt lat="47.38287" lon="-0.45332">
        <ele>53.7</ele>
        <time>2013-02-13T08:29:06.670Z</time>
      </trkpt>
      <trkpt lat="47.38287" lon="-0.45329">
        <ele>53.7</ele>
        <time>2013-02-13T08:29:07.780Z</time>
      </trkpt>
      <trkpt lat="47.38286" lon="-0.45322">
        <ele>53.7</ele>
        <time>2013-02-13T08:29:09.770Z</time>
      </trkpt>
      <trkpt lat="47.38285" lon="-0.45319">
        <ele>53.7</ele>
        <time>2013-02-13T08:29:10.700Z</time>
      </trkpt>
      <trkpt lat="47.38284" lon="-0.45315">
        <ele>53.8</ele>
        <time>2013-02-13T08:29:11.710Z</time>
      </trkpt>
      <trkpt lat="47.38284" lon="-0.45312">
        <ele>53.8</ele>
        <time>2013-02-13T08:29:12.770Z</time>
      </trkpt>
      <trkpt lat="47.38282" lon="-0.45305">
        <ele>53.8</ele>
        <time>2013-02-13T08:29:14.670Z</time>
      </trkpt>
      <trkpt lat="47.38282" lon="-0.45302">
        <ele>53.9</ele>
        <time>2013-02-13T08:29:15.680Z</time>
      </trkpt>
      <trkpt lat="47.38281" lon="-0.45298">
        <ele>53.9</ele>
        <time>2013-02-13T08:29:16.890Z</time>
      </trkpt>
      <trkpt lat="47.3828" lon="-0.45291">
        <ele>53.9</ele>
        <time>2013-02-13T08:29:18.790Z</time>
      </trkpt>
      <trkpt lat="47.38278" lon="-0.45284">
        <ele>54</ele>
        <time>2013-02-13T08:29:20.670Z</time>
      </trkpt>
      <trkpt lat="47.38277" lon="-0.4528">
        <ele>54</ele>
        <time>2013-02-13T08:29:21.940Z</time>
      </trkpt>
      <trkpt lat="47.38275" lon="-0.45273">
        <ele>54.1</ele>
        <time>2013-02-13T08:29:23.670Z</time>
      </trkpt>
      <trkpt lat="47.38275" lon="-0.45269">
        <ele>54.1</ele>
        <time>2013-02-13T08:29:24.670Z</time>
      </trkpt>
      <trkpt lat="47.38274" lon="-0.45266">
        <ele>54.1</ele>
        <time>2013-02-13T08:29:25.680Z</time>
      </trkpt>
      <trkpt lat="47.38274" lon="-0.45263">
        <ele>54.1</ele>
        <time>2013-02-13T08:29:26.670Z</time>
      </trkpt>
      <trkpt lat="47.38274" lon="-0.4526">
        <ele>54.2</ele>
        <time>2013-02-13T08:29:27.780Z</time>
      </trkpt>
      <trkpt lat="47.38273" lon="-0.45253">
        <ele>54.2</ele>
        <time>2013-02-13T08:29:29.770Z</time>
      </trkpt>
      <trkpt lat="47.38272" lon="-0.45246">
        <ele>54.2</ele>
        <time>2013-02-13T08:29:31.670Z</time>
      </trkpt>
      <trkpt lat="47.38271" lon="-0.45243">
        <ele>54.3</ele>
        <time>2013-02-13T08:29:32.670Z</time>
      </trkpt>
      <trkpt lat="47.38271" lon="-0.45239">
        <ele>54.4</ele>
        <time>2013-02-13T08:29:33.680Z</time>
      </trkpt>
      <trkpt lat="47.3827" lon="-0.45233">
        <ele>54.5</ele>
        <time>2013-02-13T08:29:35.770Z</time>
      </trkpt>
      <trkpt lat="47.38269" lon="-0.45226">
        <ele>54.6</ele>
        <time>2013-02-13T08:29:37.770Z</time>
      </trkpt>
      <trkpt lat="47.38268" lon="-0.4522">
        <ele>54.8</ele>
        <time>2013-02-13T08:29:39.770Z</time>
      </trkpt>
      <trkpt lat="47.38267" lon="-0.45215">
        <ele>55</ele>
        <time>2013-02-13T08:29:41.670Z</time>
      </trkpt>
      <trkpt lat="47.38267" lon="-0.45211">
        <ele>55.2</ele>
        <time>2013-02-13T08:29:42.820Z</time>
      </trkpt>
      <trkpt lat="47.38265" lon="-0.45205">
        <ele>55.6</ele>
        <time>2013-02-13T08:29:44.800Z</time>
      </trkpt>
      <trkpt lat="47.38264" lon="-0.452">
        <ele>55.8</ele>
        <time>2013-02-13T08:29:46.740Z</time>
      </trkpt>
      <trkpt lat="47.38263" lon="-0.45197">
        <ele>56</ele>
        <time>2013-02-13T08:29:47.770Z</time>
      </trkpt>
      <trkpt lat="47.38262" lon="-0.45191">
        <ele>56.2</ele>
        <time>2013-02-13T08:29:49.780Z</time>
      </trkpt>
      <trkpt lat="47.3826" lon="-0.45184">
        <ele>56.4</ele>
        <time>2013-02-13T08:29:51.780Z</time>
      </trkpt>
      <trkpt lat="47.38259" lon="-0.45178">
        <ele>56.5</ele>
        <time>2013-02-13T08:29:53.770Z</time>
      </trkpt>
      <trkpt lat="47.38258" lon="-0.45171">
        <ele>56.7</ele>
        <time>2013-02-13T08:29:55.670Z</time>
      </trkpt>
      <trkpt lat="47.38258" lon="-0.45168">
        <ele>56.7</ele>
        <time>2013-02-13T08:29:56.770Z</time>
      </trkpt>
      <trkpt lat="47.38257" lon="-0.45161">
        <ele>56.8</ele>
        <time>2013-02-13T08:29:58.920Z</time>
      </trkpt>
      <trkpt lat="47.38257" lon="-0.45158">
        <ele>58.9</ele>
        <time>2013-02-13T08:29:59.890Z</time>
      </trkpt>
      <trkpt lat="47.38256" lon="-0.45151">
        <ele>56.9</ele>
        <time>2013-02-13T08:30:01.670Z</time>
      </trkpt>
      <trkpt lat="47.38256" lon="-0.45148">
        <ele>56.9</ele>
        <time>2013-02-13T08:30:02.770Z</time>
      </trkpt>
      <trkpt lat="47.38254" lon="-0.45141">
        <ele>57</ele>
        <time>2013-02-13T08:30:04.780Z</time>
      </trkpt>
      <trkpt lat="47.38253" lon="-0.45134">
        <ele>57.2</ele>
        <time>2013-02-13T08:30:06.700Z</time>
      </trkpt>
      <trkpt lat="47.38252" lon="-0.45131">
        <ele>57.3</ele>
        <time>2013-02-13T08:30:07.780Z</time>
      </trkpt>
      <trkpt lat="47.3825" lon="-0.45124">
        <ele>57.5</ele>
        <time>2013-02-13T08:30:09.790Z</time>
      </trkpt>
      <trkpt lat="47.38249" lon="-0.45117">
        <ele>57.8</ele>
        <time>2013-02-13T08:30:11.670Z</time>
      </trkpt>
      <trkpt lat="47.38249" lon="-0.45113">
        <ele>57.9</ele>
        <time>2013-02-13T08:30:12.770Z</time>
      </trkpt>
      <trkpt lat="47.38249" lon="-0.45107">
        <ele>58</ele>
        <time>2013-02-13T08:30:14.700Z</time>
      </trkpt>
      <trkpt lat="47.38248" lon="-0.45103">
        <ele>58</ele>
        <time>2013-02-13T08:30:15.780Z</time>
      </trkpt>
      <trkpt lat="47.38247" lon="-0.45095">
        <ele>58</ele>
        <time>2013-02-13T08:30:17.670Z</time>
      </trkpt>
      <trkpt lat="47.38247" lon="-0.45092">
        <ele>58</ele>
        <time>2013-02-13T08:30:18.700Z</time>
      </trkpt>
      <trkpt lat="47.38247" lon="-0.45088">
        <ele>58</ele>
        <time>2013-02-13T08:30:19.790Z</time>
      </trkpt>
      <trkpt lat="47.38246" lon="-0.45081">
        <ele>58</ele>
        <time>2013-02-13T08:30:21.670Z</time>
      </trkpt>
      <trkpt lat="47.38247" lon="-0.45078">
        <ele>58</ele>
        <time>2013-02-13T08:30:22.670Z</time>
      </trkpt>
      <trkpt lat="47.38247" lon="-0.45074">
        <ele>58</ele>
        <time>2013-02-13T08:30:23.770Z</time>
      </trkpt>
      <trkpt lat="47.38247" lon="-0.4507">
        <ele>58</ele>
        <time>2013-02-13T08:30:24.770Z</time>
      </trkpt>
      <trkpt lat="47.38248" lon="-0.45064">
        <ele>58</ele>
        <time>2013-02-13T08:30:26.770Z</time>
      </trkpt>
      <trkpt lat="47.38248" lon="-0.45057">
        <ele>58</ele>
        <time>2013-02-13T08:30:28.770Z</time>
      </trkpt>
      <trkpt lat="47.38248" lon="-0.45051">
        <ele>57.8</ele>
        <time>2013-02-13T08:30:30.770Z</time>
      </trkpt>
      <trkpt lat="47.38248" lon="-0.45044">
        <ele>57.6</ele>
        <time>2013-02-13T08:30:32.690Z</time>
      </trkpt>
      <trkpt lat="47.38248" lon="-0.4504">
        <ele>57.5</ele>
        <time>2013-02-13T08:30:33.870Z</time>
      </trkpt>
      <trkpt lat="47.38247" lon="-0.45034">
        <ele>57.3</ele>
        <time>2013-02-13T08:30:35.830Z</time>
      </trkpt>
      <trkpt lat="47.38247" lon="-0.45031">
        <ele>57.2</ele>
        <time>2013-02-13T08:30:36.690Z</time>
      </trkpt>
      <trkpt lat="47.38247" lon="-0.45027">
        <ele>57.1</ele>
        <time>2013-02-13T08:30:37.840Z</time>
      </trkpt>
      <trkpt lat="47.38247" lon="-0.4502">
        <ele>57.1</ele>
        <time>2013-02-13T08:30:39.770Z</time>
      </trkpt>
      <trkpt lat="47.38247" lon="-0.45014">
        <ele>57</ele>
        <time>2013-02-13T08:30:41.690Z</time>
      </trkpt>
      <trkpt lat="47.38247" lon="-0.45011">
        <ele>57</ele>
        <time>2013-02-13T08:30:42.870Z</time>
      </trkpt>
      <trkpt lat="47.38247" lon="-0.45004">
        <ele>57</ele>
        <time>2013-02-13T08:30:44.780Z</time>
      </trkpt>
      <trkpt lat="47.38246" lon="-0.44997">
        <ele>57</ele>
        <time>2013-02-13T08:30:46.880Z</time>
      </trkpt>
      <trkpt lat="47.38246" lon="-0.4499">
        <ele>57</ele>
        <time>2013-02-13T08:30:48.790Z</time>
      </trkpt>
      <trkpt lat="47.38245" lon="-0.44983">
        <ele>57</ele>
        <time>2013-02-13T08:30:50.880Z</time>
      </trkpt>
      <trkpt lat="47.38245" lon="-0.44977">
        <ele>57</ele>
        <time>2013-02-13T08:30:52.670Z</time>
      </trkpt>
      <trkpt lat="47.38245" lon="-0.44973">
        <ele>57</ele>
        <time>2013-02-13T08:30:53.700Z</time>
      </trkpt>
      <trkpt lat="47.38245" lon="-0.4497">
        <ele>56.9</ele>
        <time>2013-02-13T08:30:54.810Z</time>
      </trkpt>
      <trkpt lat="47.38245" lon="-0.44963">
        <ele>56.7</ele>
        <time>2013-02-13T08:30:56.670Z</time>
      </trkpt>
      <trkpt lat="47.38245" lon="-0.4496">
        <ele>56.6</ele>
        <time>2013-02-13T08:30:57.720Z</time>
      </trkpt>
      <trkpt lat="47.38245" lon="-0.44957">
        <ele>56.4</ele>
        <time>2013-02-13T08:30:58.820Z</time>
      </trkpt>
      <trkpt lat="47.38245" lon="-0.44953">
        <ele>58.6</ele>
        <time>2013-02-13T08:30:59.840Z</time>
      </trkpt>
      <trkpt lat="47.38245" lon="-0.44946">
        <ele>56.1</ele>
        <time>2013-02-13T08:31:01.670Z</time>
      </trkpt>
      <trkpt lat="47.38244" lon="-0.44943">
        <ele>55.9</ele>
        <time>2013-02-13T08:31:02.670Z</time>
      </trkpt>
      <trkpt lat="47.38244" lon="-0.4494">
        <ele>55.8</ele>
        <time>2013-02-13T08:31:03.780Z</time>
      </trkpt>
      <trkpt lat="47.38243" lon="-0.44933">
        <ele>55.6</ele>
        <time>2013-02-13T08:31:05.780Z</time>
      </trkpt>
      <trkpt lat="47.38243" lon="-0.44927">
        <ele>55.4</ele>
        <time>2013-02-13T08:31:07.820Z</time>
      </trkpt>
      <trkpt lat="47.38243" lon="-0.4492">
        <ele>55.1</ele>
        <time>2013-02-13T08:31:09.670Z</time>
      </trkpt>
      <trkpt lat="47.38242" lon="-0.44916">
        <ele>55</ele>
        <time>2013-02-13T08:31:10.770Z</time>
      </trkpt>
      <trkpt lat="47.38242" lon="-0.44909">
        <ele>55</ele>
        <time>2013-02-13T08:31:12.820Z</time>
      </trkpt>
      <trkpt lat="47.38242" lon="-0.44903">
        <ele>55</ele>
        <time>2013-02-13T08:31:14.770Z</time>
      </trkpt>
      <trkpt lat="47.38242" lon="-0.44896">
        <ele>55</ele>
        <time>2013-02-13T08:31:16.680Z</time>
      </trkpt>
      <trkpt lat="47.38242" lon="-0.44893">
        <ele>55</ele>
        <time>2013-02-13T08:31:17.780Z</time>
      </trkpt>
      <trkpt lat="47.38241" lon="-0.44886">
        <ele>54.9</ele>
        <time>2013-02-13T08:31:19.770Z</time>
      </trkpt>
      <trkpt lat="47.38241" lon="-0.44878">
        <ele>54.6</ele>
        <time>2013-02-13T08:31:21.670Z</time>
      </trkpt>
      <trkpt lat="47.38241" lon="-0.44875">
        <ele>54.5</ele>
        <time>2013-02-13T08:31:22.820Z</time>
      </trkpt>
      <trkpt lat="47.38241" lon="-0.44869">
        <ele>54.3</ele>
        <time>2013-02-13T08:31:24.860Z</time>
      </trkpt>
      <trkpt lat="47.38241" lon="-0.44862">
        <ele>54</ele>
        <time>2013-02-13T08:31:26.770Z</time>
      </trkpt>
      <trkpt lat="47.3824" lon="-0.44856">
        <ele>54</ele>
        <time>2013-02-13T08:31:28.780Z</time>
      </trkpt>
      <trkpt lat="47.3824" lon="-0.44848">
        <ele>54</ele>
        <time>2013-02-13T08:31:30.780Z</time>
      </trkpt>
      <trkpt lat="47.3824" lon="-0.44841">
        <ele>54</ele>
        <time>2013-02-13T08:31:32.840Z</time>
      </trkpt>
      <trkpt lat="47.3824" lon="-0.44837">
        <ele>54</ele>
        <time>2013-02-13T08:31:33.820Z</time>
      </trkpt>
      <trkpt lat="47.38239" lon="-0.4483">
        <ele>53.9</ele>
        <time>2013-02-13T08:31:35.770Z</time>
      </trkpt>
      <trkpt lat="47.38239" lon="-0.44824">
        <ele>53.7</ele>
        <time>2013-02-13T08:31:37.810Z</time>
      </trkpt>
      <trkpt lat="47.38239" lon="-0.44821">
        <ele>53.5</ele>
        <time>2013-02-13T08:31:38.920Z</time>
      </trkpt>
      <trkpt lat="47.38238" lon="-0.44815">
        <ele>53.3</ele>
        <time>2013-02-13T08:31:40.830Z</time>
      </trkpt>
      <trkpt lat="47.38237" lon="-0.44808">
        <ele>53.1</ele>
        <time>2013-02-13T08:31:42.670Z</time>
      </trkpt>
      <trkpt lat="47.38236" lon="-0.44805">
        <ele>53</ele>
        <time>2013-02-13T08:31:43.850Z</time>
      </trkpt>
      <trkpt lat="47.38235" lon="-0.44798">
        <ele>53</ele>
        <time>2013-02-13T08:31:45.670Z</time>
      </trkpt>
      <trkpt lat="47.38235" lon="-0.44795">
        <ele>53</ele>
        <time>2013-02-13T08:31:46.780Z</time>
      </trkpt>
      <trkpt lat="47.38234" lon="-0.44788">
        <ele>53</ele>
        <time>2013-02-13T08:31:48.670Z</time>
      </trkpt>
      <trkpt lat="47.38233" lon="-0.44785">
        <ele>53</ele>
        <time>2013-02-13T08:31:49.870Z</time>
      </trkpt>
      <trkpt lat="47.38232" lon="-0.44778">
        <ele>53</ele>
        <time>2013-02-13T08:31:51.670Z</time>
      </trkpt>
      <trkpt lat="47.38232" lon="-0.44775">
        <ele>53</ele>
        <time>2013-02-13T08:31:52.830Z</time>
      </trkpt>
      <trkpt lat="47.38231" lon="-0.44768">
        <ele>52.9</ele>
        <time>2013-02-13T08:31:54.770Z</time>
      </trkpt>
      <trkpt lat="47.38229" lon="-0.44761">
        <ele>52.8</ele>
        <time>2013-02-13T08:31:56.830Z</time>
      </trkpt>
      <trkpt lat="47.38229" lon="-0.44757">
        <ele>52.8</ele>
        <time>2013-02-13T08:31:57.780Z</time>
      </trkpt>
      <trkpt lat="47.38228" lon="-0.44751">
        <ele>55.1</ele>
        <time>2013-02-13T08:31:59.700Z</time>
      </trkpt>
      <trkpt lat="47.38227" lon="-0.44747">
        <ele>52.7</ele>
        <time>2013-02-13T08:32:00.670Z</time>
      </trkpt>
      <trkpt lat="47.38226" lon="-0.44744">
        <ele>52.7</ele>
        <time>2013-02-13T08:32:01.780Z</time>
      </trkpt>
      <trkpt lat="47.38226" lon="-0.44741">
        <ele>52.6</ele>
        <time>2013-02-13T08:32:02.830Z</time>
      </trkpt>
      <trkpt lat="47.38225" lon="-0.44733">
        <ele>52.4</ele>
        <time>2013-02-13T08:32:04.670Z</time>
      </trkpt>
      <trkpt lat="47.38225" lon="-0.4473">
        <ele>52.3</ele>
        <time>2013-02-13T08:32:05.780Z</time>
      </trkpt>
      <trkpt lat="47.38223" lon="-0.44725">
        <ele>52.1</ele>
        <time>2013-02-13T08:32:07.670Z</time>
      </trkpt>
      <trkpt lat="47.38223" lon="-0.44721">
        <ele>52</ele>
        <time>2013-02-13T08:32:08.770Z</time>
      </trkpt>
      <trkpt lat="47.38221" lon="-0.44715">
        <ele>52</ele>
        <time>2013-02-13T08:32:10.830Z</time>
      </trkpt>
      <trkpt lat="47.3822" lon="-0.44708">
        <ele>52</ele>
        <time>2013-02-13T08:32:12.670Z</time>
      </trkpt>
      <trkpt lat="47.38219" lon="-0.44704">
        <ele>52</ele>
        <time>2013-02-13T08:32:13.780Z</time>
      </trkpt>
      <trkpt lat="47.38218" lon="-0.44697">
        <ele>52</ele>
        <time>2013-02-13T08:32:15.820Z</time>
      </trkpt>
      <trkpt lat="47.38217" lon="-0.44693">
        <ele>52</ele>
        <time>2013-02-13T08:32:16.970Z</time>
      </trkpt>
      <trkpt lat="47.38216" lon="-0.44687">
        <ele>52</ele>
        <time>2013-02-13T08:32:18.770Z</time>
      </trkpt>
      <trkpt lat="47.38215" lon="-0.4468">
        <ele>52</ele>
        <time>2013-02-13T08:32:20.670Z</time>
      </trkpt>
      <trkpt lat="47.38215" lon="-0.44676">
        <ele>52</ele>
        <time>2013-02-13T08:32:21.770Z</time>
      </trkpt>
      <trkpt lat="47.38213" lon="-0.4467">
        <ele>52</ele>
        <time>2013-02-13T08:32:23.770Z</time>
      </trkpt>
      <trkpt lat="47.38212" lon="-0.44664">
        <ele>51.9</ele>
        <time>2013-02-13T08:32:25.670Z</time>
      </trkpt>
      <trkpt lat="47.38212" lon="-0.4466">
        <ele>51.8</ele>
        <time>2013-02-13T08:32:26.840Z</time>
      </trkpt>
      <trkpt lat="47.3821" lon="-0.44654">
        <ele>51.5</ele>
        <time>2013-02-13T08:32:28.780Z</time>
      </trkpt>
      <trkpt lat="47.3821" lon="-0.4465">
        <ele>51.4</ele>
        <time>2013-02-13T08:32:29.770Z</time>
      </trkpt>
      <trkpt lat="47.3821" lon="-0.44647">
        <ele>51.3</ele>
        <time>2013-02-13T08:32:30.840Z</time>
      </trkpt>
      <trkpt lat="47.38208" lon="-0.4464">
        <ele>51</ele>
        <time>2013-02-13T08:32:32.680Z</time>
      </trkpt>
      <trkpt lat="47.38208" lon="-0.44636">
        <ele>51</ele>
        <time>2013-02-13T08:32:33.680Z</time>
      </trkpt>
      <trkpt lat="47.38207" lon="-0.44632">
        <ele>51</ele>
        <time>2013-02-13T08:32:34.670Z</time>
      </trkpt>
      <trkpt lat="47.38207" lon="-0.44629">
        <ele>51</ele>
        <time>2013-02-13T08:32:35.670Z</time>
      </trkpt>
      <trkpt lat="47.38206" lon="-0.44626">
        <ele>51</ele>
        <time>2013-02-13T08:32:36.840Z</time>
      </trkpt>
      <trkpt lat="47.38205" lon="-0.44619">
        <ele>51</ele>
        <time>2013-02-13T08:32:38.670Z</time>
      </trkpt>
      <trkpt lat="47.38204" lon="-0.44615">
        <ele>51</ele>
        <time>2013-02-13T08:32:39.770Z</time>
      </trkpt>
      <trkpt lat="47.38204" lon="-0.44612">
        <ele>51</ele>
        <time>2013-02-13T08:32:40.840Z</time>
      </trkpt>
      <trkpt lat="47.38203" lon="-0.44605">
        <ele>50.9</ele>
        <time>2013-02-13T08:32:42.670Z</time>
      </trkpt>
      <trkpt lat="47.38203" lon="-0.44602">
        <ele>50.8</ele>
        <time>2013-02-13T08:32:43.770Z</time>
      </trkpt>
      <trkpt lat="47.38201" lon="-0.44596">
        <ele>50.6</ele>
        <time>2013-02-13T08:32:45.770Z</time>
      </trkpt>
      <trkpt lat="47.382" lon="-0.44589">
        <ele>50.4</ele>
        <time>2013-02-13T08:32:47.670Z</time>
      </trkpt>
      <trkpt lat="47.38199" lon="-0.44586">
        <ele>50.2</ele>
        <time>2013-02-13T08:32:48.830Z</time>
      </trkpt>
      <trkpt lat="47.38198" lon="-0.44579">
        <ele>50.1</ele>
        <time>2013-02-13T08:32:50.680Z</time>
      </trkpt>
      <trkpt lat="47.38197" lon="-0.44577">
        <ele>50.1</ele>
        <time>2013-02-13T08:32:51.670Z</time>
      </trkpt>
      <trkpt lat="47.38197" lon="-0.44574">
        <ele>50.1</ele>
        <time>2013-02-13T08:32:52.770Z</time>
      </trkpt>
      <trkpt lat="47.38196" lon="-0.44567">
        <ele>50</ele>
        <time>2013-02-13T08:32:54.670Z</time>
      </trkpt>
      <trkpt lat="47.38195" lon="-0.44563">
        <ele>50</ele>
        <time>2013-02-13T08:32:55.850Z</time>
      </trkpt>
      <trkpt lat="47.38194" lon="-0.44557">
        <ele>50</ele>
        <time>2013-02-13T08:32:57.770Z</time>
      </trkpt>
      <trkpt lat="47.38193" lon="-0.44551">
        <ele>52.8</ele>
        <time>2013-02-13T08:32:59.920Z</time>
      </trkpt>
      <trkpt lat="47.38191" lon="-0.44544">
        <ele>50</ele>
        <time>2013-02-13T08:33:01.670Z</time>
      </trkpt>
      <trkpt lat="47.3819" lon="-0.44541">
        <ele>50</ele>
        <time>2013-02-13T08:33:02.770Z</time>
      </trkpt>
      <trkpt lat="47.38189" lon="-0.44534">
        <ele>50</ele>
        <time>2013-02-13T08:33:04.670Z</time>
      </trkpt>
      <trkpt lat="47.38189" lon="-0.44531">
        <ele>50</ele>
        <time>2013-02-13T08:33:05.670Z</time>
      </trkpt>
      <trkpt lat="47.38188" lon="-0.44527">
        <ele>50</ele>
        <time>2013-02-13T08:33:06.870Z</time>
      </trkpt>
      <trkpt lat="47.38187" lon="-0.4452">
        <ele>49.8</ele>
        <time>2013-02-13T08:33:08.830Z</time>
      </trkpt>
      <trkpt lat="47.38186" lon="-0.44513">
        <ele>49.6</ele>
        <time>2013-02-13T08:33:10.670Z</time>
      </trkpt>
      <trkpt lat="47.38186" lon="-0.44509">
        <ele>49.5</ele>
        <time>2013-02-13T08:33:11.780Z</time>
      </trkpt>
      <trkpt lat="47.38185" lon="-0.44502">
        <ele>49.4</ele>
        <time>2013-02-13T08:33:13.670Z</time>
      </trkpt>
      <trkpt lat="47.38185" lon="-0.44498">
        <ele>49.3</ele>
        <time>2013-02-13T08:33:14.850Z</time>
      </trkpt>
      <trkpt lat="47.38184" lon="-0.44492">
        <ele>49.4</ele>
        <time>2013-02-13T08:33:16.680Z</time>
      </trkpt>
      <trkpt lat="47.38185" lon="-0.44488">
        <ele>49.4</ele>
        <time>2013-02-13T08:33:17.770Z</time>
      </trkpt>
      <trkpt lat="47.38185" lon="-0.44484">
        <ele>49.4</ele>
        <time>2013-02-13T08:33:19.360Z</time>
      </trkpt>
      <trkpt lat="47.38184" lon="-0.44477">
        <ele>49.4</ele>
        <time>2013-02-13T08:33:20.750Z</time>
      </trkpt>
      <trkpt lat="47.38184" lon="-0.44473">
        <ele>49.4</ele>
        <time>2013-02-13T08:33:21.670Z</time>
      </trkpt>
      <trkpt lat="47.38185" lon="-0.4447">
        <ele>49.4</ele>
        <time>2013-02-13T08:33:22.750Z</time>
      </trkpt>
      <trkpt lat="47.38185" lon="-0.44467">
        <ele>49.3</ele>
        <time>2013-02-13T08:33:24.200Z</time>
      </trkpt>
      <trkpt lat="47.38186" lon="-0.44461">
        <ele>49.3</ele>
        <time>2013-02-13T08:33:25.670Z</time>
      </trkpt>
      <trkpt lat="47.38186" lon="-0.44458">
        <ele>49.3</ele>
        <time>2013-02-13T08:33:26.830Z</time>
      </trkpt>
      <trkpt lat="47.38186" lon="-0.44451">
        <ele>49.3</ele>
        <time>2013-02-13T08:33:28.670Z</time>
      </trkpt>
      <trkpt lat="47.38186" lon="-0.44448">
        <ele>49.3</ele>
        <time>2013-02-13T08:33:29.780Z</time>
      </trkpt>
      <trkpt lat="47.38187" lon="-0.44441">
        <ele>49.3</ele>
        <time>2013-02-13T08:33:31.670Z</time>
      </trkpt>
      <trkpt lat="47.38186" lon="-0.44437">
        <ele>49.4</ele>
        <time>2013-02-13T08:33:32.830Z</time>
      </trkpt>
      <trkpt lat="47.38186" lon="-0.44433">
        <ele>49.4</ele>
        <time>2013-02-13T08:33:33.900Z</time>
      </trkpt>
      <trkpt lat="47.38186" lon="-0.44425">
        <ele>49.5</ele>
        <time>2013-02-13T08:33:35.770Z</time>
      </trkpt>
      <trkpt lat="47.38186" lon="-0.44418">
        <ele>49.6</ele>
        <time>2013-02-13T08:33:37.670Z</time>
      </trkpt>
      <trkpt lat="47.38186" lon="-0.44415">
        <ele>49.7</ele>
        <time>2013-02-13T08:33:38.850Z</time>
      </trkpt>
      <trkpt lat="47.38186" lon="-0.44408">
        <ele>49.9</ele>
        <time>2013-02-13T08:33:40.680Z</time>
      </trkpt>
      <trkpt lat="47.38186" lon="-0.44404">
        <ele>50</ele>
        <time>2013-02-13T08:33:41.670Z</time>
      </trkpt>
      <trkpt lat="47.38186" lon="-0.44401">
        <ele>50.2</ele>
        <time>2013-02-13T08:33:42.770Z</time>
      </trkpt>
      <trkpt lat="47.38187" lon="-0.44395">
        <ele>50.4</ele>
        <time>2013-02-13T08:33:44.680Z</time>
      </trkpt>
      <trkpt lat="47.38186" lon="-0.44391">
        <ele>50.5</ele>
        <time>2013-02-13T08:33:45.770Z</time>
      </trkpt>
      <trkpt lat="47.38186" lon="-0.44388">
        <ele>50.6</ele>
        <time>2013-02-13T08:33:46.840Z</time>
      </trkpt>
      <trkpt lat="47.38186" lon="-0.44381">
        <ele>50.9</ele>
        <time>2013-02-13T08:33:48.840Z</time>
      </trkpt>
      <trkpt lat="47.38186" lon="-0.44375">
        <ele>51.1</ele>
        <time>2013-02-13T08:33:50.680Z</time>
      </trkpt>
      <trkpt lat="47.38186" lon="-0.44372">
        <ele>51.2</ele>
        <time>2013-02-13T08:33:51.770Z</time>
      </trkpt>
      <trkpt lat="47.38186" lon="-0.44369">
        <ele>51.3</ele>
        <time>2013-02-13T08:33:52.910Z</time>
      </trkpt>
      <trkpt lat="47.38186" lon="-0.44362">
        <ele>51.6</ele>
        <time>2013-02-13T08:33:54.830Z</time>
      </trkpt>
      <trkpt lat="47.38186" lon="-0.44355">
        <ele>51.8</ele>
        <time>2013-02-13T08:33:56.780Z</time>
      </trkpt>
      <trkpt lat="47.38186" lon="-0.44353">
        <ele>51.9</ele>
        <time>2013-02-13T08:33:57.800Z</time>
      </trkpt>
      <trkpt lat="47.38185" lon="-0.44346">
        <ele>52.2</ele>
        <time>2013-02-13T08:33:59.700Z</time>
      </trkpt>
      <trkpt lat="47.38185" lon="-0.44342">
        <ele>52.1</ele>
        <time>2013-02-13T08:34:00.860Z</time>
      </trkpt>
      <trkpt lat="47.38185" lon="-0.44337">
        <ele>52.5</ele>
        <time>2013-02-13T08:34:02.880Z</time>
      </trkpt>
      <trkpt lat="47.38185" lon="-0.44331">
        <ele>52.8</ele>
        <time>2013-02-13T08:34:04.860Z</time>
      </trkpt>
      <trkpt lat="47.38185" lon="-0.44325">
        <ele>53</ele>
        <time>2013-02-13T08:34:06.820Z</time>
      </trkpt>
      <trkpt lat="47.38185" lon="-0.44317">
        <ele>53.3</ele>
        <time>2013-02-13T08:34:08.670Z</time>
      </trkpt>
      <trkpt lat="47.38185" lon="-0.44314">
        <ele>53.4</ele>
        <time>2013-02-13T08:34:09.670Z</time>
      </trkpt>
      <trkpt lat="47.38185" lon="-0.4431">
        <ele>53.5</ele>
        <time>2013-02-13T08:34:10.900Z</time>
      </trkpt>
      <trkpt lat="47.38185" lon="-0.44304">
        <ele>53.8</ele>
        <time>2013-02-13T08:34:12.820Z</time>
      </trkpt>
      <trkpt lat="47.38185" lon="-0.44297">
        <ele>54</ele>
        <time>2013-02-13T08:34:14.680Z</time>
      </trkpt>
      <trkpt lat="47.38184" lon="-0.44293">
        <ele>54.2</ele>
        <time>2013-02-13T08:34:15.670Z</time>
      </trkpt>
      <trkpt lat="47.38184" lon="-0.4429">
        <ele>54.3</ele>
        <time>2013-02-13T08:34:16.840Z</time>
      </trkpt>
      <trkpt lat="47.38184" lon="-0.44284">
        <ele>54.6</ele>
        <time>2013-02-13T08:34:18.820Z</time>
      </trkpt>
      <trkpt lat="47.38183" lon="-0.44277">
        <ele>54.9</ele>
        <time>2013-02-13T08:34:20.770Z</time>
      </trkpt>
      <trkpt lat="47.38182" lon="-0.44271">
        <ele>55.1</ele>
        <time>2013-02-13T08:34:22.670Z</time>
      </trkpt>
      <trkpt lat="47.38182" lon="-0.44267">
        <ele>55.3</ele>
        <time>2013-02-13T08:34:23.670Z</time>
      </trkpt>
      <trkpt lat="47.38182" lon="-0.44265">
        <ele>55.4</ele>
        <time>2013-02-13T08:34:24.850Z</time>
      </trkpt>
      <trkpt lat="47.38182" lon="-0.44258">
        <ele>55.6</ele>
        <time>2013-02-13T08:34:26.670Z</time>
      </trkpt>
      <trkpt lat="47.38182" lon="-0.44255">
        <ele>55.7</ele>
        <time>2013-02-13T08:34:27.770Z</time>
      </trkpt>
      <trkpt lat="47.38181" lon="-0.44247">
        <ele>56</ele>
        <time>2013-02-13T08:34:29.880Z</time>
      </trkpt>
      <trkpt lat="47.38181" lon="-0.44243">
        <ele>56.1</ele>
        <time>2013-02-13T08:34:30.830Z</time>
      </trkpt>
      <trkpt lat="47.38181" lon="-0.44237">
        <ele>56.2</ele>
        <time>2013-02-13T08:34:32.830Z</time>
      </trkpt>
      <trkpt lat="47.3818" lon="-0.4423">
        <ele>56.4</ele>
        <time>2013-02-13T08:34:34.670Z</time>
      </trkpt>
      <trkpt lat="47.3818" lon="-0.44227">
        <ele>56.4</ele>
        <time>2013-02-13T08:34:35.670Z</time>
      </trkpt>
      <trkpt lat="47.3818" lon="-0.44223">
        <ele>56.5</ele>
        <time>2013-02-13T08:34:36.670Z</time>
      </trkpt>
      <trkpt lat="47.3818" lon="-0.4422">
        <ele>56.6</ele>
        <time>2013-02-13T08:34:37.770Z</time>
      </trkpt>
      <trkpt lat="47.3818" lon="-0.44213">
        <ele>56.7</ele>
        <time>2013-02-13T08:34:39.670Z</time>
      </trkpt>
      <trkpt lat="47.3818" lon="-0.44209">
        <ele>56.8</ele>
        <time>2013-02-13T08:34:40.780Z</time>
      </trkpt>
      <trkpt lat="47.3818" lon="-0.44203">
        <ele>56.9</ele>
        <time>2013-02-13T08:34:42.870Z</time>
      </trkpt>
      <trkpt lat="47.3818" lon="-0.442">
        <ele>57</ele>
        <time>2013-02-13T08:34:43.800Z</time>
      </trkpt>
      <trkpt lat="47.3818" lon="-0.44193">
        <ele>57</ele>
        <time>2013-02-13T08:34:45.670Z</time>
      </trkpt>
      <trkpt lat="47.3818" lon="-0.4419">
        <ele>57.1</ele>
        <time>2013-02-13T08:34:46.670Z</time>
      </trkpt>
      <trkpt lat="47.3818" lon="-0.44187">
        <ele>57.2</ele>
        <time>2013-02-13T08:34:47.670Z</time>
      </trkpt>
      <trkpt lat="47.3818" lon="-0.44183">
        <ele>57.2</ele>
        <time>2013-02-13T08:34:48.680Z</time>
      </trkpt>
      <trkpt lat="47.3818" lon="-0.4418">
        <ele>57.3</ele>
        <time>2013-02-13T08:34:49.670Z</time>
      </trkpt>
      <trkpt lat="47.3818" lon="-0.44177">
        <ele>57.4</ele>
        <time>2013-02-13T08:34:50.680Z</time>
      </trkpt>
      <trkpt lat="47.3818" lon="-0.44173">
        <ele>57.4</ele>
        <time>2013-02-13T08:34:51.670Z</time>
      </trkpt>
      <trkpt lat="47.38179" lon="-0.4417">
        <ele>57.5</ele>
        <time>2013-02-13T08:34:52.670Z</time>
      </trkpt>
      <trkpt lat="47.38179" lon="-0.44167">
        <ele>57.5</ele>
        <time>2013-02-13T08:34:53.770Z</time>
      </trkpt>
      <trkpt lat="47.38179" lon="-0.44161">
        <ele>57.7</ele>
        <time>2013-02-13T08:34:55.860Z</time>
      </trkpt>
      <trkpt lat="47.38179" lon="-0.44158">
        <ele>57.8</ele>
        <time>2013-02-13T08:34:56.770Z</time>
      </trkpt>
      <trkpt lat="47.38179" lon="-0.44151">
        <ele>57.9</ele>
        <time>2013-02-13T08:34:58.670Z</time>
      </trkpt>
      <trkpt lat="47.38179" lon="-0.44148">
        <ele>58</ele>
        <time>2013-02-13T08:34:59.880Z</time>
      </trkpt>
      <trkpt lat="47.38178" lon="-0.44141">
        <ele>56.1</ele>
        <time>2013-02-13T08:35:01.770Z</time>
      </trkpt>
      <trkpt lat="47.38178" lon="-0.44135">
        <ele>58.3</ele>
        <time>2013-02-13T08:35:03.780Z</time>
      </trkpt>
      <trkpt lat="47.38177" lon="-0.44128">
        <ele>58.4</ele>
        <time>2013-02-13T08:35:05.820Z</time>
      </trkpt>
      <trkpt lat="47.38177" lon="-0.44121">
        <ele>58.5</ele>
        <time>2013-02-13T08:35:07.780Z</time>
      </trkpt>
      <trkpt lat="47.38176" lon="-0.44114">
        <ele>58.6</ele>
        <time>2013-02-13T08:35:09.670Z</time>
      </trkpt>
      <trkpt lat="47.38176" lon="-0.44111">
        <ele>58.6</ele>
        <time>2013-02-13T08:35:10.670Z</time>
      </trkpt>
      <trkpt lat="47.38177" lon="-0.44108">
        <ele>58.6</ele>
        <time>2013-02-13T08:35:11.780Z</time>
      </trkpt>
      <trkpt lat="47.38176" lon="-0.44102">
        <ele>58.6</ele>
        <time>2013-02-13T08:35:13.780Z</time>
      </trkpt>
      <trkpt lat="47.38175" lon="-0.44095">
        <ele>58.7</ele>
        <time>2013-02-13T08:35:15.780Z</time>
      </trkpt>
      <trkpt lat="47.38174" lon="-0.44088">
        <ele>58.7</ele>
        <time>2013-02-13T08:35:17.670Z</time>
      </trkpt>
      <trkpt lat="47.38174" lon="-0.44084">
        <ele>58.8</ele>
        <time>2013-02-13T08:35:18.670Z</time>
      </trkpt>
      <trkpt lat="47.38173" lon="-0.44081">
        <ele>58.9</ele>
        <time>2013-02-13T08:35:19.670Z</time>
      </trkpt>
      <trkpt lat="47.38173" lon="-0.44077">
        <ele>59</ele>
        <time>2013-02-13T08:35:20.670Z</time>
      </trkpt>
      <trkpt lat="47.38172" lon="-0.44074">
        <ele>59.2</ele>
        <time>2013-02-13T08:35:21.860Z</time>
      </trkpt>
      <trkpt lat="47.38171" lon="-0.4407">
        <ele>59.3</ele>
        <time>2013-02-13T08:35:22.870Z</time>
      </trkpt>
      <trkpt lat="47.3817" lon="-0.44063">
        <ele>59.6</ele>
        <time>2013-02-13T08:35:24.830Z</time>
      </trkpt>
      <trkpt lat="47.38169" lon="-0.44055">
        <ele>59.9</ele>
        <time>2013-02-13T08:35:26.830Z</time>
      </trkpt>
      <trkpt lat="47.38168" lon="-0.44049">
        <ele>59.9</ele>
        <time>2013-02-13T08:35:28.910Z</time>
      </trkpt>
      <trkpt lat="47.38168" lon="-0.44043">
        <ele>60</ele>
        <time>2013-02-13T08:35:30.830Z</time>
      </trkpt>
      <trkpt lat="47.38166" lon="-0.44037">
        <ele>60</ele>
        <time>2013-02-13T08:35:32.840Z</time>
      </trkpt>
      <trkpt lat="47.38165" lon="-0.4403">
        <ele>60</ele>
        <time>2013-02-13T08:35:34.850Z</time>
      </trkpt>
      <trkpt lat="47.38163" lon="-0.44027">
        <ele>60</ele>
        <time>2013-02-13T08:35:35.770Z</time>
      </trkpt>
      <trkpt lat="47.38161" lon="-0.44022">
        <ele>60</ele>
        <time>2013-02-13T08:35:37.850Z</time>
      </trkpt>
      <trkpt lat="47.38158" lon="-0.44017">
        <ele>60</ele>
        <time>2013-02-13T08:35:39.800Z</time>
      </trkpt>
      <trkpt lat="47.38155" lon="-0.44012">
        <ele>60</ele>
        <time>2013-02-13T08:35:41.850Z</time>
      </trkpt>
      <trkpt lat="47.38152" lon="-0.44006">
        <ele>60</ele>
        <time>2013-02-13T08:35:43.670Z</time>
      </trkpt>
      <trkpt lat="47.38151" lon="-0.44003">
        <ele>60</ele>
        <time>2013-02-13T08:35:44.670Z</time>
      </trkpt>
      <trkpt lat="47.3815" lon="-0.44">
        <ele>60</ele>
        <time>2013-02-13T08:35:45.670Z</time>
      </trkpt>
      <trkpt lat="47.38149" lon="-0.43997">
        <ele>60</ele>
        <time>2013-02-13T08:35:46.670Z</time>
      </trkpt>
      <trkpt lat="47.38148" lon="-0.43994">
        <ele>60</ele>
        <time>2013-02-13T08:35:47.670Z</time>
      </trkpt>
      <trkpt lat="47.38147" lon="-0.4399">
        <ele>60</ele>
        <time>2013-02-13T08:35:48.780Z</time>
      </trkpt>
      <trkpt lat="47.38145" lon="-0.43984">
        <ele>60</ele>
        <time>2013-02-13T08:35:50.680Z</time>
      </trkpt>
      <trkpt lat="47.38144" lon="-0.43981">
        <ele>60</ele>
        <time>2013-02-13T08:35:51.770Z</time>
      </trkpt>
      <trkpt lat="47.38143" lon="-0.43974">
        <ele>60</ele>
        <time>2013-02-13T08:35:53.670Z</time>
      </trkpt>
      <trkpt lat="47.38142" lon="-0.43971">
        <ele>60</ele>
        <time>2013-02-13T08:35:54.670Z</time>
      </trkpt>
      <trkpt lat="47.38141" lon="-0.43967">
        <ele>60</ele>
        <time>2013-02-13T08:35:55.770Z</time>
      </trkpt>
      <trkpt lat="47.3814" lon="-0.43961">
        <ele>60</ele>
        <time>2013-02-13T08:35:57.850Z</time>
      </trkpt>
      <trkpt lat="47.38138" lon="-0.43955">
        <ele>60</ele>
        <time>2013-02-13T08:35:59.820Z</time>
      </trkpt>
      <trkpt lat="47.38137" lon="-0.43949">
        <ele>60.2</ele>
        <time>2013-02-13T08:36:01.770Z</time>
      </trkpt>
      <trkpt lat="47.38136" lon="-0.43942">
        <ele>60</ele>
        <time>2013-02-13T08:36:03.670Z</time>
      </trkpt>
      <trkpt lat="47.38136" lon="-0.43939">
        <ele>60</ele>
        <time>2013-02-13T08:36:04.670Z</time>
      </trkpt>
      <trkpt lat="47.38136" lon="-0.43936">
        <ele>60</ele>
        <time>2013-02-13T08:36:05.670Z</time>
      </trkpt>
      <trkpt lat="47.38135" lon="-0.43933">
        <ele>60</ele>
        <time>2013-02-13T08:36:06.670Z</time>
      </trkpt>
      <trkpt lat="47.38135" lon="-0.43929">
        <ele>60</ele>
        <time>2013-02-13T08:36:07.670Z</time>
      </trkpt>
      <trkpt lat="47.38135" lon="-0.43926">
        <ele>60</ele>
        <time>2013-02-13T08:36:08.670Z</time>
      </trkpt>
      <trkpt lat="47.38135" lon="-0.43922">
        <ele>60</ele>
        <time>2013-02-13T08:36:09.670Z</time>
      </trkpt>
      <trkpt lat="47.38134" lon="-0.43919">
        <ele>60</ele>
        <time>2013-02-13T08:36:10.670Z</time>
      </trkpt>
      <trkpt lat="47.38134" lon="-0.43915">
        <ele>60</ele>
        <time>2013-02-13T08:36:11.780Z</time>
      </trkpt>
      <trkpt lat="47.38133" lon="-0.43909">
        <ele>60</ele>
        <time>2013-02-13T08:36:13.680Z</time>
      </trkpt>
      <trkpt lat="47.38132" lon="-0.43905">
        <ele>60</ele>
        <time>2013-02-13T08:36:14.910Z</time>
      </trkpt>
      <trkpt lat="47.38131" lon="-0.43898">
        <ele>60</ele>
        <time>2013-02-13T08:36:16.880Z</time>
      </trkpt>
      <trkpt lat="47.3813" lon="-0.43892">
        <ele>60</ele>
        <time>2013-02-13T08:36:18.770Z</time>
      </trkpt>
      <trkpt lat="47.3813" lon="-0.43884">
        <ele>60</ele>
        <time>2013-02-13T08:36:20.670Z</time>
      </trkpt>
      <trkpt lat="47.38129" lon="-0.43881">
        <ele>60</ele>
        <time>2013-02-13T08:36:21.670Z</time>
      </trkpt>
      <trkpt lat="47.38129" lon="-0.43877">
        <ele>60</ele>
        <time>2013-02-13T08:36:22.670Z</time>
      </trkpt>
      <trkpt lat="47.38128" lon="-0.43874">
        <ele>60</ele>
        <time>2013-02-13T08:36:23.670Z</time>
      </trkpt>
      <trkpt lat="47.38127" lon="-0.4387">
        <ele>60</ele>
        <time>2013-02-13T08:36:24.830Z</time>
      </trkpt>
      <trkpt lat="47.38127" lon="-0.43864">
        <ele>60</ele>
        <time>2013-02-13T08:36:26.830Z</time>
      </trkpt>
      <trkpt lat="47.38126" lon="-0.43857">
        <ele>60</ele>
        <time>2013-02-13T08:36:28.830Z</time>
      </trkpt>
      <trkpt lat="47.38124" lon="-0.4385">
        <ele>60</ele>
        <time>2013-02-13T08:36:30.680Z</time>
      </trkpt>
      <trkpt lat="47.38124" lon="-0.43846">
        <ele>60</ele>
        <time>2013-02-13T08:36:31.770Z</time>
      </trkpt>
      <trkpt lat="47.38122" lon="-0.4384">
        <ele>60</ele>
        <time>2013-02-13T08:36:33.810Z</time>
      </trkpt>
      <trkpt lat="47.3812" lon="-0.43833">
        <ele>60</ele>
        <time>2013-02-13T08:36:35.670Z</time>
      </trkpt>
      <trkpt lat="47.3812" lon="-0.43829">
        <ele>60</ele>
        <time>2013-02-13T08:36:36.670Z</time>
      </trkpt>
      <trkpt lat="47.38119" lon="-0.43825">
        <ele>60</ele>
        <time>2013-02-13T08:36:37.770Z</time>
      </trkpt>
      <trkpt lat="47.38119" lon="-0.43822">
        <ele>60</ele>
        <time>2013-02-13T08:36:38.840Z</time>
      </trkpt>
      <trkpt lat="47.38117" lon="-0.43816">
        <ele>60</ele>
        <time>2013-02-13T08:36:40.780Z</time>
      </trkpt>
      <trkpt lat="47.38116" lon="-0.43809">
        <ele>60</ele>
        <time>2013-02-13T08:36:42.840Z</time>
      </trkpt>
      <trkpt lat="47.38116" lon="-0.43803">
        <ele>60</ele>
        <time>2013-02-13T08:36:44.780Z</time>
      </trkpt>
      <trkpt lat="47.38115" lon="-0.43796">
        <ele>60</ele>
        <time>2013-02-13T08:36:46.670Z</time>
      </trkpt>
      <trkpt lat="47.38114" lon="-0.43792">
        <ele>60</ele>
        <time>2013-02-13T08:36:47.880Z</time>
      </trkpt>
      <trkpt lat="47.38113" lon="-0.43786">
        <ele>60</ele>
        <time>2013-02-13T08:36:49.780Z</time>
      </trkpt>
      <trkpt lat="47.38112" lon="-0.43779">
        <ele>60</ele>
        <time>2013-02-13T08:36:51.780Z</time>
      </trkpt>
      <trkpt lat="47.38111" lon="-0.43775">
        <ele>60</ele>
        <time>2013-02-13T08:36:52.830Z</time>
      </trkpt>
      <trkpt lat="47.3811" lon="-0.43769">
        <ele>60</ele>
        <time>2013-02-13T08:36:54.830Z</time>
      </trkpt>
      <trkpt lat="47.38109" lon="-0.43762">
        <ele>59.9</ele>
        <time>2013-02-13T08:36:56.670Z</time>
      </trkpt>
      <trkpt lat="47.38109" lon="-0.43758">
        <ele>59.9</ele>
        <time>2013-02-13T08:36:57.830Z</time>
      </trkpt>
      <trkpt lat="47.38108" lon="-0.43755">
        <ele>59.9</ele>
        <time>2013-02-13T08:36:58.830Z</time>
      </trkpt>
      <trkpt lat="47.38108" lon="-0.43751">
        <ele>59.9</ele>
        <time>2013-02-13T08:36:59.840Z</time>
      </trkpt>
      <trkpt lat="47.38106" lon="-0.43744">
        <ele>61.2</ele>
        <time>2013-02-13T08:37:01.780Z</time>
      </trkpt>
      <trkpt lat="47.38105" lon="-0.43737">
        <ele>59.8</ele>
        <time>2013-02-13T08:37:03.670Z</time>
      </trkpt>
      <trkpt lat="47.38104" lon="-0.43734">
        <ele>59.7</ele>
        <time>2013-02-13T08:37:04.950Z</time>
      </trkpt>
      <trkpt lat="47.38102" lon="-0.43728">
        <ele>59.7</ele>
        <time>2013-02-13T08:37:06.670Z</time>
      </trkpt>
      <trkpt lat="47.38102" lon="-0.43724">
        <ele>59.7</ele>
        <time>2013-02-13T08:37:07.770Z</time>
      </trkpt>
      <trkpt lat="47.38099" lon="-0.43718">
        <ele>59.5</ele>
        <time>2013-02-13T08:37:09.850Z</time>
      </trkpt>
      <trkpt lat="47.38097" lon="-0.43713">
        <ele>59.3</ele>
        <time>2013-02-13T08:37:11.770Z</time>
      </trkpt>
      <trkpt lat="47.38092" lon="-0.43709">
        <ele>59.2</ele>
        <time>2013-02-13T08:37:13.770Z</time>
      </trkpt>
      <trkpt lat="47.3809" lon="-0.43707">
        <ele>59.1</ele>
        <time>2013-02-13T08:37:14.840Z</time>
      </trkpt>
      <trkpt lat="47.38084" lon="-0.43704">
        <ele>59</ele>
        <time>2013-02-13T08:37:16.820Z</time>
      </trkpt>
      <trkpt lat="47.38079" lon="-0.43701">
        <ele>58.8</ele>
        <time>2013-02-13T08:37:18.670Z</time>
      </trkpt>
      <trkpt lat="47.38076" lon="-0.43701">
        <ele>58.7</ele>
        <time>2013-02-13T08:37:19.770Z</time>
      </trkpt>
      <trkpt lat="47.38071" lon="-0.43699">
        <ele>58.6</ele>
        <time>2013-02-13T08:37:21.810Z</time>
      </trkpt>
      <trkpt lat="47.38066" lon="-0.43698">
        <ele>58.4</ele>
        <time>2013-02-13T08:37:23.850Z</time>
      </trkpt>
      <trkpt lat="47.3806" lon="-0.43697">
        <ele>58.2</ele>
        <time>2013-02-13T08:37:25.770Z</time>
      </trkpt>
      <trkpt lat="47.38055" lon="-0.43695">
        <ele>58</ele>
        <time>2013-02-13T08:37:27.770Z</time>
      </trkpt>
      <trkpt lat="47.38051" lon="-0.43694">
        <ele>57.8</ele>
        <time>2013-02-13T08:37:29.670Z</time>
      </trkpt>
      <trkpt lat="47.38049" lon="-0.43693">
        <ele>57.8</ele>
        <time>2013-02-13T08:37:30.770Z</time>
      </trkpt>
      <trkpt lat="47.38046" lon="-0.43689">
        <ele>57.6</ele>
        <time>2013-02-13T08:37:32.910Z</time>
      </trkpt>
      <trkpt lat="47.38044" lon="-0.43685">
        <ele>57.6</ele>
        <time>2013-02-13T08:37:34.670Z</time>
      </trkpt>
      <trkpt lat="47.38043" lon="-0.43682">
        <ele>57.5</ele>
        <time>2013-02-13T08:37:35.780Z</time>
      </trkpt>
      <trkpt lat="47.38042" lon="-0.43676">
        <ele>57.5</ele>
        <time>2013-02-13T08:37:37.980Z</time>
      </trkpt>
      <trkpt lat="47.38042" lon="-0.43673">
        <ele>57.5</ele>
        <time>2013-02-13T08:37:38.810Z</time>
      </trkpt>
      <trkpt lat="47.38041" lon="-0.43666">
        <ele>57.4</ele>
        <time>2013-02-13T08:37:40.830Z</time>
      </trkpt>
      <trkpt lat="47.3804" lon="-0.43661">
        <ele>57.2</ele>
        <time>2013-02-13T08:37:42.770Z</time>
      </trkpt>
      <trkpt lat="47.38039" lon="-0.43655">
        <ele>57</ele>
        <time>2013-02-13T08:37:44.770Z</time>
      </trkpt>
      <trkpt lat="47.38038" lon="-0.43649">
        <ele>56.7</ele>
        <time>2013-02-13T08:37:46.770Z</time>
      </trkpt>
      <trkpt lat="47.38038" lon="-0.43643">
        <ele>56.5</ele>
        <time>2013-02-13T08:37:48.780Z</time>
      </trkpt>
      <trkpt lat="47.38037" lon="-0.43636">
        <ele>56.3</ele>
        <time>2013-02-13T08:37:50.960Z</time>
      </trkpt>
      <trkpt lat="47.38036" lon="-0.4363">
        <ele>56.3</ele>
        <time>2013-02-13T08:37:52.780Z</time>
      </trkpt>
      <trkpt lat="47.38035" lon="-0.43623">
        <ele>56.3</ele>
        <time>2013-02-13T08:37:54.870Z</time>
      </trkpt>
      <trkpt lat="47.38034" lon="-0.43615">
        <ele>56.2</ele>
        <time>2013-02-13T08:37:56.670Z</time>
      </trkpt>
      <trkpt lat="47.38033" lon="-0.43611">
        <ele>56.2</ele>
        <time>2013-02-13T08:37:57.770Z</time>
      </trkpt>
      <trkpt lat="47.38032" lon="-0.43605">
        <ele>56.1</ele>
        <time>2013-02-13T08:37:59.820Z</time>
      </trkpt>
      <trkpt lat="47.38031" lon="-0.43599">
        <ele>59.5</ele>
        <time>2013-02-13T08:38:01.770Z</time>
      </trkpt>
      <trkpt lat="47.3803" lon="-0.43592">
        <ele>56.1</ele>
        <time>2013-02-13T08:38:03.770Z</time>
      </trkpt>
      <trkpt lat="47.38029" lon="-0.43585">
        <ele>56</ele>
        <time>2013-02-13T08:38:05.670Z</time>
      </trkpt>
      <trkpt lat="47.38029" lon="-0.43581">
        <ele>56</ele>
        <time>2013-02-13T08:38:06.780Z</time>
      </trkpt>
      <trkpt lat="47.38027" lon="-0.43574">
        <ele>56</ele>
        <time>2013-02-13T08:38:08.840Z</time>
      </trkpt>
      <trkpt lat="47.38026" lon="-0.43568">
        <ele>56</ele>
        <time>2013-02-13T08:38:10.830Z</time>
      </trkpt>
      <trkpt lat="47.38026" lon="-0.4356">
        <ele>55.9</ele>
        <time>2013-02-13T08:38:12.680Z</time>
      </trkpt>
      <trkpt lat="47.38026" lon="-0.43558">
        <ele>55.9</ele>
        <time>2013-02-13T08:38:13.670Z</time>
      </trkpt>
      <trkpt lat="47.38025" lon="-0.43555">
        <ele>55.9</ele>
        <time>2013-02-13T08:38:14.850Z</time>
      </trkpt>
      <trkpt lat="47.38025" lon="-0.43548">
        <ele>55.6</ele>
        <time>2013-02-13T08:38:16.680Z</time>
      </trkpt>
      <trkpt lat="47.38024" lon="-0.43545">
        <ele>55.5</ele>
        <time>2013-02-13T08:38:17.670Z</time>
      </trkpt>
      <trkpt lat="47.38024" lon="-0.43541">
        <ele>55.4</ele>
        <time>2013-02-13T08:38:18.830Z</time>
      </trkpt>
      <trkpt lat="47.38023" lon="-0.43534">
        <ele>55.2</ele>
        <time>2013-02-13T08:38:20.830Z</time>
      </trkpt>
      <trkpt lat="47.38022" lon="-0.43527">
        <ele>55</ele>
        <time>2013-02-13T08:38:22.770Z</time>
      </trkpt>
      <trkpt lat="47.38021" lon="-0.4352">
        <ele>54.9</ele>
        <time>2013-02-13T08:38:24.670Z</time>
      </trkpt>
      <trkpt lat="47.3802" lon="-0.43517">
        <ele>54.9</ele>
        <time>2013-02-13T08:38:25.780Z</time>
      </trkpt>
      <trkpt lat="47.3802" lon="-0.4351">
        <ele>54.8</ele>
        <time>2013-02-13T08:38:27.780Z</time>
      </trkpt>
      <trkpt lat="47.38019" lon="-0.43502">
        <ele>54.7</ele>
        <time>2013-02-13T08:38:29.680Z</time>
      </trkpt>
      <trkpt lat="47.38019" lon="-0.43499">
        <ele>54.7</ele>
        <time>2013-02-13T08:38:30.830Z</time>
      </trkpt>
      <trkpt lat="47.38017" lon="-0.43491">
        <ele>54.6</ele>
        <time>2013-02-13T08:38:32.860Z</time>
      </trkpt>
      <trkpt lat="47.38017" lon="-0.43488">
        <ele>54.6</ele>
        <time>2013-02-13T08:38:33.820Z</time>
      </trkpt>
      <trkpt lat="47.38016" lon="-0.43481">
        <ele>54.6</ele>
        <time>2013-02-13T08:38:35.770Z</time>
      </trkpt>
      <trkpt lat="47.38014" lon="-0.43474">
        <ele>54.5</ele>
        <time>2013-02-13T08:38:37.670Z</time>
      </trkpt>
      <trkpt lat="47.38014" lon="-0.43471">
        <ele>54.5</ele>
        <time>2013-02-13T08:38:38.670Z</time>
      </trkpt>
      <trkpt lat="47.38013" lon="-0.43467">
        <ele>54.5</ele>
        <time>2013-02-13T08:38:39.770Z</time>
      </trkpt>
      <trkpt lat="47.38012" lon="-0.43461">
        <ele>54.4</ele>
        <time>2013-02-13T08:38:41.770Z</time>
      </trkpt>
      <trkpt lat="47.38011" lon="-0.43456">
        <ele>54.4</ele>
        <time>2013-02-13T08:38:42.840Z</time>
      </trkpt>
      <trkpt lat="47.3801" lon="-0.43449">
        <ele>54.4</ele>
        <time>2013-02-13T08:38:44.780Z</time>
      </trkpt>
      <trkpt lat="47.38009" lon="-0.43443">
        <ele>54.3</ele>
        <time>2013-02-13T08:38:46.900Z</time>
      </trkpt>
      <trkpt lat="47.38008" lon="-0.43437">
        <ele>54.3</ele>
        <time>2013-02-13T08:38:48.840Z</time>
      </trkpt>
      <trkpt lat="47.38007" lon="-0.4343">
        <ele>54.2</ele>
        <time>2013-02-13T08:38:50.820Z</time>
      </trkpt>
      <trkpt lat="47.38006" lon="-0.43424">
        <ele>54.2</ele>
        <time>2013-02-13T08:38:52.840Z</time>
      </trkpt>
      <trkpt lat="47.38006" lon="-0.43418">
        <ele>54.2</ele>
        <time>2013-02-13T08:38:54.670Z</time>
      </trkpt>
      <trkpt lat="47.38005" lon="-0.43415">
        <ele>54.2</ele>
        <time>2013-02-13T08:38:55.670Z</time>
      </trkpt>
      <trkpt lat="47.38005" lon="-0.43412">
        <ele>54.2</ele>
        <time>2013-02-13T08:38:57.220Z</time>
      </trkpt>
      <trkpt lat="47.38004" lon="-0.43405">
        <ele>54.1</ele>
        <time>2013-02-13T08:38:58.670Z</time>
      </trkpt>
      <trkpt lat="47.38003" lon="-0.43401">
        <ele>54.1</ele>
        <time>2013-02-13T08:38:59.720Z</time>
      </trkpt>
      <trkpt lat="47.38003" lon="-0.43398">
        <ele>56.1</ele>
        <time>2013-02-13T08:39:00.670Z</time>
      </trkpt>
      <trkpt lat="47.38003" lon="-0.43394">
        <ele>54.1</ele>
        <time>2013-02-13T08:39:02.390Z</time>
      </trkpt>
      <trkpt lat="47.38002" lon="-0.43387">
        <ele>54.1</ele>
        <time>2013-02-13T08:39:03.820Z</time>
      </trkpt>
      <trkpt lat="47.38" lon="-0.4338">
        <ele>54</ele>
        <time>2013-02-13T08:39:05.670Z</time>
      </trkpt>
      <trkpt lat="47.37999" lon="-0.43377">
        <ele>54</ele>
        <time>2013-02-13T08:39:06.770Z</time>
      </trkpt>
      <trkpt lat="47.37998" lon="-0.4337">
        <ele>53.9</ele>
        <time>2013-02-13T08:39:08.830Z</time>
      </trkpt>
      <trkpt lat="47.37997" lon="-0.43363">
        <ele>53.9</ele>
        <time>2013-02-13T08:39:10.670Z</time>
      </trkpt>
      <trkpt lat="47.37997" lon="-0.4336">
        <ele>53.9</ele>
        <time>2013-02-13T08:39:11.780Z</time>
      </trkpt>
      <trkpt lat="47.37996" lon="-0.43353">
        <ele>53.8</ele>
        <time>2013-02-13T08:39:13.780Z</time>
      </trkpt>
      <trkpt lat="47.37995" lon="-0.43346">
        <ele>53.8</ele>
        <time>2013-02-13T08:39:15.860Z</time>
      </trkpt>
      <trkpt lat="47.37994" lon="-0.43343">
        <ele>53.8</ele>
        <time>2013-02-13T08:39:16.840Z</time>
      </trkpt>
      <trkpt lat="47.37992" lon="-0.43335">
        <ele>53.7</ele>
        <time>2013-02-13T08:39:18.770Z</time>
      </trkpt>
      <trkpt lat="47.37991" lon="-0.43329">
        <ele>53.7</ele>
        <time>2013-02-13T08:39:20.680Z</time>
      </trkpt>
      <trkpt lat="47.37991" lon="-0.43325">
        <ele>53.7</ele>
        <time>2013-02-13T08:39:21.780Z</time>
      </trkpt>
      <trkpt lat="47.37991" lon="-0.43319">
        <ele>53.7</ele>
        <time>2013-02-13T08:39:23.770Z</time>
      </trkpt>
      <trkpt lat="47.37989" lon="-0.43311">
        <ele>53.6</ele>
        <time>2013-02-13T08:39:25.670Z</time>
      </trkpt>
      <trkpt lat="47.37989" lon="-0.43308">
        <ele>53.6</ele>
        <time>2013-02-13T08:39:26.830Z</time>
      </trkpt>
      <trkpt lat="47.37988" lon="-0.43301">
        <ele>53.6</ele>
        <time>2013-02-13T08:39:28.670Z</time>
      </trkpt>
      <trkpt lat="47.37987" lon="-0.43297">
        <ele>53.5</ele>
        <time>2013-02-13T08:39:29.780Z</time>
      </trkpt>
      <trkpt lat="47.37987" lon="-0.43291">
        <ele>53.5</ele>
        <time>2013-02-13T08:39:31.770Z</time>
      </trkpt>
      <trkpt lat="47.37986" lon="-0.43284">
        <ele>53.5</ele>
        <time>2013-02-13T08:39:33.680Z</time>
      </trkpt>
      <trkpt lat="47.37985" lon="-0.4328">
        <ele>53.5</ele>
        <time>2013-02-13T08:39:34.840Z</time>
      </trkpt>
      <trkpt lat="47.37984" lon="-0.43273">
        <ele>53.4</ele>
        <time>2013-02-13T08:39:36.670Z</time>
      </trkpt>
      <trkpt lat="47.37984" lon="-0.43269">
        <ele>53.4</ele>
        <time>2013-02-13T08:39:37.680Z</time>
      </trkpt>
      <trkpt lat="47.37983" lon="-0.43266">
        <ele>53.4</ele>
        <time>2013-02-13T08:39:38.670Z</time>
      </trkpt>
      <trkpt lat="47.37982" lon="-0.43263">
        <ele>53.3</ele>
        <time>2013-02-13T08:39:39.850Z</time>
      </trkpt>
      <trkpt lat="47.37981" lon="-0.43255">
        <ele>53.3</ele>
        <time>2013-02-13T08:39:41.670Z</time>
      </trkpt>
      <trkpt lat="47.3798" lon="-0.43251">
        <ele>53.3</ele>
        <time>2013-02-13T08:39:42.780Z</time>
      </trkpt>
      <trkpt lat="47.37979" lon="-0.43249">
        <ele>53.3</ele>
        <time>2013-02-13T08:39:43.850Z</time>
      </trkpt>
      <trkpt lat="47.37978" lon="-0.43242">
        <ele>53.2</ele>
        <time>2013-02-13T08:39:45.770Z</time>
      </trkpt>
      <trkpt lat="47.37978" lon="-0.43235">
        <ele>53.2</ele>
        <time>2013-02-13T08:39:47.670Z</time>
      </trkpt>
      <trkpt lat="47.37977" lon="-0.43232">
        <ele>53.2</ele>
        <time>2013-02-13T08:39:48.870Z</time>
      </trkpt>
      <trkpt lat="47.37977" lon="-0.43225">
        <ele>53.2</ele>
        <time>2013-02-13T08:39:50.680Z</time>
      </trkpt>
      <trkpt lat="47.37976" lon="-0.43222">
        <ele>53.1</ele>
        <time>2013-02-13T08:39:51.670Z</time>
      </trkpt>
      <trkpt lat="47.37976" lon="-0.43219">
        <ele>53</ele>
        <time>2013-02-13T08:39:52.770Z</time>
      </trkpt>
      <trkpt lat="47.37976" lon="-0.43216">
        <ele>52.9</ele>
        <time>2013-02-13T08:39:53.850Z</time>
      </trkpt>
      <trkpt lat="47.37975" lon="-0.43213">
        <ele>52.8</ele>
        <time>2013-02-13T08:39:54.880Z</time>
      </trkpt>
      <trkpt lat="47.37975" lon="-0.43206">
        <ele>52.5</ele>
        <time>2013-02-13T08:39:56.830Z</time>
      </trkpt>
      <trkpt lat="47.37974" lon="-0.432">
        <ele>52.2</ele>
        <time>2013-02-13T08:39:58.770Z</time>
      </trkpt>
      <trkpt lat="47.37973" lon="-0.43196">
        <ele>52.1</ele>
        <time>2013-02-13T08:39:59.840Z</time>
      </trkpt>
      <trkpt lat="47.37973" lon="-0.4319">
        <ele>53.8</ele>
        <time>2013-02-13T08:40:01.670Z</time>
      </trkpt>
      <trkpt lat="47.37972" lon="-0.43187">
        <ele>52</ele>
        <time>2013-02-13T08:40:02.850Z</time>
      </trkpt>
      <trkpt lat="47.37971" lon="-0.43181">
        <ele>52</ele>
        <time>2013-02-13T08:40:04.830Z</time>
      </trkpt>
      <trkpt lat="47.37971" lon="-0.43174">
        <ele>51.9</ele>
        <time>2013-02-13T08:40:06.670Z</time>
      </trkpt>
      <trkpt lat="47.3797" lon="-0.43171">
        <ele>51.9</ele>
        <time>2013-02-13T08:40:07.670Z</time>
      </trkpt>
      <trkpt lat="47.3797" lon="-0.43168">
        <ele>51.9</ele>
        <time>2013-02-13T08:40:08.770Z</time>
      </trkpt>
      <trkpt lat="47.37969" lon="-0.4316">
        <ele>51.9</ele>
        <time>2013-02-13T08:40:10.670Z</time>
      </trkpt>
      <trkpt lat="47.37968" lon="-0.43157">
        <ele>51.9</ele>
        <time>2013-02-13T08:40:11.910Z</time>
      </trkpt>
      <trkpt lat="47.37967" lon="-0.43151">
        <ele>51.8</ele>
        <time>2013-02-13T08:40:13.780Z</time>
      </trkpt>
      <trkpt lat="47.37965" lon="-0.43144">
        <ele>51.8</ele>
        <time>2013-02-13T08:40:15.670Z</time>
      </trkpt>
      <trkpt lat="47.37964" lon="-0.4314">
        <ele>51.7</ele>
        <time>2013-02-13T08:40:16.680Z</time>
      </trkpt>
      <trkpt lat="47.37964" lon="-0.43137">
        <ele>51.7</ele>
        <time>2013-02-13T08:40:17.770Z</time>
      </trkpt>
      <trkpt lat="47.37963" lon="-0.43134">
        <ele>51.7</ele>
        <time>2013-02-13T08:40:18.830Z</time>
      </trkpt>
      <trkpt lat="47.37962" lon="-0.43127">
        <ele>51.6</ele>
        <time>2013-02-13T08:40:20.670Z</time>
      </trkpt>
      <trkpt lat="47.37962" lon="-0.43124">
        <ele>51.6</ele>
        <time>2013-02-13T08:40:21.670Z</time>
      </trkpt>
      <trkpt lat="47.37961" lon="-0.4312">
        <ele>51.6</ele>
        <time>2013-02-13T08:40:22.770Z</time>
      </trkpt>
      <trkpt lat="47.37961" lon="-0.43117">
        <ele>51.6</ele>
        <time>2013-02-13T08:40:23.770Z</time>
      </trkpt>
      <trkpt lat="47.3796" lon="-0.4311">
        <ele>51.5</ele>
        <time>2013-02-13T08:40:25.670Z</time>
      </trkpt>
      <trkpt lat="47.37959" lon="-0.43107">
        <ele>51.4</ele>
        <time>2013-02-13T08:40:26.830Z</time>
      </trkpt>
      <trkpt lat="47.37958" lon="-0.43099">
        <ele>51.3</ele>
        <time>2013-02-13T08:40:28.820Z</time>
      </trkpt>
      <trkpt lat="47.37957" lon="-0.43092">
        <ele>51.1</ele>
        <time>2013-02-13T08:40:30.920Z</time>
      </trkpt>
      <trkpt lat="47.37955" lon="-0.43084">
        <ele>51</ele>
        <time>2013-02-13T08:40:32.780Z</time>
      </trkpt>
      <trkpt lat="47.37955" lon="-0.4308">
        <ele>51</ele>
        <time>2013-02-13T08:40:33.810Z</time>
      </trkpt>
      <trkpt lat="47.37954" lon="-0.43072">
        <ele>51.1</ele>
        <time>2013-02-13T08:40:35.770Z</time>
      </trkpt>
      <trkpt lat="47.37954" lon="-0.43069">
        <ele>51.2</ele>
        <time>2013-02-13T08:40:36.780Z</time>
      </trkpt>
      <trkpt lat="47.37952" lon="-0.43063">
        <ele>51.2</ele>
        <time>2013-02-13T08:40:38.670Z</time>
      </trkpt>
      <trkpt lat="47.37952" lon="-0.4306">
        <ele>51.2</ele>
        <time>2013-02-13T08:40:39.670Z</time>
      </trkpt>
      <trkpt lat="47.37951" lon="-0.43056">
        <ele>51.2</ele>
        <time>2013-02-13T08:40:40.670Z</time>
      </trkpt>
      <trkpt lat="47.37951" lon="-0.43053">
        <ele>51.2</ele>
        <time>2013-02-13T08:40:41.670Z</time>
      </trkpt>
      <trkpt lat="47.3795" lon="-0.4305">
        <ele>51.2</ele>
        <time>2013-02-13T08:40:42.840Z</time>
      </trkpt>
      <trkpt lat="47.3795" lon="-0.43042">
        <ele>51.2</ele>
        <time>2013-02-13T08:40:44.670Z</time>
      </trkpt>
      <trkpt lat="47.37949" lon="-0.43038">
        <ele>51.2</ele>
        <time>2013-02-13T08:40:45.810Z</time>
      </trkpt>
      <trkpt lat="47.37948" lon="-0.43032">
        <ele>51.1</ele>
        <time>2013-02-13T08:40:47.670Z</time>
      </trkpt>
      <trkpt lat="47.37948" lon="-0.43028">
        <ele>51.1</ele>
        <time>2013-02-13T08:40:48.830Z</time>
      </trkpt>
      <trkpt lat="47.37946" lon="-0.43021">
        <ele>51.3</ele>
        <time>2013-02-13T08:40:50.680Z</time>
      </trkpt>
      <trkpt lat="47.37945" lon="-0.43015">
        <ele>51.5</ele>
        <time>2013-02-13T08:40:52.770Z</time>
      </trkpt>
      <trkpt lat="47.37944" lon="-0.43008">
        <ele>51.7</ele>
        <time>2013-02-13T08:40:54.670Z</time>
      </trkpt>
      <trkpt lat="47.37943" lon="-0.43005">
        <ele>51.8</ele>
        <time>2013-02-13T08:40:55.670Z</time>
      </trkpt>
      <trkpt lat="47.37943" lon="-0.43001">
        <ele>51.9</ele>
        <time>2013-02-13T08:40:56.830Z</time>
      </trkpt>
      <trkpt lat="47.37942" lon="-0.42995">
        <ele>51.9</ele>
        <time>2013-02-13T08:40:58.670Z</time>
      </trkpt>
      <trkpt lat="47.37941" lon="-0.42992">
        <ele>51.9</ele>
        <time>2013-02-13T08:40:59.840Z</time>
      </trkpt>
      <trkpt lat="47.37939" lon="-0.42984">
        <ele>53.5</ele>
        <time>2013-02-13T08:41:01.670Z</time>
      </trkpt>
      <trkpt lat="47.37939" lon="-0.42981">
        <ele>51.8</ele>
        <time>2013-02-13T08:41:02.700Z</time>
      </trkpt>
      <trkpt lat="47.37938" lon="-0.42977">
        <ele>51.8</ele>
        <time>2013-02-13T08:41:03.670Z</time>
      </trkpt>
      <trkpt lat="47.37938" lon="-0.42973">
        <ele>51.8</ele>
        <time>2013-02-13T08:41:04.800Z</time>
      </trkpt>
      <trkpt lat="47.37937" lon="-0.42965">
        <ele>51.8</ele>
        <time>2013-02-13T08:41:06.670Z</time>
      </trkpt>
      <trkpt lat="47.37936" lon="-0.42962">
        <ele>51.8</ele>
        <time>2013-02-13T08:41:07.670Z</time>
      </trkpt>
      <trkpt lat="47.37936" lon="-0.42958">
        <ele>51.8</ele>
        <time>2013-02-13T08:41:08.830Z</time>
      </trkpt>
      <trkpt lat="47.37934" lon="-0.42952">
        <ele>51.9</ele>
        <time>2013-02-13T08:41:10.670Z</time>
      </trkpt>
      <trkpt lat="47.37934" lon="-0.42949">
        <ele>51.9</ele>
        <time>2013-02-13T08:41:11.670Z</time>
      </trkpt>
      <trkpt lat="47.37934" lon="-0.42946">
        <ele>52</ele>
        <time>2013-02-13T08:41:12.770Z</time>
      </trkpt>
      <trkpt lat="47.37933" lon="-0.42939">
        <ele>52</ele>
        <time>2013-02-13T08:41:14.670Z</time>
      </trkpt>
      <trkpt lat="47.37932" lon="-0.42935">
        <ele>52</ele>
        <time>2013-02-13T08:41:15.850Z</time>
      </trkpt>
      <trkpt lat="47.37932" lon="-0.42931">
        <ele>52</ele>
        <time>2013-02-13T08:41:16.880Z</time>
      </trkpt>
      <trkpt lat="47.37931" lon="-0.42925">
        <ele>52</ele>
        <time>2013-02-13T08:41:18.670Z</time>
      </trkpt>
      <trkpt lat="47.37931" lon="-0.42922">
        <ele>52</ele>
        <time>2013-02-13T08:41:19.800Z</time>
      </trkpt>
      <trkpt lat="47.37931" lon="-0.42916">
        <ele>52</ele>
        <time>2013-02-13T08:41:21.670Z</time>
      </trkpt>
      <trkpt lat="47.37933" lon="-0.42913">
        <ele>51.9</ele>
        <time>2013-02-13T08:41:22.670Z</time>
      </trkpt>
      <trkpt lat="47.37934" lon="-0.4291">
        <ele>51.9</ele>
        <time>2013-02-13T08:41:23.770Z</time>
      </trkpt>
      <trkpt lat="47.37938" lon="-0.42906">
        <ele>51.9</ele>
        <time>2013-02-13T08:41:25.670Z</time>
      </trkpt>
      <trkpt lat="47.37941" lon="-0.42904">
        <ele>51.9</ele>
        <time>2013-02-13T08:41:26.840Z</time>
      </trkpt>
      <trkpt lat="47.37945" lon="-0.429">
        <ele>52</ele>
        <time>2013-02-13T08:41:28.780Z</time>
      </trkpt>
      <trkpt lat="47.37948" lon="-0.42897">
        <ele>52.1</ele>
        <time>2013-02-13T08:41:30.870Z</time>
      </trkpt>
      <trkpt lat="47.37951" lon="-0.42896">
        <ele>52.2</ele>
        <time>2013-02-13T08:41:31.770Z</time>
      </trkpt>
      <trkpt lat="47.37954" lon="-0.42893">
        <ele>52.3</ele>
        <time>2013-02-13T08:41:33.810Z</time>
      </trkpt>
      <trkpt lat="47.37958" lon="-0.4289">
        <ele>52.5</ele>
        <time>2013-02-13T08:41:35.770Z</time>
      </trkpt>
      <trkpt lat="47.37963" lon="-0.42887">
        <ele>52.6</ele>
        <time>2013-02-13T08:41:37.670Z</time>
      </trkpt>
      <trkpt lat="47.37965" lon="-0.42886">
        <ele>52.7</ele>
        <time>2013-02-13T08:41:38.670Z</time>
      </trkpt>
      <trkpt lat="47.37967" lon="-0.42885">
        <ele>52.7</ele>
        <time>2013-02-13T08:41:39.770Z</time>
      </trkpt>
      <trkpt lat="47.37972" lon="-0.42882">
        <ele>52.7</ele>
        <time>2013-02-13T08:41:41.780Z</time>
      </trkpt>
      <trkpt lat="47.37976" lon="-0.42879">
        <ele>52.7</ele>
        <time>2013-02-13T08:41:43.860Z</time>
      </trkpt>
      <trkpt lat="47.37978" lon="-0.42878">
        <ele>52.7</ele>
        <time>2013-02-13T08:41:44.770Z</time>
      </trkpt>
      <trkpt lat="47.37981" lon="-0.42875">
        <ele>52.7</ele>
        <time>2013-02-13T08:41:46.670Z</time>
      </trkpt>
      <trkpt lat="47.37983" lon="-0.42874">
        <ele>52.7</ele>
        <time>2013-02-13T08:41:47.670Z</time>
      </trkpt>
      <trkpt lat="47.37985" lon="-0.42872">
        <ele>52.7</ele>
        <time>2013-02-13T08:41:48.670Z</time>
      </trkpt>
      <trkpt lat="47.37987" lon="-0.42871">
        <ele>52.7</ele>
        <time>2013-02-13T08:41:49.860Z</time>
      </trkpt>
      <trkpt lat="47.37991" lon="-0.42869">
        <ele>52.8</ele>
        <time>2013-02-13T08:41:51.670Z</time>
      </trkpt>
      <trkpt lat="47.37993" lon="-0.42867">
        <ele>52.8</ele>
        <time>2013-02-13T08:41:52.830Z</time>
      </trkpt>
      <trkpt lat="47.37997" lon="-0.42865">
        <ele>52.9</ele>
        <time>2013-02-13T08:41:54.670Z</time>
      </trkpt>
      <trkpt lat="47.37999" lon="-0.42864">
        <ele>53</ele>
        <time>2013-02-13T08:41:55.780Z</time>
      </trkpt>
      <trkpt lat="47.38003" lon="-0.42861">
        <ele>53.1</ele>
        <time>2013-02-13T08:41:57.770Z</time>
      </trkpt>
      <trkpt lat="47.38005" lon="-0.4286">
        <ele>53.2</ele>
        <time>2013-02-13T08:41:58.770Z</time>
      </trkpt>
      <trkpt lat="47.3801" lon="-0.42857">
        <ele>54</ele>
        <time>2013-02-13T08:42:00.860Z</time>
      </trkpt>
      <trkpt lat="47.38014" lon="-0.42855">
        <ele>53.5</ele>
        <time>2013-02-13T08:42:02.670Z</time>
      </trkpt>
      <trkpt lat="47.38016" lon="-0.42854">
        <ele>53.6</ele>
        <time>2013-02-13T08:42:03.770Z</time>
      </trkpt>
      <trkpt lat="47.3802" lon="-0.42852">
        <ele>53.7</ele>
        <time>2013-02-13T08:42:05.770Z</time>
      </trkpt>
      <trkpt lat="47.38025" lon="-0.4285">
        <ele>53.9</ele>
        <time>2013-02-13T08:42:07.670Z</time>
      </trkpt>
      <trkpt lat="47.38027" lon="-0.42848">
        <ele>54</ele>
        <time>2013-02-13T08:42:08.680Z</time>
      </trkpt>
      <trkpt lat="47.38029" lon="-0.42847">
        <ele>54</ele>
        <time>2013-02-13T08:42:09.770Z</time>
      </trkpt>
      <trkpt lat="47.38032" lon="-0.42844">
        <ele>54.2</ele>
        <time>2013-02-13T08:42:11.850Z</time>
      </trkpt>
      <trkpt lat="47.38037" lon="-0.42842">
        <ele>54.3</ele>
        <time>2013-02-13T08:42:13.770Z</time>
      </trkpt>
      <trkpt lat="47.38042" lon="-0.42839">
        <ele>54.5</ele>
        <time>2013-02-13T08:42:15.670Z</time>
      </trkpt>
      <trkpt lat="47.38044" lon="-0.42839">
        <ele>54.6</ele>
        <time>2013-02-13T08:42:16.870Z</time>
      </trkpt>
      <trkpt lat="47.38048" lon="-0.42836">
        <ele>54.7</ele>
        <time>2013-02-13T08:42:18.780Z</time>
      </trkpt>
      <trkpt lat="47.38052" lon="-0.42834">
        <ele>54.9</ele>
        <time>2013-02-13T08:42:20.670Z</time>
      </trkpt>
      <trkpt lat="47.38054" lon="-0.42833">
        <ele>55</ele>
        <time>2013-02-13T08:42:21.770Z</time>
      </trkpt>
      <trkpt lat="47.38059" lon="-0.42831">
        <ele>55</ele>
        <time>2013-02-13T08:42:23.770Z</time>
      </trkpt>
      <trkpt lat="47.38064" lon="-0.42829">
        <ele>55.1</ele>
        <time>2013-02-13T08:42:25.930Z</time>
      </trkpt>
      <trkpt lat="47.38068" lon="-0.42826">
        <ele>55.2</ele>
        <time>2013-02-13T08:42:27.680Z</time>
      </trkpt>
      <trkpt lat="47.3807" lon="-0.42825">
        <ele>55.2</ele>
        <time>2013-02-13T08:42:28.830Z</time>
      </trkpt>
      <trkpt lat="47.38074" lon="-0.42823">
        <ele>55.3</ele>
        <time>2013-02-13T08:42:30.670Z</time>
      </trkpt>
      <trkpt lat="47.38076" lon="-0.42822">
        <ele>55.3</ele>
        <time>2013-02-13T08:42:31.670Z</time>
      </trkpt>
      <trkpt lat="47.38078" lon="-0.42821">
        <ele>55.4</ele>
        <time>2013-02-13T08:42:32.670Z</time>
      </trkpt>
      <trkpt lat="47.3808" lon="-0.4282">
        <ele>55.4</ele>
        <time>2013-02-13T08:42:33.800Z</time>
      </trkpt>
      <trkpt lat="47.38085" lon="-0.42819">
        <ele>55.6</ele>
        <time>2013-02-13T08:42:35.770Z</time>
      </trkpt>
      <trkpt lat="47.38086" lon="-0.42819">
        <ele>55.6</ele>
        <time>2013-02-13T08:42:36.820Z</time>
      </trkpt>
      <trkpt lat="47.38091" lon="-0.42817">
        <ele>55.8</ele>
        <time>2013-02-13T08:42:38.770Z</time>
      </trkpt>
      <trkpt lat="47.38094" lon="-0.42815">
        <ele>56</ele>
        <time>2013-02-13T08:42:40.820Z</time>
      </trkpt>
      <trkpt lat="47.38098" lon="-0.42813">
        <ele>56.2</ele>
        <time>2013-02-13T08:42:42.670Z</time>
      </trkpt>
      <trkpt lat="47.381" lon="-0.42812">
        <ele>56.3</ele>
        <time>2013-02-13T08:42:43.780Z</time>
      </trkpt>
      <trkpt lat="47.38104" lon="-0.42809">
        <ele>56.5</ele>
        <time>2013-02-13T08:42:45.670Z</time>
      </trkpt>
      <trkpt lat="47.38106" lon="-0.42809">
        <ele>56.7</ele>
        <time>2013-02-13T08:42:46.670Z</time>
      </trkpt>
      <trkpt lat="47.38108" lon="-0.42808">
        <ele>56.8</ele>
        <time>2013-02-13T08:42:47.670Z</time>
      </trkpt>
      <trkpt lat="47.3811" lon="-0.42807">
        <ele>56.9</ele>
        <time>2013-02-13T08:42:48.670Z</time>
      </trkpt>
      <trkpt lat="47.38113" lon="-0.42806">
        <ele>57</ele>
        <time>2013-02-13T08:42:49.780Z</time>
      </trkpt>
      <trkpt lat="47.38117" lon="-0.42804">
        <ele>56.9</ele>
        <time>2013-02-13T08:42:51.780Z</time>
      </trkpt>
      <trkpt lat="47.3812" lon="-0.42802">
        <ele>56.9</ele>
        <time>2013-02-13T08:42:53.780Z</time>
      </trkpt>
      <trkpt lat="47.38125" lon="-0.428">
        <ele>56.9</ele>
        <time>2013-02-13T08:42:55.670Z</time>
      </trkpt>
      <trkpt lat="47.38127" lon="-0.42799">
        <ele>56.9</ele>
        <time>2013-02-13T08:42:56.670Z</time>
      </trkpt>
      <trkpt lat="47.38129" lon="-0.42798">
        <ele>56.9</ele>
        <time>2013-02-13T08:42:57.770Z</time>
      </trkpt>
      <trkpt lat="47.38134" lon="-0.42795">
        <ele>56.9</ele>
        <time>2013-02-13T08:42:59.840Z</time>
      </trkpt>
      <trkpt lat="47.38138" lon="-0.42793">
        <ele>56</ele>
        <time>2013-02-13T08:43:01.820Z</time>
      </trkpt>
      <trkpt lat="47.38142" lon="-0.42792">
        <ele>57.2</ele>
        <time>2013-02-13T08:43:03.770Z</time>
      </trkpt>
      <trkpt lat="47.38146" lon="-0.4279">
        <ele>57.4</ele>
        <time>2013-02-13T08:43:05.670Z</time>
      </trkpt>
      <trkpt lat="47.38148" lon="-0.42789">
        <ele>57.5</ele>
        <time>2013-02-13T08:43:06.670Z</time>
      </trkpt>
      <trkpt lat="47.3815" lon="-0.42787">
        <ele>57.7</ele>
        <time>2013-02-13T08:43:07.770Z</time>
      </trkpt>
      <trkpt lat="47.38154" lon="-0.42785">
        <ele>57.9</ele>
        <time>2013-02-13T08:43:09.770Z</time>
      </trkpt>
      <trkpt lat="47.38158" lon="-0.42784">
        <ele>58.2</ele>
        <time>2013-02-13T08:43:11.770Z</time>
      </trkpt>
      <trkpt lat="47.38162" lon="-0.42782">
        <ele>58.6</ele>
        <time>2013-02-13T08:43:13.770Z</time>
      </trkpt>
      <trkpt lat="47.38167" lon="-0.4278">
        <ele>58.9</ele>
        <time>2013-02-13T08:43:15.770Z</time>
      </trkpt>
      <trkpt lat="47.3817" lon="-0.42778">
        <ele>59.1</ele>
        <time>2013-02-13T08:43:17.670Z</time>
      </trkpt>
      <trkpt lat="47.38173" lon="-0.42777">
        <ele>59.2</ele>
        <time>2013-02-13T08:43:18.680Z</time>
      </trkpt>
      <trkpt lat="47.38175" lon="-0.42777">
        <ele>59.3</ele>
        <time>2013-02-13T08:43:19.670Z</time>
      </trkpt>
      <trkpt lat="47.38177" lon="-0.42776">
        <ele>59.3</ele>
        <time>2013-02-13T08:43:20.780Z</time>
      </trkpt>
      <trkpt lat="47.38182" lon="-0.42774">
        <ele>59.5</ele>
        <time>2013-02-13T08:43:22.670Z</time>
      </trkpt>
      <trkpt lat="47.38184" lon="-0.42774">
        <ele>59.6</ele>
        <time>2013-02-13T08:43:23.770Z</time>
      </trkpt>
      <trkpt lat="47.38188" lon="-0.42772">
        <ele>59.7</ele>
        <time>2013-02-13T08:43:25.670Z</time>
      </trkpt>
      <trkpt lat="47.38189" lon="-0.42771">
        <ele>59.8</ele>
        <time>2013-02-13T08:43:26.670Z</time>
      </trkpt>
      <trkpt lat="47.38192" lon="-0.4277">
        <ele>59.9</ele>
        <time>2013-02-13T08:43:27.770Z</time>
      </trkpt>
      <trkpt lat="47.38196" lon="-0.42768">
        <ele>60</ele>
        <time>2013-02-13T08:43:29.850Z</time>
      </trkpt>
      <trkpt lat="47.382" lon="-0.42767">
        <ele>60.2</ele>
        <time>2013-02-13T08:43:31.680Z</time>
      </trkpt>
      <trkpt lat="47.38201" lon="-0.42766">
        <ele>60.3</ele>
        <time>2013-02-13T08:43:32.670Z</time>
      </trkpt>
      <trkpt lat="47.38203" lon="-0.42765">
        <ele>60.3</ele>
        <time>2013-02-13T08:43:33.680Z</time>
      </trkpt>
      <trkpt lat="47.38205" lon="-0.42763">
        <ele>60.4</ele>
        <time>2013-02-13T08:43:34.820Z</time>
      </trkpt>
      <trkpt lat="47.38207" lon="-0.42763">
        <ele>60.4</ele>
        <time>2013-02-13T08:43:35.820Z</time>
      </trkpt>
      <trkpt lat="47.38211" lon="-0.42761">
        <ele>60.6</ele>
        <time>2013-02-13T08:43:37.670Z</time>
      </trkpt>
      <trkpt lat="47.38213" lon="-0.4276">
        <ele>60.7</ele>
        <time>2013-02-13T08:43:38.770Z</time>
      </trkpt>
      <trkpt lat="47.38217" lon="-0.42758">
        <ele>60.8</ele>
        <time>2013-02-13T08:43:40.840Z</time>
      </trkpt>
      <trkpt lat="47.38222" lon="-0.42756">
        <ele>61</ele>
        <time>2013-02-13T08:43:42.770Z</time>
      </trkpt>
      <trkpt lat="47.38226" lon="-0.42754">
        <ele>61.1</ele>
        <time>2013-02-13T08:43:44.900Z</time>
      </trkpt>
      <trkpt lat="47.3823" lon="-0.42752">
        <ele>61.3</ele>
        <time>2013-02-13T08:43:46.830Z</time>
      </trkpt>
      <trkpt lat="47.38232" lon="-0.42751">
        <ele>61.4</ele>
        <time>2013-02-13T08:43:47.780Z</time>
      </trkpt>
      <trkpt lat="47.38237" lon="-0.42749">
        <ele>61.5</ele>
        <time>2013-02-13T08:43:49.670Z</time>
      </trkpt>
      <trkpt lat="47.38239" lon="-0.42749">
        <ele>61.6</ele>
        <time>2013-02-13T08:43:50.780Z</time>
      </trkpt>
      <trkpt lat="47.38243" lon="-0.42748">
        <ele>61.8</ele>
        <time>2013-02-13T08:43:52.860Z</time>
      </trkpt>
      <trkpt lat="47.38247" lon="-0.42746">
        <ele>61.9</ele>
        <time>2013-02-13T08:43:54.820Z</time>
      </trkpt>
      <trkpt lat="47.38252" lon="-0.42744">
        <ele>62.1</ele>
        <time>2013-02-13T08:43:56.770Z</time>
      </trkpt>
      <trkpt lat="47.38257" lon="-0.42743">
        <ele>62.2</ele>
        <time>2013-02-13T08:43:58.830Z</time>
      </trkpt>
      <trkpt lat="47.38259" lon="-0.42743">
        <ele>62.3</ele>
        <time>2013-02-13T08:43:59.830Z</time>
      </trkpt>
      <trkpt lat="47.38262" lon="-0.42741">
        <ele>61.6</ele>
        <time>2013-02-13T08:44:01.770Z</time>
      </trkpt>
      <trkpt lat="47.38267" lon="-0.4274">
        <ele>62.6</ele>
        <time>2013-02-13T08:44:03.770Z</time>
      </trkpt>
      <trkpt lat="47.38271" lon="-0.42739">
        <ele>62.8</ele>
        <time>2013-02-13T08:44:05.770Z</time>
      </trkpt>
      <trkpt lat="47.38273" lon="-0.42738">
        <ele>62.8</ele>
        <time>2013-02-13T08:44:06.830Z</time>
      </trkpt>
      <trkpt lat="47.38278" lon="-0.42737">
        <ele>63</ele>
        <time>2013-02-13T08:44:08.830Z</time>
      </trkpt>
      <trkpt lat="47.38282" lon="-0.42736">
        <ele>63.1</ele>
        <time>2013-02-13T08:44:10.670Z</time>
      </trkpt>
      <trkpt lat="47.38284" lon="-0.42735">
        <ele>63.1</ele>
        <time>2013-02-13T08:44:11.770Z</time>
      </trkpt>
      <trkpt lat="47.38288" lon="-0.42735">
        <ele>63.2</ele>
        <time>2013-02-13T08:44:13.770Z</time>
      </trkpt>
      <trkpt lat="47.38292" lon="-0.42734">
        <ele>63.3</ele>
        <time>2013-02-13T08:44:15.770Z</time>
      </trkpt>
      <trkpt lat="47.38296" lon="-0.42733">
        <ele>63.4</ele>
        <time>2013-02-13T08:44:17.670Z</time>
      </trkpt>
      <trkpt lat="47.38299" lon="-0.42733">
        <ele>63.5</ele>
        <time>2013-02-13T08:44:18.770Z</time>
      </trkpt>
      <trkpt lat="47.38303" lon="-0.42732">
        <ele>63.6</ele>
        <time>2013-02-13T08:44:20.900Z</time>
      </trkpt>
      <trkpt lat="47.38307" lon="-0.4273">
        <ele>63.7</ele>
        <time>2013-02-13T08:44:22.820Z</time>
      </trkpt>
      <trkpt lat="47.38312" lon="-0.42729">
        <ele>63.8</ele>
        <time>2013-02-13T08:44:24.770Z</time>
      </trkpt>
      <trkpt lat="47.38317" lon="-0.42729">
        <ele>63.8</ele>
        <time>2013-02-13T08:44:26.860Z</time>
      </trkpt>
      <trkpt lat="47.38321" lon="-0.42729">
        <ele>63.9</ele>
        <time>2013-02-13T08:44:28.820Z</time>
      </trkpt>
      <trkpt lat="47.38325" lon="-0.42729">
        <ele>63.9</ele>
        <time>2013-02-13T08:44:30.770Z</time>
      </trkpt>
      <trkpt lat="47.3833" lon="-0.42729">
        <ele>64</ele>
        <time>2013-02-13T08:44:32.820Z</time>
      </trkpt>
      <trkpt lat="47.38332" lon="-0.42729">
        <ele>64</ele>
        <time>2013-02-13T08:44:33.900Z</time>
      </trkpt>
      <trkpt lat="47.38336" lon="-0.42729">
        <ele>64</ele>
        <time>2013-02-13T08:44:35.770Z</time>
      </trkpt>
      <trkpt lat="47.3834" lon="-0.42729">
        <ele>64</ele>
        <time>2013-02-13T08:44:37.770Z</time>
      </trkpt>
      <trkpt lat="47.38342" lon="-0.42729">
        <ele>64</ele>
        <time>2013-02-13T08:44:38.830Z</time>
      </trkpt>
      <trkpt lat="47.38346" lon="-0.42728">
        <ele>64</ele>
        <time>2013-02-13T08:44:40.780Z</time>
      </trkpt>
      <trkpt lat="47.38351" lon="-0.42728">
        <ele>64</ele>
        <time>2013-02-13T08:44:43.350Z</time>
      </trkpt>
      <trkpt lat="47.38356" lon="-0.42728">
        <ele>64</ele>
        <time>2013-02-13T08:44:44.670Z</time>
      </trkpt>
      <trkpt lat="47.38359" lon="-0.42727">
        <ele>64</ele>
        <time>2013-02-13T08:44:45.670Z</time>
      </trkpt>
      <trkpt lat="47.38361" lon="-0.42727">
        <ele>64</ele>
        <time>2013-02-13T08:44:46.670Z</time>
      </trkpt>
      <trkpt lat="47.38364" lon="-0.42726">
        <ele>64</ele>
        <time>2013-02-13T08:44:48.320Z</time>
      </trkpt>
      <trkpt lat="47.38368" lon="-0.42726">
        <ele>64</ele>
        <time>2013-02-13T08:44:49.770Z</time>
      </trkpt>
      <trkpt lat="47.38372" lon="-0.42726">
        <ele>64</ele>
        <time>2013-02-13T08:44:51.770Z</time>
      </trkpt>
      <trkpt lat="47.38376" lon="-0.42725">
        <ele>64</ele>
        <time>2013-02-13T08:44:53.770Z</time>
      </trkpt>
      <trkpt lat="47.38381" lon="-0.42725">
        <ele>64</ele>
        <time>2013-02-13T08:44:55.770Z</time>
      </trkpt>
      <trkpt lat="47.38385" lon="-0.42724">
        <ele>64</ele>
        <time>2013-02-13T08:44:57.670Z</time>
      </trkpt>
      <trkpt lat="47.38388" lon="-0.42723">
        <ele>64</ele>
        <time>2013-02-13T08:44:58.840Z</time>
      </trkpt>
      <trkpt lat="47.38392" lon="-0.42723">
        <ele>63.6</ele>
        <time>2013-02-13T08:45:00.680Z</time>
      </trkpt>
      <trkpt lat="47.38395" lon="-0.42723">
        <ele>64</ele>
        <time>2013-02-13T08:45:01.770Z</time>
      </trkpt>
      <trkpt lat="47.38399" lon="-0.42722">
        <ele>64</ele>
        <time>2013-02-13T08:45:03.770Z</time>
      </trkpt>
      <trkpt lat="47.38405" lon="-0.42721">
        <ele>64</ele>
        <time>2013-02-13T08:45:05.850Z</time>
      </trkpt>
      <trkpt lat="47.38409" lon="-0.42721">
        <ele>64.1</ele>
        <time>2013-02-13T08:45:07.670Z</time>
      </trkpt>
      <trkpt lat="47.38411" lon="-0.4272">
        <ele>64.1</ele>
        <time>2013-02-13T08:45:08.840Z</time>
      </trkpt>
      <trkpt lat="47.38416" lon="-0.4272">
        <ele>64.1</ele>
        <time>2013-02-13T08:45:10.860Z</time>
      </trkpt>
      <trkpt lat="47.3842" lon="-0.42721">
        <ele>64.1</ele>
        <time>2013-02-13T08:45:12.780Z</time>
      </trkpt>
      <trkpt lat="47.38424" lon="-0.42721">
        <ele>64</ele>
        <time>2013-02-13T08:45:14.920Z</time>
      </trkpt>
      <trkpt lat="47.38429" lon="-0.4272">
        <ele>64.1</ele>
        <time>2013-02-13T08:45:16.820Z</time>
      </trkpt>
      <trkpt lat="47.38434" lon="-0.42719">
        <ele>64.1</ele>
        <time>2013-02-13T08:45:18.670Z</time>
      </trkpt>
      <trkpt lat="47.38436" lon="-0.42719">
        <ele>64.1</ele>
        <time>2013-02-13T08:45:19.850Z</time>
      </trkpt>
      <trkpt lat="47.3844" lon="-0.42719">
        <ele>64.1</ele>
        <time>2013-02-13T08:45:21.670Z</time>
      </trkpt>
      <trkpt lat="47.38443" lon="-0.42719">
        <ele>64.1</ele>
        <time>2013-02-13T08:45:22.770Z</time>
      </trkpt>
      <trkpt lat="47.38448" lon="-0.42719">
        <ele>64.1</ele>
        <time>2013-02-13T08:45:24.910Z</time>
      </trkpt>
      <trkpt lat="47.38452" lon="-0.42718">
        <ele>64.2</ele>
        <time>2013-02-13T08:45:26.830Z</time>
      </trkpt>
      <trkpt lat="47.38457" lon="-0.42717">
        <ele>64.2</ele>
        <time>2013-02-13T08:45:28.670Z</time>
      </trkpt>
      <trkpt lat="47.38459" lon="-0.42717">
        <ele>64.2</ele>
        <time>2013-02-13T08:45:29.780Z</time>
      </trkpt>
      <trkpt lat="47.38463" lon="-0.42716">
        <ele>64.2</ele>
        <time>2013-02-13T08:45:31.770Z</time>
      </trkpt>
      <trkpt lat="47.38467" lon="-0.42715">
        <ele>64.3</ele>
        <time>2013-02-13T08:45:33.820Z</time>
      </trkpt>
      <trkpt lat="47.38471" lon="-0.42714">
        <ele>64.3</ele>
        <time>2013-02-13T08:45:35.670Z</time>
      </trkpt>
      <trkpt lat="47.38474" lon="-0.42713">
        <ele>64.4</ele>
        <time>2013-02-13T08:45:36.770Z</time>
      </trkpt>
      <trkpt lat="47.38478" lon="-0.42712">
        <ele>64.5</ele>
        <time>2013-02-13T08:45:38.770Z</time>
      </trkpt>
      <trkpt lat="47.38483" lon="-0.42711">
        <ele>64.6</ele>
        <time>2013-02-13T08:45:40.670Z</time>
      </trkpt>
      <trkpt lat="47.38485" lon="-0.4271">
        <ele>64.7</ele>
        <time>2013-02-13T08:45:41.670Z</time>
      </trkpt>
      <trkpt lat="47.38487" lon="-0.4271">
        <ele>64.8</ele>
        <time>2013-02-13T08:45:42.840Z</time>
      </trkpt>
      <trkpt lat="47.38492" lon="-0.42708">
        <ele>64.9</ele>
        <time>2013-02-13T08:45:44.670Z</time>
      </trkpt>
      <trkpt lat="47.38495" lon="-0.42707">
        <ele>64.9</ele>
        <time>2013-02-13T08:45:45.670Z</time>
      </trkpt>
      <trkpt lat="47.38497" lon="-0.42705">
        <ele>65</ele>
        <time>2013-02-13T08:45:46.780Z</time>
      </trkpt>
      <trkpt lat="47.38502" lon="-0.42703">
        <ele>65</ele>
        <time>2013-02-13T08:45:48.840Z</time>
      </trkpt>
      <trkpt lat="47.38506" lon="-0.427">
        <ele>65.2</ele>
        <time>2013-02-13T08:45:50.680Z</time>
      </trkpt>
      <trkpt lat="47.38508" lon="-0.42699">
        <ele>65.2</ele>
        <time>2013-02-13T08:45:51.680Z</time>
      </trkpt>
      <trkpt lat="47.3851" lon="-0.42698">
        <ele>65.3</ele>
        <time>2013-02-13T08:45:52.670Z</time>
      </trkpt>
      <trkpt lat="47.38512" lon="-0.42696">
        <ele>65.4</ele>
        <time>2013-02-13T08:45:53.670Z</time>
      </trkpt>
      <trkpt lat="47.38514" lon="-0.42695">
        <ele>65.5</ele>
        <time>2013-02-13T08:45:54.840Z</time>
      </trkpt>
      <trkpt lat="47.38519" lon="-0.42693">
        <ele>65.7</ele>
        <time>2013-02-13T08:45:56.670Z</time>
      </trkpt>
      <trkpt lat="47.38521" lon="-0.42691">
        <ele>65.8</ele>
        <time>2013-02-13T08:45:57.670Z</time>
      </trkpt>
      <trkpt lat="47.38522" lon="-0.4269">
        <ele>66</ele>
        <time>2013-02-13T08:45:58.780Z</time>
      </trkpt>
      <trkpt lat="47.38525" lon="-0.42687">
        <ele>66.6</ele>
        <time>2013-02-13T08:46:00.900Z</time>
      </trkpt>
      <trkpt lat="47.38529" lon="-0.42685">
        <ele>66.4</ele>
        <time>2013-02-13T08:46:02.790Z</time>
      </trkpt>
      <trkpt lat="47.38532" lon="-0.42682">
        <ele>66.5</ele>
        <time>2013-02-13T08:46:04.670Z</time>
      </trkpt>
      <trkpt lat="47.38534" lon="-0.4268">
        <ele>66.6</ele>
        <time>2013-02-13T08:46:05.770Z</time>
      </trkpt>
      <trkpt lat="47.38538" lon="-0.42676">
        <ele>66.8</ele>
        <time>2013-02-13T08:46:07.780Z</time>
      </trkpt>
      <trkpt lat="47.3854" lon="-0.42675">
        <ele>66.8</ele>
        <time>2013-02-13T08:46:08.860Z</time>
      </trkpt>
      <trkpt lat="47.38544" lon="-0.42672">
        <ele>66.9</ele>
        <time>2013-02-13T08:46:10.820Z</time>
      </trkpt>
      <trkpt lat="47.38549" lon="-0.4267">
        <ele>67</ele>
        <time>2013-02-13T08:46:12.670Z</time>
      </trkpt>
      <trkpt lat="47.38551" lon="-0.42668">
        <ele>67</ele>
        <time>2013-02-13T08:46:13.780Z</time>
      </trkpt>
      <trkpt lat="47.38554" lon="-0.42664">
        <ele>67.1</ele>
        <time>2013-02-13T08:46:15.670Z</time>
      </trkpt>
      <trkpt lat="47.38555" lon="-0.42662">
        <ele>67.2</ele>
        <time>2013-02-13T08:46:16.860Z</time>
      </trkpt>
      <trkpt lat="47.38557" lon="-0.42658">
        <ele>67.4</ele>
        <time>2013-02-13T08:46:18.800Z</time>
      </trkpt>
      <trkpt lat="47.3856" lon="-0.42655">
        <ele>67.5</ele>
        <time>2013-02-13T08:46:20.670Z</time>
      </trkpt>
      <trkpt lat="47.38563" lon="-0.42654">
        <ele>67.6</ele>
        <time>2013-02-13T08:46:21.770Z</time>
      </trkpt>
      <trkpt lat="47.38565" lon="-0.42653">
        <ele>67.7</ele>
        <time>2013-02-13T08:46:22.820Z</time>
      </trkpt>
      <trkpt lat="47.38568" lon="-0.4265">
        <ele>67.8</ele>
        <time>2013-02-13T08:46:24.680Z</time>
      </trkpt>
      <trkpt lat="47.3857" lon="-0.42648">
        <ele>67.8</ele>
        <time>2013-02-13T08:46:25.810Z</time>
      </trkpt>
      <trkpt lat="47.38574" lon="-0.42646">
        <ele>67.9</ele>
        <time>2013-02-13T08:46:27.670Z</time>
      </trkpt>
      <trkpt lat="47.38576" lon="-0.42643">
        <ele>68</ele>
        <time>2013-02-13T08:46:28.830Z</time>
      </trkpt>
      <trkpt lat="47.3858" lon="-0.42639">
        <ele>68</ele>
        <time>2013-02-13T08:46:30.830Z</time>
      </trkpt>
      <trkpt lat="47.38584" lon="-0.42635">
        <ele>68.3</ele>
        <time>2013-02-13T08:46:32.670Z</time>
      </trkpt>
      <trkpt lat="47.38587" lon="-0.42634">
        <ele>68.4</ele>
        <time>2013-02-13T08:46:33.680Z</time>
      </trkpt>
      <trkpt lat="47.38589" lon="-0.42633">
        <ele>68.5</ele>
        <time>2013-02-13T08:46:34.860Z</time>
      </trkpt>
      <trkpt lat="47.38594" lon="-0.42631">
        <ele>68.7</ele>
        <time>2013-02-13T08:46:36.670Z</time>
      </trkpt>
      <trkpt lat="47.38596" lon="-0.4263">
        <ele>68.8</ele>
        <time>2013-02-13T08:46:37.770Z</time>
      </trkpt>
      <trkpt lat="47.38598" lon="-0.42629">
        <ele>68.9</ele>
        <time>2013-02-13T08:46:38.910Z</time>
      </trkpt>
      <trkpt lat="47.38603" lon="-0.42626">
        <ele>69</ele>
        <time>2013-02-13T08:46:40.780Z</time>
      </trkpt>
      <trkpt lat="47.38607" lon="-0.42623">
        <ele>69</ele>
        <time>2013-02-13T08:46:42.680Z</time>
      </trkpt>
      <trkpt lat="47.38609" lon="-0.42621">
        <ele>69</ele>
        <time>2013-02-13T08:46:43.670Z</time>
      </trkpt>
      <trkpt lat="47.38612" lon="-0.42619">
        <ele>69</ele>
        <time>2013-02-13T08:46:44.670Z</time>
      </trkpt>
      <trkpt lat="47.38614" lon="-0.42618">
        <ele>69.2</ele>
        <time>2013-02-13T08:46:45.770Z</time>
      </trkpt>
      <trkpt lat="47.38615" lon="-0.42616">
        <ele>69.3</ele>
        <time>2013-02-13T08:46:46.820Z</time>
      </trkpt>
      <trkpt lat="47.3862" lon="-0.42613">
        <ele>69.6</ele>
        <time>2013-02-13T08:46:48.770Z</time>
      </trkpt>
      <trkpt lat="47.38624" lon="-0.4261">
        <ele>69.9</ele>
        <time>2013-02-13T08:46:50.680Z</time>
      </trkpt>
      <trkpt lat="47.38626" lon="-0.42609">
        <ele>70.1</ele>
        <time>2013-02-13T08:46:51.670Z</time>
      </trkpt>
      <trkpt lat="47.38628" lon="-0.42608">
        <ele>70.3</ele>
        <time>2013-02-13T08:46:52.770Z</time>
      </trkpt>
      <trkpt lat="47.38632" lon="-0.42605">
        <ele>70.6</ele>
        <time>2013-02-13T08:46:54.820Z</time>
      </trkpt>
      <trkpt lat="47.38636" lon="-0.42602">
        <ele>70.9</ele>
        <time>2013-02-13T08:46:56.770Z</time>
      </trkpt>
      <trkpt lat="47.38638" lon="-0.42599">
        <ele>71</ele>
        <time>2013-02-13T08:46:57.780Z</time>
      </trkpt>
      <trkpt lat="47.38641" lon="-0.42596">
        <ele>71.1</ele>
        <time>2013-02-13T08:46:59.890Z</time>
      </trkpt>
      <trkpt lat="47.38645" lon="-0.42595">
        <ele>76.5</ele>
        <time>2013-02-13T08:47:01.860Z</time>
      </trkpt>
      <trkpt lat="47.38649" lon="-0.42593">
        <ele>71.3</ele>
        <time>2013-02-13T08:47:03.670Z</time>
      </trkpt>
      <trkpt lat="47.3865" lon="-0.42592">
        <ele>71.4</ele>
        <time>2013-02-13T08:47:04.770Z</time>
      </trkpt>
      <trkpt lat="47.38655" lon="-0.4259">
        <ele>71.6</ele>
        <time>2013-02-13T08:47:06.670Z</time>
      </trkpt>
      <trkpt lat="47.38656" lon="-0.42588">
        <ele>71.6</ele>
        <time>2013-02-13T08:47:07.870Z</time>
      </trkpt>
      <trkpt lat="47.38661" lon="-0.42586">
        <ele>71.8</ele>
        <time>2013-02-13T08:47:09.770Z</time>
      </trkpt>
      <trkpt lat="47.38663" lon="-0.42585">
        <ele>71.9</ele>
        <time>2013-02-13T08:47:10.860Z</time>
      </trkpt>
      <trkpt lat="47.38667" lon="-0.42583">
        <ele>72</ele>
        <time>2013-02-13T08:47:12.780Z</time>
      </trkpt>
      <trkpt lat="47.38672" lon="-0.42582">
        <ele>72.2</ele>
        <time>2013-02-13T08:47:14.670Z</time>
      </trkpt>
      <trkpt lat="47.38673" lon="-0.42582">
        <ele>72.3</ele>
        <time>2013-02-13T08:47:15.670Z</time>
      </trkpt>
      <trkpt lat="47.38675" lon="-0.42582">
        <ele>72.4</ele>
        <time>2013-02-13T08:47:16.730Z</time>
      </trkpt>
      <trkpt lat="47.38677" lon="-0.42582">
        <ele>72.4</ele>
        <time>2013-02-13T08:47:17.770Z</time>
      </trkpt>
      <trkpt lat="47.38679" lon="-0.42582">
        <ele>72.5</ele>
        <time>2013-02-13T08:47:18.830Z</time>
      </trkpt>
      <trkpt lat="47.38683" lon="-0.42579">
        <ele>72.7</ele>
        <time>2013-02-13T08:47:20.780Z</time>
      </trkpt>
      <trkpt lat="47.38685" lon="-0.42579">
        <ele>72.8</ele>
        <time>2013-02-13T08:47:21.770Z</time>
      </trkpt>
      <trkpt lat="47.38687" lon="-0.42578">
        <ele>72.9</ele>
        <time>2013-02-13T08:47:22.850Z</time>
      </trkpt>
      <trkpt lat="47.38691" lon="-0.42576">
        <ele>73.1</ele>
        <time>2013-02-13T08:47:24.850Z</time>
      </trkpt>
      <trkpt lat="47.38695" lon="-0.42575">
        <ele>73.4</ele>
        <time>2013-02-13T08:47:26.670Z</time>
      </trkpt>
      <trkpt lat="47.38697" lon="-0.42575">
        <ele>73.5</ele>
        <time>2013-02-13T08:47:27.670Z</time>
      </trkpt>
      <trkpt lat="47.38699" lon="-0.42575">
        <ele>73.6</ele>
        <time>2013-02-13T08:47:28.780Z</time>
      </trkpt>
      <trkpt lat="47.38702" lon="-0.42573">
        <ele>73.8</ele>
        <time>2013-02-13T08:47:30.800Z</time>
      </trkpt>
      <trkpt lat="47.38706" lon="-0.4257">
        <ele>74.1</ele>
        <time>2013-02-13T08:47:32.740Z</time>
      </trkpt>
      <trkpt lat="47.38708" lon="-0.42569">
        <ele>74.2</ele>
        <time>2013-02-13T08:47:33.830Z</time>
      </trkpt>
      <trkpt lat="47.38712" lon="-0.42568">
        <ele>74.4</ele>
        <time>2013-02-13T08:47:35.670Z</time>
      </trkpt>
      <trkpt lat="47.38714" lon="-0.42567">
        <ele>74.6</ele>
        <time>2013-02-13T08:47:36.740Z</time>
      </trkpt>
      <trkpt lat="47.38716" lon="-0.42567">
        <ele>74.7</ele>
        <time>2013-02-13T08:47:37.670Z</time>
      </trkpt>
      <trkpt lat="47.38718" lon="-0.42566">
        <ele>74.8</ele>
        <time>2013-02-13T08:47:38.740Z</time>
      </trkpt>
      <trkpt lat="47.3872" lon="-0.42565">
        <ele>74.9</ele>
        <time>2013-02-13T08:47:39.670Z</time>
      </trkpt>
      <trkpt lat="47.38721" lon="-0.42565">
        <ele>75</ele>
        <time>2013-02-13T08:47:40.740Z</time>
      </trkpt>
      <trkpt lat="47.38724" lon="-0.42564">
        <ele>75</ele>
        <time>2013-02-13T08:47:41.670Z</time>
      </trkpt>
      <trkpt lat="47.38726" lon="-0.42563">
        <ele>75.1</ele>
        <time>2013-02-13T08:47:42.740Z</time>
      </trkpt>
      <trkpt lat="47.38728" lon="-0.42562">
        <ele>75.2</ele>
        <time>2013-02-13T08:47:43.670Z</time>
      </trkpt>
      <trkpt lat="47.3873" lon="-0.42561">
        <ele>75.3</ele>
        <time>2013-02-13T08:47:44.720Z</time>
      </trkpt>
      <trkpt lat="47.38732" lon="-0.42561">
        <ele>75.4</ele>
        <time>2013-02-13T08:47:45.670Z</time>
      </trkpt>
      <trkpt lat="47.38735" lon="-0.4256">
        <ele>75.5</ele>
        <time>2013-02-13T08:47:46.880Z</time>
      </trkpt>
      <trkpt lat="47.38738" lon="-0.42559">
        <ele>75.6</ele>
        <time>2013-02-13T08:47:47.670Z</time>
      </trkpt>
      <trkpt lat="47.3874" lon="-0.42559">
        <ele>75.6</ele>
        <time>2013-02-13T08:47:48.740Z</time>
      </trkpt>
      <trkpt lat="47.38742" lon="-0.42559">
        <ele>75.7</ele>
        <time>2013-02-13T08:47:49.670Z</time>
      </trkpt>
      <trkpt lat="47.38744" lon="-0.42558">
        <ele>75.8</ele>
        <time>2013-02-13T08:47:50.870Z</time>
      </trkpt>
      <trkpt lat="47.38748" lon="-0.42556">
        <ele>75.9</ele>
        <time>2013-02-13T08:47:52.670Z</time>
      </trkpt>
      <trkpt lat="47.3875" lon="-0.42556">
        <ele>76</ele>
        <time>2013-02-13T08:47:53.770Z</time>
      </trkpt>
      <trkpt lat="47.38754" lon="-0.42555">
        <ele>76.2</ele>
        <time>2013-02-13T08:47:55.670Z</time>
      </trkpt>
      <trkpt lat="47.38756" lon="-0.42555">
        <ele>76.3</ele>
        <time>2013-02-13T08:47:56.740Z</time>
      </trkpt>
      <trkpt lat="47.38758" lon="-0.42554">
        <ele>76.3</ele>
        <time>2013-02-13T08:47:57.670Z</time>
      </trkpt>
      <trkpt lat="47.3876" lon="-0.42553">
        <ele>76.4</ele>
        <time>2013-02-13T08:47:58.740Z</time>
      </trkpt>
      <trkpt lat="47.38762" lon="-0.42553">
        <ele>76.5</ele>
        <time>2013-02-13T08:47:59.720Z</time>
      </trkpt>
      <trkpt lat="47.38764" lon="-0.42552">
        <ele>78.2</ele>
        <time>2013-02-13T08:48:00.670Z</time>
      </trkpt>
      <trkpt lat="47.38766" lon="-0.42552">
        <ele>76.7</ele>
        <time>2013-02-13T08:48:01.740Z</time>
      </trkpt>
      <trkpt lat="47.38768" lon="-0.42552">
        <ele>76.8</ele>
        <time>2013-02-13T08:48:02.670Z</time>
      </trkpt>
      <trkpt lat="47.3877" lon="-0.42551">
        <ele>76.9</ele>
        <time>2013-02-13T08:48:03.770Z</time>
      </trkpt>
      <trkpt lat="47.38775" lon="-0.42552">
        <ele>77</ele>
        <time>2013-02-13T08:48:05.720Z</time>
      </trkpt>
      <trkpt lat="47.38777" lon="-0.42552">
        <ele>77.1</ele>
        <time>2013-02-13T08:48:06.780Z</time>
      </trkpt>
      <trkpt lat="47.38779" lon="-0.42551">
        <ele>77.2</ele>
        <time>2013-02-13T08:48:07.800Z</time>
      </trkpt>
      <trkpt lat="47.38784" lon="-0.42551">
        <ele>77.4</ele>
        <time>2013-02-13T08:48:09.730Z</time>
      </trkpt>
      <trkpt lat="47.38786" lon="-0.42551">
        <ele>77.4</ele>
        <time>2013-02-13T08:48:10.770Z</time>
      </trkpt>
      <trkpt lat="47.3879" lon="-0.42551">
        <ele>77.5</ele>
        <time>2013-02-13T08:48:12.770Z</time>
      </trkpt>
      <trkpt lat="47.38792" lon="-0.4255">
        <ele>77.6</ele>
        <time>2013-02-13T08:48:13.670Z</time>
      </trkpt>
      <trkpt lat="47.38794" lon="-0.4255">
        <ele>77.7</ele>
        <time>2013-02-13T08:48:14.670Z</time>
      </trkpt>
      <trkpt lat="47.38796" lon="-0.42551">
        <ele>77.7</ele>
        <time>2013-02-13T08:48:15.780Z</time>
      </trkpt>
      <trkpt lat="47.388" lon="-0.4255">
        <ele>77.8</ele>
        <time>2013-02-13T08:48:17.730Z</time>
      </trkpt>
      <trkpt lat="47.38802" lon="-0.4255">
        <ele>77.9</ele>
        <time>2013-02-13T08:48:18.730Z</time>
      </trkpt>
      <trkpt lat="47.38804" lon="-0.4255">
        <ele>78</ele>
        <time>2013-02-13T08:48:19.780Z</time>
      </trkpt>
      <trkpt lat="47.38809" lon="-0.42549">
        <ele>78.1</ele>
        <time>2013-02-13T08:48:21.670Z</time>
      </trkpt>
      <trkpt lat="47.38811" lon="-0.42549">
        <ele>78.2</ele>
        <time>2013-02-13T08:48:22.670Z</time>
      </trkpt>
      <trkpt lat="47.38813" lon="-0.42549">
        <ele>78.3</ele>
        <time>2013-02-13T08:48:23.670Z</time>
      </trkpt>
      <trkpt lat="47.38814" lon="-0.42549">
        <ele>78.4</ele>
        <time>2013-02-13T08:48:24.680Z</time>
      </trkpt>
      <trkpt lat="47.38816" lon="-0.42549">
        <ele>78.5</ele>
        <time>2013-02-13T08:48:25.870Z</time>
      </trkpt>
      <trkpt lat="47.38819" lon="-0.42549">
        <ele>78.6</ele>
        <time>2013-02-13T08:48:26.780Z</time>
      </trkpt>
      <trkpt lat="47.38822" lon="-0.42549">
        <ele>78.8</ele>
        <time>2013-02-13T08:48:28.780Z</time>
      </trkpt>
      <trkpt lat="47.38826" lon="-0.42548">
        <ele>78.9</ele>
        <time>2013-02-13T08:48:30.670Z</time>
      </trkpt>
      <trkpt lat="47.38828" lon="-0.42548">
        <ele>79</ele>
        <time>2013-02-13T08:48:31.670Z</time>
      </trkpt>
      <trkpt lat="47.38831" lon="-0.42548">
        <ele>79.2</ele>
        <time>2013-02-13T08:48:32.670Z</time>
      </trkpt>
      <trkpt lat="47.38833" lon="-0.42548">
        <ele>79.3</ele>
        <time>2013-02-13T08:48:33.680Z</time>
      </trkpt>
      <trkpt lat="47.38835" lon="-0.42548">
        <ele>79.4</ele>
        <time>2013-02-13T08:48:34.730Z</time>
      </trkpt>
      <trkpt lat="47.38837" lon="-0.42547">
        <ele>79.5</ele>
        <time>2013-02-13T08:48:35.780Z</time>
      </trkpt>
      <trkpt lat="47.38842" lon="-0.42547">
        <ele>79.8</ele>
        <time>2013-02-13T08:48:37.670Z</time>
      </trkpt>
      <trkpt lat="47.38844" lon="-0.42547">
        <ele>79.9</ele>
        <time>2013-02-13T08:48:38.850Z</time>
      </trkpt>
      <trkpt lat="47.38846" lon="-0.42546">
        <ele>80.1</ele>
        <time>2013-02-13T08:48:39.770Z</time>
      </trkpt>
      <trkpt lat="47.3885" lon="-0.42545">
        <ele>80.3</ele>
        <time>2013-02-13T08:48:41.680Z</time>
      </trkpt>
      <trkpt lat="47.38852" lon="-0.42545">
        <ele>80.4</ele>
        <time>2013-02-13T08:48:42.720Z</time>
      </trkpt>
      <trkpt lat="47.38854" lon="-0.42545">
        <ele>80.6</ele>
        <time>2013-02-13T08:48:43.770Z</time>
      </trkpt>
      <trkpt lat="47.38859" lon="-0.42544">
        <ele>80.9</ele>
        <time>2013-02-13T08:48:45.670Z</time>
      </trkpt>
      <trkpt lat="47.38861" lon="-0.42544">
        <ele>81</ele>
        <time>2013-02-13T08:48:46.670Z</time>
      </trkpt>
      <trkpt lat="47.38864" lon="-0.42544">
        <ele>81</ele>
        <time>2013-02-13T08:48:47.670Z</time>
      </trkpt>
      <trkpt lat="47.38866" lon="-0.42543">
        <ele>81</ele>
        <time>2013-02-13T08:48:48.670Z</time>
      </trkpt>
      <trkpt lat="47.38868" lon="-0.42543">
        <ele>81</ele>
        <time>2013-02-13T08:48:49.670Z</time>
      </trkpt>
      <trkpt lat="47.38871" lon="-0.42542">
        <ele>81</ele>
        <time>2013-02-13T08:48:50.680Z</time>
      </trkpt>
      <trkpt lat="47.38873" lon="-0.42542">
        <ele>81</ele>
        <time>2013-02-13T08:48:51.840Z</time>
      </trkpt>
      <trkpt lat="47.38875" lon="-0.42542">
        <ele>81</ele>
        <time>2013-02-13T08:48:52.720Z</time>
      </trkpt>
      <trkpt lat="47.38878" lon="-0.42542">
        <ele>81</ele>
        <time>2013-02-13T08:48:53.770Z</time>
      </trkpt>
      <trkpt lat="47.38883" lon="-0.4254">
        <ele>81</ele>
        <time>2013-02-13T08:48:55.770Z</time>
      </trkpt>
      <trkpt lat="47.38887" lon="-0.42539">
        <ele>81</ele>
        <time>2013-02-13T08:48:57.720Z</time>
      </trkpt>
      <trkpt lat="47.3889" lon="-0.42539">
        <ele>81</ele>
        <time>2013-02-13T08:48:58.820Z</time>
      </trkpt>
      <trkpt lat="47.38894" lon="-0.42536">
        <ele>81</ele>
        <time>2013-02-13T08:49:00.670Z</time>
      </trkpt>
      <trkpt lat="47.38895" lon="-0.42534">
        <ele>81.2</ele>
        <time>2013-02-13T08:49:01.670Z</time>
      </trkpt>
      <trkpt lat="47.38897" lon="-0.42533">
        <ele>81.2</ele>
        <time>2013-02-13T08:49:02.670Z</time>
      </trkpt>
      <trkpt lat="47.389" lon="-0.42532">
        <ele>81.3</ele>
        <time>2013-02-13T08:49:03.670Z</time>
      </trkpt>
      <trkpt lat="47.38902" lon="-0.42532">
        <ele>81.4</ele>
        <time>2013-02-13T08:49:04.720Z</time>
      </trkpt>
      <trkpt lat="47.38904" lon="-0.42531">
        <ele>81.5</ele>
        <time>2013-02-13T08:49:05.720Z</time>
      </trkpt>
      <trkpt lat="47.38906" lon="-0.4253">
        <ele>81.6</ele>
        <time>2013-02-13T08:49:06.780Z</time>
      </trkpt>
      <trkpt lat="47.38911" lon="-0.42528">
        <ele>81.8</ele>
        <time>2013-02-13T08:49:08.670Z</time>
      </trkpt>
      <trkpt lat="47.38913" lon="-0.42527">
        <ele>81.9</ele>
        <time>2013-02-13T08:49:09.670Z</time>
      </trkpt>
      <trkpt lat="47.38915" lon="-0.42525">
        <ele>81.9</ele>
        <time>2013-02-13T08:49:10.670Z</time>
      </trkpt>
      <trkpt lat="47.38918" lon="-0.42524">
        <ele>82</ele>
        <time>2013-02-13T08:49:11.790Z</time>
      </trkpt>
      <trkpt lat="47.38923" lon="-0.42521">
        <ele>82</ele>
        <time>2013-02-13T08:49:13.670Z</time>
      </trkpt>
      <trkpt lat="47.38925" lon="-0.4252">
        <ele>82</ele>
        <time>2013-02-13T08:49:14.670Z</time>
      </trkpt>
      <trkpt lat="47.38927" lon="-0.42519">
        <ele>82</ele>
        <time>2013-02-13T08:49:15.680Z</time>
      </trkpt>
      <trkpt lat="47.3893" lon="-0.42517">
        <ele>82</ele>
        <time>2013-02-13T08:49:16.680Z</time>
      </trkpt>
      <trkpt lat="47.38932" lon="-0.42515">
        <ele>82</ele>
        <time>2013-02-13T08:49:17.720Z</time>
      </trkpt>
      <trkpt lat="47.38934" lon="-0.42514">
        <ele>82</ele>
        <time>2013-02-13T08:49:18.710Z</time>
      </trkpt>
      <trkpt lat="47.38935" lon="-0.42513">
        <ele>82</ele>
        <time>2013-02-13T08:49:19.710Z</time>
      </trkpt>
      <trkpt lat="47.38937" lon="-0.42512">
        <ele>82</ele>
        <time>2013-02-13T08:49:20.710Z</time>
      </trkpt>
      <trkpt lat="47.38939" lon="-0.42511">
        <ele>82</ele>
        <time>2013-02-13T08:49:21.780Z</time>
      </trkpt>
      <trkpt lat="47.38945" lon="-0.42509">
        <ele>82</ele>
        <time>2013-02-13T08:49:23.710Z</time>
      </trkpt>
      <trkpt lat="47.38947" lon="-0.42508">
        <ele>82</ele>
        <time>2013-02-13T08:49:24.710Z</time>
      </trkpt>
      <trkpt lat="47.38948" lon="-0.42507">
        <ele>82</ele>
        <time>2013-02-13T08:49:25.710Z</time>
      </trkpt>
      <trkpt lat="47.38951" lon="-0.42506">
        <ele>82</ele>
        <time>2013-02-13T08:49:26.770Z</time>
      </trkpt>
      <trkpt lat="47.38955" lon="-0.42503">
        <ele>82</ele>
        <time>2013-02-13T08:49:28.710Z</time>
      </trkpt>
      <trkpt lat="47.38957" lon="-0.42501">
        <ele>82</ele>
        <time>2013-02-13T08:49:29.850Z</time>
      </trkpt>
      <trkpt lat="47.3896" lon="-0.42496">
        <ele>82</ele>
        <time>2013-02-13T08:49:31.710Z</time>
      </trkpt>
      <trkpt lat="47.38962" lon="-0.42494">
        <ele>82</ele>
        <time>2013-02-13T08:49:32.770Z</time>
      </trkpt>
      <trkpt lat="47.38963" lon="-0.42492">
        <ele>82</ele>
        <time>2013-02-13T08:49:33.680Z</time>
      </trkpt>
      <trkpt lat="47.38965" lon="-0.42489">
        <ele>82</ele>
        <time>2013-02-13T08:49:34.770Z</time>
      </trkpt>
      <trkpt lat="47.38969" lon="-0.42484">
        <ele>82</ele>
        <time>2013-02-13T08:49:36.690Z</time>
      </trkpt>
      <trkpt lat="47.38971" lon="-0.42482">
        <ele>82</ele>
        <time>2013-02-13T08:49:37.670Z</time>
      </trkpt>
      <trkpt lat="47.38973" lon="-0.4248">
        <ele>82</ele>
        <time>2013-02-13T08:49:38.710Z</time>
      </trkpt>
      <trkpt lat="47.38975" lon="-0.42478">
        <ele>81.9</ele>
        <time>2013-02-13T08:49:39.710Z</time>
      </trkpt>
      <trkpt lat="47.38976" lon="-0.42476">
        <ele>81.9</ele>
        <time>2013-02-13T08:49:40.710Z</time>
      </trkpt>
      <trkpt lat="47.38978" lon="-0.42475">
        <ele>81.8</ele>
        <time>2013-02-13T08:49:41.710Z</time>
      </trkpt>
      <trkpt lat="47.38981" lon="-0.42473">
        <ele>81.7</ele>
        <time>2013-02-13T08:49:42.710Z</time>
      </trkpt>
      <trkpt lat="47.38983" lon="-0.42471">
        <ele>81.6</ele>
        <time>2013-02-13T08:49:43.850Z</time>
      </trkpt>
      <trkpt lat="47.38985" lon="-0.42469">
        <ele>81.5</ele>
        <time>2013-02-13T08:49:44.860Z</time>
      </trkpt>
      <trkpt lat="47.38989" lon="-0.42467">
        <ele>81.3</ele>
        <time>2013-02-13T08:49:46.710Z</time>
      </trkpt>
      <trkpt lat="47.38992" lon="-0.42466">
        <ele>81.2</ele>
        <time>2013-02-13T08:49:47.770Z</time>
      </trkpt>
      <trkpt lat="47.38996" lon="-0.42464">
        <ele>81.1</ele>
        <time>2013-02-13T08:49:49.680Z</time>
      </trkpt>
      <trkpt lat="47.38999" lon="-0.42463">
        <ele>81</ele>
        <time>2013-02-13T08:49:51.770Z</time>
      </trkpt>
      <trkpt lat="47.39003" lon="-0.42459">
        <ele>81</ele>
        <time>2013-02-13T08:49:53.670Z</time>
      </trkpt>
      <trkpt lat="47.39005" lon="-0.42457">
        <ele>81</ele>
        <time>2013-02-13T08:49:54.670Z</time>
      </trkpt>
      <trkpt lat="47.39007" lon="-0.42456">
        <ele>81</ele>
        <time>2013-02-13T08:49:55.770Z</time>
      </trkpt>
      <trkpt lat="47.39009" lon="-0.42454">
        <ele>81</ele>
        <time>2013-02-13T08:49:56.940Z</time>
      </trkpt>
      <trkpt lat="47.39014" lon="-0.4245">
        <ele>81</ele>
        <time>2013-02-13T08:49:58.670Z</time>
      </trkpt>
      <trkpt lat="47.39016" lon="-0.42448">
        <ele>81</ele>
        <time>2013-02-13T08:49:59.700Z</time>
      </trkpt>
      <trkpt lat="47.39018" lon="-0.42447">
        <ele>81.5</ele>
        <time>2013-02-13T08:50:00.700Z</time>
      </trkpt>
      <trkpt lat="47.39022" lon="-0.42444">
        <ele>81</ele>
        <time>2013-02-13T08:50:02.700Z</time>
      </trkpt>
      <trkpt lat="47.39024" lon="-0.42442">
        <ele>81</ele>
        <time>2013-02-13T08:50:03.790Z</time>
      </trkpt>
      <trkpt lat="47.39029" lon="-0.42439">
        <ele>81</ele>
        <time>2013-02-13T08:50:05.670Z</time>
      </trkpt>
      <trkpt lat="47.39031" lon="-0.42437">
        <ele>80.9</ele>
        <time>2013-02-13T08:50:06.700Z</time>
      </trkpt>
      <trkpt lat="47.39035" lon="-0.42433">
        <ele>80.7</ele>
        <time>2013-02-13T08:50:08.700Z</time>
      </trkpt>
      <trkpt lat="47.39037" lon="-0.42432">
        <ele>80.7</ele>
        <time>2013-02-13T08:50:09.840Z</time>
      </trkpt>
      <trkpt lat="47.39039" lon="-0.4243">
        <ele>80.6</ele>
        <time>2013-02-13T08:50:10.770Z</time>
      </trkpt>
      <trkpt lat="47.39043" lon="-0.42427">
        <ele>80.5</ele>
        <time>2013-02-13T08:50:12.780Z</time>
      </trkpt>
      <trkpt lat="47.39046" lon="-0.42423">
        <ele>80.3</ele>
        <time>2013-02-13T08:50:14.780Z</time>
      </trkpt>
      <trkpt lat="47.3905" lon="-0.42419">
        <ele>80.2</ele>
        <time>2013-02-13T08:50:16.810Z</time>
      </trkpt>
      <trkpt lat="47.39053" lon="-0.42415">
        <ele>80.1</ele>
        <time>2013-02-13T08:50:18.770Z</time>
      </trkpt>
      <trkpt lat="47.39057" lon="-0.42411">
        <ele>80</ele>
        <time>2013-02-13T08:50:20.670Z</time>
      </trkpt>
      <trkpt lat="47.39059" lon="-0.42409">
        <ele>79.9</ele>
        <time>2013-02-13T08:50:21.770Z</time>
      </trkpt>
      <trkpt lat="47.39062" lon="-0.42404">
        <ele>79.9</ele>
        <time>2013-02-13T08:50:23.810Z</time>
      </trkpt>
      <trkpt lat="47.39066" lon="-0.42399">
        <ele>79.9</ele>
        <time>2013-02-13T08:50:25.770Z</time>
      </trkpt>
      <trkpt lat="47.39069" lon="-0.42395">
        <ele>79.9</ele>
        <time>2013-02-13T08:50:27.700Z</time>
      </trkpt>
      <trkpt lat="47.39071" lon="-0.42393">
        <ele>79.9</ele>
        <time>2013-02-13T08:50:29.420Z</time>
      </trkpt>
      <trkpt lat="47.39075" lon="-0.42388">
        <ele>80</ele>
        <time>2013-02-13T08:50:30.700Z</time>
      </trkpt>
      <trkpt lat="47.39076" lon="-0.42386">
        <ele>79.9</ele>
        <time>2013-02-13T08:50:31.700Z</time>
      </trkpt>
      <trkpt lat="47.39077" lon="-0.42385">
        <ele>79.9</ele>
        <time>2013-02-13T08:50:32.700Z</time>
      </trkpt>
      <trkpt lat="47.39079" lon="-0.42383">
        <ele>79.8</ele>
        <time>2013-02-13T08:50:34.200Z</time>
      </trkpt>
      <trkpt lat="47.39081" lon="-0.42379">
        <ele>79.7</ele>
        <time>2013-02-13T08:50:35.670Z</time>
      </trkpt>
      <trkpt lat="47.39083" lon="-0.42376">
        <ele>79.5</ele>
        <time>2013-02-13T08:50:36.670Z</time>
      </trkpt>
      <trkpt lat="47.39085" lon="-0.42374">
        <ele>79.4</ele>
        <time>2013-02-13T08:50:37.930Z</time>
      </trkpt>
      <trkpt lat="47.39088" lon="-0.42369">
        <ele>79.1</ele>
        <time>2013-02-13T08:50:39.700Z</time>
      </trkpt>
      <trkpt lat="47.39089" lon="-0.42367">
        <ele>79</ele>
        <time>2013-02-13T08:50:40.750Z</time>
      </trkpt>
      <trkpt lat="47.39092" lon="-0.42362">
        <ele>78.7</ele>
        <time>2013-02-13T08:50:42.680Z</time>
      </trkpt>
      <trkpt lat="47.39094" lon="-0.42359">
        <ele>78.6</ele>
        <time>2013-02-13T08:50:43.770Z</time>
      </trkpt>
      <trkpt lat="47.39098" lon="-0.42353">
        <ele>78.5</ele>
        <time>2013-02-13T08:50:45.670Z</time>
      </trkpt>
      <trkpt lat="47.391" lon="-0.42351">
        <ele>78.4</ele>
        <time>2013-02-13T08:50:46.780Z</time>
      </trkpt>
      <trkpt lat="47.39103" lon="-0.42347">
        <ele>78.1</ele>
        <time>2013-02-13T08:50:48.780Z</time>
      </trkpt>
      <trkpt lat="47.39107" lon="-0.42342">
        <ele>77.7</ele>
        <time>2013-02-13T08:50:50.750Z</time>
      </trkpt>
      <trkpt lat="47.3911" lon="-0.42336">
        <ele>77.2</ele>
        <time>2013-02-13T08:50:52.830Z</time>
      </trkpt>
      <trkpt lat="47.39112" lon="-0.42334">
        <ele>77</ele>
        <time>2013-02-13T08:50:53.770Z</time>
      </trkpt>
      <trkpt lat="47.39115" lon="-0.4233">
        <ele>77.1</ele>
        <time>2013-02-13T08:50:55.690Z</time>
      </trkpt>
      <trkpt lat="47.39116" lon="-0.42328">
        <ele>77.1</ele>
        <time>2013-02-13T08:50:56.690Z</time>
      </trkpt>
      <trkpt lat="47.39118" lon="-0.42326">
        <ele>77.1</ele>
        <time>2013-02-13T08:50:57.810Z</time>
      </trkpt>
      <trkpt lat="47.39121" lon="-0.42323">
        <ele>77</ele>
        <time>2013-02-13T08:50:59.700Z</time>
      </trkpt>
      <trkpt lat="47.39123" lon="-0.42321">
        <ele>80.5</ele>
        <time>2013-02-13T08:51:00.670Z</time>
      </trkpt>
      <trkpt lat="47.39125" lon="-0.42319">
        <ele>76.8</ele>
        <time>2013-02-13T08:51:01.760Z</time>
      </trkpt>
      <trkpt lat="47.39128" lon="-0.42315">
        <ele>76.5</ele>
        <time>2013-02-13T08:51:03.670Z</time>
      </trkpt>
      <trkpt lat="47.39129" lon="-0.42314">
        <ele>76.3</ele>
        <time>2013-02-13T08:51:04.760Z</time>
      </trkpt>
      <trkpt lat="47.39133" lon="-0.42312">
        <ele>76</ele>
        <time>2013-02-13T08:51:06.690Z</time>
      </trkpt>
      <trkpt lat="47.39135" lon="-0.42311">
        <ele>75.7</ele>
        <time>2013-02-13T08:51:07.770Z</time>
      </trkpt>
      <trkpt lat="47.39137" lon="-0.4231">
        <ele>75.5</ele>
        <time>2013-02-13T08:51:08.760Z</time>
      </trkpt>
      <trkpt lat="47.39141" lon="-0.42307">
        <ele>74.8</ele>
        <time>2013-02-13T08:51:10.690Z</time>
      </trkpt>
      <trkpt lat="47.39143" lon="-0.42306">
        <ele>74.5</ele>
        <time>2013-02-13T08:51:11.770Z</time>
      </trkpt>
      <trkpt lat="47.39147" lon="-0.42306">
        <ele>73.8</ele>
        <time>2013-02-13T08:51:13.670Z</time>
      </trkpt>
      <trkpt lat="47.39148" lon="-0.42303">
        <ele>73.7</ele>
        <time>2013-02-13T08:51:14.740Z</time>
      </trkpt>
      <trkpt lat="47.39148" lon="-0.42295">
        <ele>74.1</ele>
        <time>2013-02-13T08:51:16.680Z</time>
      </trkpt>
      <trkpt lat="47.39147" lon="-0.42291">
        <ele>74.3</ele>
        <time>2013-02-13T08:51:17.690Z</time>
      </trkpt>
      <trkpt lat="47.39146" lon="-0.42287">
        <ele>74.5</ele>
        <time>2013-02-13T08:51:18.760Z</time>
      </trkpt>
      <trkpt lat="47.39145" lon="-0.42279">
        <ele>74.7</ele>
        <time>2013-02-13T08:51:20.920Z</time>
      </trkpt>
      <trkpt lat="47.39144" lon="-0.42271">
        <ele>74.6</ele>
        <time>2013-02-13T08:51:22.770Z</time>
      </trkpt>
      <trkpt lat="47.39144" lon="-0.42264">
        <ele>74.3</ele>
        <time>2013-02-13T08:51:24.670Z</time>
      </trkpt>
      <trkpt lat="47.39144" lon="-0.42261">
        <ele>74.2</ele>
        <time>2013-02-13T08:51:25.690Z</time>
      </trkpt>
      <trkpt lat="47.39144" lon="-0.42257">
        <ele>74.1</ele>
        <time>2013-02-13T08:51:26.680Z</time>
      </trkpt>
      <trkpt lat="47.39144" lon="-0.42254">
        <ele>73.9</ele>
        <time>2013-02-13T08:51:27.770Z</time>
      </trkpt>
      <trkpt lat="47.39143" lon="-0.42247">
        <ele>73.8</ele>
        <time>2013-02-13T08:51:29.680Z</time>
      </trkpt>
      <trkpt lat="47.39143" lon="-0.42244">
        <ele>73.8</ele>
        <time>2013-02-13T08:51:30.860Z</time>
      </trkpt>
      <trkpt lat="47.39143" lon="-0.42237">
        <ele>73.8</ele>
        <time>2013-02-13T08:51:32.670Z</time>
      </trkpt>
      <trkpt lat="47.39142" lon="-0.42234">
        <ele>73.8</ele>
        <time>2013-02-13T08:51:33.740Z</time>
      </trkpt>
      <trkpt lat="47.39141" lon="-0.42227">
        <ele>73.8</ele>
        <time>2013-02-13T08:51:35.820Z</time>
      </trkpt>
      <trkpt lat="47.39141" lon="-0.42223">
        <ele>73.9</ele>
        <time>2013-02-13T08:51:36.690Z</time>
      </trkpt>
      <trkpt lat="47.3914" lon="-0.4222">
        <ele>73.7</ele>
        <time>2013-02-13T08:51:37.680Z</time>
      </trkpt>
      <trkpt lat="47.3914" lon="-0.42217">
        <ele>73.5</ele>
        <time>2013-02-13T08:51:38.690Z</time>
      </trkpt>
      <trkpt lat="47.3914" lon="-0.42213">
        <ele>73.3</ele>
        <time>2013-02-13T08:51:39.680Z</time>
      </trkpt>
      <trkpt lat="47.3914" lon="-0.4221">
        <ele>73.1</ele>
        <time>2013-02-13T08:51:40.780Z</time>
      </trkpt>
      <trkpt lat="47.3914" lon="-0.42203">
        <ele>72.6</ele>
        <time>2013-02-13T08:51:42.670Z</time>
      </trkpt>
      <trkpt lat="47.39139" lon="-0.42199">
        <ele>72.3</ele>
        <time>2013-02-13T08:51:43.670Z</time>
      </trkpt>
      <trkpt lat="47.39139" lon="-0.42196">
        <ele>72.1</ele>
        <time>2013-02-13T08:51:44.690Z</time>
      </trkpt>
      <trkpt lat="47.39139" lon="-0.42193">
        <ele>71.9</ele>
        <time>2013-02-13T08:51:45.770Z</time>
      </trkpt>
      <trkpt lat="47.39138" lon="-0.42186">
        <ele>71.7</ele>
        <time>2013-02-13T08:51:47.670Z</time>
      </trkpt>
      <trkpt lat="47.39138" lon="-0.42182">
        <ele>71.6</ele>
        <time>2013-02-13T08:51:48.820Z</time>
      </trkpt>
      <trkpt lat="47.39137" lon="-0.42176">
        <ele>71.4</ele>
        <time>2013-02-13T08:51:50.750Z</time>
      </trkpt>
      <trkpt lat="47.39137" lon="-0.4217">
        <ele>71.3</ele>
        <time>2013-02-13T08:51:52.690Z</time>
      </trkpt>
      <trkpt lat="47.39136" lon="-0.42166">
        <ele>71.2</ele>
        <time>2013-02-13T08:51:53.680Z</time>
      </trkpt>
      <trkpt lat="47.39136" lon="-0.42163">
        <ele>71.1</ele>
        <time>2013-02-13T08:51:54.680Z</time>
      </trkpt>
      <trkpt lat="47.39136" lon="-0.42159">
        <ele>71</ele>
        <time>2013-02-13T08:51:55.770Z</time>
      </trkpt>
      <trkpt lat="47.39135" lon="-0.42152">
        <ele>70.7</ele>
        <time>2013-02-13T08:51:57.680Z</time>
      </trkpt>
      <trkpt lat="47.39135" lon="-0.42148">
        <ele>70.6</ele>
        <time>2013-02-13T08:51:58.680Z</time>
      </trkpt>
      <trkpt lat="47.39134" lon="-0.42145">
        <ele>70.5</ele>
        <time>2013-02-13T08:51:59.730Z</time>
      </trkpt>
      <trkpt lat="47.39134" lon="-0.42138">
        <ele>74.3</ele>
        <time>2013-02-13T08:52:01.670Z</time>
      </trkpt>
      <trkpt lat="47.39133" lon="-0.42135">
        <ele>70.4</ele>
        <time>2013-02-13T08:52:02.770Z</time>
      </trkpt>
      <trkpt lat="47.39133" lon="-0.42128">
        <ele>70.4</ele>
        <time>2013-02-13T08:52:04.670Z</time>
      </trkpt>
      <trkpt lat="47.39132" lon="-0.42124">
        <ele>70.4</ele>
        <time>2013-02-13T08:52:05.730Z</time>
      </trkpt>
      <trkpt lat="47.39132" lon="-0.42117">
        <ele>70.3</ele>
        <time>2013-02-13T08:52:07.670Z</time>
      </trkpt>
      <trkpt lat="47.39131" lon="-0.42113">
        <ele>70.3</ele>
        <time>2013-02-13T08:52:08.670Z</time>
      </trkpt>
      <trkpt lat="47.39131" lon="-0.4211">
        <ele>70.3</ele>
        <time>2013-02-13T08:52:09.690Z</time>
      </trkpt>
      <trkpt lat="47.39131" lon="-0.42107">
        <ele>70.2</ele>
        <time>2013-02-13T08:52:10.670Z</time>
      </trkpt>
      <trkpt lat="47.3913" lon="-0.42104">
        <ele>70</ele>
        <time>2013-02-13T08:52:11.790Z</time>
      </trkpt>
      <trkpt lat="47.3913" lon="-0.42097">
        <ele>69.8</ele>
        <time>2013-02-13T08:52:13.790Z</time>
      </trkpt>
      <trkpt lat="47.3913" lon="-0.42089">
        <ele>69.5</ele>
        <time>2013-02-13T08:52:15.790Z</time>
      </trkpt>
      <trkpt lat="47.3913" lon="-0.42081">
        <ele>69.3</ele>
        <time>2013-02-13T08:52:17.670Z</time>
      </trkpt>
      <trkpt lat="47.3913" lon="-0.42077">
        <ele>69.3</ele>
        <time>2013-02-13T08:52:18.770Z</time>
      </trkpt>
      <trkpt lat="47.39131" lon="-0.4207">
        <ele>69.3</ele>
        <time>2013-02-13T08:52:20.670Z</time>
      </trkpt>
      <trkpt lat="47.39131" lon="-0.42066">
        <ele>69.3</ele>
        <time>2013-02-13T08:52:21.770Z</time>
      </trkpt>
      <trkpt lat="47.39131" lon="-0.42063">
        <ele>69.3</ele>
        <time>2013-02-13T08:52:22.680Z</time>
      </trkpt>
      <trkpt lat="47.39131" lon="-0.4206">
        <ele>69.3</ele>
        <time>2013-02-13T08:52:23.770Z</time>
      </trkpt>
      <trkpt lat="47.39131" lon="-0.42056">
        <ele>69.3</ele>
        <time>2013-02-13T08:52:24.670Z</time>
      </trkpt>
      <trkpt lat="47.39132" lon="-0.42052">
        <ele>69.3</ele>
        <time>2013-02-13T08:52:25.770Z</time>
      </trkpt>
      <trkpt lat="47.39131" lon="-0.42048">
        <ele>69.5</ele>
        <time>2013-02-13T08:52:26.670Z</time>
      </trkpt>
      <trkpt lat="47.39131" lon="-0.42045">
        <ele>69.6</ele>
        <time>2013-02-13T08:52:27.770Z</time>
      </trkpt>
      <trkpt lat="47.39131" lon="-0.42038">
        <ele>69.7</ele>
        <time>2013-02-13T08:52:29.770Z</time>
      </trkpt>
      <trkpt lat="47.39131" lon="-0.42035">
        <ele>69.8</ele>
        <time>2013-02-13T08:52:30.670Z</time>
      </trkpt>
      <trkpt lat="47.39131" lon="-0.42031">
        <ele>69.9</ele>
        <time>2013-02-13T08:52:31.860Z</time>
      </trkpt>
      <trkpt lat="47.39131" lon="-0.42025">
        <ele>70.1</ele>
        <time>2013-02-13T08:52:33.680Z</time>
      </trkpt>
      <trkpt lat="47.39131" lon="-0.42021">
        <ele>70.2</ele>
        <time>2013-02-13T08:52:34.670Z</time>
      </trkpt>
      <trkpt lat="47.39132" lon="-0.42017">
        <ele>70.4</ele>
        <time>2013-02-13T08:52:35.770Z</time>
      </trkpt>
      <trkpt lat="47.39132" lon="-0.42014">
        <ele>70.5</ele>
        <time>2013-02-13T08:52:36.670Z</time>
      </trkpt>
      <trkpt lat="47.39132" lon="-0.4201">
        <ele>70.6</ele>
        <time>2013-02-13T08:52:37.770Z</time>
      </trkpt>
      <trkpt lat="47.39132" lon="-0.42007">
        <ele>70.7</ele>
        <time>2013-02-13T08:52:38.670Z</time>
      </trkpt>
      <trkpt lat="47.39133" lon="-0.42004">
        <ele>70.9</ele>
        <time>2013-02-13T08:52:39.720Z</time>
      </trkpt>
      <trkpt lat="47.39133" lon="-0.42001">
        <ele>71</ele>
        <time>2013-02-13T08:52:40.670Z</time>
      </trkpt>
      <trkpt lat="47.39133" lon="-0.41998">
        <ele>71.1</ele>
        <time>2013-02-13T08:52:41.770Z</time>
      </trkpt>
      <trkpt lat="47.39133" lon="-0.41994">
        <ele>71.3</ele>
        <time>2013-02-13T08:52:42.880Z</time>
      </trkpt>
      <trkpt lat="47.39133" lon="-0.41992">
        <ele>71.4</ele>
        <time>2013-02-13T08:52:43.670Z</time>
      </trkpt>
      <trkpt lat="47.39133" lon="-0.41988">
        <ele>71.5</ele>
        <time>2013-02-13T08:52:44.670Z</time>
      </trkpt>
      <trkpt lat="47.39133" lon="-0.41985">
        <ele>71.7</ele>
        <time>2013-02-13T08:52:45.780Z</time>
      </trkpt>
      <trkpt lat="47.39134" lon="-0.41978">
        <ele>71.9</ele>
        <time>2013-02-13T08:52:47.670Z</time>
      </trkpt>
      <trkpt lat="47.39134" lon="-0.41975">
        <ele>72.1</ele>
        <time>2013-02-13T08:52:48.780Z</time>
      </trkpt>
      <trkpt lat="47.39134" lon="-0.41968">
        <ele>72.3</ele>
        <time>2013-02-13T08:52:50.680Z</time>
      </trkpt>
      <trkpt lat="47.39135" lon="-0.41962">
        <ele>72.6</ele>
        <time>2013-02-13T08:52:52.760Z</time>
      </trkpt>
      <trkpt lat="47.39135" lon="-0.41959">
        <ele>72.7</ele>
        <time>2013-02-13T08:52:53.680Z</time>
      </trkpt>
      <trkpt lat="47.39135" lon="-0.41956">
        <ele>72.8</ele>
        <time>2013-02-13T08:52:54.770Z</time>
      </trkpt>
      <trkpt lat="47.39135" lon="-0.41949">
        <ele>73.1</ele>
        <time>2013-02-13T08:52:56.720Z</time>
      </trkpt>
      <trkpt lat="47.39135" lon="-0.41946">
        <ele>73.2</ele>
        <time>2013-02-13T08:52:57.670Z</time>
      </trkpt>
      <trkpt lat="47.39135" lon="-0.41943">
        <ele>73.3</ele>
        <time>2013-02-13T08:52:58.760Z</time>
      </trkpt>
      <trkpt lat="47.39136" lon="-0.41939">
        <ele>73.4</ele>
        <time>2013-02-13T08:52:59.700Z</time>
      </trkpt>
      <trkpt lat="47.39136" lon="-0.41936">
        <ele>75.6</ele>
        <time>2013-02-13T08:53:00.670Z</time>
      </trkpt>
      <trkpt lat="47.39136" lon="-0.41933">
        <ele>73.6</ele>
        <time>2013-02-13T08:53:01.780Z</time>
      </trkpt>
      <trkpt lat="47.39136" lon="-0.41926">
        <ele>73.8</ele>
        <time>2013-02-13T08:53:03.670Z</time>
      </trkpt>
      <trkpt lat="47.39136" lon="-0.41923">
        <ele>73.9</ele>
        <time>2013-02-13T08:53:04.760Z</time>
      </trkpt>
      <trkpt lat="47.39136" lon="-0.4192">
        <ele>74</ele>
        <time>2013-02-13T08:53:05.670Z</time>
      </trkpt>
      <trkpt lat="47.39136" lon="-0.41916">
        <ele>74.1</ele>
        <time>2013-02-13T08:53:06.670Z</time>
      </trkpt>
      <trkpt lat="47.39137" lon="-0.41913">
        <ele>74.1</ele>
        <time>2013-02-13T08:53:07.780Z</time>
      </trkpt>
      <trkpt lat="47.39137" lon="-0.41907">
        <ele>74.1</ele>
        <time>2013-02-13T08:53:09.760Z</time>
      </trkpt>
      <trkpt lat="47.39137" lon="-0.41904">
        <ele>74.1</ele>
        <time>2013-02-13T08:53:10.670Z</time>
      </trkpt>
      <trkpt lat="47.39137" lon="-0.419">
        <ele>74.1</ele>
        <time>2013-02-13T08:53:11.860Z</time>
      </trkpt>
      <trkpt lat="47.39138" lon="-0.41894">
        <ele>74.1</ele>
        <time>2013-02-13T08:53:13.680Z</time>
      </trkpt>
      <trkpt lat="47.39138" lon="-0.41891">
        <ele>74.1</ele>
        <time>2013-02-13T08:53:14.760Z</time>
      </trkpt>
      <trkpt lat="47.39139" lon="-0.41887">
        <ele>74.1</ele>
        <time>2013-02-13T08:53:15.670Z</time>
      </trkpt>
      <trkpt lat="47.39139" lon="-0.41884">
        <ele>74.2</ele>
        <time>2013-02-13T08:53:16.800Z</time>
      </trkpt>
      <trkpt lat="47.3914" lon="-0.41878">
        <ele>74.4</ele>
        <time>2013-02-13T08:53:18.780Z</time>
      </trkpt>
      <trkpt lat="47.39141" lon="-0.41871">
        <ele>74.5</ele>
        <time>2013-02-13T08:53:20.680Z</time>
      </trkpt>
      <trkpt lat="47.39142" lon="-0.41868">
        <ele>74.6</ele>
        <time>2013-02-13T08:53:21.890Z</time>
      </trkpt>
      <trkpt lat="47.39143" lon="-0.41862">
        <ele>74.7</ele>
        <time>2013-02-13T08:53:23.760Z</time>
      </trkpt>
      <trkpt lat="47.39143" lon="-0.41858">
        <ele>74.7</ele>
        <time>2013-02-13T08:53:24.670Z</time>
      </trkpt>
      <trkpt lat="47.39144" lon="-0.41855">
        <ele>74.7</ele>
        <time>2013-02-13T08:53:25.750Z</time>
      </trkpt>
      <trkpt lat="47.39144" lon="-0.41852">
        <ele>74.6</ele>
        <time>2013-02-13T08:53:26.670Z</time>
      </trkpt>
      <trkpt lat="47.39145" lon="-0.41848">
        <ele>74.6</ele>
        <time>2013-02-13T08:53:27.850Z</time>
      </trkpt>
      <trkpt lat="47.39145" lon="-0.41841">
        <ele>74.5</ele>
        <time>2013-02-13T08:53:29.670Z</time>
      </trkpt>
      <trkpt lat="47.39146" lon="-0.41838">
        <ele>74.5</ele>
        <time>2013-02-13T08:53:30.710Z</time>
      </trkpt>
      <trkpt lat="47.39146" lon="-0.41834">
        <ele>74.5</ele>
        <time>2013-02-13T08:53:31.670Z</time>
      </trkpt>
      <trkpt lat="47.39147" lon="-0.41831">
        <ele>74.4</ele>
        <time>2013-02-13T08:53:32.880Z</time>
      </trkpt>
      <trkpt lat="47.39149" lon="-0.41825">
        <ele>74.3</ele>
        <time>2013-02-13T08:53:34.790Z</time>
      </trkpt>
      <trkpt lat="47.39149" lon="-0.41822">
        <ele>74.3</ele>
        <time>2013-02-13T08:53:35.750Z</time>
      </trkpt>
      <trkpt lat="47.3915" lon="-0.4182">
        <ele>74.2</ele>
        <time>2013-02-13T08:53:36.670Z</time>
      </trkpt>
      <trkpt lat="47.3915" lon="-0.41816">
        <ele>74.2</ele>
        <time>2013-02-13T08:53:37.750Z</time>
      </trkpt>
      <trkpt lat="47.3915" lon="-0.41813">
        <ele>74.2</ele>
        <time>2013-02-13T08:53:38.670Z</time>
      </trkpt>
      <trkpt lat="47.39151" lon="-0.4181">
        <ele>74.1</ele>
        <time>2013-02-13T08:53:39.750Z</time>
      </trkpt>
      <trkpt lat="47.39152" lon="-0.41807">
        <ele>74.1</ele>
        <time>2013-02-13T08:53:40.670Z</time>
      </trkpt>
      <trkpt lat="47.39152" lon="-0.41804">
        <ele>74.1</ele>
        <time>2013-02-13T08:53:41.750Z</time>
      </trkpt>
      <trkpt lat="47.39152" lon="-0.418">
        <ele>74</ele>
        <time>2013-02-13T08:53:42.670Z</time>
      </trkpt>
      <trkpt lat="47.39152" lon="-0.41796">
        <ele>74.1</ele>
        <time>2013-02-13T08:53:43.850Z</time>
      </trkpt>
      <trkpt lat="47.39153" lon="-0.41789">
        <ele>74</ele>
        <time>2013-02-13T08:53:45.670Z</time>
      </trkpt>
      <trkpt lat="47.39153" lon="-0.41786">
        <ele>74</ele>
        <time>2013-02-13T08:53:46.750Z</time>
      </trkpt>
      <trkpt lat="47.39154" lon="-0.41783">
        <ele>73.9</ele>
        <time>2013-02-13T08:53:47.710Z</time>
      </trkpt>
      <trkpt lat="47.39154" lon="-0.41779">
        <ele>73.9</ele>
        <time>2013-02-13T08:53:48.850Z</time>
      </trkpt>
      <trkpt lat="47.39155" lon="-0.41771">
        <ele>74</ele>
        <time>2013-02-13T08:53:50.680Z</time>
      </trkpt>
      <trkpt lat="47.39156" lon="-0.41768">
        <ele>74</ele>
        <time>2013-02-13T08:53:51.750Z</time>
      </trkpt>
      <trkpt lat="47.39156" lon="-0.41764">
        <ele>74.1</ele>
        <time>2013-02-13T08:53:52.670Z</time>
      </trkpt>
      <trkpt lat="47.39157" lon="-0.4176">
        <ele>74.1</ele>
        <time>2013-02-13T08:53:53.750Z</time>
      </trkpt>
      <trkpt lat="47.39157" lon="-0.41757">
        <ele>74.2</ele>
        <time>2013-02-13T08:53:54.670Z</time>
      </trkpt>
      <trkpt lat="47.39158" lon="-0.41754">
        <ele>74.2</ele>
        <time>2013-02-13T08:53:55.750Z</time>
      </trkpt>
      <trkpt lat="47.39158" lon="-0.41751">
        <ele>74.3</ele>
        <time>2013-02-13T08:53:56.670Z</time>
      </trkpt>
      <trkpt lat="47.39158" lon="-0.41748">
        <ele>74.3</ele>
        <time>2013-02-13T08:53:57.780Z</time>
      </trkpt>
      <trkpt lat="47.39159" lon="-0.41741">
        <ele>74.3</ele>
        <time>2013-02-13T08:53:59.700Z</time>
      </trkpt>
      <trkpt lat="47.3916" lon="-0.41734">
        <ele>77</ele>
        <time>2013-02-13T08:54:01.780Z</time>
      </trkpt>
      <trkpt lat="47.39164" lon="-0.4173">
        <ele>74.1</ele>
        <time>2013-02-13T08:54:03.670Z</time>
      </trkpt>
      <trkpt lat="47.39166" lon="-0.41729">
        <ele>74</ele>
        <time>2013-02-13T08:54:04.700Z</time>
      </trkpt>
      <trkpt lat="47.39168" lon="-0.41728">
        <ele>73.9</ele>
        <time>2013-02-13T08:54:05.670Z</time>
      </trkpt>
      <trkpt lat="47.39171" lon="-0.41728">
        <ele>73.7</ele>
        <time>2013-02-13T08:54:06.780Z</time>
      </trkpt>
      <trkpt lat="47.39175" lon="-0.41729">
        <ele>73.4</ele>
        <time>2013-02-13T08:54:08.670Z</time>
      </trkpt>
      <trkpt lat="47.39177" lon="-0.41729">
        <ele>73.2</ele>
        <time>2013-02-13T08:54:09.780Z</time>
      </trkpt>
      <trkpt lat="47.39182" lon="-0.4173">
        <ele>72.9</ele>
        <time>2013-02-13T08:54:11.780Z</time>
      </trkpt>
      <trkpt lat="47.39186" lon="-0.41731">
        <ele>72.6</ele>
        <time>2013-02-13T08:54:13.670Z</time>
      </trkpt>
      <trkpt lat="47.39189" lon="-0.41731">
        <ele>72.4</ele>
        <time>2013-02-13T08:54:14.870Z</time>
      </trkpt>
      <trkpt lat="47.39193" lon="-0.41733">
        <ele>72.1</ele>
        <time>2013-02-13T08:54:16.700Z</time>
      </trkpt>
      <trkpt lat="47.39196" lon="-0.41734">
        <ele>72</ele>
        <time>2013-02-13T08:54:17.670Z</time>
      </trkpt>
      <trkpt lat="47.39199" lon="-0.41734">
        <ele>71.9</ele>
        <time>2013-02-13T08:54:18.740Z</time>
      </trkpt>
      <trkpt lat="47.39202" lon="-0.41735">
        <ele>71.9</ele>
        <time>2013-02-13T08:54:19.670Z</time>
      </trkpt>
      <trkpt lat="47.39204" lon="-0.41736">
        <ele>71.8</ele>
        <time>2013-02-13T08:54:20.740Z</time>
      </trkpt>
      <trkpt lat="47.39207" lon="-0.41736">
        <ele>71.8</ele>
        <time>2013-02-13T08:54:21.680Z</time>
      </trkpt>
      <trkpt lat="47.39209" lon="-0.41736">
        <ele>71.7</ele>
        <time>2013-02-13T08:54:22.740Z</time>
      </trkpt>
      <trkpt lat="47.39212" lon="-0.41737">
        <ele>71.7</ele>
        <time>2013-02-13T08:54:23.670Z</time>
      </trkpt>
      <trkpt lat="47.39214" lon="-0.41738">
        <ele>71.6</ele>
        <time>2013-02-13T08:54:24.790Z</time>
      </trkpt>
      <trkpt lat="47.39219" lon="-0.41739">
        <ele>71.5</ele>
        <time>2013-02-13T08:54:26.670Z</time>
      </trkpt>
      <trkpt lat="47.39223" lon="-0.4174">
        <ele>71.4</ele>
        <time>2013-02-13T08:54:28.670Z</time>
      </trkpt>
      <trkpt lat="47.39225" lon="-0.41741">
        <ele>71.3</ele>
        <time>2013-02-13T08:54:29.780Z</time>
      </trkpt>
      <trkpt lat="47.3923" lon="-0.41741">
        <ele>71.3</ele>
        <time>2013-02-13T08:54:31.670Z</time>
      </trkpt>
      <trkpt lat="47.39232" lon="-0.41742">
        <ele>71.3</ele>
        <time>2013-02-13T08:54:32.770Z</time>
      </trkpt>
      <trkpt lat="47.39234" lon="-0.41742">
        <ele>71.3</ele>
        <time>2013-02-13T08:54:33.810Z</time>
      </trkpt>
      <trkpt lat="47.39238" lon="-0.41744">
        <ele>71.2</ele>
        <time>2013-02-13T08:54:35.740Z</time>
      </trkpt>
      <trkpt lat="47.39239" lon="-0.41745">
        <ele>71.2</ele>
        <time>2013-02-13T08:54:36.670Z</time>
      </trkpt>
      <trkpt lat="47.39242" lon="-0.41746">
        <ele>71.2</ele>
        <time>2013-02-13T08:54:37.740Z</time>
      </trkpt>
      <trkpt lat="47.39244" lon="-0.41746">
        <ele>71.1</ele>
        <time>2013-02-13T08:54:38.680Z</time>
      </trkpt>
      <trkpt lat="47.39248" lon="-0.41749">
        <ele>71</ele>
        <time>2013-02-13T08:54:40.670Z</time>
      </trkpt>
      <trkpt lat="47.3925" lon="-0.4175">
        <ele>71</ele>
        <time>2013-02-13T08:54:41.740Z</time>
      </trkpt>
      <trkpt lat="47.39252" lon="-0.41751">
        <ele>71</ele>
        <time>2013-02-13T08:54:42.670Z</time>
      </trkpt>
      <trkpt lat="47.39254" lon="-0.41753">
        <ele>70.9</ele>
        <time>2013-02-13T08:54:43.770Z</time>
      </trkpt>
      <trkpt lat="47.39256" lon="-0.41754">
        <ele>70.9</ele>
        <time>2013-02-13T08:54:44.740Z</time>
      </trkpt>
      <trkpt lat="47.39258" lon="-0.41754">
        <ele>70.9</ele>
        <time>2013-02-13T08:54:45.670Z</time>
      </trkpt>
      <trkpt lat="47.39259" lon="-0.41755">
        <ele>70.8</ele>
        <time>2013-02-13T08:54:46.730Z</time>
      </trkpt>
      <trkpt lat="47.39261" lon="-0.41755">
        <ele>70.8</ele>
        <time>2013-02-13T08:54:47.670Z</time>
      </trkpt>
      <trkpt lat="47.39263" lon="-0.41755">
        <ele>70.8</ele>
        <time>2013-02-13T08:54:48.730Z</time>
      </trkpt>
      <trkpt lat="47.39266" lon="-0.41756">
        <ele>70.8</ele>
        <time>2013-02-13T08:54:49.790Z</time>
      </trkpt>
      <trkpt lat="47.39271" lon="-0.41758">
        <ele>70.7</ele>
        <time>2013-02-13T08:54:51.670Z</time>
      </trkpt>
      <trkpt lat="47.39273" lon="-0.41759">
        <ele>70.7</ele>
        <time>2013-02-13T08:54:52.780Z</time>
      </trkpt>
      <trkpt lat="47.39277" lon="-0.41761">
        <ele>70.6</ele>
        <time>2013-02-13T08:54:54.730Z</time>
      </trkpt>
      <trkpt lat="47.3928" lon="-0.41762">
        <ele>70.6</ele>
        <time>2013-02-13T08:54:55.690Z</time>
      </trkpt>
      <trkpt lat="47.39282" lon="-0.41763">
        <ele>70.5</ele>
        <time>2013-02-13T08:54:56.770Z</time>
      </trkpt>
      <trkpt lat="47.39287" lon="-0.41765">
        <ele>70.5</ele>
        <time>2013-02-13T08:54:58.670Z</time>
      </trkpt>
      <trkpt lat="47.3929" lon="-0.41765">
        <ele>70.4</ele>
        <time>2013-02-13T08:54:59.700Z</time>
      </trkpt>
      <trkpt lat="47.39292" lon="-0.41766">
        <ele>78.9</ele>
        <time>2013-02-13T08:55:00.770Z</time>
      </trkpt>
      <trkpt lat="47.39297" lon="-0.41766">
        <ele>70.4</ele>
        <time>2013-02-13T08:55:02.670Z</time>
      </trkpt>
      <trkpt lat="47.39299" lon="-0.41767">
        <ele>70.4</ele>
        <time>2013-02-13T08:55:03.670Z</time>
      </trkpt>
      <trkpt lat="47.39301" lon="-0.41767">
        <ele>70.4</ele>
        <time>2013-02-13T08:55:04.730Z</time>
      </trkpt>
      <trkpt lat="47.39303" lon="-0.41768">
        <ele>70.4</ele>
        <time>2013-02-13T08:55:05.740Z</time>
      </trkpt>
      <trkpt lat="47.39305" lon="-0.41769">
        <ele>70.3</ele>
        <time>2013-02-13T08:55:06.680Z</time>
      </trkpt>
      <trkpt lat="47.39308" lon="-0.4177">
        <ele>70.4</ele>
        <time>2013-02-13T08:55:07.670Z</time>
      </trkpt>
      <trkpt lat="47.3931" lon="-0.41771">
        <ele>70.4</ele>
        <time>2013-02-13T08:55:08.670Z</time>
      </trkpt>
      <trkpt lat="47.39313" lon="-0.41771">
        <ele>70.5</ele>
        <time>2013-02-13T08:55:09.670Z</time>
      </trkpt>
      <trkpt lat="47.39315" lon="-0.41772">
        <ele>70.6</ele>
        <time>2013-02-13T08:55:10.770Z</time>
      </trkpt>
      <trkpt lat="47.39318" lon="-0.41772">
        <ele>70.7</ele>
        <time>2013-02-13T08:55:11.670Z</time>
      </trkpt>
      <trkpt lat="47.39321" lon="-0.41772">
        <ele>70.8</ele>
        <time>2013-02-13T08:55:12.680Z</time>
      </trkpt>
      <trkpt lat="47.39325" lon="-0.41772">
        <ele>70.9</ele>
        <time>2013-02-13T08:55:13.670Z</time>
      </trkpt>
      <trkpt lat="47.39328" lon="-0.41773">
        <ele>71</ele>
        <time>2013-02-13T08:55:14.670Z</time>
      </trkpt>
      <trkpt lat="47.3933" lon="-0.41773">
        <ele>71.1</ele>
        <time>2013-02-13T08:55:15.670Z</time>
      </trkpt>
      <trkpt lat="47.39332" lon="-0.41774">
        <ele>71.1</ele>
        <time>2013-02-13T08:55:16.680Z</time>
      </trkpt>
      <trkpt lat="47.39334" lon="-0.41774">
        <ele>71.1</ele>
        <time>2013-02-13T08:55:17.730Z</time>
      </trkpt>
      <trkpt lat="47.39336" lon="-0.41775">
        <ele>71.1</ele>
        <time>2013-02-13T08:55:18.730Z</time>
      </trkpt>
      <trkpt lat="47.39339" lon="-0.41775">
        <ele>71.1</ele>
        <time>2013-02-13T08:55:19.730Z</time>
      </trkpt>
      <trkpt lat="47.39341" lon="-0.41775">
        <ele>71.1</ele>
        <time>2013-02-13T08:55:20.730Z</time>
      </trkpt>
      <trkpt lat="47.39343" lon="-0.41776">
        <ele>71.1</ele>
        <time>2013-02-13T08:55:21.770Z</time>
      </trkpt>
      <trkpt lat="47.39346" lon="-0.41778">
        <ele>71</ele>
        <time>2013-02-13T08:55:23.860Z</time>
      </trkpt>
      <trkpt lat="47.39348" lon="-0.41779">
        <ele>71</ele>
        <time>2013-02-13T08:55:24.780Z</time>
      </trkpt>
      <trkpt lat="47.39353" lon="-0.41778">
        <ele>71</ele>
        <time>2013-02-13T08:55:26.670Z</time>
      </trkpt>
      <trkpt lat="47.39356" lon="-0.41778">
        <ele>71</ele>
        <time>2013-02-13T08:55:27.670Z</time>
      </trkpt>
      <trkpt lat="47.39359" lon="-0.4178">
        <ele>70.9</ele>
        <time>2013-02-13T08:55:28.670Z</time>
      </trkpt>
      <trkpt lat="47.39361" lon="-0.41781">
        <ele>70.9</ele>
        <time>2013-02-13T08:55:29.680Z</time>
      </trkpt>
      <trkpt lat="47.39363" lon="-0.41782">
        <ele>70.8</ele>
        <time>2013-02-13T08:55:30.780Z</time>
      </trkpt>
      <trkpt lat="47.39367" lon="-0.41783">
        <ele>70.8</ele>
        <time>2013-02-13T08:55:32.780Z</time>
      </trkpt>
      <trkpt lat="47.39371" lon="-0.41784">
        <ele>70.8</ele>
        <time>2013-02-13T08:55:34.770Z</time>
      </trkpt>
      <trkpt lat="47.39375" lon="-0.41786">
        <ele>70.7</ele>
        <time>2013-02-13T08:55:36.670Z</time>
      </trkpt>
      <trkpt lat="47.39377" lon="-0.41786">
        <ele>70.7</ele>
        <time>2013-02-13T08:55:37.760Z</time>
      </trkpt>
      <trkpt lat="47.39379" lon="-0.41786">
        <ele>70.7</ele>
        <time>2013-02-13T08:55:38.670Z</time>
      </trkpt>
      <trkpt lat="47.39381" lon="-0.41788">
        <ele>70.6</ele>
        <time>2013-02-13T08:55:39.670Z</time>
      </trkpt>
      <trkpt lat="47.39383" lon="-0.41789">
        <ele>70.6</ele>
        <time>2013-02-13T08:55:40.670Z</time>
      </trkpt>
      <trkpt lat="47.39386" lon="-0.41789">
        <ele>70.6</ele>
        <time>2013-02-13T08:55:41.670Z</time>
      </trkpt>
      <trkpt lat="47.39389" lon="-0.41789">
        <ele>70.6</ele>
        <time>2013-02-13T08:55:42.670Z</time>
      </trkpt>
      <trkpt lat="47.3939" lon="-0.41789">
        <ele>70.5</ele>
        <time>2013-02-13T08:55:43.670Z</time>
      </trkpt>
      <trkpt lat="47.39392" lon="-0.41789">
        <ele>70.5</ele>
        <time>2013-02-13T08:55:44.670Z</time>
      </trkpt>
      <trkpt lat="47.39395" lon="-0.41789">
        <ele>70.4</ele>
        <time>2013-02-13T08:55:45.670Z</time>
      </trkpt>
      <trkpt lat="47.39398" lon="-0.41789">
        <ele>70.3</ele>
        <time>2013-02-13T08:55:46.680Z</time>
      </trkpt>
      <trkpt lat="47.39401" lon="-0.41789">
        <ele>70.2</ele>
        <time>2013-02-13T08:55:47.770Z</time>
      </trkpt>
      <trkpt lat="47.39405" lon="-0.41788">
        <ele>70</ele>
        <time>2013-02-13T08:55:49.760Z</time>
      </trkpt>
      <trkpt lat="47.3941" lon="-0.4179">
        <ele>69.8</ele>
        <time>2013-02-13T08:55:51.770Z</time>
      </trkpt>
      <trkpt lat="47.39412" lon="-0.41791">
        <ele>69.7</ele>
        <time>2013-02-13T08:55:52.860Z</time>
      </trkpt>
      <trkpt lat="47.39417" lon="-0.41792">
        <ele>69.5</ele>
        <time>2013-02-13T08:55:54.790Z</time>
      </trkpt>
      <trkpt lat="47.39422" lon="-0.41793">
        <ele>69.2</ele>
        <time>2013-02-13T08:55:56.670Z</time>
      </trkpt>
      <trkpt lat="47.39424" lon="-0.41794">
        <ele>69</ele>
        <time>2013-02-13T08:55:57.670Z</time>
      </trkpt>
      <trkpt lat="47.39427" lon="-0.41794">
        <ele>68.9</ele>
        <time>2013-02-13T08:55:58.670Z</time>
      </trkpt>
      <trkpt lat="47.39428" lon="-0.41795">
        <ele>68.8</ele>
        <time>2013-02-13T08:55:59.750Z</time>
      </trkpt>
      <trkpt lat="47.39433" lon="-0.41796">
        <ele>81.2</ele>
        <time>2013-02-13T08:56:01.710Z</time>
      </trkpt>
      <trkpt lat="47.39435" lon="-0.41796">
        <ele>68.5</ele>
        <time>2013-02-13T08:56:02.720Z</time>
      </trkpt>
      <trkpt lat="47.39439" lon="-0.41796">
        <ele>68.3</ele>
        <time>2013-02-13T08:56:03.780Z</time>
      </trkpt>
      <trkpt lat="47.39443" lon="-0.41797">
        <ele>68.1</ele>
        <time>2013-02-13T08:56:05.850Z</time>
      </trkpt>
      <trkpt lat="47.39444" lon="-0.41798">
        <ele>68</ele>
        <time>2013-02-13T08:56:06.790Z</time>
      </trkpt>
      <trkpt lat="47.39453" lon="-0.41799">
        <ele>67.4</ele>
        <time>2013-02-13T08:56:08.670Z</time>
      </trkpt>
      <trkpt lat="47.39455" lon="-0.41799">
        <ele>67.2</ele>
        <time>2013-02-13T08:56:10.220Z</time>
      </trkpt>
      <trkpt lat="47.3946" lon="-0.41799">
        <ele>66.9</ele>
        <time>2013-02-13T08:56:11.700Z</time>
      </trkpt>
      <trkpt lat="47.39462" lon="-0.418">
        <ele>66.7</ele>
        <time>2013-02-13T08:56:12.710Z</time>
      </trkpt>
      <trkpt lat="47.39464" lon="-0.418">
        <ele>66.6</ele>
        <time>2013-02-13T08:56:13.710Z</time>
      </trkpt>
      <trkpt lat="47.39467" lon="-0.418">
        <ele>66.4</ele>
        <time>2013-02-13T08:56:15.330Z</time>
      </trkpt>
      <trkpt lat="47.39473" lon="-0.41801">
        <ele>65.9</ele>
        <time>2013-02-13T08:56:16.810Z</time>
      </trkpt>
      <trkpt lat="47.39478" lon="-0.41802">
        <ele>65.4</ele>
        <time>2013-02-13T08:56:18.670Z</time>
      </trkpt>
      <trkpt lat="47.3948" lon="-0.41802">
        <ele>65.1</ele>
        <time>2013-02-13T08:56:19.780Z</time>
      </trkpt>
      <trkpt lat="47.39484" lon="-0.41803">
        <ele>64.7</ele>
        <time>2013-02-13T08:56:21.710Z</time>
      </trkpt>
      <trkpt lat="47.39487" lon="-0.41803">
        <ele>64.4</ele>
        <time>2013-02-13T08:56:22.760Z</time>
      </trkpt>
      <trkpt lat="47.39491" lon="-0.41804">
        <ele>64</ele>
        <time>2013-02-13T08:56:24.760Z</time>
      </trkpt>
      <trkpt lat="47.39495" lon="-0.41805">
        <ele>63.5</ele>
        <time>2013-02-13T08:56:26.670Z</time>
      </trkpt>
      <trkpt lat="47.39497" lon="-0.41805">
        <ele>63.3</ele>
        <time>2013-02-13T08:56:27.670Z</time>
      </trkpt>
      <trkpt lat="47.39499" lon="-0.41806">
        <ele>63.1</ele>
        <time>2013-02-13T08:56:28.670Z</time>
      </trkpt>
      <trkpt lat="47.39502" lon="-0.41807">
        <ele>62.9</ele>
        <time>2013-02-13T08:56:29.760Z</time>
      </trkpt>
      <trkpt lat="47.39506" lon="-0.41808">
        <ele>62.6</ele>
        <time>2013-02-13T08:56:31.670Z</time>
      </trkpt>
      <trkpt lat="47.39508" lon="-0.41808">
        <ele>62.4</ele>
        <time>2013-02-13T08:56:32.670Z</time>
      </trkpt>
      <trkpt lat="47.3951" lon="-0.41808">
        <ele>62.3</ele>
        <time>2013-02-13T08:56:33.680Z</time>
      </trkpt>
      <trkpt lat="47.39513" lon="-0.41809">
        <ele>62.1</ele>
        <time>2013-02-13T08:56:34.950Z</time>
      </trkpt>
      <trkpt lat="47.39517" lon="-0.41809">
        <ele>61.8</ele>
        <time>2013-02-13T08:56:36.670Z</time>
      </trkpt>
      <trkpt lat="47.39519" lon="-0.41809">
        <ele>61.6</ele>
        <time>2013-02-13T08:56:37.680Z</time>
      </trkpt>
      <trkpt lat="47.39521" lon="-0.4181">
        <ele>61.5</ele>
        <time>2013-02-13T08:56:38.710Z</time>
      </trkpt>
      <trkpt lat="47.39524" lon="-0.4181">
        <ele>61.3</ele>
        <time>2013-02-13T08:56:39.710Z</time>
      </trkpt>
      <trkpt lat="47.39526" lon="-0.41811">
        <ele>61.1</ele>
        <time>2013-02-13T08:56:40.710Z</time>
      </trkpt>
      <trkpt lat="47.39528" lon="-0.41812">
        <ele>61</ele>
        <time>2013-02-13T08:56:41.710Z</time>
      </trkpt>
      <trkpt lat="47.3953" lon="-0.41812">
        <ele>60.9</ele>
        <time>2013-02-13T08:56:42.710Z</time>
      </trkpt>
      <trkpt lat="47.39532" lon="-0.41812">
        <ele>60.7</ele>
        <time>2013-02-13T08:56:43.710Z</time>
      </trkpt>
      <trkpt lat="47.39534" lon="-0.41813">
        <ele>60.6</ele>
        <time>2013-02-13T08:56:44.790Z</time>
      </trkpt>
      <trkpt lat="47.39539" lon="-0.41814">
        <ele>60.2</ele>
        <time>2013-02-13T08:56:46.670Z</time>
      </trkpt>
      <trkpt lat="47.39542" lon="-0.41814">
        <ele>60</ele>
        <time>2013-02-13T08:56:47.710Z</time>
      </trkpt>
      <trkpt lat="47.39545" lon="-0.41815">
        <ele>59.8</ele>
        <time>2013-02-13T08:56:48.690Z</time>
      </trkpt>
      <trkpt lat="47.39547" lon="-0.41815">
        <ele>59.6</ele>
        <time>2013-02-13T08:56:49.700Z</time>
      </trkpt>
      <trkpt lat="47.39549" lon="-0.41815">
        <ele>59.5</ele>
        <time>2013-02-13T08:56:50.810Z</time>
      </trkpt>
      <trkpt lat="47.39554" lon="-0.41816">
        <ele>59.1</ele>
        <time>2013-02-13T08:56:52.670Z</time>
      </trkpt>
      <trkpt lat="47.39556" lon="-0.41816">
        <ele>59</ele>
        <time>2013-02-13T08:56:53.680Z</time>
      </trkpt>
      <trkpt lat="47.39558" lon="-0.41816">
        <ele>58.8</ele>
        <time>2013-02-13T08:56:54.680Z</time>
      </trkpt>
      <trkpt lat="47.3956" lon="-0.41817">
        <ele>58.7</ele>
        <time>2013-02-13T08:56:55.700Z</time>
      </trkpt>
      <trkpt lat="47.39562" lon="-0.41817">
        <ele>58.5</ele>
        <time>2013-02-13T08:56:56.700Z</time>
      </trkpt>
      <trkpt lat="47.39564" lon="-0.41817">
        <ele>58.4</ele>
        <time>2013-02-13T08:56:57.700Z</time>
      </trkpt>
      <trkpt lat="47.39566" lon="-0.41818">
        <ele>58.2</ele>
        <time>2013-02-13T08:56:58.700Z</time>
      </trkpt>
      <trkpt lat="47.39569" lon="-0.41818">
        <ele>58.1</ele>
        <time>2013-02-13T08:56:59.840Z</time>
      </trkpt>
      <trkpt lat="47.39573" lon="-0.41819">
        <ele>63.6</ele>
        <time>2013-02-13T08:57:01.700Z</time>
      </trkpt>
      <trkpt lat="47.39575" lon="-0.41819">
        <ele>57.6</ele>
        <time>2013-02-13T08:57:02.770Z</time>
      </trkpt>
      <trkpt lat="47.39579" lon="-0.41821">
        <ele>57.3</ele>
        <time>2013-02-13T08:57:04.770Z</time>
      </trkpt>
      <trkpt lat="47.39584" lon="-0.41822">
        <ele>56.9</ele>
        <time>2013-02-13T08:57:06.670Z</time>
      </trkpt>
      <trkpt lat="47.39587" lon="-0.41822">
        <ele>56.8</ele>
        <time>2013-02-13T08:57:07.670Z</time>
      </trkpt>
      <trkpt lat="47.39589" lon="-0.41822">
        <ele>56.6</ele>
        <time>2013-02-13T08:57:08.670Z</time>
      </trkpt>
      <trkpt lat="47.39591" lon="-0.41822">
        <ele>56.4</ele>
        <time>2013-02-13T08:57:09.700Z</time>
      </trkpt>
      <trkpt lat="47.39594" lon="-0.41822">
        <ele>56.3</ele>
        <time>2013-02-13T08:57:10.770Z</time>
      </trkpt>
      <trkpt lat="47.39596" lon="-0.41823">
        <ele>56.1</ele>
        <time>2013-02-13T08:57:11.680Z</time>
      </trkpt>
      <trkpt lat="47.39601" lon="-0.41824">
        <ele>55.8</ele>
        <time>2013-02-13T08:57:13.700Z</time>
      </trkpt>
      <trkpt lat="47.39603" lon="-0.41825">
        <ele>55.6</ele>
        <time>2013-02-13T08:57:14.770Z</time>
      </trkpt>
      <trkpt lat="47.39608" lon="-0.41827">
        <ele>55.3</ele>
        <time>2013-02-13T08:57:16.810Z</time>
      </trkpt>
      <trkpt lat="47.39612" lon="-0.41827">
        <ele>54.9</ele>
        <time>2013-02-13T08:57:18.860Z</time>
      </trkpt>
      <trkpt lat="47.39616" lon="-0.41829">
        <ele>54.5</ele>
        <time>2013-02-13T08:57:20.790Z</time>
      </trkpt>
      <trkpt lat="47.3962" lon="-0.4183">
        <ele>54.1</ele>
        <time>2013-02-13T08:57:22.670Z</time>
      </trkpt>
      <trkpt lat="47.39623" lon="-0.4183">
        <ele>53.8</ele>
        <time>2013-02-13T08:57:23.670Z</time>
      </trkpt>
      <trkpt lat="47.39627" lon="-0.4183">
        <ele>53.3</ele>
        <time>2013-02-13T08:57:25.670Z</time>
      </trkpt>
      <trkpt lat="47.3963" lon="-0.41831">
        <ele>53</ele>
        <time>2013-02-13T08:57:26.670Z</time>
      </trkpt>
      <trkpt lat="47.39632" lon="-0.41831">
        <ele>52.8</ele>
        <time>2013-02-13T08:57:27.670Z</time>
      </trkpt>
      <trkpt lat="47.39634" lon="-0.41831">
        <ele>52.5</ele>
        <time>2013-02-13T08:57:28.680Z</time>
      </trkpt>
      <trkpt lat="47.39636" lon="-0.41832">
        <ele>52.3</ele>
        <time>2013-02-13T08:57:29.690Z</time>
      </trkpt>
      <trkpt lat="47.39638" lon="-0.41832">
        <ele>52.1</ele>
        <time>2013-02-13T08:57:30.930Z</time>
      </trkpt>
      <trkpt lat="47.39643" lon="-0.41833">
        <ele>51.6</ele>
        <time>2013-02-13T08:57:32.670Z</time>
      </trkpt>
      <trkpt lat="47.39645" lon="-0.41834">
        <ele>51.4</ele>
        <time>2013-02-13T08:57:33.680Z</time>
      </trkpt>
      <trkpt lat="47.39647" lon="-0.41834">
        <ele>51.1</ele>
        <time>2013-02-13T08:57:34.690Z</time>
      </trkpt>
      <trkpt lat="47.3965" lon="-0.41835">
        <ele>50.8</ele>
        <time>2013-02-13T08:57:35.690Z</time>
      </trkpt>
      <trkpt lat="47.39654" lon="-0.41836">
        <ele>50.3</ele>
        <time>2013-02-13T08:57:37.690Z</time>
      </trkpt>
      <trkpt lat="47.39657" lon="-0.41836">
        <ele>50.1</ele>
        <time>2013-02-13T08:57:38.690Z</time>
      </trkpt>
      <trkpt lat="47.39659" lon="-0.41836">
        <ele>49.8</ele>
        <time>2013-02-13T08:57:39.690Z</time>
      </trkpt>
      <trkpt lat="47.39661" lon="-0.41837">
        <ele>49.6</ele>
        <time>2013-02-13T08:57:40.700Z</time>
      </trkpt>
      <trkpt lat="47.39663" lon="-0.41837">
        <ele>49.4</ele>
        <time>2013-02-13T08:57:41.690Z</time>
      </trkpt>
      <trkpt lat="47.39666" lon="-0.41838">
        <ele>49.1</ele>
        <time>2013-02-13T08:57:42.690Z</time>
      </trkpt>
      <trkpt lat="47.39668" lon="-0.41839">
        <ele>48.9</ele>
        <time>2013-02-13T08:57:43.690Z</time>
      </trkpt>
      <trkpt lat="47.3967" lon="-0.41839">
        <ele>48.8</ele>
        <time>2013-02-13T08:57:44.930Z</time>
      </trkpt>
      <trkpt lat="47.39672" lon="-0.4184">
        <ele>48.6</ele>
        <time>2013-02-13T08:57:45.690Z</time>
      </trkpt>
      <trkpt lat="47.39674" lon="-0.4184">
        <ele>48.5</ele>
        <time>2013-02-13T08:57:46.770Z</time>
      </trkpt>
      <trkpt lat="47.39679" lon="-0.4184">
        <ele>48.1</ele>
        <time>2013-02-13T08:57:48.670Z</time>
      </trkpt>
      <trkpt lat="47.39681" lon="-0.4184">
        <ele>48</ele>
        <time>2013-02-13T08:57:49.690Z</time>
      </trkpt>
      <trkpt lat="47.39683" lon="-0.4184">
        <ele>47.9</ele>
        <time>2013-02-13T08:57:50.740Z</time>
      </trkpt>
      <trkpt lat="47.39688" lon="-0.4184">
        <ele>47.5</ele>
        <time>2013-02-13T08:57:52.690Z</time>
      </trkpt>
      <trkpt lat="47.3969" lon="-0.4184">
        <ele>47.3</ele>
        <time>2013-02-13T08:57:53.690Z</time>
      </trkpt>
      <trkpt lat="47.39692" lon="-0.41839">
        <ele>47.2</ele>
        <time>2013-02-13T08:57:54.770Z</time>
      </trkpt>
      <trkpt lat="47.39696" lon="-0.41839">
        <ele>46.8</ele>
        <time>2013-02-13T08:57:56.670Z</time>
      </trkpt>
      <trkpt lat="47.39698" lon="-0.41838">
        <ele>46.6</ele>
        <time>2013-02-13T08:57:57.670Z</time>
      </trkpt>
      <trkpt lat="47.397" lon="-0.41838">
        <ele>46.4</ele>
        <time>2013-02-13T08:57:58.810Z</time>
      </trkpt>
      <trkpt lat="47.39702" lon="-0.41837">
        <ele>46.2</ele>
        <time>2013-02-13T08:57:59.740Z</time>
      </trkpt>
      <trkpt lat="47.39706" lon="-0.41836">
        <ele>51.5</ele>
        <time>2013-02-13T08:58:01.690Z</time>
      </trkpt>
      <trkpt lat="47.39709" lon="-0.41836">
        <ele>45.5</ele>
        <time>2013-02-13T08:58:02.800Z</time>
      </trkpt>
      <trkpt lat="47.39712" lon="-0.41835">
        <ele>45.1</ele>
        <time>2013-02-13T08:58:04.690Z</time>
      </trkpt>
      <trkpt lat="47.39714" lon="-0.41835">
        <ele>44.9</ele>
        <time>2013-02-13T08:58:05.690Z</time>
      </trkpt>
      <trkpt lat="47.39716" lon="-0.41834">
        <ele>44.7</ele>
        <time>2013-02-13T08:58:06.690Z</time>
      </trkpt>
      <trkpt lat="47.39718" lon="-0.41833">
        <ele>44.5</ele>
        <time>2013-02-13T08:58:07.690Z</time>
      </trkpt>
      <trkpt lat="47.3972" lon="-0.41832">
        <ele>44.3</ele>
        <time>2013-02-13T08:58:08.690Z</time>
      </trkpt>
      <trkpt lat="47.39722" lon="-0.41832">
        <ele>44.1</ele>
        <time>2013-02-13T08:58:09.770Z</time>
      </trkpt>
      <trkpt lat="47.39726" lon="-0.4183">
        <ele>43.5</ele>
        <time>2013-02-13T08:58:11.670Z</time>
      </trkpt>
      <trkpt lat="47.39728" lon="-0.41829">
        <ele>43.2</ele>
        <time>2013-02-13T08:58:12.680Z</time>
      </trkpt>
      <trkpt lat="47.3973" lon="-0.41828">
        <ele>42.9</ele>
        <time>2013-02-13T08:58:13.760Z</time>
      </trkpt>
      <trkpt lat="47.39734" lon="-0.41826">
        <ele>42.4</ele>
        <time>2013-02-13T08:58:15.680Z</time>
      </trkpt>
      <trkpt lat="47.39736" lon="-0.41825">
        <ele>42.1</ele>
        <time>2013-02-13T08:58:16.740Z</time>
      </trkpt>
      <trkpt lat="47.3974" lon="-0.41823">
        <ele>41.5</ele>
        <time>2013-02-13T08:58:18.670Z</time>
      </trkpt>
      <trkpt lat="47.39742" lon="-0.41822">
        <ele>41.1</ele>
        <time>2013-02-13T08:58:19.680Z</time>
      </trkpt>
      <trkpt lat="47.39744" lon="-0.41821">
        <ele>40.8</ele>
        <time>2013-02-13T08:58:20.770Z</time>
      </trkpt>
      <trkpt lat="47.39749" lon="-0.41819">
        <ele>40.2</ele>
        <time>2013-02-13T08:58:22.760Z</time>
      </trkpt>
      <trkpt lat="47.39754" lon="-0.41816">
        <ele>39.7</ele>
        <time>2013-02-13T08:58:24.920Z</time>
      </trkpt>
      <trkpt lat="47.39758" lon="-0.41815">
        <ele>39.2</ele>
        <time>2013-02-13T08:58:26.780Z</time>
      </trkpt>
      <trkpt lat="47.39762" lon="-0.41812">
        <ele>38.8</ele>
        <time>2013-02-13T08:58:28.690Z</time>
      </trkpt>
      <trkpt lat="47.39764" lon="-0.41811">
        <ele>38.6</ele>
        <time>2013-02-13T08:58:29.680Z</time>
      </trkpt>
      <trkpt lat="47.39767" lon="-0.41811">
        <ele>38.3</ele>
        <time>2013-02-13T08:58:30.690Z</time>
      </trkpt>
      <trkpt lat="47.39769" lon="-0.4181">
        <ele>38</ele>
        <time>2013-02-13T08:58:31.680Z</time>
      </trkpt>
      <trkpt lat="47.39771" lon="-0.4181">
        <ele>37.8</ele>
        <time>2013-02-13T08:58:32.770Z</time>
      </trkpt>
      <trkpt lat="47.39775" lon="-0.41808">
        <ele>37.4</ele>
        <time>2013-02-13T08:58:34.770Z</time>
      </trkpt>
      <trkpt lat="47.39779" lon="-0.41805">
        <ele>36.9</ele>
        <time>2013-02-13T08:58:36.810Z</time>
      </trkpt>
      <trkpt lat="47.39783" lon="-0.41804">
        <ele>36.7</ele>
        <time>2013-02-13T08:58:38.820Z</time>
      </trkpt>
      <trkpt lat="47.39785" lon="-0.41804">
        <ele>36.5</ele>
        <time>2013-02-13T08:58:39.690Z</time>
      </trkpt>
      <trkpt lat="47.39787" lon="-0.41803">
        <ele>36.4</ele>
        <time>2013-02-13T08:58:40.680Z</time>
      </trkpt>
      <trkpt lat="47.39789" lon="-0.41802">
        <ele>36.3</ele>
        <time>2013-02-13T08:58:41.690Z</time>
      </trkpt>
      <trkpt lat="47.39792" lon="-0.41802">
        <ele>36.1</ele>
        <time>2013-02-13T08:58:42.680Z</time>
      </trkpt>
      <trkpt lat="47.39794" lon="-0.41801">
        <ele>35.9</ele>
        <time>2013-02-13T08:58:43.690Z</time>
      </trkpt>
      <trkpt lat="47.39796" lon="-0.418">
        <ele>35.8</ele>
        <time>2013-02-13T08:58:44.680Z</time>
      </trkpt>
      <trkpt lat="47.39798" lon="-0.41799">
        <ele>35.6</ele>
        <time>2013-02-13T08:58:45.780Z</time>
      </trkpt>
      <trkpt lat="47.39803" lon="-0.41797">
        <ele>35.2</ele>
        <time>2013-02-13T08:58:47.690Z</time>
      </trkpt>
      <trkpt lat="47.39805" lon="-0.41796">
        <ele>35.1</ele>
        <time>2013-02-13T08:58:48.770Z</time>
      </trkpt>
      <trkpt lat="47.39809" lon="-0.41795">
        <ele>34.7</ele>
        <time>2013-02-13T08:58:50.800Z</time>
      </trkpt>
      <trkpt lat="47.39812" lon="-0.41794">
        <ele>34.4</ele>
        <time>2013-02-13T08:58:52.760Z</time>
      </trkpt>
      <trkpt lat="47.39817" lon="-0.41792">
        <ele>34</ele>
        <time>2013-02-13T08:58:54.770Z</time>
      </trkpt>
      <trkpt lat="47.39821" lon="-0.4179">
        <ele>33.6</ele>
        <time>2013-02-13T08:58:56.810Z</time>
      </trkpt>
      <trkpt lat="47.39823" lon="-0.41789">
        <ele>33.4</ele>
        <time>2013-02-13T08:58:57.670Z</time>
      </trkpt>
      <trkpt lat="47.39825" lon="-0.41789">
        <ele>33.1</ele>
        <time>2013-02-13T08:58:58.670Z</time>
      </trkpt>
      <trkpt lat="47.39828" lon="-0.41787">
        <ele>32.9</ele>
        <time>2013-02-13T08:58:59.850Z</time>
      </trkpt>
      <trkpt lat="47.39832" lon="-0.41785">
        <ele>36.7</ele>
        <time>2013-02-13T08:59:01.670Z</time>
      </trkpt>
      <trkpt lat="47.39834" lon="-0.41784">
        <ele>32.2</ele>
        <time>2013-02-13T08:59:02.770Z</time>
      </trkpt>
      <trkpt lat="47.39839" lon="-0.41782">
        <ele>32.2</ele>
        <time>2013-02-13T08:59:04.770Z</time>
      </trkpt>
      <trkpt lat="47.39844" lon="-0.4178">
        <ele>32.1</ele>
        <time>2013-02-13T08:59:06.770Z</time>
      </trkpt>
      <trkpt lat="47.39848" lon="-0.41778">
        <ele>32</ele>
        <time>2013-02-13T08:59:08.770Z</time>
      </trkpt>
      <trkpt lat="47.39853" lon="-0.41776">
        <ele>31.9</ele>
        <time>2013-02-13T08:59:10.780Z</time>
      </trkpt>
      <trkpt lat="47.39858" lon="-0.41774">
        <ele>31.9</ele>
        <time>2013-02-13T08:59:12.910Z</time>
      </trkpt>
      <trkpt lat="47.3986" lon="-0.41773">
        <ele>31.8</ele>
        <time>2013-02-13T08:59:13.670Z</time>
      </trkpt>
      <trkpt lat="47.39862" lon="-0.41771">
        <ele>31.8</ele>
        <time>2013-02-13T08:59:14.770Z</time>
      </trkpt>
      <trkpt lat="47.39864" lon="-0.4177">
        <ele>31.8</ele>
        <time>2013-02-13T08:59:15.670Z</time>
      </trkpt>
      <trkpt lat="47.39866" lon="-0.41769">
        <ele>31.8</ele>
        <time>2013-02-13T08:59:16.810Z</time>
      </trkpt>
      <trkpt lat="47.3987" lon="-0.41766">
        <ele>31.8</ele>
        <time>2013-02-13T08:59:18.670Z</time>
      </trkpt>
      <trkpt lat="47.39872" lon="-0.41765">
        <ele>31.8</ele>
        <time>2013-02-13T08:59:19.770Z</time>
      </trkpt>
      <trkpt lat="47.39875" lon="-0.41764">
        <ele>31.7</ele>
        <time>2013-02-13T08:59:20.670Z</time>
      </trkpt>
      <trkpt lat="47.39877" lon="-0.41763">
        <ele>31.8</ele>
        <time>2013-02-13T08:59:21.760Z</time>
      </trkpt>
      <trkpt lat="47.39881" lon="-0.4176">
        <ele>31.6</ele>
        <time>2013-02-13T08:59:23.670Z</time>
      </trkpt>
      <trkpt lat="47.39882" lon="-0.41758">
        <ele>31.5</ele>
        <time>2013-02-13T08:59:24.770Z</time>
      </trkpt>
      <trkpt lat="47.39883" lon="-0.41755">
        <ele>31.3</ele>
        <time>2013-02-13T08:59:25.670Z</time>
      </trkpt>
      <trkpt lat="47.39882" lon="-0.41753">
        <ele>31.2</ele>
        <time>2013-02-13T08:59:26.780Z</time>
      </trkpt>
      <trkpt lat="47.3988" lon="-0.41748">
        <ele>30.9</ele>
        <time>2013-02-13T08:59:28.780Z</time>
      </trkpt>
      <trkpt lat="47.39878" lon="-0.41742">
        <ele>30.6</ele>
        <time>2013-02-13T08:59:30.670Z</time>
      </trkpt>
      <trkpt lat="47.39878" lon="-0.41738">
        <ele>30.5</ele>
        <time>2013-02-13T08:59:31.770Z</time>
      </trkpt>
      <trkpt lat="47.39876" lon="-0.41731">
        <ele>30.2</ele>
        <time>2013-02-13T08:59:33.860Z</time>
      </trkpt>
      <trkpt lat="47.39876" lon="-0.41724">
        <ele>30</ele>
        <time>2013-02-13T08:59:35.760Z</time>
      </trkpt>
      <trkpt lat="47.39875" lon="-0.4172">
        <ele>29.9</ele>
        <time>2013-02-13T08:59:36.670Z</time>
      </trkpt>
      <trkpt lat="47.39875" lon="-0.41717">
        <ele>29.8</ele>
        <time>2013-02-13T08:59:37.780Z</time>
      </trkpt>
      <trkpt lat="47.39874" lon="-0.41707">
        <ele>29.5</ele>
        <time>2013-02-13T08:59:39.670Z</time>
      </trkpt>
      <trkpt lat="47.39873" lon="-0.41704">
        <ele>29.5</ele>
        <time>2013-02-13T08:59:40.760Z</time>
      </trkpt>
      <trkpt lat="47.39872" lon="-0.417">
        <ele>29.4</ele>
        <time>2013-02-13T08:59:41.670Z</time>
      </trkpt>
      <trkpt lat="47.39871" lon="-0.41697">
        <ele>29.4</ele>
        <time>2013-02-13T08:59:42.770Z</time>
      </trkpt>
      <trkpt lat="47.3987" lon="-0.41689">
        <ele>29.3</ele>
        <time>2013-02-13T08:59:44.680Z</time>
      </trkpt>
      <trkpt lat="47.3987" lon="-0.41683">
        <ele>29.2</ele>
        <time>2013-02-13T08:59:46.770Z</time>
      </trkpt>
      <trkpt lat="47.39871" lon="-0.41674">
        <ele>29</ele>
        <time>2013-02-13T08:59:48.670Z</time>
      </trkpt>
      <trkpt lat="47.39872" lon="-0.4167">
        <ele>28.9</ele>
        <time>2013-02-13T08:59:49.760Z</time>
      </trkpt>
      <trkpt lat="47.39872" lon="-0.41667">
        <ele>28.8</ele>
        <time>2013-02-13T08:59:50.680Z</time>
      </trkpt>
      <trkpt lat="47.39873" lon="-0.41663">
        <ele>28.7</ele>
        <time>2013-02-13T08:59:51.760Z</time>
      </trkpt>
      <trkpt lat="47.39874" lon="-0.41656">
        <ele>28.4</ele>
        <time>2013-02-13T08:59:53.760Z</time>
      </trkpt>
      <trkpt lat="47.39874" lon="-0.41653">
        <ele>28.3</ele>
        <time>2013-02-13T08:59:54.840Z</time>
      </trkpt>
      <trkpt lat="47.39875" lon="-0.41647">
        <ele>28.2</ele>
        <time>2013-02-13T08:59:56.670Z</time>
      </trkpt>
      <trkpt lat="47.39874" lon="-0.41643">
        <ele>28.1</ele>
        <time>2013-02-13T08:59:57.740Z</time>
      </trkpt>
      <trkpt lat="47.39874" lon="-0.4164">
        <ele>28.1</ele>
        <time>2013-02-13T08:59:58.900Z</time>
      </trkpt>
      <trkpt lat="47.39873" lon="-0.41638">
        <ele>28.2</ele>
        <time>2013-02-13T08:59:59.910Z</time>
      </trkpt>
      <trkpt lat="47.39868" lon="-0.41633">
        <ele>33.2</ele>
        <time>2013-02-13T09:00:01.710Z</time>
      </trkpt>
      <trkpt lat="47.39865" lon="-0.41631">
        <ele>28.7</ele>
        <time>2013-02-13T09:00:02.670Z</time>
      </trkpt>
      <trkpt lat="47.39863" lon="-0.41629">
        <ele>28.8</ele>
        <time>2013-02-13T09:00:03.760Z</time>
      </trkpt>
      <trkpt lat="47.39861" lon="-0.41627">
        <ele>29</ele>
        <time>2013-02-13T09:00:04.670Z</time>
      </trkpt>
      <trkpt lat="47.39859" lon="-0.41624">
        <ele>29.2</ele>
        <time>2013-02-13T09:00:05.760Z</time>
      </trkpt>
      <trkpt lat="47.39859" lon="-0.41621">
        <ele>29.3</ele>
        <time>2013-02-13T09:00:06.670Z</time>
      </trkpt>
      <trkpt lat="47.39858" lon="-0.41618">
        <ele>29.5</ele>
        <time>2013-02-13T09:00:07.780Z</time>
      </trkpt>
      <trkpt lat="47.39856" lon="-0.41612">
        <ele>29.8</ele>
        <time>2013-02-13T09:00:09.670Z</time>
      </trkpt>
      <trkpt lat="47.39854" lon="-0.41608">
        <ele>30</ele>
        <time>2013-02-13T09:00:10.760Z</time>
      </trkpt>
      <trkpt lat="47.39853" lon="-0.41606">
        <ele>30.3</ele>
        <time>2013-02-13T09:00:11.670Z</time>
      </trkpt>
      <trkpt lat="47.39851" lon="-0.41602">
        <ele>30.5</ele>
        <time>2013-02-13T09:00:12.780Z</time>
      </trkpt>
      <trkpt lat="47.39849" lon="-0.41597">
        <ele>30.9</ele>
        <time>2013-02-13T09:00:14.670Z</time>
      </trkpt>
      <trkpt lat="47.39848" lon="-0.41594">
        <ele>31.1</ele>
        <time>2013-02-13T09:00:15.780Z</time>
      </trkpt>
      <trkpt lat="47.39847" lon="-0.41591">
        <ele>31.3</ele>
        <time>2013-02-13T09:00:16.810Z</time>
      </trkpt>
      <trkpt lat="47.39847" lon="-0.41584">
        <ele>31.5</ele>
        <time>2013-02-13T09:00:18.810Z</time>
      </trkpt>
      <trkpt lat="47.39847" lon="-0.41578">
        <ele>31.8</ele>
        <time>2013-02-13T09:00:20.670Z</time>
      </trkpt>
      <trkpt lat="47.39847" lon="-0.41574">
        <ele>31.9</ele>
        <time>2013-02-13T09:00:21.750Z</time>
      </trkpt>
      <trkpt lat="47.39846" lon="-0.41572">
        <ele>32.1</ele>
        <time>2013-02-13T09:00:22.670Z</time>
      </trkpt>
      <trkpt lat="47.39845" lon="-0.41569">
        <ele>32.4</ele>
        <time>2013-02-13T09:00:23.760Z</time>
      </trkpt>
      <trkpt lat="47.39845" lon="-0.41566">
        <ele>32.5</ele>
        <time>2013-02-13T09:00:24.670Z</time>
      </trkpt>
      <trkpt lat="47.39846" lon="-0.41563">
        <ele>32.5</ele>
        <time>2013-02-13T09:00:25.790Z</time>
      </trkpt>
      <trkpt lat="47.39846" lon="-0.4156">
        <ele>32.6</ele>
        <time>2013-02-13T09:00:26.750Z</time>
      </trkpt>
      <trkpt lat="47.39846" lon="-0.41557">
        <ele>32.7</ele>
        <time>2013-02-13T09:00:27.670Z</time>
      </trkpt>
      <trkpt lat="47.39846" lon="-0.41553">
        <ele>32.8</ele>
        <time>2013-02-13T09:00:28.730Z</time>
      </trkpt>
      <trkpt lat="47.39846" lon="-0.4155">
        <ele>32.9</ele>
        <time>2013-02-13T09:00:29.670Z</time>
      </trkpt>
      <trkpt lat="47.39846" lon="-0.41547">
        <ele>33</ele>
        <time>2013-02-13T09:00:30.750Z</time>
      </trkpt>
      <trkpt lat="47.39846" lon="-0.41544">
        <ele>33.1</ele>
        <time>2013-02-13T09:00:31.670Z</time>
      </trkpt>
      <trkpt lat="47.39846" lon="-0.41541">
        <ele>33.2</ele>
        <time>2013-02-13T09:00:32.860Z</time>
      </trkpt>
      <trkpt lat="47.39845" lon="-0.41535">
        <ele>33.5</ele>
        <time>2013-02-13T09:00:34.790Z</time>
      </trkpt>
      <trkpt lat="47.39846" lon="-0.41531">
        <ele>33.6</ele>
        <time>2013-02-13T09:00:35.800Z</time>
      </trkpt>
      <trkpt lat="47.39845" lon="-0.41525">
        <ele>33.8</ele>
        <time>2013-02-13T09:00:37.670Z</time>
      </trkpt>
      <trkpt lat="47.39845" lon="-0.41522">
        <ele>33.9</ele>
        <time>2013-02-13T09:00:38.790Z</time>
      </trkpt>
      <trkpt lat="47.39844" lon="-0.41515">
        <ele>34.1</ele>
        <time>2013-02-13T09:00:40.750Z</time>
      </trkpt>
      <trkpt lat="47.39843" lon="-0.41512">
        <ele>34.3</ele>
        <time>2013-02-13T09:00:41.670Z</time>
      </trkpt>
      <trkpt lat="47.39843" lon="-0.41508">
        <ele>34.4</ele>
        <time>2013-02-13T09:00:42.670Z</time>
      </trkpt>
      <trkpt lat="47.39844" lon="-0.41505">
        <ele>34.4</ele>
        <time>2013-02-13T09:00:43.750Z</time>
      </trkpt>
      <trkpt lat="47.39844" lon="-0.41501">
        <ele>34.5</ele>
        <time>2013-02-13T09:00:44.670Z</time>
      </trkpt>
      <trkpt lat="47.39843" lon="-0.41498">
        <ele>34.6</ele>
        <time>2013-02-13T09:00:45.750Z</time>
      </trkpt>
      <trkpt lat="47.39843" lon="-0.41495">
        <ele>34.6</ele>
        <time>2013-02-13T09:00:46.670Z</time>
      </trkpt>
      <trkpt lat="47.39843" lon="-0.41492">
        <ele>34.6</ele>
        <time>2013-02-13T09:00:47.750Z</time>
      </trkpt>
      <trkpt lat="47.39842" lon="-0.41489">
        <ele>34.7</ele>
        <time>2013-02-13T09:00:48.670Z</time>
      </trkpt>
      <trkpt lat="47.39842" lon="-0.41486">
        <ele>34.8</ele>
        <time>2013-02-13T09:00:49.780Z</time>
      </trkpt>
      <trkpt lat="47.39841" lon="-0.41483">
        <ele>34.9</ele>
        <time>2013-02-13T09:00:50.770Z</time>
      </trkpt>
      <trkpt lat="47.39841" lon="-0.41477">
        <ele>34.9</ele>
        <time>2013-02-13T09:00:52.770Z</time>
      </trkpt>
      <trkpt lat="47.39841" lon="-0.4147">
        <ele>34.9</ele>
        <time>2013-02-13T09:00:54.770Z</time>
      </trkpt>
      <trkpt lat="47.39842" lon="-0.41462">
        <ele>35</ele>
        <time>2013-02-13T09:00:56.670Z</time>
      </trkpt>
      <trkpt lat="47.39842" lon="-0.41458">
        <ele>35.1</ele>
        <time>2013-02-13T09:00:57.860Z</time>
      </trkpt>
      <trkpt lat="47.39843" lon="-0.41451">
        <ele>35.1</ele>
        <time>2013-02-13T09:00:59.840Z</time>
      </trkpt>
      <trkpt lat="47.39843" lon="-0.41443">
        <ele>38.5</ele>
        <time>2013-02-13T09:01:01.740Z</time>
      </trkpt>
      <trkpt lat="47.39843" lon="-0.41439">
        <ele>35.3</ele>
        <time>2013-02-13T09:01:02.670Z</time>
      </trkpt>
      <trkpt lat="47.39843" lon="-0.41435">
        <ele>35.3</ele>
        <time>2013-02-13T09:01:03.740Z</time>
      </trkpt>
      <trkpt lat="47.39843" lon="-0.41433">
        <ele>35.3</ele>
        <time>2013-02-13T09:01:04.670Z</time>
      </trkpt>
      <trkpt lat="47.39842" lon="-0.41429">
        <ele>35.4</ele>
        <time>2013-02-13T09:01:05.780Z</time>
      </trkpt>
      <trkpt lat="47.39841" lon="-0.41426">
        <ele>35.5</ele>
        <time>2013-02-13T09:01:06.740Z</time>
      </trkpt>
      <trkpt lat="47.39841" lon="-0.41422">
        <ele>35.7</ele>
        <time>2013-02-13T09:01:07.670Z</time>
      </trkpt>
      <trkpt lat="47.3984" lon="-0.41418">
        <ele>35.7</ele>
        <time>2013-02-13T09:01:08.850Z</time>
      </trkpt>
      <trkpt lat="47.39841" lon="-0.41412">
        <ele>35.7</ele>
        <time>2013-02-13T09:01:10.770Z</time>
      </trkpt>
      <trkpt lat="47.39842" lon="-0.41405">
        <ele>35.5</ele>
        <time>2013-02-13T09:01:12.670Z</time>
      </trkpt>
      <trkpt lat="47.39842" lon="-0.41401">
        <ele>35.5</ele>
        <time>2013-02-13T09:01:13.740Z</time>
      </trkpt>
      <trkpt lat="47.39842" lon="-0.41397">
        <ele>35.5</ele>
        <time>2013-02-13T09:01:14.680Z</time>
      </trkpt>
      <trkpt lat="47.39842" lon="-0.41394">
        <ele>35.5</ele>
        <time>2013-02-13T09:01:15.750Z</time>
      </trkpt>
      <trkpt lat="47.39841" lon="-0.4139">
        <ele>35.6</ele>
        <time>2013-02-13T09:01:16.680Z</time>
      </trkpt>
      <trkpt lat="47.39841" lon="-0.41387">
        <ele>35.5</ele>
        <time>2013-02-13T09:01:17.770Z</time>
      </trkpt>
      <trkpt lat="47.39841" lon="-0.4138">
        <ele>35.6</ele>
        <time>2013-02-13T09:01:19.670Z</time>
      </trkpt>
      <trkpt lat="47.39841" lon="-0.41377">
        <ele>35.6</ele>
        <time>2013-02-13T09:01:20.740Z</time>
      </trkpt>
      <trkpt lat="47.39841" lon="-0.41374">
        <ele>35.7</ele>
        <time>2013-02-13T09:01:21.670Z</time>
      </trkpt>
      <trkpt lat="47.3984" lon="-0.41371">
        <ele>35.7</ele>
        <time>2013-02-13T09:01:22.740Z</time>
      </trkpt>
      <trkpt lat="47.3984" lon="-0.41367">
        <ele>35.8</ele>
        <time>2013-02-13T09:01:23.670Z</time>
      </trkpt>
      <trkpt lat="47.3984" lon="-0.41364">
        <ele>35.8</ele>
        <time>2013-02-13T09:01:24.740Z</time>
      </trkpt>
      <trkpt lat="47.3984" lon="-0.4136">
        <ele>35.8</ele>
        <time>2013-02-13T09:01:25.670Z</time>
      </trkpt>
      <trkpt lat="47.3984" lon="-0.41356">
        <ele>35.8</ele>
        <time>2013-02-13T09:01:26.770Z</time>
      </trkpt>
      <trkpt lat="47.39838" lon="-0.4135">
        <ele>35.8</ele>
        <time>2013-02-13T09:01:28.670Z</time>
      </trkpt>
      <trkpt lat="47.39838" lon="-0.41346">
        <ele>35.7</ele>
        <time>2013-02-13T09:01:29.770Z</time>
      </trkpt>
      <trkpt lat="47.39838" lon="-0.4134">
        <ele>35.5</ele>
        <time>2013-02-13T09:01:31.670Z</time>
      </trkpt>
      <trkpt lat="47.39838" lon="-0.41337">
        <ele>35.4</ele>
        <time>2013-02-13T09:01:32.780Z</time>
      </trkpt>
      <trkpt lat="47.39838" lon="-0.41333">
        <ele>35.3</ele>
        <time>2013-02-13T09:01:33.740Z</time>
      </trkpt>
      <trkpt lat="47.39837" lon="-0.41326">
        <ele>35.2</ele>
        <time>2013-02-13T09:01:35.670Z</time>
      </trkpt>
      <trkpt lat="47.39837" lon="-0.41322">
        <ele>35.1</ele>
        <time>2013-02-13T09:01:36.730Z</time>
      </trkpt>
      <trkpt lat="47.39837" lon="-0.41318">
        <ele>35</ele>
        <time>2013-02-13T09:01:37.670Z</time>
      </trkpt>
      <trkpt lat="47.39837" lon="-0.41315">
        <ele>35</ele>
        <time>2013-02-13T09:01:38.730Z</time>
      </trkpt>
      <trkpt lat="47.39837" lon="-0.41311">
        <ele>34.9</ele>
        <time>2013-02-13T09:01:39.670Z</time>
      </trkpt>
      <trkpt lat="47.39837" lon="-0.41307">
        <ele>34.8</ele>
        <time>2013-02-13T09:01:40.740Z</time>
      </trkpt>
      <trkpt lat="47.39837" lon="-0.41304">
        <ele>34.7</ele>
        <time>2013-02-13T09:01:41.680Z</time>
      </trkpt>
      <trkpt lat="47.39837" lon="-0.413">
        <ele>34.7</ele>
        <time>2013-02-13T09:01:42.730Z</time>
      </trkpt>
      <trkpt lat="47.39837" lon="-0.41297">
        <ele>34.7</ele>
        <time>2013-02-13T09:01:43.680Z</time>
      </trkpt>
      <trkpt lat="47.39837" lon="-0.41294">
        <ele>34.7</ele>
        <time>2013-02-13T09:01:44.670Z</time>
      </trkpt>
      <trkpt lat="47.39837" lon="-0.4129">
        <ele>34.7</ele>
        <time>2013-02-13T09:01:45.670Z</time>
      </trkpt>
      <trkpt lat="47.39838" lon="-0.41287">
        <ele>34.7</ele>
        <time>2013-02-13T09:01:46.670Z</time>
      </trkpt>
      <trkpt lat="47.39838" lon="-0.41284">
        <ele>34.7</ele>
        <time>2013-02-13T09:01:47.670Z</time>
      </trkpt>
      <trkpt lat="47.39837" lon="-0.4128">
        <ele>34.7</ele>
        <time>2013-02-13T09:01:48.670Z</time>
      </trkpt>
      <trkpt lat="47.39837" lon="-0.41277">
        <ele>34.8</ele>
        <time>2013-02-13T09:01:49.730Z</time>
      </trkpt>
      <trkpt lat="47.39837" lon="-0.41274">
        <ele>34.9</ele>
        <time>2013-02-13T09:01:50.680Z</time>
      </trkpt>
      <trkpt lat="47.39836" lon="-0.41271">
        <ele>35</ele>
        <time>2013-02-13T09:01:51.780Z</time>
      </trkpt>
      <trkpt lat="47.39835" lon="-0.41264">
        <ele>35.3</ele>
        <time>2013-02-13T09:01:53.670Z</time>
      </trkpt>
      <trkpt lat="47.39834" lon="-0.4126">
        <ele>35.6</ele>
        <time>2013-02-13T09:01:54.670Z</time>
      </trkpt>
      <trkpt lat="47.39833" lon="-0.41256">
        <ele>35.8</ele>
        <time>2013-02-13T09:01:56.340Z</time>
      </trkpt>
      <trkpt lat="47.3983" lon="-0.4125">
        <ele>36.3</ele>
        <time>2013-02-13T09:01:57.670Z</time>
      </trkpt>
      <trkpt lat="47.39828" lon="-0.41247">
        <ele>36.6</ele>
        <time>2013-02-13T09:01:58.670Z</time>
      </trkpt>
      <trkpt lat="47.39826" lon="-0.41245">
        <ele>36.9</ele>
        <time>2013-02-13T09:01:59.700Z</time>
      </trkpt>
      <trkpt lat="47.39825" lon="-0.41243">
        <ele>40.3</ele>
        <time>2013-02-13T09:02:01.040Z</time>
      </trkpt>
      <trkpt lat="47.3982" lon="-0.4124">
        <ele>37.7</ele>
        <time>2013-02-13T09:02:02.770Z</time>
      </trkpt>
      <trkpt lat="47.39816" lon="-0.41237">
        <ele>38.2</ele>
        <time>2013-02-13T09:02:04.730Z</time>
      </trkpt>
      <trkpt lat="47.39814" lon="-0.41236">
        <ele>38.4</ele>
        <time>2013-02-13T09:02:05.780Z</time>
      </trkpt>
      <trkpt lat="47.3981" lon="-0.41233">
        <ele>38.9</ele>
        <time>2013-02-13T09:02:07.670Z</time>
      </trkpt>
      <trkpt lat="47.39809" lon="-0.41232">
        <ele>39.1</ele>
        <time>2013-02-13T09:02:08.670Z</time>
      </trkpt>
      <trkpt lat="47.39806" lon="-0.4123">
        <ele>39.4</ele>
        <time>2013-02-13T09:02:09.670Z</time>
      </trkpt>
      <trkpt lat="47.39805" lon="-0.41229">
        <ele>39.5</ele>
        <time>2013-02-13T09:02:10.670Z</time>
      </trkpt>
      <trkpt lat="47.39803" lon="-0.41229">
        <ele>39.7</ele>
        <time>2013-02-13T09:02:11.670Z</time>
      </trkpt>
      <trkpt lat="47.39801" lon="-0.41227">
        <ele>39.9</ele>
        <time>2013-02-13T09:02:12.770Z</time>
      </trkpt>
      <trkpt lat="47.39797" lon="-0.41225">
        <ele>40.2</ele>
        <time>2013-02-13T09:02:14.730Z</time>
      </trkpt>
      <trkpt lat="47.39795" lon="-0.41223">
        <ele>40.4</ele>
        <time>2013-02-13T09:02:15.770Z</time>
      </trkpt>
      <trkpt lat="47.39792" lon="-0.41221">
        <ele>40.6</ele>
        <time>2013-02-13T09:02:17.760Z</time>
      </trkpt>
      <trkpt lat="47.39788" lon="-0.41218">
        <ele>40.9</ele>
        <time>2013-02-13T09:02:19.850Z</time>
      </trkpt>
      <trkpt lat="47.39785" lon="-0.41216">
        <ele>41.1</ele>
        <time>2013-02-13T09:02:21.770Z</time>
      </trkpt>
      <trkpt lat="47.39782" lon="-0.41213">
        <ele>41.5</ele>
        <time>2013-02-13T09:02:23.670Z</time>
      </trkpt>
      <trkpt lat="47.3978" lon="-0.4121">
        <ele>41.7</ele>
        <time>2013-02-13T09:02:24.670Z</time>
      </trkpt>
      <trkpt lat="47.39778" lon="-0.41209">
        <ele>41.9</ele>
        <time>2013-02-13T09:02:25.720Z</time>
      </trkpt>
      <trkpt lat="47.39775" lon="-0.41206">
        <ele>42.4</ele>
        <time>2013-02-13T09:02:27.670Z</time>
      </trkpt>
      <trkpt lat="47.39774" lon="-0.41205">
        <ele>42.5</ele>
        <time>2013-02-13T09:02:28.670Z</time>
      </trkpt>
      <trkpt lat="47.39772" lon="-0.41204">
        <ele>42.7</ele>
        <time>2013-02-13T09:02:29.670Z</time>
      </trkpt>
      <trkpt lat="47.3977" lon="-0.41203">
        <ele>42.8</ele>
        <time>2013-02-13T09:02:30.670Z</time>
      </trkpt>
      <trkpt lat="47.39768" lon="-0.41202">
        <ele>43</ele>
        <time>2013-02-13T09:02:31.670Z</time>
      </trkpt>
      <trkpt lat="47.39767" lon="-0.41201">
        <ele>43.1</ele>
        <time>2013-02-13T09:02:32.670Z</time>
      </trkpt>
      <trkpt lat="47.39765" lon="-0.412">
        <ele>43.3</ele>
        <time>2013-02-13T09:02:33.680Z</time>
      </trkpt>
      <trkpt lat="47.39764" lon="-0.41198">
        <ele>43.4</ele>
        <time>2013-02-13T09:02:34.780Z</time>
      </trkpt>
      <trkpt lat="47.3976" lon="-0.41196">
        <ele>43.6</ele>
        <time>2013-02-13T09:02:36.670Z</time>
      </trkpt>
      <trkpt lat="47.39759" lon="-0.41194">
        <ele>43.7</ele>
        <time>2013-02-13T09:02:37.670Z</time>
      </trkpt>
      <trkpt lat="47.39758" lon="-0.41192">
        <ele>44</ele>
        <time>2013-02-13T09:02:38.670Z</time>
      </trkpt>
      <trkpt lat="47.39757" lon="-0.4119">
        <ele>44.2</ele>
        <time>2013-02-13T09:02:39.860Z</time>
      </trkpt>
      <trkpt lat="47.39756" lon="-0.41188">
        <ele>44.4</ele>
        <time>2013-02-13T09:02:40.700Z</time>
      </trkpt>
      <trkpt lat="47.39755" lon="-0.41186">
        <ele>44.7</ele>
        <time>2013-02-13T09:02:41.720Z</time>
      </trkpt>
      <trkpt lat="47.39755" lon="-0.41183">
        <ele>45</ele>
        <time>2013-02-13T09:02:42.780Z</time>
      </trkpt>
      <trkpt lat="47.39755" lon="-0.4118">
        <ele>45.3</ele>
        <time>2013-02-13T09:02:44.720Z</time>
      </trkpt>
      <trkpt lat="47.39756" lon="-0.41178">
        <ele>45.5</ele>
        <time>2013-02-13T09:02:45.790Z</time>
      </trkpt>
      <trkpt lat="47.39756" lon="-0.41173">
        <ele>46</ele>
        <time>2013-02-13T09:02:47.670Z</time>
      </trkpt>
      <trkpt lat="47.39757" lon="-0.4117">
        <ele>46.2</ele>
        <time>2013-02-13T09:02:48.860Z</time>
      </trkpt>
      <trkpt lat="47.39758" lon="-0.41166">
        <ele>46.5</ele>
        <time>2013-02-13T09:02:50.820Z</time>
      </trkpt>
      <trkpt lat="47.3976" lon="-0.41161">
        <ele>46.9</ele>
        <time>2013-02-13T09:02:52.670Z</time>
      </trkpt>
      <trkpt lat="47.39761" lon="-0.41159">
        <ele>47</ele>
        <time>2013-02-13T09:02:53.720Z</time>
      </trkpt>
      <trkpt lat="47.39761" lon="-0.41156">
        <ele>47.2</ele>
        <time>2013-02-13T09:02:54.770Z</time>
      </trkpt>
      <trkpt lat="47.39763" lon="-0.41151">
        <ele>47.5</ele>
        <time>2013-02-13T09:02:56.670Z</time>
      </trkpt>
      <trkpt lat="47.39763" lon="-0.41148">
        <ele>47.7</ele>
        <time>2013-02-13T09:02:57.670Z</time>
      </trkpt>
      <trkpt lat="47.39764" lon="-0.41146">
        <ele>47.9</ele>
        <time>2013-02-13T09:02:58.670Z</time>
      </trkpt>
      <trkpt lat="47.39765" lon="-0.41143">
        <ele>48.1</ele>
        <time>2013-02-13T09:02:59.700Z</time>
      </trkpt>
      <trkpt lat="47.39765" lon="-0.4114">
        <ele>47.9</ele>
        <time>2013-02-13T09:03:00.710Z</time>
      </trkpt>
      <trkpt lat="47.39766" lon="-0.41138">
        <ele>48.3</ele>
        <time>2013-02-13T09:03:01.770Z</time>
      </trkpt>
      <trkpt lat="47.39768" lon="-0.41133">
        <ele>48.5</ele>
        <time>2013-02-13T09:03:03.670Z</time>
      </trkpt>
      <trkpt lat="47.39768" lon="-0.4113">
        <ele>48.6</ele>
        <time>2013-02-13T09:03:04.710Z</time>
      </trkpt>
      <trkpt lat="47.39769" lon="-0.41127">
        <ele>48.7</ele>
        <time>2013-02-13T09:03:05.950Z</time>
      </trkpt>
      <trkpt lat="47.39769" lon="-0.4112">
        <ele>49.1</ele>
        <time>2013-02-13T09:03:07.670Z</time>
      </trkpt>
      <trkpt lat="47.3977" lon="-0.41117">
        <ele>49.2</ele>
        <time>2013-02-13T09:03:08.680Z</time>
      </trkpt>
      <trkpt lat="47.3977" lon="-0.41115">
        <ele>49.3</ele>
        <time>2013-02-13T09:03:09.770Z</time>
      </trkpt>
      <trkpt lat="47.39771" lon="-0.41109">
        <ele>49.5</ele>
        <time>2013-02-13T09:03:11.710Z</time>
      </trkpt>
      <trkpt lat="47.39772" lon="-0.41106">
        <ele>49.6</ele>
        <time>2013-02-13T09:03:12.710Z</time>
      </trkpt>
      <trkpt lat="47.39771" lon="-0.41104">
        <ele>49.7</ele>
        <time>2013-02-13T09:03:13.710Z</time>
      </trkpt>
      <trkpt lat="47.39772" lon="-0.41101">
        <ele>49.8</ele>
        <time>2013-02-13T09:03:14.710Z</time>
      </trkpt>
      <trkpt lat="47.39771" lon="-0.41098">
        <ele>50</ele>
        <time>2013-02-13T09:03:15.770Z</time>
      </trkpt>
      <trkpt lat="47.39771" lon="-0.41095">
        <ele>50.1</ele>
        <time>2013-02-13T09:03:16.850Z</time>
      </trkpt>
      <trkpt lat="47.39772" lon="-0.41089">
        <ele>50.2</ele>
        <time>2013-02-13T09:03:18.670Z</time>
      </trkpt>
      <trkpt lat="47.39772" lon="-0.41086">
        <ele>50.4</ele>
        <time>2013-02-13T09:03:19.770Z</time>
      </trkpt>
      <trkpt lat="47.39772" lon="-0.4108">
        <ele>50.5</ele>
        <time>2013-02-13T09:03:21.670Z</time>
      </trkpt>
      <trkpt lat="47.39772" lon="-0.41078">
        <ele>50.6</ele>
        <time>2013-02-13T09:03:22.670Z</time>
      </trkpt>
      <trkpt lat="47.39771" lon="-0.41075">
        <ele>50.8</ele>
        <time>2013-02-13T09:03:23.670Z</time>
      </trkpt>
      <trkpt lat="47.39771" lon="-0.41073">
        <ele>50.9</ele>
        <time>2013-02-13T09:03:24.670Z</time>
      </trkpt>
      <trkpt lat="47.39771" lon="-0.41069">
        <ele>51</ele>
        <time>2013-02-13T09:03:25.760Z</time>
      </trkpt>
      <trkpt lat="47.3977" lon="-0.41064">
        <ele>51.2</ele>
        <time>2013-02-13T09:03:27.770Z</time>
      </trkpt>
      <trkpt lat="47.39771" lon="-0.41058">
        <ele>51.4</ele>
        <time>2013-02-13T09:03:29.670Z</time>
      </trkpt>
      <trkpt lat="47.39772" lon="-0.41056">
        <ele>51.5</ele>
        <time>2013-02-13T09:03:30.670Z</time>
      </trkpt>
      <trkpt lat="47.39772" lon="-0.41052">
        <ele>51.4</ele>
        <time>2013-02-13T09:03:31.670Z</time>
      </trkpt>
      <trkpt lat="47.39772" lon="-0.4105">
        <ele>51.4</ele>
        <time>2013-02-13T09:03:32.670Z</time>
      </trkpt>
      <trkpt lat="47.39773" lon="-0.41046">
        <ele>51.4</ele>
        <time>2013-02-13T09:03:33.680Z</time>
      </trkpt>
      <trkpt lat="47.39774" lon="-0.41043">
        <ele>51.4</ele>
        <time>2013-02-13T09:03:34.710Z</time>
      </trkpt>
      <trkpt lat="47.39774" lon="-0.41041">
        <ele>51.3</ele>
        <time>2013-02-13T09:03:35.790Z</time>
      </trkpt>
      <trkpt lat="47.39775" lon="-0.41035">
        <ele>51.3</ele>
        <time>2013-02-13T09:03:37.790Z</time>
      </trkpt>
      <trkpt lat="47.39775" lon="-0.41029">
        <ele>51.3</ele>
        <time>2013-02-13T09:03:39.700Z</time>
      </trkpt>
      <trkpt lat="47.39775" lon="-0.41026">
        <ele>51.4</ele>
        <time>2013-02-13T09:03:40.850Z</time>
      </trkpt>
      <trkpt lat="47.39774" lon="-0.41019">
        <ele>51.7</ele>
        <time>2013-02-13T09:03:42.760Z</time>
      </trkpt>
      <trkpt lat="47.39774" lon="-0.41012">
        <ele>51.9</ele>
        <time>2013-02-13T09:03:44.670Z</time>
      </trkpt>
      <trkpt lat="47.39774" lon="-0.41008">
        <ele>52</ele>
        <time>2013-02-13T09:03:45.670Z</time>
      </trkpt>
      <trkpt lat="47.39774" lon="-0.41005">
        <ele>52.1</ele>
        <time>2013-02-13T09:03:46.670Z</time>
      </trkpt>
      <trkpt lat="47.39774" lon="-0.41002">
        <ele>52.2</ele>
        <time>2013-02-13T09:03:47.670Z</time>
      </trkpt>
      <trkpt lat="47.39774" lon="-0.40998">
        <ele>52.3</ele>
        <time>2013-02-13T09:03:48.700Z</time>
      </trkpt>
      <trkpt lat="47.39773" lon="-0.40995">
        <ele>52.4</ele>
        <time>2013-02-13T09:03:49.790Z</time>
      </trkpt>
      <trkpt lat="47.39772" lon="-0.40987">
        <ele>52.5</ele>
        <time>2013-02-13T09:03:51.670Z</time>
      </trkpt>
      <trkpt lat="47.39772" lon="-0.40984">
        <ele>52.5</ele>
        <time>2013-02-13T09:03:52.770Z</time>
      </trkpt>
      <trkpt lat="47.39772" lon="-0.40978">
        <ele>52.6</ele>
        <time>2013-02-13T09:03:54.670Z</time>
      </trkpt>
      <trkpt lat="47.39772" lon="-0.40975">
        <ele>52.7</ele>
        <time>2013-02-13T09:03:55.670Z</time>
      </trkpt>
      <trkpt lat="47.39771" lon="-0.40973">
        <ele>52.8</ele>
        <time>2013-02-13T09:03:56.670Z</time>
      </trkpt>
      <trkpt lat="47.3977" lon="-0.4097">
        <ele>52.8</ele>
        <time>2013-02-13T09:03:57.850Z</time>
      </trkpt>
      <trkpt lat="47.39768" lon="-0.40964">
        <ele>52.9</ele>
        <time>2013-02-13T09:03:59.910Z</time>
      </trkpt>
      <trkpt lat="47.39766" lon="-0.40957">
        <ele>58.9</ele>
        <time>2013-02-13T09:04:01.770Z</time>
      </trkpt>
      <trkpt lat="47.39763" lon="-0.40952">
        <ele>53.3</ele>
        <time>2013-02-13T09:04:03.780Z</time>
      </trkpt>
      <trkpt lat="47.3976" lon="-0.40947">
        <ele>53.6</ele>
        <time>2013-02-13T09:04:05.670Z</time>
      </trkpt>
      <trkpt lat="47.39758" lon="-0.40945">
        <ele>53.8</ele>
        <time>2013-02-13T09:04:06.670Z</time>
      </trkpt>
      <trkpt lat="47.39757" lon="-0.40942">
        <ele>54</ele>
        <time>2013-02-13T09:04:07.670Z</time>
      </trkpt>
      <trkpt lat="47.39756" lon="-0.4094">
        <ele>54.2</ele>
        <time>2013-02-13T09:04:08.800Z</time>
      </trkpt>
      <trkpt lat="47.39755" lon="-0.40934">
        <ele>54.3</ele>
        <time>2013-02-13T09:04:10.700Z</time>
      </trkpt>
      <trkpt lat="47.39756" lon="-0.40932">
        <ele>54.2</ele>
        <time>2013-02-13T09:04:11.700Z</time>
      </trkpt>
      <trkpt lat="47.39756" lon="-0.40929">
        <ele>54.1</ele>
        <time>2013-02-13T09:04:12.700Z</time>
      </trkpt>
      <trkpt lat="47.39757" lon="-0.40926">
        <ele>54</ele>
        <time>2013-02-13T09:04:13.780Z</time>
      </trkpt>
      <trkpt lat="47.3976" lon="-0.40923">
        <ele>53.6</ele>
        <time>2013-02-13T09:04:15.830Z</time>
      </trkpt>
      <trkpt lat="47.39761" lon="-0.40921">
        <ele>53.4</ele>
        <time>2013-02-13T09:04:16.970Z</time>
      </trkpt>
      <trkpt lat="47.39763" lon="-0.40916">
        <ele>53.1</ele>
        <time>2013-02-13T09:04:18.780Z</time>
      </trkpt>
      <trkpt lat="47.39765" lon="-0.40911">
        <ele>53</ele>
        <time>2013-02-13T09:04:20.670Z</time>
      </trkpt>
      <trkpt lat="47.39766" lon="-0.40909">
        <ele>52.9</ele>
        <time>2013-02-13T09:04:21.690Z</time>
      </trkpt>
      <trkpt lat="47.39767" lon="-0.40907">
        <ele>52.8</ele>
        <time>2013-02-13T09:04:22.690Z</time>
      </trkpt>
      <trkpt lat="47.39768" lon="-0.40905">
        <ele>52.7</ele>
        <time>2013-02-13T09:04:23.690Z</time>
      </trkpt>
      <trkpt lat="47.39768" lon="-0.40903">
        <ele>52.7</ele>
        <time>2013-02-13T09:04:24.690Z</time>
      </trkpt>
      <trkpt lat="47.39769" lon="-0.409">
        <ele>52.7</ele>
        <time>2013-02-13T09:04:25.780Z</time>
      </trkpt>
      <trkpt lat="47.39769" lon="-0.40894">
        <ele>52.8</ele>
        <time>2013-02-13T09:04:27.930Z</time>
      </trkpt>
      <trkpt lat="47.39771" lon="-0.40889">
        <ele>52.7</ele>
        <time>2013-02-13T09:04:29.670Z</time>
      </trkpt>
      <trkpt lat="47.39772" lon="-0.40886">
        <ele>52.5</ele>
        <time>2013-02-13T09:04:30.670Z</time>
      </trkpt>
      <trkpt lat="47.39773" lon="-0.40883">
        <ele>52.3</ele>
        <time>2013-02-13T09:04:31.670Z</time>
      </trkpt>
      <trkpt lat="47.39775" lon="-0.4088">
        <ele>52.1</ele>
        <time>2013-02-13T09:04:32.770Z</time>
      </trkpt>
      <trkpt lat="47.39777" lon="-0.40873">
        <ele>51.6</ele>
        <time>2013-02-13T09:04:34.670Z</time>
      </trkpt>
      <trkpt lat="47.39777" lon="-0.4087">
        <ele>51.4</ele>
        <time>2013-02-13T09:04:35.690Z</time>
      </trkpt>
      <trkpt lat="47.39778" lon="-0.40867">
        <ele>51.1</ele>
        <time>2013-02-13T09:04:36.780Z</time>
      </trkpt>
      <trkpt lat="47.39782" lon="-0.40862">
        <ele>50</ele>
        <time>2013-02-13T09:04:38.860Z</time>
      </trkpt>
      <trkpt lat="47.39784" lon="-0.40854">
        <ele>49.8</ele>
        <time>2013-02-13T09:04:40.690Z</time>
      </trkpt>
      <trkpt lat="47.39785" lon="-0.4085">
        <ele>49.7</ele>
        <time>2013-02-13T09:04:41.690Z</time>
      </trkpt>
      <trkpt lat="47.39787" lon="-0.40847">
        <ele>49.5</ele>
        <time>2013-02-13T09:04:42.770Z</time>
      </trkpt>
      <trkpt lat="47.39789" lon="-0.40841">
        <ele>49.3</ele>
        <time>2013-02-13T09:04:44.780Z</time>
      </trkpt>
      <trkpt lat="47.3979" lon="-0.40836">
        <ele>49.3</ele>
        <time>2013-02-13T09:04:46.690Z</time>
      </trkpt>
      <trkpt lat="47.39791" lon="-0.40833">
        <ele>49.3</ele>
        <time>2013-02-13T09:04:47.690Z</time>
      </trkpt>
      <trkpt lat="47.39792" lon="-0.4083">
        <ele>49</ele>
        <time>2013-02-13T09:04:48.790Z</time>
      </trkpt>
      <trkpt lat="47.39793" lon="-0.40824">
        <ele>48.7</ele>
        <time>2013-02-13T09:04:50.740Z</time>
      </trkpt>
      <trkpt lat="47.39794" lon="-0.40821">
        <ele>48.6</ele>
        <time>2013-02-13T09:04:51.780Z</time>
      </trkpt>
      <trkpt lat="47.39795" lon="-0.40814">
        <ele>48.4</ele>
        <time>2013-02-13T09:04:53.690Z</time>
      </trkpt>
      <trkpt lat="47.39796" lon="-0.40811">
        <ele>48.4</ele>
        <time>2013-02-13T09:04:54.820Z</time>
      </trkpt>
      <trkpt lat="47.39796" lon="-0.40808">
        <ele>48.4</ele>
        <time>2013-02-13T09:04:55.770Z</time>
      </trkpt>
      <trkpt lat="47.39796" lon="-0.40802">
        <ele>48.3</ele>
        <time>2013-02-13T09:04:57.690Z</time>
      </trkpt>
      <trkpt lat="47.39797" lon="-0.40799">
        <ele>48.2</ele>
        <time>2013-02-13T09:04:58.790Z</time>
      </trkpt>
      <trkpt lat="47.39797" lon="-0.40795">
        <ele>48.1</ele>
        <time>2013-02-13T09:04:59.830Z</time>
      </trkpt>
      <trkpt lat="47.39797" lon="-0.40789">
        <ele>62.3</ele>
        <time>2013-02-13T09:05:01.680Z</time>
      </trkpt>
      <trkpt lat="47.39798" lon="-0.40786">
        <ele>47.8</ele>
        <time>2013-02-13T09:05:02.690Z</time>
      </trkpt>
      <trkpt lat="47.39799" lon="-0.40783">
        <ele>47.6</ele>
        <time>2013-02-13T09:05:03.680Z</time>
      </trkpt>
      <trkpt lat="47.398" lon="-0.4078">
        <ele>47.3</ele>
        <time>2013-02-13T09:05:04.780Z</time>
      </trkpt>
      <trkpt lat="47.39803" lon="-0.40773">
        <ele>46.6</ele>
        <time>2013-02-13T09:05:06.780Z</time>
      </trkpt>
      <trkpt lat="47.39804" lon="-0.40766">
        <ele>46.3</ele>
        <time>2013-02-13T09:05:08.670Z</time>
      </trkpt>
      <trkpt lat="47.39804" lon="-0.40763">
        <ele>46.2</ele>
        <time>2013-02-13T09:05:09.670Z</time>
      </trkpt>
      <trkpt lat="47.39805" lon="-0.40759">
        <ele>46</ele>
        <time>2013-02-13T09:05:10.830Z</time>
      </trkpt>
      <trkpt lat="47.39807" lon="-0.40753">
        <ele>45.6</ele>
        <time>2013-02-13T09:05:12.680Z</time>
      </trkpt>
      <trkpt lat="47.39807" lon="-0.4075">
        <ele>45.5</ele>
        <time>2013-02-13T09:05:13.680Z</time>
      </trkpt>
      <trkpt lat="47.39809" lon="-0.40747">
        <ele>45.3</ele>
        <time>2013-02-13T09:05:14.680Z</time>
      </trkpt>
      <trkpt lat="47.39809" lon="-0.40743">
        <ele>45.2</ele>
        <time>2013-02-13T09:05:15.770Z</time>
      </trkpt>
      <trkpt lat="47.39811" lon="-0.40736">
        <ele>44.8</ele>
        <time>2013-02-13T09:05:17.780Z</time>
      </trkpt>
      <trkpt lat="47.39813" lon="-0.4073">
        <ele>44.3</ele>
        <time>2013-02-13T09:05:19.780Z</time>
      </trkpt>
      <trkpt lat="47.39815" lon="-0.40723">
        <ele>44</ele>
        <time>2013-02-13T09:05:21.690Z</time>
      </trkpt>
      <trkpt lat="47.39815" lon="-0.4072">
        <ele>44</ele>
        <time>2013-02-13T09:05:22.770Z</time>
      </trkpt>
      <trkpt lat="47.39815" lon="-0.40713">
        <ele>44.3</ele>
        <time>2013-02-13T09:05:24.730Z</time>
      </trkpt>
      <trkpt lat="47.39815" lon="-0.40711">
        <ele>44.3</ele>
        <time>2013-02-13T09:05:25.690Z</time>
      </trkpt>
      <trkpt lat="47.39816" lon="-0.40708">
        <ele>44.2</ele>
        <time>2013-02-13T09:05:26.680Z</time>
      </trkpt>
      <trkpt lat="47.39817" lon="-0.40705">
        <ele>44.2</ele>
        <time>2013-02-13T09:05:27.850Z</time>
      </trkpt>
      <trkpt lat="47.39818" lon="-0.40699">
        <ele>44</ele>
        <time>2013-02-13T09:05:29.690Z</time>
      </trkpt>
      <trkpt lat="47.39819" lon="-0.40697">
        <ele>44</ele>
        <time>2013-02-13T09:05:30.760Z</time>
      </trkpt>
      <trkpt lat="47.39821" lon="-0.40692">
        <ele>44.1</ele>
        <time>2013-02-13T09:05:32.670Z</time>
      </trkpt>
      <trkpt lat="47.39822" lon="-0.40689">
        <ele>44.2</ele>
        <time>2013-02-13T09:05:33.730Z</time>
      </trkpt>
      <trkpt lat="47.39824" lon="-0.40685">
        <ele>44.1</ele>
        <time>2013-02-13T09:05:35.780Z</time>
      </trkpt>
      <trkpt lat="47.39827" lon="-0.4068">
        <ele>44.1</ele>
        <time>2013-02-13T09:05:37.670Z</time>
      </trkpt>
      <trkpt lat="47.39829" lon="-0.40677">
        <ele>43.9</ele>
        <time>2013-02-13T09:05:38.670Z</time>
      </trkpt>
      <trkpt lat="47.3983" lon="-0.40675">
        <ele>43.9</ele>
        <time>2013-02-13T09:05:39.810Z</time>
      </trkpt>
      <trkpt lat="47.39834" lon="-0.40672">
        <ele>43.4</ele>
        <time>2013-02-13T09:05:41.730Z</time>
      </trkpt>
      <trkpt lat="47.39837" lon="-0.40669">
        <ele>43.4</ele>
        <time>2013-02-13T09:05:43.840Z</time>
      </trkpt>
      <trkpt lat="47.39839" lon="-0.40666">
        <ele>43.5</ele>
        <time>2013-02-13T09:05:45.670Z</time>
      </trkpt>
      <trkpt lat="47.39841" lon="-0.40664">
        <ele>43.7</ele>
        <time>2013-02-13T09:05:46.780Z</time>
      </trkpt>
      <trkpt lat="47.39845" lon="-0.40662">
        <ele>43.5</ele>
        <time>2013-02-13T09:05:48.780Z</time>
      </trkpt>
      <trkpt lat="47.39848" lon="-0.4066">
        <ele>43.4</ele>
        <time>2013-02-13T09:05:50.730Z</time>
      </trkpt>
      <trkpt lat="47.39851" lon="-0.40657">
        <ele>43.3</ele>
        <time>2013-02-13T09:05:52.780Z</time>
      </trkpt>
      <trkpt lat="47.39856" lon="-0.40654">
        <ele>43.2</ele>
        <time>2013-02-13T09:05:54.780Z</time>
      </trkpt>
      <trkpt lat="47.3986" lon="-0.40651">
        <ele>42.9</ele>
        <time>2013-02-13T09:05:56.780Z</time>
      </trkpt>
      <trkpt lat="47.39864" lon="-0.40649">
        <ele>42.6</ele>
        <time>2013-02-13T09:05:58.790Z</time>
      </trkpt>
      <trkpt lat="47.39869" lon="-0.40646">
        <ele>61.8</ele>
        <time>2013-02-13T09:06:00.770Z</time>
      </trkpt>
      <trkpt lat="47.39874" lon="-0.40643">
        <ele>42.2</ele>
        <time>2013-02-13T09:06:02.770Z</time>
      </trkpt>
      <trkpt lat="47.39875" lon="-0.40642">
        <ele>42.1</ele>
        <time>2013-02-13T09:06:03.670Z</time>
      </trkpt>
      <trkpt lat="47.39877" lon="-0.40641">
        <ele>42</ele>
        <time>2013-02-13T09:06:04.770Z</time>
      </trkpt>
      <trkpt lat="47.39879" lon="-0.40641">
        <ele>41.9</ele>
        <time>2013-02-13T09:06:05.680Z</time>
      </trkpt>
      <trkpt lat="47.39881" lon="-0.40639">
        <ele>41.8</ele>
        <time>2013-02-13T09:06:06.780Z</time>
      </trkpt>
      <trkpt lat="47.39886" lon="-0.40639">
        <ele>41.4</ele>
        <time>2013-02-13T09:06:08.770Z</time>
      </trkpt>
      <trkpt lat="47.39887" lon="-0.40638">
        <ele>41.3</ele>
        <time>2013-02-13T09:06:09.670Z</time>
      </trkpt>
      <trkpt lat="47.39889" lon="-0.40637">
        <ele>41.2</ele>
        <time>2013-02-13T09:06:10.780Z</time>
      </trkpt>
      <trkpt lat="47.39893" lon="-0.40634">
        <ele>41</ele>
        <time>2013-02-13T09:06:12.770Z</time>
      </trkpt>
      <trkpt lat="47.39895" lon="-0.40632">
        <ele>41</ele>
        <time>2013-02-13T09:06:13.670Z</time>
      </trkpt>
      <trkpt lat="47.39897" lon="-0.40631">
        <ele>40.9</ele>
        <time>2013-02-13T09:06:14.670Z</time>
      </trkpt>
      <trkpt lat="47.39899" lon="-0.40631">
        <ele>40.8</ele>
        <time>2013-02-13T09:06:15.720Z</time>
      </trkpt>
      <trkpt lat="47.39901" lon="-0.40631">
        <ele>40.6</ele>
        <time>2013-02-13T09:06:16.680Z</time>
      </trkpt>
      <trkpt lat="47.39903" lon="-0.40632">
        <ele>40.3</ele>
        <time>2013-02-13T09:06:17.770Z</time>
      </trkpt>
      <trkpt lat="47.39904" lon="-0.40632">
        <ele>40</ele>
        <time>2013-02-13T09:06:18.670Z</time>
      </trkpt>
      <trkpt lat="47.39908" lon="-0.40633">
        <ele>39.6</ele>
        <time>2013-02-13T09:06:19.750Z</time>
      </trkpt>
      <trkpt lat="47.3991" lon="-0.40634">
        <ele>39.2</ele>
        <time>2013-02-13T09:06:20.670Z</time>
      </trkpt>
      <trkpt lat="47.39913" lon="-0.40634">
        <ele>38.9</ele>
        <time>2013-02-13T09:06:21.760Z</time>
      </trkpt>
      <trkpt lat="47.39916" lon="-0.40635">
        <ele>38.5</ele>
        <time>2013-02-13T09:06:22.670Z</time>
      </trkpt>
      <trkpt lat="47.39918" lon="-0.40635">
        <ele>38.4</ele>
        <time>2013-02-13T09:06:23.800Z</time>
      </trkpt>
      <trkpt lat="47.3992" lon="-0.40635">
        <ele>38.3</ele>
        <time>2013-02-13T09:06:24.760Z</time>
      </trkpt>
      <trkpt lat="47.39922" lon="-0.40635">
        <ele>38.2</ele>
        <time>2013-02-13T09:06:25.670Z</time>
      </trkpt>
      <trkpt lat="47.39924" lon="-0.40634">
        <ele>38.2</ele>
        <time>2013-02-13T09:06:26.760Z</time>
      </trkpt>
      <trkpt lat="47.39927" lon="-0.40635">
        <ele>38.1</ele>
        <time>2013-02-13T09:06:27.670Z</time>
      </trkpt>
      <trkpt lat="47.3993" lon="-0.40635">
        <ele>38</ele>
        <time>2013-02-13T09:06:28.760Z</time>
      </trkpt>
      <trkpt lat="47.39934" lon="-0.40635">
        <ele>37.8</ele>
        <time>2013-02-13T09:06:30.760Z</time>
      </trkpt>
      <trkpt lat="47.39937" lon="-0.40634">
        <ele>37.8</ele>
        <time>2013-02-13T09:06:31.670Z</time>
      </trkpt>
      <trkpt lat="47.39939" lon="-0.40634">
        <ele>37.8</ele>
        <time>2013-02-13T09:06:32.720Z</time>
      </trkpt>
      <trkpt lat="47.39941" lon="-0.40634">
        <ele>37.7</ele>
        <time>2013-02-13T09:06:33.680Z</time>
      </trkpt>
      <trkpt lat="47.39944" lon="-0.40633">
        <ele>37.6</ele>
        <time>2013-02-13T09:06:34.760Z</time>
      </trkpt>
      <trkpt lat="47.39946" lon="-0.40633">
        <ele>37.6</ele>
        <time>2013-02-13T09:06:35.670Z</time>
      </trkpt>
      <trkpt lat="47.39949" lon="-0.40633">
        <ele>37.6</ele>
        <time>2013-02-13T09:06:36.760Z</time>
      </trkpt>
      <trkpt lat="47.39951" lon="-0.40632">
        <ele>37.6</ele>
        <time>2013-02-13T09:06:37.670Z</time>
      </trkpt>
      <trkpt lat="47.39954" lon="-0.40632">
        <ele>37.6</ele>
        <time>2013-02-13T09:06:38.670Z</time>
      </trkpt>
      <trkpt lat="47.39956" lon="-0.40632">
        <ele>37.5</ele>
        <time>2013-02-13T09:06:39.760Z</time>
      </trkpt>
      <trkpt lat="47.39959" lon="-0.40632">
        <ele>37.5</ele>
        <time>2013-02-13T09:06:40.670Z</time>
      </trkpt>
      <trkpt lat="47.39961" lon="-0.40631">
        <ele>37.5</ele>
        <time>2013-02-13T09:06:41.900Z</time>
      </trkpt>
      <trkpt lat="47.39963" lon="-0.40631">
        <ele>37.5</ele>
        <time>2013-02-13T09:06:42.670Z</time>
      </trkpt>
      <trkpt lat="47.39966" lon="-0.40632">
        <ele>37.4</ele>
        <time>2013-02-13T09:06:43.850Z</time>
      </trkpt>
      <trkpt lat="47.3997" lon="-0.40633">
        <ele>37.3</ele>
        <time>2013-02-13T09:06:45.670Z</time>
      </trkpt>
      <trkpt lat="47.39972" lon="-0.40634">
        <ele>37.2</ele>
        <time>2013-02-13T09:06:46.760Z</time>
      </trkpt>
      <trkpt lat="47.39974" lon="-0.40635">
        <ele>37.1</ele>
        <time>2013-02-13T09:06:47.670Z</time>
      </trkpt>
      <trkpt lat="47.39976" lon="-0.40635">
        <ele>37</ele>
        <time>2013-02-13T09:06:48.760Z</time>
      </trkpt>
      <trkpt lat="47.39978" lon="-0.40635">
        <ele>36.9</ele>
        <time>2013-02-13T09:06:49.680Z</time>
      </trkpt>
      <trkpt lat="47.3998" lon="-0.40635">
        <ele>36.8</ele>
        <time>2013-02-13T09:06:50.680Z</time>
      </trkpt>
      <trkpt lat="47.39982" lon="-0.40635">
        <ele>36.8</ele>
        <time>2013-02-13T09:06:51.760Z</time>
      </trkpt>
      <trkpt lat="47.39984" lon="-0.40635">
        <ele>36.7</ele>
        <time>2013-02-13T09:06:52.670Z</time>
      </trkpt>
      <trkpt lat="47.39986" lon="-0.40635">
        <ele>36.6</ele>
        <time>2013-02-13T09:06:53.740Z</time>
      </trkpt>
      <trkpt lat="47.39989" lon="-0.40635">
        <ele>36.5</ele>
        <time>2013-02-13T09:06:54.670Z</time>
      </trkpt>
      <trkpt lat="47.39991" lon="-0.40635">
        <ele>36.4</ele>
        <time>2013-02-13T09:06:55.760Z</time>
      </trkpt>
      <trkpt lat="47.39993" lon="-0.40635">
        <ele>36.3</ele>
        <time>2013-02-13T09:06:56.890Z</time>
      </trkpt>
      <trkpt lat="47.39997" lon="-0.40635">
        <ele>36.1</ele>
        <time>2013-02-13T09:06:57.680Z</time>
      </trkpt>
      <trkpt lat="47.39999" lon="-0.40635">
        <ele>36.1</ele>
        <time>2013-02-13T09:06:58.760Z</time>
      </trkpt>
      <trkpt lat="47.40001" lon="-0.40634">
        <ele>35.9</ele>
        <time>2013-02-13T09:06:59.760Z</time>
      </trkpt>
      <trkpt lat="47.40006" lon="-0.40633">
        <ele>41.1</ele>
        <time>2013-02-13T09:07:01.670Z</time>
      </trkpt>
      <trkpt lat="47.40008" lon="-0.40633">
        <ele>35.1</ele>
        <time>2013-02-13T09:07:02.740Z</time>
      </trkpt>
      <trkpt lat="47.4001" lon="-0.40632">
        <ele>34.9</ele>
        <time>2013-02-13T09:07:03.670Z</time>
      </trkpt>
      <trkpt lat="47.40012" lon="-0.40631">
        <ele>34.7</ele>
        <time>2013-02-13T09:07:04.750Z</time>
      </trkpt>
      <trkpt lat="47.40014" lon="-0.40629">
        <ele>34.4</ele>
        <time>2013-02-13T09:07:05.670Z</time>
      </trkpt>
      <trkpt lat="47.40017" lon="-0.40628">
        <ele>34.2</ele>
        <time>2013-02-13T09:07:06.710Z</time>
      </trkpt>
      <trkpt lat="47.40018" lon="-0.40626">
        <ele>34</ele>
        <time>2013-02-13T09:07:07.670Z</time>
      </trkpt>
      <trkpt lat="47.40021" lon="-0.40624">
        <ele>33.8</ele>
        <time>2013-02-13T09:07:08.770Z</time>
      </trkpt>
      <trkpt lat="47.40025" lon="-0.40619">
        <ele>33.3</ele>
        <time>2013-02-13T09:07:10.670Z</time>
      </trkpt>
      <trkpt lat="47.40027" lon="-0.40617">
        <ele>33.1</ele>
        <time>2013-02-13T09:07:11.790Z</time>
      </trkpt>
      <trkpt lat="47.40029" lon="-0.40614">
        <ele>32.8</ele>
        <time>2013-02-13T09:07:12.750Z</time>
      </trkpt>
      <trkpt lat="47.4003" lon="-0.40612">
        <ele>32.6</ele>
        <time>2013-02-13T09:07:13.670Z</time>
      </trkpt>
      <trkpt lat="47.40033" lon="-0.40607">
        <ele>32.4</ele>
        <time>2013-02-13T09:07:15.770Z</time>
      </trkpt>
      <trkpt lat="47.40034" lon="-0.40604">
        <ele>32.3</ele>
        <time>2013-02-13T09:07:16.900Z</time>
      </trkpt>
      <trkpt lat="47.40036" lon="-0.40598">
        <ele>32.2</ele>
        <time>2013-02-13T09:07:18.670Z</time>
      </trkpt>
      <trkpt lat="47.40037" lon="-0.40595">
        <ele>32.1</ele>
        <time>2013-02-13T09:07:19.760Z</time>
      </trkpt>
      <trkpt lat="47.40038" lon="-0.40589">
        <ele>32</ele>
        <time>2013-02-13T09:07:21.670Z</time>
      </trkpt>
      <trkpt lat="47.4004" lon="-0.40585">
        <ele>31.8</ele>
        <time>2013-02-13T09:07:22.750Z</time>
      </trkpt>
      <trkpt lat="47.4004" lon="-0.40582">
        <ele>31.8</ele>
        <time>2013-02-13T09:07:23.680Z</time>
      </trkpt>
      <trkpt lat="47.40042" lon="-0.40578">
        <ele>31.6</ele>
        <time>2013-02-13T09:07:24.750Z</time>
      </trkpt>
      <trkpt lat="47.40043" lon="-0.40575">
        <ele>31.5</ele>
        <time>2013-02-13T09:07:25.670Z</time>
      </trkpt>
      <trkpt lat="47.40043" lon="-0.40572">
        <ele>31.5</ele>
        <time>2013-02-13T09:07:26.890Z</time>
      </trkpt>
      <trkpt lat="47.40046" lon="-0.40564">
        <ele>31.3</ele>
        <time>2013-02-13T09:07:28.670Z</time>
      </trkpt>
      <trkpt lat="47.40047" lon="-0.4056">
        <ele>31.2</ele>
        <time>2013-02-13T09:07:29.750Z</time>
      </trkpt>
      <trkpt lat="47.40048" lon="-0.40556">
        <ele>31</ele>
        <time>2013-02-13T09:07:30.670Z</time>
      </trkpt>
      <trkpt lat="47.40049" lon="-0.40552">
        <ele>30.9</ele>
        <time>2013-02-13T09:07:31.750Z</time>
      </trkpt>
      <trkpt lat="47.4005" lon="-0.40549">
        <ele>30.8</ele>
        <time>2013-02-13T09:07:32.670Z</time>
      </trkpt>
      <trkpt lat="47.40051" lon="-0.40546">
        <ele>30.7</ele>
        <time>2013-02-13T09:07:33.700Z</time>
      </trkpt>
      <trkpt lat="47.40053" lon="-0.40542">
        <ele>30.4</ele>
        <time>2013-02-13T09:07:34.670Z</time>
      </trkpt>
      <trkpt lat="47.40054" lon="-0.40538">
        <ele>30.3</ele>
        <time>2013-02-13T09:07:35.750Z</time>
      </trkpt>
      <trkpt lat="47.40054" lon="-0.40534">
        <ele>30.2</ele>
        <time>2013-02-13T09:07:36.670Z</time>
      </trkpt>
      <trkpt lat="47.40055" lon="-0.40531">
        <ele>30.1</ele>
        <time>2013-02-13T09:07:37.750Z</time>
      </trkpt>
      <trkpt lat="47.40055" lon="-0.40527">
        <ele>30.1</ele>
        <time>2013-02-13T09:07:38.670Z</time>
      </trkpt>
      <trkpt lat="47.40055" lon="-0.40523">
        <ele>30.3</ele>
        <time>2013-02-13T09:07:39.750Z</time>
      </trkpt>
      <trkpt lat="47.40055" lon="-0.4052">
        <ele>30.4</ele>
        <time>2013-02-13T09:07:40.830Z</time>
      </trkpt>
      <trkpt lat="47.40055" lon="-0.40514">
        <ele>30.5</ele>
        <time>2013-02-13T09:07:42.740Z</time>
      </trkpt>
      <trkpt lat="47.40056" lon="-0.40511">
        <ele>30.6</ele>
        <time>2013-02-13T09:07:43.670Z</time>
      </trkpt>
      <trkpt lat="47.40056" lon="-0.40507">
        <ele>30.7</ele>
        <time>2013-02-13T09:07:44.740Z</time>
      </trkpt>
      <trkpt lat="47.40056" lon="-0.40504">
        <ele>30.8</ele>
        <time>2013-02-13T09:07:45.670Z</time>
      </trkpt>
      <trkpt lat="47.40056" lon="-0.40501">
        <ele>30.9</ele>
        <time>2013-02-13T09:07:46.760Z</time>
      </trkpt>
      <trkpt lat="47.40056" lon="-0.40494">
        <ele>31.2</ele>
        <time>2013-02-13T09:07:48.670Z</time>
      </trkpt>
      <trkpt lat="47.40055" lon="-0.40491">
        <ele>31.4</ele>
        <time>2013-02-13T09:07:49.740Z</time>
      </trkpt>
      <trkpt lat="47.40055" lon="-0.40488">
        <ele>31.5</ele>
        <time>2013-02-13T09:07:50.680Z</time>
      </trkpt>
      <trkpt lat="47.40054" lon="-0.40485">
        <ele>31.7</ele>
        <time>2013-02-13T09:07:52.150Z</time>
      </trkpt>
      <trkpt lat="47.40053" lon="-0.40478">
        <ele>32</ele>
        <time>2013-02-13T09:07:53.740Z</time>
      </trkpt>
      <trkpt lat="47.40053" lon="-0.40475">
        <ele>32.1</ele>
        <time>2013-02-13T09:07:54.670Z</time>
      </trkpt>
      <trkpt lat="47.40053" lon="-0.40472">
        <ele>32.2</ele>
        <time>2013-02-13T09:07:55.740Z</time>
      </trkpt>
      <trkpt lat="47.40054" lon="-0.40469">
        <ele>32.1</ele>
        <time>2013-02-13T09:07:57.100Z</time>
      </trkpt>
      <trkpt lat="47.40054" lon="-0.40463">
        <ele>32.1</ele>
        <time>2013-02-13T09:07:58.770Z</time>
      </trkpt>
      <trkpt lat="47.40053" lon="-0.4046">
        <ele>32.2</ele>
        <time>2013-02-13T09:07:59.790Z</time>
      </trkpt>
      <trkpt lat="47.40052" lon="-0.40454">
        <ele>38.5</ele>
        <time>2013-02-13T09:08:01.670Z</time>
      </trkpt>
      <trkpt lat="47.40052" lon="-0.4045">
        <ele>32.3</ele>
        <time>2013-02-13T09:08:02.770Z</time>
      </trkpt>
      <trkpt lat="47.40051" lon="-0.40443">
        <ele>32.3</ele>
        <time>2013-02-13T09:08:04.670Z</time>
      </trkpt>
      <trkpt lat="47.40051" lon="-0.40439">
        <ele>32.2</ele>
        <time>2013-02-13T09:08:05.740Z</time>
      </trkpt>
      <trkpt lat="47.4005" lon="-0.40435">
        <ele>32.1</ele>
        <time>2013-02-13T09:08:06.670Z</time>
      </trkpt>
      <trkpt lat="47.4005" lon="-0.40432">
        <ele>32.1</ele>
        <time>2013-02-13T09:08:07.670Z</time>
      </trkpt>
      <trkpt lat="47.40049" lon="-0.40428">
        <ele>32</ele>
        <time>2013-02-13T09:08:08.740Z</time>
      </trkpt>
      <trkpt lat="47.4005" lon="-0.40425">
        <ele>31.9</ele>
        <time>2013-02-13T09:08:09.670Z</time>
      </trkpt>
      <trkpt lat="47.4005" lon="-0.40418">
        <ele>31.7</ele>
        <time>2013-02-13T09:08:11.670Z</time>
      </trkpt>
      <trkpt lat="47.4005" lon="-0.40414">
        <ele>31.5</ele>
        <time>2013-02-13T09:08:12.740Z</time>
      </trkpt>
      <trkpt lat="47.4005" lon="-0.40411">
        <ele>31.4</ele>
        <time>2013-02-13T09:08:13.670Z</time>
      </trkpt>
      <trkpt lat="47.4005" lon="-0.40406">
        <ele>31.3</ele>
        <time>2013-02-13T09:08:14.700Z</time>
      </trkpt>
      <trkpt lat="47.4005" lon="-0.40403">
        <ele>31.2</ele>
        <time>2013-02-13T09:08:15.670Z</time>
      </trkpt>
      <trkpt lat="47.4005" lon="-0.404">
        <ele>31.2</ele>
        <time>2013-02-13T09:08:16.700Z</time>
      </trkpt>
      <trkpt lat="47.40049" lon="-0.40396">
        <ele>31.1</ele>
        <time>2013-02-13T09:08:17.670Z</time>
      </trkpt>
      <trkpt lat="47.40048" lon="-0.40393">
        <ele>31.2</ele>
        <time>2013-02-13T09:08:18.740Z</time>
      </trkpt>
      <trkpt lat="47.40048" lon="-0.4039">
        <ele>31.2</ele>
        <time>2013-02-13T09:08:19.670Z</time>
      </trkpt>
      <trkpt lat="47.40047" lon="-0.40386">
        <ele>31.2</ele>
        <time>2013-02-13T09:08:20.740Z</time>
      </trkpt>
      <trkpt lat="47.40047" lon="-0.40383">
        <ele>31.3</ele>
        <time>2013-02-13T09:08:21.670Z</time>
      </trkpt>
      <trkpt lat="47.40046" lon="-0.40379">
        <ele>31.4</ele>
        <time>2013-02-13T09:08:22.730Z</time>
      </trkpt>
      <trkpt lat="47.40046" lon="-0.40375">
        <ele>31.4</ele>
        <time>2013-02-13T09:08:23.670Z</time>
      </trkpt>
      <trkpt lat="47.40046" lon="-0.40371">
        <ele>31.4</ele>
        <time>2013-02-13T09:08:24.730Z</time>
      </trkpt>
      <trkpt lat="47.40046" lon="-0.40368">
        <ele>31.4</ele>
        <time>2013-02-13T09:08:25.670Z</time>
      </trkpt>
      <trkpt lat="47.40046" lon="-0.40364">
        <ele>31.4</ele>
        <time>2013-02-13T09:08:26.780Z</time>
      </trkpt>
      <trkpt lat="47.40045" lon="-0.40357">
        <ele>31.6</ele>
        <time>2013-02-13T09:08:28.670Z</time>
      </trkpt>
      <trkpt lat="47.40044" lon="-0.40353">
        <ele>31.7</ele>
        <time>2013-02-13T09:08:29.860Z</time>
      </trkpt>
      <trkpt lat="47.40043" lon="-0.40346">
        <ele>31.9</ele>
        <time>2013-02-13T09:08:31.700Z</time>
      </trkpt>
      <trkpt lat="47.40042" lon="-0.40343">
        <ele>32</ele>
        <time>2013-02-13T09:08:32.670Z</time>
      </trkpt>
      <trkpt lat="47.40041" lon="-0.4034">
        <ele>32.1</ele>
        <time>2013-02-13T09:08:33.830Z</time>
      </trkpt>
      <trkpt lat="47.4004" lon="-0.40334">
        <ele>32.1</ele>
        <time>2013-02-13T09:08:35.730Z</time>
      </trkpt>
      <trkpt lat="47.40039" lon="-0.40331">
        <ele>32.1</ele>
        <time>2013-02-13T09:08:36.730Z</time>
      </trkpt>
      <trkpt lat="47.40038" lon="-0.40328">
        <ele>32</ele>
        <time>2013-02-13T09:08:37.730Z</time>
      </trkpt>
      <trkpt lat="47.40037" lon="-0.40326">
        <ele>32</ele>
        <time>2013-02-13T09:08:38.730Z</time>
      </trkpt>
      <trkpt lat="47.40036" lon="-0.40323">
        <ele>31.9</ele>
        <time>2013-02-13T09:08:39.730Z</time>
      </trkpt>
      <trkpt lat="47.40034" lon="-0.40319">
        <ele>31.9</ele>
        <time>2013-02-13T09:08:40.730Z</time>
      </trkpt>
      <trkpt lat="47.40033" lon="-0.40316">
        <ele>31.9</ele>
        <time>2013-02-13T09:08:41.800Z</time>
      </trkpt>
      <trkpt lat="47.40031" lon="-0.40312">
        <ele>31.9</ele>
        <time>2013-02-13T09:08:42.780Z</time>
      </trkpt>
      <trkpt lat="47.40028" lon="-0.40305">
        <ele>31.9</ele>
        <time>2013-02-13T09:08:44.670Z</time>
      </trkpt>
      <trkpt lat="47.40027" lon="-0.40302">
        <ele>32.1</ele>
        <time>2013-02-13T09:08:45.670Z</time>
      </trkpt>
      <trkpt lat="47.40026" lon="-0.40299">
        <ele>32.2</ele>
        <time>2013-02-13T09:08:46.730Z</time>
      </trkpt>
      <trkpt lat="47.40025" lon="-0.40296">
        <ele>32.3</ele>
        <time>2013-02-13T09:08:47.780Z</time>
      </trkpt>
      <trkpt lat="47.40022" lon="-0.4029">
        <ele>32.5</ele>
        <time>2013-02-13T09:08:49.780Z</time>
      </trkpt>
      <trkpt lat="47.40021" lon="-0.40286">
        <ele>32.6</ele>
        <time>2013-02-13T09:08:50.810Z</time>
      </trkpt>
      <trkpt lat="47.40018" lon="-0.40278">
        <ele>32.7</ele>
        <time>2013-02-13T09:08:52.680Z</time>
      </trkpt>
      <trkpt lat="47.40017" lon="-0.40274">
        <ele>32.4</ele>
        <time>2013-02-13T09:08:53.670Z</time>
      </trkpt>
      <trkpt lat="47.40017" lon="-0.40271">
        <ele>32.1</ele>
        <time>2013-02-13T09:08:54.670Z</time>
      </trkpt>
      <trkpt lat="47.40015" lon="-0.40268">
        <ele>31.8</ele>
        <time>2013-02-13T09:08:55.870Z</time>
      </trkpt>
      <trkpt lat="47.40014" lon="-0.40265">
        <ele>31.6</ele>
        <time>2013-02-13T09:08:56.790Z</time>
      </trkpt>
      <trkpt lat="47.40012" lon="-0.40258">
        <ele>31.2</ele>
        <time>2013-02-13T09:08:58.670Z</time>
      </trkpt>
      <trkpt lat="47.40011" lon="-0.40255">
        <ele>31</ele>
        <time>2013-02-13T09:08:59.700Z</time>
      </trkpt>
      <trkpt lat="47.40009" lon="-0.40251">
        <ele>43.3</ele>
        <time>2013-02-13T09:09:00.670Z</time>
      </trkpt>
      <trkpt lat="47.40007" lon="-0.40248">
        <ele>30.8</ele>
        <time>2013-02-13T09:09:01.670Z</time>
      </trkpt>
      <trkpt lat="47.40005" lon="-0.40245">
        <ele>30.8</ele>
        <time>2013-02-13T09:09:02.670Z</time>
      </trkpt>
      <trkpt lat="47.40004" lon="-0.40242">
        <ele>30.6</ele>
        <time>2013-02-13T09:09:03.670Z</time>
      </trkpt>
      <trkpt lat="47.40003" lon="-0.4024">
        <ele>30.4</ele>
        <time>2013-02-13T09:09:04.670Z</time>
      </trkpt>
      <trkpt lat="47.40002" lon="-0.40236">
        <ele>30.3</ele>
        <time>2013-02-13T09:09:05.680Z</time>
      </trkpt>
      <trkpt lat="47.4" lon="-0.40234">
        <ele>30.2</ele>
        <time>2013-02-13T09:09:06.720Z</time>
      </trkpt>
      <trkpt lat="47.39999" lon="-0.40231">
        <ele>30.1</ele>
        <time>2013-02-13T09:09:07.720Z</time>
      </trkpt>
      <trkpt lat="47.39998" lon="-0.40228">
        <ele>29.9</ele>
        <time>2013-02-13T09:09:08.820Z</time>
      </trkpt>
      <trkpt lat="47.39997" lon="-0.40225">
        <ele>29.8</ele>
        <time>2013-02-13T09:09:09.720Z</time>
      </trkpt>
      <trkpt lat="47.39996" lon="-0.40222">
        <ele>29.7</ele>
        <time>2013-02-13T09:09:10.790Z</time>
      </trkpt>
      <trkpt lat="47.39994" lon="-0.40216">
        <ele>29.9</ele>
        <time>2013-02-13T09:09:12.770Z</time>
      </trkpt>
      <trkpt lat="47.39992" lon="-0.4021">
        <ele>30</ele>
        <time>2013-02-13T09:09:14.670Z</time>
      </trkpt>
      <trkpt lat="47.39991" lon="-0.40207">
        <ele>30</ele>
        <time>2013-02-13T09:09:15.670Z</time>
      </trkpt>
      <trkpt lat="47.3999" lon="-0.40204">
        <ele>30.1</ele>
        <time>2013-02-13T09:09:16.680Z</time>
      </trkpt>
      <trkpt lat="47.39989" lon="-0.40201">
        <ele>30.2</ele>
        <time>2013-02-13T09:09:17.720Z</time>
      </trkpt>
      <trkpt lat="47.39988" lon="-0.40198">
        <ele>30.3</ele>
        <time>2013-02-13T09:09:18.780Z</time>
      </trkpt>
      <trkpt lat="47.39986" lon="-0.40191">
        <ele>30.5</ele>
        <time>2013-02-13T09:09:20.670Z</time>
      </trkpt>
      <trkpt lat="47.39985" lon="-0.40189">
        <ele>30.7</ele>
        <time>2013-02-13T09:09:21.670Z</time>
      </trkpt>
      <trkpt lat="47.39984" lon="-0.40186">
        <ele>30.9</ele>
        <time>2013-02-13T09:09:22.830Z</time>
      </trkpt>
      <trkpt lat="47.39982" lon="-0.4018">
        <ele>31.1</ele>
        <time>2013-02-13T09:09:24.780Z</time>
      </trkpt>
      <trkpt lat="47.3998" lon="-0.40174">
        <ele>31.3</ele>
        <time>2013-02-13T09:09:26.670Z</time>
      </trkpt>
      <trkpt lat="47.39979" lon="-0.40171">
        <ele>31.4</ele>
        <time>2013-02-13T09:09:27.670Z</time>
      </trkpt>
      <trkpt lat="47.39978" lon="-0.40168">
        <ele>31.5</ele>
        <time>2013-02-13T09:09:28.670Z</time>
      </trkpt>
      <trkpt lat="47.39977" lon="-0.40165">
        <ele>31.4</ele>
        <time>2013-02-13T09:09:29.670Z</time>
      </trkpt>
      <trkpt lat="47.39976" lon="-0.40161">
        <ele>31.4</ele>
        <time>2013-02-13T09:09:30.670Z</time>
      </trkpt>
      <trkpt lat="47.39975" lon="-0.40157">
        <ele>31.4</ele>
        <time>2013-02-13T09:09:31.670Z</time>
      </trkpt>
      <trkpt lat="47.39974" lon="-0.40154">
        <ele>31.4</ele>
        <time>2013-02-13T09:09:32.720Z</time>
      </trkpt>
      <trkpt lat="47.39973" lon="-0.40151">
        <ele>31.4</ele>
        <time>2013-02-13T09:09:33.820Z</time>
      </trkpt>
      <trkpt lat="47.39971" lon="-0.40145">
        <ele>31.5</ele>
        <time>2013-02-13T09:09:35.670Z</time>
      </trkpt>
      <trkpt lat="47.3997" lon="-0.40143">
        <ele>31.5</ele>
        <time>2013-02-13T09:09:36.960Z</time>
      </trkpt>
      <trkpt lat="47.39967" lon="-0.40137">
        <ele>31.7</ele>
        <time>2013-02-13T09:09:38.670Z</time>
      </trkpt>
      <trkpt lat="47.39967" lon="-0.40134">
        <ele>31.7</ele>
        <time>2013-02-13T09:09:39.680Z</time>
      </trkpt>
      <trkpt lat="47.39967" lon="-0.4013">
        <ele>31.7</ele>
        <time>2013-02-13T09:09:40.720Z</time>
      </trkpt>
      <trkpt lat="47.39966" lon="-0.40128">
        <ele>31.8</ele>
        <time>2013-02-13T09:09:41.720Z</time>
      </trkpt>
      <trkpt lat="47.39965" lon="-0.40125">
        <ele>31.8</ele>
        <time>2013-02-13T09:09:42.790Z</time>
      </trkpt>
      <trkpt lat="47.39964" lon="-0.40118">
        <ele>31.7</ele>
        <time>2013-02-13T09:09:44.710Z</time>
      </trkpt>
      <trkpt lat="47.39963" lon="-0.40114">
        <ele>31.8</ele>
        <time>2013-02-13T09:09:45.710Z</time>
      </trkpt>
      <trkpt lat="47.39962" lon="-0.40111">
        <ele>31.7</ele>
        <time>2013-02-13T09:09:46.710Z</time>
      </trkpt>
      <trkpt lat="47.39961" lon="-0.40108">
        <ele>31.7</ele>
        <time>2013-02-13T09:09:47.710Z</time>
      </trkpt>
      <trkpt lat="47.39961" lon="-0.40105">
        <ele>31.6</ele>
        <time>2013-02-13T09:09:48.790Z</time>
      </trkpt>
      <trkpt lat="47.39959" lon="-0.40099">
        <ele>31.5</ele>
        <time>2013-02-13T09:09:50.840Z</time>
      </trkpt>
      <trkpt lat="47.39958" lon="-0.40093">
        <ele>31.4</ele>
        <time>2013-02-13T09:09:52.710Z</time>
      </trkpt>
      <trkpt lat="47.39957" lon="-0.40089">
        <ele>31.3</ele>
        <time>2013-02-13T09:09:53.850Z</time>
      </trkpt>
      <trkpt lat="47.39956" lon="-0.40082">
        <ele>31.1</ele>
        <time>2013-02-13T09:09:55.690Z</time>
      </trkpt>
      <trkpt lat="47.39955" lon="-0.40079">
        <ele>31.1</ele>
        <time>2013-02-13T09:09:56.770Z</time>
      </trkpt>
      <trkpt lat="47.39954" lon="-0.40072">
        <ele>30.9</ele>
        <time>2013-02-13T09:09:58.670Z</time>
      </trkpt>
      <trkpt lat="47.39954" lon="-0.40069">
        <ele>30.8</ele>
        <time>2013-02-13T09:09:59.700Z</time>
      </trkpt>
      <trkpt lat="47.39954" lon="-0.40065">
        <ele>36.9</ele>
        <time>2013-02-13T09:10:00.710Z</time>
      </trkpt>
      <trkpt lat="47.39954" lon="-0.40061">
        <ele>30.5</ele>
        <time>2013-02-13T09:10:01.710Z</time>
      </trkpt>
      <trkpt lat="47.39954" lon="-0.40058">
        <ele>30.4</ele>
        <time>2013-02-13T09:10:02.770Z</time>
      </trkpt>
      <trkpt lat="47.39954" lon="-0.40051">
        <ele>30.2</ele>
        <time>2013-02-13T09:10:04.950Z</time>
      </trkpt>
      <trkpt lat="47.39953" lon="-0.40043">
        <ele>29.9</ele>
        <time>2013-02-13T09:10:06.670Z</time>
      </trkpt>
      <trkpt lat="47.39953" lon="-0.4004">
        <ele>29.8</ele>
        <time>2013-02-13T09:10:07.670Z</time>
      </trkpt>
      <trkpt lat="47.39953" lon="-0.40037">
        <ele>29.7</ele>
        <time>2013-02-13T09:10:08.710Z</time>
      </trkpt>
      <trkpt lat="47.39952" lon="-0.40034">
        <ele>29.7</ele>
        <time>2013-02-13T09:10:09.710Z</time>
      </trkpt>
      <trkpt lat="47.39952" lon="-0.40031">
        <ele>29.5</ele>
        <time>2013-02-13T09:10:10.710Z</time>
      </trkpt>
      <trkpt lat="47.39952" lon="-0.40027">
        <ele>29.4</ele>
        <time>2013-02-13T09:10:11.780Z</time>
      </trkpt>
      <trkpt lat="47.39951" lon="-0.40019">
        <ele>29.1</ele>
        <time>2013-02-13T09:10:13.680Z</time>
      </trkpt>
      <trkpt lat="47.39951" lon="-0.40016">
        <ele>29</ele>
        <time>2013-02-13T09:10:14.710Z</time>
      </trkpt>
      <trkpt lat="47.3995" lon="-0.40013">
        <ele>28.9</ele>
        <time>2013-02-13T09:10:15.710Z</time>
      </trkpt>
      <trkpt lat="47.3995" lon="-0.40009">
        <ele>28.8</ele>
        <time>2013-02-13T09:10:16.760Z</time>
      </trkpt>
      <trkpt lat="47.3995" lon="-0.40002">
        <ele>28.5</ele>
        <time>2013-02-13T09:10:18.670Z</time>
      </trkpt>
      <trkpt lat="47.39949" lon="-0.39998">
        <ele>28.5</ele>
        <time>2013-02-13T09:10:19.670Z</time>
      </trkpt>
      <trkpt lat="47.39949" lon="-0.39995">
        <ele>28.4</ele>
        <time>2013-02-13T09:10:20.670Z</time>
      </trkpt>
      <trkpt lat="47.39949" lon="-0.39992">
        <ele>28.4</ele>
        <time>2013-02-13T09:10:21.670Z</time>
      </trkpt>
      <trkpt lat="47.39949" lon="-0.39989">
        <ele>28.5</ele>
        <time>2013-02-13T09:10:22.670Z</time>
      </trkpt>
      <trkpt lat="47.39948" lon="-0.39985">
        <ele>28.5</ele>
        <time>2013-02-13T09:10:23.670Z</time>
      </trkpt>
      <trkpt lat="47.39947" lon="-0.39982">
        <ele>28.6</ele>
        <time>2013-02-13T09:10:24.670Z</time>
      </trkpt>
      <trkpt lat="47.39947" lon="-0.39978">
        <ele>28.6</ele>
        <time>2013-02-13T09:10:25.670Z</time>
      </trkpt>
      <trkpt lat="47.39947" lon="-0.39974">
        <ele>28.6</ele>
        <time>2013-02-13T09:10:26.670Z</time>
      </trkpt>
      <trkpt lat="47.39947" lon="-0.39971">
        <ele>28.6</ele>
        <time>2013-02-13T09:10:27.670Z</time>
      </trkpt>
      <trkpt lat="47.39947" lon="-0.39967">
        <ele>28.5</ele>
        <time>2013-02-13T09:10:28.670Z</time>
      </trkpt>
      <trkpt lat="47.39946" lon="-0.39964">
        <ele>28.4</ele>
        <time>2013-02-13T09:10:29.670Z</time>
      </trkpt>
      <trkpt lat="47.39946" lon="-0.39961">
        <ele>28.3</ele>
        <time>2013-02-13T09:10:30.680Z</time>
      </trkpt>
      <trkpt lat="47.39947" lon="-0.39953">
        <ele>28</ele>
        <time>2013-02-13T09:10:32.670Z</time>
      </trkpt>
      <trkpt lat="47.39946" lon="-0.3995">
        <ele>27.9</ele>
        <time>2013-02-13T09:10:33.700Z</time>
      </trkpt>
      <trkpt lat="47.39946" lon="-0.39947">
        <ele>27.9</ele>
        <time>2013-02-13T09:10:34.670Z</time>
      </trkpt>
      <trkpt lat="47.39946" lon="-0.39944">
        <ele>27.8</ele>
        <time>2013-02-13T09:10:35.770Z</time>
      </trkpt>
      <trkpt lat="47.39945" lon="-0.39936">
        <ele>27.6</ele>
        <time>2013-02-13T09:10:37.670Z</time>
      </trkpt>
      <trkpt lat="47.39945" lon="-0.39933">
        <ele>27.5</ele>
        <time>2013-02-13T09:10:38.670Z</time>
      </trkpt>
      <trkpt lat="47.39945" lon="-0.39929">
        <ele>27.4</ele>
        <time>2013-02-13T09:10:39.670Z</time>
      </trkpt>
      <trkpt lat="47.39945" lon="-0.39926">
        <ele>27.3</ele>
        <time>2013-02-13T09:10:40.670Z</time>
      </trkpt>
      <trkpt lat="47.39945" lon="-0.39922">
        <ele>27.2</ele>
        <time>2013-02-13T09:10:41.770Z</time>
      </trkpt>
      <trkpt lat="47.39944" lon="-0.39915">
        <ele>27</ele>
        <time>2013-02-13T09:10:43.670Z</time>
      </trkpt>
      <trkpt lat="47.39944" lon="-0.39913">
        <ele>27</ele>
        <time>2013-02-13T09:10:44.670Z</time>
      </trkpt>
      <trkpt lat="47.39943" lon="-0.39909">
        <ele>27</ele>
        <time>2013-02-13T09:10:45.670Z</time>
      </trkpt>
      <trkpt lat="47.39942" lon="-0.39906">
        <ele>26.9</ele>
        <time>2013-02-13T09:10:46.700Z</time>
      </trkpt>
      <trkpt lat="47.39942" lon="-0.39902">
        <ele>26.7</ele>
        <time>2013-02-13T09:10:47.760Z</time>
      </trkpt>
      <trkpt lat="47.39942" lon="-0.39896">
        <ele>26.5</ele>
        <time>2013-02-13T09:10:49.670Z</time>
      </trkpt>
      <trkpt lat="47.39941" lon="-0.39892">
        <ele>26.4</ele>
        <time>2013-02-13T09:10:50.750Z</time>
      </trkpt>
      <trkpt lat="47.39942" lon="-0.39885">
        <ele>26.3</ele>
        <time>2013-02-13T09:10:52.670Z</time>
      </trkpt>
      <trkpt lat="47.39941" lon="-0.39881">
        <ele>26.3</ele>
        <time>2013-02-13T09:10:53.770Z</time>
      </trkpt>
      <trkpt lat="47.3994" lon="-0.39874">
        <ele>26.4</ele>
        <time>2013-02-13T09:10:55.670Z</time>
      </trkpt>
      <trkpt lat="47.3994" lon="-0.39871">
        <ele>26.4</ele>
        <time>2013-02-13T09:10:56.670Z</time>
      </trkpt>
      <trkpt lat="47.3994" lon="-0.39868">
        <ele>26.3</ele>
        <time>2013-02-13T09:10:57.690Z</time>
      </trkpt>
      <trkpt lat="47.3994" lon="-0.39864">
        <ele>26.3</ele>
        <time>2013-02-13T09:10:58.700Z</time>
      </trkpt>
      <trkpt lat="47.3994" lon="-0.39861">
        <ele>26.3</ele>
        <time>2013-02-13T09:10:59.750Z</time>
      </trkpt>
      <trkpt lat="47.3994" lon="-0.39854">
        <ele>31.2</ele>
        <time>2013-02-13T09:11:01.670Z</time>
      </trkpt>
      <trkpt lat="47.39939" lon="-0.39851">
        <ele>26.1</ele>
        <time>2013-02-13T09:11:02.760Z</time>
      </trkpt>
      <trkpt lat="47.39939" lon="-0.39845">
        <ele>26.1</ele>
        <time>2013-02-13T09:11:04.760Z</time>
      </trkpt>
      <trkpt lat="47.39939" lon="-0.39838">
        <ele>25.9</ele>
        <time>2013-02-13T09:11:06.770Z</time>
      </trkpt>
      <trkpt lat="47.39939" lon="-0.39832">
        <ele>25.8</ele>
        <time>2013-02-13T09:11:08.670Z</time>
      </trkpt>
      <trkpt lat="47.39939" lon="-0.39829">
        <ele>25.8</ele>
        <time>2013-02-13T09:11:09.780Z</time>
      </trkpt>
      <trkpt lat="47.39939" lon="-0.39822">
        <ele>25.7</ele>
        <time>2013-02-13T09:11:11.670Z</time>
      </trkpt>
      <trkpt lat="47.3994" lon="-0.39818">
        <ele>25.6</ele>
        <time>2013-02-13T09:11:12.670Z</time>
      </trkpt>
      <trkpt lat="47.39941" lon="-0.39814">
        <ele>25.4</ele>
        <time>2013-02-13T09:11:13.670Z</time>
      </trkpt>
      <trkpt lat="47.39941" lon="-0.3981">
        <ele>25.4</ele>
        <time>2013-02-13T09:11:14.690Z</time>
      </trkpt>
      <trkpt lat="47.39941" lon="-0.39806">
        <ele>25.4</ele>
        <time>2013-02-13T09:11:15.780Z</time>
      </trkpt>
      <trkpt lat="47.39941" lon="-0.39798">
        <ele>25.2</ele>
        <time>2013-02-13T09:11:17.690Z</time>
      </trkpt>
      <trkpt lat="47.3994" lon="-0.39795">
        <ele>25.2</ele>
        <time>2013-02-13T09:11:18.760Z</time>
      </trkpt>
      <trkpt lat="47.39939" lon="-0.39788">
        <ele>25.1</ele>
        <time>2013-02-13T09:11:20.690Z</time>
      </trkpt>
      <trkpt lat="47.39938" lon="-0.39785">
        <ele>25.1</ele>
        <time>2013-02-13T09:11:21.770Z</time>
      </trkpt>
      <trkpt lat="47.39937" lon="-0.39778">
        <ele>25.1</ele>
        <time>2013-02-13T09:11:23.770Z</time>
      </trkpt>
      <trkpt lat="47.39936" lon="-0.39771">
        <ele>25.3</ele>
        <time>2013-02-13T09:11:25.760Z</time>
      </trkpt>
      <trkpt lat="47.39935" lon="-0.39764">
        <ele>25.4</ele>
        <time>2013-02-13T09:11:27.670Z</time>
      </trkpt>
      <trkpt lat="47.39934" lon="-0.39759">
        <ele>25.5</ele>
        <time>2013-02-13T09:11:28.670Z</time>
      </trkpt>
      <trkpt lat="47.39934" lon="-0.39756">
        <ele>25.5</ele>
        <time>2013-02-13T09:11:29.760Z</time>
      </trkpt>
      <trkpt lat="47.39934" lon="-0.39752">
        <ele>25.5</ele>
        <time>2013-02-13T09:11:30.690Z</time>
      </trkpt>
      <trkpt lat="47.39933" lon="-0.39748">
        <ele>25.6</ele>
        <time>2013-02-13T09:11:31.690Z</time>
      </trkpt>
      <trkpt lat="47.39933" lon="-0.39745">
        <ele>25.6</ele>
        <time>2013-02-13T09:11:32.790Z</time>
      </trkpt>
      <trkpt lat="47.3993" lon="-0.39738">
        <ele>25.8</ele>
        <time>2013-02-13T09:11:34.670Z</time>
      </trkpt>
      <trkpt lat="47.39929" lon="-0.39735">
        <ele>25.9</ele>
        <time>2013-02-13T09:11:35.670Z</time>
      </trkpt>
      <trkpt lat="47.39928" lon="-0.39732">
        <ele>26</ele>
        <time>2013-02-13T09:11:36.670Z</time>
      </trkpt>
      <trkpt lat="47.39927" lon="-0.39729">
        <ele>26.1</ele>
        <time>2013-02-13T09:11:37.770Z</time>
      </trkpt>
      <trkpt lat="47.39924" lon="-0.39722">
        <ele>26.2</ele>
        <time>2013-02-13T09:11:39.690Z</time>
      </trkpt>
      <trkpt lat="47.39922" lon="-0.39717">
        <ele>26.1</ele>
        <time>2013-02-13T09:11:41.690Z</time>
      </trkpt>
      <trkpt lat="47.39921" lon="-0.39714">
        <ele>26.1</ele>
        <time>2013-02-13T09:11:42.770Z</time>
      </trkpt>
      <trkpt lat="47.39919" lon="-0.39708">
        <ele>25.9</ele>
        <time>2013-02-13T09:11:44.670Z</time>
      </trkpt>
      <trkpt lat="47.39918" lon="-0.39705">
        <ele>25.7</ele>
        <time>2013-02-13T09:11:45.790Z</time>
      </trkpt>
      <trkpt lat="47.39915" lon="-0.39699">
        <ele>25.6</ele>
        <time>2013-02-13T09:11:47.670Z</time>
      </trkpt>
      <trkpt lat="47.39914" lon="-0.39695">
        <ele>25.5</ele>
        <time>2013-02-13T09:11:48.670Z</time>
      </trkpt>
      <trkpt lat="47.39913" lon="-0.39692">
        <ele>25.6</ele>
        <time>2013-02-13T09:11:49.690Z</time>
      </trkpt>
      <trkpt lat="47.39912" lon="-0.39688">
        <ele>25.7</ele>
        <time>2013-02-13T09:11:50.880Z</time>
      </trkpt>
      <trkpt lat="47.39909" lon="-0.39682">
        <ele>26.1</ele>
        <time>2013-02-13T09:11:52.680Z</time>
      </trkpt>
      <trkpt lat="47.39908" lon="-0.39679">
        <ele>26.2</ele>
        <time>2013-02-13T09:11:53.770Z</time>
      </trkpt>
      <trkpt lat="47.39906" lon="-0.39672">
        <ele>26.5</ele>
        <time>2013-02-13T09:11:55.820Z</time>
      </trkpt>
      <trkpt lat="47.39904" lon="-0.39666">
        <ele>26.8</ele>
        <time>2013-02-13T09:11:57.680Z</time>
      </trkpt>
      <trkpt lat="47.39903" lon="-0.39663">
        <ele>26.8</ele>
        <time>2013-02-13T09:11:58.680Z</time>
      </trkpt>
      <trkpt lat="47.39902" lon="-0.3966">
        <ele>26.9</ele>
        <time>2013-02-13T09:11:59.730Z</time>
      </trkpt>
      <trkpt lat="47.39899" lon="-0.39653">
        <ele>29.1</ele>
        <time>2013-02-13T09:12:01.670Z</time>
      </trkpt>
      <trkpt lat="47.39898" lon="-0.39649">
        <ele>26.8</ele>
        <time>2013-02-13T09:12:02.790Z</time>
      </trkpt>
      <trkpt lat="47.39896" lon="-0.39642">
        <ele>26.7</ele>
        <time>2013-02-13T09:12:04.670Z</time>
      </trkpt>
      <trkpt lat="47.39895" lon="-0.39638">
        <ele>26.6</ele>
        <time>2013-02-13T09:12:05.680Z</time>
      </trkpt>
      <trkpt lat="47.39894" lon="-0.39636">
        <ele>26.6</ele>
        <time>2013-02-13T09:12:06.690Z</time>
      </trkpt>
      <trkpt lat="47.39892" lon="-0.39634">
        <ele>26.6</ele>
        <time>2013-02-13T09:12:07.770Z</time>
      </trkpt>
      <trkpt lat="47.39891" lon="-0.39629">
        <ele>26.5</ele>
        <time>2013-02-13T09:12:09.770Z</time>
      </trkpt>
      <trkpt lat="47.39889" lon="-0.39621">
        <ele>26.4</ele>
        <time>2013-02-13T09:12:11.780Z</time>
      </trkpt>
      <trkpt lat="47.39888" lon="-0.39618">
        <ele>26.4</ele>
        <time>2013-02-13T09:12:12.730Z</time>
      </trkpt>
      <trkpt lat="47.39887" lon="-0.39615">
        <ele>26.4</ele>
        <time>2013-02-13T09:12:13.670Z</time>
      </trkpt>
      <trkpt lat="47.39886" lon="-0.39611">
        <ele>26.4</ele>
        <time>2013-02-13T09:12:14.690Z</time>
      </trkpt>
      <trkpt lat="47.39885" lon="-0.39607">
        <ele>26.4</ele>
        <time>2013-02-13T09:12:15.680Z</time>
      </trkpt>
      <trkpt lat="47.39885" lon="-0.39604">
        <ele>26.3</ele>
        <time>2013-02-13T09:12:16.830Z</time>
      </trkpt>
      <trkpt lat="47.39884" lon="-0.39598">
        <ele>26.3</ele>
        <time>2013-02-13T09:12:18.670Z</time>
      </trkpt>
      <trkpt lat="47.39883" lon="-0.39595">
        <ele>26.3</ele>
        <time>2013-02-13T09:12:19.670Z</time>
      </trkpt>
      <trkpt lat="47.39883" lon="-0.39592">
        <ele>26.2</ele>
        <time>2013-02-13T09:12:20.670Z</time>
      </trkpt>
      <trkpt lat="47.39883" lon="-0.39589">
        <ele>26.1</ele>
        <time>2013-02-13T09:12:21.670Z</time>
      </trkpt>
      <trkpt lat="47.39882" lon="-0.39585">
        <ele>26</ele>
        <time>2013-02-13T09:12:22.680Z</time>
      </trkpt>
      <trkpt lat="47.39881" lon="-0.39582">
        <ele>26.1</ele>
        <time>2013-02-13T09:12:23.680Z</time>
      </trkpt>
      <trkpt lat="47.39881" lon="-0.39579">
        <ele>26.2</ele>
        <time>2013-02-13T09:12:24.900Z</time>
      </trkpt>
      <trkpt lat="47.3988" lon="-0.39576">
        <ele>26.2</ele>
        <time>2013-02-13T09:12:25.680Z</time>
      </trkpt>
      <trkpt lat="47.39879" lon="-0.39572">
        <ele>26.2</ele>
        <time>2013-02-13T09:12:26.670Z</time>
      </trkpt>
      <trkpt lat="47.39879" lon="-0.39569">
        <ele>26.3</ele>
        <time>2013-02-13T09:12:27.870Z</time>
      </trkpt>
      <trkpt lat="47.39878" lon="-0.39563">
        <ele>26.3</ele>
        <time>2013-02-13T09:12:29.680Z</time>
      </trkpt>
      <trkpt lat="47.39877" lon="-0.3956">
        <ele>26.4</ele>
        <time>2013-02-13T09:12:30.670Z</time>
      </trkpt>
      <trkpt lat="47.39877" lon="-0.39557">
        <ele>26.3</ele>
        <time>2013-02-13T09:12:31.790Z</time>
      </trkpt>
      <trkpt lat="47.39876" lon="-0.3955">
        <ele>26.2</ele>
        <time>2013-02-13T09:12:33.820Z</time>
      </trkpt>
      <trkpt lat="47.39876" lon="-0.39544">
        <ele>25.8</ele>
        <time>2013-02-13T09:12:35.690Z</time>
      </trkpt>
      <trkpt lat="47.39876" lon="-0.39541">
        <ele>25.7</ele>
        <time>2013-02-13T09:12:36.770Z</time>
      </trkpt>
      <trkpt lat="47.39875" lon="-0.39534">
        <ele>25.3</ele>
        <time>2013-02-13T09:12:38.770Z</time>
      </trkpt>
      <trkpt lat="47.39875" lon="-0.39526">
        <ele>25</ele>
        <time>2013-02-13T09:12:40.670Z</time>
      </trkpt>
      <trkpt lat="47.39875" lon="-0.39522">
        <ele>25</ele>
        <time>2013-02-13T09:12:41.790Z</time>
      </trkpt>
      <trkpt lat="47.39875" lon="-0.39518">
        <ele>25</ele>
        <time>2013-02-13T09:12:42.850Z</time>
      </trkpt>
      <trkpt lat="47.39874" lon="-0.39511">
        <ele>25.1</ele>
        <time>2013-02-13T09:12:44.670Z</time>
      </trkpt>
      <trkpt lat="47.39874" lon="-0.39507">
        <ele>25.1</ele>
        <time>2013-02-13T09:12:45.770Z</time>
      </trkpt>
      <trkpt lat="47.39873" lon="-0.39503">
        <ele>25.1</ele>
        <time>2013-02-13T09:12:46.680Z</time>
      </trkpt>
      <trkpt lat="47.39874" lon="-0.39499">
        <ele>25.1</ele>
        <time>2013-02-13T09:12:47.770Z</time>
      </trkpt>
      <trkpt lat="47.39874" lon="-0.39496">
        <ele>25</ele>
        <time>2013-02-13T09:12:48.670Z</time>
      </trkpt>
      <trkpt lat="47.39874" lon="-0.39492">
        <ele>24.9</ele>
        <time>2013-02-13T09:12:49.770Z</time>
      </trkpt>
      <trkpt lat="47.39873" lon="-0.39489">
        <ele>24.9</ele>
        <time>2013-02-13T09:12:50.770Z</time>
      </trkpt>
      <trkpt lat="47.39873" lon="-0.39483">
        <ele>24.8</ele>
        <time>2013-02-13T09:12:52.810Z</time>
      </trkpt>
      <trkpt lat="47.39872" lon="-0.3948">
        <ele>24.8</ele>
        <time>2013-02-13T09:12:53.770Z</time>
      </trkpt>
      <trkpt lat="47.39871" lon="-0.39476">
        <ele>24.7</ele>
        <time>2013-02-13T09:12:54.670Z</time>
      </trkpt>
      <trkpt lat="47.3987" lon="-0.39473">
        <ele>24.7</ele>
        <time>2013-02-13T09:12:55.770Z</time>
      </trkpt>
      <trkpt lat="47.39869" lon="-0.39466">
        <ele>24.5</ele>
        <time>2013-02-13T09:12:57.670Z</time>
      </trkpt>
      <trkpt lat="47.39868" lon="-0.39463">
        <ele>24.4</ele>
        <time>2013-02-13T09:12:58.770Z</time>
      </trkpt>
      <trkpt lat="47.39867" lon="-0.39461">
        <ele>24.4</ele>
        <time>2013-02-13T09:12:59.700Z</time>
      </trkpt>
      <trkpt lat="47.39866" lon="-0.39458">
        <ele>27.3</ele>
        <time>2013-02-13T09:13:00.670Z</time>
      </trkpt>
      <trkpt lat="47.39865" lon="-0.39455">
        <ele>24.3</ele>
        <time>2013-02-13T09:13:01.770Z</time>
      </trkpt>
      <trkpt lat="47.39863" lon="-0.39449">
        <ele>24.1</ele>
        <time>2013-02-13T09:13:03.680Z</time>
      </trkpt>
      <trkpt lat="47.39861" lon="-0.39446">
        <ele>24.1</ele>
        <time>2013-02-13T09:13:04.770Z</time>
      </trkpt>
      <trkpt lat="47.3986" lon="-0.39443">
        <ele>24.1</ele>
        <time>2013-02-13T09:13:05.670Z</time>
      </trkpt>
      <trkpt lat="47.39859" lon="-0.3944">
        <ele>24.2</ele>
        <time>2013-02-13T09:13:06.770Z</time>
      </trkpt>
      <trkpt lat="47.39857" lon="-0.39437">
        <ele>24.4</ele>
        <time>2013-02-13T09:13:07.760Z</time>
      </trkpt>
      <trkpt lat="47.39856" lon="-0.39435">
        <ele>24.5</ele>
        <time>2013-02-13T09:13:08.670Z</time>
      </trkpt>
      <trkpt lat="47.39854" lon="-0.39432">
        <ele>24.7</ele>
        <time>2013-02-13T09:13:09.770Z</time>
      </trkpt>
      <trkpt lat="47.39852" lon="-0.39427">
        <ele>24.8</ele>
        <time>2013-02-13T09:13:11.670Z</time>
      </trkpt>
      <trkpt lat="47.39851" lon="-0.39424">
        <ele>24.8</ele>
        <time>2013-02-13T09:13:12.770Z</time>
      </trkpt>
      <trkpt lat="47.39848" lon="-0.39419">
        <ele>25</ele>
        <time>2013-02-13T09:13:14.670Z</time>
      </trkpt>
      <trkpt lat="47.39846" lon="-0.39416">
        <ele>25</ele>
        <time>2013-02-13T09:13:15.680Z</time>
      </trkpt>
      <trkpt lat="47.39845" lon="-0.39413">
        <ele>25.1</ele>
        <time>2013-02-13T09:13:16.740Z</time>
      </trkpt>
      <trkpt lat="47.39843" lon="-0.39409">
        <ele>25.1</ele>
        <time>2013-02-13T09:13:17.790Z</time>
      </trkpt>
      <trkpt lat="47.39841" lon="-0.39403">
        <ele>25.1</ele>
        <time>2013-02-13T09:13:19.670Z</time>
      </trkpt>
      <trkpt lat="47.3984" lon="-0.394">
        <ele>25.1</ele>
        <time>2013-02-13T09:13:20.720Z</time>
      </trkpt>
      <trkpt lat="47.39838" lon="-0.39396">
        <ele>25</ele>
        <time>2013-02-13T09:13:21.670Z</time>
      </trkpt>
      <trkpt lat="47.39837" lon="-0.39392">
        <ele>25</ele>
        <time>2013-02-13T09:13:23.280Z</time>
      </trkpt>
      <trkpt lat="47.39835" lon="-0.39386">
        <ele>24.9</ele>
        <time>2013-02-13T09:13:24.760Z</time>
      </trkpt>
      <trkpt lat="47.39834" lon="-0.39383">
        <ele>25</ele>
        <time>2013-02-13T09:13:25.670Z</time>
      </trkpt>
      <trkpt lat="47.39833" lon="-0.39379">
        <ele>25</ele>
        <time>2013-02-13T09:13:26.760Z</time>
      </trkpt>
      <trkpt lat="47.39832" lon="-0.39376">
        <ele>25.1</ele>
        <time>2013-02-13T09:13:28.100Z</time>
      </trkpt>
      <trkpt lat="47.39831" lon="-0.39369">
        <ele>25.2</ele>
        <time>2013-02-13T09:13:29.670Z</time>
      </trkpt>
      <trkpt lat="47.3983" lon="-0.39366">
        <ele>25.3</ele>
        <time>2013-02-13T09:13:30.760Z</time>
      </trkpt>
      <trkpt lat="47.39829" lon="-0.39362">
        <ele>25.3</ele>
        <time>2013-02-13T09:13:31.670Z</time>
      </trkpt>
      <trkpt lat="47.39828" lon="-0.39359">
        <ele>25.3</ele>
        <time>2013-02-13T09:13:32.670Z</time>
      </trkpt>
      <trkpt lat="47.39827" lon="-0.39356">
        <ele>25.3</ele>
        <time>2013-02-13T09:13:33.760Z</time>
      </trkpt>
      <trkpt lat="47.39825" lon="-0.39348">
        <ele>25.1</ele>
        <time>2013-02-13T09:13:35.760Z</time>
      </trkpt>
      <trkpt lat="47.39825" lon="-0.39344">
        <ele>25</ele>
        <time>2013-02-13T09:13:36.670Z</time>
      </trkpt>
      <trkpt lat="47.39824" lon="-0.3934">
        <ele>24.9</ele>
        <time>2013-02-13T09:13:37.710Z</time>
      </trkpt>
      <trkpt lat="47.39823" lon="-0.39337">
        <ele>24.9</ele>
        <time>2013-02-13T09:13:38.670Z</time>
      </trkpt>
      <trkpt lat="47.39823" lon="-0.39333">
        <ele>24.8</ele>
        <time>2013-02-13T09:13:39.760Z</time>
      </trkpt>
      <trkpt lat="47.39822" lon="-0.3933">
        <ele>24.8</ele>
        <time>2013-02-13T09:13:40.670Z</time>
      </trkpt>
      <trkpt lat="47.39822" lon="-0.39326">
        <ele>24.8</ele>
        <time>2013-02-13T09:13:41.760Z</time>
      </trkpt>
      <trkpt lat="47.39821" lon="-0.39323">
        <ele>24.9</ele>
        <time>2013-02-13T09:13:42.670Z</time>
      </trkpt>
      <trkpt lat="47.39821" lon="-0.39319">
        <ele>24.9</ele>
        <time>2013-02-13T09:13:43.870Z</time>
      </trkpt>
      <trkpt lat="47.3982" lon="-0.39312">
        <ele>25</ele>
        <time>2013-02-13T09:13:45.670Z</time>
      </trkpt>
      <trkpt lat="47.39819" lon="-0.39309">
        <ele>25</ele>
        <time>2013-02-13T09:13:46.770Z</time>
      </trkpt>
      <trkpt lat="47.39819" lon="-0.39305">
        <ele>25</ele>
        <time>2013-02-13T09:13:47.860Z</time>
      </trkpt>
      <trkpt lat="47.39818" lon="-0.39298">
        <ele>24.8</ele>
        <time>2013-02-13T09:13:49.670Z</time>
      </trkpt>
      <trkpt lat="47.39818" lon="-0.39294">
        <ele>24.7</ele>
        <time>2013-02-13T09:13:50.710Z</time>
      </trkpt>
      <trkpt lat="47.39819" lon="-0.39291">
        <ele>24.5</ele>
        <time>2013-02-13T09:13:51.670Z</time>
      </trkpt>
      <trkpt lat="47.39818" lon="-0.39287">
        <ele>24.4</ele>
        <time>2013-02-13T09:13:52.750Z</time>
      </trkpt>
      <trkpt lat="47.39818" lon="-0.39283">
        <ele>24.3</ele>
        <time>2013-02-13T09:13:53.670Z</time>
      </trkpt>
      <trkpt lat="47.39818" lon="-0.39279">
        <ele>24.2</ele>
        <time>2013-02-13T09:13:54.710Z</time>
      </trkpt>
      <trkpt lat="47.39818" lon="-0.39276">
        <ele>24.1</ele>
        <time>2013-02-13T09:13:55.670Z</time>
      </trkpt>
      <trkpt lat="47.39817" lon="-0.39272">
        <ele>24.2</ele>
        <time>2013-02-13T09:13:56.750Z</time>
      </trkpt>
      <trkpt lat="47.39817" lon="-0.39269">
        <ele>24.2</ele>
        <time>2013-02-13T09:13:57.670Z</time>
      </trkpt>
      <trkpt lat="47.39817" lon="-0.39265">
        <ele>24.2</ele>
        <time>2013-02-13T09:13:58.750Z</time>
      </trkpt>
      <trkpt lat="47.39817" lon="-0.39262">
        <ele>24.2</ele>
        <time>2013-02-13T09:13:59.830Z</time>
      </trkpt>
      <trkpt lat="47.39817" lon="-0.39255">
        <ele>25.4</ele>
        <time>2013-02-13T09:14:01.750Z</time>
      </trkpt>
      <trkpt lat="47.39817" lon="-0.39252">
        <ele>24.2</ele>
        <time>2013-02-13T09:14:02.670Z</time>
      </trkpt>
      <trkpt lat="47.39816" lon="-0.39248">
        <ele>24.2</ele>
        <time>2013-02-13T09:14:03.750Z</time>
      </trkpt>
      <trkpt lat="47.39816" lon="-0.39245">
        <ele>24.1</ele>
        <time>2013-02-13T09:14:04.670Z</time>
      </trkpt>
      <trkpt lat="47.39816" lon="-0.39242">
        <ele>24.1</ele>
        <time>2013-02-13T09:14:05.750Z</time>
      </trkpt>
      <trkpt lat="47.39815" lon="-0.39239">
        <ele>24</ele>
        <time>2013-02-13T09:14:06.670Z</time>
      </trkpt>
      <trkpt lat="47.39815" lon="-0.39235">
        <ele>24</ele>
        <time>2013-02-13T09:14:07.750Z</time>
      </trkpt>
      <trkpt lat="47.39815" lon="-0.39232">
        <ele>23.9</ele>
        <time>2013-02-13T09:14:08.670Z</time>
      </trkpt>
      <trkpt lat="47.39814" lon="-0.39229">
        <ele>23.8</ele>
        <time>2013-02-13T09:14:09.750Z</time>
      </trkpt>
      <trkpt lat="47.39814" lon="-0.39226">
        <ele>23.8</ele>
        <time>2013-02-13T09:14:10.670Z</time>
      </trkpt>
      <trkpt lat="47.39814" lon="-0.39222">
        <ele>23.7</ele>
        <time>2013-02-13T09:14:11.900Z</time>
      </trkpt>
      <trkpt lat="47.39814" lon="-0.39215">
        <ele>23.7</ele>
        <time>2013-02-13T09:14:13.790Z</time>
      </trkpt>
      <trkpt lat="47.39814" lon="-0.39207">
        <ele>23.7</ele>
        <time>2013-02-13T09:14:15.670Z</time>
      </trkpt>
      <trkpt lat="47.39813" lon="-0.39203">
        <ele>23.7</ele>
        <time>2013-02-13T09:14:16.700Z</time>
      </trkpt>
      <trkpt lat="47.39813" lon="-0.392">
        <ele>23.7</ele>
        <time>2013-02-13T09:14:17.670Z</time>
      </trkpt>
      <trkpt lat="47.39813" lon="-0.39196">
        <ele>23.7</ele>
        <time>2013-02-13T09:14:18.770Z</time>
      </trkpt>
      <trkpt lat="47.39812" lon="-0.3919">
        <ele>23.8</ele>
        <time>2013-02-13T09:14:20.670Z</time>
      </trkpt>
      <trkpt lat="47.39811" lon="-0.39186">
        <ele>23.8</ele>
        <time>2013-02-13T09:14:21.750Z</time>
      </trkpt>
      <trkpt lat="47.39812" lon="-0.39183">
        <ele>23.8</ele>
        <time>2013-02-13T09:14:22.670Z</time>
      </trkpt>
      <trkpt lat="47.39812" lon="-0.39179">
        <ele>23.8</ele>
        <time>2013-02-13T09:14:23.750Z</time>
      </trkpt>
      <trkpt lat="47.39812" lon="-0.39176">
        <ele>23.8</ele>
        <time>2013-02-13T09:14:24.680Z</time>
      </trkpt>
      <trkpt lat="47.39811" lon="-0.39172">
        <ele>23.8</ele>
        <time>2013-02-13T09:14:25.770Z</time>
      </trkpt>
      <trkpt lat="47.39811" lon="-0.39165">
        <ele>23.8</ele>
        <time>2013-02-13T09:14:27.670Z</time>
      </trkpt>
      <trkpt lat="47.39811" lon="-0.39161">
        <ele>23.8</ele>
        <time>2013-02-13T09:14:28.700Z</time>
      </trkpt>
      <trkpt lat="47.39811" lon="-0.39157">
        <ele>23.7</ele>
        <time>2013-02-13T09:14:29.670Z</time>
      </trkpt>
      <trkpt lat="47.39811" lon="-0.39153">
        <ele>23.7</ele>
        <time>2013-02-13T09:14:30.810Z</time>
      </trkpt>
      <trkpt lat="47.39811" lon="-0.39146">
        <ele>23.7</ele>
        <time>2013-02-13T09:14:32.670Z</time>
      </trkpt>
      <trkpt lat="47.39811" lon="-0.39142">
        <ele>23.6</ele>
        <time>2013-02-13T09:14:33.810Z</time>
      </trkpt>
      <trkpt lat="47.3981" lon="-0.39135">
        <ele>23.7</ele>
        <time>2013-02-13T09:14:35.740Z</time>
      </trkpt>
      <trkpt lat="47.3981" lon="-0.39131">
        <ele>23.7</ele>
        <time>2013-02-13T09:14:36.670Z</time>
      </trkpt>
      <trkpt lat="47.3981" lon="-0.39128">
        <ele>23.7</ele>
        <time>2013-02-13T09:14:37.740Z</time>
      </trkpt>
      <trkpt lat="47.3981" lon="-0.39124">
        <ele>23.7</ele>
        <time>2013-02-13T09:14:38.670Z</time>
      </trkpt>
      <trkpt lat="47.3981" lon="-0.39121">
        <ele>23.7</ele>
        <time>2013-02-13T09:14:39.670Z</time>
      </trkpt>
      <trkpt lat="47.3981" lon="-0.39118">
        <ele>23.7</ele>
        <time>2013-02-13T09:14:40.740Z</time>
      </trkpt>
      <trkpt lat="47.3981" lon="-0.39115">
        <ele>23.7</ele>
        <time>2013-02-13T09:14:41.670Z</time>
      </trkpt>
      <trkpt lat="47.3981" lon="-0.39112">
        <ele>23.7</ele>
        <time>2013-02-13T09:14:42.740Z</time>
      </trkpt>
      <trkpt lat="47.39809" lon="-0.39108">
        <ele>23.7</ele>
        <time>2013-02-13T09:14:43.670Z</time>
      </trkpt>
      <trkpt lat="47.39809" lon="-0.39105">
        <ele>23.7</ele>
        <time>2013-02-13T09:14:44.870Z</time>
      </trkpt>
      <trkpt lat="47.39809" lon="-0.39097">
        <ele>23.8</ele>
        <time>2013-02-13T09:14:46.770Z</time>
      </trkpt>
      <trkpt lat="47.39809" lon="-0.39089">
        <ele>23.7</ele>
        <time>2013-02-13T09:14:48.670Z</time>
      </trkpt>
      <trkpt lat="47.39809" lon="-0.39086">
        <ele>23.7</ele>
        <time>2013-02-13T09:14:49.740Z</time>
      </trkpt>
      <trkpt lat="47.39809" lon="-0.39082">
        <ele>23.7</ele>
        <time>2013-02-13T09:14:50.680Z</time>
      </trkpt>
      <trkpt lat="47.3981" lon="-0.39076">
        <ele>23.7</ele>
        <time>2013-02-13T09:14:52.750Z</time>
      </trkpt>
      <trkpt lat="47.3981" lon="-0.39072">
        <ele>23.7</ele>
        <time>2013-02-13T09:14:53.670Z</time>
      </trkpt>
      <trkpt lat="47.3981" lon="-0.39069">
        <ele>23.7</ele>
        <time>2013-02-13T09:14:54.740Z</time>
      </trkpt>
      <trkpt lat="47.3981" lon="-0.39065">
        <ele>23.7</ele>
        <time>2013-02-13T09:14:55.670Z</time>
      </trkpt>
      <trkpt lat="47.3981" lon="-0.39062">
        <ele>23.7</ele>
        <time>2013-02-13T09:14:56.740Z</time>
      </trkpt>
      <trkpt lat="47.39809" lon="-0.39059">
        <ele>23.7</ele>
        <time>2013-02-13T09:14:57.670Z</time>
      </trkpt>
      <trkpt lat="47.39809" lon="-0.39055">
        <ele>23.8</ele>
        <time>2013-02-13T09:14:58.770Z</time>
      </trkpt>
      <trkpt lat="47.39808" lon="-0.39052">
        <ele>23.8</ele>
        <time>2013-02-13T09:14:59.790Z</time>
      </trkpt>
      <trkpt lat="47.39807" lon="-0.39046">
        <ele>24.1</ele>
        <time>2013-02-13T09:15:01.670Z</time>
      </trkpt>
      <trkpt lat="47.39806" lon="-0.39042">
        <ele>23.9</ele>
        <time>2013-02-13T09:15:02.680Z</time>
      </trkpt>
      <trkpt lat="47.39806" lon="-0.39038">
        <ele>24</ele>
        <time>2013-02-13T09:15:03.740Z</time>
      </trkpt>
      <trkpt lat="47.39806" lon="-0.39035">
        <ele>24</ele>
        <time>2013-02-13T09:15:04.670Z</time>
      </trkpt>
      <trkpt lat="47.39805" lon="-0.39031">
        <ele>24</ele>
        <time>2013-02-13T09:15:05.790Z</time>
      </trkpt>
      <trkpt lat="47.39805" lon="-0.39024">
        <ele>24.1</ele>
        <time>2013-02-13T09:15:07.670Z</time>
      </trkpt>
      <trkpt lat="47.39805" lon="-0.3902">
        <ele>24.3</ele>
        <time>2013-02-13T09:15:08.740Z</time>
      </trkpt>
      <trkpt lat="47.39804" lon="-0.39017">
        <ele>24.4</ele>
        <time>2013-02-13T09:15:09.670Z</time>
      </trkpt>
      <trkpt lat="47.39804" lon="-0.39013">
        <ele>24.5</ele>
        <time>2013-02-13T09:15:10.770Z</time>
      </trkpt>
      <trkpt lat="47.39803" lon="-0.39007">
        <ele>24.8</ele>
        <time>2013-02-13T09:15:12.850Z</time>
      </trkpt>
      <trkpt lat="47.39802" lon="-0.39001">
        <ele>25</ele>
        <time>2013-02-13T09:15:14.730Z</time>
      </trkpt>
      <trkpt lat="47.39801" lon="-0.38997">
        <ele>25</ele>
        <time>2013-02-13T09:15:15.670Z</time>
      </trkpt>
      <trkpt lat="47.39801" lon="-0.38994">
        <ele>25</ele>
        <time>2013-02-13T09:15:16.740Z</time>
      </trkpt>
      <trkpt lat="47.39801" lon="-0.3899">
        <ele>25.1</ele>
        <time>2013-02-13T09:15:17.850Z</time>
      </trkpt>
      <trkpt lat="47.39799" lon="-0.38983">
        <ele>25.1</ele>
        <time>2013-02-13T09:15:19.690Z</time>
      </trkpt>
      <trkpt lat="47.39798" lon="-0.3898">
        <ele>25.2</ele>
        <time>2013-02-13T09:15:20.670Z</time>
      </trkpt>
      <trkpt lat="47.39797" lon="-0.38978">
        <ele>25.2</ele>
        <time>2013-02-13T09:15:21.730Z</time>
      </trkpt>
      <trkpt lat="47.39797" lon="-0.38974">
        <ele>25.3</ele>
        <time>2013-02-13T09:15:22.670Z</time>
      </trkpt>
      <trkpt lat="47.39796" lon="-0.38971">
        <ele>25.3</ele>
        <time>2013-02-13T09:15:23.670Z</time>
      </trkpt>
      <trkpt lat="47.39795" lon="-0.38968">
        <ele>25.3</ele>
        <time>2013-02-13T09:15:24.670Z</time>
      </trkpt>
      <trkpt lat="47.39794" lon="-0.38965">
        <ele>25.2</ele>
        <time>2013-02-13T09:15:25.670Z</time>
      </trkpt>
      <trkpt lat="47.39793" lon="-0.38963">
        <ele>25.3</ele>
        <time>2013-02-13T09:15:26.780Z</time>
      </trkpt>
      <trkpt lat="47.39792" lon="-0.3896">
        <ele>25.3</ele>
        <time>2013-02-13T09:15:27.710Z</time>
      </trkpt>
      <trkpt lat="47.3979" lon="-0.38957">
        <ele>25.3</ele>
        <time>2013-02-13T09:15:28.730Z</time>
      </trkpt>
      <trkpt lat="47.39789" lon="-0.38953">
        <ele>25.3</ele>
        <time>2013-02-13T09:15:29.730Z</time>
      </trkpt>
      <trkpt lat="47.39788" lon="-0.38949">
        <ele>25.3</ele>
        <time>2013-02-13T09:15:30.730Z</time>
      </trkpt>
      <trkpt lat="47.39787" lon="-0.38946">
        <ele>25.4</ele>
        <time>2013-02-13T09:15:31.780Z</time>
      </trkpt>
      <trkpt lat="47.39784" lon="-0.38939">
        <ele>25.4</ele>
        <time>2013-02-13T09:15:33.680Z</time>
      </trkpt>
      <trkpt lat="47.39782" lon="-0.38936">
        <ele>25.4</ele>
        <time>2013-02-13T09:15:34.730Z</time>
      </trkpt>
      <trkpt lat="47.39781" lon="-0.38933">
        <ele>25.4</ele>
        <time>2013-02-13T09:15:35.730Z</time>
      </trkpt>
      <trkpt lat="47.3978" lon="-0.3893">
        <ele>25.4</ele>
        <time>2013-02-13T09:15:36.820Z</time>
      </trkpt>
      <trkpt lat="47.39776" lon="-0.38924">
        <ele>25.3</ele>
        <time>2013-02-13T09:15:38.730Z</time>
      </trkpt>
      <trkpt lat="47.39775" lon="-0.38921">
        <ele>25.4</ele>
        <time>2013-02-13T09:15:39.870Z</time>
      </trkpt>
      <trkpt lat="47.39773" lon="-0.38918">
        <ele>25.4</ele>
        <time>2013-02-13T09:15:40.780Z</time>
      </trkpt>
      <trkpt lat="47.39769" lon="-0.38912">
        <ele>25.6</ele>
        <time>2013-02-13T09:15:42.670Z</time>
      </trkpt>
      <trkpt lat="47.39767" lon="-0.3891">
        <ele>25.7</ele>
        <time>2013-02-13T09:15:43.670Z</time>
      </trkpt>
      <trkpt lat="47.39766" lon="-0.38906">
        <ele>25.7</ele>
        <time>2013-02-13T09:15:44.670Z</time>
      </trkpt>
      <trkpt lat="47.39764" lon="-0.38903">
        <ele>25.7</ele>
        <time>2013-02-13T09:15:45.670Z</time>
      </trkpt>
      <trkpt lat="47.39763" lon="-0.38899">
        <ele>25.8</ele>
        <time>2013-02-13T09:15:46.670Z</time>
      </trkpt>
      <trkpt lat="47.3976" lon="-0.38897">
        <ele>25.8</ele>
        <time>2013-02-13T09:15:47.670Z</time>
      </trkpt>
      <trkpt lat="47.39758" lon="-0.38895">
        <ele>25.8</ele>
        <time>2013-02-13T09:15:48.670Z</time>
      </trkpt>
      <trkpt lat="47.39757" lon="-0.38892">
        <ele>25.8</ele>
        <time>2013-02-13T09:15:49.670Z</time>
      </trkpt>
      <trkpt lat="47.39755" lon="-0.38889">
        <ele>25.8</ele>
        <time>2013-02-13T09:15:50.680Z</time>
      </trkpt>
      <trkpt lat="47.39754" lon="-0.38886">
        <ele>25.9</ele>
        <time>2013-02-13T09:15:51.670Z</time>
      </trkpt>
      <trkpt lat="47.39753" lon="-0.38884">
        <ele>25.9</ele>
        <time>2013-02-13T09:15:52.720Z</time>
      </trkpt>
      <trkpt lat="47.39751" lon="-0.38881">
        <ele>26</ele>
        <time>2013-02-13T09:15:53.780Z</time>
      </trkpt>
      <trkpt lat="47.39748" lon="-0.38875">
        <ele>26.1</ele>
        <time>2013-02-13T09:15:55.670Z</time>
      </trkpt>
      <trkpt lat="47.39747" lon="-0.38871">
        <ele>26.1</ele>
        <time>2013-02-13T09:15:56.670Z</time>
      </trkpt>
      <trkpt lat="47.39746" lon="-0.38869">
        <ele>26.2</ele>
        <time>2013-02-13T09:15:57.670Z</time>
      </trkpt>
      <trkpt lat="47.39745" lon="-0.38866">
        <ele>26.2</ele>
        <time>2013-02-13T09:15:58.780Z</time>
      </trkpt>
      <trkpt lat="47.39743" lon="-0.3886">
        <ele>31.1</ele>
        <time>2013-02-13T09:16:00.780Z</time>
      </trkpt>
      <trkpt lat="47.39741" lon="-0.38854">
        <ele>26.3</ele>
        <time>2013-02-13T09:16:02.720Z</time>
      </trkpt>
      <trkpt lat="47.3974" lon="-0.38851">
        <ele>26.4</ele>
        <time>2013-02-13T09:16:03.770Z</time>
      </trkpt>
      <trkpt lat="47.39738" lon="-0.38845">
        <ele>26.4</ele>
        <time>2013-02-13T09:16:05.760Z</time>
      </trkpt>
      <trkpt lat="47.39738" lon="-0.38841">
        <ele>26.4</ele>
        <time>2013-02-13T09:16:06.670Z</time>
      </trkpt>
      <trkpt lat="47.39738" lon="-0.38838">
        <ele>26.5</ele>
        <time>2013-02-13T09:16:07.670Z</time>
      </trkpt>
      <trkpt lat="47.39737" lon="-0.38834">
        <ele>26.5</ele>
        <time>2013-02-13T09:16:08.780Z</time>
      </trkpt>
      <trkpt lat="47.39736" lon="-0.38828">
        <ele>26.6</ele>
        <time>2013-02-13T09:16:10.680Z</time>
      </trkpt>
      <trkpt lat="47.39736" lon="-0.38825">
        <ele>26.7</ele>
        <time>2013-02-13T09:16:11.770Z</time>
      </trkpt>
      <trkpt lat="47.39733" lon="-0.3882">
        <ele>26.9</ele>
        <time>2013-02-13T09:16:13.700Z</time>
      </trkpt>
      <trkpt lat="47.39733" lon="-0.38817">
        <ele>27</ele>
        <time>2013-02-13T09:16:14.780Z</time>
      </trkpt>
      <trkpt lat="47.39732" lon="-0.38811">
        <ele>27.2</ele>
        <time>2013-02-13T09:16:16.680Z</time>
      </trkpt>
      <trkpt lat="47.39732" lon="-0.38807">
        <ele>27.2</ele>
        <time>2013-02-13T09:16:17.870Z</time>
      </trkpt>
      <trkpt lat="47.39733" lon="-0.38804">
        <ele>27.3</ele>
        <time>2013-02-13T09:16:18.780Z</time>
      </trkpt>
      <trkpt lat="47.39734" lon="-0.38797">
        <ele>27.3</ele>
        <time>2013-02-13T09:16:20.670Z</time>
      </trkpt>
      <trkpt lat="47.39735" lon="-0.38795">
        <ele>27.3</ele>
        <time>2013-02-13T09:16:21.670Z</time>
      </trkpt>
      <trkpt lat="47.39735" lon="-0.38791">
        <ele>27.3</ele>
        <time>2013-02-13T09:16:22.670Z</time>
      </trkpt>
      <trkpt lat="47.39735" lon="-0.38788">
        <ele>27.4</ele>
        <time>2013-02-13T09:16:23.720Z</time>
      </trkpt>
      <trkpt lat="47.39736" lon="-0.38785">
        <ele>27.4</ele>
        <time>2013-02-13T09:16:24.780Z</time>
      </trkpt>
      <trkpt lat="47.39736" lon="-0.38779">
        <ele>27.5</ele>
        <time>2013-02-13T09:16:26.670Z</time>
      </trkpt>
      <trkpt lat="47.39737" lon="-0.38776">
        <ele>27.5</ele>
        <time>2013-02-13T09:16:27.680Z</time>
      </trkpt>
      <trkpt lat="47.39738" lon="-0.38773">
        <ele>27.6</ele>
        <time>2013-02-13T09:16:28.720Z</time>
      </trkpt>
      <trkpt lat="47.39739" lon="-0.3877">
        <ele>27.7</ele>
        <time>2013-02-13T09:16:29.720Z</time>
      </trkpt>
      <trkpt lat="47.39739" lon="-0.38767">
        <ele>27.8</ele>
        <time>2013-02-13T09:16:30.850Z</time>
      </trkpt>
      <trkpt lat="47.39739" lon="-0.38764">
        <ele>27.9</ele>
        <time>2013-02-13T09:16:31.780Z</time>
      </trkpt>
      <trkpt lat="47.39741" lon="-0.38758">
        <ele>28.1</ele>
        <time>2013-02-13T09:16:33.680Z</time>
      </trkpt>
      <trkpt lat="47.39742" lon="-0.38755">
        <ele>28.1</ele>
        <time>2013-02-13T09:16:34.780Z</time>
      </trkpt>
      <trkpt lat="47.39743" lon="-0.38749">
        <ele>28.3</ele>
        <time>2013-02-13T09:16:36.670Z</time>
      </trkpt>
      <trkpt lat="47.39744" lon="-0.38744">
        <ele>28.6</ele>
        <time>2013-02-13T09:16:38.710Z</time>
      </trkpt>
      <trkpt lat="47.39744" lon="-0.38741">
        <ele>28.8</ele>
        <time>2013-02-13T09:16:39.770Z</time>
      </trkpt>
      <trkpt lat="47.39745" lon="-0.38735">
        <ele>29.3</ele>
        <time>2013-02-13T09:16:41.670Z</time>
      </trkpt>
      <trkpt lat="47.39746" lon="-0.38733">
        <ele>29.4</ele>
        <time>2013-02-13T09:16:42.670Z</time>
      </trkpt>
      <trkpt lat="47.39746" lon="-0.38729">
        <ele>29.6</ele>
        <time>2013-02-13T09:16:43.710Z</time>
      </trkpt>
      <trkpt lat="47.39747" lon="-0.38726">
        <ele>29.8</ele>
        <time>2013-02-13T09:16:44.700Z</time>
      </trkpt>
      <trkpt lat="47.39748" lon="-0.3872">
        <ele>30.2</ele>
        <time>2013-02-13T09:16:46.670Z</time>
      </trkpt>
      <trkpt lat="47.39748" lon="-0.38718">
        <ele>30.2</ele>
        <time>2013-02-13T09:16:47.670Z</time>
      </trkpt>
      <trkpt lat="47.39749" lon="-0.38715">
        <ele>30.3</ele>
        <time>2013-02-13T09:16:48.670Z</time>
      </trkpt>
      <trkpt lat="47.39749" lon="-0.38712">
        <ele>30.4</ele>
        <time>2013-02-13T09:16:49.770Z</time>
      </trkpt>
      <trkpt lat="47.3975" lon="-0.38707">
        <ele>30.5</ele>
        <time>2013-02-13T09:16:51.710Z</time>
      </trkpt>
      <trkpt lat="47.39751" lon="-0.38704">
        <ele>30.6</ele>
        <time>2013-02-13T09:16:52.710Z</time>
      </trkpt>
      <trkpt lat="47.39751" lon="-0.38701">
        <ele>30.7</ele>
        <time>2013-02-13T09:16:53.710Z</time>
      </trkpt>
      <trkpt lat="47.39751" lon="-0.38698">
        <ele>30.8</ele>
        <time>2013-02-13T09:16:54.860Z</time>
      </trkpt>
      <trkpt lat="47.39751" lon="-0.38693">
        <ele>31</ele>
        <time>2013-02-13T09:16:56.850Z</time>
      </trkpt>
      <trkpt lat="47.39752" lon="-0.38688">
        <ele>31.3</ele>
        <time>2013-02-13T09:16:58.770Z</time>
      </trkpt>
      <trkpt lat="47.39753" lon="-0.38686">
        <ele>31.4</ele>
        <time>2013-02-13T09:16:59.760Z</time>
      </trkpt>
      <trkpt lat="47.39754" lon="-0.3868">
        <ele>39.8</ele>
        <time>2013-02-13T09:17:01.680Z</time>
      </trkpt>
      <trkpt lat="47.39755" lon="-0.38677">
        <ele>31.9</ele>
        <time>2013-02-13T09:17:02.710Z</time>
      </trkpt>
      <trkpt lat="47.39756" lon="-0.38674">
        <ele>32</ele>
        <time>2013-02-13T09:17:03.780Z</time>
      </trkpt>
      <trkpt lat="47.39757" lon="-0.38669">
        <ele>32.3</ele>
        <time>2013-02-13T09:17:05.710Z</time>
      </trkpt>
      <trkpt lat="47.39758" lon="-0.38668">
        <ele>32.3</ele>
        <time>2013-02-13T09:17:06.710Z</time>
      </trkpt>
      <trkpt lat="47.39759" lon="-0.38667">
        <ele>32.3</ele>
        <time>2013-02-13T09:17:07.780Z</time>
      </trkpt>
      <trkpt lat="47.3976" lon="-0.38663">
        <ele>32.8</ele>
        <time>2013-02-13T09:17:09.940Z</time>
      </trkpt>
      <trkpt lat="47.39762" lon="-0.38656">
        <ele>33.4</ele>
        <time>2013-02-13T09:17:11.670Z</time>
      </trkpt>
      <trkpt lat="47.39764" lon="-0.38652">
        <ele>33.6</ele>
        <time>2013-02-13T09:17:12.670Z</time>
      </trkpt>
      <trkpt lat="47.39764" lon="-0.38649">
        <ele>33.8</ele>
        <time>2013-02-13T09:17:13.670Z</time>
      </trkpt>
      <trkpt lat="47.39765" lon="-0.38646">
        <ele>34.1</ele>
        <time>2013-02-13T09:17:14.670Z</time>
      </trkpt>
      <trkpt lat="47.39766" lon="-0.38642">
        <ele>34.4</ele>
        <time>2013-02-13T09:17:15.670Z</time>
      </trkpt>
      <trkpt lat="47.39766" lon="-0.3864">
        <ele>34.6</ele>
        <time>2013-02-13T09:17:16.760Z</time>
      </trkpt>
      <trkpt lat="47.39767" lon="-0.38634">
        <ele>34.8</ele>
        <time>2013-02-13T09:17:18.800Z</time>
      </trkpt>
      <trkpt lat="47.39769" lon="-0.38626">
        <ele>35</ele>
        <time>2013-02-13T09:17:20.700Z</time>
      </trkpt>
      <trkpt lat="47.3977" lon="-0.38623">
        <ele>35.1</ele>
        <time>2013-02-13T09:17:21.850Z</time>
      </trkpt>
      <trkpt lat="47.3977" lon="-0.38615">
        <ele>35.6</ele>
        <time>2013-02-13T09:17:23.770Z</time>
      </trkpt>
      <trkpt lat="47.39771" lon="-0.3861">
        <ele>35.8</ele>
        <time>2013-02-13T09:17:25.860Z</time>
      </trkpt>
      <trkpt lat="47.39772" lon="-0.38606">
        <ele>36</ele>
        <time>2013-02-13T09:17:27.770Z</time>
      </trkpt>
      <trkpt lat="47.39774" lon="-0.38599">
        <ele>36.2</ele>
        <time>2013-02-13T09:17:29.770Z</time>
      </trkpt>
      <trkpt lat="47.39775" lon="-0.38593">
        <ele>36.5</ele>
        <time>2013-02-13T09:17:31.780Z</time>
      </trkpt>
      <trkpt lat="47.39776" lon="-0.38588">
        <ele>36.8</ele>
        <time>2013-02-13T09:17:33.680Z</time>
      </trkpt>
      <trkpt lat="47.39776" lon="-0.38586">
        <ele>37</ele>
        <time>2013-02-13T09:17:34.690Z</time>
      </trkpt>
      <trkpt lat="47.39777" lon="-0.38582">
        <ele>37.1</ele>
        <time>2013-02-13T09:17:35.770Z</time>
      </trkpt>
      <trkpt lat="47.39777" lon="-0.38576">
        <ele>37.3</ele>
        <time>2013-02-13T09:17:37.770Z</time>
      </trkpt>
      <trkpt lat="47.39776" lon="-0.3857">
        <ele>37.6</ele>
        <time>2013-02-13T09:17:39.670Z</time>
      </trkpt>
      <trkpt lat="47.39776" lon="-0.38567">
        <ele>37.7</ele>
        <time>2013-02-13T09:17:40.700Z</time>
      </trkpt>
      <trkpt lat="47.39777" lon="-0.38564">
        <ele>37.8</ele>
        <time>2013-02-13T09:17:41.790Z</time>
      </trkpt>
      <trkpt lat="47.39778" lon="-0.38557">
        <ele>37.9</ele>
        <time>2013-02-13T09:17:43.700Z</time>
      </trkpt>
      <trkpt lat="47.39779" lon="-0.38555">
        <ele>38.1</ele>
        <time>2013-02-13T09:17:44.780Z</time>
      </trkpt>
      <trkpt lat="47.39779" lon="-0.38549">
        <ele>38.4</ele>
        <time>2013-02-13T09:17:46.780Z</time>
      </trkpt>
      <trkpt lat="47.3978" lon="-0.38543">
        <ele>38.8</ele>
        <time>2013-02-13T09:17:48.670Z</time>
      </trkpt>
      <trkpt lat="47.39781" lon="-0.3854">
        <ele>39</ele>
        <time>2013-02-13T09:17:49.840Z</time>
      </trkpt>
      <trkpt lat="47.39782" lon="-0.38537">
        <ele>39.2</ele>
        <time>2013-02-13T09:17:50.750Z</time>
      </trkpt>
      <trkpt lat="47.39783" lon="-0.38532">
        <ele>39.5</ele>
        <time>2013-02-13T09:17:52.750Z</time>
      </trkpt>
      <trkpt lat="47.39783" lon="-0.38526">
        <ele>39.9</ele>
        <time>2013-02-13T09:17:54.670Z</time>
      </trkpt>
      <trkpt lat="47.39783" lon="-0.38523">
        <ele>40.1</ele>
        <time>2013-02-13T09:17:55.790Z</time>
      </trkpt>
      <trkpt lat="47.39784" lon="-0.38517">
        <ele>40.4</ele>
        <time>2013-02-13T09:17:57.790Z</time>
      </trkpt>
      <trkpt lat="47.39783" lon="-0.38513">
        <ele>40.7</ele>
        <time>2013-02-13T09:17:59.850Z</time>
      </trkpt>
      <trkpt lat="47.39782" lon="-0.38508">
        <ele>44</ele>
        <time>2013-02-13T09:18:01.690Z</time>
      </trkpt>
      <trkpt lat="47.39782" lon="-0.38506">
        <ele>41.3</ele>
        <time>2013-02-13T09:18:02.830Z</time>
      </trkpt>
      <trkpt lat="47.39781" lon="-0.38502">
        <ele>41.5</ele>
        <time>2013-02-13T09:18:03.780Z</time>
      </trkpt>
      <trkpt lat="47.39781" lon="-0.38495">
        <ele>41.8</ele>
        <time>2013-02-13T09:18:05.670Z</time>
      </trkpt>
      <trkpt lat="47.39781" lon="-0.38492">
        <ele>41.9</ele>
        <time>2013-02-13T09:18:06.790Z</time>
      </trkpt>
      <trkpt lat="47.39782" lon="-0.38486">
        <ele>42.2</ele>
        <time>2013-02-13T09:18:08.800Z</time>
      </trkpt>
      <trkpt lat="47.39782" lon="-0.38478">
        <ele>42.4</ele>
        <time>2013-02-13T09:18:10.740Z</time>
      </trkpt>
      <trkpt lat="47.39783" lon="-0.38472">
        <ele>42.6</ele>
        <time>2013-02-13T09:18:12.780Z</time>
      </trkpt>
      <trkpt lat="47.39783" lon="-0.3847">
        <ele>42.7</ele>
        <time>2013-02-13T09:18:13.860Z</time>
      </trkpt>
      <trkpt lat="47.39784" lon="-0.38462">
        <ele>42.9</ele>
        <time>2013-02-13T09:18:15.830Z</time>
      </trkpt>
      <trkpt lat="47.39785" lon="-0.38459">
        <ele>43</ele>
        <time>2013-02-13T09:18:16.770Z</time>
      </trkpt>
      <trkpt lat="47.39785" lon="-0.38456">
        <ele>43</ele>
        <time>2013-02-13T09:18:17.790Z</time>
      </trkpt>
      <trkpt lat="47.39785" lon="-0.38453">
        <ele>43.2</ele>
        <time>2013-02-13T09:18:18.790Z</time>
      </trkpt>
      <trkpt lat="47.39785" lon="-0.38449">
        <ele>43.3</ele>
        <time>2013-02-13T09:18:19.790Z</time>
      </trkpt>
      <trkpt lat="47.39785" lon="-0.38446">
        <ele>43.4</ele>
        <time>2013-02-13T09:18:20.800Z</time>
      </trkpt>
      <trkpt lat="47.39785" lon="-0.38442">
        <ele>43.5</ele>
        <time>2013-02-13T09:18:21.790Z</time>
      </trkpt>
      <trkpt lat="47.39785" lon="-0.38438">
        <ele>43.5</ele>
        <time>2013-02-13T09:18:22.890Z</time>
      </trkpt>
      <trkpt lat="47.39785" lon="-0.38435">
        <ele>43.5</ele>
        <time>2013-02-13T09:18:23.890Z</time>
      </trkpt>
      <trkpt lat="47.39786" lon="-0.3843">
        <ele>43.4</ele>
        <time>2013-02-13T09:18:25.770Z</time>
      </trkpt>
      <trkpt lat="47.39786" lon="-0.38427">
        <ele>43.4</ele>
        <time>2013-02-13T09:18:26.870Z</time>
      </trkpt>
      <trkpt lat="47.39786" lon="-0.3842">
        <ele>43.4</ele>
        <time>2013-02-13T09:18:28.890Z</time>
      </trkpt>
      <trkpt lat="47.39786" lon="-0.38416">
        <ele>43.4</ele>
        <time>2013-02-13T09:18:29.890Z</time>
      </trkpt>
      <trkpt lat="47.39786" lon="-0.38413">
        <ele>43.4</ele>
        <time>2013-02-13T09:18:30.890Z</time>
      </trkpt>
      <trkpt lat="47.39786" lon="-0.38409">
        <ele>43.4</ele>
        <time>2013-02-13T09:18:31.880Z</time>
      </trkpt>
      <trkpt lat="47.39785" lon="-0.38403">
        <ele>43.5</ele>
        <time>2013-02-13T09:18:33.800Z</time>
      </trkpt>
      <trkpt lat="47.39784" lon="-0.38397">
        <ele>43.5</ele>
        <time>2013-02-13T09:18:35.780Z</time>
      </trkpt>
      <trkpt lat="47.39784" lon="-0.38394">
        <ele>43.6</ele>
        <time>2013-02-13T09:18:36.780Z</time>
      </trkpt>
      <trkpt lat="47.39783" lon="-0.38391">
        <ele>43.6</ele>
        <time>2013-02-13T09:18:37.780Z</time>
      </trkpt>
      <trkpt lat="47.39783" lon="-0.38387">
        <ele>43.6</ele>
        <time>2013-02-13T09:18:38.780Z</time>
      </trkpt>
      <trkpt lat="47.39782" lon="-0.38384">
        <ele>43.5</ele>
        <time>2013-02-13T09:18:39.780Z</time>
      </trkpt>
      <trkpt lat="47.39782" lon="-0.38381">
        <ele>43.4</ele>
        <time>2013-02-13T09:18:40.780Z</time>
      </trkpt>
      <trkpt lat="47.39782" lon="-0.38378">
        <ele>43.3</ele>
        <time>2013-02-13T09:18:41.820Z</time>
      </trkpt>
      <trkpt lat="47.39782" lon="-0.38374">
        <ele>43.2</ele>
        <time>2013-02-13T09:18:42.760Z</time>
      </trkpt>
      <trkpt lat="47.39782" lon="-0.38371">
        <ele>43.2</ele>
        <time>2013-02-13T09:18:43.770Z</time>
      </trkpt>
      <trkpt lat="47.39782" lon="-0.38368">
        <ele>43.1</ele>
        <time>2013-02-13T09:18:44.780Z</time>
      </trkpt>
      <trkpt lat="47.39781" lon="-0.38364">
        <ele>43</ele>
        <time>2013-02-13T09:18:45.790Z</time>
      </trkpt>
      <trkpt lat="47.39781" lon="-0.38361">
        <ele>42.9</ele>
        <time>2013-02-13T09:18:46.780Z</time>
      </trkpt>
      <trkpt lat="47.39782" lon="-0.38357">
        <ele>42.8</ele>
        <time>2013-02-13T09:18:47.780Z</time>
      </trkpt>
      <trkpt lat="47.39782" lon="-0.38353">
        <ele>42.8</ele>
        <time>2013-02-13T09:18:48.780Z</time>
      </trkpt>
      <trkpt lat="47.39782" lon="-0.3835">
        <ele>42.8</ele>
        <time>2013-02-13T09:18:49.780Z</time>
      </trkpt>
      <trkpt lat="47.39783" lon="-0.38347">
        <ele>42.7</ele>
        <time>2013-02-13T09:18:50.780Z</time>
      </trkpt>
      <trkpt lat="47.39783" lon="-0.38343">
        <ele>42.7</ele>
        <time>2013-02-13T09:18:51.780Z</time>
      </trkpt>
      <trkpt lat="47.39783" lon="-0.3834">
        <ele>42.7</ele>
        <time>2013-02-13T09:18:52.780Z</time>
      </trkpt>
      <trkpt lat="47.39783" lon="-0.38336">
        <ele>42.6</ele>
        <time>2013-02-13T09:18:53.780Z</time>
      </trkpt>
      <trkpt lat="47.39784" lon="-0.38333">
        <ele>42.6</ele>
        <time>2013-02-13T09:18:54.820Z</time>
      </trkpt>
      <trkpt lat="47.39784" lon="-0.3833">
        <ele>42.6</ele>
        <time>2013-02-13T09:18:55.780Z</time>
      </trkpt>
      <trkpt lat="47.39785" lon="-0.38327">
        <ele>42.6</ele>
        <time>2013-02-13T09:18:56.780Z</time>
      </trkpt>
      <trkpt lat="47.39786" lon="-0.38324">
        <ele>42.6</ele>
        <time>2013-02-13T09:18:57.780Z</time>
      </trkpt>
      <trkpt lat="47.39787" lon="-0.38321">
        <ele>42.7</ele>
        <time>2013-02-13T09:18:58.880Z</time>
      </trkpt>
      <trkpt lat="47.39787" lon="-0.38318">
        <ele>42.7</ele>
        <time>2013-02-13T09:18:59.860Z</time>
      </trkpt>
      <trkpt lat="47.39788" lon="-0.38315">
        <ele>46.2</ele>
        <time>2013-02-13T09:19:00.860Z</time>
      </trkpt>
      <trkpt lat="47.3979" lon="-0.38313">
        <ele>42.6</ele>
        <time>2013-02-13T09:19:01.880Z</time>
      </trkpt>
      <trkpt lat="47.39793" lon="-0.38309">
        <ele>42.3</ele>
        <time>2013-02-13T09:19:03.850Z</time>
      </trkpt>
      <trkpt lat="47.39797" lon="-0.38306">
        <ele>41.9</ele>
        <time>2013-02-13T09:19:05.780Z</time>
      </trkpt>
      <trkpt lat="47.39799" lon="-0.38305">
        <ele>41.8</ele>
        <time>2013-02-13T09:19:07.270Z</time>
      </trkpt>
      <trkpt lat="47.39802" lon="-0.38302">
        <ele>41.7</ele>
        <time>2013-02-13T09:19:08.880Z</time>
      </trkpt>
      <trkpt lat="47.39803" lon="-0.383">
        <ele>41.6</ele>
        <time>2013-02-13T09:19:09.880Z</time>
      </trkpt>
      <trkpt lat="47.39805" lon="-0.38298">
        <ele>41.6</ele>
        <time>2013-02-13T09:19:10.880Z</time>
      </trkpt>
      <trkpt lat="47.39808" lon="-0.38296">
        <ele>41.5</ele>
        <time>2013-02-13T09:19:11.990Z</time>
      </trkpt>
      <trkpt lat="47.39812" lon="-0.38293">
        <ele>41.2</ele>
        <time>2013-02-13T09:19:13.780Z</time>
      </trkpt>
      <trkpt lat="47.39815" lon="-0.38291">
        <ele>41.1</ele>
        <time>2013-02-13T09:19:14.780Z</time>
      </trkpt>
      <trkpt lat="47.39817" lon="-0.38289">
        <ele>40.9</ele>
        <time>2013-02-13T09:19:15.780Z</time>
      </trkpt>
      <trkpt lat="47.39819" lon="-0.38287">
        <ele>40.8</ele>
        <time>2013-02-13T09:19:16.760Z</time>
      </trkpt>
      <trkpt lat="47.39821" lon="-0.38285">
        <ele>40.5</ele>
        <time>2013-02-13T09:19:17.770Z</time>
      </trkpt>
      <trkpt lat="47.39823" lon="-0.38284">
        <ele>40.3</ele>
        <time>2013-02-13T09:19:18.870Z</time>
      </trkpt>
      <trkpt lat="47.39826" lon="-0.38282">
        <ele>40</ele>
        <time>2013-02-13T09:19:19.870Z</time>
      </trkpt>
      <trkpt lat="47.39827" lon="-0.38281">
        <ele>39.8</ele>
        <time>2013-02-13T09:19:20.870Z</time>
      </trkpt>
      <trkpt lat="47.39829" lon="-0.3828">
        <ele>39.6</ele>
        <time>2013-02-13T09:19:21.870Z</time>
      </trkpt>
      <trkpt lat="47.39831" lon="-0.38279">
        <ele>39.4</ele>
        <time>2013-02-13T09:19:22.870Z</time>
      </trkpt>
      <trkpt lat="47.39833" lon="-0.38277">
        <ele>39.1</ele>
        <time>2013-02-13T09:19:23.870Z</time>
      </trkpt>
      <trkpt lat="47.39835" lon="-0.38275">
        <ele>39.1</ele>
        <time>2013-02-13T09:19:24.870Z</time>
      </trkpt>
      <trkpt lat="47.39838" lon="-0.38273">
        <ele>39</ele>
        <time>2013-02-13T09:19:25.870Z</time>
      </trkpt>
      <trkpt lat="47.3984" lon="-0.38271">
        <ele>39</ele>
        <time>2013-02-13T09:19:26.870Z</time>
      </trkpt>
      <trkpt lat="47.39842" lon="-0.38269">
        <ele>38.9</ele>
        <time>2013-02-13T09:19:27.870Z</time>
      </trkpt>
      <trkpt lat="47.39844" lon="-0.38266">
        <ele>38.9</ele>
        <time>2013-02-13T09:19:28.870Z</time>
      </trkpt>
      <trkpt lat="47.39847" lon="-0.38264">
        <ele>38.8</ele>
        <time>2013-02-13T09:19:29.870Z</time>
      </trkpt>
      <trkpt lat="47.39849" lon="-0.38262">
        <ele>38.7</ele>
        <time>2013-02-13T09:19:30.870Z</time>
      </trkpt>
      <trkpt lat="47.39851" lon="-0.3826">
        <ele>38.6</ele>
        <time>2013-02-13T09:19:31.870Z</time>
      </trkpt>
      <trkpt lat="47.39853" lon="-0.38258">
        <ele>38.5</ele>
        <time>2013-02-13T09:19:32.870Z</time>
      </trkpt>
      <trkpt lat="47.39855" lon="-0.38256">
        <ele>38.4</ele>
        <time>2013-02-13T09:19:33.850Z</time>
      </trkpt>
      <trkpt lat="47.39857" lon="-0.38254">
        <ele>38.3</ele>
        <time>2013-02-13T09:19:34.850Z</time>
      </trkpt>
      <trkpt lat="47.39859" lon="-0.38253">
        <ele>38.1</ele>
        <time>2013-02-13T09:19:35.870Z</time>
      </trkpt>
      <trkpt lat="47.39861" lon="-0.38251">
        <ele>38</ele>
        <time>2013-02-13T09:19:36.870Z</time>
      </trkpt>
      <trkpt lat="47.39863" lon="-0.38249">
        <ele>37.9</ele>
        <time>2013-02-13T09:19:37.870Z</time>
      </trkpt>
      <trkpt lat="47.39865" lon="-0.38247">
        <ele>37.7</ele>
        <time>2013-02-13T09:19:38.910Z</time>
      </trkpt>
      <trkpt lat="47.39867" lon="-0.38245">
        <ele>37.6</ele>
        <time>2013-02-13T09:19:39.870Z</time>
      </trkpt>
      <trkpt lat="47.39868" lon="-0.38244">
        <ele>37.4</ele>
        <time>2013-02-13T09:19:40.870Z</time>
      </trkpt>
      <trkpt lat="47.3987" lon="-0.38243">
        <ele>37.3</ele>
        <time>2013-02-13T09:19:41.870Z</time>
      </trkpt>
      <trkpt lat="47.39872" lon="-0.38241">
        <ele>37.2</ele>
        <time>2013-02-13T09:19:42.870Z</time>
      </trkpt>
      <trkpt lat="47.39875" lon="-0.38239">
        <ele>37</ele>
        <time>2013-02-13T09:19:43.870Z</time>
      </trkpt>
      <trkpt lat="47.39876" lon="-0.38237">
        <ele>36.8</ele>
        <time>2013-02-13T09:19:44.870Z</time>
      </trkpt>
      <trkpt lat="47.39879" lon="-0.38234">
        <ele>36.7</ele>
        <time>2013-02-13T09:19:45.870Z</time>
      </trkpt>
      <trkpt lat="47.39881" lon="-0.38231">
        <ele>36.5</ele>
        <time>2013-02-13T09:19:46.870Z</time>
      </trkpt>
      <trkpt lat="47.39883" lon="-0.38228">
        <ele>36.4</ele>
        <time>2013-02-13T09:19:47.870Z</time>
      </trkpt>
      <trkpt lat="47.39885" lon="-0.38225">
        <ele>36.4</ele>
        <time>2013-02-13T09:19:48.870Z</time>
      </trkpt>
      <trkpt lat="47.39886" lon="-0.38223">
        <ele>36.3</ele>
        <time>2013-02-13T09:19:49.870Z</time>
      </trkpt>
      <trkpt lat="47.39888" lon="-0.38219">
        <ele>36.2</ele>
        <time>2013-02-13T09:19:50.830Z</time>
      </trkpt>
      <trkpt lat="47.3989" lon="-0.38216">
        <ele>36.1</ele>
        <time>2013-02-13T09:19:51.850Z</time>
      </trkpt>
      <trkpt lat="47.39891" lon="-0.38213">
        <ele>36</ele>
        <time>2013-02-13T09:19:52.870Z</time>
      </trkpt>
      <trkpt lat="47.39893" lon="-0.3821">
        <ele>36</ele>
        <time>2013-02-13T09:19:53.870Z</time>
      </trkpt>
      <trkpt lat="47.39894" lon="-0.38207">
        <ele>35.9</ele>
        <time>2013-02-13T09:19:54.870Z</time>
      </trkpt>
      <trkpt lat="47.39895" lon="-0.38204">
        <ele>35.9</ele>
        <time>2013-02-13T09:19:55.870Z</time>
      </trkpt>
      <trkpt lat="47.39896" lon="-0.38201">
        <ele>35.8</ele>
        <time>2013-02-13T09:19:56.870Z</time>
      </trkpt>
      <trkpt lat="47.39897" lon="-0.38198">
        <ele>35.8</ele>
        <time>2013-02-13T09:19:57.860Z</time>
      </trkpt>
      <trkpt lat="47.39898" lon="-0.38194">
        <ele>35.7</ele>
        <time>2013-02-13T09:19:58.860Z</time>
      </trkpt>
      <trkpt lat="47.39899" lon="-0.38188">
        <ele>42.2</ele>
        <time>2013-02-13T09:20:00.860Z</time>
      </trkpt>
      <trkpt lat="47.39899" lon="-0.38184">
        <ele>35.8</ele>
        <time>2013-02-13T09:20:01.860Z</time>
      </trkpt>
      <trkpt lat="47.39899" lon="-0.3818">
        <ele>35.9</ele>
        <time>2013-02-13T09:20:02.860Z</time>
      </trkpt>
      <trkpt lat="47.39899" lon="-0.38176">
        <ele>36</ele>
        <time>2013-02-13T09:20:03.860Z</time>
      </trkpt>
      <trkpt lat="47.39898" lon="-0.38172">
        <ele>36.2</ele>
        <time>2013-02-13T09:20:04.860Z</time>
      </trkpt>
      <trkpt lat="47.39898" lon="-0.38168">
        <ele>36.3</ele>
        <time>2013-02-13T09:20:05.860Z</time>
      </trkpt>
      <trkpt lat="47.39897" lon="-0.38164">
        <ele>36.4</ele>
        <time>2013-02-13T09:20:06.860Z</time>
      </trkpt>
      <trkpt lat="47.39897" lon="-0.38161">
        <ele>36.5</ele>
        <time>2013-02-13T09:20:07.860Z</time>
      </trkpt>
      <trkpt lat="47.39895" lon="-0.38157">
        <ele>36.6</ele>
        <time>2013-02-13T09:20:08.850Z</time>
      </trkpt>
      <trkpt lat="47.39894" lon="-0.38153">
        <ele>36.7</ele>
        <time>2013-02-13T09:20:09.860Z</time>
      </trkpt>
      <trkpt lat="47.39893" lon="-0.38146">
        <ele>36.8</ele>
        <time>2013-02-13T09:20:11.770Z</time>
      </trkpt>
      <trkpt lat="47.39892" lon="-0.38143">
        <ele>36.8</ele>
        <time>2013-02-13T09:20:12.760Z</time>
      </trkpt>
      <trkpt lat="47.39891" lon="-0.3814">
        <ele>36.8</ele>
        <time>2013-02-13T09:20:13.760Z</time>
      </trkpt>
      <trkpt lat="47.3989" lon="-0.38136">
        <ele>36.8</ele>
        <time>2013-02-13T09:20:14.760Z</time>
      </trkpt>
      <trkpt lat="47.3989" lon="-0.38133">
        <ele>36.9</ele>
        <time>2013-02-13T09:20:15.760Z</time>
      </trkpt>
      <trkpt lat="47.39889" lon="-0.38129">
        <ele>37</ele>
        <time>2013-02-13T09:20:16.760Z</time>
      </trkpt>
      <trkpt lat="47.39888" lon="-0.38126">
        <ele>37.1</ele>
        <time>2013-02-13T09:20:17.860Z</time>
      </trkpt>
      <trkpt lat="47.39887" lon="-0.38123">
        <ele>37.2</ele>
        <time>2013-02-13T09:20:18.860Z</time>
      </trkpt>
      <trkpt lat="47.39887" lon="-0.38119">
        <ele>37.3</ele>
        <time>2013-02-13T09:20:19.900Z</time>
      </trkpt>
      <trkpt lat="47.39887" lon="-0.38116">
        <ele>37.3</ele>
        <time>2013-02-13T09:20:20.860Z</time>
      </trkpt>
      <trkpt lat="47.39887" lon="-0.38112">
        <ele>37.2</ele>
        <time>2013-02-13T09:20:21.860Z</time>
      </trkpt>
      <trkpt lat="47.39887" lon="-0.38106">
        <ele>37.4</ele>
        <time>2013-02-13T09:20:23.860Z</time>
      </trkpt>
      <trkpt lat="47.39887" lon="-0.38103">
        <ele>37.5</ele>
        <time>2013-02-13T09:20:24.860Z</time>
      </trkpt>
      <trkpt lat="47.39887" lon="-0.381">
        <ele>37.6</ele>
        <time>2013-02-13T09:20:25.940Z</time>
      </trkpt>
      <trkpt lat="47.39887" lon="-0.38094">
        <ele>37.9</ele>
        <time>2013-02-13T09:20:27.770Z</time>
      </trkpt>
      <trkpt lat="47.39887" lon="-0.3809">
        <ele>38</ele>
        <time>2013-02-13T09:20:28.770Z</time>
      </trkpt>
      <trkpt lat="47.39886" lon="-0.38085">
        <ele>38.2</ele>
        <time>2013-02-13T09:20:29.870Z</time>
      </trkpt>
      <trkpt lat="47.39886" lon="-0.38082">
        <ele>38.3</ele>
        <time>2013-02-13T09:20:30.860Z</time>
      </trkpt>
      <trkpt lat="47.39886" lon="-0.38078">
        <ele>38.3</ele>
        <time>2013-02-13T09:20:31.860Z</time>
      </trkpt>
      <trkpt lat="47.39886" lon="-0.38074">
        <ele>38.3</ele>
        <time>2013-02-13T09:20:32.860Z</time>
      </trkpt>
      <trkpt lat="47.39886" lon="-0.3807">
        <ele>38.3</ele>
        <time>2013-02-13T09:20:33.940Z</time>
      </trkpt>
      <trkpt lat="47.39886" lon="-0.38066">
        <ele>38.3</ele>
        <time>2013-02-13T09:20:34.860Z</time>
      </trkpt>
      <trkpt lat="47.39886" lon="-0.38063">
        <ele>38.3</ele>
        <time>2013-02-13T09:20:35.860Z</time>
      </trkpt>
      <trkpt lat="47.39886" lon="-0.38059">
        <ele>38.3</ele>
        <time>2013-02-13T09:20:36.860Z</time>
      </trkpt>
      <trkpt lat="47.39886" lon="-0.38056">
        <ele>38.3</ele>
        <time>2013-02-13T09:20:37.860Z</time>
      </trkpt>
      <trkpt lat="47.39886" lon="-0.38052">
        <ele>38.4</ele>
        <time>2013-02-13T09:20:38.850Z</time>
      </trkpt>
      <trkpt lat="47.39885" lon="-0.38049">
        <ele>38.4</ele>
        <time>2013-02-13T09:20:39.850Z</time>
      </trkpt>
      <trkpt lat="47.39885" lon="-0.38046">
        <ele>38.4</ele>
        <time>2013-02-13T09:20:40.850Z</time>
      </trkpt>
      <trkpt lat="47.39884" lon="-0.38042">
        <ele>38.5</ele>
        <time>2013-02-13T09:20:41.850Z</time>
      </trkpt>
      <trkpt lat="47.39883" lon="-0.38039">
        <ele>38.6</ele>
        <time>2013-02-13T09:20:42.840Z</time>
      </trkpt>
      <trkpt lat="47.39882" lon="-0.38036">
        <ele>38.7</ele>
        <time>2013-02-13T09:20:43.850Z</time>
      </trkpt>
      <trkpt lat="47.39881" lon="-0.38034">
        <ele>38.8</ele>
        <time>2013-02-13T09:20:44.850Z</time>
      </trkpt>
      <trkpt lat="47.3988" lon="-0.38031">
        <ele>38.9</ele>
        <time>2013-02-13T09:20:45.850Z</time>
      </trkpt>
      <trkpt lat="47.39879" lon="-0.38025">
        <ele>39.2</ele>
        <time>2013-02-13T09:20:47.790Z</time>
      </trkpt>
      <trkpt lat="47.39878" lon="-0.38022">
        <ele>39.4</ele>
        <time>2013-02-13T09:20:48.780Z</time>
      </trkpt>
      <trkpt lat="47.39876" lon="-0.38019">
        <ele>39.6</ele>
        <time>2013-02-13T09:20:49.780Z</time>
      </trkpt>
      <trkpt lat="47.39875" lon="-0.38015">
        <ele>39.7</ele>
        <time>2013-02-13T09:20:50.730Z</time>
      </trkpt>
      <trkpt lat="47.39874" lon="-0.38012">
        <ele>39.9</ele>
        <time>2013-02-13T09:20:51.750Z</time>
      </trkpt>
      <trkpt lat="47.39873" lon="-0.38008">
        <ele>40</ele>
        <time>2013-02-13T09:20:52.750Z</time>
      </trkpt>
      <trkpt lat="47.39872" lon="-0.38006">
        <ele>40.1</ele>
        <time>2013-02-13T09:20:53.780Z</time>
      </trkpt>
      <trkpt lat="47.39871" lon="-0.38002">
        <ele>40.3</ele>
        <time>2013-02-13T09:20:54.790Z</time>
      </trkpt>
      <trkpt lat="47.3987" lon="-0.37999">
        <ele>40.4</ele>
        <time>2013-02-13T09:20:55.860Z</time>
      </trkpt>
      <trkpt lat="47.39868" lon="-0.37996">
        <ele>40.5</ele>
        <time>2013-02-13T09:20:56.850Z</time>
      </trkpt>
      <trkpt lat="47.39868" lon="-0.37993">
        <ele>40.5</ele>
        <time>2013-02-13T09:20:57.830Z</time>
      </trkpt>
      <trkpt lat="47.39867" lon="-0.3799">
        <ele>40.6</ele>
        <time>2013-02-13T09:20:58.850Z</time>
      </trkpt>
      <trkpt lat="47.39866" lon="-0.37987">
        <ele>40.6</ele>
        <time>2013-02-13T09:20:59.830Z</time>
      </trkpt>
      <trkpt lat="47.39865" lon="-0.3798">
        <ele>42.7</ele>
        <time>2013-02-13T09:21:01.790Z</time>
      </trkpt>
      <trkpt lat="47.39864" lon="-0.37976">
        <ele>40.8</ele>
        <time>2013-02-13T09:21:02.770Z</time>
      </trkpt>
      <trkpt lat="47.39864" lon="-0.37972">
        <ele>40.8</ele>
        <time>2013-02-13T09:21:03.850Z</time>
      </trkpt>
      <trkpt lat="47.39864" lon="-0.37968">
        <ele>40.7</ele>
        <time>2013-02-13T09:21:04.850Z</time>
      </trkpt>
      <trkpt lat="47.39864" lon="-0.37965">
        <ele>40.6</ele>
        <time>2013-02-13T09:21:05.850Z</time>
      </trkpt>
      <trkpt lat="47.39863" lon="-0.37962">
        <ele>40.5</ele>
        <time>2013-02-13T09:21:06.830Z</time>
      </trkpt>
      <trkpt lat="47.39863" lon="-0.37959">
        <ele>40.4</ele>
        <time>2013-02-13T09:21:07.850Z</time>
      </trkpt>
      <trkpt lat="47.39863" lon="-0.37955">
        <ele>40.3</ele>
        <time>2013-02-13T09:21:08.850Z</time>
      </trkpt>
      <trkpt lat="47.39864" lon="-0.37952">
        <ele>40.1</ele>
        <time>2013-02-13T09:21:09.850Z</time>
      </trkpt>
      <trkpt lat="47.39864" lon="-0.37948">
        <ele>40</ele>
        <time>2013-02-13T09:21:10.850Z</time>
      </trkpt>
      <trkpt lat="47.39864" lon="-0.37944">
        <ele>39.9</ele>
        <time>2013-02-13T09:21:11.850Z</time>
      </trkpt>
      <trkpt lat="47.39864" lon="-0.3794">
        <ele>39.9</ele>
        <time>2013-02-13T09:21:12.850Z</time>
      </trkpt>
      <trkpt lat="47.39865" lon="-0.37937">
        <ele>39.8</ele>
        <time>2013-02-13T09:21:13.850Z</time>
      </trkpt>
      <trkpt lat="47.39865" lon="-0.37933">
        <ele>39.8</ele>
        <time>2013-02-13T09:21:14.850Z</time>
      </trkpt>
      <trkpt lat="47.39866" lon="-0.37929">
        <ele>39.7</ele>
        <time>2013-02-13T09:21:15.850Z</time>
      </trkpt>
      <trkpt lat="47.39867" lon="-0.37923">
        <ele>39.7</ele>
        <time>2013-02-13T09:21:17.840Z</time>
      </trkpt>
      <trkpt lat="47.39867" lon="-0.37919">
        <ele>39.6</ele>
        <time>2013-02-13T09:21:18.850Z</time>
      </trkpt>
      <trkpt lat="47.39867" lon="-0.37916">
        <ele>39.5</ele>
        <time>2013-02-13T09:21:19.840Z</time>
      </trkpt>
      <trkpt lat="47.39867" lon="-0.37912">
        <ele>39.4</ele>
        <time>2013-02-13T09:21:20.840Z</time>
      </trkpt>
      <trkpt lat="47.39868" lon="-0.37908">
        <ele>39.2</ele>
        <time>2013-02-13T09:21:21.840Z</time>
      </trkpt>
      <trkpt lat="47.39868" lon="-0.37906">
        <ele>39.1</ele>
        <time>2013-02-13T09:21:22.840Z</time>
      </trkpt>
      <trkpt lat="47.39868" lon="-0.37902">
        <ele>39</ele>
        <time>2013-02-13T09:21:23.840Z</time>
      </trkpt>
      <trkpt lat="47.39868" lon="-0.37899">
        <ele>38.9</ele>
        <time>2013-02-13T09:21:24.840Z</time>
      </trkpt>
      <trkpt lat="47.39868" lon="-0.37896">
        <ele>38.8</ele>
        <time>2013-02-13T09:21:25.840Z</time>
      </trkpt>
      <trkpt lat="47.39867" lon="-0.37892">
        <ele>38.7</ele>
        <time>2013-02-13T09:21:26.840Z</time>
      </trkpt>
      <trkpt lat="47.39866" lon="-0.37886">
        <ele>38.5</ele>
        <time>2013-02-13T09:21:28.940Z</time>
      </trkpt>
      <trkpt lat="47.39866" lon="-0.37881">
        <ele>38.4</ele>
        <time>2013-02-13T09:21:30.780Z</time>
      </trkpt>
      <trkpt lat="47.39865" lon="-0.37878">
        <ele>38.3</ele>
        <time>2013-02-13T09:21:31.780Z</time>
      </trkpt>
      <trkpt lat="47.39865" lon="-0.37875">
        <ele>38.3</ele>
        <time>2013-02-13T09:21:32.840Z</time>
      </trkpt>
      <trkpt lat="47.39865" lon="-0.37868">
        <ele>38</ele>
        <time>2013-02-13T09:21:34.840Z</time>
      </trkpt>
      <trkpt lat="47.39864" lon="-0.37865">
        <ele>37.9</ele>
        <time>2013-02-13T09:21:35.840Z</time>
      </trkpt>
      <trkpt lat="47.39864" lon="-0.37861">
        <ele>37.8</ele>
        <time>2013-02-13T09:21:36.840Z</time>
      </trkpt>
      <trkpt lat="47.39863" lon="-0.37858">
        <ele>37.6</ele>
        <time>2013-02-13T09:21:37.840Z</time>
      </trkpt>
      <trkpt lat="47.39863" lon="-0.37855">
        <ele>37.4</ele>
        <time>2013-02-13T09:21:38.840Z</time>
      </trkpt>
      <trkpt lat="47.39863" lon="-0.37852">
        <ele>37.2</ele>
        <time>2013-02-13T09:21:39.840Z</time>
      </trkpt>
      <trkpt lat="47.39862" lon="-0.37849">
        <ele>37.1</ele>
        <time>2013-02-13T09:21:40.860Z</time>
      </trkpt>
      <trkpt lat="47.39861" lon="-0.37846">
        <ele>36.9</ele>
        <time>2013-02-13T09:21:41.850Z</time>
      </trkpt>
      <trkpt lat="47.3986" lon="-0.37843">
        <ele>36.9</ele>
        <time>2013-02-13T09:21:42.840Z</time>
      </trkpt>
      <trkpt lat="47.39858" lon="-0.37841">
        <ele>36.9</ele>
        <time>2013-02-13T09:21:43.840Z</time>
      </trkpt>
      <trkpt lat="47.39855" lon="-0.37839">
        <ele>37</ele>
        <time>2013-02-13T09:21:44.840Z</time>
      </trkpt>
      <trkpt lat="47.39853" lon="-0.37839">
        <ele>37.3</ele>
        <time>2013-02-13T09:21:45.940Z</time>
      </trkpt>
      <trkpt lat="47.39848" lon="-0.37838">
        <ele>37.7</ele>
        <time>2013-02-13T09:21:47.740Z</time>
      </trkpt>
      <trkpt lat="47.39846" lon="-0.37837">
        <ele>37.9</ele>
        <time>2013-02-13T09:21:48.770Z</time>
      </trkpt>
      <trkpt lat="47.39845" lon="-0.37837">
        <ele>38</ele>
        <time>2013-02-13T09:21:49.740Z</time>
      </trkpt>
      <trkpt lat="47.39843" lon="-0.37837">
        <ele>38.2</ele>
        <time>2013-02-13T09:21:50.900Z</time>
      </trkpt>
      <trkpt lat="47.39839" lon="-0.37835">
        <ele>38.5</ele>
        <time>2013-02-13T09:21:52.840Z</time>
      </trkpt>
      <trkpt lat="47.39837" lon="-0.37834">
        <ele>38.7</ele>
        <time>2013-02-13T09:21:53.840Z</time>
      </trkpt>
      <trkpt lat="47.39835" lon="-0.37833">
        <ele>38.9</ele>
        <time>2013-02-13T09:21:54.880Z</time>
      </trkpt>
      <trkpt lat="47.39832" lon="-0.37832">
        <ele>39.1</ele>
        <time>2013-02-13T09:21:55.840Z</time>
      </trkpt>
      <trkpt lat="47.39831" lon="-0.37832">
        <ele>39.3</ele>
        <time>2013-02-13T09:21:56.840Z</time>
      </trkpt>
      <trkpt lat="47.39829" lon="-0.37831">
        <ele>39.5</ele>
        <time>2013-02-13T09:21:57.840Z</time>
      </trkpt>
      <trkpt lat="47.39827" lon="-0.37831">
        <ele>39.7</ele>
        <time>2013-02-13T09:21:58.840Z</time>
      </trkpt>
      <trkpt lat="47.39825" lon="-0.37831">
        <ele>39.9</ele>
        <time>2013-02-13T09:21:59.700Z</time>
      </trkpt>
      <trkpt lat="47.39823" lon="-0.3783">
        <ele>40.9</ele>
        <time>2013-02-13T09:22:00.730Z</time>
      </trkpt>
      <trkpt lat="47.39821" lon="-0.37829">
        <ele>40.3</ele>
        <time>2013-02-13T09:22:01.730Z</time>
      </trkpt>
      <trkpt lat="47.39818" lon="-0.37829">
        <ele>40.5</ele>
        <time>2013-02-13T09:22:02.780Z</time>
      </trkpt>
      <trkpt lat="47.39816" lon="-0.37829">
        <ele>40.8</ele>
        <time>2013-02-13T09:22:03.920Z</time>
      </trkpt>
      <trkpt lat="47.39812" lon="-0.37827">
        <ele>41.2</ele>
        <time>2013-02-13T09:22:05.730Z</time>
      </trkpt>
      <trkpt lat="47.39809" lon="-0.37826">
        <ele>41.4</ele>
        <time>2013-02-13T09:22:06.730Z</time>
      </trkpt>
      <trkpt lat="47.39807" lon="-0.37826">
        <ele>41.6</ele>
        <time>2013-02-13T09:22:07.720Z</time>
      </trkpt>
      <trkpt lat="47.39805" lon="-0.37825">
        <ele>41.7</ele>
        <time>2013-02-13T09:22:08.780Z</time>
      </trkpt>
      <trkpt lat="47.39803" lon="-0.37824">
        <ele>41.8</ele>
        <time>2013-02-13T09:22:09.730Z</time>
      </trkpt>
      <trkpt lat="47.39801" lon="-0.37823">
        <ele>41.8</ele>
        <time>2013-02-13T09:22:10.770Z</time>
      </trkpt>
      <trkpt lat="47.39799" lon="-0.37821">
        <ele>41.9</ele>
        <time>2013-02-13T09:22:11.830Z</time>
      </trkpt>
      <trkpt lat="47.39797" lon="-0.37819">
        <ele>41.9</ele>
        <time>2013-02-13T09:22:12.830Z</time>
      </trkpt>
      <trkpt lat="47.39795" lon="-0.37818">
        <ele>42</ele>
        <time>2013-02-13T09:22:13.830Z</time>
      </trkpt>
      <trkpt lat="47.39794" lon="-0.37816">
        <ele>42.1</ele>
        <time>2013-02-13T09:22:14.810Z</time>
      </trkpt>
      <trkpt lat="47.39792" lon="-0.37814">
        <ele>42.1</ele>
        <time>2013-02-13T09:22:15.830Z</time>
      </trkpt>
      <trkpt lat="47.3979" lon="-0.37812">
        <ele>42.2</ele>
        <time>2013-02-13T09:22:16.810Z</time>
      </trkpt>
      <trkpt lat="47.39788" lon="-0.37811">
        <ele>42.3</ele>
        <time>2013-02-13T09:22:17.830Z</time>
      </trkpt>
      <trkpt lat="47.39786" lon="-0.37809">
        <ele>42.5</ele>
        <time>2013-02-13T09:22:18.830Z</time>
      </trkpt>
      <trkpt lat="47.39784" lon="-0.37807">
        <ele>42.6</ele>
        <time>2013-02-13T09:22:19.830Z</time>
      </trkpt>
      <trkpt lat="47.39782" lon="-0.37806">
        <ele>42.7</ele>
        <time>2013-02-13T09:22:20.830Z</time>
      </trkpt>
      <trkpt lat="47.39781" lon="-0.37804">
        <ele>42.7</ele>
        <time>2013-02-13T09:22:21.830Z</time>
      </trkpt>
      <trkpt lat="47.39779" lon="-0.37803">
        <ele>42.7</ele>
        <time>2013-02-13T09:22:22.830Z</time>
      </trkpt>
      <trkpt lat="47.39777" lon="-0.378">
        <ele>42.6</ele>
        <time>2013-02-13T09:22:23.830Z</time>
      </trkpt>
      <trkpt lat="47.39775" lon="-0.37798">
        <ele>42.6</ele>
        <time>2013-02-13T09:22:24.810Z</time>
      </trkpt>
      <trkpt lat="47.39774" lon="-0.37796">
        <ele>42.5</ele>
        <time>2013-02-13T09:22:25.810Z</time>
      </trkpt>
      <trkpt lat="47.39772" lon="-0.37794">
        <ele>42.5</ele>
        <time>2013-02-13T09:22:26.830Z</time>
      </trkpt>
      <trkpt lat="47.3977" lon="-0.37792">
        <ele>42.4</ele>
        <time>2013-02-13T09:22:27.840Z</time>
      </trkpt>
      <trkpt lat="47.39768" lon="-0.3779">
        <ele>42.4</ele>
        <time>2013-02-13T09:22:28.830Z</time>
      </trkpt>
      <trkpt lat="47.39766" lon="-0.37788">
        <ele>42.4</ele>
        <time>2013-02-13T09:22:29.830Z</time>
      </trkpt>
      <trkpt lat="47.39764" lon="-0.37787">
        <ele>42.5</ele>
        <time>2013-02-13T09:22:30.830Z</time>
      </trkpt>
      <trkpt lat="47.39762" lon="-0.37785">
        <ele>42.5</ele>
        <time>2013-02-13T09:22:31.830Z</time>
      </trkpt>
      <trkpt lat="47.39761" lon="-0.37783">
        <ele>42.5</ele>
        <time>2013-02-13T09:22:32.830Z</time>
      </trkpt>
      <trkpt lat="47.39759" lon="-0.37782">
        <ele>42.6</ele>
        <time>2013-02-13T09:22:33.810Z</time>
      </trkpt>
      <trkpt lat="47.39757" lon="-0.37781">
        <ele>42.6</ele>
        <time>2013-02-13T09:22:34.830Z</time>
      </trkpt>
      <trkpt lat="47.39755" lon="-0.3778">
        <ele>42.7</ele>
        <time>2013-02-13T09:22:35.870Z</time>
      </trkpt>
      <trkpt lat="47.39753" lon="-0.37778">
        <ele>42.8</ele>
        <time>2013-02-13T09:22:36.810Z</time>
      </trkpt>
      <trkpt lat="47.39751" lon="-0.37776">
        <ele>42.9</ele>
        <time>2013-02-13T09:22:37.830Z</time>
      </trkpt>
      <trkpt lat="47.39748" lon="-0.37775">
        <ele>43</ele>
        <time>2013-02-13T09:22:38.830Z</time>
      </trkpt>
      <trkpt lat="47.39746" lon="-0.37773">
        <ele>43.1</ele>
        <time>2013-02-13T09:22:39.830Z</time>
      </trkpt>
      <trkpt lat="47.39745" lon="-0.37772">
        <ele>43.1</ele>
        <time>2013-02-13T09:22:40.820Z</time>
      </trkpt>
      <trkpt lat="47.39743" lon="-0.37771">
        <ele>43.2</ele>
        <time>2013-02-13T09:22:41.810Z</time>
      </trkpt>
      <trkpt lat="47.3974" lon="-0.3777">
        <ele>43.3</ele>
        <time>2013-02-13T09:22:42.820Z</time>
      </trkpt>
      <trkpt lat="47.39738" lon="-0.37768">
        <ele>43.3</ele>
        <time>2013-02-13T09:22:43.820Z</time>
      </trkpt>
      <trkpt lat="47.39736" lon="-0.37766">
        <ele>43.4</ele>
        <time>2013-02-13T09:22:44.820Z</time>
      </trkpt>
      <trkpt lat="47.39735" lon="-0.37765">
        <ele>43.4</ele>
        <time>2013-02-13T09:22:45.820Z</time>
      </trkpt>
      <trkpt lat="47.39733" lon="-0.37764">
        <ele>43.4</ele>
        <time>2013-02-13T09:22:46.820Z</time>
      </trkpt>
      <trkpt lat="47.39731" lon="-0.37763">
        <ele>43.5</ele>
        <time>2013-02-13T09:22:47.820Z</time>
      </trkpt>
      <trkpt lat="47.39729" lon="-0.37762">
        <ele>43.5</ele>
        <time>2013-02-13T09:22:48.820Z</time>
      </trkpt>
      <trkpt lat="47.39727" lon="-0.37761">
        <ele>43.5</ele>
        <time>2013-02-13T09:22:49.820Z</time>
      </trkpt>
      <trkpt lat="47.39725" lon="-0.37759">
        <ele>43.5</ele>
        <time>2013-02-13T09:22:50.810Z</time>
      </trkpt>
      <trkpt lat="47.39723" lon="-0.37758">
        <ele>43.5</ele>
        <time>2013-02-13T09:22:51.820Z</time>
      </trkpt>
      <trkpt lat="47.39721" lon="-0.37757">
        <ele>43.5</ele>
        <time>2013-02-13T09:22:52.820Z</time>
      </trkpt>
      <trkpt lat="47.3972" lon="-0.37756">
        <ele>43.6</ele>
        <time>2013-02-13T09:22:53.820Z</time>
      </trkpt>
      <trkpt lat="47.39717" lon="-0.37754">
        <ele>43.6</ele>
        <time>2013-02-13T09:22:54.820Z</time>
      </trkpt>
      <trkpt lat="47.39715" lon="-0.37753">
        <ele>43.7</ele>
        <time>2013-02-13T09:22:55.820Z</time>
      </trkpt>
      <trkpt lat="47.39713" lon="-0.37752">
        <ele>43.7</ele>
        <time>2013-02-13T09:22:56.820Z</time>
      </trkpt>
      <trkpt lat="47.39711" lon="-0.37751">
        <ele>43.8</ele>
        <time>2013-02-13T09:22:57.820Z</time>
      </trkpt>
      <trkpt lat="47.3971" lon="-0.37749">
        <ele>43.9</ele>
        <time>2013-02-13T09:22:58.780Z</time>
      </trkpt>
      <trkpt lat="47.39707" lon="-0.37749">
        <ele>44</ele>
        <time>2013-02-13T09:22:59.800Z</time>
      </trkpt>
      <trkpt lat="47.39706" lon="-0.37748">
        <ele>44.6</ele>
        <time>2013-02-13T09:23:00.800Z</time>
      </trkpt>
      <trkpt lat="47.39704" lon="-0.37747">
        <ele>44.3</ele>
        <time>2013-02-13T09:23:01.860Z</time>
      </trkpt>
      <trkpt lat="47.39702" lon="-0.37746">
        <ele>44.4</ele>
        <time>2013-02-13T09:23:02.820Z</time>
      </trkpt>
      <trkpt lat="47.397" lon="-0.37745">
        <ele>44.5</ele>
        <time>2013-02-13T09:23:03.820Z</time>
      </trkpt>
      <trkpt lat="47.39698" lon="-0.37744">
        <ele>44.6</ele>
        <time>2013-02-13T09:23:04.820Z</time>
      </trkpt>
      <trkpt lat="47.39696" lon="-0.37743">
        <ele>44.6</ele>
        <time>2013-02-13T09:23:05.820Z</time>
      </trkpt>
      <trkpt lat="47.39694" lon="-0.37742">
        <ele>44.7</ele>
        <time>2013-02-13T09:23:06.820Z</time>
      </trkpt>
      <trkpt lat="47.39692" lon="-0.37741">
        <ele>44.8</ele>
        <time>2013-02-13T09:23:07.820Z</time>
      </trkpt>
      <trkpt lat="47.3969" lon="-0.37739">
        <ele>44.9</ele>
        <time>2013-02-13T09:23:08.820Z</time>
      </trkpt>
      <trkpt lat="47.39688" lon="-0.37738">
        <ele>45</ele>
        <time>2013-02-13T09:23:09.800Z</time>
      </trkpt>
      <trkpt lat="47.39687" lon="-0.37736">
        <ele>45.1</ele>
        <time>2013-02-13T09:23:10.820Z</time>
      </trkpt>
      <trkpt lat="47.39685" lon="-0.37735">
        <ele>45.2</ele>
        <time>2013-02-13T09:23:11.820Z</time>
      </trkpt>
      <trkpt lat="47.39682" lon="-0.37733">
        <ele>45.3</ele>
        <time>2013-02-13T09:23:12.820Z</time>
      </trkpt>
      <trkpt lat="47.39681" lon="-0.37731">
        <ele>45.3</ele>
        <time>2013-02-13T09:23:13.860Z</time>
      </trkpt>
      <trkpt lat="47.39679" lon="-0.3773">
        <ele>45.4</ele>
        <time>2013-02-13T09:23:14.820Z</time>
      </trkpt>
      <trkpt lat="47.39677" lon="-0.37728">
        <ele>45.5</ele>
        <time>2013-02-13T09:23:15.800Z</time>
      </trkpt>
      <trkpt lat="47.39675" lon="-0.37726">
        <ele>45.6</ele>
        <time>2013-02-13T09:23:16.800Z</time>
      </trkpt>
      <trkpt lat="47.39673" lon="-0.37724">
        <ele>45.7</ele>
        <time>2013-02-13T09:23:17.820Z</time>
      </trkpt>
      <trkpt lat="47.39671" lon="-0.37721">
        <ele>45.7</ele>
        <time>2013-02-13T09:23:18.820Z</time>
      </trkpt>
      <trkpt lat="47.39669" lon="-0.37719">
        <ele>45.7</ele>
        <time>2013-02-13T09:23:19.820Z</time>
      </trkpt>
      <trkpt lat="47.39668" lon="-0.37717">
        <ele>45.7</ele>
        <time>2013-02-13T09:23:20.800Z</time>
      </trkpt>
      <trkpt lat="47.39666" lon="-0.37714">
        <ele>45.8</ele>
        <time>2013-02-13T09:23:21.820Z</time>
      </trkpt>
      <trkpt lat="47.39664" lon="-0.37711">
        <ele>45.8</ele>
        <time>2013-02-13T09:23:22.810Z</time>
      </trkpt>
      <trkpt lat="47.39663" lon="-0.37709">
        <ele>45.8</ele>
        <time>2013-02-13T09:23:23.810Z</time>
      </trkpt>
      <trkpt lat="47.39662" lon="-0.37705">
        <ele>45.9</ele>
        <time>2013-02-13T09:23:24.810Z</time>
      </trkpt>
      <trkpt lat="47.39661" lon="-0.37703">
        <ele>45.9</ele>
        <time>2013-02-13T09:23:25.810Z</time>
      </trkpt>
      <trkpt lat="47.39659" lon="-0.377">
        <ele>46</ele>
        <time>2013-02-13T09:23:26.850Z</time>
      </trkpt>
      <trkpt lat="47.39658" lon="-0.37697">
        <ele>46.1</ele>
        <time>2013-02-13T09:23:27.810Z</time>
      </trkpt>
      <trkpt lat="47.39657" lon="-0.37695">
        <ele>46.1</ele>
        <time>2013-02-13T09:23:28.810Z</time>
      </trkpt>
      <trkpt lat="47.39655" lon="-0.37692">
        <ele>46.1</ele>
        <time>2013-02-13T09:23:29.810Z</time>
      </trkpt>
      <trkpt lat="47.39654" lon="-0.37689">
        <ele>46.1</ele>
        <time>2013-02-13T09:23:30.810Z</time>
      </trkpt>
      <trkpt lat="47.39653" lon="-0.37687">
        <ele>46.1</ele>
        <time>2013-02-13T09:23:31.790Z</time>
      </trkpt>
      <trkpt lat="47.39651" lon="-0.37685">
        <ele>46.1</ele>
        <time>2013-02-13T09:23:32.800Z</time>
      </trkpt>
      <trkpt lat="47.3965" lon="-0.37682">
        <ele>46.1</ele>
        <time>2013-02-13T09:23:33.790Z</time>
      </trkpt>
      <trkpt lat="47.39649" lon="-0.37679">
        <ele>46</ele>
        <time>2013-02-13T09:23:34.810Z</time>
      </trkpt>
      <trkpt lat="47.39648" lon="-0.37677">
        <ele>46</ele>
        <time>2013-02-13T09:23:35.810Z</time>
      </trkpt>
      <trkpt lat="47.39646" lon="-0.37674">
        <ele>45.9</ele>
        <time>2013-02-13T09:23:36.820Z</time>
      </trkpt>
      <trkpt lat="47.39645" lon="-0.37672">
        <ele>45.9</ele>
        <time>2013-02-13T09:23:37.810Z</time>
      </trkpt>
      <trkpt lat="47.39644" lon="-0.3767">
        <ele>45.8</ele>
        <time>2013-02-13T09:23:38.810Z</time>
      </trkpt>
      <trkpt lat="47.39642" lon="-0.37667">
        <ele>45.8</ele>
        <time>2013-02-13T09:23:39.810Z</time>
      </trkpt>
      <trkpt lat="47.39641" lon="-0.37665">
        <ele>45.9</ele>
        <time>2013-02-13T09:23:40.810Z</time>
      </trkpt>
      <trkpt lat="47.39639" lon="-0.37662">
        <ele>46</ele>
        <time>2013-02-13T09:23:41.910Z</time>
      </trkpt>
      <trkpt lat="47.39637" lon="-0.37656">
        <ele>46.2</ele>
        <time>2013-02-13T09:23:43.910Z</time>
      </trkpt>
      <trkpt lat="47.39636" lon="-0.37653">
        <ele>46.4</ele>
        <time>2013-02-13T09:23:44.910Z</time>
      </trkpt>
      <trkpt lat="47.39634" lon="-0.3765">
        <ele>46.5</ele>
        <time>2013-02-13T09:23:45.910Z</time>
      </trkpt>
      <trkpt lat="47.39633" lon="-0.37647">
        <ele>46.6</ele>
        <time>2013-02-13T09:23:46.910Z</time>
      </trkpt>
      <trkpt lat="47.39631" lon="-0.37641">
        <ele>46.8</ele>
        <time>2013-02-13T09:23:48.770Z</time>
      </trkpt>
      <trkpt lat="47.3963" lon="-0.37639">
        <ele>46.9</ele>
        <time>2013-02-13T09:23:49.770Z</time>
      </trkpt>
      <trkpt lat="47.39629" lon="-0.37636">
        <ele>47</ele>
        <time>2013-02-13T09:23:50.680Z</time>
      </trkpt>
      <trkpt lat="47.39628" lon="-0.37633">
        <ele>47</ele>
        <time>2013-02-13T09:23:51.910Z</time>
      </trkpt>
      <trkpt lat="47.39627" lon="-0.37627">
        <ele>47.1</ele>
        <time>2013-02-13T09:23:53.950Z</time>
      </trkpt>
      <trkpt lat="47.39625" lon="-0.3762">
        <ele>47.2</ele>
        <time>2013-02-13T09:23:55.770Z</time>
      </trkpt>
      <trkpt lat="47.39625" lon="-0.37618">
        <ele>47.2</ele>
        <time>2013-02-13T09:23:56.850Z</time>
      </trkpt>
      <trkpt lat="47.39624" lon="-0.37614">
        <ele>47.2</ele>
        <time>2013-02-13T09:23:57.810Z</time>
      </trkpt>
      <trkpt lat="47.39624" lon="-0.37611">
        <ele>47.2</ele>
        <time>2013-02-13T09:23:58.800Z</time>
      </trkpt>
      <trkpt lat="47.39623" lon="-0.37608">
        <ele>47.4</ele>
        <time>2013-02-13T09:23:59.790Z</time>
      </trkpt>
      <trkpt lat="47.39622" lon="-0.37604">
        <ele>49.4</ele>
        <time>2013-02-13T09:24:00.800Z</time>
      </trkpt>
      <trkpt lat="47.39622" lon="-0.37602">
        <ele>47.6</ele>
        <time>2013-02-13T09:24:01.810Z</time>
      </trkpt>
      <trkpt lat="47.39621" lon="-0.37599">
        <ele>47.7</ele>
        <time>2013-02-13T09:24:02.800Z</time>
      </trkpt>
      <trkpt lat="47.3962" lon="-0.37596">
        <ele>47.8</ele>
        <time>2013-02-13T09:24:03.800Z</time>
      </trkpt>
      <trkpt lat="47.3962" lon="-0.37593">
        <ele>48</ele>
        <time>2013-02-13T09:24:04.800Z</time>
      </trkpt>
      <trkpt lat="47.39618" lon="-0.3759">
        <ele>48.2</ele>
        <time>2013-02-13T09:24:05.940Z</time>
      </trkpt>
      <trkpt lat="47.39617" lon="-0.37587">
        <ele>48.3</ele>
        <time>2013-02-13T09:24:06.890Z</time>
      </trkpt>
      <trkpt lat="47.39615" lon="-0.37584">
        <ele>48.6</ele>
        <time>2013-02-13T09:24:07.900Z</time>
      </trkpt>
      <trkpt lat="47.39613" lon="-0.37579">
        <ele>48.8</ele>
        <time>2013-02-13T09:24:09.900Z</time>
      </trkpt>
      <trkpt lat="47.3961" lon="-0.37572">
        <ele>49.1</ele>
        <time>2013-02-13T09:24:11.850Z</time>
      </trkpt>
      <trkpt lat="47.39609" lon="-0.3757">
        <ele>49.3</ele>
        <time>2013-02-13T09:24:12.800Z</time>
      </trkpt>
      <trkpt lat="47.39608" lon="-0.37567">
        <ele>49.4</ele>
        <time>2013-02-13T09:24:13.800Z</time>
      </trkpt>
      <trkpt lat="47.39607" lon="-0.37564">
        <ele>49.5</ele>
        <time>2013-02-13T09:24:14.800Z</time>
      </trkpt>
      <trkpt lat="47.39606" lon="-0.37561">
        <ele>49.6</ele>
        <time>2013-02-13T09:24:15.800Z</time>
      </trkpt>
      <trkpt lat="47.39604" lon="-0.37559">
        <ele>49.8</ele>
        <time>2013-02-13T09:24:16.760Z</time>
      </trkpt>
      <trkpt lat="47.39602" lon="-0.37558">
        <ele>50</ele>
        <time>2013-02-13T09:24:17.800Z</time>
      </trkpt>
      <trkpt lat="47.396" lon="-0.37556">
        <ele>50.2</ele>
        <time>2013-02-13T09:24:18.840Z</time>
      </trkpt>
      <trkpt lat="47.39598" lon="-0.37554">
        <ele>50.4</ele>
        <time>2013-02-13T09:24:19.800Z</time>
      </trkpt>
      <trkpt lat="47.39596" lon="-0.37552">
        <ele>50.5</ele>
        <time>2013-02-13T09:24:20.800Z</time>
      </trkpt>
      <trkpt lat="47.39594" lon="-0.37549">
        <ele>50.7</ele>
        <time>2013-02-13T09:24:21.800Z</time>
      </trkpt>
      <trkpt lat="47.39592" lon="-0.37547">
        <ele>50.8</ele>
        <time>2013-02-13T09:24:22.800Z</time>
      </trkpt>
      <trkpt lat="47.3959" lon="-0.37546">
        <ele>51</ele>
        <time>2013-02-13T09:24:23.780Z</time>
      </trkpt>
      <trkpt lat="47.39588" lon="-0.37544">
        <ele>51.1</ele>
        <time>2013-02-13T09:24:24.800Z</time>
      </trkpt>
      <trkpt lat="47.39586" lon="-0.37542">
        <ele>51.2</ele>
        <time>2013-02-13T09:24:25.800Z</time>
      </trkpt>
      <trkpt lat="47.39584" lon="-0.37539">
        <ele>51.3</ele>
        <time>2013-02-13T09:24:26.800Z</time>
      </trkpt>
      <trkpt lat="47.39583" lon="-0.37535">
        <ele>51.3</ele>
        <time>2013-02-13T09:24:27.880Z</time>
      </trkpt>
      <trkpt lat="47.39581" lon="-0.37533">
        <ele>51.4</ele>
        <time>2013-02-13T09:24:28.900Z</time>
      </trkpt>
      <trkpt lat="47.39577" lon="-0.37529">
        <ele>51.7</ele>
        <time>2013-02-13T09:24:30.900Z</time>
      </trkpt>
      <trkpt lat="47.39576" lon="-0.37526">
        <ele>51.8</ele>
        <time>2013-02-13T09:24:31.940Z</time>
      </trkpt>
      <trkpt lat="47.39572" lon="-0.37522">
        <ele>51.9</ele>
        <time>2013-02-13T09:24:33.880Z</time>
      </trkpt>
      <trkpt lat="47.39568" lon="-0.3752">
        <ele>52.2</ele>
        <time>2013-02-13T09:24:35.900Z</time>
      </trkpt>
      <trkpt lat="47.39566" lon="-0.37519">
        <ele>52.3</ele>
        <time>2013-02-13T09:24:36.900Z</time>
      </trkpt>
      <trkpt lat="47.39564" lon="-0.37517">
        <ele>52.4</ele>
        <time>2013-02-13T09:24:37.900Z</time>
      </trkpt>
      <trkpt lat="47.39562" lon="-0.37516">
        <ele>52.5</ele>
        <time>2013-02-13T09:24:38.900Z</time>
      </trkpt>
      <trkpt lat="47.3956" lon="-0.37515">
        <ele>52.6</ele>
        <time>2013-02-13T09:24:39.850Z</time>
      </trkpt>
      <trkpt lat="47.39557" lon="-0.37513">
        <ele>52.8</ele>
        <time>2013-02-13T09:24:41.790Z</time>
      </trkpt>
      <trkpt lat="47.39554" lon="-0.37512">
        <ele>53</ele>
        <time>2013-02-13T09:24:42.790Z</time>
      </trkpt>
      <trkpt lat="47.39552" lon="-0.37512">
        <ele>53</ele>
        <time>2013-02-13T09:24:43.830Z</time>
      </trkpt>
      <trkpt lat="47.39549" lon="-0.37511">
        <ele>53.2</ele>
        <time>2013-02-13T09:24:44.790Z</time>
      </trkpt>
      <trkpt lat="47.39547" lon="-0.37511">
        <ele>53.3</ele>
        <time>2013-02-13T09:24:45.800Z</time>
      </trkpt>
      <trkpt lat="47.39545" lon="-0.37511">
        <ele>53.4</ele>
        <time>2013-02-13T09:24:46.790Z</time>
      </trkpt>
      <trkpt lat="47.39543" lon="-0.3751">
        <ele>53.5</ele>
        <time>2013-02-13T09:24:47.790Z</time>
      </trkpt>
      <trkpt lat="47.39541" lon="-0.3751">
        <ele>53.6</ele>
        <time>2013-02-13T09:24:48.790Z</time>
      </trkpt>
      <trkpt lat="47.39539" lon="-0.3751">
        <ele>53.7</ele>
        <time>2013-02-13T09:24:49.790Z</time>
      </trkpt>
      <trkpt lat="47.39536" lon="-0.37509">
        <ele>53.8</ele>
        <time>2013-02-13T09:24:50.800Z</time>
      </trkpt>
      <trkpt lat="47.39532" lon="-0.37507">
        <ele>54</ele>
        <time>2013-02-13T09:24:52.790Z</time>
      </trkpt>
      <trkpt lat="47.3953" lon="-0.37506">
        <ele>54.1</ele>
        <time>2013-02-13T09:24:53.790Z</time>
      </trkpt>
      <trkpt lat="47.39527" lon="-0.37505">
        <ele>54.2</ele>
        <time>2013-02-13T09:24:55.190Z</time>
      </trkpt>
      <trkpt lat="47.39523" lon="-0.37504">
        <ele>54.2</ele>
        <time>2013-02-13T09:24:56.830Z</time>
      </trkpt>
      <trkpt lat="47.39521" lon="-0.37505">
        <ele>54.3</ele>
        <time>2013-02-13T09:24:57.770Z</time>
      </trkpt>
      <trkpt lat="47.39519" lon="-0.37506">
        <ele>54.3</ele>
        <time>2013-02-13T09:24:58.790Z</time>
      </trkpt>
      <trkpt lat="47.39517" lon="-0.37505">
        <ele>54.3</ele>
        <time>2013-02-13T09:25:00.280Z</time>
      </trkpt>
      <trkpt lat="47.39512" lon="-0.37505">
        <ele>56</ele>
        <time>2013-02-13T09:25:01.890Z</time>
      </trkpt>
      <trkpt lat="47.39508" lon="-0.37505">
        <ele>54.4</ele>
        <time>2013-02-13T09:25:03.890Z</time>
      </trkpt>
      <trkpt lat="47.39503" lon="-0.37505">
        <ele>54.5</ele>
        <time>2013-02-13T09:25:05.860Z</time>
      </trkpt>
      <trkpt lat="47.39498" lon="-0.37505">
        <ele>54.6</ele>
        <time>2013-02-13T09:25:07.790Z</time>
      </trkpt>
      <trkpt lat="47.39495" lon="-0.37506">
        <ele>54.7</ele>
        <time>2013-02-13T09:25:08.790Z</time>
      </trkpt>
      <trkpt lat="47.39494" lon="-0.37506">
        <ele>54.8</ele>
        <time>2013-02-13T09:25:09.840Z</time>
      </trkpt>
      <trkpt lat="47.39492" lon="-0.37507">
        <ele>54.9</ele>
        <time>2013-02-13T09:25:10.890Z</time>
      </trkpt>
      <trkpt lat="47.39487" lon="-0.3751">
        <ele>55.2</ele>
        <time>2013-02-13T09:25:12.890Z</time>
      </trkpt>
      <trkpt lat="47.39484" lon="-0.37511">
        <ele>55.3</ele>
        <time>2013-02-13T09:25:13.890Z</time>
      </trkpt>
      <trkpt lat="47.39483" lon="-0.37512">
        <ele>55.4</ele>
        <time>2013-02-13T09:25:14.870Z</time>
      </trkpt>
      <trkpt lat="47.39481" lon="-0.37513">
        <ele>55.4</ele>
        <time>2013-02-13T09:25:15.890Z</time>
      </trkpt>
      <trkpt lat="47.39479" lon="-0.37513">
        <ele>55.5</ele>
        <time>2013-02-13T09:25:16.870Z</time>
      </trkpt>
      <trkpt lat="47.39475" lon="-0.37516">
        <ele>55.6</ele>
        <time>2013-02-13T09:25:18.790Z</time>
      </trkpt>
      <trkpt lat="47.39473" lon="-0.37518">
        <ele>55.6</ele>
        <time>2013-02-13T09:25:19.790Z</time>
      </trkpt>
      <trkpt lat="47.39471" lon="-0.37519">
        <ele>55.7</ele>
        <time>2013-02-13T09:25:20.790Z</time>
      </trkpt>
      <trkpt lat="47.39469" lon="-0.3752">
        <ele>55.7</ele>
        <time>2013-02-13T09:25:21.780Z</time>
      </trkpt>
      <trkpt lat="47.39467" lon="-0.37521">
        <ele>55.8</ele>
        <time>2013-02-13T09:25:22.810Z</time>
      </trkpt>
      <trkpt lat="47.39464" lon="-0.37522">
        <ele>55.8</ele>
        <time>2013-02-13T09:25:23.780Z</time>
      </trkpt>
      <trkpt lat="47.39462" lon="-0.37524">
        <ele>55.8</ele>
        <time>2013-02-13T09:25:24.880Z</time>
      </trkpt>
      <trkpt lat="47.3946" lon="-0.37525">
        <ele>55.9</ele>
        <time>2013-02-13T09:25:25.880Z</time>
      </trkpt>
      <trkpt lat="47.39456" lon="-0.37529">
        <ele>56</ele>
        <time>2013-02-13T09:25:27.770Z</time>
      </trkpt>
      <trkpt lat="47.39454" lon="-0.37531">
        <ele>56.1</ele>
        <time>2013-02-13T09:25:28.880Z</time>
      </trkpt>
      <trkpt lat="47.39452" lon="-0.37532">
        <ele>56.1</ele>
        <time>2013-02-13T09:25:29.880Z</time>
      </trkpt>
      <trkpt lat="47.3945" lon="-0.37533">
        <ele>56.2</ele>
        <time>2013-02-13T09:25:30.860Z</time>
      </trkpt>
      <trkpt lat="47.39446" lon="-0.37535">
        <ele>56.3</ele>
        <time>2013-02-13T09:25:32.790Z</time>
      </trkpt>
      <trkpt lat="47.39443" lon="-0.37535">
        <ele>56.3</ele>
        <time>2013-02-13T09:25:33.790Z</time>
      </trkpt>
      <trkpt lat="47.39439" lon="-0.37537">
        <ele>56.4</ele>
        <time>2013-02-13T09:25:35.780Z</time>
      </trkpt>
      <trkpt lat="47.39438" lon="-0.37538">
        <ele>56.4</ele>
        <time>2013-02-13T09:25:36.780Z</time>
      </trkpt>
      <trkpt lat="47.39435" lon="-0.37538">
        <ele>56.5</ele>
        <time>2013-02-13T09:25:37.880Z</time>
      </trkpt>
      <trkpt lat="47.39431" lon="-0.37541">
        <ele>56.7</ele>
        <time>2013-02-13T09:25:39.880Z</time>
      </trkpt>
      <trkpt lat="47.39427" lon="-0.37543">
        <ele>56.9</ele>
        <time>2013-02-13T09:25:41.880Z</time>
      </trkpt>
      <trkpt lat="47.39423" lon="-0.37545">
        <ele>57.1</ele>
        <time>2013-02-13T09:25:43.820Z</time>
      </trkpt>
      <trkpt lat="47.39421" lon="-0.37545">
        <ele>57.2</ele>
        <time>2013-02-13T09:25:44.780Z</time>
      </trkpt>
      <trkpt lat="47.39418" lon="-0.37546">
        <ele>57.2</ele>
        <time>2013-02-13T09:25:45.780Z</time>
      </trkpt>
      <trkpt lat="47.39416" lon="-0.37546">
        <ele>57.3</ele>
        <time>2013-02-13T09:25:46.880Z</time>
      </trkpt>
      <trkpt lat="47.39412" lon="-0.37549">
        <ele>57.6</ele>
        <time>2013-02-13T09:25:48.720Z</time>
      </trkpt>
      <trkpt lat="47.3941" lon="-0.37549">
        <ele>57.6</ele>
        <time>2013-02-13T09:25:49.880Z</time>
      </trkpt>
      <trkpt lat="47.39408" lon="-0.3755">
        <ele>57.7</ele>
        <time>2013-02-13T09:25:50.860Z</time>
      </trkpt>
      <trkpt lat="47.39403" lon="-0.37552">
        <ele>57.9</ele>
        <time>2013-02-13T09:25:52.880Z</time>
      </trkpt>
      <trkpt lat="47.39401" lon="-0.37553">
        <ele>57.9</ele>
        <time>2013-02-13T09:25:53.790Z</time>
      </trkpt>
      <trkpt lat="47.39399" lon="-0.37554">
        <ele>58</ele>
        <time>2013-02-13T09:25:54.780Z</time>
      </trkpt>
      <trkpt lat="47.39397" lon="-0.37556">
        <ele>58</ele>
        <time>2013-02-13T09:25:55.790Z</time>
      </trkpt>
      <trkpt lat="47.39395" lon="-0.37556">
        <ele>58.1</ele>
        <time>2013-02-13T09:25:56.780Z</time>
      </trkpt>
      <trkpt lat="47.39393" lon="-0.37558">
        <ele>58.1</ele>
        <time>2013-02-13T09:25:57.780Z</time>
      </trkpt>
      <trkpt lat="47.39391" lon="-0.37558">
        <ele>58.2</ele>
        <time>2013-02-13T09:25:58.780Z</time>
      </trkpt>
      <trkpt lat="47.39389" lon="-0.37559">
        <ele>58.2</ele>
        <time>2013-02-13T09:25:59.740Z</time>
      </trkpt>
      <trkpt lat="47.39387" lon="-0.3756">
        <ele>60.4</ele>
        <time>2013-02-13T09:26:00.770Z</time>
      </trkpt>
      <trkpt lat="47.39385" lon="-0.37561">
        <ele>58.7</ele>
        <time>2013-02-13T09:26:01.820Z</time>
      </trkpt>
      <trkpt lat="47.39383" lon="-0.37561">
        <ele>59</ele>
        <time>2013-02-13T09:26:02.770Z</time>
      </trkpt>
      <trkpt lat="47.39381" lon="-0.37562">
        <ele>59.2</ele>
        <time>2013-02-13T09:26:03.770Z</time>
      </trkpt>
      <trkpt lat="47.39379" lon="-0.37562">
        <ele>59.4</ele>
        <time>2013-02-13T09:26:04.770Z</time>
      </trkpt>
      <trkpt lat="47.39377" lon="-0.37563">
        <ele>59.6</ele>
        <time>2013-02-13T09:26:05.760Z</time>
      </trkpt>
      <trkpt lat="47.39375" lon="-0.37564">
        <ele>59.8</ele>
        <time>2013-02-13T09:26:06.770Z</time>
      </trkpt>
      <trkpt lat="47.39374" lon="-0.37565">
        <ele>60</ele>
        <time>2013-02-13T09:26:07.770Z</time>
      </trkpt>
      <trkpt lat="47.39372" lon="-0.37566">
        <ele>60.2</ele>
        <time>2013-02-13T09:26:08.760Z</time>
      </trkpt>
      <trkpt lat="47.3937" lon="-0.37567">
        <ele>60.3</ele>
        <time>2013-02-13T09:26:09.770Z</time>
      </trkpt>
      <trkpt lat="47.39368" lon="-0.37568">
        <ele>60.5</ele>
        <time>2013-02-13T09:26:10.770Z</time>
      </trkpt>
      <trkpt lat="47.39366" lon="-0.37568">
        <ele>60.6</ele>
        <time>2013-02-13T09:26:11.770Z</time>
      </trkpt>
      <trkpt lat="47.39364" lon="-0.37568">
        <ele>60.8</ele>
        <time>2013-02-13T09:26:12.770Z</time>
      </trkpt>
      <trkpt lat="47.39361" lon="-0.37568">
        <ele>61</ele>
        <time>2013-02-13T09:26:13.770Z</time>
      </trkpt>
      <trkpt lat="47.3936" lon="-0.37569">
        <ele>61.1</ele>
        <time>2013-02-13T09:26:14.810Z</time>
      </trkpt>
      <trkpt lat="47.39358" lon="-0.3757">
        <ele>61.2</ele>
        <time>2013-02-13T09:26:15.770Z</time>
      </trkpt>
      <trkpt lat="47.39356" lon="-0.3757">
        <ele>61.4</ele>
        <time>2013-02-13T09:26:16.770Z</time>
      </trkpt>
      <trkpt lat="47.39354" lon="-0.37571">
        <ele>61.5</ele>
        <time>2013-02-13T09:26:17.770Z</time>
      </trkpt>
      <trkpt lat="47.39352" lon="-0.37572">
        <ele>61.7</ele>
        <time>2013-02-13T09:26:18.780Z</time>
      </trkpt>
      <trkpt lat="47.3935" lon="-0.37572">
        <ele>61.8</ele>
        <time>2013-02-13T09:26:19.750Z</time>
      </trkpt>
      <trkpt lat="47.39348" lon="-0.37573">
        <ele>61.9</ele>
        <time>2013-02-13T09:26:20.770Z</time>
      </trkpt>
      <trkpt lat="47.39346" lon="-0.37574">
        <ele>62.1</ele>
        <time>2013-02-13T09:26:21.790Z</time>
      </trkpt>
      <trkpt lat="47.39345" lon="-0.37575">
        <ele>62.2</ele>
        <time>2013-02-13T09:26:22.780Z</time>
      </trkpt>
      <trkpt lat="47.39343" lon="-0.37577">
        <ele>62.3</ele>
        <time>2013-02-13T09:26:23.770Z</time>
      </trkpt>
      <trkpt lat="47.39341" lon="-0.37578">
        <ele>62.5</ele>
        <time>2013-02-13T09:26:24.770Z</time>
      </trkpt>
      <trkpt lat="47.39339" lon="-0.37579">
        <ele>62.6</ele>
        <time>2013-02-13T09:26:25.770Z</time>
      </trkpt>
      <trkpt lat="47.39337" lon="-0.37581">
        <ele>62.7</ele>
        <time>2013-02-13T09:26:26.800Z</time>
      </trkpt>
      <trkpt lat="47.39336" lon="-0.37582">
        <ele>62.8</ele>
        <time>2013-02-13T09:26:27.810Z</time>
      </trkpt>
      <trkpt lat="47.39333" lon="-0.37583">
        <ele>63</ele>
        <time>2013-02-13T09:26:28.770Z</time>
      </trkpt>
      <trkpt lat="47.39332" lon="-0.37584">
        <ele>63.2</ele>
        <time>2013-02-13T09:26:29.780Z</time>
      </trkpt>
      <trkpt lat="47.3933" lon="-0.37585">
        <ele>63.3</ele>
        <time>2013-02-13T09:26:30.770Z</time>
      </trkpt>
      <trkpt lat="47.39328" lon="-0.37586">
        <ele>63.5</ele>
        <time>2013-02-13T09:26:31.770Z</time>
      </trkpt>
      <trkpt lat="47.39326" lon="-0.37587">
        <ele>63.7</ele>
        <time>2013-02-13T09:26:32.770Z</time>
      </trkpt>
      <trkpt lat="47.39325" lon="-0.37589">
        <ele>63.9</ele>
        <time>2013-02-13T09:26:33.770Z</time>
      </trkpt>
      <trkpt lat="47.39323" lon="-0.37589">
        <ele>64</ele>
        <time>2013-02-13T09:26:34.870Z</time>
      </trkpt>
      <trkpt lat="47.39321" lon="-0.3759">
        <ele>64.2</ele>
        <time>2013-02-13T09:26:35.870Z</time>
      </trkpt>
      <trkpt lat="47.39319" lon="-0.37591">
        <ele>64.4</ele>
        <time>2013-02-13T09:26:36.870Z</time>
      </trkpt>
      <trkpt lat="47.39318" lon="-0.37592">
        <ele>64.5</ele>
        <time>2013-02-13T09:26:37.870Z</time>
      </trkpt>
      <trkpt lat="47.39316" lon="-0.37592">
        <ele>64.7</ele>
        <time>2013-02-13T09:26:38.870Z</time>
      </trkpt>
      <trkpt lat="47.39313" lon="-0.37592">
        <ele>65</ele>
        <time>2013-02-13T09:26:39.850Z</time>
      </trkpt>
      <trkpt lat="47.39311" lon="-0.37592">
        <ele>65.2</ele>
        <time>2013-02-13T09:26:40.910Z</time>
      </trkpt>
      <trkpt lat="47.39309" lon="-0.37592">
        <ele>65.4</ele>
        <time>2013-02-13T09:26:41.870Z</time>
      </trkpt>
      <trkpt lat="47.39307" lon="-0.37592">
        <ele>65.6</ele>
        <time>2013-02-13T09:26:42.860Z</time>
      </trkpt>
      <trkpt lat="47.39305" lon="-0.37591">
        <ele>65.7</ele>
        <time>2013-02-13T09:26:43.860Z</time>
      </trkpt>
      <trkpt lat="47.39303" lon="-0.37591">
        <ele>65.8</ele>
        <time>2013-02-13T09:26:44.860Z</time>
      </trkpt>
      <trkpt lat="47.39301" lon="-0.37591">
        <ele>65.9</ele>
        <time>2013-02-13T09:26:45.860Z</time>
      </trkpt>
      <trkpt lat="47.39299" lon="-0.37591">
        <ele>66</ele>
        <time>2013-02-13T09:26:46.860Z</time>
      </trkpt>
      <trkpt lat="47.39298" lon="-0.3759">
        <ele>66</ele>
        <time>2013-02-13T09:26:47.860Z</time>
      </trkpt>
      <trkpt lat="47.39296" lon="-0.3759">
        <ele>66.1</ele>
        <time>2013-02-13T09:26:48.860Z</time>
      </trkpt>
      <trkpt lat="47.39293" lon="-0.37589">
        <ele>66.2</ele>
        <time>2013-02-13T09:26:49.860Z</time>
      </trkpt>
      <trkpt lat="47.39292" lon="-0.37588">
        <ele>66.3</ele>
        <time>2013-02-13T09:26:50.850Z</time>
      </trkpt>
      <trkpt lat="47.3929" lon="-0.37588">
        <ele>66.4</ele>
        <time>2013-02-13T09:26:51.860Z</time>
      </trkpt>
      <trkpt lat="47.39288" lon="-0.37587">
        <ele>66.5</ele>
        <time>2013-02-13T09:26:52.860Z</time>
      </trkpt>
      <trkpt lat="47.39286" lon="-0.37586">
        <ele>66.6</ele>
        <time>2013-02-13T09:26:53.900Z</time>
      </trkpt>
      <trkpt lat="47.39284" lon="-0.37586">
        <ele>66.7</ele>
        <time>2013-02-13T09:26:54.860Z</time>
      </trkpt>
      <trkpt lat="47.39283" lon="-0.37586">
        <ele>66.7</ele>
        <time>2013-02-13T09:26:55.860Z</time>
      </trkpt>
      <trkpt lat="47.39281" lon="-0.37585">
        <ele>66.8</ele>
        <time>2013-02-13T09:26:56.850Z</time>
      </trkpt>
      <trkpt lat="47.3928" lon="-0.37584">
        <ele>66.9</ele>
        <time>2013-02-13T09:26:57.860Z</time>
      </trkpt>
      <trkpt lat="47.39278" lon="-0.37583">
        <ele>67.1</ele>
        <time>2013-02-13T09:26:58.860Z</time>
      </trkpt>
      <trkpt lat="47.39276" lon="-0.37582">
        <ele>67.3</ele>
        <time>2013-02-13T09:26:59.840Z</time>
      </trkpt>
      <trkpt lat="47.39273" lon="-0.3758">
        <ele>67.7</ele>
        <time>2013-02-13T09:27:00.860Z</time>
      </trkpt>
      <trkpt lat="47.39272" lon="-0.37579">
        <ele>67.8</ele>
        <time>2013-02-13T09:27:01.860Z</time>
      </trkpt>
      <trkpt lat="47.3927" lon="-0.37579">
        <ele>67.8</ele>
        <time>2013-02-13T09:27:02.840Z</time>
      </trkpt>
      <trkpt lat="47.39268" lon="-0.37579">
        <ele>68</ele>
        <time>2013-02-13T09:27:03.860Z</time>
      </trkpt>
      <trkpt lat="47.39267" lon="-0.37577">
        <ele>68.2</ele>
        <time>2013-02-13T09:27:04.860Z</time>
      </trkpt>
      <trkpt lat="47.39265" lon="-0.37576">
        <ele>68.4</ele>
        <time>2013-02-13T09:27:05.860Z</time>
      </trkpt>
      <trkpt lat="47.39261" lon="-0.37574">
        <ele>68.8</ele>
        <time>2013-02-13T09:27:07.860Z</time>
      </trkpt>
      <trkpt lat="47.39259" lon="-0.37573">
        <ele>68.9</ele>
        <time>2013-02-13T09:27:08.860Z</time>
      </trkpt>
      <trkpt lat="47.39257" lon="-0.37573">
        <ele>68.9</ele>
        <time>2013-02-13T09:27:09.860Z</time>
      </trkpt>
      <trkpt lat="47.39256" lon="-0.37573">
        <ele>69</ele>
        <time>2013-02-13T09:27:10.860Z</time>
      </trkpt>
      <trkpt lat="47.39254" lon="-0.37572">
        <ele>69.1</ele>
        <time>2013-02-13T09:27:11.860Z</time>
      </trkpt>
      <trkpt lat="47.39253" lon="-0.37572">
        <ele>69.2</ele>
        <time>2013-02-13T09:27:12.860Z</time>
      </trkpt>
      <trkpt lat="47.39251" lon="-0.37571">
        <ele>69.3</ele>
        <time>2013-02-13T09:27:13.840Z</time>
      </trkpt>
      <trkpt lat="47.39249" lon="-0.37571">
        <ele>69.4</ele>
        <time>2013-02-13T09:27:14.840Z</time>
      </trkpt>
      <trkpt lat="47.39247" lon="-0.3757">
        <ele>69.5</ele>
        <time>2013-02-13T09:27:15.860Z</time>
      </trkpt>
      <trkpt lat="47.39245" lon="-0.37569">
        <ele>69.5</ele>
        <time>2013-02-13T09:27:16.840Z</time>
      </trkpt>
      <trkpt lat="47.39243" lon="-0.37569">
        <ele>69.6</ele>
        <time>2013-02-13T09:27:17.860Z</time>
      </trkpt>
      <trkpt lat="47.39241" lon="-0.37568">
        <ele>69.6</ele>
        <time>2013-02-13T09:27:18.860Z</time>
      </trkpt>
      <trkpt lat="47.39238" lon="-0.37568">
        <ele>69.7</ele>
        <time>2013-02-13T09:27:19.900Z</time>
      </trkpt>
      <trkpt lat="47.39236" lon="-0.37566">
        <ele>69.7</ele>
        <time>2013-02-13T09:27:20.860Z</time>
      </trkpt>
      <trkpt lat="47.39234" lon="-0.37565">
        <ele>69.8</ele>
        <time>2013-02-13T09:27:21.860Z</time>
      </trkpt>
      <trkpt lat="47.39231" lon="-0.37565">
        <ele>69.8</ele>
        <time>2013-02-13T09:27:22.860Z</time>
      </trkpt>
      <trkpt lat="47.39229" lon="-0.37563">
        <ele>69.9</ele>
        <time>2013-02-13T09:27:23.860Z</time>
      </trkpt>
      <trkpt lat="47.39227" lon="-0.37562">
        <ele>69.9</ele>
        <time>2013-02-13T09:27:24.850Z</time>
      </trkpt>
      <trkpt lat="47.39225" lon="-0.37561">
        <ele>69.9</ele>
        <time>2013-02-13T09:27:25.840Z</time>
      </trkpt>
      <trkpt lat="47.39223" lon="-0.3756">
        <ele>69.9</ele>
        <time>2013-02-13T09:27:26.850Z</time>
      </trkpt>
      <trkpt lat="47.39221" lon="-0.37558">
        <ele>69.9</ele>
        <time>2013-02-13T09:27:27.850Z</time>
      </trkpt>
      <trkpt lat="47.39219" lon="-0.37557">
        <ele>69.8</ele>
        <time>2013-02-13T09:27:28.850Z</time>
      </trkpt>
      <trkpt lat="47.39217" lon="-0.37557">
        <ele>69.8</ele>
        <time>2013-02-13T09:27:29.850Z</time>
      </trkpt>
      <trkpt lat="47.39215" lon="-0.37557">
        <ele>69.7</ele>
        <time>2013-02-13T09:27:30.680Z</time>
      </trkpt>
      <trkpt lat="47.39214" lon="-0.37556">
        <ele>69.7</ele>
        <time>2013-02-13T09:27:31.770Z</time>
      </trkpt>
      <trkpt lat="47.39211" lon="-0.37556">
        <ele>69.6</ele>
        <time>2013-02-13T09:27:32.780Z</time>
      </trkpt>
      <trkpt lat="47.39209" lon="-0.37556">
        <ele>69.5</ele>
        <time>2013-02-13T09:27:33.800Z</time>
      </trkpt>
      <trkpt lat="47.39207" lon="-0.37556">
        <ele>69.5</ele>
        <time>2013-02-13T09:27:34.770Z</time>
      </trkpt>
      <trkpt lat="47.39204" lon="-0.37555">
        <ele>69.3</ele>
        <time>2013-02-13T09:27:35.770Z</time>
      </trkpt>
      <trkpt lat="47.39202" lon="-0.37555">
        <ele>69.3</ele>
        <time>2013-02-13T09:27:36.860Z</time>
      </trkpt>
      <trkpt lat="47.392" lon="-0.37553">
        <ele>69.3</ele>
        <time>2013-02-13T09:27:37.850Z</time>
      </trkpt>
      <trkpt lat="47.39198" lon="-0.37552">
        <ele>69.3</ele>
        <time>2013-02-13T09:27:38.850Z</time>
      </trkpt>
      <trkpt lat="47.39195" lon="-0.37551">
        <ele>69.2</ele>
        <time>2013-02-13T09:27:39.850Z</time>
      </trkpt>
      <trkpt lat="47.39193" lon="-0.37551">
        <ele>69.2</ele>
        <time>2013-02-13T09:27:40.850Z</time>
      </trkpt>
      <trkpt lat="47.39191" lon="-0.3755">
        <ele>69.3</ele>
        <time>2013-02-13T09:27:41.850Z</time>
      </trkpt>
      <trkpt lat="47.39188" lon="-0.37548">
        <ele>69.4</ele>
        <time>2013-02-13T09:27:42.850Z</time>
      </trkpt>
      <trkpt lat="47.39186" lon="-0.37547">
        <ele>69.5</ele>
        <time>2013-02-13T09:27:43.850Z</time>
      </trkpt>
      <trkpt lat="47.39183" lon="-0.37546">
        <ele>69.6</ele>
        <time>2013-02-13T09:27:44.850Z</time>
      </trkpt>
      <trkpt lat="47.39181" lon="-0.37545">
        <ele>69.7</ele>
        <time>2013-02-13T09:27:45.850Z</time>
      </trkpt>
      <trkpt lat="47.39179" lon="-0.37544">
        <ele>69.8</ele>
        <time>2013-02-13T09:27:46.830Z</time>
      </trkpt>
      <trkpt lat="47.39176" lon="-0.37544">
        <ele>69.8</ele>
        <time>2013-02-13T09:27:47.830Z</time>
      </trkpt>
      <trkpt lat="47.39174" lon="-0.37545">
        <ele>69.8</ele>
        <time>2013-02-13T09:27:48.850Z</time>
      </trkpt>
      <trkpt lat="47.39172" lon="-0.37544">
        <ele>69.9</ele>
        <time>2013-02-13T09:27:49.850Z</time>
      </trkpt>
      <trkpt lat="47.3917" lon="-0.37544">
        <ele>69.9</ele>
        <time>2013-02-13T09:27:50.930Z</time>
      </trkpt>
      <trkpt lat="47.39165" lon="-0.37544">
        <ele>70.1</ele>
        <time>2013-02-13T09:27:52.750Z</time>
      </trkpt>
      <trkpt lat="47.39164" lon="-0.37543">
        <ele>70.2</ele>
        <time>2013-02-13T09:27:53.750Z</time>
      </trkpt>
      <trkpt lat="47.39161" lon="-0.37542">
        <ele>70.3</ele>
        <time>2013-02-13T09:27:54.750Z</time>
      </trkpt>
      <trkpt lat="47.39159" lon="-0.37542">
        <ele>70.4</ele>
        <time>2013-02-13T09:27:55.770Z</time>
      </trkpt>
      <trkpt lat="47.39157" lon="-0.37541">
        <ele>70.5</ele>
        <time>2013-02-13T09:27:56.770Z</time>
      </trkpt>
      <trkpt lat="47.39154" lon="-0.37541">
        <ele>70.7</ele>
        <time>2013-02-13T09:27:57.750Z</time>
      </trkpt>
      <trkpt lat="47.39152" lon="-0.37541">
        <ele>70.8</ele>
        <time>2013-02-13T09:27:58.790Z</time>
      </trkpt>
      <trkpt lat="47.3915" lon="-0.3754">
        <ele>70.9</ele>
        <time>2013-02-13T09:27:59.910Z</time>
      </trkpt>
      <trkpt lat="47.39146" lon="-0.3754">
        <ele>71.2</ele>
        <time>2013-02-13T09:28:01.840Z</time>
      </trkpt>
      <trkpt lat="47.39144" lon="-0.37539">
        <ele>71.1</ele>
        <time>2013-02-13T09:28:02.860Z</time>
      </trkpt>
      <trkpt lat="47.39143" lon="-0.37539">
        <ele>71.2</ele>
        <time>2013-02-13T09:28:03.850Z</time>
      </trkpt>
      <trkpt lat="47.39141" lon="-0.37539">
        <ele>71.3</ele>
        <time>2013-02-13T09:28:04.830Z</time>
      </trkpt>
      <trkpt lat="47.39138" lon="-0.37539">
        <ele>71.4</ele>
        <time>2013-02-13T09:28:05.840Z</time>
      </trkpt>
      <trkpt lat="47.39136" lon="-0.37538">
        <ele>71.4</ele>
        <time>2013-02-13T09:28:06.840Z</time>
      </trkpt>
      <trkpt lat="47.39134" lon="-0.37538">
        <ele>71.5</ele>
        <time>2013-02-13T09:28:07.840Z</time>
      </trkpt>
      <trkpt lat="47.39132" lon="-0.37538">
        <ele>71.5</ele>
        <time>2013-02-13T09:28:08.830Z</time>
      </trkpt>
      <trkpt lat="47.39129" lon="-0.37538">
        <ele>71.6</ele>
        <time>2013-02-13T09:28:09.840Z</time>
      </trkpt>
      <trkpt lat="47.39124" lon="-0.37537">
        <ele>71.7</ele>
        <time>2013-02-13T09:28:11.840Z</time>
      </trkpt>
      <trkpt lat="47.39122" lon="-0.37536">
        <ele>71.7</ele>
        <time>2013-02-13T09:28:12.840Z</time>
      </trkpt>
      <trkpt lat="47.3912" lon="-0.37536">
        <ele>71.8</ele>
        <time>2013-02-13T09:28:13.840Z</time>
      </trkpt>
      <trkpt lat="47.39118" lon="-0.37536">
        <ele>71.8</ele>
        <time>2013-02-13T09:28:14.840Z</time>
      </trkpt>
      <trkpt lat="47.39116" lon="-0.37536">
        <ele>71.9</ele>
        <time>2013-02-13T09:28:15.840Z</time>
      </trkpt>
      <trkpt lat="47.39114" lon="-0.37535">
        <ele>71.9</ele>
        <time>2013-02-13T09:28:16.680Z</time>
      </trkpt>
      <trkpt lat="47.39112" lon="-0.37535">
        <ele>72</ele>
        <time>2013-02-13T09:28:17.740Z</time>
      </trkpt>
      <trkpt lat="47.3911" lon="-0.37534">
        <ele>72.1</ele>
        <time>2013-02-13T09:28:18.740Z</time>
      </trkpt>
      <trkpt lat="47.39108" lon="-0.37534">
        <ele>72.2</ele>
        <time>2013-02-13T09:28:19.740Z</time>
      </trkpt>
      <trkpt lat="47.39105" lon="-0.37533">
        <ele>72.2</ele>
        <time>2013-02-13T09:28:20.740Z</time>
      </trkpt>
      <trkpt lat="47.39103" lon="-0.37533">
        <ele>72.4</ele>
        <time>2013-02-13T09:28:21.830Z</time>
      </trkpt>
      <trkpt lat="47.391" lon="-0.37532">
        <ele>72.5</ele>
        <time>2013-02-13T09:28:22.840Z</time>
      </trkpt>
      <trkpt lat="47.39098" lon="-0.37531">
        <ele>72.5</ele>
        <time>2013-02-13T09:28:23.840Z</time>
      </trkpt>
      <trkpt lat="47.39095" lon="-0.37531">
        <ele>72.6</ele>
        <time>2013-02-13T09:28:24.940Z</time>
      </trkpt>
      <trkpt lat="47.39091" lon="-0.37531">
        <ele>72.8</ele>
        <time>2013-02-13T09:28:26.740Z</time>
      </trkpt>
      <trkpt lat="47.3909" lon="-0.3753">
        <ele>72.8</ele>
        <time>2013-02-13T09:28:27.740Z</time>
      </trkpt>
      <trkpt lat="47.39088" lon="-0.37529">
        <ele>72.9</ele>
        <time>2013-02-13T09:28:28.740Z</time>
      </trkpt>
      <trkpt lat="47.39086" lon="-0.37529">
        <ele>72.9</ele>
        <time>2013-02-13T09:28:29.740Z</time>
      </trkpt>
      <trkpt lat="47.39084" lon="-0.37529">
        <ele>73</ele>
        <time>2013-02-13T09:28:30.740Z</time>
      </trkpt>
      <trkpt lat="47.39082" lon="-0.37529">
        <ele>73.1</ele>
        <time>2013-02-13T09:28:31.720Z</time>
      </trkpt>
      <trkpt lat="47.3908" lon="-0.37529">
        <ele>73.3</ele>
        <time>2013-02-13T09:28:32.740Z</time>
      </trkpt>
      <trkpt lat="47.39078" lon="-0.37528">
        <ele>73.4</ele>
        <time>2013-02-13T09:28:33.780Z</time>
      </trkpt>
      <trkpt lat="47.39076" lon="-0.37527">
        <ele>73.5</ele>
        <time>2013-02-13T09:28:34.740Z</time>
      </trkpt>
      <trkpt lat="47.39074" lon="-0.37527">
        <ele>73.7</ele>
        <time>2013-02-13T09:28:35.740Z</time>
      </trkpt>
      <trkpt lat="47.39071" lon="-0.37527">
        <ele>73.8</ele>
        <time>2013-02-13T09:28:36.740Z</time>
      </trkpt>
      <trkpt lat="47.39069" lon="-0.37527">
        <ele>74</ele>
        <time>2013-02-13T09:28:37.780Z</time>
      </trkpt>
      <trkpt lat="47.39068" lon="-0.37526">
        <ele>74.1</ele>
        <time>2013-02-13T09:28:38.920Z</time>
      </trkpt>
      <trkpt lat="47.39064" lon="-0.37526">
        <ele>74.4</ele>
        <time>2013-02-13T09:28:40.740Z</time>
      </trkpt>
      <trkpt lat="47.39062" lon="-0.37526">
        <ele>74.5</ele>
        <time>2013-02-13T09:28:41.740Z</time>
      </trkpt>
      <trkpt lat="47.3906" lon="-0.37525">
        <ele>74.7</ele>
        <time>2013-02-13T09:28:42.730Z</time>
      </trkpt>
      <trkpt lat="47.39058" lon="-0.37525">
        <ele>74.8</ele>
        <time>2013-02-13T09:28:43.840Z</time>
      </trkpt>
      <trkpt lat="47.39056" lon="-0.37525">
        <ele>75</ele>
        <time>2013-02-13T09:28:44.840Z</time>
      </trkpt>
      <trkpt lat="47.39054" lon="-0.37525">
        <ele>75.1</ele>
        <time>2013-02-13T09:28:45.830Z</time>
      </trkpt>
      <trkpt lat="47.39052" lon="-0.37524">
        <ele>75.3</ele>
        <time>2013-02-13T09:28:46.830Z</time>
      </trkpt>
      <trkpt lat="47.39049" lon="-0.37523">
        <ele>75.5</ele>
        <time>2013-02-13T09:28:47.830Z</time>
      </trkpt>
      <trkpt lat="47.39047" lon="-0.37523">
        <ele>75.6</ele>
        <time>2013-02-13T09:28:48.850Z</time>
      </trkpt>
      <trkpt lat="47.39045" lon="-0.37522">
        <ele>75.7</ele>
        <time>2013-02-13T09:28:49.830Z</time>
      </trkpt>
      <trkpt lat="47.39043" lon="-0.37522">
        <ele>75.9</ele>
        <time>2013-02-13T09:28:50.820Z</time>
      </trkpt>
      <trkpt lat="47.39041" lon="-0.37521">
        <ele>76</ele>
        <time>2013-02-13T09:28:51.830Z</time>
      </trkpt>
      <trkpt lat="47.39039" lon="-0.37521">
        <ele>76.2</ele>
        <time>2013-02-13T09:28:52.830Z</time>
      </trkpt>
      <trkpt lat="47.39037" lon="-0.3752">
        <ele>76.4</ele>
        <time>2013-02-13T09:28:53.810Z</time>
      </trkpt>
      <trkpt lat="47.39034" lon="-0.3752">
        <ele>76.5</ele>
        <time>2013-02-13T09:28:54.830Z</time>
      </trkpt>
      <trkpt lat="47.39032" lon="-0.37519">
        <ele>76.7</ele>
        <time>2013-02-13T09:28:55.820Z</time>
      </trkpt>
      <trkpt lat="47.3903" lon="-0.37518">
        <ele>76.8</ele>
        <time>2013-02-13T09:28:56.830Z</time>
      </trkpt>
      <trkpt lat="47.39029" lon="-0.37517">
        <ele>76.9</ele>
        <time>2013-02-13T09:28:57.830Z</time>
      </trkpt>
      <trkpt lat="47.39026" lon="-0.37515">
        <ele>77</ele>
        <time>2013-02-13T09:28:58.830Z</time>
      </trkpt>
      <trkpt lat="47.39024" lon="-0.37514">
        <ele>77.1</ele>
        <time>2013-02-13T09:28:59.810Z</time>
      </trkpt>
      <trkpt lat="47.39022" lon="-0.37513">
        <ele>76.7</ele>
        <time>2013-02-13T09:29:00.830Z</time>
      </trkpt>
      <trkpt lat="47.39019" lon="-0.37511">
        <ele>77.3</ele>
        <time>2013-02-13T09:29:01.830Z</time>
      </trkpt>
      <trkpt lat="47.39017" lon="-0.3751">
        <ele>77.4</ele>
        <time>2013-02-13T09:29:02.770Z</time>
      </trkpt>
      <trkpt lat="47.39014" lon="-0.37508">
        <ele>77.5</ele>
        <time>2013-02-13T09:29:03.830Z</time>
      </trkpt>
      <trkpt lat="47.39012" lon="-0.37507">
        <ele>77.6</ele>
        <time>2013-02-13T09:29:04.830Z</time>
      </trkpt>
      <trkpt lat="47.3901" lon="-0.37507">
        <ele>77.7</ele>
        <time>2013-02-13T09:29:05.830Z</time>
      </trkpt>
      <trkpt lat="47.39008" lon="-0.37503">
        <ele>77.7</ele>
        <time>2013-02-13T09:29:06.830Z</time>
      </trkpt>
      <trkpt lat="47.39006" lon="-0.37503">
        <ele>77.8</ele>
        <time>2013-02-13T09:29:07.830Z</time>
      </trkpt>
      <trkpt lat="47.39004" lon="-0.37502">
        <ele>77.9</ele>
        <time>2013-02-13T09:29:08.830Z</time>
      </trkpt>
      <trkpt lat="47.39002" lon="-0.37502">
        <ele>77.9</ele>
        <time>2013-02-13T09:29:09.830Z</time>
      </trkpt>
      <trkpt lat="47.39" lon="-0.37502">
        <ele>78</ele>
        <time>2013-02-13T09:29:10.830Z</time>
      </trkpt>
      <trkpt lat="47.38998" lon="-0.37502">
        <ele>78.1</ele>
        <time>2013-02-13T09:29:11.840Z</time>
      </trkpt>
      <trkpt lat="47.38996" lon="-0.37501">
        <ele>78.2</ele>
        <time>2013-02-13T09:29:12.730Z</time>
      </trkpt>
      <trkpt lat="47.38994" lon="-0.375">
        <ele>78.2</ele>
        <time>2013-02-13T09:29:13.830Z</time>
      </trkpt>
      <trkpt lat="47.38992" lon="-0.37499">
        <ele>78.3</ele>
        <time>2013-02-13T09:29:14.830Z</time>
      </trkpt>
      <trkpt lat="47.3899" lon="-0.37499">
        <ele>78.3</ele>
        <time>2013-02-13T09:29:15.870Z</time>
      </trkpt>
      <trkpt lat="47.38987" lon="-0.37498">
        <ele>78.4</ele>
        <time>2013-02-13T09:29:16.810Z</time>
      </trkpt>
      <trkpt lat="47.38985" lon="-0.37498">
        <ele>78.5</ele>
        <time>2013-02-13T09:29:17.830Z</time>
      </trkpt>
      <trkpt lat="47.38983" lon="-0.37497">
        <ele>78.6</ele>
        <time>2013-02-13T09:29:18.830Z</time>
      </trkpt>
      <trkpt lat="47.38981" lon="-0.37496">
        <ele>78.7</ele>
        <time>2013-02-13T09:29:19.830Z</time>
      </trkpt>
      <trkpt lat="47.38979" lon="-0.37496">
        <ele>78.7</ele>
        <time>2013-02-13T09:29:20.830Z</time>
      </trkpt>
      <trkpt lat="47.38976" lon="-0.37495">
        <ele>78.8</ele>
        <time>2013-02-13T09:29:21.830Z</time>
      </trkpt>
      <trkpt lat="47.38974" lon="-0.37494">
        <ele>78.9</ele>
        <time>2013-02-13T09:29:22.830Z</time>
      </trkpt>
      <trkpt lat="47.38972" lon="-0.37494">
        <ele>79</ele>
        <time>2013-02-13T09:29:23.830Z</time>
      </trkpt>
      <trkpt lat="47.3897" lon="-0.37494">
        <ele>79</ele>
        <time>2013-02-13T09:29:24.830Z</time>
      </trkpt>
      <trkpt lat="47.38967" lon="-0.37493">
        <ele>79</ele>
        <time>2013-02-13T09:29:25.830Z</time>
      </trkpt>
      <trkpt lat="47.38965" lon="-0.37493">
        <ele>79</ele>
        <time>2013-02-13T09:29:26.810Z</time>
      </trkpt>
      <trkpt lat="47.38963" lon="-0.37493">
        <ele>79</ele>
        <time>2013-02-13T09:29:27.820Z</time>
      </trkpt>
      <trkpt lat="47.38961" lon="-0.37493">
        <ele>79</ele>
        <time>2013-02-13T09:29:28.860Z</time>
      </trkpt>
      <trkpt lat="47.38959" lon="-0.37492">
        <ele>79</ele>
        <time>2013-02-13T09:29:29.810Z</time>
      </trkpt>
      <trkpt lat="47.38957" lon="-0.37492">
        <ele>79</ele>
        <time>2013-02-13T09:29:30.820Z</time>
      </trkpt>
      <trkpt lat="47.38955" lon="-0.37491">
        <ele>79</ele>
        <time>2013-02-13T09:29:31.820Z</time>
      </trkpt>
      <trkpt lat="47.38953" lon="-0.3749">
        <ele>79</ele>
        <time>2013-02-13T09:29:32.820Z</time>
      </trkpt>
      <trkpt lat="47.38951" lon="-0.37489">
        <ele>79</ele>
        <time>2013-02-13T09:29:33.810Z</time>
      </trkpt>
      <trkpt lat="47.38949" lon="-0.37489">
        <ele>79</ele>
        <time>2013-02-13T09:29:34.830Z</time>
      </trkpt>
      <trkpt lat="47.38946" lon="-0.37489">
        <ele>79</ele>
        <time>2013-02-13T09:29:35.820Z</time>
      </trkpt>
      <trkpt lat="47.38944" lon="-0.3749">
        <ele>79</ele>
        <time>2013-02-13T09:29:36.820Z</time>
      </trkpt>
      <trkpt lat="47.38941" lon="-0.37489">
        <ele>78.9</ele>
        <time>2013-02-13T09:29:37.780Z</time>
      </trkpt>
      <trkpt lat="47.38937" lon="-0.3749">
        <ele>78.8</ele>
        <time>2013-02-13T09:29:39.820Z</time>
      </trkpt>
      <trkpt lat="47.38935" lon="-0.3749">
        <ele>78.8</ele>
        <time>2013-02-13T09:29:40.820Z</time>
      </trkpt>
      <trkpt lat="47.38933" lon="-0.3749">
        <ele>78.7</ele>
        <time>2013-02-13T09:29:41.860Z</time>
      </trkpt>
      <trkpt lat="47.3893" lon="-0.3749">
        <ele>78.7</ele>
        <time>2013-02-13T09:29:42.820Z</time>
      </trkpt>
      <trkpt lat="47.38928" lon="-0.3749">
        <ele>78.6</ele>
        <time>2013-02-13T09:29:43.820Z</time>
      </trkpt>
      <trkpt lat="47.38925" lon="-0.3749">
        <ele>78.6</ele>
        <time>2013-02-13T09:29:44.820Z</time>
      </trkpt>
      <trkpt lat="47.38922" lon="-0.37489">
        <ele>78.5</ele>
        <time>2013-02-13T09:29:45.820Z</time>
      </trkpt>
      <trkpt lat="47.3892" lon="-0.37488">
        <ele>78.5</ele>
        <time>2013-02-13T09:29:46.800Z</time>
      </trkpt>
      <trkpt lat="47.38918" lon="-0.37487">
        <ele>78.5</ele>
        <time>2013-02-13T09:29:47.820Z</time>
      </trkpt>
      <trkpt lat="47.38916" lon="-0.37487">
        <ele>78.5</ele>
        <time>2013-02-13T09:29:48.800Z</time>
      </trkpt>
      <trkpt lat="47.38914" lon="-0.37486">
        <ele>78.5</ele>
        <time>2013-02-13T09:29:49.820Z</time>
      </trkpt>
      <trkpt lat="47.38912" lon="-0.37485">
        <ele>78.4</ele>
        <time>2013-02-13T09:29:50.900Z</time>
      </trkpt>
      <trkpt lat="47.38908" lon="-0.37484">
        <ele>78.4</ele>
        <time>2013-02-13T09:29:52.770Z</time>
      </trkpt>
      <trkpt lat="47.38907" lon="-0.37484">
        <ele>78.4</ele>
        <time>2013-02-13T09:29:53.920Z</time>
      </trkpt>
      <trkpt lat="47.38904" lon="-0.37483">
        <ele>78.3</ele>
        <time>2013-02-13T09:29:54.960Z</time>
      </trkpt>
      <trkpt lat="47.38902" lon="-0.37482">
        <ele>78.3</ele>
        <time>2013-02-13T09:29:55.860Z</time>
      </trkpt>
      <trkpt lat="47.389" lon="-0.37481">
        <ele>78.3</ele>
        <time>2013-02-13T09:29:56.820Z</time>
      </trkpt>
      <trkpt lat="47.38897" lon="-0.37481">
        <ele>78.2</ele>
        <time>2013-02-13T09:29:57.820Z</time>
      </trkpt>
      <trkpt lat="47.38895" lon="-0.37479">
        <ele>78.2</ele>
        <time>2013-02-13T09:29:58.820Z</time>
      </trkpt>
      <trkpt lat="47.38892" lon="-0.37478">
        <ele>78.1</ele>
        <time>2013-02-13T09:29:59.810Z</time>
      </trkpt>
      <trkpt lat="47.3889" lon="-0.37477">
        <ele>81.3</ele>
        <time>2013-02-13T09:30:00.910Z</time>
      </trkpt>
      <trkpt lat="47.38886" lon="-0.37477">
        <ele>78</ele>
        <time>2013-02-13T09:30:02.920Z</time>
      </trkpt>
      <trkpt lat="47.38881" lon="-0.37475">
        <ele>78</ele>
        <time>2013-02-13T09:30:04.920Z</time>
      </trkpt>
      <trkpt lat="47.38879" lon="-0.37474">
        <ele>78</ele>
        <time>2013-02-13T09:30:05.920Z</time>
      </trkpt>
      <trkpt lat="47.38877" lon="-0.37473">
        <ele>78</ele>
        <time>2013-02-13T09:30:06.920Z</time>
      </trkpt>
      <trkpt lat="47.38875" lon="-0.37472">
        <ele>78</ele>
        <time>2013-02-13T09:30:07.920Z</time>
      </trkpt>
      <trkpt lat="47.38873" lon="-0.37471">
        <ele>78</ele>
        <time>2013-02-13T09:30:08.910Z</time>
      </trkpt>
      <trkpt lat="47.38869" lon="-0.37468">
        <ele>78</ele>
        <time>2013-02-13T09:30:10.910Z</time>
      </trkpt>
      <trkpt lat="47.38867" lon="-0.37467">
        <ele>78</ele>
        <time>2013-02-13T09:30:11.910Z</time>
      </trkpt>
      <trkpt lat="47.38865" lon="-0.37466">
        <ele>78</ele>
        <time>2013-02-13T09:30:12.910Z</time>
      </trkpt>
      <trkpt lat="47.38862" lon="-0.37465">
        <ele>78</ele>
        <time>2013-02-13T09:30:13.910Z</time>
      </trkpt>
      <trkpt lat="47.3886" lon="-0.37464">
        <ele>78</ele>
        <time>2013-02-13T09:30:14.910Z</time>
      </trkpt>
      <trkpt lat="47.38858" lon="-0.37464">
        <ele>78</ele>
        <time>2013-02-13T09:30:15.910Z</time>
      </trkpt>
      <trkpt lat="47.38854" lon="-0.37464">
        <ele>78.1</ele>
        <time>2013-02-13T09:30:17.910Z</time>
      </trkpt>
      <trkpt lat="47.38852" lon="-0.37463">
        <ele>78.1</ele>
        <time>2013-02-13T09:30:18.910Z</time>
      </trkpt>
      <trkpt lat="47.38849" lon="-0.37461">
        <ele>78.2</ele>
        <time>2013-02-13T09:30:19.910Z</time>
      </trkpt>
      <trkpt lat="47.38847" lon="-0.3746">
        <ele>78.2</ele>
        <time>2013-02-13T09:30:20.890Z</time>
      </trkpt>
      <trkpt lat="47.38843" lon="-0.37461">
        <ele>78.3</ele>
        <time>2013-02-13T09:30:21.910Z</time>
      </trkpt>
      <trkpt lat="47.38841" lon="-0.3746">
        <ele>78.3</ele>
        <time>2013-02-13T09:30:22.910Z</time>
      </trkpt>
      <trkpt lat="47.38839" lon="-0.37459">
        <ele>78.4</ele>
        <time>2013-02-13T09:30:23.910Z</time>
      </trkpt>
      <trkpt lat="47.38836" lon="-0.37459">
        <ele>78.4</ele>
        <time>2013-02-13T09:30:24.910Z</time>
      </trkpt>
      <trkpt lat="47.38834" lon="-0.37459">
        <ele>78.5</ele>
        <time>2013-02-13T09:30:25.910Z</time>
      </trkpt>
      <trkpt lat="47.38831" lon="-0.37459">
        <ele>78.6</ele>
        <time>2013-02-13T09:30:26.910Z</time>
      </trkpt>
      <trkpt lat="47.38827" lon="-0.37459">
        <ele>78.7</ele>
        <time>2013-02-13T09:30:28.910Z</time>
      </trkpt>
      <trkpt lat="47.38824" lon="-0.37459">
        <ele>78.8</ele>
        <time>2013-02-13T09:30:29.910Z</time>
      </trkpt>
      <trkpt lat="47.38822" lon="-0.37459">
        <ele>78.9</ele>
        <time>2013-02-13T09:30:30.910Z</time>
      </trkpt>
      <trkpt lat="47.38819" lon="-0.3746">
        <ele>79</ele>
        <time>2013-02-13T09:30:31.910Z</time>
      </trkpt>
      <trkpt lat="47.38816" lon="-0.37459">
        <ele>79.1</ele>
        <time>2013-02-13T09:30:32.910Z</time>
      </trkpt>
      <trkpt lat="47.38812" lon="-0.37458">
        <ele>79.3</ele>
        <time>2013-02-13T09:30:34.780Z</time>
      </trkpt>
      <trkpt lat="47.3881" lon="-0.37459">
        <ele>79.3</ele>
        <time>2013-02-13T09:30:35.770Z</time>
      </trkpt>
      <trkpt lat="47.38808" lon="-0.37458">
        <ele>79.4</ele>
        <time>2013-02-13T09:30:36.810Z</time>
      </trkpt>
      <trkpt lat="47.38805" lon="-0.37458">
        <ele>79.5</ele>
        <time>2013-02-13T09:30:37.790Z</time>
      </trkpt>
      <trkpt lat="47.38804" lon="-0.37459">
        <ele>79.6</ele>
        <time>2013-02-13T09:30:38.810Z</time>
      </trkpt>
      <trkpt lat="47.38801" lon="-0.37459">
        <ele>79.7</ele>
        <time>2013-02-13T09:30:39.810Z</time>
      </trkpt>
      <trkpt lat="47.38799" lon="-0.3746">
        <ele>79.8</ele>
        <time>2013-02-13T09:30:40.850Z</time>
      </trkpt>
      <trkpt lat="47.38796" lon="-0.37459">
        <ele>80</ele>
        <time>2013-02-13T09:30:41.810Z</time>
      </trkpt>
      <trkpt lat="47.38794" lon="-0.37458">
        <ele>80.1</ele>
        <time>2013-02-13T09:30:42.910Z</time>
      </trkpt>
      <trkpt lat="47.38788" lon="-0.37457">
        <ele>80.4</ele>
        <time>2013-02-13T09:30:44.910Z</time>
      </trkpt>
      <trkpt lat="47.38786" lon="-0.37454">
        <ele>80.6</ele>
        <time>2013-02-13T09:30:46.910Z</time>
      </trkpt>
      <trkpt lat="47.38786" lon="-0.37452">
        <ele>80.6</ele>
        <time>2013-02-13T09:30:47.910Z</time>
      </trkpt>
      <trkpt lat="47.38786" lon="-0.3745">
        <ele>80.7</ele>
        <time>2013-02-13T09:30:49.900Z</time>
      </trkpt>
      <trkpt lat="47.38786" lon="-0.37448">
        <ele>80.7</ele>
        <time>2013-02-13T09:30:50.890Z</time>
      </trkpt>
      <trkpt lat="47.38786" lon="-0.37446">
        <ele>80.7</ele>
        <time>2013-02-13T09:30:52.790Z</time>
      </trkpt>
      <trkpt lat="47.38786" lon="-0.37446">
        <ele>85.3</ele>
        <time>2013-02-13T09:31:01.770Z</time>
      </trkpt>
      <trkpt lat="47.38786" lon="-0.37447">
        <ele>80.7</ele>
        <time>2013-02-13T09:31:19.900Z</time>
      </trkpt>
      <trkpt lat="47.38787" lon="-0.3745">
        <ele>80.6</ele>
        <time>2013-02-13T09:31:21.770Z</time>
      </trkpt>
      <trkpt lat="47.38788" lon="-0.37452">
        <ele>80.5</ele>
        <time>2013-02-13T09:31:22.770Z</time>
      </trkpt>
      <trkpt lat="47.38789" lon="-0.37454">
        <ele>80.4</ele>
        <time>2013-02-13T09:31:23.800Z</time>
      </trkpt>
      <trkpt lat="47.38791" lon="-0.37456">
        <ele>80.3</ele>
        <time>2013-02-13T09:31:24.780Z</time>
      </trkpt>
      <trkpt lat="47.3879" lon="-0.37458">
        <ele>80.3</ele>
        <time>2013-02-13T09:31:25.800Z</time>
      </trkpt>
      <trkpt lat="47.38789" lon="-0.37461">
        <ele>80.4</ele>
        <time>2013-02-13T09:31:26.800Z</time>
      </trkpt>
      <trkpt lat="47.38787" lon="-0.37462">
        <ele>80.5</ele>
        <time>2013-02-13T09:31:27.800Z</time>
      </trkpt>
      <trkpt lat="47.38785" lon="-0.37463">
        <ele>80.6</ele>
        <time>2013-02-13T09:31:28.780Z</time>
      </trkpt>
      <trkpt lat="47.38783" lon="-0.37463">
        <ele>80.7</ele>
        <time>2013-02-13T09:31:29.800Z</time>
      </trkpt>
      <trkpt lat="47.3878" lon="-0.37463">
        <ele>80.9</ele>
        <time>2013-02-13T09:31:30.890Z</time>
      </trkpt>
      <trkpt lat="47.38778" lon="-0.37463">
        <ele>81</ele>
        <time>2013-02-13T09:31:31.890Z</time>
      </trkpt>
      <trkpt lat="47.38775" lon="-0.37463">
        <ele>81.1</ele>
        <time>2013-02-13T09:31:32.890Z</time>
      </trkpt>
      <trkpt lat="47.38773" lon="-0.37463">
        <ele>81.1</ele>
        <time>2013-02-13T09:31:34.130Z</time>
      </trkpt>
      <trkpt lat="47.38767" lon="-0.37463">
        <ele>81.3</ele>
        <time>2013-02-13T09:31:35.890Z</time>
      </trkpt>
      <trkpt lat="47.38764" lon="-0.37463">
        <ele>81.3</ele>
        <time>2013-02-13T09:31:36.890Z</time>
      </trkpt>
      <trkpt lat="47.38762" lon="-0.37463">
        <ele>81.4</ele>
        <time>2013-02-13T09:31:37.890Z</time>
      </trkpt>
      <trkpt lat="47.3876" lon="-0.37462">
        <ele>81.4</ele>
        <time>2013-02-13T09:31:38.990Z</time>
      </trkpt>
      <trkpt lat="47.38755" lon="-0.37462">
        <ele>81.5</ele>
        <time>2013-02-13T09:31:40.790Z</time>
      </trkpt>
      <trkpt lat="47.38753" lon="-0.37462">
        <ele>81.6</ele>
        <time>2013-02-13T09:31:41.790Z</time>
      </trkpt>
      <trkpt lat="47.38751" lon="-0.37463">
        <ele>81.6</ele>
        <time>2013-02-13T09:31:42.790Z</time>
      </trkpt>
      <trkpt lat="47.38749" lon="-0.37463">
        <ele>81.7</ele>
        <time>2013-02-13T09:31:43.790Z</time>
      </trkpt>
      <trkpt lat="47.38746" lon="-0.37464">
        <ele>81.7</ele>
        <time>2013-02-13T09:31:44.800Z</time>
      </trkpt>
      <trkpt lat="47.38743" lon="-0.37465">
        <ele>81.7</ele>
        <time>2013-02-13T09:31:45.780Z</time>
      </trkpt>
      <trkpt lat="47.38741" lon="-0.37465">
        <ele>81.7</ele>
        <time>2013-02-13T09:31:46.890Z</time>
      </trkpt>
      <trkpt lat="47.38738" lon="-0.37465">
        <ele>81.7</ele>
        <time>2013-02-13T09:31:47.870Z</time>
      </trkpt>
      <trkpt lat="47.38733" lon="-0.37466">
        <ele>81.8</ele>
        <time>2013-02-13T09:31:49.890Z</time>
      </trkpt>
      <trkpt lat="47.38731" lon="-0.37466">
        <ele>81.8</ele>
        <time>2013-02-13T09:31:50.780Z</time>
      </trkpt>
      <trkpt lat="47.38728" lon="-0.37466">
        <ele>81.8</ele>
        <time>2013-02-13T09:31:51.890Z</time>
      </trkpt>
      <trkpt lat="47.38723" lon="-0.37466">
        <ele>81.8</ele>
        <time>2013-02-13T09:31:53.890Z</time>
      </trkpt>
      <trkpt lat="47.38721" lon="-0.37467">
        <ele>81.8</ele>
        <time>2013-02-13T09:31:54.890Z</time>
      </trkpt>
      <trkpt lat="47.38718" lon="-0.37467">
        <ele>81.8</ele>
        <time>2013-02-13T09:31:55.890Z</time>
      </trkpt>
      <trkpt lat="47.38716" lon="-0.37467">
        <ele>81.8</ele>
        <time>2013-02-13T09:31:56.840Z</time>
      </trkpt>
      <trkpt lat="47.38713" lon="-0.37468">
        <ele>81.8</ele>
        <time>2013-02-13T09:31:57.790Z</time>
      </trkpt>
      <trkpt lat="47.38711" lon="-0.37468">
        <ele>81.9</ele>
        <time>2013-02-13T09:31:58.790Z</time>
      </trkpt>
      <trkpt lat="47.38709" lon="-0.37469">
        <ele>81.9</ele>
        <time>2013-02-13T09:31:59.750Z</time>
      </trkpt>
      <trkpt lat="47.38707" lon="-0.37469">
        <ele>85.8</ele>
        <time>2013-02-13T09:32:00.790Z</time>
      </trkpt>
      <trkpt lat="47.38704" lon="-0.37469">
        <ele>81.9</ele>
        <time>2013-02-13T09:32:01.790Z</time>
      </trkpt>
      <trkpt lat="47.38702" lon="-0.37469">
        <ele>81.9</ele>
        <time>2013-02-13T09:32:02.770Z</time>
      </trkpt>
      <trkpt lat="47.387" lon="-0.3747">
        <ele>81.9</ele>
        <time>2013-02-13T09:32:03.790Z</time>
      </trkpt>
      <trkpt lat="47.38697" lon="-0.37471">
        <ele>81.9</ele>
        <time>2013-02-13T09:32:04.790Z</time>
      </trkpt>
      <trkpt lat="47.38695" lon="-0.37471">
        <ele>82</ele>
        <time>2013-02-13T09:32:05.830Z</time>
      </trkpt>
      <trkpt lat="47.38692" lon="-0.37472">
        <ele>81.9</ele>
        <time>2013-02-13T09:32:06.790Z</time>
      </trkpt>
      <trkpt lat="47.3869" lon="-0.37472">
        <ele>81.8</ele>
        <time>2013-02-13T09:32:07.790Z</time>
      </trkpt>
      <trkpt lat="47.38687" lon="-0.37472">
        <ele>81.7</ele>
        <time>2013-02-13T09:32:08.770Z</time>
      </trkpt>
      <trkpt lat="47.38685" lon="-0.37472">
        <ele>81.6</ele>
        <time>2013-02-13T09:32:09.790Z</time>
      </trkpt>
      <trkpt lat="47.38683" lon="-0.37472">
        <ele>81.6</ele>
        <time>2013-02-13T09:32:10.780Z</time>
      </trkpt>
      <trkpt lat="47.3868" lon="-0.37473">
        <ele>81.5</ele>
        <time>2013-02-13T09:32:11.880Z</time>
      </trkpt>
      <trkpt lat="47.38675" lon="-0.37472">
        <ele>81.3</ele>
        <time>2013-02-13T09:32:13.880Z</time>
      </trkpt>
      <trkpt lat="47.38672" lon="-0.37471">
        <ele>81.1</ele>
        <time>2013-02-13T09:32:14.880Z</time>
      </trkpt>
      <trkpt lat="47.3867" lon="-0.3747">
        <ele>81</ele>
        <time>2013-02-13T09:32:15.880Z</time>
      </trkpt>
      <trkpt lat="47.38667" lon="-0.37469">
        <ele>80.9</ele>
        <time>2013-02-13T09:32:16.860Z</time>
      </trkpt>
      <trkpt lat="47.38662" lon="-0.37469">
        <ele>80.7</ele>
        <time>2013-02-13T09:32:18.880Z</time>
      </trkpt>
      <trkpt lat="47.38656" lon="-0.37469">
        <ele>80.5</ele>
        <time>2013-02-13T09:32:20.880Z</time>
      </trkpt>
      <trkpt lat="47.38653" lon="-0.3747">
        <ele>80.4</ele>
        <time>2013-02-13T09:32:21.880Z</time>
      </trkpt>
      <trkpt lat="47.38651" lon="-0.3747">
        <ele>80.3</ele>
        <time>2013-02-13T09:32:22.880Z</time>
      </trkpt>
      <trkpt lat="47.38649" lon="-0.3747">
        <ele>80.3</ele>
        <time>2013-02-13T09:32:23.880Z</time>
      </trkpt>
      <trkpt lat="47.38646" lon="-0.3747">
        <ele>80.2</ele>
        <time>2013-02-13T09:32:24.880Z</time>
      </trkpt>
      <trkpt lat="47.38644" lon="-0.37471">
        <ele>80.1</ele>
        <time>2013-02-13T09:32:25.880Z</time>
      </trkpt>
      <trkpt lat="47.38642" lon="-0.37471">
        <ele>80.1</ele>
        <time>2013-02-13T09:32:26.880Z</time>
      </trkpt>
      <trkpt lat="47.38637" lon="-0.37472">
        <ele>79.8</ele>
        <time>2013-02-13T09:32:28.880Z</time>
      </trkpt>
      <trkpt lat="47.38631" lon="-0.37475">
        <ele>79.4</ele>
        <time>2013-02-13T09:32:30.880Z</time>
      </trkpt>
      <trkpt lat="47.38628" lon="-0.37476">
        <ele>79.2</ele>
        <time>2013-02-13T09:32:31.880Z</time>
      </trkpt>
      <trkpt lat="47.38626" lon="-0.37477">
        <ele>79</ele>
        <time>2013-02-13T09:32:32.880Z</time>
      </trkpt>
      <trkpt lat="47.38624" lon="-0.37476">
        <ele>78.9</ele>
        <time>2013-02-13T09:32:33.840Z</time>
      </trkpt>
      <trkpt lat="47.38622" lon="-0.37477">
        <ele>78.7</ele>
        <time>2013-02-13T09:32:34.850Z</time>
      </trkpt>
      <trkpt lat="47.3862" lon="-0.37477">
        <ele>78.6</ele>
        <time>2013-02-13T09:32:35.780Z</time>
      </trkpt>
      <trkpt lat="47.38618" lon="-0.37478">
        <ele>78.4</ele>
        <time>2013-02-13T09:32:36.760Z</time>
      </trkpt>
      <trkpt lat="47.38615" lon="-0.37478">
        <ele>78.3</ele>
        <time>2013-02-13T09:32:37.780Z</time>
      </trkpt>
      <trkpt lat="47.38613" lon="-0.37479">
        <ele>78.1</ele>
        <time>2013-02-13T09:32:38.780Z</time>
      </trkpt>
      <trkpt lat="47.3861" lon="-0.37478">
        <ele>78</ele>
        <time>2013-02-13T09:32:39.780Z</time>
      </trkpt>
      <trkpt lat="47.38607" lon="-0.37478">
        <ele>77.9</ele>
        <time>2013-02-13T09:32:40.780Z</time>
      </trkpt>
      <trkpt lat="47.38605" lon="-0.37478">
        <ele>77.8</ele>
        <time>2013-02-13T09:32:41.780Z</time>
      </trkpt>
      <trkpt lat="47.38602" lon="-0.37478">
        <ele>77.7</ele>
        <time>2013-02-13T09:32:42.780Z</time>
      </trkpt>
      <trkpt lat="47.386" lon="-0.37478">
        <ele>77.7</ele>
        <time>2013-02-13T09:32:43.780Z</time>
      </trkpt>
      <trkpt lat="47.38597" lon="-0.37479">
        <ele>77.6</ele>
        <time>2013-02-13T09:32:44.760Z</time>
      </trkpt>
      <trkpt lat="47.38595" lon="-0.37479">
        <ele>77.6</ele>
        <time>2013-02-13T09:32:45.780Z</time>
      </trkpt>
      <trkpt lat="47.38592" lon="-0.3748">
        <ele>77.5</ele>
        <time>2013-02-13T09:32:46.780Z</time>
      </trkpt>
      <trkpt lat="47.3859" lon="-0.3748">
        <ele>77.4</ele>
        <time>2013-02-13T09:32:47.780Z</time>
      </trkpt>
      <trkpt lat="47.38587" lon="-0.3748">
        <ele>77.4</ele>
        <time>2013-02-13T09:32:48.780Z</time>
      </trkpt>
      <trkpt lat="47.38585" lon="-0.37481">
        <ele>77.3</ele>
        <time>2013-02-13T09:32:49.820Z</time>
      </trkpt>
      <trkpt lat="47.38582" lon="-0.37481">
        <ele>77.3</ele>
        <time>2013-02-13T09:32:50.770Z</time>
      </trkpt>
      <trkpt lat="47.38579" lon="-0.37481">
        <ele>77.3</ele>
        <time>2013-02-13T09:32:51.870Z</time>
      </trkpt>
      <trkpt lat="47.38576" lon="-0.37481">
        <ele>77.2</ele>
        <time>2013-02-13T09:32:52.870Z</time>
      </trkpt>
      <trkpt lat="47.38573" lon="-0.37481">
        <ele>77.2</ele>
        <time>2013-02-13T09:32:53.860Z</time>
      </trkpt>
      <trkpt lat="47.38571" lon="-0.37481">
        <ele>77.2</ele>
        <time>2013-02-13T09:32:54.870Z</time>
      </trkpt>
      <trkpt lat="47.38568" lon="-0.37482">
        <ele>77.2</ele>
        <time>2013-02-13T09:32:55.860Z</time>
      </trkpt>
      <trkpt lat="47.38566" lon="-0.37482">
        <ele>77.1</ele>
        <time>2013-02-13T09:32:56.870Z</time>
      </trkpt>
      <trkpt lat="47.38563" lon="-0.37482">
        <ele>77.1</ele>
        <time>2013-02-13T09:32:57.870Z</time>
      </trkpt>
      <trkpt lat="47.38561" lon="-0.37482">
        <ele>77.1</ele>
        <time>2013-02-13T09:32:58.870Z</time>
      </trkpt>
      <trkpt lat="47.38558" lon="-0.37482">
        <ele>77</ele>
        <time>2013-02-13T09:32:59.860Z</time>
      </trkpt>
      <trkpt lat="47.38556" lon="-0.37483">
        <ele>79</ele>
        <time>2013-02-13T09:33:00.870Z</time>
      </trkpt>
      <trkpt lat="47.38553" lon="-0.37483">
        <ele>77</ele>
        <time>2013-02-13T09:33:01.850Z</time>
      </trkpt>
      <trkpt lat="47.38548" lon="-0.37484">
        <ele>77</ele>
        <time>2013-02-13T09:33:03.810Z</time>
      </trkpt>
      <trkpt lat="47.38545" lon="-0.37484">
        <ele>77</ele>
        <time>2013-02-13T09:33:04.760Z</time>
      </trkpt>
      <trkpt lat="47.38542" lon="-0.37485">
        <ele>77</ele>
        <time>2013-02-13T09:33:05.850Z</time>
      </trkpt>
      <trkpt lat="47.38538" lon="-0.37486">
        <ele>77</ele>
        <time>2013-02-13T09:33:07.770Z</time>
      </trkpt>
      <trkpt lat="47.38535" lon="-0.37486">
        <ele>77</ele>
        <time>2013-02-13T09:33:08.770Z</time>
      </trkpt>
      <trkpt lat="47.38532" lon="-0.37486">
        <ele>77</ele>
        <time>2013-02-13T09:33:09.770Z</time>
      </trkpt>
      <trkpt lat="47.3853" lon="-0.37486">
        <ele>77</ele>
        <time>2013-02-13T09:33:10.750Z</time>
      </trkpt>
      <trkpt lat="47.38527" lon="-0.37487">
        <ele>77</ele>
        <time>2013-02-13T09:33:11.770Z</time>
      </trkpt>
      <trkpt lat="47.38525" lon="-0.37487">
        <ele>77</ele>
        <time>2013-02-13T09:33:12.770Z</time>
      </trkpt>
      <trkpt lat="47.38522" lon="-0.37487">
        <ele>77</ele>
        <time>2013-02-13T09:33:13.770Z</time>
      </trkpt>
      <trkpt lat="47.3852" lon="-0.37488">
        <ele>77</ele>
        <time>2013-02-13T09:33:14.770Z</time>
      </trkpt>
      <trkpt lat="47.38517" lon="-0.37488">
        <ele>77</ele>
        <time>2013-02-13T09:33:15.770Z</time>
      </trkpt>
      <trkpt lat="47.38515" lon="-0.37488">
        <ele>77</ele>
        <time>2013-02-13T09:33:16.750Z</time>
      </trkpt>
      <trkpt lat="47.38513" lon="-0.37488">
        <ele>77</ele>
        <time>2013-02-13T09:33:17.810Z</time>
      </trkpt>
      <trkpt lat="47.3851" lon="-0.37488">
        <ele>77</ele>
        <time>2013-02-13T09:33:18.770Z</time>
      </trkpt>
      <trkpt lat="47.38508" lon="-0.37488">
        <ele>77</ele>
        <time>2013-02-13T09:33:19.770Z</time>
      </trkpt>
      <trkpt lat="47.38505" lon="-0.37489">
        <ele>77</ele>
        <time>2013-02-13T09:33:20.770Z</time>
      </trkpt>
      <trkpt lat="47.38503" lon="-0.37489">
        <ele>77</ele>
        <time>2013-02-13T09:33:21.770Z</time>
      </trkpt>
      <trkpt lat="47.385" lon="-0.37489">
        <ele>77</ele>
        <time>2013-02-13T09:33:22.780Z</time>
      </trkpt>
      <trkpt lat="47.38497" lon="-0.37489">
        <ele>77</ele>
        <time>2013-02-13T09:33:23.770Z</time>
      </trkpt>
      <trkpt lat="47.38495" lon="-0.37489">
        <ele>77</ele>
        <time>2013-02-13T09:33:24.770Z</time>
      </trkpt>
      <trkpt lat="47.38492" lon="-0.37489">
        <ele>77</ele>
        <time>2013-02-13T09:33:25.770Z</time>
      </trkpt>
      <trkpt lat="47.38489" lon="-0.37489">
        <ele>77</ele>
        <time>2013-02-13T09:33:26.770Z</time>
      </trkpt>
      <trkpt lat="47.38487" lon="-0.37489">
        <ele>77</ele>
        <time>2013-02-13T09:33:27.750Z</time>
      </trkpt>
      <trkpt lat="47.38484" lon="-0.37489">
        <ele>77</ele>
        <time>2013-02-13T09:33:28.750Z</time>
      </trkpt>
      <trkpt lat="47.38482" lon="-0.37489">
        <ele>77</ele>
        <time>2013-02-13T09:33:29.860Z</time>
      </trkpt>
      <trkpt lat="47.38477" lon="-0.37489">
        <ele>77</ele>
        <time>2013-02-13T09:33:31.770Z</time>
      </trkpt>
      <trkpt lat="47.38475" lon="-0.37489">
        <ele>77</ele>
        <time>2013-02-13T09:33:32.800Z</time>
      </trkpt>
      <trkpt lat="47.38472" lon="-0.3749">
        <ele>77</ele>
        <time>2013-02-13T09:33:33.790Z</time>
      </trkpt>
      <trkpt lat="47.3847" lon="-0.3749">
        <ele>77</ele>
        <time>2013-02-13T09:33:34.860Z</time>
      </trkpt>
      <trkpt lat="47.38465" lon="-0.37491">
        <ele>77.1</ele>
        <time>2013-02-13T09:33:36.670Z</time>
      </trkpt>
      <trkpt lat="47.38462" lon="-0.37491">
        <ele>77.1</ele>
        <time>2013-02-13T09:33:37.670Z</time>
      </trkpt>
      <trkpt lat="47.3846" lon="-0.37491">
        <ele>77.2</ele>
        <time>2013-02-13T09:33:38.860Z</time>
      </trkpt>
      <trkpt lat="47.38455" lon="-0.37491">
        <ele>77.2</ele>
        <time>2013-02-13T09:33:40.740Z</time>
      </trkpt>
      <trkpt lat="47.38453" lon="-0.37491">
        <ele>77.2</ele>
        <time>2013-02-13T09:33:41.760Z</time>
      </trkpt>
      <trkpt lat="47.38451" lon="-0.37491">
        <ele>77.3</ele>
        <time>2013-02-13T09:33:42.760Z</time>
      </trkpt>
      <trkpt lat="47.38448" lon="-0.37491">
        <ele>77.3</ele>
        <time>2013-02-13T09:33:43.770Z</time>
      </trkpt>
      <trkpt lat="47.38446" lon="-0.37491">
        <ele>77.3</ele>
        <time>2013-02-13T09:33:44.760Z</time>
      </trkpt>
      <trkpt lat="47.38442" lon="-0.37492">
        <ele>77.4</ele>
        <time>2013-02-13T09:33:46.670Z</time>
      </trkpt>
      <trkpt lat="47.38439" lon="-0.37492">
        <ele>77.4</ele>
        <time>2013-02-13T09:33:47.860Z</time>
      </trkpt>
      <trkpt lat="47.38437" lon="-0.37492">
        <ele>77.5</ele>
        <time>2013-02-13T09:33:48.860Z</time>
      </trkpt>
      <trkpt lat="47.38434" lon="-0.37492">
        <ele>77.5</ele>
        <time>2013-02-13T09:33:49.860Z</time>
      </trkpt>
      <trkpt lat="47.3843" lon="-0.37491">
        <ele>77.7</ele>
        <time>2013-02-13T09:33:51.770Z</time>
      </trkpt>
      <trkpt lat="47.38428" lon="-0.37491">
        <ele>77.7</ele>
        <time>2013-02-13T09:33:52.770Z</time>
      </trkpt>
      <trkpt lat="47.38425" lon="-0.37491">
        <ele>77.8</ele>
        <time>2013-02-13T09:33:53.760Z</time>
      </trkpt>
      <trkpt lat="47.38422" lon="-0.37491">
        <ele>77.9</ele>
        <time>2013-02-13T09:33:54.860Z</time>
      </trkpt>
      <trkpt lat="47.38417" lon="-0.37491">
        <ele>78</ele>
        <time>2013-02-13T09:33:56.670Z</time>
      </trkpt>
      <trkpt lat="47.38415" lon="-0.37491">
        <ele>78</ele>
        <time>2013-02-13T09:33:57.670Z</time>
      </trkpt>
      <trkpt lat="47.38413" lon="-0.37491">
        <ele>78</ele>
        <time>2013-02-13T09:33:58.670Z</time>
      </trkpt>
      <trkpt lat="47.38411" lon="-0.37492">
        <ele>78</ele>
        <time>2013-02-13T09:33:59.720Z</time>
      </trkpt>
      <trkpt lat="47.38408" lon="-0.37492">
        <ele>78</ele>
        <time>2013-02-13T09:34:00.760Z</time>
      </trkpt>
      <trkpt lat="47.38406" lon="-0.37492">
        <ele>78</ele>
        <time>2013-02-13T09:34:01.780Z</time>
      </trkpt>
      <trkpt lat="47.38404" lon="-0.37492">
        <ele>78</ele>
        <time>2013-02-13T09:34:02.760Z</time>
      </trkpt>
      <trkpt lat="47.38401" lon="-0.37492">
        <ele>78</ele>
        <time>2013-02-13T09:34:03.760Z</time>
      </trkpt>
      <trkpt lat="47.38399" lon="-0.37492">
        <ele>78</ele>
        <time>2013-02-13T09:34:04.760Z</time>
      </trkpt>
      <trkpt lat="47.38396" lon="-0.37492">
        <ele>78</ele>
        <time>2013-02-13T09:34:05.760Z</time>
      </trkpt>
      <trkpt lat="47.38394" lon="-0.37492">
        <ele>78</ele>
        <time>2013-02-13T09:34:06.760Z</time>
      </trkpt>
      <trkpt lat="47.38391" lon="-0.37493">
        <ele>78</ele>
        <time>2013-02-13T09:34:07.760Z</time>
      </trkpt>
      <trkpt lat="47.38389" lon="-0.37492">
        <ele>78</ele>
        <time>2013-02-13T09:34:08.760Z</time>
      </trkpt>
      <trkpt lat="47.38386" lon="-0.37493">
        <ele>78</ele>
        <time>2013-02-13T09:34:09.760Z</time>
      </trkpt>
      <trkpt lat="47.38384" lon="-0.37493">
        <ele>78</ele>
        <time>2013-02-13T09:34:10.760Z</time>
      </trkpt>
      <trkpt lat="47.38381" lon="-0.37493">
        <ele>78</ele>
        <time>2013-02-13T09:34:11.860Z</time>
      </trkpt>
      <trkpt lat="47.38376" lon="-0.37493">
        <ele>78</ele>
        <time>2013-02-13T09:34:13.850Z</time>
      </trkpt>
      <trkpt lat="47.38372" lon="-0.37494">
        <ele>78</ele>
        <time>2013-02-13T09:34:15.670Z</time>
      </trkpt>
      <trkpt lat="47.38369" lon="-0.37495">
        <ele>78</ele>
        <time>2013-02-13T09:34:16.680Z</time>
      </trkpt>
      <trkpt lat="47.38367" lon="-0.37495">
        <ele>78</ele>
        <time>2013-02-13T09:34:17.670Z</time>
      </trkpt>
      <trkpt lat="47.38365" lon="-0.37495">
        <ele>78</ele>
        <time>2013-02-13T09:34:18.680Z</time>
      </trkpt>
      <trkpt lat="47.38362" lon="-0.37495">
        <ele>78</ele>
        <time>2013-02-13T09:34:19.680Z</time>
      </trkpt>
      <trkpt lat="47.3836" lon="-0.37495">
        <ele>78</ele>
        <time>2013-02-13T09:34:20.670Z</time>
      </trkpt>
      <trkpt lat="47.38358" lon="-0.37495">
        <ele>78</ele>
        <time>2013-02-13T09:34:21.670Z</time>
      </trkpt>
      <trkpt lat="47.38355" lon="-0.37496">
        <ele>78</ele>
        <time>2013-02-13T09:34:22.670Z</time>
      </trkpt>
      <trkpt lat="47.38353" lon="-0.37496">
        <ele>78</ele>
        <time>2013-02-13T09:34:23.670Z</time>
      </trkpt>
      <trkpt lat="47.38351" lon="-0.37496">
        <ele>78</ele>
        <time>2013-02-13T09:34:24.670Z</time>
      </trkpt>
      <trkpt lat="47.38348" lon="-0.37496">
        <ele>78</ele>
        <time>2013-02-13T09:34:25.670Z</time>
      </trkpt>
      <trkpt lat="47.38346" lon="-0.37495">
        <ele>78</ele>
        <time>2013-02-13T09:34:26.670Z</time>
      </trkpt>
      <trkpt lat="47.38343" lon="-0.37495">
        <ele>78</ele>
        <time>2013-02-13T09:34:27.850Z</time>
      </trkpt>
      <trkpt lat="47.38341" lon="-0.37495">
        <ele>78</ele>
        <time>2013-02-13T09:34:28.890Z</time>
      </trkpt>
      <trkpt lat="47.38336" lon="-0.37496">
        <ele>78</ele>
        <time>2013-02-13T09:34:30.670Z</time>
      </trkpt>
      <trkpt lat="47.38334" lon="-0.37496">
        <ele>78</ele>
        <time>2013-02-13T09:34:31.670Z</time>
      </trkpt>
      <trkpt lat="47.38331" lon="-0.37496">
        <ele>78</ele>
        <time>2013-02-13T09:34:32.670Z</time>
      </trkpt>
      <trkpt lat="47.38329" lon="-0.37496">
        <ele>78</ele>
        <time>2013-02-13T09:34:33.680Z</time>
      </trkpt>
      <trkpt lat="47.38326" lon="-0.37496">
        <ele>78</ele>
        <time>2013-02-13T09:34:34.670Z</time>
      </trkpt>
      <trkpt lat="47.38324" lon="-0.37497">
        <ele>78</ele>
        <time>2013-02-13T09:34:35.680Z</time>
      </trkpt>
      <trkpt lat="47.38322" lon="-0.37497">
        <ele>78</ele>
        <time>2013-02-13T09:34:36.750Z</time>
      </trkpt>
      <trkpt lat="47.38318" lon="-0.37497">
        <ele>78</ele>
        <time>2013-02-13T09:34:38.750Z</time>
      </trkpt>
      <trkpt lat="47.38315" lon="-0.37497">
        <ele>78</ele>
        <time>2013-02-13T09:34:39.750Z</time>
      </trkpt>
      <trkpt lat="47.38313" lon="-0.37497">
        <ele>78</ele>
        <time>2013-02-13T09:34:40.770Z</time>
      </trkpt>
      <trkpt lat="47.38311" lon="-0.37497">
        <ele>78</ele>
        <time>2013-02-13T09:34:41.750Z</time>
      </trkpt>
      <trkpt lat="47.38309" lon="-0.37496">
        <ele>78</ele>
        <time>2013-02-13T09:34:42.790Z</time>
      </trkpt>
      <trkpt lat="47.38307" lon="-0.37494">
        <ele>78</ele>
        <time>2013-02-13T09:34:43.750Z</time>
      </trkpt>
      <trkpt lat="47.38305" lon="-0.37494">
        <ele>78</ele>
        <time>2013-02-13T09:34:44.780Z</time>
      </trkpt>
      <trkpt lat="47.38304" lon="-0.37494">
        <ele>78</ele>
        <time>2013-02-13T09:34:45.750Z</time>
      </trkpt>
      <trkpt lat="47.38303" lon="-0.37494">
        <ele>78</ele>
        <time>2013-02-13T09:34:46.750Z</time>
      </trkpt>
      <trkpt lat="47.38302" lon="-0.37494">
        <ele>78</ele>
        <time>2013-02-13T09:34:50.730Z</time>
      </trkpt>
      <trkpt lat="47.38302" lon="-0.37495">
        <ele>78.3</ele>
        <time>2013-02-13T09:35:00.760Z</time>
      </trkpt>
      <trkpt lat="47.38302" lon="-0.37493">
        <ele>78</ele>
        <time>2013-02-13T09:35:46.670Z</time>
      </trkpt>
      <trkpt lat="47.38302" lon="-0.37493">
        <ele>78.7</ele>
        <time>2013-02-13T09:36:00.700Z</time>
      </trkpt>
      <trkpt lat="47.38302" lon="-0.37493">
        <ele>78.6</ele>
        <time>2013-02-13T09:37:00.760Z</time>
      </trkpt>
      <trkpt lat="47.38302" lon="-0.37491">
        <ele>78</ele>
        <time>2013-02-13T09:37:35.750Z</time>
      </trkpt>
      <trkpt lat="47.38302" lon="-0.37489">
        <ele>78</ele>
        <time>2013-02-13T09:37:36.750Z</time>
      </trkpt>
      <trkpt lat="47.38301" lon="-0.37487">
        <ele>78</ele>
        <time>2013-02-13T09:37:37.800Z</time>
      </trkpt>
      <trkpt lat="47.38302" lon="-0.37483">
        <ele>78</ele>
        <time>2013-02-13T09:37:38.810Z</time>
      </trkpt>
      <trkpt lat="47.38302" lon="-0.3748">
        <ele>78</ele>
        <time>2013-02-13T09:37:39.810Z</time>
      </trkpt>
      <trkpt lat="47.38302" lon="-0.37476">
        <ele>78</ele>
        <time>2013-02-13T09:37:40.810Z</time>
      </trkpt>
      <trkpt lat="47.38302" lon="-0.37473">
        <ele>78</ele>
        <time>2013-02-13T09:37:41.910Z</time>
      </trkpt>
      <trkpt lat="47.38303" lon="-0.37465">
        <ele>78</ele>
        <time>2013-02-13T09:37:43.890Z</time>
      </trkpt>
      <trkpt lat="47.38304" lon="-0.37457">
        <ele>78</ele>
        <time>2013-02-13T09:37:45.880Z</time>
      </trkpt>
      <trkpt lat="47.38304" lon="-0.37454">
        <ele>78</ele>
        <time>2013-02-13T09:37:46.900Z</time>
      </trkpt>
      <trkpt lat="47.38305" lon="-0.37446">
        <ele>78</ele>
        <time>2013-02-13T09:37:48.810Z</time>
      </trkpt>
      <trkpt lat="47.38305" lon="-0.37442">
        <ele>78</ele>
        <time>2013-02-13T09:37:49.890Z</time>
      </trkpt>
      <trkpt lat="47.38305" lon="-0.37437">
        <ele>78</ele>
        <time>2013-02-13T09:37:50.830Z</time>
      </trkpt>
      <trkpt lat="47.38306" lon="-0.37429">
        <ele>78</ele>
        <time>2013-02-13T09:37:52.900Z</time>
      </trkpt>
      <trkpt lat="47.38306" lon="-0.37426">
        <ele>78</ele>
        <time>2013-02-13T09:37:53.890Z</time>
      </trkpt>
      <trkpt lat="47.38306" lon="-0.37422">
        <ele>78</ele>
        <time>2013-02-13T09:37:54.900Z</time>
      </trkpt>
      <trkpt lat="47.38307" lon="-0.37414">
        <ele>78.1</ele>
        <time>2013-02-13T09:37:56.910Z</time>
      </trkpt>
      <trkpt lat="47.38307" lon="-0.37407">
        <ele>78.4</ele>
        <time>2013-02-13T09:37:58.900Z</time>
      </trkpt>
      <trkpt lat="47.38308" lon="-0.374">
        <ele>78.3</ele>
        <time>2013-02-13T09:38:00.900Z</time>
      </trkpt>
      <trkpt lat="47.38308" lon="-0.37392">
        <ele>78.9</ele>
        <time>2013-02-13T09:38:02.900Z</time>
      </trkpt>
      <trkpt lat="47.38309" lon="-0.37385">
        <ele>79</ele>
        <time>2013-02-13T09:38:04.900Z</time>
      </trkpt>
      <trkpt lat="47.38309" lon="-0.37377">
        <ele>79</ele>
        <time>2013-02-13T09:38:06.900Z</time>
      </trkpt>
      <trkpt lat="47.38309" lon="-0.37369">
        <ele>79</ele>
        <time>2013-02-13T09:38:08.900Z</time>
      </trkpt>
      <trkpt lat="47.3831" lon="-0.37361">
        <ele>79</ele>
        <time>2013-02-13T09:38:10.900Z</time>
      </trkpt>
      <trkpt lat="47.3831" lon="-0.37354">
        <ele>79</ele>
        <time>2013-02-13T09:38:12.900Z</time>
      </trkpt>
      <trkpt lat="47.3831" lon="-0.3735">
        <ele>79</ele>
        <time>2013-02-13T09:38:13.900Z</time>
      </trkpt>
      <trkpt lat="47.3831" lon="-0.37346">
        <ele>79</ele>
        <time>2013-02-13T09:38:14.900Z</time>
      </trkpt>
      <trkpt lat="47.3831" lon="-0.37339">
        <ele>79</ele>
        <time>2013-02-13T09:38:16.830Z</time>
      </trkpt>
      <trkpt lat="47.3831" lon="-0.37335">
        <ele>79</ele>
        <time>2013-02-13T09:38:17.900Z</time>
      </trkpt>
      <trkpt lat="47.38311" lon="-0.37327">
        <ele>79.2</ele>
        <time>2013-02-13T09:38:19.800Z</time>
      </trkpt>
      <trkpt lat="47.38311" lon="-0.37324">
        <ele>79.4</ele>
        <time>2013-02-13T09:38:20.900Z</time>
      </trkpt>
      <trkpt lat="47.38311" lon="-0.37316">
        <ele>79.6</ele>
        <time>2013-02-13T09:38:22.890Z</time>
      </trkpt>
      <trkpt lat="47.38311" lon="-0.37308">
        <ele>79.9</ele>
        <time>2013-02-13T09:38:24.890Z</time>
      </trkpt>
      <trkpt lat="47.38311" lon="-0.37304">
        <ele>80.1</ele>
        <time>2013-02-13T09:38:25.890Z</time>
      </trkpt>
      <trkpt lat="47.38312" lon="-0.37296">
        <ele>80.3</ele>
        <time>2013-02-13T09:38:27.890Z</time>
      </trkpt>
      <trkpt lat="47.38312" lon="-0.37288">
        <ele>80.5</ele>
        <time>2013-02-13T09:38:29.890Z</time>
      </trkpt>
      <trkpt lat="47.38312" lon="-0.3728">
        <ele>80.7</ele>
        <time>2013-02-13T09:38:31.890Z</time>
      </trkpt>
      <trkpt lat="47.38309" lon="-0.37274">
        <ele>81</ele>
        <time>2013-02-13T09:38:33.720Z</time>
      </trkpt>
      <trkpt lat="47.38307" lon="-0.37273">
        <ele>81.1</ele>
        <time>2013-02-13T09:38:34.810Z</time>
      </trkpt>
      <trkpt lat="47.38304" lon="-0.37271">
        <ele>81.2</ele>
        <time>2013-02-13T09:38:35.890Z</time>
      </trkpt>
      <trkpt lat="47.38298" lon="-0.37271">
        <ele>81.3</ele>
        <time>2013-02-13T09:38:37.890Z</time>
      </trkpt>
      <trkpt lat="47.38292" lon="-0.3727">
        <ele>81.3</ele>
        <time>2013-02-13T09:38:39.890Z</time>
      </trkpt>
      <trkpt lat="47.38286" lon="-0.37271">
        <ele>81.2</ele>
        <time>2013-02-13T09:38:41.890Z</time>
      </trkpt>
      <trkpt lat="47.38283" lon="-0.37271">
        <ele>81.2</ele>
        <time>2013-02-13T09:38:42.900Z</time>
      </trkpt>
      <trkpt lat="47.38277" lon="-0.37271">
        <ele>81.2</ele>
        <time>2013-02-13T09:38:44.810Z</time>
      </trkpt>
      <trkpt lat="47.38275" lon="-0.37271">
        <ele>81.2</ele>
        <time>2013-02-13T09:38:45.890Z</time>
      </trkpt>
      <trkpt lat="47.38271" lon="-0.37271">
        <ele>81.2</ele>
        <time>2013-02-13T09:38:47.830Z</time>
      </trkpt>
      <trkpt lat="47.38268" lon="-0.37271">
        <ele>81.2</ele>
        <time>2013-02-13T09:38:48.890Z</time>
      </trkpt>
      <trkpt lat="47.38262" lon="-0.37271">
        <ele>81.1</ele>
        <time>2013-02-13T09:38:51.010Z</time>
      </trkpt>
      <trkpt lat="47.38256" lon="-0.37269">
        <ele>81.1</ele>
        <time>2013-02-13T09:38:52.800Z</time>
      </trkpt>
      <trkpt lat="47.38253" lon="-0.37269">
        <ele>81</ele>
        <time>2013-02-13T09:38:53.890Z</time>
      </trkpt>
      <trkpt lat="47.38251" lon="-0.3727">
        <ele>81</ele>
        <time>2013-02-13T09:38:54.890Z</time>
      </trkpt>
      <trkpt lat="47.38246" lon="-0.3727">
        <ele>81</ele>
        <time>2013-02-13T09:38:56.810Z</time>
      </trkpt>
      <trkpt lat="47.38243" lon="-0.37269">
        <ele>81</ele>
        <time>2013-02-13T09:38:57.890Z</time>
      </trkpt>
      <trkpt lat="47.38238" lon="-0.37269">
        <ele>81</ele>
        <time>2013-02-13T09:38:59.840Z</time>
      </trkpt>
      <trkpt lat="47.38236" lon="-0.37269">
        <ele>80.8</ele>
        <time>2013-02-13T09:39:00.880Z</time>
      </trkpt>
      <trkpt lat="47.38233" lon="-0.37269">
        <ele>81</ele>
        <time>2013-02-13T09:39:01.810Z</time>
      </trkpt>
      <trkpt lat="47.38231" lon="-0.37269">
        <ele>81</ele>
        <time>2013-02-13T09:39:02.890Z</time>
      </trkpt>
      <trkpt lat="47.38226" lon="-0.37268">
        <ele>81</ele>
        <time>2013-02-13T09:39:04.890Z</time>
      </trkpt>
      <trkpt lat="47.3822" lon="-0.37267">
        <ele>81</ele>
        <time>2013-02-13T09:39:06.810Z</time>
      </trkpt>
      <trkpt lat="47.38215" lon="-0.37268">
        <ele>81</ele>
        <time>2013-02-13T09:39:08.810Z</time>
      </trkpt>
      <trkpt lat="47.38213" lon="-0.37267">
        <ele>81</ele>
        <time>2013-02-13T09:39:09.880Z</time>
      </trkpt>
      <trkpt lat="47.38208" lon="-0.37267">
        <ele>81</ele>
        <time>2013-02-13T09:39:11.880Z</time>
      </trkpt>
      <trkpt lat="47.38204" lon="-0.37267">
        <ele>81</ele>
        <time>2013-02-13T09:39:13.880Z</time>
      </trkpt>
      <trkpt lat="47.38202" lon="-0.37267">
        <ele>81</ele>
        <time>2013-02-13T09:39:14.880Z</time>
      </trkpt>
      <trkpt lat="47.38199" lon="-0.37267">
        <ele>81</ele>
        <time>2013-02-13T09:39:15.880Z</time>
      </trkpt>
      <trkpt lat="47.38194" lon="-0.37266">
        <ele>81</ele>
        <time>2013-02-13T09:39:17.800Z</time>
      </trkpt>
      <trkpt lat="47.38191" lon="-0.37266">
        <ele>80.9</ele>
        <time>2013-02-13T09:39:18.800Z</time>
      </trkpt>
      <trkpt lat="47.38186" lon="-0.37266">
        <ele>80.8</ele>
        <time>2013-02-13T09:39:20.880Z</time>
      </trkpt>
      <trkpt lat="47.3818" lon="-0.37266">
        <ele>80.7</ele>
        <time>2013-02-13T09:39:22.980Z</time>
      </trkpt>
      <trkpt lat="47.38175" lon="-0.37266">
        <ele>80.6</ele>
        <time>2013-02-13T09:39:24.690Z</time>
      </trkpt>
      <trkpt lat="47.38172" lon="-0.37266">
        <ele>80.5</ele>
        <time>2013-02-13T09:39:25.810Z</time>
      </trkpt>
      <trkpt lat="47.3817" lon="-0.37266">
        <ele>80.5</ele>
        <time>2013-02-13T09:39:26.880Z</time>
      </trkpt>
      <trkpt lat="47.38164" lon="-0.37267">
        <ele>80.5</ele>
        <time>2013-02-13T09:39:28.820Z</time>
      </trkpt>
      <trkpt lat="47.38162" lon="-0.37267">
        <ele>80.5</ele>
        <time>2013-02-13T09:39:29.880Z</time>
      </trkpt>
      <trkpt lat="47.38158" lon="-0.37268">
        <ele>80.6</ele>
        <time>2013-02-13T09:39:31.880Z</time>
      </trkpt>
      <trkpt lat="47.38155" lon="-0.37268">
        <ele>80.6</ele>
        <time>2013-02-13T09:39:32.820Z</time>
      </trkpt>
      <trkpt lat="47.38153" lon="-0.37268">
        <ele>80.7</ele>
        <time>2013-02-13T09:39:33.820Z</time>
      </trkpt>
      <trkpt lat="47.3815" lon="-0.37268">
        <ele>80.7</ele>
        <time>2013-02-13T09:39:34.810Z</time>
      </trkpt>
      <trkpt lat="47.38148" lon="-0.37268">
        <ele>80.8</ele>
        <time>2013-02-13T09:39:35.880Z</time>
      </trkpt>
      <trkpt lat="47.38144" lon="-0.37268">
        <ele>80.9</ele>
        <time>2013-02-13T09:39:37.880Z</time>
      </trkpt>
      <trkpt lat="47.38139" lon="-0.37268">
        <ele>81</ele>
        <time>2013-02-13T09:39:40.200Z</time>
      </trkpt>
      <trkpt lat="47.38133" lon="-0.37268">
        <ele>81</ele>
        <time>2013-02-13T09:39:41.760Z</time>
      </trkpt>
      <trkpt lat="47.38131" lon="-0.37268">
        <ele>81</ele>
        <time>2013-02-13T09:39:42.820Z</time>
      </trkpt>
      <trkpt lat="47.38128" lon="-0.37268">
        <ele>81</ele>
        <time>2013-02-13T09:39:43.780Z</time>
      </trkpt>
      <trkpt lat="47.38125" lon="-0.37267">
        <ele>81</ele>
        <time>2013-02-13T09:39:45.240Z</time>
      </trkpt>
      <trkpt lat="47.3812" lon="-0.37266">
        <ele>81</ele>
        <time>2013-02-13T09:39:46.680Z</time>
      </trkpt>
      <trkpt lat="47.38118" lon="-0.37266">
        <ele>81</ele>
        <time>2013-02-13T09:39:47.680Z</time>
      </trkpt>
      <trkpt lat="47.38116" lon="-0.37266">
        <ele>81</ele>
        <time>2013-02-13T09:39:48.800Z</time>
      </trkpt>
      <trkpt lat="47.38114" lon="-0.37266">
        <ele>81</ele>
        <time>2013-02-13T09:39:49.800Z</time>
      </trkpt>
      <trkpt lat="47.38111" lon="-0.37265">
        <ele>81</ele>
        <time>2013-02-13T09:39:50.810Z</time>
      </trkpt>
      <trkpt lat="47.38109" lon="-0.37265">
        <ele>81</ele>
        <time>2013-02-13T09:39:51.890Z</time>
      </trkpt>
      <trkpt lat="47.38103" lon="-0.37263">
        <ele>81.1</ele>
        <time>2013-02-13T09:39:53.680Z</time>
      </trkpt>
      <trkpt lat="47.38101" lon="-0.37263">
        <ele>81.2</ele>
        <time>2013-02-13T09:39:54.680Z</time>
      </trkpt>
      <trkpt lat="47.38098" lon="-0.37263">
        <ele>81.2</ele>
        <time>2013-02-13T09:39:55.680Z</time>
      </trkpt>
      <trkpt lat="47.38096" lon="-0.37263">
        <ele>81.3</ele>
        <time>2013-02-13T09:39:56.840Z</time>
      </trkpt>
      <trkpt lat="47.38094" lon="-0.37263">
        <ele>81.3</ele>
        <time>2013-02-13T09:39:57.810Z</time>
      </trkpt>
      <trkpt lat="47.38091" lon="-0.37263">
        <ele>81.3</ele>
        <time>2013-02-13T09:39:58.820Z</time>
      </trkpt>
      <trkpt lat="47.38089" lon="-0.37262">
        <ele>81.4</ele>
        <time>2013-02-13T09:39:59.840Z</time>
      </trkpt>
      <trkpt lat="47.38086" lon="-0.37261">
        <ele>81.8</ele>
        <time>2013-02-13T09:40:00.890Z</time>
      </trkpt>
      <trkpt lat="47.38082" lon="-0.37259">
        <ele>81.4</ele>
        <time>2013-02-13T09:40:02.680Z</time>
      </trkpt>
      <trkpt lat="47.3808" lon="-0.37259">
        <ele>81.4</ele>
        <time>2013-02-13T09:40:03.680Z</time>
      </trkpt>
      <trkpt lat="47.38078" lon="-0.37258">
        <ele>81.4</ele>
        <time>2013-02-13T09:40:04.680Z</time>
      </trkpt>
      <trkpt lat="47.38075" lon="-0.37257">
        <ele>81.5</ele>
        <time>2013-02-13T09:40:05.680Z</time>
      </trkpt>
      <trkpt lat="47.38072" lon="-0.37256">
        <ele>81.5</ele>
        <time>2013-02-13T09:40:06.820Z</time>
      </trkpt>
      <trkpt lat="47.3807" lon="-0.37255">
        <ele>81.6</ele>
        <time>2013-02-13T09:40:07.810Z</time>
      </trkpt>
      <trkpt lat="47.38068" lon="-0.37254">
        <ele>81.6</ele>
        <time>2013-02-13T09:40:08.820Z</time>
      </trkpt>
      <trkpt lat="47.38065" lon="-0.37253">
        <ele>81.7</ele>
        <time>2013-02-13T09:40:09.890Z</time>
      </trkpt>
      <trkpt lat="47.3806" lon="-0.37252">
        <ele>81.8</ele>
        <time>2013-02-13T09:40:11.680Z</time>
      </trkpt>
      <trkpt lat="47.38058" lon="-0.37251">
        <ele>81.9</ele>
        <time>2013-02-13T09:40:12.680Z</time>
      </trkpt>
      <trkpt lat="47.38056" lon="-0.3725">
        <ele>82</ele>
        <time>2013-02-13T09:40:13.680Z</time>
      </trkpt>
      <trkpt lat="47.38054" lon="-0.37249">
        <ele>82</ele>
        <time>2013-02-13T09:40:14.680Z</time>
      </trkpt>
      <trkpt lat="47.38051" lon="-0.37248">
        <ele>81.9</ele>
        <time>2013-02-13T09:40:15.680Z</time>
      </trkpt>
      <trkpt lat="47.38049" lon="-0.37248">
        <ele>81.9</ele>
        <time>2013-02-13T09:40:16.810Z</time>
      </trkpt>
      <trkpt lat="47.38046" lon="-0.37247">
        <ele>81.9</ele>
        <time>2013-02-13T09:40:17.800Z</time>
      </trkpt>
      <trkpt lat="47.38044" lon="-0.37247">
        <ele>81.9</ele>
        <time>2013-02-13T09:40:18.800Z</time>
      </trkpt>
      <trkpt lat="47.38039" lon="-0.37245">
        <ele>81.9</ele>
        <time>2013-02-13T09:40:20.680Z</time>
      </trkpt>
      <trkpt lat="47.38036" lon="-0.37244">
        <ele>81.9</ele>
        <time>2013-02-13T09:40:21.680Z</time>
      </trkpt>
      <trkpt lat="47.38034" lon="-0.37243">
        <ele>81.9</ele>
        <time>2013-02-13T09:40:22.680Z</time>
      </trkpt>
      <trkpt lat="47.38032" lon="-0.37243">
        <ele>82</ele>
        <time>2013-02-13T09:40:23.800Z</time>
      </trkpt>
      <trkpt lat="47.38026" lon="-0.37241">
        <ele>82</ele>
        <time>2013-02-13T09:40:25.810Z</time>
      </trkpt>
      <trkpt lat="47.38024" lon="-0.3724">
        <ele>82</ele>
        <time>2013-02-13T09:40:26.810Z</time>
      </trkpt>
      <trkpt lat="47.38021" lon="-0.37238">
        <ele>82</ele>
        <time>2013-02-13T09:40:27.810Z</time>
      </trkpt>
      <trkpt lat="47.38016" lon="-0.37237">
        <ele>82</ele>
        <time>2013-02-13T09:40:29.680Z</time>
      </trkpt>
      <trkpt lat="47.38014" lon="-0.37236">
        <ele>82</ele>
        <time>2013-02-13T09:40:30.680Z</time>
      </trkpt>
      <trkpt lat="47.38011" lon="-0.37236">
        <ele>82</ele>
        <time>2013-02-13T09:40:31.680Z</time>
      </trkpt>
      <trkpt lat="47.38009" lon="-0.37235">
        <ele>82</ele>
        <time>2013-02-13T09:40:32.680Z</time>
      </trkpt>
      <trkpt lat="47.38006" lon="-0.37235">
        <ele>82</ele>
        <time>2013-02-13T09:40:33.830Z</time>
      </trkpt>
      <trkpt lat="47.38001" lon="-0.37237">
        <ele>82</ele>
        <time>2013-02-13T09:40:35.680Z</time>
      </trkpt>
      <trkpt lat="47.37999" lon="-0.37239">
        <ele>82</ele>
        <time>2013-02-13T09:40:36.680Z</time>
      </trkpt>
      <trkpt lat="47.37997" lon="-0.37241">
        <ele>82</ele>
        <time>2013-02-13T09:40:37.680Z</time>
      </trkpt>
      <trkpt lat="47.37996" lon="-0.37244">
        <ele>82</ele>
        <time>2013-02-13T09:40:38.810Z</time>
      </trkpt>
      <trkpt lat="47.37994" lon="-0.37248">
        <ele>82</ele>
        <time>2013-02-13T09:40:39.890Z</time>
      </trkpt>
      <trkpt lat="47.37993" lon="-0.37256">
        <ele>82</ele>
        <time>2013-02-13T09:40:41.680Z</time>
      </trkpt>
      <trkpt lat="47.37994" lon="-0.3726">
        <ele>82</ele>
        <time>2013-02-13T09:40:42.680Z</time>
      </trkpt>
      <trkpt lat="47.37994" lon="-0.37264">
        <ele>82</ele>
        <time>2013-02-13T09:40:43.680Z</time>
      </trkpt>
      <trkpt lat="47.37994" lon="-0.37268">
        <ele>82</ele>
        <time>2013-02-13T09:40:44.680Z</time>
      </trkpt>
      <trkpt lat="47.37994" lon="-0.37272">
        <ele>82</ele>
        <time>2013-02-13T09:40:45.680Z</time>
      </trkpt>
      <trkpt lat="47.37995" lon="-0.37275">
        <ele>82</ele>
        <time>2013-02-13T09:40:46.800Z</time>
      </trkpt>
      <trkpt lat="47.37995" lon="-0.37279">
        <ele>82</ele>
        <time>2013-02-13T09:40:47.800Z</time>
      </trkpt>
      <trkpt lat="47.37995" lon="-0.37283">
        <ele>82.2</ele>
        <time>2013-02-13T09:40:48.800Z</time>
      </trkpt>
      <trkpt lat="47.37996" lon="-0.37286">
        <ele>82.3</ele>
        <time>2013-02-13T09:40:49.890Z</time>
      </trkpt>
      <trkpt lat="47.37997" lon="-0.37293">
        <ele>82.5</ele>
        <time>2013-02-13T09:40:51.800Z</time>
      </trkpt>
      <trkpt lat="47.37997" lon="-0.37297">
        <ele>82.6</ele>
        <time>2013-02-13T09:40:52.800Z</time>
      </trkpt>
      <trkpt lat="47.37998" lon="-0.37305">
        <ele>82.9</ele>
        <time>2013-02-13T09:40:54.680Z</time>
      </trkpt>
      <trkpt lat="47.37999" lon="-0.37309">
        <ele>83</ele>
        <time>2013-02-13T09:40:55.680Z</time>
      </trkpt>
      <trkpt lat="47.37999" lon="-0.37312">
        <ele>83</ele>
        <time>2013-02-13T09:40:56.680Z</time>
      </trkpt>
      <trkpt lat="47.37999" lon="-0.37316">
        <ele>83</ele>
        <time>2013-02-13T09:40:57.680Z</time>
      </trkpt>
      <trkpt lat="47.38" lon="-0.3732">
        <ele>83</ele>
        <time>2013-02-13T09:40:58.680Z</time>
      </trkpt>
      <trkpt lat="47.38" lon="-0.37324">
        <ele>83</ele>
        <time>2013-02-13T09:40:59.920Z</time>
      </trkpt>
      <trkpt lat="47.38001" lon="-0.37331">
        <ele>81.4</ele>
        <time>2013-02-13T09:41:01.670Z</time>
      </trkpt>
      <trkpt lat="47.38002" lon="-0.37334">
        <ele>83.1</ele>
        <time>2013-02-13T09:41:02.830Z</time>
      </trkpt>
      <trkpt lat="47.38002" lon="-0.37338">
        <ele>83.2</ele>
        <time>2013-02-13T09:41:03.890Z</time>
      </trkpt>
      <trkpt lat="47.38002" lon="-0.37346">
        <ele>83.5</ele>
        <time>2013-02-13T09:41:05.810Z</time>
      </trkpt>
      <trkpt lat="47.38003" lon="-0.3735">
        <ele>83.6</ele>
        <time>2013-02-13T09:41:06.820Z</time>
      </trkpt>
      <trkpt lat="47.38003" lon="-0.37353">
        <ele>83.8</ele>
        <time>2013-02-13T09:41:07.900Z</time>
      </trkpt>
      <trkpt lat="47.38004" lon="-0.37362">
        <ele>84</ele>
        <time>2013-02-13T09:41:09.680Z</time>
      </trkpt>
      <trkpt lat="47.38005" lon="-0.37366">
        <ele>84</ele>
        <time>2013-02-13T09:41:10.680Z</time>
      </trkpt>
      <trkpt lat="47.38005" lon="-0.3737">
        <ele>84</ele>
        <time>2013-02-13T09:41:11.680Z</time>
      </trkpt>
      <trkpt lat="47.38005" lon="-0.37373">
        <ele>84</ele>
        <time>2013-02-13T09:41:12.680Z</time>
      </trkpt>
      <trkpt lat="47.38006" lon="-0.37376">
        <ele>84</ele>
        <time>2013-02-13T09:41:13.800Z</time>
      </trkpt>
      <trkpt lat="47.38006" lon="-0.37379">
        <ele>84</ele>
        <time>2013-02-13T09:41:14.800Z</time>
      </trkpt>
      <trkpt lat="47.38007" lon="-0.37383">
        <ele>84</ele>
        <time>2013-02-13T09:41:15.800Z</time>
      </trkpt>
      <trkpt lat="47.38007" lon="-0.37386">
        <ele>84</ele>
        <time>2013-02-13T09:41:16.810Z</time>
      </trkpt>
      <trkpt lat="47.38008" lon="-0.37394">
        <ele>83.9</ele>
        <time>2013-02-13T09:41:18.680Z</time>
      </trkpt>
      <trkpt lat="47.38008" lon="-0.37398">
        <ele>83.9</ele>
        <time>2013-02-13T09:41:19.800Z</time>
      </trkpt>
      <trkpt lat="47.38008" lon="-0.37402">
        <ele>83.9</ele>
        <time>2013-02-13T09:41:20.800Z</time>
      </trkpt>
      <trkpt lat="47.38009" lon="-0.37405">
        <ele>83.8</ele>
        <time>2013-02-13T09:41:21.890Z</time>
      </trkpt>
      <trkpt lat="47.38009" lon="-0.37413">
        <ele>83.7</ele>
        <time>2013-02-13T09:41:23.680Z</time>
      </trkpt>
      <trkpt lat="47.3801" lon="-0.37417">
        <ele>83.7</ele>
        <time>2013-02-13T09:41:24.680Z</time>
      </trkpt>
      <trkpt lat="47.3801" lon="-0.37421">
        <ele>83.6</ele>
        <time>2013-02-13T09:41:25.820Z</time>
      </trkpt>
      <trkpt lat="47.38011" lon="-0.37431">
        <ele>83.6</ele>
        <time>2013-02-13T09:41:27.680Z</time>
      </trkpt>
      <trkpt lat="47.38011" lon="-0.37435">
        <ele>83.6</ele>
        <time>2013-02-13T09:41:28.810Z</time>
      </trkpt>
      <trkpt lat="47.3801" lon="-0.37439">
        <ele>83.6</ele>
        <time>2013-02-13T09:41:29.810Z</time>
      </trkpt>
      <trkpt lat="47.3801" lon="-0.37443">
        <ele>83.6</ele>
        <time>2013-02-13T09:41:30.890Z</time>
      </trkpt>
      <trkpt lat="47.38011" lon="-0.3745">
        <ele>83.6</ele>
        <time>2013-02-13T09:41:32.810Z</time>
      </trkpt>
      <trkpt lat="47.38011" lon="-0.37454">
        <ele>83.6</ele>
        <time>2013-02-13T09:41:33.820Z</time>
      </trkpt>
      <trkpt lat="47.38011" lon="-0.37458">
        <ele>83.6</ele>
        <time>2013-02-13T09:41:34.890Z</time>
      </trkpt>
      <trkpt lat="47.38012" lon="-0.37465">
        <ele>83.6</ele>
        <time>2013-02-13T09:41:36.810Z</time>
      </trkpt>
      <trkpt lat="47.38012" lon="-0.37468">
        <ele>83.6</ele>
        <time>2013-02-13T09:41:37.810Z</time>
      </trkpt>
      <trkpt lat="47.38012" lon="-0.37476">
        <ele>83.4</ele>
        <time>2013-02-13T09:41:39.680Z</time>
      </trkpt>
      <trkpt lat="47.38013" lon="-0.37479">
        <ele>83.3</ele>
        <time>2013-02-13T09:41:40.680Z</time>
      </trkpt>
      <trkpt lat="47.38013" lon="-0.37483">
        <ele>83.1</ele>
        <time>2013-02-13T09:41:41.810Z</time>
      </trkpt>
      <trkpt lat="47.38014" lon="-0.37486">
        <ele>83</ele>
        <time>2013-02-13T09:41:42.810Z</time>
      </trkpt>
      <trkpt lat="47.38015" lon="-0.37493">
        <ele>82.7</ele>
        <time>2013-02-13T09:41:44.680Z</time>
      </trkpt>
      <trkpt lat="47.38015" lon="-0.37496">
        <ele>82.6</ele>
        <time>2013-02-13T09:41:45.810Z</time>
      </trkpt>
      <trkpt lat="47.38016" lon="-0.37499">
        <ele>82.5</ele>
        <time>2013-02-13T09:41:46.870Z</time>
      </trkpt>
      <trkpt lat="47.38016" lon="-0.37506">
        <ele>82.4</ele>
        <time>2013-02-13T09:41:48.830Z</time>
      </trkpt>
      <trkpt lat="47.38016" lon="-0.3751">
        <ele>82.4</ele>
        <time>2013-02-13T09:41:49.810Z</time>
      </trkpt>
      <trkpt lat="47.38017" lon="-0.37514">
        <ele>82.4</ele>
        <time>2013-02-13T09:41:50.840Z</time>
      </trkpt>
      <trkpt lat="47.38018" lon="-0.37522">
        <ele>82.3</ele>
        <time>2013-02-13T09:41:52.810Z</time>
      </trkpt>
      <trkpt lat="47.38019" lon="-0.37526">
        <ele>82.3</ele>
        <time>2013-02-13T09:41:53.810Z</time>
      </trkpt>
      <trkpt lat="47.38019" lon="-0.3753">
        <ele>82.3</ele>
        <time>2013-02-13T09:41:54.800Z</time>
      </trkpt>
      <trkpt lat="47.3802" lon="-0.37534">
        <ele>82.2</ele>
        <time>2013-02-13T09:41:56.010Z</time>
      </trkpt>
      <trkpt lat="47.3802" lon="-0.37543">
        <ele>82.1</ele>
        <time>2013-02-13T09:41:57.730Z</time>
      </trkpt>
      <trkpt lat="47.38021" lon="-0.37547">
        <ele>82.1</ele>
        <time>2013-02-13T09:41:58.860Z</time>
      </trkpt>
      <trkpt lat="47.38021" lon="-0.37555">
        <ele>80</ele>
        <time>2013-02-13T09:42:00.780Z</time>
      </trkpt>
      <trkpt lat="47.38022" lon="-0.37559">
        <ele>82</ele>
        <time>2013-02-13T09:42:01.780Z</time>
      </trkpt>
      <trkpt lat="47.38022" lon="-0.37564">
        <ele>82</ele>
        <time>2013-02-13T09:42:02.790Z</time>
      </trkpt>
      <trkpt lat="47.38023" lon="-0.37568">
        <ele>82</ele>
        <time>2013-02-13T09:42:03.780Z</time>
      </trkpt>
      <trkpt lat="47.38023" lon="-0.37571">
        <ele>82</ele>
        <time>2013-02-13T09:42:04.780Z</time>
      </trkpt>
      <trkpt lat="47.38023" lon="-0.37575">
        <ele>82</ele>
        <time>2013-02-13T09:42:05.780Z</time>
      </trkpt>
      <trkpt lat="47.38024" lon="-0.37578">
        <ele>82</ele>
        <time>2013-02-13T09:42:06.780Z</time>
      </trkpt>
      <trkpt lat="47.38024" lon="-0.37582">
        <ele>82</ele>
        <time>2013-02-13T09:42:07.760Z</time>
      </trkpt>
      <trkpt lat="47.38025" lon="-0.37586">
        <ele>82</ele>
        <time>2013-02-13T09:42:08.780Z</time>
      </trkpt>
      <trkpt lat="47.38025" lon="-0.3759">
        <ele>82</ele>
        <time>2013-02-13T09:42:09.780Z</time>
      </trkpt>
      <trkpt lat="47.38025" lon="-0.37593">
        <ele>82</ele>
        <time>2013-02-13T09:42:10.780Z</time>
      </trkpt>
      <trkpt lat="47.38026" lon="-0.37597">
        <ele>82</ele>
        <time>2013-02-13T09:42:11.780Z</time>
      </trkpt>
      <trkpt lat="47.38026" lon="-0.376">
        <ele>82</ele>
        <time>2013-02-13T09:42:12.780Z</time>
      </trkpt>
      <trkpt lat="47.38026" lon="-0.37604">
        <ele>82</ele>
        <time>2013-02-13T09:42:13.780Z</time>
      </trkpt>
      <trkpt lat="47.38027" lon="-0.37607">
        <ele>82</ele>
        <time>2013-02-13T09:42:14.740Z</time>
      </trkpt>
      <trkpt lat="47.38028" lon="-0.37614">
        <ele>82</ele>
        <time>2013-02-13T09:42:16.780Z</time>
      </trkpt>
      <trkpt lat="47.38028" lon="-0.37618">
        <ele>82</ele>
        <time>2013-02-13T09:42:17.880Z</time>
      </trkpt>
      <trkpt lat="47.38029" lon="-0.37626">
        <ele>82</ele>
        <time>2013-02-13T09:42:19.670Z</time>
      </trkpt>
      <trkpt lat="47.38029" lon="-0.3763">
        <ele>82</ele>
        <time>2013-02-13T09:42:20.680Z</time>
      </trkpt>
      <trkpt lat="47.38029" lon="-0.37634">
        <ele>82</ele>
        <time>2013-02-13T09:42:21.680Z</time>
      </trkpt>
      <trkpt lat="47.38029" lon="-0.37637">
        <ele>81.9</ele>
        <time>2013-02-13T09:42:22.670Z</time>
      </trkpt>
      <trkpt lat="47.3803" lon="-0.37641">
        <ele>81.9</ele>
        <time>2013-02-13T09:42:23.680Z</time>
      </trkpt>
      <trkpt lat="47.3803" lon="-0.37644">
        <ele>81.9</ele>
        <time>2013-02-13T09:42:24.880Z</time>
      </trkpt>
      <trkpt lat="47.38032" lon="-0.37651">
        <ele>81.9</ele>
        <time>2013-02-13T09:42:26.670Z</time>
      </trkpt>
      <trkpt lat="47.38032" lon="-0.37654">
        <ele>81.8</ele>
        <time>2013-02-13T09:42:27.800Z</time>
      </trkpt>
      <trkpt lat="47.38032" lon="-0.37662">
        <ele>81.8</ele>
        <time>2013-02-13T09:42:29.810Z</time>
      </trkpt>
      <trkpt lat="47.38033" lon="-0.37666">
        <ele>81.8</ele>
        <time>2013-02-13T09:42:30.810Z</time>
      </trkpt>
      <trkpt lat="47.38033" lon="-0.37674">
        <ele>81.8</ele>
        <time>2013-02-13T09:42:32.810Z</time>
      </trkpt>
      <trkpt lat="47.38034" lon="-0.37677">
        <ele>81.8</ele>
        <time>2013-02-13T09:42:33.820Z</time>
      </trkpt>
      <trkpt lat="47.38034" lon="-0.37685">
        <ele>81.8</ele>
        <time>2013-02-13T09:42:35.890Z</time>
      </trkpt>
      <trkpt lat="47.38035" lon="-0.37693">
        <ele>81.7</ele>
        <time>2013-02-13T09:42:37.810Z</time>
      </trkpt>
      <trkpt lat="47.38035" lon="-0.37697">
        <ele>81.7</ele>
        <time>2013-02-13T09:42:38.820Z</time>
      </trkpt>
      <trkpt lat="47.38035" lon="-0.37701">
        <ele>81.7</ele>
        <time>2013-02-13T09:42:39.890Z</time>
      </trkpt>
      <trkpt lat="47.38035" lon="-0.37708">
        <ele>81.7</ele>
        <time>2013-02-13T09:42:41.810Z</time>
      </trkpt>
      <trkpt lat="47.38036" lon="-0.37712">
        <ele>81.7</ele>
        <time>2013-02-13T09:42:42.820Z</time>
      </trkpt>
      <trkpt lat="47.38037" lon="-0.37723">
        <ele>81.7</ele>
        <time>2013-02-13T09:42:45.840Z</time>
      </trkpt>
      <trkpt lat="47.38037" lon="-0.37726">
        <ele>81.7</ele>
        <time>2013-02-13T09:42:46.750Z</time>
      </trkpt>
      <trkpt lat="47.38038" lon="-0.37731">
        <ele>81.8</ele>
        <time>2013-02-13T09:42:47.820Z</time>
      </trkpt>
      <trkpt lat="47.38038" lon="-0.37739">
        <ele>81.9</ele>
        <time>2013-02-13T09:42:49.820Z</time>
      </trkpt>
      <trkpt lat="47.38038" lon="-0.37743">
        <ele>81.9</ele>
        <time>2013-02-13T09:42:50.830Z</time>
      </trkpt>
      <trkpt lat="47.38038" lon="-0.37751">
        <ele>82</ele>
        <time>2013-02-13T09:42:52.670Z</time>
      </trkpt>
      <trkpt lat="47.38039" lon="-0.37759">
        <ele>82.2</ele>
        <time>2013-02-13T09:42:54.820Z</time>
      </trkpt>
      <trkpt lat="47.38039" lon="-0.37763">
        <ele>82.3</ele>
        <time>2013-02-13T09:42:55.820Z</time>
      </trkpt>
      <trkpt lat="47.38039" lon="-0.37766">
        <ele>82.4</ele>
        <time>2013-02-13T09:42:56.900Z</time>
      </trkpt>
      <trkpt lat="47.38039" lon="-0.37774">
        <ele>82.5</ele>
        <time>2013-02-13T09:42:58.820Z</time>
      </trkpt>
      <trkpt lat="47.38039" lon="-0.37778">
        <ele>82.6</ele>
        <time>2013-02-13T09:42:59.850Z</time>
      </trkpt>
      <trkpt lat="47.38039" lon="-0.37786">
        <ele>81.1</ele>
        <time>2013-02-13T09:43:01.820Z</time>
      </trkpt>
      <trkpt lat="47.3804" lon="-0.3779">
        <ele>82.6</ele>
        <time>2013-02-13T09:43:02.810Z</time>
      </trkpt>
      <trkpt lat="47.3804" lon="-0.37798">
        <ele>82.6</ele>
        <time>2013-02-13T09:43:04.830Z</time>
      </trkpt>
      <trkpt lat="47.3804" lon="-0.37802">
        <ele>82.5</ele>
        <time>2013-02-13T09:43:05.830Z</time>
      </trkpt>
      <trkpt lat="47.38041" lon="-0.3781">
        <ele>82.6</ele>
        <time>2013-02-13T09:43:07.820Z</time>
      </trkpt>
      <trkpt lat="47.38041" lon="-0.37814">
        <ele>82.6</ele>
        <time>2013-02-13T09:43:08.890Z</time>
      </trkpt>
      <trkpt lat="47.38041" lon="-0.37821">
        <ele>82.8</ele>
        <time>2013-02-13T09:43:10.810Z</time>
      </trkpt>
      <trkpt lat="47.38041" lon="-0.37825">
        <ele>82.9</ele>
        <time>2013-02-13T09:43:11.810Z</time>
      </trkpt>
      <trkpt lat="47.38041" lon="-0.37829">
        <ele>82.9</ele>
        <time>2013-02-13T09:43:12.920Z</time>
      </trkpt>
      <trkpt lat="47.38042" lon="-0.37837">
        <ele>82.9</ele>
        <time>2013-02-13T09:43:14.810Z</time>
      </trkpt>
      <trkpt lat="47.38042" lon="-0.37845">
        <ele>82.8</ele>
        <time>2013-02-13T09:43:16.850Z</time>
      </trkpt>
      <trkpt lat="47.38043" lon="-0.37853">
        <ele>82.6</ele>
        <time>2013-02-13T09:43:18.820Z</time>
      </trkpt>
      <trkpt lat="47.38043" lon="-0.37856">
        <ele>82.5</ele>
        <time>2013-02-13T09:43:19.820Z</time>
      </trkpt>
      <trkpt lat="47.38044" lon="-0.37864">
        <ele>82.5</ele>
        <time>2013-02-13T09:43:21.900Z</time>
      </trkpt>
      <trkpt lat="47.38044" lon="-0.37872">
        <ele>82.6</ele>
        <time>2013-02-13T09:43:23.820Z</time>
      </trkpt>
      <trkpt lat="47.38045" lon="-0.37876">
        <ele>82.7</ele>
        <time>2013-02-13T09:43:24.820Z</time>
      </trkpt>
      <trkpt lat="47.38046" lon="-0.37885">
        <ele>82.9</ele>
        <time>2013-02-13T09:43:26.670Z</time>
      </trkpt>
      <trkpt lat="47.38046" lon="-0.37889">
        <ele>83</ele>
        <time>2013-02-13T09:43:27.820Z</time>
      </trkpt>
      <trkpt lat="47.38046" lon="-0.37893">
        <ele>83</ele>
        <time>2013-02-13T09:43:28.920Z</time>
      </trkpt>
      <trkpt lat="47.38046" lon="-0.37901">
        <ele>83</ele>
        <time>2013-02-13T09:43:30.920Z</time>
      </trkpt>
      <trkpt lat="47.38047" lon="-0.37909">
        <ele>83</ele>
        <time>2013-02-13T09:43:32.820Z</time>
      </trkpt>
      <trkpt lat="47.38047" lon="-0.37912">
        <ele>83</ele>
        <time>2013-02-13T09:43:34.000Z</time>
      </trkpt>
      <trkpt lat="47.38048" lon="-0.37919">
        <ele>83</ele>
        <time>2013-02-13T09:43:35.820Z</time>
      </trkpt>
      <trkpt lat="47.38048" lon="-0.37923">
        <ele>83</ele>
        <time>2013-02-13T09:43:36.820Z</time>
      </trkpt>
      <trkpt lat="47.38048" lon="-0.37927">
        <ele>83</ele>
        <time>2013-02-13T09:43:37.920Z</time>
      </trkpt>
      <trkpt lat="47.38049" lon="-0.37935">
        <ele>83</ele>
        <time>2013-02-13T09:43:39.900Z</time>
      </trkpt>
      <trkpt lat="47.38049" lon="-0.37939">
        <ele>83</ele>
        <time>2013-02-13T09:43:40.890Z</time>
      </trkpt>
      <trkpt lat="47.38049" lon="-0.37947">
        <ele>83</ele>
        <time>2013-02-13T09:43:42.820Z</time>
      </trkpt>
      <trkpt lat="47.3805" lon="-0.37951">
        <ele>83</ele>
        <time>2013-02-13T09:43:43.810Z</time>
      </trkpt>
      <trkpt lat="47.3805" lon="-0.37954">
        <ele>83</ele>
        <time>2013-02-13T09:43:44.910Z</time>
      </trkpt>
      <trkpt lat="47.38051" lon="-0.37961">
        <ele>83</ele>
        <time>2013-02-13T09:43:46.810Z</time>
      </trkpt>
      <trkpt lat="47.38051" lon="-0.37965">
        <ele>83</ele>
        <time>2013-02-13T09:43:47.820Z</time>
      </trkpt>
      <trkpt lat="47.38051" lon="-0.37969">
        <ele>83</ele>
        <time>2013-02-13T09:43:48.910Z</time>
      </trkpt>
      <trkpt lat="47.38051" lon="-0.37976">
        <ele>83</ele>
        <time>2013-02-13T09:43:50.890Z</time>
      </trkpt>
      <trkpt lat="47.38051" lon="-0.37984">
        <ele>83.1</ele>
        <time>2013-02-13T09:43:52.850Z</time>
      </trkpt>
      <trkpt lat="47.38051" lon="-0.37988">
        <ele>83.1</ele>
        <time>2013-02-13T09:43:53.910Z</time>
      </trkpt>
      <trkpt lat="47.38051" lon="-0.37996">
        <ele>83.1</ele>
        <time>2013-02-13T09:43:55.910Z</time>
      </trkpt>
      <trkpt lat="47.38052" lon="-0.38004">
        <ele>83.1</ele>
        <time>2013-02-13T09:43:58.010Z</time>
      </trkpt>
      <trkpt lat="47.38053" lon="-0.38011">
        <ele>83.1</ele>
        <time>2013-02-13T09:43:59.700Z</time>
      </trkpt>
      <trkpt lat="47.38053" lon="-0.38015">
        <ele>81.1</ele>
        <time>2013-02-13T09:44:00.910Z</time>
      </trkpt>
      <trkpt lat="47.38054" lon="-0.38022">
        <ele>83</ele>
        <time>2013-02-13T09:44:02.920Z</time>
      </trkpt>
      <trkpt lat="47.38054" lon="-0.3803">
        <ele>82.9</ele>
        <time>2013-02-13T09:44:04.810Z</time>
      </trkpt>
      <trkpt lat="47.38055" lon="-0.38033">
        <ele>82.8</ele>
        <time>2013-02-13T09:44:05.810Z</time>
      </trkpt>
      <trkpt lat="47.38055" lon="-0.38037">
        <ele>82.7</ele>
        <time>2013-02-13T09:44:06.910Z</time>
      </trkpt>
      <trkpt lat="47.38055" lon="-0.38045">
        <ele>82.4</ele>
        <time>2013-02-13T09:44:08.910Z</time>
      </trkpt>
      <trkpt lat="47.38055" lon="-0.38052">
        <ele>82.2</ele>
        <time>2013-02-13T09:44:10.910Z</time>
      </trkpt>
      <trkpt lat="47.38055" lon="-0.38059">
        <ele>82</ele>
        <time>2013-02-13T09:44:12.910Z</time>
      </trkpt>
      <trkpt lat="47.38056" lon="-0.38066">
        <ele>82</ele>
        <time>2013-02-13T09:44:14.910Z</time>
      </trkpt>
      <trkpt lat="47.38056" lon="-0.38074">
        <ele>82</ele>
        <time>2013-02-13T09:44:16.890Z</time>
      </trkpt>
      <trkpt lat="47.38057" lon="-0.38082">
        <ele>82</ele>
        <time>2013-02-13T09:44:18.910Z</time>
      </trkpt>
      <trkpt lat="47.38057" lon="-0.38091">
        <ele>81.7</ele>
        <time>2013-02-13T09:44:20.830Z</time>
      </trkpt>
      <trkpt lat="47.38058" lon="-0.38095">
        <ele>81.5</ele>
        <time>2013-02-13T09:44:21.900Z</time>
      </trkpt>
      <trkpt lat="47.38058" lon="-0.38103">
        <ele>81.3</ele>
        <time>2013-02-13T09:44:23.900Z</time>
      </trkpt>
      <trkpt lat="47.38059" lon="-0.38111">
        <ele>81</ele>
        <time>2013-02-13T09:44:25.900Z</time>
      </trkpt>
      <trkpt lat="47.3806" lon="-0.38119">
        <ele>81</ele>
        <time>2013-02-13T09:44:27.900Z</time>
      </trkpt>
      <trkpt lat="47.3806" lon="-0.38123">
        <ele>80.9</ele>
        <time>2013-02-13T09:44:28.900Z</time>
      </trkpt>
      <trkpt lat="47.3806" lon="-0.38131">
        <ele>80.9</ele>
        <time>2013-02-13T09:44:30.890Z</time>
      </trkpt>
      <trkpt lat="47.3806" lon="-0.38138">
        <ele>80.8</ele>
        <time>2013-02-13T09:44:32.950Z</time>
      </trkpt>
      <trkpt lat="47.3806" lon="-0.38145">
        <ele>80.6</ele>
        <time>2013-02-13T09:44:34.900Z</time>
      </trkpt>
      <trkpt lat="47.3806" lon="-0.38153">
        <ele>80.4</ele>
        <time>2013-02-13T09:44:36.900Z</time>
      </trkpt>
      <trkpt lat="47.3806" lon="-0.38161">
        <ele>80.1</ele>
        <time>2013-02-13T09:44:38.900Z</time>
      </trkpt>
      <trkpt lat="47.38061" lon="-0.38168">
        <ele>79.8</ele>
        <time>2013-02-13T09:44:40.880Z</time>
      </trkpt>
      <trkpt lat="47.38061" lon="-0.38176">
        <ele>79.6</ele>
        <time>2013-02-13T09:44:42.900Z</time>
      </trkpt>
      <trkpt lat="47.38062" lon="-0.38184">
        <ele>79.4</ele>
        <time>2013-02-13T09:44:44.900Z</time>
      </trkpt>
      <trkpt lat="47.38062" lon="-0.38189">
        <ele>79.3</ele>
        <time>2013-02-13T09:44:45.910Z</time>
      </trkpt>
      <trkpt lat="47.38063" lon="-0.38197">
        <ele>79.3</ele>
        <time>2013-02-13T09:44:47.680Z</time>
      </trkpt>
      <trkpt lat="47.38064" lon="-0.38201">
        <ele>79.2</ele>
        <time>2013-02-13T09:44:49.100Z</time>
      </trkpt>
      <trkpt lat="47.38064" lon="-0.38208">
        <ele>79.2</ele>
        <time>2013-02-13T09:44:50.680Z</time>
      </trkpt>
      <trkpt lat="47.38065" lon="-0.38212">
        <ele>79.1</ele>
        <time>2013-02-13T09:44:51.710Z</time>
      </trkpt>
      <trkpt lat="47.38065" lon="-0.38217">
        <ele>79.1</ele>
        <time>2013-02-13T09:44:52.700Z</time>
      </trkpt>
      <trkpt lat="47.38065" lon="-0.38221">
        <ele>79</ele>
        <time>2013-02-13T09:44:54.070Z</time>
      </trkpt>
      <trkpt lat="47.38066" lon="-0.3823">
        <ele>79</ele>
        <time>2013-02-13T09:44:55.900Z</time>
      </trkpt>
      <trkpt lat="47.38067" lon="-0.38238">
        <ele>79</ele>
        <time>2013-02-13T09:44:57.900Z</time>
      </trkpt>
      <trkpt lat="47.38066" lon="-0.38246">
        <ele>79</ele>
        <time>2013-02-13T09:44:59.830Z</time>
      </trkpt>
      <trkpt lat="47.38066" lon="-0.38249">
        <ele>81.8</ele>
        <time>2013-02-13T09:45:00.890Z</time>
      </trkpt>
      <trkpt lat="47.38061" lon="-0.38253">
        <ele>79</ele>
        <time>2013-02-13T09:45:02.810Z</time>
      </trkpt>
      <trkpt lat="47.38059" lon="-0.38254">
        <ele>79</ele>
        <time>2013-02-13T09:45:03.890Z</time>
      </trkpt>
      <trkpt lat="47.38053" lon="-0.38254">
        <ele>79</ele>
        <time>2013-02-13T09:45:05.890Z</time>
      </trkpt>
      <trkpt lat="47.38048" lon="-0.38253">
        <ele>79</ele>
        <time>2013-02-13T09:45:07.890Z</time>
      </trkpt>
      <trkpt lat="47.38043" lon="-0.38253">
        <ele>79</ele>
        <time>2013-02-13T09:45:09.890Z</time>
      </trkpt>
      <trkpt lat="47.38037" lon="-0.38251">
        <ele>79</ele>
        <time>2013-02-13T09:45:11.890Z</time>
      </trkpt>
      <trkpt lat="47.38032" lon="-0.38249">
        <ele>79</ele>
        <time>2013-02-13T09:45:13.890Z</time>
      </trkpt>
      <trkpt lat="47.38026" lon="-0.38246">
        <ele>79</ele>
        <time>2013-02-13T09:45:15.830Z</time>
      </trkpt>
      <trkpt lat="47.38024" lon="-0.38245">
        <ele>79</ele>
        <time>2013-02-13T09:45:16.820Z</time>
      </trkpt>
      <trkpt lat="47.38021" lon="-0.38243">
        <ele>79.1</ele>
        <time>2013-02-13T09:45:17.990Z</time>
      </trkpt>
      <trkpt lat="47.38018" lon="-0.38238">
        <ele>79.1</ele>
        <time>2013-02-13T09:45:19.810Z</time>
      </trkpt>
      <trkpt lat="47.38016" lon="-0.38237">
        <ele>79.2</ele>
        <time>2013-02-13T09:45:20.890Z</time>
      </trkpt>
      <trkpt lat="47.38012" lon="-0.38234">
        <ele>79.3</ele>
        <time>2013-02-13T09:45:22.900Z</time>
      </trkpt>
      <trkpt lat="47.38007" lon="-0.38231">
        <ele>79.5</ele>
        <time>2013-02-13T09:45:24.890Z</time>
      </trkpt>
      <trkpt lat="47.38003" lon="-0.38227">
        <ele>79.7</ele>
        <time>2013-02-13T09:45:26.890Z</time>
      </trkpt>
      <trkpt lat="47.37998" lon="-0.38223">
        <ele>79.9</ele>
        <time>2013-02-13T09:45:28.830Z</time>
      </trkpt>
      <trkpt lat="47.37996" lon="-0.38222">
        <ele>79.9</ele>
        <time>2013-02-13T09:45:29.890Z</time>
      </trkpt>
      <trkpt lat="47.37993" lon="-0.38217">
        <ele>79.8</ele>
        <time>2013-02-13T09:45:31.890Z</time>
      </trkpt>
      <trkpt lat="47.37989" lon="-0.38213">
        <ele>79.7</ele>
        <time>2013-02-13T09:45:33.820Z</time>
      </trkpt>
      <trkpt lat="47.37987" lon="-0.38211">
        <ele>79.7</ele>
        <time>2013-02-13T09:45:34.890Z</time>
      </trkpt>
      <trkpt lat="47.37984" lon="-0.38206">
        <ele>79.8</ele>
        <time>2013-02-13T09:45:36.890Z</time>
      </trkpt>
      <trkpt lat="47.37981" lon="-0.382">
        <ele>79.9</ele>
        <time>2013-02-13T09:45:38.820Z</time>
      </trkpt>
      <trkpt lat="47.3798" lon="-0.38196">
        <ele>80</ele>
        <time>2013-02-13T09:45:39.810Z</time>
      </trkpt>
      <trkpt lat="47.37979" lon="-0.38189">
        <ele>80</ele>
        <time>2013-02-13T09:45:41.890Z</time>
      </trkpt>
      <trkpt lat="47.37977" lon="-0.38181">
        <ele>80</ele>
        <time>2013-02-13T09:45:43.890Z</time>
      </trkpt>
      <trkpt lat="47.37977" lon="-0.38175">
        <ele>80</ele>
        <time>2013-02-13T09:45:45.880Z</time>
      </trkpt>
      <trkpt lat="47.37975" lon="-0.38167">
        <ele>80</ele>
        <time>2013-02-13T09:45:47.880Z</time>
      </trkpt>
      <trkpt lat="47.37972" lon="-0.38161">
        <ele>80.2</ele>
        <time>2013-02-13T09:45:49.890Z</time>
      </trkpt>
      <trkpt lat="47.3797" lon="-0.38154">
        <ele>80.5</ele>
        <time>2013-02-13T09:45:51.800Z</time>
      </trkpt>
      <trkpt lat="47.37967" lon="-0.38151">
        <ele>80.6</ele>
        <time>2013-02-13T09:45:52.800Z</time>
      </trkpt>
      <trkpt lat="47.37965" lon="-0.38147">
        <ele>80.8</ele>
        <time>2013-02-13T09:45:53.880Z</time>
      </trkpt>
      <trkpt lat="47.37962" lon="-0.38141">
        <ele>81</ele>
        <time>2013-02-13T09:45:55.810Z</time>
      </trkpt>
      <trkpt lat="47.37957" lon="-0.38135">
        <ele>81</ele>
        <time>2013-02-13T09:45:57.880Z</time>
      </trkpt>
      <trkpt lat="47.37952" lon="-0.38129">
        <ele>81</ele>
        <time>2013-02-13T09:45:59.830Z</time>
      </trkpt>
      <trkpt lat="47.3795" lon="-0.38126">
        <ele>82.6</ele>
        <time>2013-02-13T09:46:00.980Z</time>
      </trkpt>
      <trkpt lat="47.37945" lon="-0.3812">
        <ele>81</ele>
        <time>2013-02-13T09:46:02.880Z</time>
      </trkpt>
      <trkpt lat="47.37941" lon="-0.38115">
        <ele>81</ele>
        <time>2013-02-13T09:46:04.980Z</time>
      </trkpt>
      <trkpt lat="47.37938" lon="-0.38111">
        <ele>81</ele>
        <time>2013-02-13T09:46:06.810Z</time>
      </trkpt>
      <trkpt lat="47.37935" lon="-0.38109">
        <ele>81</ele>
        <time>2013-02-13T09:46:07.810Z</time>
      </trkpt>
      <trkpt lat="47.37933" lon="-0.38107">
        <ele>81</ele>
        <time>2013-02-13T09:46:08.890Z</time>
      </trkpt>
      <trkpt lat="47.37931" lon="-0.38105">
        <ele>81</ele>
        <time>2013-02-13T09:46:09.820Z</time>
      </trkpt>
      <trkpt lat="47.37929" lon="-0.38102">
        <ele>81</ele>
        <time>2013-02-13T09:46:10.880Z</time>
      </trkpt>
      <trkpt lat="47.37926" lon="-0.38097">
        <ele>81</ele>
        <time>2013-02-13T09:46:12.820Z</time>
      </trkpt>
      <trkpt lat="47.37922" lon="-0.3809">
        <ele>81</ele>
        <time>2013-02-13T09:46:14.810Z</time>
      </trkpt>
      <trkpt lat="47.37921" lon="-0.38087">
        <ele>81</ele>
        <time>2013-02-13T09:46:15.880Z</time>
      </trkpt>
      <trkpt lat="47.37918" lon="-0.38081">
        <ele>81</ele>
        <time>2013-02-13T09:46:17.880Z</time>
      </trkpt>
      <trkpt lat="47.37916" lon="-0.38074">
        <ele>81</ele>
        <time>2013-02-13T09:46:19.880Z</time>
      </trkpt>
      <trkpt lat="47.37914" lon="-0.38066">
        <ele>81</ele>
        <time>2013-02-13T09:46:21.980Z</time>
      </trkpt>
      <trkpt lat="47.37911" lon="-0.38061">
        <ele>81</ele>
        <time>2013-02-13T09:46:23.870Z</time>
      </trkpt>
      <trkpt lat="47.37907" lon="-0.38055">
        <ele>81</ele>
        <time>2013-02-13T09:46:25.870Z</time>
      </trkpt>
      <trkpt lat="47.37904" lon="-0.38049">
        <ele>81</ele>
        <time>2013-02-13T09:46:27.800Z</time>
      </trkpt>
      <trkpt lat="47.37902" lon="-0.38047">
        <ele>81</ele>
        <time>2013-02-13T09:46:28.870Z</time>
      </trkpt>
      <trkpt lat="47.37899" lon="-0.38042">
        <ele>81</ele>
        <time>2013-02-13T09:46:30.800Z</time>
      </trkpt>
      <trkpt lat="47.37897" lon="-0.38039">
        <ele>81</ele>
        <time>2013-02-13T09:46:31.800Z</time>
      </trkpt>
      <trkpt lat="47.37895" lon="-0.38036">
        <ele>81</ele>
        <time>2013-02-13T09:46:32.810Z</time>
      </trkpt>
      <trkpt lat="47.37894" lon="-0.38033">
        <ele>81</ele>
        <time>2013-02-13T09:46:33.900Z</time>
      </trkpt>
      <trkpt lat="47.37889" lon="-0.38027">
        <ele>81</ele>
        <time>2013-02-13T09:46:35.810Z</time>
      </trkpt>
      <trkpt lat="47.37886" lon="-0.38021">
        <ele>81</ele>
        <time>2013-02-13T09:46:37.670Z</time>
      </trkpt>
      <trkpt lat="47.37884" lon="-0.38018">
        <ele>81</ele>
        <time>2013-02-13T09:46:38.670Z</time>
      </trkpt>
      <trkpt lat="47.37882" lon="-0.38015">
        <ele>81</ele>
        <time>2013-02-13T09:46:39.810Z</time>
      </trkpt>
      <trkpt lat="47.3788" lon="-0.38012">
        <ele>81</ele>
        <time>2013-02-13T09:46:40.810Z</time>
      </trkpt>
      <trkpt lat="47.37878" lon="-0.38008">
        <ele>81</ele>
        <time>2013-02-13T09:46:41.810Z</time>
      </trkpt>
      <trkpt lat="47.37877" lon="-0.38005">
        <ele>81</ele>
        <time>2013-02-13T09:46:42.810Z</time>
      </trkpt>
      <trkpt lat="47.37875" lon="-0.38002">
        <ele>81</ele>
        <time>2013-02-13T09:46:43.810Z</time>
      </trkpt>
      <trkpt lat="47.37872" lon="-0.37999">
        <ele>81</ele>
        <time>2013-02-13T09:46:44.810Z</time>
      </trkpt>
      <trkpt lat="47.3787" lon="-0.37997">
        <ele>81</ele>
        <time>2013-02-13T09:46:45.810Z</time>
      </trkpt>
      <trkpt lat="47.37867" lon="-0.37995">
        <ele>81</ele>
        <time>2013-02-13T09:46:46.680Z</time>
      </trkpt>
      <trkpt lat="47.37866" lon="-0.37992">
        <ele>81</ele>
        <time>2013-02-13T09:46:47.810Z</time>
      </trkpt>
      <trkpt lat="47.37863" lon="-0.37991">
        <ele>81</ele>
        <time>2013-02-13T09:46:48.910Z</time>
      </trkpt>
      <trkpt lat="47.37857" lon="-0.37991">
        <ele>81</ele>
        <time>2013-02-13T09:46:50.820Z</time>
      </trkpt>
      <trkpt lat="47.37854" lon="-0.37991">
        <ele>81</ele>
        <time>2013-02-13T09:46:51.810Z</time>
      </trkpt>
      <trkpt lat="47.37852" lon="-0.37991">
        <ele>81</ele>
        <time>2013-02-13T09:46:52.810Z</time>
      </trkpt>
      <trkpt lat="47.37849" lon="-0.37992">
        <ele>81</ele>
        <time>2013-02-13T09:46:53.890Z</time>
      </trkpt>
      <trkpt lat="47.37844" lon="-0.37995">
        <ele>81</ele>
        <time>2013-02-13T09:46:55.670Z</time>
      </trkpt>
      <trkpt lat="47.37842" lon="-0.37997">
        <ele>81</ele>
        <time>2013-02-13T09:46:56.670Z</time>
      </trkpt>
      <trkpt lat="47.37839" lon="-0.37998">
        <ele>81</ele>
        <time>2013-02-13T09:46:57.690Z</time>
      </trkpt>
      <trkpt lat="47.37837" lon="-0.38001">
        <ele>81</ele>
        <time>2013-02-13T09:46:58.670Z</time>
      </trkpt>
      <trkpt lat="47.37835" lon="-0.38002">
        <ele>81</ele>
        <time>2013-02-13T09:46:59.700Z</time>
      </trkpt>
      <trkpt lat="47.37833" lon="-0.38005">
        <ele>80.9</ele>
        <time>2013-02-13T09:47:00.670Z</time>
      </trkpt>
      <trkpt lat="47.37831" lon="-0.38006">
        <ele>81</ele>
        <time>2013-02-13T09:47:01.670Z</time>
      </trkpt>
      <trkpt lat="47.37828" lon="-0.38008">
        <ele>81</ele>
        <time>2013-02-13T09:47:02.810Z</time>
      </trkpt>
      <trkpt lat="47.37827" lon="-0.38009">
        <ele>81</ele>
        <time>2013-02-13T09:47:03.840Z</time>
      </trkpt>
      <trkpt lat="47.37822" lon="-0.38014">
        <ele>81</ele>
        <time>2013-02-13T09:47:05.670Z</time>
      </trkpt>
      <trkpt lat="47.3782" lon="-0.38016">
        <ele>81</ele>
        <time>2013-02-13T09:47:06.670Z</time>
      </trkpt>
      <trkpt lat="47.37817" lon="-0.38018">
        <ele>81</ele>
        <time>2013-02-13T09:47:07.670Z</time>
      </trkpt>
      <trkpt lat="47.37815" lon="-0.3802">
        <ele>81</ele>
        <time>2013-02-13T09:47:08.670Z</time>
      </trkpt>
      <trkpt lat="47.37812" lon="-0.38022">
        <ele>81</ele>
        <time>2013-02-13T09:47:09.670Z</time>
      </trkpt>
      <trkpt lat="47.3781" lon="-0.38023">
        <ele>81</ele>
        <time>2013-02-13T09:47:10.670Z</time>
      </trkpt>
      <trkpt lat="47.37807" lon="-0.38025">
        <ele>81</ele>
        <time>2013-02-13T09:47:11.800Z</time>
      </trkpt>
      <trkpt lat="47.37805" lon="-0.38026">
        <ele>81</ele>
        <time>2013-02-13T09:47:12.800Z</time>
      </trkpt>
      <trkpt lat="47.37803" lon="-0.38028">
        <ele>81</ele>
        <time>2013-02-13T09:47:13.800Z</time>
      </trkpt>
      <trkpt lat="47.37798" lon="-0.38032">
        <ele>81</ele>
        <time>2013-02-13T09:47:15.800Z</time>
      </trkpt>
      <trkpt lat="47.37793" lon="-0.38035">
        <ele>81</ele>
        <time>2013-02-13T09:47:17.670Z</time>
      </trkpt>
      <trkpt lat="47.37791" lon="-0.38037">
        <ele>81</ele>
        <time>2013-02-13T09:47:18.670Z</time>
      </trkpt>
      <trkpt lat="47.37789" lon="-0.38039">
        <ele>81</ele>
        <time>2013-02-13T09:47:19.670Z</time>
      </trkpt>
      <trkpt lat="47.37787" lon="-0.38042">
        <ele>81</ele>
        <time>2013-02-13T09:47:20.830Z</time>
      </trkpt>
      <trkpt lat="47.37785" lon="-0.38044">
        <ele>81</ele>
        <time>2013-02-13T09:47:21.820Z</time>
      </trkpt>
      <trkpt lat="47.37784" lon="-0.38048">
        <ele>81</ele>
        <time>2013-02-13T09:47:22.830Z</time>
      </trkpt>
      <trkpt lat="47.37783" lon="-0.38052">
        <ele>81</ele>
        <time>2013-02-13T09:47:23.900Z</time>
      </trkpt>
      <trkpt lat="47.37783" lon="-0.38061">
        <ele>81</ele>
        <time>2013-02-13T09:47:25.670Z</time>
      </trkpt>
      <trkpt lat="47.37783" lon="-0.38065">
        <ele>81</ele>
        <time>2013-02-13T09:47:26.670Z</time>
      </trkpt>
      <trkpt lat="47.37784" lon="-0.38069">
        <ele>81</ele>
        <time>2013-02-13T09:47:27.820Z</time>
      </trkpt>
      <trkpt lat="47.37785" lon="-0.38073">
        <ele>81</ele>
        <time>2013-02-13T09:47:28.910Z</time>
      </trkpt>
      <trkpt lat="47.37786" lon="-0.38081">
        <ele>81</ele>
        <time>2013-02-13T09:47:30.670Z</time>
      </trkpt>
      <trkpt lat="47.37787" lon="-0.38086">
        <ele>81</ele>
        <time>2013-02-13T09:47:31.670Z</time>
      </trkpt>
      <trkpt lat="47.37789" lon="-0.38089">
        <ele>81</ele>
        <time>2013-02-13T09:47:32.670Z</time>
      </trkpt>
      <trkpt lat="47.37791" lon="-0.38092">
        <ele>81</ele>
        <time>2013-02-13T09:47:33.680Z</time>
      </trkpt>
      <trkpt lat="47.37793" lon="-0.38095">
        <ele>81</ele>
        <time>2013-02-13T09:47:34.890Z</time>
      </trkpt>
      <trkpt lat="47.37795" lon="-0.38103">
        <ele>81</ele>
        <time>2013-02-13T09:47:36.670Z</time>
      </trkpt>
      <trkpt lat="47.37797" lon="-0.38107">
        <ele>81</ele>
        <time>2013-02-13T09:47:37.680Z</time>
      </trkpt>
      <trkpt lat="47.37798" lon="-0.3811">
        <ele>81</ele>
        <time>2013-02-13T09:47:38.810Z</time>
      </trkpt>
      <trkpt lat="47.37801" lon="-0.38118">
        <ele>81</ele>
        <time>2013-02-13T09:47:40.670Z</time>
      </trkpt>
      <trkpt lat="47.37802" lon="-0.38121">
        <ele>81</ele>
        <time>2013-02-13T09:47:41.670Z</time>
      </trkpt>
      <trkpt lat="47.37803" lon="-0.38125">
        <ele>81</ele>
        <time>2013-02-13T09:47:42.810Z</time>
      </trkpt>
      <trkpt lat="47.37804" lon="-0.38129">
        <ele>81</ele>
        <time>2013-02-13T09:47:43.810Z</time>
      </trkpt>
      <trkpt lat="47.37806" lon="-0.38136">
        <ele>81</ele>
        <time>2013-02-13T09:47:45.670Z</time>
      </trkpt>
      <trkpt lat="47.37807" lon="-0.3814">
        <ele>81</ele>
        <time>2013-02-13T09:47:46.670Z</time>
      </trkpt>
      <trkpt lat="47.37808" lon="-0.38144">
        <ele>81</ele>
        <time>2013-02-13T09:47:47.820Z</time>
      </trkpt>
      <trkpt lat="47.37809" lon="-0.38147">
        <ele>81</ele>
        <time>2013-02-13T09:47:48.890Z</time>
      </trkpt>
      <trkpt lat="47.37812" lon="-0.38154">
        <ele>80.9</ele>
        <time>2013-02-13T09:47:50.830Z</time>
      </trkpt>
      <trkpt lat="47.37813" lon="-0.38158">
        <ele>80.8</ele>
        <time>2013-02-13T09:47:51.830Z</time>
      </trkpt>
      <trkpt lat="47.37814" lon="-0.38161">
        <ele>80.8</ele>
        <time>2013-02-13T09:47:52.900Z</time>
      </trkpt>
      <trkpt lat="47.37816" lon="-0.38167">
        <ele>80.6</ele>
        <time>2013-02-13T09:47:54.680Z</time>
      </trkpt>
      <trkpt lat="47.37817" lon="-0.3817">
        <ele>80.5</ele>
        <time>2013-02-13T09:47:55.890Z</time>
      </trkpt>
      <trkpt lat="47.3782" lon="-0.38176">
        <ele>80.3</ele>
        <time>2013-02-13T09:47:57.670Z</time>
      </trkpt>
      <trkpt lat="47.37822" lon="-0.3818">
        <ele>80.2</ele>
        <time>2013-02-13T09:47:58.670Z</time>
      </trkpt>
      <trkpt lat="47.37823" lon="-0.38184">
        <ele>80.1</ele>
        <time>2013-02-13T09:47:59.700Z</time>
      </trkpt>
      <trkpt lat="47.37824" lon="-0.38187">
        <ele>81.9</ele>
        <time>2013-02-13T09:48:00.670Z</time>
      </trkpt>
      <trkpt lat="47.37825" lon="-0.3819">
        <ele>80</ele>
        <time>2013-02-13T09:48:01.670Z</time>
      </trkpt>
      <trkpt lat="47.37826" lon="-0.38194">
        <ele>80</ele>
        <time>2013-02-13T09:48:02.670Z</time>
      </trkpt>
      <trkpt lat="47.37827" lon="-0.38198">
        <ele>80</ele>
        <time>2013-02-13T09:48:03.770Z</time>
      </trkpt>
      <trkpt lat="47.37829" lon="-0.38205">
        <ele>80</ele>
        <time>2013-02-13T09:48:05.770Z</time>
      </trkpt>
      <trkpt lat="47.3783" lon="-0.38208">
        <ele>80</ele>
        <time>2013-02-13T09:48:06.770Z</time>
      </trkpt>
      <trkpt lat="47.37831" lon="-0.38212">
        <ele>80</ele>
        <time>2013-02-13T09:48:07.850Z</time>
      </trkpt>
      <trkpt lat="47.37833" lon="-0.38219">
        <ele>80</ele>
        <time>2013-02-13T09:48:09.770Z</time>
      </trkpt>
      <trkpt lat="47.37835" lon="-0.38222">
        <ele>80</ele>
        <time>2013-02-13T09:48:10.680Z</time>
      </trkpt>
      <trkpt lat="47.37836" lon="-0.38225">
        <ele>80</ele>
        <time>2013-02-13T09:48:11.780Z</time>
      </trkpt>
      <trkpt lat="47.37839" lon="-0.38232">
        <ele>79.9</ele>
        <time>2013-02-13T09:48:13.770Z</time>
      </trkpt>
      <trkpt lat="47.3784" lon="-0.38235">
        <ele>79.9</ele>
        <time>2013-02-13T09:48:14.830Z</time>
      </trkpt>
      <trkpt lat="47.37842" lon="-0.38243">
        <ele>79.8</ele>
        <time>2013-02-13T09:48:16.870Z</time>
      </trkpt>
      <trkpt lat="47.37844" lon="-0.38252">
        <ele>79.6</ele>
        <time>2013-02-13T09:48:18.670Z</time>
      </trkpt>
      <trkpt lat="47.37845" lon="-0.38256">
        <ele>79.5</ele>
        <time>2013-02-13T09:48:19.770Z</time>
      </trkpt>
      <trkpt lat="47.37847" lon="-0.3826">
        <ele>79.3</ele>
        <time>2013-02-13T09:48:20.900Z</time>
      </trkpt>
      <trkpt lat="47.37849" lon="-0.38266">
        <ele>79.2</ele>
        <time>2013-02-13T09:48:22.670Z</time>
      </trkpt>
      <trkpt lat="47.3785" lon="-0.38269">
        <ele>79.1</ele>
        <time>2013-02-13T09:48:23.770Z</time>
      </trkpt>
      <trkpt lat="47.37853" lon="-0.38271">
        <ele>79.1</ele>
        <time>2013-02-13T09:48:24.820Z</time>
      </trkpt>
      <trkpt lat="47.37856" lon="-0.38278">
        <ele>79</ele>
        <time>2013-02-13T09:48:26.670Z</time>
      </trkpt>
      <trkpt lat="47.37857" lon="-0.38282">
        <ele>79</ele>
        <time>2013-02-13T09:48:27.670Z</time>
      </trkpt>
      <trkpt lat="47.37859" lon="-0.38285">
        <ele>79</ele>
        <time>2013-02-13T09:48:28.680Z</time>
      </trkpt>
      <trkpt lat="47.3786" lon="-0.38288">
        <ele>79</ele>
        <time>2013-02-13T09:48:29.670Z</time>
      </trkpt>
      <trkpt lat="47.37861" lon="-0.38292">
        <ele>79</ele>
        <time>2013-02-13T09:48:30.670Z</time>
      </trkpt>
      <trkpt lat="47.37862" lon="-0.38295">
        <ele>79</ele>
        <time>2013-02-13T09:48:31.770Z</time>
      </trkpt>
      <trkpt lat="47.37863" lon="-0.38299">
        <ele>79</ele>
        <time>2013-02-13T09:48:32.770Z</time>
      </trkpt>
      <trkpt lat="47.37864" lon="-0.38303">
        <ele>79</ele>
        <time>2013-02-13T09:48:33.790Z</time>
      </trkpt>
      <trkpt lat="47.37868" lon="-0.38308">
        <ele>79</ele>
        <time>2013-02-13T09:48:35.780Z</time>
      </trkpt>
      <trkpt lat="47.37869" lon="-0.38311">
        <ele>79</ele>
        <time>2013-02-13T09:48:36.820Z</time>
      </trkpt>
      <trkpt lat="47.37871" lon="-0.38315">
        <ele>79</ele>
        <time>2013-02-13T09:48:37.780Z</time>
      </trkpt>
      <trkpt lat="47.37872" lon="-0.38318">
        <ele>79</ele>
        <time>2013-02-13T09:48:38.770Z</time>
      </trkpt>
      <trkpt lat="47.37873" lon="-0.38322">
        <ele>79</ele>
        <time>2013-02-13T09:48:39.770Z</time>
      </trkpt>
      <trkpt lat="47.37873" lon="-0.38326">
        <ele>79</ele>
        <time>2013-02-13T09:48:40.770Z</time>
      </trkpt>
      <trkpt lat="47.37875" lon="-0.3833">
        <ele>79</ele>
        <time>2013-02-13T09:48:41.770Z</time>
      </trkpt>
      <trkpt lat="47.37876" lon="-0.38338">
        <ele>79</ele>
        <time>2013-02-13T09:48:43.770Z</time>
      </trkpt>
      <trkpt lat="47.37877" lon="-0.38341">
        <ele>79</ele>
        <time>2013-02-13T09:48:44.770Z</time>
      </trkpt>
      <trkpt lat="47.37879" lon="-0.38345">
        <ele>79</ele>
        <time>2013-02-13T09:48:45.780Z</time>
      </trkpt>
      <trkpt lat="47.37881" lon="-0.38351">
        <ele>79</ele>
        <time>2013-02-13T09:48:47.770Z</time>
      </trkpt>
      <trkpt lat="47.37883" lon="-0.38355">
        <ele>79</ele>
        <time>2013-02-13T09:48:48.820Z</time>
      </trkpt>
      <trkpt lat="47.37886" lon="-0.38363">
        <ele>79</ele>
        <time>2013-02-13T09:48:50.860Z</time>
      </trkpt>
      <trkpt lat="47.3789" lon="-0.3837">
        <ele>79</ele>
        <time>2013-02-13T09:48:52.670Z</time>
      </trkpt>
      <trkpt lat="47.37891" lon="-0.38374">
        <ele>79</ele>
        <time>2013-02-13T09:48:53.770Z</time>
      </trkpt>
      <trkpt lat="47.37892" lon="-0.38378">
        <ele>79</ele>
        <time>2013-02-13T09:48:54.850Z</time>
      </trkpt>
      <trkpt lat="47.37894" lon="-0.38386">
        <ele>79</ele>
        <time>2013-02-13T09:48:56.670Z</time>
      </trkpt>
      <trkpt lat="47.37895" lon="-0.3839">
        <ele>79</ele>
        <time>2013-02-13T09:48:57.770Z</time>
      </trkpt>
      <trkpt lat="47.37897" lon="-0.38394">
        <ele>78.8</ele>
        <time>2013-02-13T09:48:58.830Z</time>
      </trkpt>
      <trkpt lat="47.37899" lon="-0.38401">
        <ele>83.6</ele>
        <time>2013-02-13T09:49:00.830Z</time>
      </trkpt>
      <trkpt lat="47.37903" lon="-0.38408">
        <ele>78.3</ele>
        <time>2013-02-13T09:49:02.680Z</time>
      </trkpt>
      <trkpt lat="47.37904" lon="-0.38412">
        <ele>78.2</ele>
        <time>2013-02-13T09:49:03.880Z</time>
      </trkpt>
      <trkpt lat="47.37906" lon="-0.38419">
        <ele>78</ele>
        <time>2013-02-13T09:49:05.770Z</time>
      </trkpt>
      <trkpt lat="47.37907" lon="-0.38424">
        <ele>78</ele>
        <time>2013-02-13T09:49:06.830Z</time>
      </trkpt>
      <trkpt lat="47.37908" lon="-0.38427">
        <ele>78</ele>
        <time>2013-02-13T09:49:07.800Z</time>
      </trkpt>
      <trkpt lat="47.37909" lon="-0.38431">
        <ele>78</ele>
        <time>2013-02-13T09:49:08.770Z</time>
      </trkpt>
      <trkpt lat="47.3791" lon="-0.38435">
        <ele>78</ele>
        <time>2013-02-13T09:49:09.770Z</time>
      </trkpt>
      <trkpt lat="47.37912" lon="-0.38438">
        <ele>78</ele>
        <time>2013-02-13T09:49:10.820Z</time>
      </trkpt>
      <trkpt lat="47.37913" lon="-0.38442">
        <ele>78</ele>
        <time>2013-02-13T09:49:11.850Z</time>
      </trkpt>
      <trkpt lat="47.37915" lon="-0.3845">
        <ele>78</ele>
        <time>2013-02-13T09:49:13.670Z</time>
      </trkpt>
      <trkpt lat="47.37916" lon="-0.38454">
        <ele>78</ele>
        <time>2013-02-13T09:49:14.670Z</time>
      </trkpt>
      <trkpt lat="47.37917" lon="-0.38459">
        <ele>78</ele>
        <time>2013-02-13T09:49:15.770Z</time>
      </trkpt>
      <trkpt lat="47.37918" lon="-0.38463">
        <ele>78</ele>
        <time>2013-02-13T09:49:16.700Z</time>
      </trkpt>
      <trkpt lat="47.37919" lon="-0.38467">
        <ele>78</ele>
        <time>2013-02-13T09:49:17.770Z</time>
      </trkpt>
      <trkpt lat="47.3792" lon="-0.38471">
        <ele>78</ele>
        <time>2013-02-13T09:49:18.770Z</time>
      </trkpt>
      <trkpt lat="47.37921" lon="-0.38475">
        <ele>78</ele>
        <time>2013-02-13T09:49:19.860Z</time>
      </trkpt>
      <trkpt lat="47.37924" lon="-0.38481">
        <ele>78</ele>
        <time>2013-02-13T09:49:21.770Z</time>
      </trkpt>
      <trkpt lat="47.37925" lon="-0.38484">
        <ele>78</ele>
        <time>2013-02-13T09:49:22.830Z</time>
      </trkpt>
      <trkpt lat="47.37929" lon="-0.3849">
        <ele>78</ele>
        <time>2013-02-13T09:49:24.830Z</time>
      </trkpt>
      <trkpt lat="47.37932" lon="-0.38498">
        <ele>78</ele>
        <time>2013-02-13T09:49:26.670Z</time>
      </trkpt>
      <trkpt lat="47.37934" lon="-0.38501">
        <ele>78</ele>
        <time>2013-02-13T09:49:27.780Z</time>
      </trkpt>
      <trkpt lat="47.37938" lon="-0.38507">
        <ele>78</ele>
        <time>2013-02-13T09:49:29.770Z</time>
      </trkpt>
      <trkpt lat="47.3794" lon="-0.38509">
        <ele>78</ele>
        <time>2013-02-13T09:49:30.770Z</time>
      </trkpt>
      <trkpt lat="47.37942" lon="-0.38511">
        <ele>78</ele>
        <time>2013-02-13T09:49:31.770Z</time>
      </trkpt>
      <trkpt lat="47.37945" lon="-0.38517">
        <ele>78</ele>
        <time>2013-02-13T09:49:33.780Z</time>
      </trkpt>
      <trkpt lat="47.37948" lon="-0.38519">
        <ele>78</ele>
        <time>2013-02-13T09:49:34.830Z</time>
      </trkpt>
      <trkpt lat="47.37952" lon="-0.38524">
        <ele>78</ele>
        <time>2013-02-13T09:49:36.840Z</time>
      </trkpt>
      <trkpt lat="47.37955" lon="-0.38529">
        <ele>78</ele>
        <time>2013-02-13T09:49:38.630Z</time>
      </trkpt>
      <trkpt lat="47.37956" lon="-0.38532">
        <ele>78</ele>
        <time>2013-02-13T09:49:39.620Z</time>
      </trkpt>
      <trkpt lat="47.37957" lon="-0.38535">
        <ele>78</ele>
        <time>2013-02-13T09:49:40.630Z</time>
      </trkpt>
      <trkpt lat="47.37959" lon="-0.38538">
        <ele>78</ele>
        <time>2013-02-13T09:49:41.620Z</time>
      </trkpt>
      <trkpt lat="47.37961" lon="-0.38541">
        <ele>78</ele>
        <time>2013-02-13T09:49:42.630Z</time>
      </trkpt>
      <trkpt lat="47.37962" lon="-0.38545">
        <ele>78</ele>
        <time>2013-02-13T09:49:43.820Z</time>
      </trkpt>
      <trkpt lat="47.37966" lon="-0.38551">
        <ele>78</ele>
        <time>2013-02-13T09:49:45.770Z</time>
      </trkpt>
      <trkpt lat="47.37968" lon="-0.38555">
        <ele>78</ele>
        <time>2013-02-13T09:49:47.260Z</time>
      </trkpt>
      <trkpt lat="47.3797" lon="-0.38563">
        <ele>78</ele>
        <time>2013-02-13T09:49:48.720Z</time>
      </trkpt>
      <trkpt lat="47.37972" lon="-0.38566">
        <ele>78</ele>
        <time>2013-02-13T09:49:49.720Z</time>
      </trkpt>
      <trkpt lat="47.37973" lon="-0.3857">
        <ele>78</ele>
        <time>2013-02-13T09:49:50.710Z</time>
      </trkpt>
      <trkpt lat="47.37975" lon="-0.38574">
        <ele>78</ele>
        <time>2013-02-13T09:49:51.990Z</time>
      </trkpt>
      <trkpt lat="47.37978" lon="-0.3858">
        <ele>78</ele>
        <time>2013-02-13T09:49:53.690Z</time>
      </trkpt>
      <trkpt lat="47.3798" lon="-0.38584">
        <ele>78</ele>
        <time>2013-02-13T09:49:54.830Z</time>
      </trkpt>
      <trkpt lat="47.37983" lon="-0.3859">
        <ele>78</ele>
        <time>2013-02-13T09:49:56.620Z</time>
      </trkpt>
      <trkpt lat="47.37984" lon="-0.38593">
        <ele>78</ele>
        <time>2013-02-13T09:49:57.620Z</time>
      </trkpt>
      <trkpt lat="47.37986" lon="-0.38597">
        <ele>78</ele>
        <time>2013-02-13T09:49:58.620Z</time>
      </trkpt>
      <trkpt lat="47.37987" lon="-0.386">
        <ele>78</ele>
        <time>2013-02-13T09:49:59.620Z</time>
      </trkpt>
      <trkpt lat="47.37989" lon="-0.38603">
        <ele>91.2</ele>
        <time>2013-02-13T09:50:00.600Z</time>
      </trkpt>
      <trkpt lat="47.37991" lon="-0.38606">
        <ele>78</ele>
        <time>2013-02-13T09:50:01.770Z</time>
      </trkpt>
      <trkpt lat="47.37993" lon="-0.38609">
        <ele>78</ele>
        <time>2013-02-13T09:50:02.770Z</time>
      </trkpt>
      <trkpt lat="47.37995" lon="-0.38612">
        <ele>78</ele>
        <time>2013-02-13T09:50:03.770Z</time>
      </trkpt>
      <trkpt lat="47.37997" lon="-0.38615">
        <ele>78</ele>
        <time>2013-02-13T09:50:04.910Z</time>
      </trkpt>
      <trkpt lat="47.38" lon="-0.38621">
        <ele>78</ele>
        <time>2013-02-13T09:50:06.600Z</time>
      </trkpt>
      <trkpt lat="47.38002" lon="-0.38624">
        <ele>78</ele>
        <time>2013-02-13T09:50:07.620Z</time>
      </trkpt>
      <trkpt lat="47.38004" lon="-0.38627">
        <ele>77.9</ele>
        <time>2013-02-13T09:50:08.770Z</time>
      </trkpt>
      <trkpt lat="47.38006" lon="-0.38631">
        <ele>77.9</ele>
        <time>2013-02-13T09:50:09.770Z</time>
      </trkpt>
      <trkpt lat="47.38007" lon="-0.38635">
        <ele>78</ele>
        <time>2013-02-13T09:50:10.700Z</time>
      </trkpt>
      <trkpt lat="47.38008" lon="-0.3864">
        <ele>78</ele>
        <time>2013-02-13T09:50:11.820Z</time>
      </trkpt>
      <trkpt lat="47.38011" lon="-0.38648">
        <ele>77.9</ele>
        <time>2013-02-13T09:50:13.820Z</time>
      </trkpt>
      <trkpt lat="47.38012" lon="-0.38653">
        <ele>77.8</ele>
        <time>2013-02-13T09:50:14.820Z</time>
      </trkpt>
      <trkpt lat="47.38013" lon="-0.38657">
        <ele>77.7</ele>
        <time>2013-02-13T09:50:15.820Z</time>
      </trkpt>
      <trkpt lat="47.38017" lon="-0.38664">
        <ele>77.5</ele>
        <time>2013-02-13T09:50:17.820Z</time>
      </trkpt>
      <trkpt lat="47.38019" lon="-0.38666">
        <ele>77.3</ele>
        <time>2013-02-13T09:50:18.920Z</time>
      </trkpt>
      <trkpt lat="47.38023" lon="-0.38672">
        <ele>77.2</ele>
        <time>2013-02-13T09:50:20.820Z</time>
      </trkpt>
      <trkpt lat="47.38025" lon="-0.38675">
        <ele>77.1</ele>
        <time>2013-02-13T09:50:21.820Z</time>
      </trkpt>
      <trkpt lat="47.38026" lon="-0.38679">
        <ele>77.1</ele>
        <time>2013-02-13T09:50:22.820Z</time>
      </trkpt>
      <trkpt lat="47.38028" lon="-0.38683">
        <ele>77</ele>
        <time>2013-02-13T09:50:23.920Z</time>
      </trkpt>
      <trkpt lat="47.38033" lon="-0.3869">
        <ele>77</ele>
        <time>2013-02-13T09:50:25.810Z</time>
      </trkpt>
      <trkpt lat="47.38035" lon="-0.38693">
        <ele>77</ele>
        <time>2013-02-13T09:50:26.910Z</time>
      </trkpt>
      <trkpt lat="47.38038" lon="-0.387">
        <ele>77.2</ele>
        <time>2013-02-13T09:50:28.910Z</time>
      </trkpt>
      <trkpt lat="47.38042" lon="-0.38707">
        <ele>77.5</ele>
        <time>2013-02-13T09:50:30.820Z</time>
      </trkpt>
      <trkpt lat="47.38044" lon="-0.38711">
        <ele>77.6</ele>
        <time>2013-02-13T09:50:31.910Z</time>
      </trkpt>
      <trkpt lat="47.38048" lon="-0.38717">
        <ele>77.8</ele>
        <time>2013-02-13T09:50:33.790Z</time>
      </trkpt>
      <trkpt lat="47.3805" lon="-0.38721">
        <ele>78</ele>
        <time>2013-02-13T09:50:34.910Z</time>
      </trkpt>
      <trkpt lat="47.38053" lon="-0.38728">
        <ele>77.8</ele>
        <time>2013-02-13T09:50:36.810Z</time>
      </trkpt>
      <trkpt lat="47.38055" lon="-0.38731">
        <ele>77.7</ele>
        <time>2013-02-13T09:50:37.810Z</time>
      </trkpt>
      <trkpt lat="47.38056" lon="-0.38735">
        <ele>77.5</ele>
        <time>2013-02-13T09:50:38.810Z</time>
      </trkpt>
      <trkpt lat="47.38058" lon="-0.38737">
        <ele>77.5</ele>
        <time>2013-02-13T09:50:39.810Z</time>
      </trkpt>
      <trkpt lat="47.38059" lon="-0.3874">
        <ele>77.4</ele>
        <time>2013-02-13T09:50:40.910Z</time>
      </trkpt>
      <trkpt lat="47.38059" lon="-0.38744">
        <ele>77.3</ele>
        <time>2013-02-13T09:50:42.830Z</time>
      </trkpt>
      <trkpt lat="47.38059" lon="-0.38746">
        <ele>77.2</ele>
        <time>2013-02-13T09:50:43.810Z</time>
      </trkpt>
      <trkpt lat="47.38061" lon="-0.38748">
        <ele>77.2</ele>
        <time>2013-02-13T09:50:44.890Z</time>
      </trkpt>
      <trkpt lat="47.38063" lon="-0.38753">
        <ele>77.3</ele>
        <time>2013-02-13T09:50:46.830Z</time>
      </trkpt>
      <trkpt lat="47.38064" lon="-0.38757">
        <ele>77.3</ele>
        <time>2013-02-13T09:50:47.910Z</time>
      </trkpt>
      <trkpt lat="47.38067" lon="-0.38764">
        <ele>77.4</ele>
        <time>2013-02-13T09:50:49.810Z</time>
      </trkpt>
      <trkpt lat="47.38069" lon="-0.38767">
        <ele>77.5</ele>
        <time>2013-02-13T09:50:50.890Z</time>
      </trkpt>
      <trkpt lat="47.38073" lon="-0.38774">
        <ele>77.6</ele>
        <time>2013-02-13T09:50:52.820Z</time>
      </trkpt>
      <trkpt lat="47.38075" lon="-0.38778">
        <ele>77.7</ele>
        <time>2013-02-13T09:50:53.810Z</time>
      </trkpt>
      <trkpt lat="47.38076" lon="-0.38781">
        <ele>77.7</ele>
        <time>2013-02-13T09:50:54.920Z</time>
      </trkpt>
      <trkpt lat="47.38079" lon="-0.38788">
        <ele>77.6</ele>
        <time>2013-02-13T09:50:56.820Z</time>
      </trkpt>
      <trkpt lat="47.3808" lon="-0.38791">
        <ele>77.5</ele>
        <time>2013-02-13T09:50:57.810Z</time>
      </trkpt>
      <trkpt lat="47.38082" lon="-0.38794">
        <ele>77.4</ele>
        <time>2013-02-13T09:50:58.910Z</time>
      </trkpt>
      <trkpt lat="47.38085" lon="-0.388">
        <ele>89</ele>
        <time>2013-02-13T09:51:00.770Z</time>
      </trkpt>
      <trkpt lat="47.38086" lon="-0.38803">
        <ele>77.2</ele>
        <time>2013-02-13T09:51:01.680Z</time>
      </trkpt>
      <trkpt lat="47.38087" lon="-0.38806">
        <ele>77.1</ele>
        <time>2013-02-13T09:51:02.790Z</time>
      </trkpt>
      <trkpt lat="47.38088" lon="-0.38809">
        <ele>77.3</ele>
        <time>2013-02-13T09:51:03.850Z</time>
      </trkpt>
      <trkpt lat="47.38089" lon="-0.38813">
        <ele>77.4</ele>
        <time>2013-02-13T09:51:04.800Z</time>
      </trkpt>
      <trkpt lat="47.3809" lon="-0.38816">
        <ele>77.5</ele>
        <time>2013-02-13T09:51:05.810Z</time>
      </trkpt>
      <trkpt lat="47.38091" lon="-0.38819">
        <ele>77.6</ele>
        <time>2013-02-13T09:51:07.000Z</time>
      </trkpt>
      <trkpt lat="47.38093" lon="-0.38826">
        <ele>77.8</ele>
        <time>2013-02-13T09:51:08.900Z</time>
      </trkpt>
      <trkpt lat="47.38095" lon="-0.38833">
        <ele>78</ele>
        <time>2013-02-13T09:51:10.840Z</time>
      </trkpt>
      <trkpt lat="47.38097" lon="-0.3884">
        <ele>78</ele>
        <time>2013-02-13T09:51:12.830Z</time>
      </trkpt>
      <trkpt lat="47.38099" lon="-0.38843">
        <ele>78</ele>
        <time>2013-02-13T09:51:13.800Z</time>
      </trkpt>
      <trkpt lat="47.381" lon="-0.38846">
        <ele>78</ele>
        <time>2013-02-13T09:51:14.880Z</time>
      </trkpt>
      <trkpt lat="47.38103" lon="-0.38853">
        <ele>78</ele>
        <time>2013-02-13T09:51:16.790Z</time>
      </trkpt>
      <trkpt lat="47.38104" lon="-0.38856">
        <ele>78</ele>
        <time>2013-02-13T09:51:17.800Z</time>
      </trkpt>
      <trkpt lat="47.38105" lon="-0.3886">
        <ele>78</ele>
        <time>2013-02-13T09:51:18.790Z</time>
      </trkpt>
      <trkpt lat="47.38106" lon="-0.38863">
        <ele>78</ele>
        <time>2013-02-13T09:51:19.800Z</time>
      </trkpt>
      <trkpt lat="47.38107" lon="-0.38867">
        <ele>78</ele>
        <time>2013-02-13T09:51:20.900Z</time>
      </trkpt>
      <trkpt lat="47.3811" lon="-0.38875">
        <ele>78</ele>
        <time>2013-02-13T09:51:22.770Z</time>
      </trkpt>
      <trkpt lat="47.38111" lon="-0.38879">
        <ele>78</ele>
        <time>2013-02-13T09:51:23.800Z</time>
      </trkpt>
      <trkpt lat="47.38112" lon="-0.38882">
        <ele>78</ele>
        <time>2013-02-13T09:51:24.800Z</time>
      </trkpt>
      <trkpt lat="47.38113" lon="-0.38886">
        <ele>78</ele>
        <time>2013-02-13T09:51:25.800Z</time>
      </trkpt>
      <trkpt lat="47.38114" lon="-0.3889">
        <ele>78</ele>
        <time>2013-02-13T09:51:26.900Z</time>
      </trkpt>
      <trkpt lat="47.38115" lon="-0.38897">
        <ele>78</ele>
        <time>2013-02-13T09:51:28.820Z</time>
      </trkpt>
      <trkpt lat="47.38115" lon="-0.389">
        <ele>78</ele>
        <time>2013-02-13T09:51:29.800Z</time>
      </trkpt>
      <trkpt lat="47.38116" lon="-0.38904">
        <ele>78</ele>
        <time>2013-02-13T09:51:30.840Z</time>
      </trkpt>
      <trkpt lat="47.38116" lon="-0.38907">
        <ele>78</ele>
        <time>2013-02-13T09:51:31.800Z</time>
      </trkpt>
      <trkpt lat="47.38117" lon="-0.38911">
        <ele>78</ele>
        <time>2013-02-13T09:51:32.900Z</time>
      </trkpt>
      <trkpt lat="47.38118" lon="-0.38918">
        <ele>78</ele>
        <time>2013-02-13T09:51:34.800Z</time>
      </trkpt>
      <trkpt lat="47.38119" lon="-0.38922">
        <ele>78</ele>
        <time>2013-02-13T09:51:35.790Z</time>
      </trkpt>
      <trkpt lat="47.3812" lon="-0.38925">
        <ele>78</ele>
        <time>2013-02-13T09:51:36.900Z</time>
      </trkpt>
      <trkpt lat="47.38122" lon="-0.38931">
        <ele>78</ele>
        <time>2013-02-13T09:51:38.800Z</time>
      </trkpt>
      <trkpt lat="47.38122" lon="-0.38934">
        <ele>78</ele>
        <time>2013-02-13T09:51:39.800Z</time>
      </trkpt>
      <trkpt lat="47.38123" lon="-0.38938">
        <ele>78</ele>
        <time>2013-02-13T09:51:40.800Z</time>
      </trkpt>
      <trkpt lat="47.38123" lon="-0.38942">
        <ele>78</ele>
        <time>2013-02-13T09:51:41.800Z</time>
      </trkpt>
      <trkpt lat="47.38124" lon="-0.38946">
        <ele>78</ele>
        <time>2013-02-13T09:51:42.900Z</time>
      </trkpt>
      <trkpt lat="47.38125" lon="-0.38953">
        <ele>78</ele>
        <time>2013-02-13T09:51:44.830Z</time>
      </trkpt>
      <trkpt lat="47.38125" lon="-0.38956">
        <ele>78</ele>
        <time>2013-02-13T09:51:45.800Z</time>
      </trkpt>
      <trkpt lat="47.38126" lon="-0.3896">
        <ele>78</ele>
        <time>2013-02-13T09:51:46.790Z</time>
      </trkpt>
      <trkpt lat="47.38126" lon="-0.38964">
        <ele>78</ele>
        <time>2013-02-13T09:51:47.790Z</time>
      </trkpt>
      <trkpt lat="47.38127" lon="-0.38968">
        <ele>78</ele>
        <time>2013-02-13T09:51:48.790Z</time>
      </trkpt>
      <trkpt lat="47.38129" lon="-0.38974">
        <ele>78</ele>
        <time>2013-02-13T09:51:50.780Z</time>
      </trkpt>
      <trkpt lat="47.3813" lon="-0.38977">
        <ele>78</ele>
        <time>2013-02-13T09:51:51.790Z</time>
      </trkpt>
      <trkpt lat="47.38131" lon="-0.3898">
        <ele>78</ele>
        <time>2013-02-13T09:51:52.920Z</time>
      </trkpt>
      <trkpt lat="47.38132" lon="-0.38987">
        <ele>78</ele>
        <time>2013-02-13T09:51:54.830Z</time>
      </trkpt>
      <trkpt lat="47.38133" lon="-0.3899">
        <ele>78</ele>
        <time>2013-02-13T09:51:55.790Z</time>
      </trkpt>
      <trkpt lat="47.38134" lon="-0.38993">
        <ele>78</ele>
        <time>2013-02-13T09:51:56.940Z</time>
      </trkpt>
      <trkpt lat="47.38135" lon="-0.39001">
        <ele>78</ele>
        <time>2013-02-13T09:51:58.840Z</time>
      </trkpt>
      <trkpt lat="47.38136" lon="-0.39004">
        <ele>78</ele>
        <time>2013-02-13T09:51:59.800Z</time>
      </trkpt>
      <trkpt lat="47.38137" lon="-0.39012">
        <ele>87.2</ele>
        <time>2013-02-13T09:52:01.770Z</time>
      </trkpt>
      <trkpt lat="47.38138" lon="-0.39015">
        <ele>78</ele>
        <time>2013-02-13T09:52:02.790Z</time>
      </trkpt>
      <trkpt lat="47.38139" lon="-0.39019">
        <ele>78</ele>
        <time>2013-02-13T09:52:03.790Z</time>
      </trkpt>
      <trkpt lat="47.3814" lon="-0.39023">
        <ele>78</ele>
        <time>2013-02-13T09:52:04.890Z</time>
      </trkpt>
      <trkpt lat="47.38141" lon="-0.39031">
        <ele>78</ele>
        <time>2013-02-13T09:52:06.830Z</time>
      </trkpt>
      <trkpt lat="47.38141" lon="-0.39035">
        <ele>78</ele>
        <time>2013-02-13T09:52:07.790Z</time>
      </trkpt>
      <trkpt lat="47.38142" lon="-0.39039">
        <ele>78</ele>
        <time>2013-02-13T09:52:08.790Z</time>
      </trkpt>
      <trkpt lat="47.38143" lon="-0.39043">
        <ele>78</ele>
        <time>2013-02-13T09:52:09.790Z</time>
      </trkpt>
      <trkpt lat="47.38143" lon="-0.39048">
        <ele>78</ele>
        <time>2013-02-13T09:52:10.850Z</time>
      </trkpt>
      <trkpt lat="47.38144" lon="-0.39056">
        <ele>78</ele>
        <time>2013-02-13T09:52:12.790Z</time>
      </trkpt>
      <trkpt lat="47.38145" lon="-0.3906">
        <ele>78</ele>
        <time>2013-02-13T09:52:13.790Z</time>
      </trkpt>
      <trkpt lat="47.38144" lon="-0.39064">
        <ele>78.1</ele>
        <time>2013-02-13T09:52:14.890Z</time>
      </trkpt>
      <trkpt lat="47.38145" lon="-0.39071">
        <ele>78.1</ele>
        <time>2013-02-13T09:52:16.680Z</time>
      </trkpt>
      <trkpt lat="47.38145" lon="-0.39076">
        <ele>78.1</ele>
        <time>2013-02-13T09:52:17.770Z</time>
      </trkpt>
      <trkpt lat="47.38144" lon="-0.3908">
        <ele>78.2</ele>
        <time>2013-02-13T09:52:18.830Z</time>
      </trkpt>
      <trkpt lat="47.38145" lon="-0.39084">
        <ele>78.2</ele>
        <time>2013-02-13T09:52:19.890Z</time>
      </trkpt>
      <trkpt lat="47.38145" lon="-0.39092">
        <ele>78.2</ele>
        <time>2013-02-13T09:52:21.780Z</time>
      </trkpt>
      <trkpt lat="47.38145" lon="-0.39096">
        <ele>78.2</ele>
        <time>2013-02-13T09:52:22.830Z</time>
      </trkpt>
      <trkpt lat="47.38145" lon="-0.39099">
        <ele>78.2</ele>
        <time>2013-02-13T09:52:23.780Z</time>
      </trkpt>
      <trkpt lat="47.38145" lon="-0.39103">
        <ele>78.2</ele>
        <time>2013-02-13T09:52:24.770Z</time>
      </trkpt>
      <trkpt lat="47.38145" lon="-0.39107">
        <ele>78.2</ele>
        <time>2013-02-13T09:52:25.780Z</time>
      </trkpt>
      <trkpt lat="47.38146" lon="-0.39116">
        <ele>78.4</ele>
        <time>2013-02-13T09:52:27.780Z</time>
      </trkpt>
      <trkpt lat="47.38147" lon="-0.3912">
        <ele>78.5</ele>
        <time>2013-02-13T09:52:28.880Z</time>
      </trkpt>
      <trkpt lat="47.38149" lon="-0.39129">
        <ele>78.8</ele>
        <time>2013-02-13T09:52:30.770Z</time>
      </trkpt>
      <trkpt lat="47.38149" lon="-0.39133">
        <ele>78.9</ele>
        <time>2013-02-13T09:52:31.780Z</time>
      </trkpt>
      <trkpt lat="47.3815" lon="-0.39137">
        <ele>79</ele>
        <time>2013-02-13T09:52:32.880Z</time>
      </trkpt>
      <trkpt lat="47.38151" lon="-0.39144">
        <ele>79</ele>
        <time>2013-02-13T09:52:34.830Z</time>
      </trkpt>
      <trkpt lat="47.38153" lon="-0.39151">
        <ele>79</ele>
        <time>2013-02-13T09:52:36.830Z</time>
      </trkpt>
      <trkpt lat="47.38154" lon="-0.39155">
        <ele>79</ele>
        <time>2013-02-13T09:52:37.780Z</time>
      </trkpt>
      <trkpt lat="47.38155" lon="-0.39158">
        <ele>79</ele>
        <time>2013-02-13T09:52:38.880Z</time>
      </trkpt>
      <trkpt lat="47.38156" lon="-0.39166">
        <ele>79</ele>
        <time>2013-02-13T09:52:40.770Z</time>
      </trkpt>
      <trkpt lat="47.38157" lon="-0.3917">
        <ele>79</ele>
        <time>2013-02-13T09:52:41.770Z</time>
      </trkpt>
      <trkpt lat="47.38158" lon="-0.39174">
        <ele>79</ele>
        <time>2013-02-13T09:52:42.910Z</time>
      </trkpt>
      <trkpt lat="47.3816" lon="-0.39182">
        <ele>79</ele>
        <time>2013-02-13T09:52:44.830Z</time>
      </trkpt>
      <trkpt lat="47.38161" lon="-0.39186">
        <ele>79</ele>
        <time>2013-02-13T09:52:45.780Z</time>
      </trkpt>
      <trkpt lat="47.38163" lon="-0.3919">
        <ele>79</ele>
        <time>2013-02-13T09:52:46.980Z</time>
      </trkpt>
      <trkpt lat="47.38165" lon="-0.39196">
        <ele>79.1</ele>
        <time>2013-02-13T09:52:48.820Z</time>
      </trkpt>
      <trkpt lat="47.38167" lon="-0.392">
        <ele>79.2</ele>
        <time>2013-02-13T09:52:49.780Z</time>
      </trkpt>
      <trkpt lat="47.38168" lon="-0.39204">
        <ele>79.4</ele>
        <time>2013-02-13T09:52:50.850Z</time>
      </trkpt>
      <trkpt lat="47.38171" lon="-0.3921">
        <ele>79.6</ele>
        <time>2013-02-13T09:52:52.880Z</time>
      </trkpt>
      <trkpt lat="47.38174" lon="-0.39217">
        <ele>79.9</ele>
        <time>2013-02-13T09:52:54.850Z</time>
      </trkpt>
      <trkpt lat="47.38177" lon="-0.39224">
        <ele>80</ele>
        <time>2013-02-13T09:52:56.880Z</time>
      </trkpt>
      <trkpt lat="47.3818" lon="-0.3923">
        <ele>80</ele>
        <time>2013-02-13T09:52:58.830Z</time>
      </trkpt>
      <trkpt lat="47.38181" lon="-0.39233">
        <ele>80</ele>
        <time>2013-02-13T09:52:59.700Z</time>
      </trkpt>
      <trkpt lat="47.38182" lon="-0.39237">
        <ele>89.1</ele>
        <time>2013-02-13T09:53:00.780Z</time>
      </trkpt>
      <trkpt lat="47.38183" lon="-0.3924">
        <ele>80</ele>
        <time>2013-02-13T09:53:01.820Z</time>
      </trkpt>
      <trkpt lat="47.38185" lon="-0.39243">
        <ele>80</ele>
        <time>2013-02-13T09:53:02.980Z</time>
      </trkpt>
      <trkpt lat="47.38188" lon="-0.39249">
        <ele>80</ele>
        <time>2013-02-13T09:53:04.780Z</time>
      </trkpt>
      <trkpt lat="47.3819" lon="-0.39252">
        <ele>80</ele>
        <time>2013-02-13T09:53:05.780Z</time>
      </trkpt>
      <trkpt lat="47.38192" lon="-0.39256">
        <ele>80</ele>
        <time>2013-02-13T09:53:06.980Z</time>
      </trkpt>
      <trkpt lat="47.38195" lon="-0.39261">
        <ele>80</ele>
        <time>2013-02-13T09:53:08.870Z</time>
      </trkpt>
      <trkpt lat="47.38197" lon="-0.39268">
        <ele>80</ele>
        <time>2013-02-13T09:53:10.910Z</time>
      </trkpt>
      <trkpt lat="47.38201" lon="-0.39274">
        <ele>80</ele>
        <time>2013-02-13T09:53:12.770Z</time>
      </trkpt>
      <trkpt lat="47.38203" lon="-0.39276">
        <ele>80</ele>
        <time>2013-02-13T09:53:13.870Z</time>
      </trkpt>
      <trkpt lat="47.38205" lon="-0.39279">
        <ele>80</ele>
        <time>2013-02-13T09:53:14.910Z</time>
      </trkpt>
      <trkpt lat="47.38208" lon="-0.39285">
        <ele>80</ele>
        <time>2013-02-13T09:53:16.840Z</time>
      </trkpt>
      <trkpt lat="47.3821" lon="-0.39288">
        <ele>80</ele>
        <time>2013-02-13T09:53:17.790Z</time>
      </trkpt>
      <trkpt lat="47.38211" lon="-0.3929">
        <ele>80</ele>
        <time>2013-02-13T09:53:18.910Z</time>
      </trkpt>
      <trkpt lat="47.38213" lon="-0.39296">
        <ele>80</ele>
        <time>2013-02-13T09:53:20.670Z</time>
      </trkpt>
      <trkpt lat="47.38214" lon="-0.39299">
        <ele>80</ele>
        <time>2013-02-13T09:53:21.670Z</time>
      </trkpt>
      <trkpt lat="47.38215" lon="-0.39302">
        <ele>80</ele>
        <time>2013-02-13T09:53:22.670Z</time>
      </trkpt>
      <trkpt lat="47.38217" lon="-0.39305">
        <ele>80</ele>
        <time>2013-02-13T09:53:23.670Z</time>
      </trkpt>
      <trkpt lat="47.38218" lon="-0.39308">
        <ele>80</ele>
        <time>2013-02-13T09:53:24.820Z</time>
      </trkpt>
      <trkpt lat="47.3822" lon="-0.39311">
        <ele>80</ele>
        <time>2013-02-13T09:53:25.780Z</time>
      </trkpt>
      <trkpt lat="47.38221" lon="-0.39314">
        <ele>80</ele>
        <time>2013-02-13T09:53:26.820Z</time>
      </trkpt>
      <trkpt lat="47.38222" lon="-0.39318">
        <ele>80</ele>
        <time>2013-02-13T09:53:27.850Z</time>
      </trkpt>
      <trkpt lat="47.38223" lon="-0.39322">
        <ele>80</ele>
        <time>2013-02-13T09:53:28.830Z</time>
      </trkpt>
      <trkpt lat="47.38222" lon="-0.39331">
        <ele>80</ele>
        <time>2013-02-13T09:53:30.830Z</time>
      </trkpt>
      <trkpt lat="47.38221" lon="-0.39334">
        <ele>80</ele>
        <time>2013-02-13T09:53:31.850Z</time>
      </trkpt>
      <trkpt lat="47.38217" lon="-0.3934">
        <ele>79.8</ele>
        <time>2013-02-13T09:53:33.780Z</time>
      </trkpt>
      <trkpt lat="47.38214" lon="-0.39342">
        <ele>79.8</ele>
        <time>2013-02-13T09:53:34.850Z</time>
      </trkpt>
      <trkpt lat="47.38209" lon="-0.39344">
        <ele>79.8</ele>
        <time>2013-02-13T09:53:36.670Z</time>
      </trkpt>
      <trkpt lat="47.38206" lon="-0.39345">
        <ele>79.8</ele>
        <time>2013-02-13T09:53:37.770Z</time>
      </trkpt>
      <trkpt lat="47.38204" lon="-0.39346">
        <ele>79.8</ele>
        <time>2013-02-13T09:53:38.830Z</time>
      </trkpt>
      <trkpt lat="47.38201" lon="-0.39348">
        <ele>79.9</ele>
        <time>2013-02-13T09:53:39.850Z</time>
      </trkpt>
      <trkpt lat="47.382" lon="-0.3935">
        <ele>79.9</ele>
        <time>2013-02-13T09:53:40.910Z</time>
      </trkpt>
      <trkpt lat="47.38201" lon="-0.39354">
        <ele>79.8</ele>
        <time>2013-02-13T09:53:42.670Z</time>
      </trkpt>
      <trkpt lat="47.38202" lon="-0.39355">
        <ele>79.8</ele>
        <time>2013-02-13T09:53:43.670Z</time>
      </trkpt>
      <trkpt lat="47.38203" lon="-0.39354">
        <ele>79.8</ele>
        <time>2013-02-13T09:53:44.830Z</time>
      </trkpt>
      <trkpt lat="47.38204" lon="-0.39355">
        <ele>79.7</ele>
        <time>2013-02-13T09:53:46.820Z</time>
      </trkpt>
      <trkpt lat="47.38205" lon="-0.39357">
        <ele>79.7</ele>
        <time>2013-02-13T09:53:49.770Z</time>
      </trkpt>
      <trkpt lat="47.38206" lon="-0.39356">
        <ele>79.7</ele>
        <time>2013-02-13T09:53:51.780Z</time>
      </trkpt>
      <trkpt lat="47.38206" lon="-0.39354">
        <ele>79.7</ele>
        <time>2013-02-13T09:53:53.850Z</time>
      </trkpt>
      <trkpt lat="47.38204" lon="-0.39354">
        <ele>79.7</ele>
        <time>2013-02-13T09:53:54.770Z</time>
      </trkpt>
      <trkpt lat="47.38203" lon="-0.39355">
        <ele>79.8</ele>
        <time>2013-02-13T09:53:55.770Z</time>
      </trkpt>
      <trkpt lat="47.38202" lon="-0.39357">
        <ele>79.8</ele>
        <time>2013-02-13T09:53:56.910Z</time>
      </trkpt>
      <trkpt lat="47.38203" lon="-0.39364">
        <ele>79.7</ele>
        <time>2013-02-13T09:53:58.670Z</time>
      </trkpt>
      <trkpt lat="47.38204" lon="-0.39368">
        <ele>79.7</ele>
        <time>2013-02-13T09:53:59.700Z</time>
      </trkpt>
      <trkpt lat="47.38205" lon="-0.39372">
        <ele>80.8</ele>
        <time>2013-02-13T09:54:00.670Z</time>
      </trkpt>
      <trkpt lat="47.38206" lon="-0.39376">
        <ele>79.6</ele>
        <time>2013-02-13T09:54:01.670Z</time>
      </trkpt>
      <trkpt lat="47.38207" lon="-0.39379">
        <ele>79.5</ele>
        <time>2013-02-13T09:54:02.670Z</time>
      </trkpt>
      <trkpt lat="47.38208" lon="-0.39383">
        <ele>79.5</ele>
        <time>2013-02-13T09:54:03.770Z</time>
      </trkpt>
      <trkpt lat="47.3821" lon="-0.39387">
        <ele>79.4</ele>
        <time>2013-02-13T09:54:04.820Z</time>
      </trkpt>
      <trkpt lat="47.38211" lon="-0.3939">
        <ele>79.4</ele>
        <time>2013-02-13T09:54:05.770Z</time>
      </trkpt>
      <trkpt lat="47.38212" lon="-0.39394">
        <ele>79.3</ele>
        <time>2013-02-13T09:54:06.830Z</time>
      </trkpt>
      <trkpt lat="47.38213" lon="-0.39398">
        <ele>79.2</ele>
        <time>2013-02-13T09:54:07.770Z</time>
      </trkpt>
      <trkpt lat="47.38214" lon="-0.39402">
        <ele>79.2</ele>
        <time>2013-02-13T09:54:08.840Z</time>
      </trkpt>
      <trkpt lat="47.38215" lon="-0.39406">
        <ele>79.1</ele>
        <time>2013-02-13T09:54:09.850Z</time>
      </trkpt>
      <trkpt lat="47.38217" lon="-0.39413">
        <ele>79</ele>
        <time>2013-02-13T09:54:11.770Z</time>
      </trkpt>
      <trkpt lat="47.38218" lon="-0.39416">
        <ele>79</ele>
        <time>2013-02-13T09:54:12.830Z</time>
      </trkpt>
      <trkpt lat="47.38219" lon="-0.39419">
        <ele>79</ele>
        <time>2013-02-13T09:54:13.850Z</time>
      </trkpt>
      <trkpt lat="47.3822" lon="-0.39421">
        <ele>79</ele>
        <time>2013-02-13T09:54:14.830Z</time>
      </trkpt>
      <trkpt lat="47.38222" lon="-0.39425">
        <ele>79</ele>
        <time>2013-02-13T09:54:16.830Z</time>
      </trkpt>
      <trkpt lat="47.38223" lon="-0.39426">
        <ele>79</ele>
        <time>2013-02-13T09:54:39.770Z</time>
      </trkpt>
      <trkpt lat="47.38224" lon="-0.39427">
        <ele>79</ele>
        <time>2013-02-13T09:54:42.860Z</time>
      </trkpt>
      <trkpt lat="47.38223" lon="-0.39429">
        <ele>79</ele>
        <time>2013-02-13T09:54:44.670Z</time>
      </trkpt>
      <trkpt lat="47.38223" lon="-0.39431">
        <ele>79</ele>
        <time>2013-02-13T09:54:45.670Z</time>
      </trkpt>
      <trkpt lat="47.38224" lon="-0.39433">
        <ele>79</ele>
        <time>2013-02-13T09:54:46.670Z</time>
      </trkpt>
      <trkpt lat="47.38224" lon="-0.39434">
        <ele>79</ele>
        <time>2013-02-13T09:54:47.670Z</time>
      </trkpt>
      <trkpt lat="47.38224" lon="-0.39435">
        <ele>79</ele>
        <time>2013-02-13T09:54:48.890Z</time>
      </trkpt>
      <trkpt lat="47.38225" lon="-0.39439">
        <ele>79</ele>
        <time>2013-02-13T09:54:50.680Z</time>
      </trkpt>
      <trkpt lat="47.38226" lon="-0.39442">
        <ele>79</ele>
        <time>2013-02-13T09:54:52.670Z</time>
      </trkpt>
      <trkpt lat="47.38226" lon="-0.39443">
        <ele>79</ele>
        <time>2013-02-13T09:54:53.670Z</time>
      </trkpt>
      <trkpt lat="47.38227" lon="-0.39445">
        <ele>79</ele>
        <time>2013-02-13T09:54:54.840Z</time>
      </trkpt>
      <trkpt lat="47.38228" lon="-0.39447">
        <ele>79</ele>
        <time>2013-02-13T09:54:56.830Z</time>
      </trkpt>
      <trkpt lat="47.38231" lon="-0.39451">
        <ele>79</ele>
        <time>2013-02-13T09:54:58.910Z</time>
      </trkpt>
      <trkpt lat="47.38233" lon="-0.39454">
        <ele>79.7</ele>
        <time>2013-02-13T09:55:00.830Z</time>
      </trkpt>
      <trkpt lat="47.38232" lon="-0.39458">
        <ele>79</ele>
        <time>2013-02-13T09:55:02.910Z</time>
      </trkpt>
      <trkpt lat="47.38232" lon="-0.39462">
        <ele>79</ele>
        <time>2013-02-13T09:55:04.670Z</time>
      </trkpt>
      <trkpt lat="47.38232" lon="-0.39465">
        <ele>79</ele>
        <time>2013-02-13T09:55:05.770Z</time>
      </trkpt>
      <trkpt lat="47.38233" lon="-0.39469">
        <ele>79</ele>
        <time>2013-02-13T09:55:06.840Z</time>
      </trkpt>
      <trkpt lat="47.38233" lon="-0.39473">
        <ele>79</ele>
        <time>2013-02-13T09:55:08.670Z</time>
      </trkpt>
      <trkpt lat="47.38233" lon="-0.39474">
        <ele>79</ele>
        <time>2013-02-13T09:55:10.770Z</time>
      </trkpt>
      <trkpt lat="47.38232" lon="-0.39474">
        <ele>80.8</ele>
        <time>2013-02-13T09:56:00.770Z</time>
      </trkpt>
      <trkpt lat="47.38231" lon="-0.39475">
        <ele>79</ele>
        <time>2013-02-13T09:56:25.770Z</time>
      </trkpt>
      <trkpt lat="47.38232" lon="-0.39476">
        <ele>79</ele>
        <time>2013-02-13T09:56:27.780Z</time>
      </trkpt>
      <trkpt lat="47.38233" lon="-0.39479">
        <ele>79</ele>
        <time>2013-02-13T09:56:29.780Z</time>
      </trkpt>
      <trkpt lat="47.38233" lon="-0.39481">
        <ele>79</ele>
        <time>2013-02-13T09:56:30.770Z</time>
      </trkpt>
      <trkpt lat="47.38233" lon="-0.39482">
        <ele>79</ele>
        <time>2013-02-13T09:56:31.780Z</time>
      </trkpt>
      <trkpt lat="47.38234" lon="-0.39483">
        <ele>79</ele>
        <time>2013-02-13T09:56:33.620Z</time>
      </trkpt>
      <trkpt lat="47.38235" lon="-0.39484">
        <ele>79</ele>
        <time>2013-02-13T09:56:34.830Z</time>
      </trkpt>
      <trkpt lat="47.38236" lon="-0.39488">
        <ele>79</ele>
        <time>2013-02-13T09:56:36.930Z</time>
      </trkpt>
      <trkpt lat="47.38237" lon="-0.3949">
        <ele>79</ele>
        <time>2013-02-13T09:56:38.840Z</time>
      </trkpt>
      <trkpt lat="47.38237" lon="-0.39492">
        <ele>79</ele>
        <time>2013-02-13T09:56:40.620Z</time>
      </trkpt>
      <trkpt lat="47.38237" lon="-0.39494">
        <ele>79</ele>
        <time>2013-02-13T09:56:41.780Z</time>
      </trkpt>
      <trkpt lat="47.38238" lon="-0.39495">
        <ele>79</ele>
        <time>2013-02-13T09:56:42.840Z</time>
      </trkpt>
      <trkpt lat="47.3824" lon="-0.39499">
        <ele>79</ele>
        <time>2013-02-13T09:56:44.620Z</time>
      </trkpt>
      <trkpt lat="47.38241" lon="-0.395">
        <ele>79</ele>
        <time>2013-02-13T09:56:45.770Z</time>
      </trkpt>
      <trkpt lat="47.38242" lon="-0.39501">
        <ele>79</ele>
        <time>2013-02-13T09:56:46.840Z</time>
      </trkpt>
      <trkpt lat="47.38243" lon="-0.39502">
        <ele>79</ele>
        <time>2013-02-13T09:56:48.620Z</time>
      </trkpt>
      <trkpt lat="47.38244" lon="-0.39504">
        <ele>79</ele>
        <time>2013-02-13T09:56:50.850Z</time>
      </trkpt>
      <trkpt lat="47.38246" lon="-0.39506">
        <ele>79</ele>
        <time>2013-02-13T09:56:52.620Z</time>
      </trkpt>
      <trkpt lat="47.38247" lon="-0.39507">
        <ele>79</ele>
        <time>2013-02-13T09:56:53.820Z</time>
      </trkpt>
      <trkpt lat="47.38247" lon="-0.39508">
        <ele>79</ele>
        <time>2013-02-13T09:56:54.820Z</time>
      </trkpt>
      <trkpt lat="47.38248" lon="-0.3951">
        <ele>79</ele>
        <time>2013-02-13T09:56:55.820Z</time>
      </trkpt>
      <trkpt lat="47.38248" lon="-0.39511">
        <ele>79</ele>
        <time>2013-02-13T09:56:56.920Z</time>
      </trkpt>
      <trkpt lat="47.38249" lon="-0.39513">
        <ele>79</ele>
        <time>2013-02-13T09:56:58.860Z</time>
      </trkpt>
      <trkpt lat="47.3825" lon="-0.39517">
        <ele>79</ele>
        <time>2013-02-13T09:57:00.920Z</time>
      </trkpt>
      <trkpt lat="47.38252" lon="-0.39519">
        <ele>79</ele>
        <time>2013-02-13T09:57:02.840Z</time>
      </trkpt>
      <trkpt lat="47.38253" lon="-0.3952">
        <ele>79.1</ele>
        <time>2013-02-13T09:57:03.820Z</time>
      </trkpt>
      <trkpt lat="47.38253" lon="-0.39522">
        <ele>79.1</ele>
        <time>2013-02-13T09:57:04.920Z</time>
      </trkpt>
      <trkpt lat="47.38254" lon="-0.39526">
        <ele>79.1</ele>
        <time>2013-02-13T09:57:06.830Z</time>
      </trkpt>
      <trkpt lat="47.38255" lon="-0.39529">
        <ele>79.2</ele>
        <time>2013-02-13T09:57:07.820Z</time>
      </trkpt>
      <trkpt lat="47.38256" lon="-0.39532">
        <ele>79.3</ele>
        <time>2013-02-13T09:57:08.820Z</time>
      </trkpt>
      <trkpt lat="47.38256" lon="-0.39535">
        <ele>79.4</ele>
        <time>2013-02-13T09:57:09.820Z</time>
      </trkpt>
      <trkpt lat="47.38257" lon="-0.39539">
        <ele>79.6</ele>
        <time>2013-02-13T09:57:10.920Z</time>
      </trkpt>
      <trkpt lat="47.38258" lon="-0.39547">
        <ele>79.8</ele>
        <time>2013-02-13T09:57:12.920Z</time>
      </trkpt>
      <trkpt lat="47.38259" lon="-0.39554">
        <ele>80</ele>
        <time>2013-02-13T09:57:14.830Z</time>
      </trkpt>
      <trkpt lat="47.3826" lon="-0.39558">
        <ele>80</ele>
        <time>2013-02-13T09:57:15.900Z</time>
      </trkpt>
      <trkpt lat="47.38261" lon="-0.39565">
        <ele>80</ele>
        <time>2013-02-13T09:57:17.770Z</time>
      </trkpt>
      <trkpt lat="47.38261" lon="-0.39569">
        <ele>80</ele>
        <time>2013-02-13T09:57:18.830Z</time>
      </trkpt>
      <trkpt lat="47.38262" lon="-0.39572">
        <ele>80</ele>
        <time>2013-02-13T09:57:19.910Z</time>
      </trkpt>
      <trkpt lat="47.38262" lon="-0.3958">
        <ele>80</ele>
        <time>2013-02-13T09:57:21.780Z</time>
      </trkpt>
      <trkpt lat="47.38262" lon="-0.39584">
        <ele>80</ele>
        <time>2013-02-13T09:57:22.770Z</time>
      </trkpt>
      <trkpt lat="47.38263" lon="-0.39588">
        <ele>80</ele>
        <time>2013-02-13T09:57:23.860Z</time>
      </trkpt>
      <trkpt lat="47.38263" lon="-0.39591">
        <ele>80</ele>
        <time>2013-02-13T09:57:24.910Z</time>
      </trkpt>
      <trkpt lat="47.38264" lon="-0.39595">
        <ele>80</ele>
        <time>2013-02-13T09:57:26.100Z</time>
      </trkpt>
      <trkpt lat="47.38264" lon="-0.39603">
        <ele>80</ele>
        <time>2013-02-13T09:57:27.710Z</time>
      </trkpt>
      <trkpt lat="47.38264" lon="-0.39607">
        <ele>80</ele>
        <time>2013-02-13T09:57:28.720Z</time>
      </trkpt>
      <trkpt lat="47.38264" lon="-0.39611">
        <ele>80</ele>
        <time>2013-02-13T09:57:29.710Z</time>
      </trkpt>
      <trkpt lat="47.38264" lon="-0.39614">
        <ele>80</ele>
        <time>2013-02-13T09:57:31.070Z</time>
      </trkpt>
      <trkpt lat="47.38264" lon="-0.39622">
        <ele>80</ele>
        <time>2013-02-13T09:57:32.780Z</time>
      </trkpt>
      <trkpt lat="47.38264" lon="-0.39625">
        <ele>80</ele>
        <time>2013-02-13T09:57:33.790Z</time>
      </trkpt>
      <trkpt lat="47.38262" lon="-0.39627">
        <ele>80</ele>
        <time>2013-02-13T09:57:34.910Z</time>
      </trkpt>
      <trkpt lat="47.38257" lon="-0.39633">
        <ele>80</ele>
        <time>2013-02-13T09:57:36.830Z</time>
      </trkpt>
      <trkpt lat="47.38255" lon="-0.39635">
        <ele>80</ele>
        <time>2013-02-13T09:57:37.810Z</time>
      </trkpt>
      <trkpt lat="47.38252" lon="-0.39636">
        <ele>80</ele>
        <time>2013-02-13T09:57:38.900Z</time>
      </trkpt>
      <trkpt lat="47.38248" lon="-0.39639">
        <ele>80</ele>
        <time>2013-02-13T09:57:40.910Z</time>
      </trkpt>
      <trkpt lat="47.38243" lon="-0.39641">
        <ele>80</ele>
        <time>2013-02-13T09:57:42.770Z</time>
      </trkpt>
      <trkpt lat="47.38241" lon="-0.39642">
        <ele>80</ele>
        <time>2013-02-13T09:57:43.770Z</time>
      </trkpt>
      <trkpt lat="47.38239" lon="-0.39644">
        <ele>80</ele>
        <time>2013-02-13T09:57:44.910Z</time>
      </trkpt>
      <trkpt lat="47.38234" lon="-0.39648">
        <ele>80</ele>
        <time>2013-02-13T09:57:46.830Z</time>
      </trkpt>
      <trkpt lat="47.38232" lon="-0.3965">
        <ele>80</ele>
        <time>2013-02-13T09:57:47.810Z</time>
      </trkpt>
      <trkpt lat="47.38229" lon="-0.39651">
        <ele>80</ele>
        <time>2013-02-13T09:57:49.010Z</time>
      </trkpt>
      <trkpt lat="47.38225" lon="-0.39658">
        <ele>80</ele>
        <time>2013-02-13T09:57:50.840Z</time>
      </trkpt>
      <trkpt lat="47.38222" lon="-0.39663">
        <ele>80</ele>
        <time>2013-02-13T09:57:53.010Z</time>
      </trkpt>
      <trkpt lat="47.38218" lon="-0.39668">
        <ele>80</ele>
        <time>2013-02-13T09:57:54.800Z</time>
      </trkpt>
      <trkpt lat="47.38217" lon="-0.39672">
        <ele>80</ele>
        <time>2013-02-13T09:57:55.800Z</time>
      </trkpt>
      <trkpt lat="47.38216" lon="-0.39676">
        <ele>80</ele>
        <time>2013-02-13T09:57:57.000Z</time>
      </trkpt>
      <trkpt lat="47.38216" lon="-0.39683">
        <ele>80</ele>
        <time>2013-02-13T09:57:58.910Z</time>
      </trkpt>
      <trkpt lat="47.38217" lon="-0.3969">
        <ele>79.6</ele>
        <time>2013-02-13T09:58:00.830Z</time>
      </trkpt>
      <trkpt lat="47.38219" lon="-0.39698">
        <ele>80</ele>
        <time>2013-02-13T09:58:02.900Z</time>
      </trkpt>
      <trkpt lat="47.38221" lon="-0.39705">
        <ele>80</ele>
        <time>2013-02-13T09:58:04.830Z</time>
      </trkpt>
      <trkpt lat="47.38222" lon="-0.39713">
        <ele>80</ele>
        <time>2013-02-13T09:58:06.830Z</time>
      </trkpt>
      <trkpt lat="47.38223" lon="-0.39716">
        <ele>80</ele>
        <time>2013-02-13T09:58:07.800Z</time>
      </trkpt>
      <trkpt lat="47.38224" lon="-0.39719">
        <ele>80</ele>
        <time>2013-02-13T09:58:08.800Z</time>
      </trkpt>
      <trkpt lat="47.38225" lon="-0.39722">
        <ele>80</ele>
        <time>2013-02-13T09:58:09.800Z</time>
      </trkpt>
      <trkpt lat="47.38226" lon="-0.39725">
        <ele>80</ele>
        <time>2013-02-13T09:58:10.900Z</time>
      </trkpt>
      <trkpt lat="47.38228" lon="-0.39732">
        <ele>80.1</ele>
        <time>2013-02-13T09:58:12.770Z</time>
      </trkpt>
      <trkpt lat="47.38229" lon="-0.39736">
        <ele>80.1</ele>
        <time>2013-02-13T09:58:13.800Z</time>
      </trkpt>
      <trkpt lat="47.3823" lon="-0.39739">
        <ele>80.2</ele>
        <time>2013-02-13T09:58:14.880Z</time>
      </trkpt>
      <trkpt lat="47.38232" lon="-0.39746">
        <ele>80.3</ele>
        <time>2013-02-13T09:58:16.680Z</time>
      </trkpt>
      <trkpt lat="47.38233" lon="-0.39749">
        <ele>80.4</ele>
        <time>2013-02-13T09:58:17.780Z</time>
      </trkpt>
      <trkpt lat="47.38234" lon="-0.39752">
        <ele>80.4</ele>
        <time>2013-02-13T09:58:18.770Z</time>
      </trkpt>
      <trkpt lat="47.38234" lon="-0.39755">
        <ele>80.4</ele>
        <time>2013-02-13T09:58:19.780Z</time>
      </trkpt>
      <trkpt lat="47.38235" lon="-0.39759">
        <ele>80.4</ele>
        <time>2013-02-13T09:58:20.900Z</time>
      </trkpt>
      <trkpt lat="47.38236" lon="-0.39766">
        <ele>80.5</ele>
        <time>2013-02-13T09:58:22.770Z</time>
      </trkpt>
      <trkpt lat="47.38238" lon="-0.39773">
        <ele>80.6</ele>
        <time>2013-02-13T09:58:24.820Z</time>
      </trkpt>
      <trkpt lat="47.38239" lon="-0.39776">
        <ele>80.6</ele>
        <time>2013-02-13T09:58:25.800Z</time>
      </trkpt>
      <trkpt lat="47.38239" lon="-0.3978">
        <ele>80.6</ele>
        <time>2013-02-13T09:58:26.780Z</time>
      </trkpt>
      <trkpt lat="47.3824" lon="-0.39783">
        <ele>80.6</ele>
        <time>2013-02-13T09:58:27.800Z</time>
      </trkpt>
      <trkpt lat="47.38241" lon="-0.39787">
        <ele>80.7</ele>
        <time>2013-02-13T09:58:28.840Z</time>
      </trkpt>
      <trkpt lat="47.38242" lon="-0.3979">
        <ele>80.7</ele>
        <time>2013-02-13T09:58:29.800Z</time>
      </trkpt>
      <trkpt lat="47.38243" lon="-0.39793">
        <ele>80.8</ele>
        <time>2013-02-13T09:58:30.800Z</time>
      </trkpt>
      <trkpt lat="47.38244" lon="-0.39797">
        <ele>80.8</ele>
        <time>2013-02-13T09:58:31.900Z</time>
      </trkpt>
      <trkpt lat="47.38244" lon="-0.39804">
        <ele>80.8</ele>
        <time>2013-02-13T09:58:33.680Z</time>
      </trkpt>
      <trkpt lat="47.38244" lon="-0.39807">
        <ele>80.8</ele>
        <time>2013-02-13T09:58:34.820Z</time>
      </trkpt>
      <trkpt lat="47.38245" lon="-0.39811">
        <ele>80.8</ele>
        <time>2013-02-13T09:58:35.800Z</time>
      </trkpt>
      <trkpt lat="47.38245" lon="-0.39815">
        <ele>80.8</ele>
        <time>2013-02-13T09:58:36.780Z</time>
      </trkpt>
      <trkpt lat="47.38246" lon="-0.39818">
        <ele>80.9</ele>
        <time>2013-02-13T09:58:37.810Z</time>
      </trkpt>
      <trkpt lat="47.38247" lon="-0.39821">
        <ele>80.9</ele>
        <time>2013-02-13T09:58:38.900Z</time>
      </trkpt>
      <trkpt lat="47.38248" lon="-0.39828">
        <ele>80.9</ele>
        <time>2013-02-13T09:58:40.680Z</time>
      </trkpt>
      <trkpt lat="47.38248" lon="-0.39832">
        <ele>80.9</ele>
        <time>2013-02-13T09:58:41.770Z</time>
      </trkpt>
      <trkpt lat="47.38249" lon="-0.39836">
        <ele>81</ele>
        <time>2013-02-13T09:58:42.780Z</time>
      </trkpt>
      <trkpt lat="47.3825" lon="-0.39839">
        <ele>81</ele>
        <time>2013-02-13T09:58:43.850Z</time>
      </trkpt>
      <trkpt lat="47.38251" lon="-0.39843">
        <ele>81</ele>
        <time>2013-02-13T09:58:44.890Z</time>
      </trkpt>
      <trkpt lat="47.38253" lon="-0.3985">
        <ele>81</ele>
        <time>2013-02-13T09:58:46.780Z</time>
      </trkpt>
      <trkpt lat="47.38254" lon="-0.39854">
        <ele>81</ele>
        <time>2013-02-13T09:58:47.670Z</time>
      </trkpt>
      <trkpt lat="47.38255" lon="-0.39858">
        <ele>81</ele>
        <time>2013-02-13T09:58:48.890Z</time>
      </trkpt>
      <trkpt lat="47.38257" lon="-0.39865">
        <ele>80.9</ele>
        <time>2013-02-13T09:58:50.680Z</time>
      </trkpt>
      <trkpt lat="47.38258" lon="-0.39869">
        <ele>80.8</ele>
        <time>2013-02-13T09:58:51.790Z</time>
      </trkpt>
      <trkpt lat="47.38258" lon="-0.39873">
        <ele>80.7</ele>
        <time>2013-02-13T09:58:52.790Z</time>
      </trkpt>
      <trkpt lat="47.3826" lon="-0.39876">
        <ele>80.7</ele>
        <time>2013-02-13T09:58:53.790Z</time>
      </trkpt>
      <trkpt lat="47.38261" lon="-0.3988">
        <ele>80.6</ele>
        <time>2013-02-13T09:58:54.890Z</time>
      </trkpt>
      <trkpt lat="47.38262" lon="-0.39883">
        <ele>80.5</ele>
        <time>2013-02-13T09:58:55.850Z</time>
      </trkpt>
      <trkpt lat="47.38263" lon="-0.39887">
        <ele>80.5</ele>
        <time>2013-02-13T09:58:56.890Z</time>
      </trkpt>
      <trkpt lat="47.38265" lon="-0.39895">
        <ele>80.5</ele>
        <time>2013-02-13T09:58:58.830Z</time>
      </trkpt>
      <trkpt lat="47.38267" lon="-0.39902">
        <ele>80.6</ele>
        <time>2013-02-13T09:59:00.830Z</time>
      </trkpt>
      <trkpt lat="47.38268" lon="-0.39905">
        <ele>80.6</ele>
        <time>2013-02-13T09:59:01.790Z</time>
      </trkpt>
      <trkpt lat="47.38269" lon="-0.39909">
        <ele>80.7</ele>
        <time>2013-02-13T09:59:02.990Z</time>
      </trkpt>
      <trkpt lat="47.38272" lon="-0.39915">
        <ele>80.8</ele>
        <time>2013-02-13T09:59:04.790Z</time>
      </trkpt>
      <trkpt lat="47.38273" lon="-0.39918">
        <ele>80.8</ele>
        <time>2013-02-13T09:59:05.790Z</time>
      </trkpt>
      <trkpt lat="47.38275" lon="-0.39921">
        <ele>80.9</ele>
        <time>2013-02-13T09:59:06.990Z</time>
      </trkpt>
      <trkpt lat="47.38279" lon="-0.39926">
        <ele>81</ele>
        <time>2013-02-13T09:59:08.890Z</time>
      </trkpt>
      <trkpt lat="47.38282" lon="-0.39931">
        <ele>81</ele>
        <time>2013-02-13T09:59:10.830Z</time>
      </trkpt>
      <trkpt lat="47.38285" lon="-0.39938">
        <ele>81</ele>
        <time>2013-02-13T09:59:12.770Z</time>
      </trkpt>
      <trkpt lat="47.38286" lon="-0.39941">
        <ele>81</ele>
        <time>2013-02-13T09:59:13.780Z</time>
      </trkpt>
      <trkpt lat="47.38287" lon="-0.39944">
        <ele>81</ele>
        <time>2013-02-13T09:59:14.680Z</time>
      </trkpt>
      <trkpt lat="47.38289" lon="-0.39946">
        <ele>81</ele>
        <time>2013-02-13T09:59:15.770Z</time>
      </trkpt>
      <trkpt lat="47.3829" lon="-0.39953">
        <ele>81</ele>
        <time>2013-02-13T09:59:17.770Z</time>
      </trkpt>
      <trkpt lat="47.38291" lon="-0.39958">
        <ele>81</ele>
        <time>2013-02-13T09:59:18.820Z</time>
      </trkpt>
      <trkpt lat="47.38292" lon="-0.39962">
        <ele>81</ele>
        <time>2013-02-13T09:59:19.780Z</time>
      </trkpt>
      <trkpt lat="47.38293" lon="-0.39965">
        <ele>81</ele>
        <time>2013-02-13T09:59:20.880Z</time>
      </trkpt>
      <trkpt lat="47.38295" lon="-0.39973">
        <ele>81</ele>
        <time>2013-02-13T09:59:22.850Z</time>
      </trkpt>
      <trkpt lat="47.38296" lon="-0.39981">
        <ele>81</ele>
        <time>2013-02-13T09:59:24.780Z</time>
      </trkpt>
      <trkpt lat="47.38297" lon="-0.39985">
        <ele>81</ele>
        <time>2013-02-13T09:59:25.780Z</time>
      </trkpt>
      <trkpt lat="47.38298" lon="-0.39989">
        <ele>81</ele>
        <time>2013-02-13T09:59:26.980Z</time>
      </trkpt>
      <trkpt lat="47.383" lon="-0.39996">
        <ele>81</ele>
        <time>2013-02-13T09:59:28.880Z</time>
      </trkpt>
      <trkpt lat="47.38303" lon="-0.40003">
        <ele>81</ele>
        <time>2013-02-13T09:59:30.820Z</time>
      </trkpt>
      <trkpt lat="47.38305" lon="-0.40009">
        <ele>81</ele>
        <time>2013-02-13T09:59:32.770Z</time>
      </trkpt>
      <trkpt lat="47.38305" lon="-0.40012">
        <ele>81</ele>
        <time>2013-02-13T09:59:33.680Z</time>
      </trkpt>
      <trkpt lat="47.38306" lon="-0.40016">
        <ele>81</ele>
        <time>2013-02-13T09:59:34.680Z</time>
      </trkpt>
      <trkpt lat="47.38307" lon="-0.4002">
        <ele>81</ele>
        <time>2013-02-13T09:59:35.850Z</time>
      </trkpt>
      <trkpt lat="47.38308" lon="-0.40023">
        <ele>81</ele>
        <time>2013-02-13T09:59:36.880Z</time>
      </trkpt>
      <trkpt lat="47.38311" lon="-0.4003">
        <ele>81</ele>
        <time>2013-02-13T09:59:38.780Z</time>
      </trkpt>
      <trkpt lat="47.38312" lon="-0.40034">
        <ele>81</ele>
        <time>2013-02-13T09:59:39.880Z</time>
      </trkpt>
      <trkpt lat="47.38314" lon="-0.40042">
        <ele>81</ele>
        <time>2013-02-13T09:59:41.780Z</time>
      </trkpt>
      <trkpt lat="47.38316" lon="-0.40045">
        <ele>81</ele>
        <time>2013-02-13T09:59:42.880Z</time>
      </trkpt>
      <trkpt lat="47.38317" lon="-0.40048">
        <ele>81</ele>
        <time>2013-02-13T09:59:43.850Z</time>
      </trkpt>
      <trkpt lat="47.38319" lon="-0.4005">
        <ele>81</ele>
        <time>2013-02-13T09:59:44.880Z</time>
      </trkpt>
      <trkpt lat="47.38322" lon="-0.40056">
        <ele>81</ele>
        <time>2013-02-13T09:59:46.830Z</time>
      </trkpt>
      <trkpt lat="47.38324" lon="-0.40059">
        <ele>81</ele>
        <time>2013-02-13T09:59:47.780Z</time>
      </trkpt>
      <trkpt lat="47.38326" lon="-0.40062">
        <ele>80.9</ele>
        <time>2013-02-13T09:59:48.840Z</time>
      </trkpt>
      <trkpt lat="47.38329" lon="-0.40069">
        <ele>80.9</ele>
        <time>2013-02-13T09:59:50.780Z</time>
      </trkpt>
      <trkpt lat="47.3833" lon="-0.40072">
        <ele>80.9</ele>
        <time>2013-02-13T09:59:51.770Z</time>
      </trkpt>
      <trkpt lat="47.38331" lon="-0.40076">
        <ele>80.9</ele>
        <time>2013-02-13T09:59:52.830Z</time>
      </trkpt>
      <trkpt lat="47.38333" lon="-0.40079">
        <ele>81</ele>
        <time>2013-02-13T09:59:53.780Z</time>
      </trkpt>
      <trkpt lat="47.38334" lon="-0.40082">
        <ele>81</ele>
        <time>2013-02-13T09:59:54.980Z</time>
      </trkpt>
      <trkpt lat="47.38338" lon="-0.40087">
        <ele>81</ele>
        <time>2013-02-13T09:59:56.880Z</time>
      </trkpt>
      <trkpt lat="47.38341" lon="-0.40093">
        <ele>81</ele>
        <time>2013-02-13T09:59:58.910Z</time>
      </trkpt>
      <trkpt lat="47.38343" lon="-0.40096">
        <ele>81</ele>
        <time>2013-02-13T09:59:59.860Z</time>
      </trkpt>
      <trkpt lat="47.38344" lon="-0.40103">
        <ele>82.2</ele>
        <time>2013-02-13T10:00:01.870Z</time>
      </trkpt>
      <trkpt lat="47.38345" lon="-0.40106">
        <ele>81</ele>
        <time>2013-02-13T10:00:02.900Z</time>
      </trkpt>
      <trkpt lat="47.38346" lon="-0.40113">
        <ele>81</ele>
        <time>2013-02-13T10:00:04.870Z</time>
      </trkpt>
      <trkpt lat="47.38348" lon="-0.40119">
        <ele>80.9</ele>
        <time>2013-02-13T10:00:06.670Z</time>
      </trkpt>
      <trkpt lat="47.38349" lon="-0.40122">
        <ele>80.8</ele>
        <time>2013-02-13T10:00:07.670Z</time>
      </trkpt>
      <trkpt lat="47.3835" lon="-0.40125">
        <ele>80.8</ele>
        <time>2013-02-13T10:00:08.770Z</time>
      </trkpt>
      <trkpt lat="47.38352" lon="-0.40128">
        <ele>80.8</ele>
        <time>2013-02-13T10:00:09.780Z</time>
      </trkpt>
      <trkpt lat="47.38352" lon="-0.40133">
        <ele>80.8</ele>
        <time>2013-02-13T10:00:10.830Z</time>
      </trkpt>
      <trkpt lat="47.38353" lon="-0.4014">
        <ele>80.7</ele>
        <time>2013-02-13T10:00:12.670Z</time>
      </trkpt>
      <trkpt lat="47.38354" lon="-0.40144">
        <ele>80.7</ele>
        <time>2013-02-13T10:00:13.670Z</time>
      </trkpt>
      <trkpt lat="47.38355" lon="-0.40148">
        <ele>80.8</ele>
        <time>2013-02-13T10:00:14.670Z</time>
      </trkpt>
      <trkpt lat="47.38356" lon="-0.40152">
        <ele>80.8</ele>
        <time>2013-02-13T10:00:15.770Z</time>
      </trkpt>
      <trkpt lat="47.38357" lon="-0.40155">
        <ele>80.9</ele>
        <time>2013-02-13T10:00:16.680Z</time>
      </trkpt>
      <trkpt lat="47.38359" lon="-0.40159">
        <ele>80.9</ele>
        <time>2013-02-13T10:00:17.780Z</time>
      </trkpt>
      <trkpt lat="47.3836" lon="-0.40162">
        <ele>81</ele>
        <time>2013-02-13T10:00:18.830Z</time>
      </trkpt>
      <trkpt lat="47.38362" lon="-0.4017">
        <ele>81</ele>
        <time>2013-02-13T10:00:20.900Z</time>
      </trkpt>
      <trkpt lat="47.38364" lon="-0.40177">
        <ele>81</ele>
        <time>2013-02-13T10:00:22.680Z</time>
      </trkpt>
      <trkpt lat="47.38365" lon="-0.40181">
        <ele>81.1</ele>
        <time>2013-02-13T10:00:23.770Z</time>
      </trkpt>
      <trkpt lat="47.38367" lon="-0.40184">
        <ele>81.1</ele>
        <time>2013-02-13T10:00:24.770Z</time>
      </trkpt>
      <trkpt lat="47.38368" lon="-0.40187">
        <ele>81.2</ele>
        <time>2013-02-13T10:00:25.770Z</time>
      </trkpt>
      <trkpt lat="47.38369" lon="-0.40191">
        <ele>81.3</ele>
        <time>2013-02-13T10:00:26.770Z</time>
      </trkpt>
      <trkpt lat="47.3837" lon="-0.40194">
        <ele>81.3</ele>
        <time>2013-02-13T10:00:27.770Z</time>
      </trkpt>
      <trkpt lat="47.38371" lon="-0.40198">
        <ele>81.3</ele>
        <time>2013-02-13T10:00:28.900Z</time>
      </trkpt>
      <trkpt lat="47.38373" lon="-0.40206">
        <ele>81.2</ele>
        <time>2013-02-13T10:00:30.830Z</time>
      </trkpt>
      <trkpt lat="47.38373" lon="-0.4021">
        <ele>81.2</ele>
        <time>2013-02-13T10:00:31.770Z</time>
      </trkpt>
      <trkpt lat="47.38374" lon="-0.40214">
        <ele>81.1</ele>
        <time>2013-02-13T10:00:32.830Z</time>
      </trkpt>
      <trkpt lat="47.38375" lon="-0.40217">
        <ele>81.1</ele>
        <time>2013-02-13T10:00:33.780Z</time>
      </trkpt>
      <trkpt lat="47.38376" lon="-0.4022">
        <ele>81</ele>
        <time>2013-02-13T10:00:34.830Z</time>
      </trkpt>
      <trkpt lat="47.38376" lon="-0.40223">
        <ele>81</ele>
        <time>2013-02-13T10:00:35.850Z</time>
      </trkpt>
      <trkpt lat="47.38377" lon="-0.40231">
        <ele>81</ele>
        <time>2013-02-13T10:00:37.770Z</time>
      </trkpt>
      <trkpt lat="47.38377" lon="-0.40235">
        <ele>81</ele>
        <time>2013-02-13T10:00:38.820Z</time>
      </trkpt>
      <trkpt lat="47.38377" lon="-0.40239">
        <ele>81</ele>
        <time>2013-02-13T10:00:39.860Z</time>
      </trkpt>
      <trkpt lat="47.38375" lon="-0.40246">
        <ele>81</ele>
        <time>2013-02-13T10:00:41.670Z</time>
      </trkpt>
      <trkpt lat="47.38375" lon="-0.40249">
        <ele>81</ele>
        <time>2013-02-13T10:00:42.670Z</time>
      </trkpt>
      <trkpt lat="47.38375" lon="-0.40253">
        <ele>80.9</ele>
        <time>2013-02-13T10:00:43.810Z</time>
      </trkpt>
      <trkpt lat="47.38374" lon="-0.40257">
        <ele>80.9</ele>
        <time>2013-02-13T10:00:44.820Z</time>
      </trkpt>
      <trkpt lat="47.38374" lon="-0.40261">
        <ele>80.8</ele>
        <time>2013-02-13T10:00:45.770Z</time>
      </trkpt>
      <trkpt lat="47.38373" lon="-0.40265">
        <ele>80.7</ele>
        <time>2013-02-13T10:00:46.770Z</time>
      </trkpt>
      <trkpt lat="47.38373" lon="-0.40268">
        <ele>80.6</ele>
        <time>2013-02-13T10:00:47.850Z</time>
      </trkpt>
      <trkpt lat="47.38372" lon="-0.40272">
        <ele>80.5</ele>
        <time>2013-02-13T10:00:48.820Z</time>
      </trkpt>
      <trkpt lat="47.38372" lon="-0.40276">
        <ele>80.4</ele>
        <time>2013-02-13T10:00:49.770Z</time>
      </trkpt>
      <trkpt lat="47.38371" lon="-0.4028">
        <ele>80.4</ele>
        <time>2013-02-13T10:00:50.830Z</time>
      </trkpt>
      <trkpt lat="47.38369" lon="-0.40288">
        <ele>80.3</ele>
        <time>2013-02-13T10:00:52.670Z</time>
      </trkpt>
      <trkpt lat="47.38368" lon="-0.40292">
        <ele>80.3</ele>
        <time>2013-02-13T10:00:53.670Z</time>
      </trkpt>
      <trkpt lat="47.38367" lon="-0.40295">
        <ele>80.2</ele>
        <time>2013-02-13T10:00:54.670Z</time>
      </trkpt>
      <trkpt lat="47.38366" lon="-0.40299">
        <ele>80.2</ele>
        <time>2013-02-13T10:00:55.670Z</time>
      </trkpt>
      <trkpt lat="47.38365" lon="-0.40303">
        <ele>80.1</ele>
        <time>2013-02-13T10:00:56.680Z</time>
      </trkpt>
      <trkpt lat="47.38364" lon="-0.40306">
        <ele>80.1</ele>
        <time>2013-02-13T10:00:57.800Z</time>
      </trkpt>
      <trkpt lat="47.38363" lon="-0.4031">
        <ele>80.1</ele>
        <time>2013-02-13T10:00:58.820Z</time>
      </trkpt>
      <trkpt lat="47.38363" lon="-0.40313">
        <ele>80.1</ele>
        <time>2013-02-13T10:00:59.810Z</time>
      </trkpt>
      <trkpt lat="47.38362" lon="-0.40316">
        <ele>83.1</ele>
        <time>2013-02-13T10:01:00.850Z</time>
      </trkpt>
      <trkpt lat="47.3836" lon="-0.40324">
        <ele>80</ele>
        <time>2013-02-13T10:01:02.820Z</time>
      </trkpt>
      <trkpt lat="47.38357" lon="-0.40332">
        <ele>80</ele>
        <time>2013-02-13T10:01:04.850Z</time>
      </trkpt>
      <trkpt lat="47.38354" lon="-0.40338">
        <ele>80</ele>
        <time>2013-02-13T10:01:06.820Z</time>
      </trkpt>
      <trkpt lat="47.38353" lon="-0.40342">
        <ele>80</ele>
        <time>2013-02-13T10:01:07.770Z</time>
      </trkpt>
      <trkpt lat="47.38352" lon="-0.40345">
        <ele>80</ele>
        <time>2013-02-13T10:01:08.900Z</time>
      </trkpt>
      <trkpt lat="47.38349" lon="-0.40353">
        <ele>80</ele>
        <time>2013-02-13T10:01:10.670Z</time>
      </trkpt>
      <trkpt lat="47.38348" lon="-0.40356">
        <ele>80</ele>
        <time>2013-02-13T10:01:11.670Z</time>
      </trkpt>
      <trkpt lat="47.38347" lon="-0.40359">
        <ele>80</ele>
        <time>2013-02-13T10:01:12.820Z</time>
      </trkpt>
      <trkpt lat="47.38345" lon="-0.40362">
        <ele>80</ele>
        <time>2013-02-13T10:01:13.860Z</time>
      </trkpt>
      <trkpt lat="47.38342" lon="-0.40368">
        <ele>80.1</ele>
        <time>2013-02-13T10:01:15.770Z</time>
      </trkpt>
      <trkpt lat="47.3834" lon="-0.40371">
        <ele>80.1</ele>
        <time>2013-02-13T10:01:16.780Z</time>
      </trkpt>
      <trkpt lat="47.38336" lon="-0.40376">
        <ele>80.1</ele>
        <time>2013-02-13T10:01:18.670Z</time>
      </trkpt>
      <trkpt lat="47.38334" lon="-0.40378">
        <ele>80</ele>
        <time>2013-02-13T10:01:19.670Z</time>
      </trkpt>
      <trkpt lat="47.38332" lon="-0.40381">
        <ele>80</ele>
        <time>2013-02-13T10:01:20.670Z</time>
      </trkpt>
      <trkpt lat="47.3833" lon="-0.40384">
        <ele>79.9</ele>
        <time>2013-02-13T10:01:21.670Z</time>
      </trkpt>
      <trkpt lat="47.38328" lon="-0.40386">
        <ele>79.8</ele>
        <time>2013-02-13T10:01:22.670Z</time>
      </trkpt>
      <trkpt lat="47.38327" lon="-0.40389">
        <ele>79.8</ele>
        <time>2013-02-13T10:01:23.670Z</time>
      </trkpt>
      <trkpt lat="47.38325" lon="-0.40392">
        <ele>79.7</ele>
        <time>2013-02-13T10:01:24.770Z</time>
      </trkpt>
      <trkpt lat="47.38323" lon="-0.40394">
        <ele>79.6</ele>
        <time>2013-02-13T10:01:25.800Z</time>
      </trkpt>
      <trkpt lat="47.38321" lon="-0.40397">
        <ele>79.5</ele>
        <time>2013-02-13T10:01:26.830Z</time>
      </trkpt>
      <trkpt lat="47.38317" lon="-0.40403">
        <ele>79.4</ele>
        <time>2013-02-13T10:01:28.670Z</time>
      </trkpt>
      <trkpt lat="47.38314" lon="-0.40405">
        <ele>79.3</ele>
        <time>2013-02-13T10:01:29.770Z</time>
      </trkpt>
      <trkpt lat="47.38312" lon="-0.40408">
        <ele>79.2</ele>
        <time>2013-02-13T10:01:30.790Z</time>
      </trkpt>
      <trkpt lat="47.3831" lon="-0.40411">
        <ele>79.2</ele>
        <time>2013-02-13T10:01:31.850Z</time>
      </trkpt>
      <trkpt lat="47.38306" lon="-0.40415">
        <ele>79</ele>
        <time>2013-02-13T10:01:33.680Z</time>
      </trkpt>
      <trkpt lat="47.38305" lon="-0.40418">
        <ele>78.9</ele>
        <time>2013-02-13T10:01:34.820Z</time>
      </trkpt>
      <trkpt lat="47.38303" lon="-0.4042">
        <ele>78.8</ele>
        <time>2013-02-13T10:01:35.770Z</time>
      </trkpt>
      <trkpt lat="47.38301" lon="-0.40422">
        <ele>78.6</ele>
        <time>2013-02-13T10:01:36.830Z</time>
      </trkpt>
      <trkpt lat="47.38298" lon="-0.40427">
        <ele>78.3</ele>
        <time>2013-02-13T10:01:38.830Z</time>
      </trkpt>
      <trkpt lat="47.38296" lon="-0.40428">
        <ele>78.1</ele>
        <time>2013-02-13T10:01:39.890Z</time>
      </trkpt>
      <trkpt lat="47.38292" lon="-0.40433">
        <ele>77.7</ele>
        <time>2013-02-13T10:01:41.770Z</time>
      </trkpt>
      <trkpt lat="47.3829" lon="-0.40436">
        <ele>77.5</ele>
        <time>2013-02-13T10:01:42.820Z</time>
      </trkpt>
      <trkpt lat="47.38288" lon="-0.40439">
        <ele>77.2</ele>
        <time>2013-02-13T10:01:43.850Z</time>
      </trkpt>
      <trkpt lat="47.38284" lon="-0.40444">
        <ele>76.7</ele>
        <time>2013-02-13T10:01:45.670Z</time>
      </trkpt>
      <trkpt lat="47.38282" lon="-0.40447">
        <ele>76.5</ele>
        <time>2013-02-13T10:01:46.670Z</time>
      </trkpt>
      <trkpt lat="47.38281" lon="-0.4045">
        <ele>76.3</ele>
        <time>2013-02-13T10:01:47.680Z</time>
      </trkpt>
      <trkpt lat="47.38279" lon="-0.40453">
        <ele>76.1</ele>
        <time>2013-02-13T10:01:48.670Z</time>
      </trkpt>
      <trkpt lat="47.38278" lon="-0.40456">
        <ele>76</ele>
        <time>2013-02-13T10:01:49.860Z</time>
      </trkpt>
      <trkpt lat="47.38276" lon="-0.40462">
        <ele>76</ele>
        <time>2013-02-13T10:01:51.770Z</time>
      </trkpt>
      <trkpt lat="47.38275" lon="-0.40466">
        <ele>75.9</ele>
        <time>2013-02-13T10:01:52.830Z</time>
      </trkpt>
      <trkpt lat="47.38273" lon="-0.40472">
        <ele>75.8</ele>
        <time>2013-02-13T10:01:54.830Z</time>
      </trkpt>
      <trkpt lat="47.38272" lon="-0.40476">
        <ele>75.7</ele>
        <time>2013-02-13T10:01:55.780Z</time>
      </trkpt>
      <trkpt lat="47.3827" lon="-0.4048">
        <ele>75.5</ele>
        <time>2013-02-13T10:01:56.770Z</time>
      </trkpt>
      <trkpt lat="47.38269" lon="-0.40484">
        <ele>75.4</ele>
        <time>2013-02-13T10:01:57.780Z</time>
      </trkpt>
      <trkpt lat="47.38268" lon="-0.40487">
        <ele>75.3</ele>
        <time>2013-02-13T10:01:58.830Z</time>
      </trkpt>
      <trkpt lat="47.38267" lon="-0.40491">
        <ele>75.2</ele>
        <time>2013-02-13T10:01:59.810Z</time>
      </trkpt>
      <trkpt lat="47.38266" lon="-0.40494">
        <ele>78.3</ele>
        <time>2013-02-13T10:02:00.850Z</time>
      </trkpt>
      <trkpt lat="47.38266" lon="-0.40502">
        <ele>75</ele>
        <time>2013-02-13T10:02:02.670Z</time>
      </trkpt>
      <trkpt lat="47.38265" lon="-0.40507">
        <ele>75</ele>
        <time>2013-02-13T10:02:03.670Z</time>
      </trkpt>
      <trkpt lat="47.38265" lon="-0.40511">
        <ele>75</ele>
        <time>2013-02-13T10:02:04.680Z</time>
      </trkpt>
      <trkpt lat="47.38266" lon="-0.40515">
        <ele>75</ele>
        <time>2013-02-13T10:02:05.850Z</time>
      </trkpt>
      <trkpt lat="47.38267" lon="-0.40524">
        <ele>75</ele>
        <time>2013-02-13T10:02:07.770Z</time>
      </trkpt>
      <trkpt lat="47.38267" lon="-0.40528">
        <ele>75</ele>
        <time>2013-02-13T10:02:08.820Z</time>
      </trkpt>
      <trkpt lat="47.38267" lon="-0.40532">
        <ele>74.9</ele>
        <time>2013-02-13T10:02:09.890Z</time>
      </trkpt>
      <trkpt lat="47.38267" lon="-0.4054">
        <ele>74.7</ele>
        <time>2013-02-13T10:02:11.770Z</time>
      </trkpt>
      <trkpt lat="47.38267" lon="-0.40544">
        <ele>74.6</ele>
        <time>2013-02-13T10:02:12.820Z</time>
      </trkpt>
      <trkpt lat="47.38267" lon="-0.40552">
        <ele>74.5</ele>
        <time>2013-02-13T10:02:14.670Z</time>
      </trkpt>
      <trkpt lat="47.38267" lon="-0.40556">
        <ele>74.4</ele>
        <time>2013-02-13T10:02:15.770Z</time>
      </trkpt>
      <trkpt lat="47.38267" lon="-0.40561">
        <ele>74.3</ele>
        <time>2013-02-13T10:02:16.830Z</time>
      </trkpt>
      <trkpt lat="47.38267" lon="-0.40569">
        <ele>74.2</ele>
        <time>2013-02-13T10:02:18.820Z</time>
      </trkpt>
      <trkpt lat="47.38266" lon="-0.40573">
        <ele>74.2</ele>
        <time>2013-02-13T10:02:19.770Z</time>
      </trkpt>
      <trkpt lat="47.38266" lon="-0.40577">
        <ele>74.1</ele>
        <time>2013-02-13T10:02:20.830Z</time>
      </trkpt>
      <trkpt lat="47.38266" lon="-0.40581">
        <ele>74</ele>
        <time>2013-02-13T10:02:21.860Z</time>
      </trkpt>
      <trkpt lat="47.38264" lon="-0.40589">
        <ele>74</ele>
        <time>2013-02-13T10:02:23.780Z</time>
      </trkpt>
      <trkpt lat="47.38263" lon="-0.40593">
        <ele>74</ele>
        <time>2013-02-13T10:02:24.840Z</time>
      </trkpt>
      <trkpt lat="47.38262" lon="-0.406">
        <ele>74</ele>
        <time>2013-02-13T10:02:26.670Z</time>
      </trkpt>
      <trkpt lat="47.38261" lon="-0.40604">
        <ele>74</ele>
        <time>2013-02-13T10:02:27.770Z</time>
      </trkpt>
      <trkpt lat="47.3826" lon="-0.40607">
        <ele>74</ele>
        <time>2013-02-13T10:02:29.210Z</time>
      </trkpt>
      <trkpt lat="47.38257" lon="-0.40615">
        <ele>74</ele>
        <time>2013-02-13T10:02:30.740Z</time>
      </trkpt>
      <trkpt lat="47.38255" lon="-0.40619">
        <ele>74</ele>
        <time>2013-02-13T10:02:31.740Z</time>
      </trkpt>
      <trkpt lat="47.38254" lon="-0.40622">
        <ele>74</ele>
        <time>2013-02-13T10:02:32.740Z</time>
      </trkpt>
      <trkpt lat="47.38252" lon="-0.40626">
        <ele>74</ele>
        <time>2013-02-13T10:02:34.270Z</time>
      </trkpt>
      <trkpt lat="47.38249" lon="-0.40632">
        <ele>74</ele>
        <time>2013-02-13T10:02:35.670Z</time>
      </trkpt>
      <trkpt lat="47.38248" lon="-0.40635">
        <ele>74</ele>
        <time>2013-02-13T10:02:36.670Z</time>
      </trkpt>
      <trkpt lat="47.38247" lon="-0.40639">
        <ele>74</ele>
        <time>2013-02-13T10:02:37.780Z</time>
      </trkpt>
      <trkpt lat="47.38246" lon="-0.40643">
        <ele>74</ele>
        <time>2013-02-13T10:02:38.830Z</time>
      </trkpt>
      <trkpt lat="47.38247" lon="-0.40651">
        <ele>74</ele>
        <time>2013-02-13T10:02:40.770Z</time>
      </trkpt>
      <trkpt lat="47.38247" lon="-0.40655">
        <ele>74</ele>
        <time>2013-02-13T10:02:41.770Z</time>
      </trkpt>
      <trkpt lat="47.38247" lon="-0.4066">
        <ele>74</ele>
        <time>2013-02-13T10:02:42.830Z</time>
      </trkpt>
      <trkpt lat="47.38248" lon="-0.40668">
        <ele>74</ele>
        <time>2013-02-13T10:02:44.670Z</time>
      </trkpt>
      <trkpt lat="47.38249" lon="-0.40672">
        <ele>74</ele>
        <time>2013-02-13T10:02:45.670Z</time>
      </trkpt>
      <trkpt lat="47.3825" lon="-0.40676">
        <ele>74</ele>
        <time>2013-02-13T10:02:46.670Z</time>
      </trkpt>
      <trkpt lat="47.38251" lon="-0.40679">
        <ele>74</ele>
        <time>2013-02-13T10:02:47.770Z</time>
      </trkpt>
      <trkpt lat="47.38253" lon="-0.40688">
        <ele>74</ele>
        <time>2013-02-13T10:02:49.770Z</time>
      </trkpt>
      <trkpt lat="47.38254" lon="-0.40692">
        <ele>74</ele>
        <time>2013-02-13T10:02:50.840Z</time>
      </trkpt>
      <trkpt lat="47.38255" lon="-0.40699">
        <ele>74</ele>
        <time>2013-02-13T10:02:52.670Z</time>
      </trkpt>
      <trkpt lat="47.38257" lon="-0.40703">
        <ele>74</ele>
        <time>2013-02-13T10:02:53.770Z</time>
      </trkpt>
      <trkpt lat="47.38258" lon="-0.40707">
        <ele>74</ele>
        <time>2013-02-13T10:02:54.770Z</time>
      </trkpt>
      <trkpt lat="47.38259" lon="-0.4071">
        <ele>74</ele>
        <time>2013-02-13T10:02:55.780Z</time>
      </trkpt>
      <trkpt lat="47.38261" lon="-0.40714">
        <ele>74</ele>
        <time>2013-02-13T10:02:56.910Z</time>
      </trkpt>
      <trkpt lat="47.38263" lon="-0.40721">
        <ele>74</ele>
        <time>2013-02-13T10:02:58.670Z</time>
      </trkpt>
      <trkpt lat="47.38264" lon="-0.40725">
        <ele>74</ele>
        <time>2013-02-13T10:02:59.810Z</time>
      </trkpt>
      <trkpt lat="47.38266" lon="-0.40733">
        <ele>73.6</ele>
        <time>2013-02-13T10:03:01.670Z</time>
      </trkpt>
      <trkpt lat="47.38267" lon="-0.40737">
        <ele>74</ele>
        <time>2013-02-13T10:03:02.670Z</time>
      </trkpt>
      <trkpt lat="47.38267" lon="-0.40741">
        <ele>74</ele>
        <time>2013-02-13T10:03:03.670Z</time>
      </trkpt>
      <trkpt lat="47.38267" lon="-0.40745">
        <ele>74</ele>
        <time>2013-02-13T10:03:04.670Z</time>
      </trkpt>
      <trkpt lat="47.38267" lon="-0.40748">
        <ele>74</ele>
        <time>2013-02-13T10:03:05.780Z</time>
      </trkpt>
      <trkpt lat="47.38267" lon="-0.40752">
        <ele>74</ele>
        <time>2013-02-13T10:03:06.910Z</time>
      </trkpt>
      <trkpt lat="47.38267" lon="-0.4076">
        <ele>74</ele>
        <time>2013-02-13T10:03:08.670Z</time>
      </trkpt>
      <trkpt lat="47.38266" lon="-0.40764">
        <ele>74</ele>
        <time>2013-02-13T10:03:09.770Z</time>
      </trkpt>
      <trkpt lat="47.38266" lon="-0.40768">
        <ele>74</ele>
        <time>2013-02-13T10:03:10.910Z</time>
      </trkpt>
      <trkpt lat="47.38266" lon="-0.40777">
        <ele>74</ele>
        <time>2013-02-13T10:03:12.630Z</time>
      </trkpt>
      <trkpt lat="47.38266" lon="-0.40781">
        <ele>74</ele>
        <time>2013-02-13T10:03:13.610Z</time>
      </trkpt>
      <trkpt lat="47.38266" lon="-0.40785">
        <ele>74</ele>
        <time>2013-02-13T10:03:14.930Z</time>
      </trkpt>
      <trkpt lat="47.38266" lon="-0.40794">
        <ele>74</ele>
        <time>2013-02-13T10:03:16.680Z</time>
      </trkpt>
      <trkpt lat="47.38266" lon="-0.40798">
        <ele>74</ele>
        <time>2013-02-13T10:03:17.770Z</time>
      </trkpt>
      <trkpt lat="47.38266" lon="-0.40803">
        <ele>74</ele>
        <time>2013-02-13T10:03:18.830Z</time>
      </trkpt>
      <trkpt lat="47.38266" lon="-0.40812">
        <ele>74</ele>
        <time>2013-02-13T10:03:20.920Z</time>
      </trkpt>
      <trkpt lat="47.38265" lon="-0.40822">
        <ele>74</ele>
        <time>2013-02-13T10:03:22.910Z</time>
      </trkpt>
      <trkpt lat="47.38264" lon="-0.4083">
        <ele>74</ele>
        <time>2013-02-13T10:03:24.620Z</time>
      </trkpt>
      <trkpt lat="47.38264" lon="-0.40835">
        <ele>74</ele>
        <time>2013-02-13T10:03:25.620Z</time>
      </trkpt>
      <trkpt lat="47.38265" lon="-0.40839">
        <ele>73.9</ele>
        <time>2013-02-13T10:03:26.620Z</time>
      </trkpt>
      <trkpt lat="47.38265" lon="-0.40842">
        <ele>73.8</ele>
        <time>2013-02-13T10:03:27.770Z</time>
      </trkpt>
      <trkpt lat="47.38265" lon="-0.40846">
        <ele>73.7</ele>
        <time>2013-02-13T10:03:28.830Z</time>
      </trkpt>
      <trkpt lat="47.38265" lon="-0.40854">
        <ele>73.6</ele>
        <time>2013-02-13T10:03:30.600Z</time>
      </trkpt>
      <trkpt lat="47.38265" lon="-0.40857">
        <ele>73.5</ele>
        <time>2013-02-13T10:03:31.770Z</time>
      </trkpt>
      <trkpt lat="47.38264" lon="-0.40861">
        <ele>73.5</ele>
        <time>2013-02-13T10:03:32.770Z</time>
      </trkpt>
      <trkpt lat="47.38264" lon="-0.40865">
        <ele>73.4</ele>
        <time>2013-02-13T10:03:33.780Z</time>
      </trkpt>
      <trkpt lat="47.38263" lon="-0.40874">
        <ele>73.3</ele>
        <time>2013-02-13T10:03:35.770Z</time>
      </trkpt>
      <trkpt lat="47.38263" lon="-0.40878">
        <ele>73.2</ele>
        <time>2013-02-13T10:03:36.830Z</time>
      </trkpt>
      <trkpt lat="47.38262" lon="-0.40887">
        <ele>73</ele>
        <time>2013-02-13T10:03:38.830Z</time>
      </trkpt>
      <trkpt lat="47.38262" lon="-0.40895">
        <ele>73</ele>
        <time>2013-02-13T10:03:40.620Z</time>
      </trkpt>
      <trkpt lat="47.38262" lon="-0.40899">
        <ele>73</ele>
        <time>2013-02-13T10:03:41.770Z</time>
      </trkpt>
      <trkpt lat="47.38262" lon="-0.40904">
        <ele>73</ele>
        <time>2013-02-13T10:03:42.920Z</time>
      </trkpt>
      <trkpt lat="47.38262" lon="-0.40912">
        <ele>73</ele>
        <time>2013-02-13T10:03:44.830Z</time>
      </trkpt>
      <trkpt lat="47.38262" lon="-0.40916">
        <ele>73</ele>
        <time>2013-02-13T10:03:45.820Z</time>
      </trkpt>
      <trkpt lat="47.38262" lon="-0.40925">
        <ele>73</ele>
        <time>2013-02-13T10:03:47.580Z</time>
      </trkpt>
      <trkpt lat="47.38262" lon="-0.40929">
        <ele>73</ele>
        <time>2013-02-13T10:03:48.920Z</time>
      </trkpt>
      <trkpt lat="47.38262" lon="-0.40937">
        <ele>73</ele>
        <time>2013-02-13T10:03:50.900Z</time>
      </trkpt>
      <trkpt lat="47.38262" lon="-0.40946">
        <ele>73</ele>
        <time>2013-02-13T10:03:52.830Z</time>
      </trkpt>
      <trkpt lat="47.38261" lon="-0.40951">
        <ele>73</ele>
        <time>2013-02-13T10:03:53.820Z</time>
      </trkpt>
      <trkpt lat="47.38261" lon="-0.40955">
        <ele>73</ele>
        <time>2013-02-13T10:03:54.920Z</time>
      </trkpt>
      <trkpt lat="47.38261" lon="-0.40963">
        <ele>73</ele>
        <time>2013-02-13T10:03:56.820Z</time>
      </trkpt>
      <trkpt lat="47.38261" lon="-0.40967">
        <ele>73</ele>
        <time>2013-02-13T10:03:57.820Z</time>
      </trkpt>
      <trkpt lat="47.38261" lon="-0.40971">
        <ele>73</ele>
        <time>2013-02-13T10:03:58.820Z</time>
      </trkpt>
      <trkpt lat="47.38261" lon="-0.40975">
        <ele>73</ele>
        <time>2013-02-13T10:03:59.810Z</time>
      </trkpt>
      <trkpt lat="47.38261" lon="-0.40979">
        <ele>72.7</ele>
        <time>2013-02-13T10:04:00.860Z</time>
      </trkpt>
      <trkpt lat="47.38261" lon="-0.40984">
        <ele>73</ele>
        <time>2013-02-13T10:04:01.810Z</time>
      </trkpt>
      <trkpt lat="47.38261" lon="-0.40988">
        <ele>73</ele>
        <time>2013-02-13T10:04:02.910Z</time>
      </trkpt>
      <trkpt lat="47.38261" lon="-0.40996">
        <ele>73</ele>
        <time>2013-02-13T10:04:04.830Z</time>
      </trkpt>
      <trkpt lat="47.38261" lon="-0.41001">
        <ele>73</ele>
        <time>2013-02-13T10:04:05.810Z</time>
      </trkpt>
      <trkpt lat="47.38261" lon="-0.41005">
        <ele>73</ele>
        <time>2013-02-13T10:04:06.810Z</time>
      </trkpt>
      <trkpt lat="47.38261" lon="-0.4101">
        <ele>73</ele>
        <time>2013-02-13T10:04:07.810Z</time>
      </trkpt>
      <trkpt lat="47.3826" lon="-0.41014">
        <ele>73</ele>
        <time>2013-02-13T10:04:08.830Z</time>
      </trkpt>
      <trkpt lat="47.38259" lon="-0.41023">
        <ele>73</ele>
        <time>2013-02-13T10:04:10.830Z</time>
      </trkpt>
      <trkpt lat="47.38259" lon="-0.41028">
        <ele>73</ele>
        <time>2013-02-13T10:04:11.810Z</time>
      </trkpt>
      <trkpt lat="47.38258" lon="-0.41032">
        <ele>73</ele>
        <time>2013-02-13T10:04:12.910Z</time>
      </trkpt>
      <trkpt lat="47.38258" lon="-0.4104">
        <ele>73</ele>
        <time>2013-02-13T10:04:14.820Z</time>
      </trkpt>
      <trkpt lat="47.38257" lon="-0.41044">
        <ele>73</ele>
        <time>2013-02-13T10:04:15.910Z</time>
      </trkpt>
      <trkpt lat="47.38257" lon="-0.41053">
        <ele>73</ele>
        <time>2013-02-13T10:04:17.820Z</time>
      </trkpt>
      <trkpt lat="47.38256" lon="-0.41058">
        <ele>73</ele>
        <time>2013-02-13T10:04:18.910Z</time>
      </trkpt>
      <trkpt lat="47.38256" lon="-0.41066">
        <ele>73</ele>
        <time>2013-02-13T10:04:20.840Z</time>
      </trkpt>
      <trkpt lat="47.38255" lon="-0.41075">
        <ele>73</ele>
        <time>2013-02-13T10:04:22.910Z</time>
      </trkpt>
      <trkpt lat="47.38255" lon="-0.41084">
        <ele>73</ele>
        <time>2013-02-13T10:04:24.910Z</time>
      </trkpt>
      <trkpt lat="47.38255" lon="-0.41093">
        <ele>73</ele>
        <time>2013-02-13T10:04:26.780Z</time>
      </trkpt>
      <trkpt lat="47.38255" lon="-0.41102">
        <ele>73</ele>
        <time>2013-02-13T10:04:28.850Z</time>
      </trkpt>
      <trkpt lat="47.38254" lon="-0.41106">
        <ele>73</ele>
        <time>2013-02-13T10:04:29.810Z</time>
      </trkpt>
      <trkpt lat="47.38254" lon="-0.41111">
        <ele>73</ele>
        <time>2013-02-13T10:04:30.810Z</time>
      </trkpt>
      <trkpt lat="47.38254" lon="-0.41115">
        <ele>73</ele>
        <time>2013-02-13T10:04:31.810Z</time>
      </trkpt>
      <trkpt lat="47.38254" lon="-0.41119">
        <ele>73</ele>
        <time>2013-02-13T10:04:32.890Z</time>
      </trkpt>
      <trkpt lat="47.38254" lon="-0.41128">
        <ele>73</ele>
        <time>2013-02-13T10:04:34.830Z</time>
      </trkpt>
      <trkpt lat="47.38253" lon="-0.41133">
        <ele>73</ele>
        <time>2013-02-13T10:04:35.910Z</time>
      </trkpt>
      <trkpt lat="47.38254" lon="-0.41142">
        <ele>73</ele>
        <time>2013-02-13T10:04:37.790Z</time>
      </trkpt>
      <trkpt lat="47.38254" lon="-0.41147">
        <ele>73</ele>
        <time>2013-02-13T10:04:38.810Z</time>
      </trkpt>
      <trkpt lat="47.38254" lon="-0.41151">
        <ele>73</ele>
        <time>2013-02-13T10:04:39.920Z</time>
      </trkpt>
      <trkpt lat="47.38254" lon="-0.41156">
        <ele>73</ele>
        <time>2013-02-13T10:04:40.830Z</time>
      </trkpt>
      <trkpt lat="47.38254" lon="-0.4116">
        <ele>73</ele>
        <time>2013-02-13T10:04:41.800Z</time>
      </trkpt>
      <trkpt lat="47.38254" lon="-0.41164">
        <ele>73</ele>
        <time>2013-02-13T10:04:42.800Z</time>
      </trkpt>
      <trkpt lat="47.38254" lon="-0.41168">
        <ele>73</ele>
        <time>2013-02-13T10:04:43.800Z</time>
      </trkpt>
      <trkpt lat="47.38254" lon="-0.41172">
        <ele>73</ele>
        <time>2013-02-13T10:04:44.900Z</time>
      </trkpt>
      <trkpt lat="47.38254" lon="-0.41181">
        <ele>73</ele>
        <time>2013-02-13T10:04:46.850Z</time>
      </trkpt>
      <trkpt lat="47.38254" lon="-0.41185">
        <ele>73</ele>
        <time>2013-02-13T10:04:47.800Z</time>
      </trkpt>
      <trkpt lat="47.38254" lon="-0.4119">
        <ele>73</ele>
        <time>2013-02-13T10:04:48.900Z</time>
      </trkpt>
      <trkpt lat="47.38253" lon="-0.41199">
        <ele>72.8</ele>
        <time>2013-02-13T10:04:50.910Z</time>
      </trkpt>
      <trkpt lat="47.38253" lon="-0.41208">
        <ele>72.6</ele>
        <time>2013-02-13T10:04:52.830Z</time>
      </trkpt>
      <trkpt lat="47.38254" lon="-0.41212">
        <ele>72.4</ele>
        <time>2013-02-13T10:04:53.800Z</time>
      </trkpt>
      <trkpt lat="47.38254" lon="-0.41217">
        <ele>72.3</ele>
        <time>2013-02-13T10:04:54.980Z</time>
      </trkpt>
      <trkpt lat="47.38254" lon="-0.41226">
        <ele>72.1</ele>
        <time>2013-02-13T10:04:56.780Z</time>
      </trkpt>
      <trkpt lat="47.38254" lon="-0.4123">
        <ele>72.1</ele>
        <time>2013-02-13T10:04:57.900Z</time>
      </trkpt>
      <trkpt lat="47.38253" lon="-0.41239">
        <ele>72.1</ele>
        <time>2013-02-13T10:04:59.810Z</time>
      </trkpt>
      <trkpt lat="47.38253" lon="-0.41244">
        <ele>72.6</ele>
        <time>2013-02-13T10:05:00.900Z</time>
      </trkpt>
      <trkpt lat="47.38253" lon="-0.41248">
        <ele>72.1</ele>
        <time>2013-02-13T10:05:01.850Z</time>
      </trkpt>
      <trkpt lat="47.38252" lon="-0.41253">
        <ele>72.1</ele>
        <time>2013-02-13T10:05:02.900Z</time>
      </trkpt>
      <trkpt lat="47.38252" lon="-0.41262">
        <ele>72.1</ele>
        <time>2013-02-13T10:05:04.830Z</time>
      </trkpt>
      <trkpt lat="47.38251" lon="-0.41267">
        <ele>72</ele>
        <time>2013-02-13T10:05:05.930Z</time>
      </trkpt>
      <trkpt lat="47.38251" lon="-0.41271">
        <ele>72</ele>
        <time>2013-02-13T10:05:06.830Z</time>
      </trkpt>
      <trkpt lat="47.38251" lon="-0.41276">
        <ele>72</ele>
        <time>2013-02-13T10:05:07.800Z</time>
      </trkpt>
      <trkpt lat="47.38251" lon="-0.41281">
        <ele>72</ele>
        <time>2013-02-13T10:05:09.000Z</time>
      </trkpt>
      <trkpt lat="47.3825" lon="-0.4129">
        <ele>72</ele>
        <time>2013-02-13T10:05:10.800Z</time>
      </trkpt>
      <trkpt lat="47.38249" lon="-0.41295">
        <ele>72</ele>
        <time>2013-02-13T10:05:11.780Z</time>
      </trkpt>
      <trkpt lat="47.38249" lon="-0.41299">
        <ele>72</ele>
        <time>2013-02-13T10:05:13.000Z</time>
      </trkpt>
      <trkpt lat="47.38249" lon="-0.41308">
        <ele>72</ele>
        <time>2013-02-13T10:05:14.900Z</time>
      </trkpt>
      <trkpt lat="47.38248" lon="-0.41317">
        <ele>72</ele>
        <time>2013-02-13T10:05:16.680Z</time>
      </trkpt>
      <trkpt lat="47.38248" lon="-0.41322">
        <ele>72</ele>
        <time>2013-02-13T10:05:17.900Z</time>
      </trkpt>
      <trkpt lat="47.38247" lon="-0.41331">
        <ele>72</ele>
        <time>2013-02-13T10:05:19.770Z</time>
      </trkpt>
      <trkpt lat="47.38247" lon="-0.41335">
        <ele>72</ele>
        <time>2013-02-13T10:05:20.840Z</time>
      </trkpt>
      <trkpt lat="47.38247" lon="-0.41344">
        <ele>72</ele>
        <time>2013-02-13T10:05:22.770Z</time>
      </trkpt>
      <trkpt lat="47.38247" lon="-0.41349">
        <ele>72</ele>
        <time>2013-02-13T10:05:23.770Z</time>
      </trkpt>
      <trkpt lat="47.38247" lon="-0.41353">
        <ele>72</ele>
        <time>2013-02-13T10:05:24.770Z</time>
      </trkpt>
      <trkpt lat="47.38246" lon="-0.41358">
        <ele>72</ele>
        <time>2013-02-13T10:05:25.790Z</time>
      </trkpt>
      <trkpt lat="47.38246" lon="-0.41363">
        <ele>72</ele>
        <time>2013-02-13T10:05:26.890Z</time>
      </trkpt>
      <trkpt lat="47.38247" lon="-0.41372">
        <ele>72</ele>
        <time>2013-02-13T10:05:28.680Z</time>
      </trkpt>
      <trkpt lat="47.38247" lon="-0.41377">
        <ele>72</ele>
        <time>2013-02-13T10:05:29.850Z</time>
      </trkpt>
      <trkpt lat="47.38248" lon="-0.41381">
        <ele>72</ele>
        <time>2013-02-13T10:05:30.890Z</time>
      </trkpt>
      <trkpt lat="47.3825" lon="-0.41389">
        <ele>72</ele>
        <time>2013-02-13T10:05:32.830Z</time>
      </trkpt>
      <trkpt lat="47.38253" lon="-0.41397">
        <ele>71.7</ele>
        <time>2013-02-13T10:05:34.770Z</time>
      </trkpt>
      <trkpt lat="47.38256" lon="-0.414">
        <ele>71.7</ele>
        <time>2013-02-13T10:05:35.770Z</time>
      </trkpt>
      <trkpt lat="47.38258" lon="-0.41402">
        <ele>71.7</ele>
        <time>2013-02-13T10:05:36.770Z</time>
      </trkpt>
      <trkpt lat="47.3826" lon="-0.41405">
        <ele>71.6</ele>
        <time>2013-02-13T10:05:37.790Z</time>
      </trkpt>
      <trkpt lat="47.38263" lon="-0.41407">
        <ele>71.6</ele>
        <time>2013-02-13T10:05:38.890Z</time>
      </trkpt>
      <trkpt lat="47.38268" lon="-0.4141">
        <ele>71.7</ele>
        <time>2013-02-13T10:05:40.820Z</time>
      </trkpt>
      <trkpt lat="47.38271" lon="-0.41412">
        <ele>71.8</ele>
        <time>2013-02-13T10:05:41.770Z</time>
      </trkpt>
      <trkpt lat="47.38276" lon="-0.41415">
        <ele>71.9</ele>
        <time>2013-02-13T10:05:43.780Z</time>
      </trkpt>
      <trkpt lat="47.38279" lon="-0.41417">
        <ele>72</ele>
        <time>2013-02-13T10:05:44.900Z</time>
      </trkpt>
      <trkpt lat="47.38281" lon="-0.41419">
        <ele>72</ele>
        <time>2013-02-13T10:05:45.790Z</time>
      </trkpt>
      <trkpt lat="47.38283" lon="-0.41421">
        <ele>72</ele>
        <time>2013-02-13T10:05:46.890Z</time>
      </trkpt>
      <trkpt lat="47.38287" lon="-0.41425">
        <ele>72</ele>
        <time>2013-02-13T10:05:48.910Z</time>
      </trkpt>
      <trkpt lat="47.38292" lon="-0.41429">
        <ele>72.1</ele>
        <time>2013-02-13T10:05:50.680Z</time>
      </trkpt>
      <trkpt lat="47.38293" lon="-0.41431">
        <ele>72</ele>
        <time>2013-02-13T10:05:51.770Z</time>
      </trkpt>
      <trkpt lat="47.38296" lon="-0.41433">
        <ele>72.1</ele>
        <time>2013-02-13T10:05:52.820Z</time>
      </trkpt>
      <trkpt lat="47.383" lon="-0.41437">
        <ele>72.1</ele>
        <time>2013-02-13T10:05:54.830Z</time>
      </trkpt>
      <trkpt lat="47.38301" lon="-0.4144">
        <ele>72</ele>
        <time>2013-02-13T10:05:55.790Z</time>
      </trkpt>
      <trkpt lat="47.38303" lon="-0.41442">
        <ele>72</ele>
        <time>2013-02-13T10:05:56.990Z</time>
      </trkpt>
      <trkpt lat="47.38307" lon="-0.41446">
        <ele>72.2</ele>
        <time>2013-02-13T10:05:58.790Z</time>
      </trkpt>
      <trkpt lat="47.3831" lon="-0.41448">
        <ele>72.4</ele>
        <time>2013-02-13T10:05:59.800Z</time>
      </trkpt>
      <trkpt lat="47.38311" lon="-0.4145">
        <ele>72.5</ele>
        <time>2013-02-13T10:06:00.980Z</time>
      </trkpt>
      <trkpt lat="47.38315" lon="-0.41455">
        <ele>73.1</ele>
        <time>2013-02-13T10:06:02.840Z</time>
      </trkpt>
      <trkpt lat="47.38318" lon="-0.41461">
        <ele>73.6</ele>
        <time>2013-02-13T10:06:04.910Z</time>
      </trkpt>
      <trkpt lat="47.38321" lon="-0.41467">
        <ele>74.1</ele>
        <time>2013-02-13T10:06:06.830Z</time>
      </trkpt>
      <trkpt lat="47.38322" lon="-0.41469">
        <ele>74.3</ele>
        <time>2013-02-13T10:06:07.780Z</time>
      </trkpt>
      <trkpt lat="47.38323" lon="-0.41472">
        <ele>74.6</ele>
        <time>2013-02-13T10:06:08.980Z</time>
      </trkpt>
      <trkpt lat="47.38326" lon="-0.41478">
        <ele>74.6</ele>
        <time>2013-02-13T10:06:10.830Z</time>
      </trkpt>
      <trkpt lat="47.38327" lon="-0.41481">
        <ele>74.5</ele>
        <time>2013-02-13T10:06:11.780Z</time>
      </trkpt>
      <trkpt lat="47.38328" lon="-0.41483">
        <ele>74.6</ele>
        <time>2013-02-13T10:06:12.980Z</time>
      </trkpt>
      <trkpt lat="47.38331" lon="-0.41489">
        <ele>74.5</ele>
        <time>2013-02-13T10:06:14.880Z</time>
      </trkpt>
      <trkpt lat="47.38334" lon="-0.41495">
        <ele>74.4</ele>
        <time>2013-02-13T10:06:16.680Z</time>
      </trkpt>
      <trkpt lat="47.38335" lon="-0.41498">
        <ele>74.4</ele>
        <time>2013-02-13T10:06:17.780Z</time>
      </trkpt>
      <trkpt lat="47.38337" lon="-0.415">
        <ele>74.4</ele>
        <time>2013-02-13T10:06:18.880Z</time>
      </trkpt>
      <trkpt lat="47.3834" lon="-0.41505">
        <ele>74.7</ele>
        <time>2013-02-13T10:06:20.830Z</time>
      </trkpt>
      <trkpt lat="47.38343" lon="-0.4151">
        <ele>75</ele>
        <time>2013-02-13T10:06:22.830Z</time>
      </trkpt>
      <trkpt lat="47.38345" lon="-0.41512">
        <ele>75.2</ele>
        <time>2013-02-13T10:06:23.820Z</time>
      </trkpt>
      <trkpt lat="47.38347" lon="-0.41515">
        <ele>75.4</ele>
        <time>2013-02-13T10:06:24.880Z</time>
      </trkpt>
      <trkpt lat="47.38349" lon="-0.41519">
        <ele>75.7</ele>
        <time>2013-02-13T10:06:26.830Z</time>
      </trkpt>
      <trkpt lat="47.38351" lon="-0.41522">
        <ele>75.9</ele>
        <time>2013-02-13T10:06:27.770Z</time>
      </trkpt>
      <trkpt lat="47.38353" lon="-0.41524">
        <ele>76.1</ele>
        <time>2013-02-13T10:06:28.880Z</time>
      </trkpt>
      <trkpt lat="47.38356" lon="-0.41528">
        <ele>76.4</ele>
        <time>2013-02-13T10:06:30.830Z</time>
      </trkpt>
      <trkpt lat="47.38357" lon="-0.41531">
        <ele>76.6</ele>
        <time>2013-02-13T10:06:31.780Z</time>
      </trkpt>
      <trkpt lat="47.38359" lon="-0.41533">
        <ele>76.8</ele>
        <time>2013-02-13T10:06:32.790Z</time>
      </trkpt>
      <trkpt lat="47.38361" lon="-0.41535">
        <ele>76.9</ele>
        <time>2013-02-13T10:06:33.780Z</time>
      </trkpt>
      <trkpt lat="47.38362" lon="-0.41537">
        <ele>77.1</ele>
        <time>2013-02-13T10:06:34.880Z</time>
      </trkpt>
      <trkpt lat="47.38364" lon="-0.41539">
        <ele>77.3</ele>
        <time>2013-02-13T10:06:35.850Z</time>
      </trkpt>
      <trkpt lat="47.38366" lon="-0.41541">
        <ele>77.5</ele>
        <time>2013-02-13T10:06:36.790Z</time>
      </trkpt>
      <trkpt lat="47.38367" lon="-0.41543">
        <ele>77.6</ele>
        <time>2013-02-13T10:06:37.780Z</time>
      </trkpt>
      <trkpt lat="47.38368" lon="-0.41546">
        <ele>77.7</ele>
        <time>2013-02-13T10:06:38.880Z</time>
      </trkpt>
      <trkpt lat="47.38371" lon="-0.41552">
        <ele>78</ele>
        <time>2013-02-13T10:06:40.830Z</time>
      </trkpt>
      <trkpt lat="47.38372" lon="-0.41555">
        <ele>78.2</ele>
        <time>2013-02-13T10:06:41.880Z</time>
      </trkpt>
      <trkpt lat="47.38373" lon="-0.41557">
        <ele>78.3</ele>
        <time>2013-02-13T10:06:42.830Z</time>
      </trkpt>
      <trkpt lat="47.38375" lon="-0.41559">
        <ele>78.4</ele>
        <time>2013-02-13T10:06:43.870Z</time>
      </trkpt>
      <trkpt lat="47.38377" lon="-0.41563">
        <ele>78.5</ele>
        <time>2013-02-13T10:06:45.780Z</time>
      </trkpt>
      <trkpt lat="47.38377" lon="-0.41564">
        <ele>78.6</ele>
        <time>2013-02-13T10:06:46.870Z</time>
      </trkpt>
      <trkpt lat="47.38379" lon="-0.41566">
        <ele>78.7</ele>
        <time>2013-02-13T10:06:48.840Z</time>
      </trkpt>
      <trkpt lat="47.38381" lon="-0.41569">
        <ele>78.8</ele>
        <time>2013-02-13T10:06:50.840Z</time>
      </trkpt>
      <trkpt lat="47.38382" lon="-0.41571">
        <ele>78.8</ele>
        <time>2013-02-13T10:06:51.780Z</time>
      </trkpt>
      <trkpt lat="47.38383" lon="-0.41573">
        <ele>78.8</ele>
        <time>2013-02-13T10:06:52.870Z</time>
      </trkpt>
      <trkpt lat="47.38385" lon="-0.41577">
        <ele>78.9</ele>
        <time>2013-02-13T10:06:54.670Z</time>
      </trkpt>
      <trkpt lat="47.38386" lon="-0.41579">
        <ele>78.9</ele>
        <time>2013-02-13T10:06:55.670Z</time>
      </trkpt>
      <trkpt lat="47.38387" lon="-0.4158">
        <ele>79</ele>
        <time>2013-02-13T10:06:56.670Z</time>
      </trkpt>
      <trkpt lat="47.38388" lon="-0.41582">
        <ele>79</ele>
        <time>2013-02-13T10:06:57.670Z</time>
      </trkpt>
      <trkpt lat="47.38389" lon="-0.41583">
        <ele>79</ele>
        <time>2013-02-13T10:06:58.670Z</time>
      </trkpt>
      <trkpt lat="47.38389" lon="-0.41585">
        <ele>79</ele>
        <time>2013-02-13T10:06:59.730Z</time>
      </trkpt>
      <trkpt lat="47.38391" lon="-0.41588">
        <ele>77.4</ele>
        <time>2013-02-13T10:07:01.670Z</time>
      </trkpt>
      <trkpt lat="47.38391" lon="-0.4159">
        <ele>79.2</ele>
        <time>2013-02-13T10:07:02.800Z</time>
      </trkpt>
      <trkpt lat="47.38393" lon="-0.41593">
        <ele>79.3</ele>
        <time>2013-02-13T10:07:04.670Z</time>
      </trkpt>
      <trkpt lat="47.38394" lon="-0.41595">
        <ele>79.3</ele>
        <time>2013-02-13T10:07:05.670Z</time>
      </trkpt>
      <trkpt lat="47.38394" lon="-0.41597">
        <ele>79.4</ele>
        <time>2013-02-13T10:07:06.680Z</time>
      </trkpt>
      <trkpt lat="47.38396" lon="-0.41599">
        <ele>79.5</ele>
        <time>2013-02-13T10:07:07.770Z</time>
      </trkpt>
      <trkpt lat="47.38397" lon="-0.41601">
        <ele>79.5</ele>
        <time>2013-02-13T10:07:08.880Z</time>
      </trkpt>
      <trkpt lat="47.38399" lon="-0.41605">
        <ele>79.7</ele>
        <time>2013-02-13T10:07:10.680Z</time>
      </trkpt>
      <trkpt lat="47.384" lon="-0.41607">
        <ele>79.8</ele>
        <time>2013-02-13T10:07:11.770Z</time>
      </trkpt>
      <trkpt lat="47.38401" lon="-0.41609">
        <ele>79.9</ele>
        <time>2013-02-13T10:07:12.840Z</time>
      </trkpt>
      <trkpt lat="47.38402" lon="-0.41611">
        <ele>79.9</ele>
        <time>2013-02-13T10:07:13.770Z</time>
      </trkpt>
      <trkpt lat="47.38403" lon="-0.41614">
        <ele>80</ele>
        <time>2013-02-13T10:07:14.770Z</time>
      </trkpt>
      <trkpt lat="47.38405" lon="-0.41616">
        <ele>80.1</ele>
        <time>2013-02-13T10:07:15.810Z</time>
      </trkpt>
      <trkpt lat="47.38406" lon="-0.41619">
        <ele>80.3</ele>
        <time>2013-02-13T10:07:16.850Z</time>
      </trkpt>
      <trkpt lat="47.38409" lon="-0.41625">
        <ele>80.5</ele>
        <time>2013-02-13T10:07:18.670Z</time>
      </trkpt>
      <trkpt lat="47.38411" lon="-0.41628">
        <ele>80.6</ele>
        <time>2013-02-13T10:07:19.670Z</time>
      </trkpt>
      <trkpt lat="47.38412" lon="-0.41631">
        <ele>80.6</ele>
        <time>2013-02-13T10:07:20.670Z</time>
      </trkpt>
      <trkpt lat="47.38413" lon="-0.41634">
        <ele>80.7</ele>
        <time>2013-02-13T10:07:21.670Z</time>
      </trkpt>
      <trkpt lat="47.38414" lon="-0.41638">
        <ele>80.8</ele>
        <time>2013-02-13T10:07:22.670Z</time>
      </trkpt>
      <trkpt lat="47.38415" lon="-0.4164">
        <ele>80.8</ele>
        <time>2013-02-13T10:07:23.670Z</time>
      </trkpt>
      <trkpt lat="47.38417" lon="-0.41643">
        <ele>80.7</ele>
        <time>2013-02-13T10:07:24.670Z</time>
      </trkpt>
      <trkpt lat="47.38418" lon="-0.41646">
        <ele>80.5</ele>
        <time>2013-02-13T10:07:25.670Z</time>
      </trkpt>
      <trkpt lat="47.38419" lon="-0.41649">
        <ele>80.3</ele>
        <time>2013-02-13T10:07:26.670Z</time>
      </trkpt>
      <trkpt lat="47.38421" lon="-0.41652">
        <ele>80.2</ele>
        <time>2013-02-13T10:07:27.680Z</time>
      </trkpt>
      <trkpt lat="47.38422" lon="-0.41656">
        <ele>80</ele>
        <time>2013-02-13T10:07:28.830Z</time>
      </trkpt>
      <trkpt lat="47.38424" lon="-0.41659">
        <ele>79.9</ele>
        <time>2013-02-13T10:07:29.770Z</time>
      </trkpt>
      <trkpt lat="47.38425" lon="-0.41662">
        <ele>79.8</ele>
        <time>2013-02-13T10:07:31.210Z</time>
      </trkpt>
      <trkpt lat="47.38428" lon="-0.41669">
        <ele>79.8</ele>
        <time>2013-02-13T10:07:32.760Z</time>
      </trkpt>
      <trkpt lat="47.3843" lon="-0.41672">
        <ele>79.9</ele>
        <time>2013-02-13T10:07:33.740Z</time>
      </trkpt>
      <trkpt lat="47.38431" lon="-0.41675">
        <ele>80</ele>
        <time>2013-02-13T10:07:34.710Z</time>
      </trkpt>
      <trkpt lat="47.38432" lon="-0.41678">
        <ele>80.1</ele>
        <time>2013-02-13T10:07:36.190Z</time>
      </trkpt>
      <trkpt lat="47.38435" lon="-0.41685">
        <ele>80.3</ele>
        <time>2013-02-13T10:07:37.770Z</time>
      </trkpt>
      <trkpt lat="47.38436" lon="-0.41688">
        <ele>80.4</ele>
        <time>2013-02-13T10:07:38.830Z</time>
      </trkpt>
      <trkpt lat="47.38438" lon="-0.41696">
        <ele>80.5</ele>
        <time>2013-02-13T10:07:40.830Z</time>
      </trkpt>
      <trkpt lat="47.3844" lon="-0.41703">
        <ele>80.4</ele>
        <time>2013-02-13T10:07:42.830Z</time>
      </trkpt>
      <trkpt lat="47.38442" lon="-0.41712">
        <ele>80.3</ele>
        <time>2013-02-13T10:07:44.870Z</time>
      </trkpt>
      <trkpt lat="47.38444" lon="-0.41719">
        <ele>80.1</ele>
        <time>2013-02-13T10:07:46.830Z</time>
      </trkpt>
      <trkpt lat="47.38446" lon="-0.41725">
        <ele>80.1</ele>
        <time>2013-02-13T10:07:48.780Z</time>
      </trkpt>
      <trkpt lat="47.38447" lon="-0.41729">
        <ele>80.1</ele>
        <time>2013-02-13T10:07:49.770Z</time>
      </trkpt>
      <trkpt lat="47.38448" lon="-0.41732">
        <ele>80.1</ele>
        <time>2013-02-13T10:07:50.790Z</time>
      </trkpt>
      <trkpt lat="47.38449" lon="-0.41736">
        <ele>80.2</ele>
        <time>2013-02-13T10:07:51.770Z</time>
      </trkpt>
      <trkpt lat="47.3845" lon="-0.4174">
        <ele>80.2</ele>
        <time>2013-02-13T10:07:52.770Z</time>
      </trkpt>
      <trkpt lat="47.38451" lon="-0.41744">
        <ele>80.2</ele>
        <time>2013-02-13T10:07:53.770Z</time>
      </trkpt>
      <trkpt lat="47.38452" lon="-0.41748">
        <ele>80.3</ele>
        <time>2013-02-13T10:07:54.820Z</time>
      </trkpt>
      <trkpt lat="47.38453" lon="-0.41752">
        <ele>80.2</ele>
        <time>2013-02-13T10:07:55.770Z</time>
      </trkpt>
      <trkpt lat="47.38453" lon="-0.41757">
        <ele>80.1</ele>
        <time>2013-02-13T10:07:56.820Z</time>
      </trkpt>
      <trkpt lat="47.38453" lon="-0.41761">
        <ele>79.9</ele>
        <time>2013-02-13T10:07:57.770Z</time>
      </trkpt>
      <trkpt lat="47.38453" lon="-0.41765">
        <ele>79.8</ele>
        <time>2013-02-13T10:07:58.770Z</time>
      </trkpt>
      <trkpt lat="47.38454" lon="-0.41769">
        <ele>79.6</ele>
        <time>2013-02-13T10:07:59.800Z</time>
      </trkpt>
      <trkpt lat="47.38454" lon="-0.41774">
        <ele>79.7</ele>
        <time>2013-02-13T10:08:00.850Z</time>
      </trkpt>
      <trkpt lat="47.38455" lon="-0.41782">
        <ele>79.4</ele>
        <time>2013-02-13T10:08:02.670Z</time>
      </trkpt>
      <trkpt lat="47.38455" lon="-0.41786">
        <ele>79.4</ele>
        <time>2013-02-13T10:08:03.670Z</time>
      </trkpt>
      <trkpt lat="47.38456" lon="-0.4179">
        <ele>79.4</ele>
        <time>2013-02-13T10:08:04.670Z</time>
      </trkpt>
      <trkpt lat="47.38457" lon="-0.41793">
        <ele>79.4</ele>
        <time>2013-02-13T10:08:05.670Z</time>
      </trkpt>
      <trkpt lat="47.38457" lon="-0.41797">
        <ele>79.5</ele>
        <time>2013-02-13T10:08:06.670Z</time>
      </trkpt>
      <trkpt lat="47.38458" lon="-0.418">
        <ele>79.5</ele>
        <time>2013-02-13T10:08:07.670Z</time>
      </trkpt>
      <trkpt lat="47.38458" lon="-0.41805">
        <ele>79.5</ele>
        <time>2013-02-13T10:08:08.670Z</time>
      </trkpt>
      <trkpt lat="47.38459" lon="-0.41809">
        <ele>79.5</ele>
        <time>2013-02-13T10:08:09.670Z</time>
      </trkpt>
      <trkpt lat="47.38459" lon="-0.41813">
        <ele>79.4</ele>
        <time>2013-02-13T10:08:10.670Z</time>
      </trkpt>
      <trkpt lat="47.3846" lon="-0.41817">
        <ele>79.4</ele>
        <time>2013-02-13T10:08:11.780Z</time>
      </trkpt>
      <trkpt lat="47.38461" lon="-0.41824">
        <ele>79.3</ele>
        <time>2013-02-13T10:08:13.670Z</time>
      </trkpt>
      <trkpt lat="47.38462" lon="-0.41829">
        <ele>79.3</ele>
        <time>2013-02-13T10:08:14.670Z</time>
      </trkpt>
      <trkpt lat="47.38462" lon="-0.41833">
        <ele>79.3</ele>
        <time>2013-02-13T10:08:15.780Z</time>
      </trkpt>
      <trkpt lat="47.38463" lon="-0.41836">
        <ele>79.4</ele>
        <time>2013-02-13T10:08:16.840Z</time>
      </trkpt>
      <trkpt lat="47.38464" lon="-0.41844">
        <ele>79.5</ele>
        <time>2013-02-13T10:08:18.680Z</time>
      </trkpt>
      <trkpt lat="47.38465" lon="-0.41848">
        <ele>79.6</ele>
        <time>2013-02-13T10:08:19.670Z</time>
      </trkpt>
      <trkpt lat="47.38466" lon="-0.41851">
        <ele>79.7</ele>
        <time>2013-02-13T10:08:20.670Z</time>
      </trkpt>
      <trkpt lat="47.38467" lon="-0.41855">
        <ele>79.8</ele>
        <time>2013-02-13T10:08:21.770Z</time>
      </trkpt>
      <trkpt lat="47.38468" lon="-0.41859">
        <ele>79.8</ele>
        <time>2013-02-13T10:08:22.770Z</time>
      </trkpt>
      <trkpt lat="47.3847" lon="-0.41862">
        <ele>79.9</ele>
        <time>2013-02-13T10:08:23.770Z</time>
      </trkpt>
      <trkpt lat="47.38471" lon="-0.41865">
        <ele>80</ele>
        <time>2013-02-13T10:08:24.830Z</time>
      </trkpt>
      <trkpt lat="47.38473" lon="-0.41873">
        <ele>80</ele>
        <time>2013-02-13T10:08:26.830Z</time>
      </trkpt>
      <trkpt lat="47.38475" lon="-0.4188">
        <ele>80</ele>
        <time>2013-02-13T10:08:28.830Z</time>
      </trkpt>
      <trkpt lat="47.38477" lon="-0.41888">
        <ele>80</ele>
        <time>2013-02-13T10:08:30.670Z</time>
      </trkpt>
      <trkpt lat="47.38478" lon="-0.41893">
        <ele>80</ele>
        <time>2013-02-13T10:08:31.670Z</time>
      </trkpt>
      <trkpt lat="47.38478" lon="-0.41897">
        <ele>80</ele>
        <time>2013-02-13T10:08:32.670Z</time>
      </trkpt>
      <trkpt lat="47.38479" lon="-0.41901">
        <ele>80</ele>
        <time>2013-02-13T10:08:33.780Z</time>
      </trkpt>
      <trkpt lat="47.3848" lon="-0.41905">
        <ele>80</ele>
        <time>2013-02-13T10:08:34.860Z</time>
      </trkpt>
      <trkpt lat="47.38483" lon="-0.41914">
        <ele>80</ele>
        <time>2013-02-13T10:08:36.830Z</time>
      </trkpt>
      <trkpt lat="47.38485" lon="-0.41922">
        <ele>79.9</ele>
        <time>2013-02-13T10:08:38.840Z</time>
      </trkpt>
      <trkpt lat="47.38486" lon="-0.41925">
        <ele>79.8</ele>
        <time>2013-02-13T10:08:39.800Z</time>
      </trkpt>
      <trkpt lat="47.38487" lon="-0.41929">
        <ele>79.8</ele>
        <time>2013-02-13T10:08:40.840Z</time>
      </trkpt>
      <trkpt lat="47.3849" lon="-0.41936">
        <ele>79.7</ele>
        <time>2013-02-13T10:08:42.780Z</time>
      </trkpt>
      <trkpt lat="47.38491" lon="-0.41939">
        <ele>79.7</ele>
        <time>2013-02-13T10:08:43.800Z</time>
      </trkpt>
      <trkpt lat="47.38492" lon="-0.41942">
        <ele>79.7</ele>
        <time>2013-02-13T10:08:44.780Z</time>
      </trkpt>
      <trkpt lat="47.38493" lon="-0.41945">
        <ele>79.7</ele>
        <time>2013-02-13T10:08:45.770Z</time>
      </trkpt>
      <trkpt lat="47.38494" lon="-0.41949">
        <ele>79.6</ele>
        <time>2013-02-13T10:08:46.770Z</time>
      </trkpt>
      <trkpt lat="47.38495" lon="-0.41953">
        <ele>79.5</ele>
        <time>2013-02-13T10:08:47.850Z</time>
      </trkpt>
      <trkpt lat="47.38497" lon="-0.4196">
        <ele>79.3</ele>
        <time>2013-02-13T10:08:49.670Z</time>
      </trkpt>
      <trkpt lat="47.38498" lon="-0.41964">
        <ele>79.2</ele>
        <time>2013-02-13T10:08:50.700Z</time>
      </trkpt>
      <trkpt lat="47.38499" lon="-0.41969">
        <ele>79.1</ele>
        <time>2013-02-13T10:08:51.770Z</time>
      </trkpt>
      <trkpt lat="47.38499" lon="-0.41973">
        <ele>79</ele>
        <time>2013-02-13T10:08:52.840Z</time>
      </trkpt>
      <trkpt lat="47.38499" lon="-0.41982">
        <ele>79</ele>
        <time>2013-02-13T10:08:54.670Z</time>
      </trkpt>
      <trkpt lat="47.38499" lon="-0.41986">
        <ele>78.9</ele>
        <time>2013-02-13T10:08:55.850Z</time>
      </trkpt>
      <trkpt lat="47.38494" lon="-0.4199">
        <ele>78.8</ele>
        <time>2013-02-13T10:08:57.770Z</time>
      </trkpt>
      <trkpt lat="47.38492" lon="-0.41991">
        <ele>78.7</ele>
        <time>2013-02-13T10:08:58.830Z</time>
      </trkpt>
      <trkpt lat="47.38489" lon="-0.41992">
        <ele>78.6</ele>
        <time>2013-02-13T10:08:59.880Z</time>
      </trkpt>
      <trkpt lat="47.38484" lon="-0.41995">
        <ele>80.4</ele>
        <time>2013-02-13T10:09:01.770Z</time>
      </trkpt>
      <trkpt lat="47.38483" lon="-0.41999">
        <ele>78.4</ele>
        <time>2013-02-13T10:09:02.830Z</time>
      </trkpt>
      <trkpt lat="47.38482" lon="-0.42004">
        <ele>78.2</ele>
        <time>2013-02-13T10:09:03.850Z</time>
      </trkpt>
      <trkpt lat="47.38482" lon="-0.42012">
        <ele>77.6</ele>
        <time>2013-02-13T10:09:05.770Z</time>
      </trkpt>
      <trkpt lat="47.38482" lon="-0.42015">
        <ele>77.4</ele>
        <time>2013-02-13T10:09:06.830Z</time>
      </trkpt>
      <trkpt lat="47.38481" lon="-0.42023">
        <ele>76.9</ele>
        <time>2013-02-13T10:09:08.670Z</time>
      </trkpt>
      <trkpt lat="47.3848" lon="-0.42027">
        <ele>76.6</ele>
        <time>2013-02-13T10:09:09.790Z</time>
      </trkpt>
      <trkpt lat="47.38481" lon="-0.42031">
        <ele>76.6</ele>
        <time>2013-02-13T10:09:10.770Z</time>
      </trkpt>
      <trkpt lat="47.38481" lon="-0.42036">
        <ele>76.6</ele>
        <time>2013-02-13T10:09:11.860Z</time>
      </trkpt>
      <trkpt lat="47.38482" lon="-0.42043">
        <ele>76.7</ele>
        <time>2013-02-13T10:09:13.780Z</time>
      </trkpt>
      <trkpt lat="47.38482" lon="-0.42047">
        <ele>76.7</ele>
        <time>2013-02-13T10:09:14.770Z</time>
      </trkpt>
      <trkpt lat="47.38482" lon="-0.42051">
        <ele>76.7</ele>
        <time>2013-02-13T10:09:15.850Z</time>
      </trkpt>
      <trkpt lat="47.38482" lon="-0.42061">
        <ele>76.6</ele>
        <time>2013-02-13T10:09:17.670Z</time>
      </trkpt>
      <trkpt lat="47.38481" lon="-0.42065">
        <ele>76.5</ele>
        <time>2013-02-13T10:09:18.670Z</time>
      </trkpt>
      <trkpt lat="47.3848" lon="-0.42069">
        <ele>76.4</ele>
        <time>2013-02-13T10:09:19.780Z</time>
      </trkpt>
      <trkpt lat="47.3848" lon="-0.42074">
        <ele>76.4</ele>
        <time>2013-02-13T10:09:20.830Z</time>
      </trkpt>
      <trkpt lat="47.38481" lon="-0.42083">
        <ele>76.3</ele>
        <time>2013-02-13T10:09:22.830Z</time>
      </trkpt>
      <trkpt lat="47.38481" lon="-0.42091">
        <ele>75.9</ele>
        <time>2013-02-13T10:09:24.910Z</time>
      </trkpt>
      <trkpt lat="47.3848" lon="-0.421">
        <ele>75.4</ele>
        <time>2013-02-13T10:09:26.680Z</time>
      </trkpt>
      <trkpt lat="47.3848" lon="-0.42104">
        <ele>75.2</ele>
        <time>2013-02-13T10:09:27.670Z</time>
      </trkpt>
      <trkpt lat="47.38478" lon="-0.42107">
        <ele>74.9</ele>
        <time>2013-02-13T10:09:28.670Z</time>
      </trkpt>
      <trkpt lat="47.38476" lon="-0.42111">
        <ele>74.5</ele>
        <time>2013-02-13T10:09:29.850Z</time>
      </trkpt>
      <trkpt lat="47.38474" lon="-0.42118">
        <ele>74.4</ele>
        <time>2013-02-13T10:09:31.770Z</time>
      </trkpt>
      <trkpt lat="47.38473" lon="-0.42122">
        <ele>74.5</ele>
        <time>2013-02-13T10:09:32.780Z</time>
      </trkpt>
      <trkpt lat="47.38472" lon="-0.42127">
        <ele>74.6</ele>
        <time>2013-02-13T10:09:33.860Z</time>
      </trkpt>
      <trkpt lat="47.38472" lon="-0.42134">
        <ele>74.8</ele>
        <time>2013-02-13T10:09:35.770Z</time>
      </trkpt>
      <trkpt lat="47.38471" lon="-0.42136">
        <ele>74.8</ele>
        <time>2013-02-13T10:09:36.840Z</time>
      </trkpt>
      <trkpt lat="47.38469" lon="-0.4214">
        <ele>74.7</ele>
        <time>2013-02-13T10:09:38.830Z</time>
      </trkpt>
      <trkpt lat="47.38467" lon="-0.42143">
        <ele>74.4</ele>
        <time>2013-02-13T10:09:40.670Z</time>
      </trkpt>
      <trkpt lat="47.38465" lon="-0.42145">
        <ele>74.2</ele>
        <time>2013-02-13T10:09:41.770Z</time>
      </trkpt>
      <trkpt lat="47.38462" lon="-0.42149">
        <ele>73.9</ele>
        <time>2013-02-13T10:09:43.780Z</time>
      </trkpt>
      <trkpt lat="47.38461" lon="-0.42152">
        <ele>73.8</ele>
        <time>2013-02-13T10:09:44.820Z</time>
      </trkpt>
      <trkpt lat="47.38459" lon="-0.42158">
        <ele>73.6</ele>
        <time>2013-02-13T10:09:46.900Z</time>
      </trkpt>
      <trkpt lat="47.38458" lon="-0.42165">
        <ele>73.4</ele>
        <time>2013-02-13T10:09:48.670Z</time>
      </trkpt>
      <trkpt lat="47.38457" lon="-0.42168">
        <ele>73.4</ele>
        <time>2013-02-13T10:09:49.770Z</time>
      </trkpt>
      <trkpt lat="47.38456" lon="-0.42171">
        <ele>73.3</ele>
        <time>2013-02-13T10:09:50.840Z</time>
      </trkpt>
      <trkpt lat="47.38453" lon="-0.42177">
        <ele>73.1</ele>
        <time>2013-02-13T10:09:52.830Z</time>
      </trkpt>
      <trkpt lat="47.38452" lon="-0.42181">
        <ele>73.2</ele>
        <time>2013-02-13T10:09:54.670Z</time>
      </trkpt>
      <trkpt lat="47.38452" lon="-0.42184">
        <ele>73.3</ele>
        <time>2013-02-13T10:09:56.670Z</time>
      </trkpt>
      <trkpt lat="47.38452" lon="-0.42186">
        <ele>73.3</ele>
        <time>2013-02-13T10:09:57.770Z</time>
      </trkpt>
      <trkpt lat="47.38452" lon="-0.4219">
        <ele>73.4</ele>
        <time>2013-02-13T10:09:58.820Z</time>
      </trkpt>
      <trkpt lat="47.38452" lon="-0.42193">
        <ele>73.5</ele>
        <time>2013-02-13T10:09:59.900Z</time>
      </trkpt>
      <trkpt lat="47.38451" lon="-0.42199">
        <ele>77.7</ele>
        <time>2013-02-13T10:10:01.780Z</time>
      </trkpt>
      <trkpt lat="47.38451" lon="-0.42201">
        <ele>73.7</ele>
        <time>2013-02-13T10:10:02.830Z</time>
      </trkpt>
      <trkpt lat="47.3845" lon="-0.42205">
        <ele>73.8</ele>
        <time>2013-02-13T10:10:04.840Z</time>
      </trkpt>
      <trkpt lat="47.38449" lon="-0.42209">
        <ele>73.8</ele>
        <time>2013-02-13T10:10:06.630Z</time>
      </trkpt>
      <trkpt lat="47.38449" lon="-0.42211">
        <ele>73.9</ele>
        <time>2013-02-13T10:10:07.770Z</time>
      </trkpt>
      <trkpt lat="47.38448" lon="-0.42212">
        <ele>73.9</ele>
        <time>2013-02-13T10:10:08.770Z</time>
      </trkpt>
      <trkpt lat="47.38447" lon="-0.42214">
        <ele>73.9</ele>
        <time>2013-02-13T10:10:12.830Z</time>
      </trkpt>
      <trkpt lat="47.38447" lon="-0.42216">
        <ele>73.9</ele>
        <time>2013-02-13T10:10:14.620Z</time>
      </trkpt>
      <trkpt lat="47.38447" lon="-0.42218">
        <ele>74</ele>
        <time>2013-02-13T10:10:16.520Z</time>
      </trkpt>
      <trkpt lat="47.38446" lon="-0.42219">
        <ele>74</ele>
        <time>2013-02-13T10:10:17.600Z</time>
      </trkpt>
      <trkpt lat="47.38446" lon="-0.42221">
        <ele>74.1</ele>
        <time>2013-02-13T10:10:18.600Z</time>
      </trkpt>
      <trkpt lat="47.38446" lon="-0.42224">
        <ele>74.1</ele>
        <time>2013-02-13T10:10:19.770Z</time>
      </trkpt>
      <trkpt lat="47.38445" lon="-0.42227">
        <ele>74.2</ele>
        <time>2013-02-13T10:10:20.840Z</time>
      </trkpt>
      <trkpt lat="47.38445" lon="-0.4223">
        <ele>74.3</ele>
        <time>2013-02-13T10:10:21.820Z</time>
      </trkpt>
      <trkpt lat="47.38445" lon="-0.42232">
        <ele>74.4</ele>
        <time>2013-02-13T10:10:22.920Z</time>
      </trkpt>
      <trkpt lat="47.38444" lon="-0.42236">
        <ele>74.5</ele>
        <time>2013-02-13T10:10:24.770Z</time>
      </trkpt>
      <trkpt lat="47.38443" lon="-0.42238">
        <ele>74.4</ele>
        <time>2013-02-13T10:10:25.770Z</time>
      </trkpt>
      <trkpt lat="47.38442" lon="-0.42239">
        <ele>74.4</ele>
        <time>2013-02-13T10:10:26.920Z</time>
      </trkpt>
      <trkpt lat="47.38442" lon="-0.42242">
        <ele>74.5</ele>
        <time>2013-02-13T10:10:28.600Z</time>
      </trkpt>
      <trkpt lat="47.38441" lon="-0.42244">
        <ele>74.5</ele>
        <time>2013-02-13T10:10:31.020Z</time>
      </trkpt>
      <trkpt lat="47.3844" lon="-0.42248">
        <ele>74.6</ele>
        <time>2013-02-13T10:10:32.920Z</time>
      </trkpt>
      <trkpt lat="47.3844" lon="-0.42253">
        <ele>74.9</ele>
        <time>2013-02-13T10:10:34.860Z</time>
      </trkpt>
      <trkpt lat="47.3844" lon="-0.4226">
        <ele>75.4</ele>
        <time>2013-02-13T10:10:36.840Z</time>
      </trkpt>
      <trkpt lat="47.3844" lon="-0.42263">
        <ele>75.6</ele>
        <time>2013-02-13T10:10:37.820Z</time>
      </trkpt>
      <trkpt lat="47.3844" lon="-0.42265">
        <ele>75.8</ele>
        <time>2013-02-13T10:10:38.920Z</time>
      </trkpt>
      <trkpt lat="47.38439" lon="-0.42269">
        <ele>75.9</ele>
        <time>2013-02-13T10:10:40.840Z</time>
      </trkpt>
      <trkpt lat="47.38438" lon="-0.4227">
        <ele>76</ele>
        <time>2013-02-13T10:10:42.920Z</time>
      </trkpt>
      <trkpt lat="47.38437" lon="-0.42272">
        <ele>76.1</ele>
        <time>2013-02-13T10:10:44.770Z</time>
      </trkpt>
      <trkpt lat="47.38437" lon="-0.42275">
        <ele>76.3</ele>
        <time>2013-02-13T10:10:45.770Z</time>
      </trkpt>
      <trkpt lat="47.38437" lon="-0.42278">
        <ele>76.4</ele>
        <time>2013-02-13T10:10:46.840Z</time>
      </trkpt>
      <trkpt lat="47.38436" lon="-0.42284">
        <ele>76.7</ele>
        <time>2013-02-13T10:10:48.840Z</time>
      </trkpt>
      <trkpt lat="47.38435" lon="-0.42286">
        <ele>76.7</ele>
        <time>2013-02-13T10:10:49.810Z</time>
      </trkpt>
      <trkpt lat="47.38435" lon="-0.42289">
        <ele>76.8</ele>
        <time>2013-02-13T10:10:50.900Z</time>
      </trkpt>
      <trkpt lat="47.38435" lon="-0.42293">
        <ele>77</ele>
        <time>2013-02-13T10:10:52.840Z</time>
      </trkpt>
      <trkpt lat="47.38435" lon="-0.42295">
        <ele>77.1</ele>
        <time>2013-02-13T10:10:53.800Z</time>
      </trkpt>
      <trkpt lat="47.38435" lon="-0.42297">
        <ele>77.3</ele>
        <time>2013-02-13T10:10:56.860Z</time>
      </trkpt>
      <trkpt lat="47.38434" lon="-0.42299">
        <ele>77.3</ele>
        <time>2013-02-13T10:10:58.910Z</time>
      </trkpt>
      <trkpt lat="47.38434" lon="-0.42301">
        <ele>77.6</ele>
        <time>2013-02-13T10:11:00.910Z</time>
      </trkpt>
      <trkpt lat="47.38433" lon="-0.42304">
        <ele>77.5</ele>
        <time>2013-02-13T10:11:02.830Z</time>
      </trkpt>
      <trkpt lat="47.38433" lon="-0.42306">
        <ele>77.6</ele>
        <time>2013-02-13T10:11:04.840Z</time>
      </trkpt>
      <trkpt lat="47.38431" lon="-0.42309">
        <ele>77.6</ele>
        <time>2013-02-13T10:11:06.830Z</time>
      </trkpt>
      <trkpt lat="47.38431" lon="-0.4231">
        <ele>77.7</ele>
        <time>2013-02-13T10:11:07.810Z</time>
      </trkpt>
      <trkpt lat="47.3843" lon="-0.42312">
        <ele>77.7</ele>
        <time>2013-02-13T10:11:08.890Z</time>
      </trkpt>
      <trkpt lat="47.38429" lon="-0.42314">
        <ele>77.8</ele>
        <time>2013-02-13T10:11:10.830Z</time>
      </trkpt>
      <trkpt lat="47.38429" lon="-0.42316">
        <ele>77.8</ele>
        <time>2013-02-13T10:11:11.850Z</time>
      </trkpt>
      <trkpt lat="47.38428" lon="-0.42318">
        <ele>77.8</ele>
        <time>2013-02-13T10:11:14.830Z</time>
      </trkpt>
      <trkpt lat="47.38427" lon="-0.4232">
        <ele>77.9</ele>
        <time>2013-02-13T10:11:16.920Z</time>
      </trkpt>
      <trkpt lat="47.38427" lon="-0.42323">
        <ele>78</ele>
        <time>2013-02-13T10:11:18.830Z</time>
      </trkpt>
      <trkpt lat="47.38427" lon="-0.42324">
        <ele>78</ele>
        <time>2013-02-13T10:11:19.810Z</time>
      </trkpt>
      <trkpt lat="47.38427" lon="-0.42326">
        <ele>78.1</ele>
        <time>2013-02-13T10:11:21.010Z</time>
      </trkpt>
      <trkpt lat="47.38427" lon="-0.42327">
        <ele>78.2</ele>
        <time>2013-02-13T10:11:29.770Z</time>
      </trkpt>
      <trkpt lat="47.38427" lon="-0.42329">
        <ele>78.2</ele>
        <time>2013-02-13T10:11:31.800Z</time>
      </trkpt>
      <trkpt lat="47.38426" lon="-0.42331">
        <ele>78.2</ele>
        <time>2013-02-13T10:11:33.780Z</time>
      </trkpt>
      <trkpt lat="47.38426" lon="-0.42333">
        <ele>78.3</ele>
        <time>2013-02-13T10:11:35.900Z</time>
      </trkpt>
      <trkpt lat="47.38426" lon="-0.42335">
        <ele>78.4</ele>
        <time>2013-02-13T10:11:38.770Z</time>
      </trkpt>
      <trkpt lat="47.38426" lon="-0.42337">
        <ele>78.4</ele>
        <time>2013-02-13T10:11:45.900Z</time>
      </trkpt>
      <trkpt lat="47.38426" lon="-0.42338">
        <ele>78.4</ele>
        <time>2013-02-13T10:11:47.770Z</time>
      </trkpt>
      <trkpt lat="47.38427" lon="-0.42339">
        <ele>78.4</ele>
        <time>2013-02-13T10:11:52.800Z</time>
      </trkpt>
      <trkpt lat="47.38427" lon="-0.4234">
        <ele>78.4</ele>
        <time>2013-02-13T10:11:55.800Z</time>
      </trkpt>
      <trkpt lat="47.38426" lon="-0.42341">
        <ele>78.4</ele>
        <time>2013-02-13T10:11:59.830Z</time>
      </trkpt>
      <trkpt lat="47.38426" lon="-0.42342">
        <ele>73.1</ele>
        <time>2013-02-13T10:12:01.770Z</time>
      </trkpt>
      <trkpt lat="47.38427" lon="-0.42342">
        <ele>78.5</ele>
        <time>2013-02-13T10:12:08.800Z</time>
      </trkpt>
      <trkpt lat="47.38427" lon="-0.42342">
        <ele>78.5</ele>
        <time>2013-02-13T10:12:15.770Z</time>
      </trkpt>
      <trkpt lat="47.38427" lon="-0.42344">
        <ele>78.5</ele>
        <time>2013-02-13T10:12:18.830Z</time>
      </trkpt>
      <trkpt lat="47.38427" lon="-0.42346">
        <ele>78.5</ele>
        <time>2013-02-13T10:12:20.890Z</time>
      </trkpt>
      <trkpt lat="47.38427" lon="-0.42348">
        <ele>78.6</ele>
        <time>2013-02-13T10:12:22.890Z</time>
      </trkpt>
      <trkpt lat="47.38428" lon="-0.42351">
        <ele>78.7</ele>
        <time>2013-02-13T10:12:24.840Z</time>
      </trkpt>
      <trkpt lat="47.38428" lon="-0.42352">
        <ele>78.7</ele>
        <time>2013-02-13T10:12:25.890Z</time>
      </trkpt>
      <trkpt lat="47.38427" lon="-0.42354">
        <ele>78.6</ele>
        <time>2013-02-13T10:12:27.790Z</time>
      </trkpt>
      <trkpt lat="47.38427" lon="-0.42355">
        <ele>78.7</ele>
        <time>2013-02-13T10:12:28.890Z</time>
      </trkpt>
      <trkpt lat="47.38428" lon="-0.42356">
        <ele>78.7</ele>
        <time>2013-02-13T10:12:29.850Z</time>
      </trkpt>
      <trkpt lat="47.38429" lon="-0.42357">
        <ele>78.8</ele>
        <time>2013-02-13T10:12:30.890Z</time>
      </trkpt>
      <trkpt lat="47.38429" lon="-0.4236">
        <ele>78.9</ele>
        <time>2013-02-13T10:12:32.830Z</time>
      </trkpt>
      <trkpt lat="47.3843" lon="-0.4236">
        <ele>79</ele>
        <time>2013-02-13T10:12:33.880Z</time>
      </trkpt>
      <trkpt lat="47.38432" lon="-0.42362">
        <ele>79</ele>
        <time>2013-02-13T10:12:35.670Z</time>
      </trkpt>
      <trkpt lat="47.38431" lon="-0.42364">
        <ele>78.9</ele>
        <time>2013-02-13T10:12:36.770Z</time>
      </trkpt>
      <trkpt lat="47.38432" lon="-0.42365">
        <ele>78.9</ele>
        <time>2013-02-13T10:12:37.790Z</time>
      </trkpt>
      <trkpt lat="47.38433" lon="-0.42366">
        <ele>78.9</ele>
        <time>2013-02-13T10:12:38.890Z</time>
      </trkpt>
      <trkpt lat="47.38435" lon="-0.42368">
        <ele>78.9</ele>
        <time>2013-02-13T10:12:40.770Z</time>
      </trkpt>
      <trkpt lat="47.38435" lon="-0.4237">
        <ele>78.8</ele>
        <time>2013-02-13T10:12:41.790Z</time>
      </trkpt>
      <trkpt lat="47.38436" lon="-0.42371">
        <ele>78.8</ele>
        <time>2013-02-13T10:12:42.890Z</time>
      </trkpt>
      <trkpt lat="47.38438" lon="-0.42373">
        <ele>78.8</ele>
        <time>2013-02-13T10:12:44.830Z</time>
      </trkpt>
      <trkpt lat="47.38439" lon="-0.42375">
        <ele>78.7</ele>
        <time>2013-02-13T10:12:46.830Z</time>
      </trkpt>
      <trkpt lat="47.3844" lon="-0.42376">
        <ele>78.7</ele>
        <time>2013-02-13T10:12:48.890Z</time>
      </trkpt>
      <trkpt lat="47.38441" lon="-0.42378">
        <ele>78.6</ele>
        <time>2013-02-13T10:12:50.720Z</time>
      </trkpt>
      <trkpt lat="47.38441" lon="-0.4238">
        <ele>78.5</ele>
        <time>2013-02-13T10:12:51.780Z</time>
      </trkpt>
      <trkpt lat="47.3844" lon="-0.42382">
        <ele>78.3</ele>
        <time>2013-02-13T10:12:53.860Z</time>
      </trkpt>
      <trkpt lat="47.38439" lon="-0.42383">
        <ele>78.2</ele>
        <time>2013-02-13T10:12:54.880Z</time>
      </trkpt>
      <trkpt lat="47.38439" lon="-0.42383">
        <ele>75.9</ele>
        <time>2013-02-13T10:13:00.770Z</time>
      </trkpt>
      <trkpt lat="47.3844" lon="-0.42385">
        <ele>78.1</ele>
        <time>2013-02-13T10:13:05.770Z</time>
      </trkpt>
      <trkpt lat="47.38441" lon="-0.42386">
        <ele>78.1</ele>
        <time>2013-02-13T10:13:07.680Z</time>
      </trkpt>
      <trkpt lat="47.38441" lon="-0.42387">
        <ele>78</ele>
        <time>2013-02-13T10:13:09.850Z</time>
      </trkpt>
      <trkpt lat="47.3844" lon="-0.42386">
        <ele>78</ele>
        <time>2013-02-13T10:13:14.850Z</time>
      </trkpt>
      <trkpt lat="47.38441" lon="-0.42388">
        <ele>77.9</ele>
        <time>2013-02-13T10:13:18.780Z</time>
      </trkpt>
      <trkpt lat="47.38442" lon="-0.42388">
        <ele>78</ele>
        <time>2013-02-13T10:13:21.780Z</time>
      </trkpt>
      <trkpt lat="47.38442" lon="-0.42386">
        <ele>78.1</ele>
        <time>2013-02-13T10:13:25.790Z</time>
      </trkpt>
      <trkpt lat="47.38441" lon="-0.42387">
        <ele>78</ele>
        <time>2013-02-13T10:13:30.850Z</time>
      </trkpt>
      <trkpt lat="47.38443" lon="-0.42388">
        <ele>78</ele>
        <time>2013-02-13T10:13:35.770Z</time>
      </trkpt>
      <trkpt lat="47.38444" lon="-0.42388">
        <ele>78</ele>
        <time>2013-02-13T10:13:36.780Z</time>
      </trkpt>
      <trkpt lat="47.38445" lon="-0.42389">
        <ele>78</ele>
        <time>2013-02-13T10:13:38.870Z</time>
      </trkpt>
      <trkpt lat="47.38446" lon="-0.42391">
        <ele>77.9</ele>
        <time>2013-02-13T10:13:43.820Z</time>
      </trkpt>
      <trkpt lat="47.38446" lon="-0.42392">
        <ele>77.8</ele>
        <time>2013-02-13T10:13:44.770Z</time>
      </trkpt>
      <trkpt lat="47.38447" lon="-0.42393">
        <ele>77.8</ele>
        <time>2013-02-13T10:13:46.830Z</time>
      </trkpt>
      <trkpt lat="47.38448" lon="-0.42392">
        <ele>77.9</ele>
        <time>2013-02-13T10:13:48.840Z</time>
      </trkpt>
      <trkpt lat="47.38449" lon="-0.42391">
        <ele>78</ele>
        <time>2013-02-13T10:13:50.830Z</time>
      </trkpt>
      <trkpt lat="47.38451" lon="-0.42389">
        <ele>78.2</ele>
        <time>2013-02-13T10:13:52.770Z</time>
      </trkpt>
      <trkpt lat="47.38449" lon="-0.42388">
        <ele>78.2</ele>
        <time>2013-02-13T10:13:55.670Z</time>
      </trkpt>
      <trkpt lat="47.38448" lon="-0.42388">
        <ele>78.2</ele>
        <time>2013-02-13T10:13:56.670Z</time>
      </trkpt>
      <trkpt lat="47.38447" lon="-0.42388">
        <ele>78.2</ele>
        <time>2013-02-13T10:13:57.670Z</time>
      </trkpt>
      <trkpt lat="47.38446" lon="-0.42388">
        <ele>78.1</ele>
        <time>2013-02-13T10:13:58.680Z</time>
      </trkpt>
      <trkpt lat="47.38445" lon="-0.42388">
        <ele>78.1</ele>
        <time>2013-02-13T10:13:59.920Z</time>
      </trkpt>
      <trkpt lat="47.38443" lon="-0.42388">
        <ele>76.6</ele>
        <time>2013-02-13T10:14:01.780Z</time>
      </trkpt>
      <trkpt lat="47.38442" lon="-0.42389">
        <ele>77.9</ele>
        <time>2013-02-13T10:14:02.910Z</time>
      </trkpt>
      <trkpt lat="47.3844" lon="-0.42388">
        <ele>77.9</ele>
        <time>2013-02-13T10:14:04.830Z</time>
      </trkpt>
      <trkpt lat="47.38437" lon="-0.42389">
        <ele>77.7</ele>
        <time>2013-02-13T10:14:06.830Z</time>
      </trkpt>
      <trkpt lat="47.38435" lon="-0.42393">
        <ele>77.4</ele>
        <time>2013-02-13T10:14:08.910Z</time>
      </trkpt>
      <trkpt lat="47.38435" lon="-0.42401">
        <ele>76.9</ele>
        <time>2013-02-13T10:14:10.670Z</time>
      </trkpt>
      <trkpt lat="47.38435" lon="-0.42404">
        <ele>76.8</ele>
        <time>2013-02-13T10:14:11.770Z</time>
      </trkpt>
      <trkpt lat="47.38435" lon="-0.42409">
        <ele>76.5</ele>
        <time>2013-02-13T10:14:12.840Z</time>
      </trkpt>
      <trkpt lat="47.38436" lon="-0.42416">
        <ele>76.1</ele>
        <time>2013-02-13T10:14:14.670Z</time>
      </trkpt>
      <trkpt lat="47.38436" lon="-0.42419">
        <ele>75.9</ele>
        <time>2013-02-13T10:14:15.780Z</time>
      </trkpt>
      <trkpt lat="47.38436" lon="-0.42422">
        <ele>75.8</ele>
        <time>2013-02-13T10:14:16.790Z</time>
      </trkpt>
      <trkpt lat="47.38436" lon="-0.42427">
        <ele>75.5</ele>
        <time>2013-02-13T10:14:18.670Z</time>
      </trkpt>
      <trkpt lat="47.38436" lon="-0.4243">
        <ele>75.4</ele>
        <time>2013-02-13T10:14:19.770Z</time>
      </trkpt>
      <trkpt lat="47.38436" lon="-0.42432">
        <ele>75.3</ele>
        <time>2013-02-13T10:14:20.910Z</time>
      </trkpt>
      <trkpt lat="47.38436" lon="-0.42438">
        <ele>75</ele>
        <time>2013-02-13T10:14:22.850Z</time>
      </trkpt>
      <trkpt lat="47.38436" lon="-0.42443">
        <ele>74.8</ele>
        <time>2013-02-13T10:14:24.840Z</time>
      </trkpt>
      <trkpt lat="47.38437" lon="-0.42449">
        <ele>74.4</ele>
        <time>2013-02-13T10:14:26.920Z</time>
      </trkpt>
      <trkpt lat="47.38437" lon="-0.42454">
        <ele>74.1</ele>
        <time>2013-02-13T10:14:28.670Z</time>
      </trkpt>
      <trkpt lat="47.38438" lon="-0.42457">
        <ele>74</ele>
        <time>2013-02-13T10:14:29.670Z</time>
      </trkpt>
      <trkpt lat="47.38437" lon="-0.4246">
        <ele>73.8</ele>
        <time>2013-02-13T10:14:30.670Z</time>
      </trkpt>
      <trkpt lat="47.38437" lon="-0.42462">
        <ele>73.6</ele>
        <time>2013-02-13T10:14:31.670Z</time>
      </trkpt>
      <trkpt lat="47.38437" lon="-0.42464">
        <ele>73.5</ele>
        <time>2013-02-13T10:14:32.850Z</time>
      </trkpt>
      <trkpt lat="47.38438" lon="-0.4247">
        <ele>73.1</ele>
        <time>2013-02-13T10:14:34.670Z</time>
      </trkpt>
      <trkpt lat="47.38438" lon="-0.42473">
        <ele>73</ele>
        <time>2013-02-13T10:14:35.670Z</time>
      </trkpt>
      <trkpt lat="47.38437" lon="-0.42475">
        <ele>72.8</ele>
        <time>2013-02-13T10:14:36.670Z</time>
      </trkpt>
      <trkpt lat="47.38437" lon="-0.42477">
        <ele>72.7</ele>
        <time>2013-02-13T10:14:37.670Z</time>
      </trkpt>
      <trkpt lat="47.38436" lon="-0.42479">
        <ele>72.5</ele>
        <time>2013-02-13T10:14:38.840Z</time>
      </trkpt>
      <trkpt lat="47.38437" lon="-0.42482">
        <ele>72.3</ele>
        <time>2013-02-13T10:14:39.770Z</time>
      </trkpt>
      <trkpt lat="47.38438" lon="-0.42485">
        <ele>72.1</ele>
        <time>2013-02-13T10:14:40.840Z</time>
      </trkpt>
      <trkpt lat="47.38438" lon="-0.4249">
        <ele>71.7</ele>
        <time>2013-02-13T10:14:42.670Z</time>
      </trkpt>
      <trkpt lat="47.38438" lon="-0.42493">
        <ele>71.5</ele>
        <time>2013-02-13T10:14:43.780Z</time>
      </trkpt>
      <trkpt lat="47.38438" lon="-0.42495">
        <ele>71.4</ele>
        <time>2013-02-13T10:14:44.840Z</time>
      </trkpt>
      <trkpt lat="47.38437" lon="-0.42498">
        <ele>71.2</ele>
        <time>2013-02-13T10:14:45.860Z</time>
      </trkpt>
      <trkpt lat="47.38438" lon="-0.42504">
        <ele>70.8</ele>
        <time>2013-02-13T10:14:47.770Z</time>
      </trkpt>
      <trkpt lat="47.38437" lon="-0.42507">
        <ele>70.7</ele>
        <time>2013-02-13T10:14:48.770Z</time>
      </trkpt>
      <trkpt lat="47.38437" lon="-0.42509">
        <ele>70.6</ele>
        <time>2013-02-13T10:14:49.870Z</time>
      </trkpt>
      <trkpt lat="47.38436" lon="-0.42514">
        <ele>70.3</ele>
        <time>2013-02-13T10:14:51.670Z</time>
      </trkpt>
      <trkpt lat="47.38435" lon="-0.42518">
        <ele>70.2</ele>
        <time>2013-02-13T10:14:52.670Z</time>
      </trkpt>
      <trkpt lat="47.38435" lon="-0.42519">
        <ele>70.1</ele>
        <time>2013-02-13T10:14:53.770Z</time>
      </trkpt>
      <trkpt lat="47.38435" lon="-0.42521">
        <ele>70</ele>
        <time>2013-02-13T10:14:54.840Z</time>
      </trkpt>
      <trkpt lat="47.38435" lon="-0.42524">
        <ele>69.8</ele>
        <time>2013-02-13T10:14:56.840Z</time>
      </trkpt>
      <trkpt lat="47.38435" lon="-0.42528">
        <ele>69.7</ele>
        <time>2013-02-13T10:14:58.920Z</time>
      </trkpt>
      <trkpt lat="47.38435" lon="-0.42534">
        <ele>76.6</ele>
        <time>2013-02-13T10:15:00.840Z</time>
      </trkpt>
      <trkpt lat="47.38436" lon="-0.42538">
        <ele>69.3</ele>
        <time>2013-02-13T10:15:01.770Z</time>
      </trkpt>
      <trkpt lat="47.38435" lon="-0.42543">
        <ele>69.1</ele>
        <time>2013-02-13T10:15:03.770Z</time>
      </trkpt>
      <trkpt lat="47.38435" lon="-0.42545">
        <ele>69</ele>
        <time>2013-02-13T10:15:04.830Z</time>
      </trkpt>
      <trkpt lat="47.38434" lon="-0.4255">
        <ele>68.8</ele>
        <time>2013-02-13T10:15:06.920Z</time>
      </trkpt>
      <trkpt lat="47.38435" lon="-0.42557">
        <ele>68.6</ele>
        <time>2013-02-13T10:15:08.670Z</time>
      </trkpt>
      <trkpt lat="47.38435" lon="-0.4256">
        <ele>68.5</ele>
        <time>2013-02-13T10:15:09.770Z</time>
      </trkpt>
      <trkpt lat="47.38435" lon="-0.42563">
        <ele>68.4</ele>
        <time>2013-02-13T10:15:10.840Z</time>
      </trkpt>
      <trkpt lat="47.38435" lon="-0.42569">
        <ele>68.2</ele>
        <time>2013-02-13T10:15:12.670Z</time>
      </trkpt>
      <trkpt lat="47.38436" lon="-0.42572">
        <ele>68.1</ele>
        <time>2013-02-13T10:15:13.770Z</time>
      </trkpt>
      <trkpt lat="47.38436" lon="-0.42575">
        <ele>68</ele>
        <time>2013-02-13T10:15:14.840Z</time>
      </trkpt>
      <trkpt lat="47.38436" lon="-0.4258">
        <ele>67.8</ele>
        <time>2013-02-13T10:15:16.680Z</time>
      </trkpt>
      <trkpt lat="47.38436" lon="-0.42583">
        <ele>67.7</ele>
        <time>2013-02-13T10:15:17.770Z</time>
      </trkpt>
      <trkpt lat="47.38437" lon="-0.42586">
        <ele>67.6</ele>
        <time>2013-02-13T10:15:18.830Z</time>
      </trkpt>
      <trkpt lat="47.38438" lon="-0.42589">
        <ele>67.5</ele>
        <time>2013-02-13T10:15:19.850Z</time>
      </trkpt>
      <trkpt lat="47.3844" lon="-0.42594">
        <ele>67.2</ele>
        <time>2013-02-13T10:15:21.770Z</time>
      </trkpt>
      <trkpt lat="47.3844" lon="-0.42596">
        <ele>67.1</ele>
        <time>2013-02-13T10:15:22.670Z</time>
      </trkpt>
      <trkpt lat="47.3844" lon="-0.42599">
        <ele>66.9</ele>
        <time>2013-02-13T10:15:23.860Z</time>
      </trkpt>
      <trkpt lat="47.38439" lon="-0.42602">
        <ele>66.7</ele>
        <time>2013-02-13T10:15:25.670Z</time>
      </trkpt>
      <trkpt lat="47.38439" lon="-0.42603">
        <ele>66.7</ele>
        <time>2013-02-13T10:15:26.670Z</time>
      </trkpt>
      <trkpt lat="47.38439" lon="-0.42605">
        <ele>66.6</ele>
        <time>2013-02-13T10:15:27.770Z</time>
      </trkpt>
      <trkpt lat="47.3844" lon="-0.42606">
        <ele>66.5</ele>
        <time>2013-02-13T10:15:28.910Z</time>
      </trkpt>
      <trkpt lat="47.3844" lon="-0.42609">
        <ele>66.3</ele>
        <time>2013-02-13T10:15:30.670Z</time>
      </trkpt>
      <trkpt lat="47.38441" lon="-0.42611">
        <ele>66.1</ele>
        <time>2013-02-13T10:15:32.840Z</time>
      </trkpt>
      <trkpt lat="47.38442" lon="-0.42611">
        <ele>66.1</ele>
        <time>2013-02-13T10:15:33.860Z</time>
      </trkpt>
      <trkpt lat="47.38444" lon="-0.42617">
        <ele>65.8</ele>
        <time>2013-02-13T10:15:35.790Z</time>
      </trkpt>
      <trkpt lat="47.38443" lon="-0.4262">
        <ele>65.7</ele>
        <time>2013-02-13T10:15:36.830Z</time>
      </trkpt>
      <trkpt lat="47.38444" lon="-0.42628">
        <ele>65.4</ele>
        <time>2013-02-13T10:15:38.670Z</time>
      </trkpt>
      <trkpt lat="47.38444" lon="-0.42631">
        <ele>65.3</ele>
        <time>2013-02-13T10:15:39.780Z</time>
      </trkpt>
      <trkpt lat="47.38444" lon="-0.42634">
        <ele>65.2</ele>
        <time>2013-02-13T10:15:40.850Z</time>
      </trkpt>
      <trkpt lat="47.38443" lon="-0.42639">
        <ele>65.1</ele>
        <time>2013-02-13T10:15:42.830Z</time>
      </trkpt>
      <trkpt lat="47.38443" lon="-0.42642">
        <ele>65</ele>
        <time>2013-02-13T10:15:43.780Z</time>
      </trkpt>
      <trkpt lat="47.38443" lon="-0.42645">
        <ele>65</ele>
        <time>2013-02-13T10:15:44.830Z</time>
      </trkpt>
      <trkpt lat="47.38444" lon="-0.42649">
        <ele>65</ele>
        <time>2013-02-13T10:15:45.870Z</time>
      </trkpt>
      <trkpt lat="47.38444" lon="-0.42659">
        <ele>65</ele>
        <time>2013-02-13T10:15:47.770Z</time>
      </trkpt>
      <trkpt lat="47.38444" lon="-0.42664">
        <ele>65</ele>
        <time>2013-02-13T10:15:48.820Z</time>
      </trkpt>
      <trkpt lat="47.38445" lon="-0.42672">
        <ele>65</ele>
        <time>2013-02-13T10:15:50.680Z</time>
      </trkpt>
      <trkpt lat="47.38446" lon="-0.42676">
        <ele>65</ele>
        <time>2013-02-13T10:15:51.790Z</time>
      </trkpt>
      <trkpt lat="47.38446" lon="-0.42679">
        <ele>65</ele>
        <time>2013-02-13T10:15:52.820Z</time>
      </trkpt>
      <trkpt lat="47.38447" lon="-0.42683">
        <ele>65</ele>
        <time>2013-02-13T10:15:53.850Z</time>
      </trkpt>
      <trkpt lat="47.38448" lon="-0.4269">
        <ele>65</ele>
        <time>2013-02-13T10:15:55.770Z</time>
      </trkpt>
      <trkpt lat="47.38448" lon="-0.42694">
        <ele>65</ele>
        <time>2013-02-13T10:15:56.770Z</time>
      </trkpt>
      <trkpt lat="47.38448" lon="-0.42698">
        <ele>64.9</ele>
        <time>2013-02-13T10:15:57.870Z</time>
      </trkpt>
      <trkpt lat="47.38449" lon="-0.42705">
        <ele>64.6</ele>
        <time>2013-02-13T10:15:59.700Z</time>
      </trkpt>
      <trkpt lat="47.38449" lon="-0.42709">
        <ele>66.3</ele>
        <time>2013-02-13T10:16:00.830Z</time>
      </trkpt>
      <trkpt lat="47.3845" lon="-0.42713">
        <ele>64.3</ele>
        <time>2013-02-13T10:16:01.850Z</time>
      </trkpt>
      <trkpt lat="47.38453" lon="-0.42719">
        <ele>64.1</ele>
        <time>2013-02-13T10:16:03.670Z</time>
      </trkpt>
      <trkpt lat="47.38454" lon="-0.42723">
        <ele>64</ele>
        <time>2013-02-13T10:16:04.670Z</time>
      </trkpt>
      <trkpt lat="47.38454" lon="-0.42727">
        <ele>64</ele>
        <time>2013-02-13T10:16:05.780Z</time>
      </trkpt>
      <trkpt lat="47.38455" lon="-0.42731">
        <ele>64</ele>
        <time>2013-02-13T10:16:06.910Z</time>
      </trkpt>
      <trkpt lat="47.38457" lon="-0.42738">
        <ele>64</ele>
        <time>2013-02-13T10:16:08.670Z</time>
      </trkpt>
      <trkpt lat="47.38458" lon="-0.42742">
        <ele>64</ele>
        <time>2013-02-13T10:16:09.770Z</time>
      </trkpt>
      <trkpt lat="47.38459" lon="-0.42746">
        <ele>64</ele>
        <time>2013-02-13T10:16:10.910Z</time>
      </trkpt>
      <trkpt lat="47.3846" lon="-0.42753">
        <ele>64</ele>
        <time>2013-02-13T10:16:12.670Z</time>
      </trkpt>
      <trkpt lat="47.38461" lon="-0.42756">
        <ele>64</ele>
        <time>2013-02-13T10:16:13.770Z</time>
      </trkpt>
      <trkpt lat="47.38461" lon="-0.42759">
        <ele>64</ele>
        <time>2013-02-13T10:16:14.790Z</time>
      </trkpt>
      <trkpt lat="47.38462" lon="-0.42766">
        <ele>64</ele>
        <time>2013-02-13T10:16:16.680Z</time>
      </trkpt>
      <trkpt lat="47.38463" lon="-0.4277">
        <ele>64</ele>
        <time>2013-02-13T10:16:17.770Z</time>
      </trkpt>
      <trkpt lat="47.38464" lon="-0.42773">
        <ele>64</ele>
        <time>2013-02-13T10:16:19.310Z</time>
      </trkpt>
      <trkpt lat="47.38466" lon="-0.4278">
        <ele>64</ele>
        <time>2013-02-13T10:16:20.730Z</time>
      </trkpt>
      <trkpt lat="47.38466" lon="-0.42785">
        <ele>63.9</ele>
        <time>2013-02-13T10:16:21.730Z</time>
      </trkpt>
      <trkpt lat="47.38467" lon="-0.42788">
        <ele>63.9</ele>
        <time>2013-02-13T10:16:22.730Z</time>
      </trkpt>
      <trkpt lat="47.38467" lon="-0.42791">
        <ele>63.9</ele>
        <time>2013-02-13T10:16:24.180Z</time>
      </trkpt>
      <trkpt lat="47.38469" lon="-0.42798">
        <ele>63.9</ele>
        <time>2013-02-13T10:16:25.770Z</time>
      </trkpt>
      <trkpt lat="47.38469" lon="-0.42801">
        <ele>63.9</ele>
        <time>2013-02-13T10:16:26.820Z</time>
      </trkpt>
      <trkpt lat="47.38469" lon="-0.42806">
        <ele>63.9</ele>
        <time>2013-02-13T10:16:27.770Z</time>
      </trkpt>
      <trkpt lat="47.3847" lon="-0.42814">
        <ele>63.9</ele>
        <time>2013-02-13T10:16:29.770Z</time>
      </trkpt>
      <trkpt lat="47.38471" lon="-0.42818">
        <ele>63.9</ele>
        <time>2013-02-13T10:16:30.840Z</time>
      </trkpt>
      <trkpt lat="47.38472" lon="-0.42825">
        <ele>64</ele>
        <time>2013-02-13T10:16:32.840Z</time>
      </trkpt>
      <trkpt lat="47.38474" lon="-0.42833">
        <ele>64.1</ele>
        <time>2013-02-13T10:16:34.840Z</time>
      </trkpt>
      <trkpt lat="47.38476" lon="-0.4284">
        <ele>64.1</ele>
        <time>2013-02-13T10:16:36.670Z</time>
      </trkpt>
      <trkpt lat="47.38478" lon="-0.42843">
        <ele>64.2</ele>
        <time>2013-02-13T10:16:37.770Z</time>
      </trkpt>
      <trkpt lat="47.3848" lon="-0.42846">
        <ele>64.3</ele>
        <time>2013-02-13T10:16:38.820Z</time>
      </trkpt>
      <trkpt lat="47.38482" lon="-0.42849">
        <ele>64.4</ele>
        <time>2013-02-13T10:16:39.800Z</time>
      </trkpt>
      <trkpt lat="47.38484" lon="-0.42852">
        <ele>64.4</ele>
        <time>2013-02-13T10:16:40.770Z</time>
      </trkpt>
      <trkpt lat="47.38485" lon="-0.42856">
        <ele>64.5</ele>
        <time>2013-02-13T10:16:41.770Z</time>
      </trkpt>
      <trkpt lat="47.38487" lon="-0.42858">
        <ele>64.5</ele>
        <time>2013-02-13T10:16:42.820Z</time>
      </trkpt>
      <trkpt lat="47.38489" lon="-0.42861">
        <ele>64.6</ele>
        <time>2013-02-13T10:16:43.770Z</time>
      </trkpt>
      <trkpt lat="47.38494" lon="-0.42866">
        <ele>64.6</ele>
        <time>2013-02-13T10:16:45.770Z</time>
      </trkpt>
      <trkpt lat="47.38496" lon="-0.42869">
        <ele>64.6</ele>
        <time>2013-02-13T10:16:46.770Z</time>
      </trkpt>
      <trkpt lat="47.38498" lon="-0.42871">
        <ele>64.6</ele>
        <time>2013-02-13T10:16:47.770Z</time>
      </trkpt>
      <trkpt lat="47.385" lon="-0.42874">
        <ele>64.5</ele>
        <time>2013-02-13T10:16:48.840Z</time>
      </trkpt>
      <trkpt lat="47.38503" lon="-0.42879">
        <ele>64.4</ele>
        <time>2013-02-13T10:16:50.830Z</time>
      </trkpt>
      <trkpt lat="47.38507" lon="-0.42885">
        <ele>64.3</ele>
        <time>2013-02-13T10:16:52.820Z</time>
      </trkpt>
      <trkpt lat="47.38511" lon="-0.42892">
        <ele>64.4</ele>
        <time>2013-02-13T10:16:54.630Z</time>
      </trkpt>
      <trkpt lat="47.38513" lon="-0.42895">
        <ele>64.4</ele>
        <time>2013-02-13T10:16:55.620Z</time>
      </trkpt>
      <trkpt lat="47.38516" lon="-0.42898">
        <ele>64.4</ele>
        <time>2013-02-13T10:16:56.830Z</time>
      </trkpt>
      <trkpt lat="47.38519" lon="-0.42905">
        <ele>64.3</ele>
        <time>2013-02-13T10:16:58.630Z</time>
      </trkpt>
      <trkpt lat="47.38521" lon="-0.42909">
        <ele>64.2</ele>
        <time>2013-02-13T10:16:59.810Z</time>
      </trkpt>
      <trkpt lat="47.38526" lon="-0.42914">
        <ele>63.9</ele>
        <time>2013-02-13T10:17:01.780Z</time>
      </trkpt>
      <trkpt lat="47.38528" lon="-0.42917">
        <ele>64</ele>
        <time>2013-02-13T10:17:02.850Z</time>
      </trkpt>
      <trkpt lat="47.38533" lon="-0.42923">
        <ele>64.2</ele>
        <time>2013-02-13T10:17:04.620Z</time>
      </trkpt>
      <trkpt lat="47.38534" lon="-0.42926">
        <ele>64.3</ele>
        <time>2013-02-13T10:17:05.620Z</time>
      </trkpt>
      <trkpt lat="47.38536" lon="-0.42929">
        <ele>64.4</ele>
        <time>2013-02-13T10:17:06.830Z</time>
      </trkpt>
      <trkpt lat="47.38539" lon="-0.42936">
        <ele>64.7</ele>
        <time>2013-02-13T10:17:08.620Z</time>
      </trkpt>
      <trkpt lat="47.38541" lon="-0.42939">
        <ele>64.9</ele>
        <time>2013-02-13T10:17:09.820Z</time>
      </trkpt>
      <trkpt lat="47.38543" lon="-0.42943">
        <ele>65</ele>
        <time>2013-02-13T10:17:10.820Z</time>
      </trkpt>
      <trkpt lat="47.38547" lon="-0.42948">
        <ele>65.3</ele>
        <time>2013-02-13T10:17:12.620Z</time>
      </trkpt>
      <trkpt lat="47.38548" lon="-0.42951">
        <ele>65.4</ele>
        <time>2013-02-13T10:17:13.870Z</time>
      </trkpt>
      <trkpt lat="47.38551" lon="-0.42958">
        <ele>65.3</ele>
        <time>2013-02-13T10:17:15.820Z</time>
      </trkpt>
      <trkpt lat="47.38552" lon="-0.42962">
        <ele>65.3</ele>
        <time>2013-02-13T10:17:16.900Z</time>
      </trkpt>
      <trkpt lat="47.38555" lon="-0.42969">
        <ele>65.1</ele>
        <time>2013-02-13T10:17:18.910Z</time>
      </trkpt>
      <trkpt lat="47.38557" lon="-0.42977">
        <ele>65</ele>
        <time>2013-02-13T10:17:20.920Z</time>
      </trkpt>
      <trkpt lat="47.38559" lon="-0.42985">
        <ele>65.1</ele>
        <time>2013-02-13T10:17:22.840Z</time>
      </trkpt>
      <trkpt lat="47.38561" lon="-0.42993">
        <ele>65.1</ele>
        <time>2013-02-13T10:17:24.830Z</time>
      </trkpt>
      <trkpt lat="47.38562" lon="-0.42997">
        <ele>65</ele>
        <time>2013-02-13T10:17:25.820Z</time>
      </trkpt>
      <trkpt lat="47.38562" lon="-0.43001">
        <ele>65</ele>
        <time>2013-02-13T10:17:26.860Z</time>
      </trkpt>
      <trkpt lat="47.38563" lon="-0.43005">
        <ele>65</ele>
        <time>2013-02-13T10:17:27.820Z</time>
      </trkpt>
      <trkpt lat="47.38563" lon="-0.43013">
        <ele>65</ele>
        <time>2013-02-13T10:17:29.800Z</time>
      </trkpt>
      <trkpt lat="47.38564" lon="-0.43017">
        <ele>65</ele>
        <time>2013-02-13T10:17:31.020Z</time>
      </trkpt>
      <trkpt lat="47.38565" lon="-0.43026">
        <ele>65</ele>
        <time>2013-02-13T10:17:32.920Z</time>
      </trkpt>
      <trkpt lat="47.38567" lon="-0.43035">
        <ele>64.9</ele>
        <time>2013-02-13T10:17:34.780Z</time>
      </trkpt>
      <trkpt lat="47.38567" lon="-0.43039">
        <ele>64.8</ele>
        <time>2013-02-13T10:17:35.820Z</time>
      </trkpt>
      <trkpt lat="47.38568" lon="-0.43043">
        <ele>64.7</ele>
        <time>2013-02-13T10:17:36.820Z</time>
      </trkpt>
      <trkpt lat="47.38568" lon="-0.43047">
        <ele>64.6</ele>
        <time>2013-02-13T10:17:37.810Z</time>
      </trkpt>
      <trkpt lat="47.38569" lon="-0.43051">
        <ele>64.6</ele>
        <time>2013-02-13T10:17:38.930Z</time>
      </trkpt>
      <trkpt lat="47.38569" lon="-0.43059">
        <ele>64.4</ele>
        <time>2013-02-13T10:17:40.830Z</time>
      </trkpt>
      <trkpt lat="47.3857" lon="-0.43063">
        <ele>64.4</ele>
        <time>2013-02-13T10:17:41.770Z</time>
      </trkpt>
      <trkpt lat="47.3857" lon="-0.43068">
        <ele>64.3</ele>
        <time>2013-02-13T10:17:42.770Z</time>
      </trkpt>
      <trkpt lat="47.38571" lon="-0.43072">
        <ele>64.2</ele>
        <time>2013-02-13T10:17:43.770Z</time>
      </trkpt>
      <trkpt lat="47.38572" lon="-0.43076">
        <ele>64.2</ele>
        <time>2013-02-13T10:17:44.830Z</time>
      </trkpt>
      <trkpt lat="47.38573" lon="-0.43081">
        <ele>64.1</ele>
        <time>2013-02-13T10:17:45.810Z</time>
      </trkpt>
      <trkpt lat="47.38574" lon="-0.43085">
        <ele>64</ele>
        <time>2013-02-13T10:17:46.910Z</time>
      </trkpt>
      <trkpt lat="47.38575" lon="-0.43093">
        <ele>64</ele>
        <time>2013-02-13T10:17:48.820Z</time>
      </trkpt>
      <trkpt lat="47.38576" lon="-0.43097">
        <ele>64</ele>
        <time>2013-02-13T10:17:49.810Z</time>
      </trkpt>
      <trkpt lat="47.38577" lon="-0.43101">
        <ele>64</ele>
        <time>2013-02-13T10:17:50.790Z</time>
      </trkpt>
      <trkpt lat="47.38578" lon="-0.43106">
        <ele>64</ele>
        <time>2013-02-13T10:17:51.810Z</time>
      </trkpt>
      <trkpt lat="47.38578" lon="-0.43109">
        <ele>64</ele>
        <time>2013-02-13T10:17:52.910Z</time>
      </trkpt>
      <trkpt lat="47.3858" lon="-0.43117">
        <ele>64</ele>
        <time>2013-02-13T10:17:54.820Z</time>
      </trkpt>
      <trkpt lat="47.38581" lon="-0.43121">
        <ele>64</ele>
        <time>2013-02-13T10:17:55.810Z</time>
      </trkpt>
      <trkpt lat="47.38581" lon="-0.43125">
        <ele>64</ele>
        <time>2013-02-13T10:17:56.890Z</time>
      </trkpt>
      <trkpt lat="47.38583" lon="-0.43134">
        <ele>64</ele>
        <time>2013-02-13T10:17:58.820Z</time>
      </trkpt>
      <trkpt lat="47.38583" lon="-0.43138">
        <ele>64</ele>
        <time>2013-02-13T10:17:59.800Z</time>
      </trkpt>
      <trkpt lat="47.38584" lon="-0.43142">
        <ele>63.2</ele>
        <time>2013-02-13T10:18:00.810Z</time>
      </trkpt>
      <trkpt lat="47.38585" lon="-0.43146">
        <ele>64</ele>
        <time>2013-02-13T10:18:01.810Z</time>
      </trkpt>
      <trkpt lat="47.38586" lon="-0.4315">
        <ele>64</ele>
        <time>2013-02-13T10:18:02.910Z</time>
      </trkpt>
      <trkpt lat="47.38589" lon="-0.43158">
        <ele>64</ele>
        <time>2013-02-13T10:18:04.900Z</time>
      </trkpt>
      <trkpt lat="47.38592" lon="-0.43165">
        <ele>64</ele>
        <time>2013-02-13T10:18:06.910Z</time>
      </trkpt>
      <trkpt lat="47.38594" lon="-0.43174">
        <ele>63.8</ele>
        <time>2013-02-13T10:18:08.910Z</time>
      </trkpt>
      <trkpt lat="47.38596" lon="-0.43182">
        <ele>63.7</ele>
        <time>2013-02-13T10:18:10.830Z</time>
      </trkpt>
      <trkpt lat="47.38597" lon="-0.43186">
        <ele>63.7</ele>
        <time>2013-02-13T10:18:11.810Z</time>
      </trkpt>
      <trkpt lat="47.38598" lon="-0.4319">
        <ele>63.6</ele>
        <time>2013-02-13T10:18:12.810Z</time>
      </trkpt>
      <trkpt lat="47.38599" lon="-0.43193">
        <ele>63.6</ele>
        <time>2013-02-13T10:18:13.790Z</time>
      </trkpt>
      <trkpt lat="47.38601" lon="-0.43197">
        <ele>63.6</ele>
        <time>2013-02-13T10:18:14.810Z</time>
      </trkpt>
      <trkpt lat="47.38602" lon="-0.43201">
        <ele>63.7</ele>
        <time>2013-02-13T10:18:15.810Z</time>
      </trkpt>
      <trkpt lat="47.38603" lon="-0.43205">
        <ele>63.7</ele>
        <time>2013-02-13T10:18:16.790Z</time>
      </trkpt>
      <trkpt lat="47.38604" lon="-0.43208">
        <ele>63.8</ele>
        <time>2013-02-13T10:18:17.800Z</time>
      </trkpt>
      <trkpt lat="47.38606" lon="-0.43212">
        <ele>63.8</ele>
        <time>2013-02-13T10:18:18.900Z</time>
      </trkpt>
      <trkpt lat="47.38607" lon="-0.43216">
        <ele>63.9</ele>
        <time>2013-02-13T10:18:19.850Z</time>
      </trkpt>
      <trkpt lat="47.38608" lon="-0.4322">
        <ele>63.9</ele>
        <time>2013-02-13T10:18:20.900Z</time>
      </trkpt>
      <trkpt lat="47.3861" lon="-0.43228">
        <ele>64</ele>
        <time>2013-02-13T10:18:22.820Z</time>
      </trkpt>
      <trkpt lat="47.38612" lon="-0.43232">
        <ele>64</ele>
        <time>2013-02-13T10:18:23.900Z</time>
      </trkpt>
      <trkpt lat="47.38614" lon="-0.43239">
        <ele>64</ele>
        <time>2013-02-13T10:18:25.810Z</time>
      </trkpt>
      <trkpt lat="47.38615" lon="-0.43243">
        <ele>64</ele>
        <time>2013-02-13T10:18:26.900Z</time>
      </trkpt>
      <trkpt lat="47.38617" lon="-0.4325">
        <ele>64</ele>
        <time>2013-02-13T10:18:28.830Z</time>
      </trkpt>
      <trkpt lat="47.38617" lon="-0.43255">
        <ele>64</ele>
        <time>2013-02-13T10:18:29.800Z</time>
      </trkpt>
      <trkpt lat="47.38618" lon="-0.43259">
        <ele>64</ele>
        <time>2013-02-13T10:18:30.880Z</time>
      </trkpt>
      <trkpt lat="47.38619" lon="-0.43267">
        <ele>64</ele>
        <time>2013-02-13T10:18:32.840Z</time>
      </trkpt>
      <trkpt lat="47.3862" lon="-0.43271">
        <ele>64</ele>
        <time>2013-02-13T10:18:33.780Z</time>
      </trkpt>
      <trkpt lat="47.38621" lon="-0.43275">
        <ele>64</ele>
        <time>2013-02-13T10:18:34.900Z</time>
      </trkpt>
      <trkpt lat="47.38624" lon="-0.43283">
        <ele>63.8</ele>
        <time>2013-02-13T10:18:36.820Z</time>
      </trkpt>
      <trkpt lat="47.38625" lon="-0.43287">
        <ele>63.7</ele>
        <time>2013-02-13T10:18:37.800Z</time>
      </trkpt>
      <trkpt lat="47.38626" lon="-0.4329">
        <ele>63.5</ele>
        <time>2013-02-13T10:18:38.900Z</time>
      </trkpt>
      <trkpt lat="47.38628" lon="-0.43298">
        <ele>63.3</ele>
        <time>2013-02-13T10:18:40.820Z</time>
      </trkpt>
      <trkpt lat="47.38629" lon="-0.43302">
        <ele>63.1</ele>
        <time>2013-02-13T10:18:41.800Z</time>
      </trkpt>
      <trkpt lat="47.3863" lon="-0.43306">
        <ele>63</ele>
        <time>2013-02-13T10:18:42.900Z</time>
      </trkpt>
      <trkpt lat="47.38634" lon="-0.43314">
        <ele>63</ele>
        <time>2013-02-13T10:18:44.770Z</time>
      </trkpt>
      <trkpt lat="47.38635" lon="-0.43317">
        <ele>63</ele>
        <time>2013-02-13T10:18:45.770Z</time>
      </trkpt>
      <trkpt lat="47.38636" lon="-0.43321">
        <ele>63</ele>
        <time>2013-02-13T10:18:46.770Z</time>
      </trkpt>
      <trkpt lat="47.38638" lon="-0.43325">
        <ele>63</ele>
        <time>2013-02-13T10:18:47.780Z</time>
      </trkpt>
      <trkpt lat="47.38639" lon="-0.43329">
        <ele>63</ele>
        <time>2013-02-13T10:18:48.900Z</time>
      </trkpt>
      <trkpt lat="47.38641" lon="-0.43337">
        <ele>63</ele>
        <time>2013-02-13T10:18:50.680Z</time>
      </trkpt>
      <trkpt lat="47.38642" lon="-0.43341">
        <ele>63</ele>
        <time>2013-02-13T10:18:51.800Z</time>
      </trkpt>
      <trkpt lat="47.38643" lon="-0.43345">
        <ele>63</ele>
        <time>2013-02-13T10:18:52.800Z</time>
      </trkpt>
      <trkpt lat="47.38644" lon="-0.4335">
        <ele>63</ele>
        <time>2013-02-13T10:18:53.800Z</time>
      </trkpt>
      <trkpt lat="47.38645" lon="-0.43354">
        <ele>63</ele>
        <time>2013-02-13T10:18:55.000Z</time>
      </trkpt>
      <trkpt lat="47.38648" lon="-0.43362">
        <ele>63</ele>
        <time>2013-02-13T10:18:56.890Z</time>
      </trkpt>
      <trkpt lat="47.38651" lon="-0.4337">
        <ele>63</ele>
        <time>2013-02-13T10:18:58.770Z</time>
      </trkpt>
      <trkpt lat="47.38653" lon="-0.43374">
        <ele>63</ele>
        <time>2013-02-13T10:18:59.820Z</time>
      </trkpt>
      <trkpt lat="47.38654" lon="-0.43378">
        <ele>62.4</ele>
        <time>2013-02-13T10:19:00.890Z</time>
      </trkpt>
      <trkpt lat="47.38655" lon="-0.43383">
        <ele>63</ele>
        <time>2013-02-13T10:19:01.860Z</time>
      </trkpt>
      <trkpt lat="47.38656" lon="-0.43387">
        <ele>63</ele>
        <time>2013-02-13T10:19:02.890Z</time>
      </trkpt>
      <trkpt lat="47.38657" lon="-0.43396">
        <ele>63</ele>
        <time>2013-02-13T10:19:04.680Z</time>
      </trkpt>
      <trkpt lat="47.38658" lon="-0.434">
        <ele>63</ele>
        <time>2013-02-13T10:19:05.770Z</time>
      </trkpt>
      <trkpt lat="47.38659" lon="-0.43405">
        <ele>63</ele>
        <time>2013-02-13T10:19:06.900Z</time>
      </trkpt>
      <trkpt lat="47.38661" lon="-0.43414">
        <ele>63</ele>
        <time>2013-02-13T10:19:08.830Z</time>
      </trkpt>
      <trkpt lat="47.38663" lon="-0.43418">
        <ele>63</ele>
        <time>2013-02-13T10:19:09.790Z</time>
      </trkpt>
      <trkpt lat="47.38664" lon="-0.43422">
        <ele>62.8</ele>
        <time>2013-02-13T10:19:10.790Z</time>
      </trkpt>
      <trkpt lat="47.38666" lon="-0.43426">
        <ele>62.7</ele>
        <time>2013-02-13T10:19:11.820Z</time>
      </trkpt>
      <trkpt lat="47.38667" lon="-0.4343">
        <ele>62.5</ele>
        <time>2013-02-13T10:19:12.890Z</time>
      </trkpt>
      <trkpt lat="47.38671" lon="-0.43439">
        <ele>62.2</ele>
        <time>2013-02-13T10:19:14.830Z</time>
      </trkpt>
      <trkpt lat="47.38672" lon="-0.43444">
        <ele>62</ele>
        <time>2013-02-13T10:19:15.790Z</time>
      </trkpt>
      <trkpt lat="47.38674" lon="-0.43448">
        <ele>62</ele>
        <time>2013-02-13T10:19:16.840Z</time>
      </trkpt>
      <trkpt lat="47.38675" lon="-0.43453">
        <ele>62</ele>
        <time>2013-02-13T10:19:17.890Z</time>
      </trkpt>
      <trkpt lat="47.38678" lon="-0.43461">
        <ele>62</ele>
        <time>2013-02-13T10:19:19.790Z</time>
      </trkpt>
      <trkpt lat="47.3868" lon="-0.43466">
        <ele>62</ele>
        <time>2013-02-13T10:19:20.890Z</time>
      </trkpt>
      <trkpt lat="47.38684" lon="-0.43474">
        <ele>62</ele>
        <time>2013-02-13T10:19:22.890Z</time>
      </trkpt>
      <trkpt lat="47.38688" lon="-0.43482">
        <ele>61.7</ele>
        <time>2013-02-13T10:19:24.840Z</time>
      </trkpt>
      <trkpt lat="47.3869" lon="-0.43486">
        <ele>61.6</ele>
        <time>2013-02-13T10:19:25.890Z</time>
      </trkpt>
      <trkpt lat="47.38692" lon="-0.4349">
        <ele>61.4</ele>
        <time>2013-02-13T10:19:26.850Z</time>
      </trkpt>
      <trkpt lat="47.38695" lon="-0.43499">
        <ele>61</ele>
        <time>2013-02-13T10:19:28.890Z</time>
      </trkpt>
      <trkpt lat="47.38697" lon="-0.43503">
        <ele>61</ele>
        <time>2013-02-13T10:19:29.850Z</time>
      </trkpt>
      <trkpt lat="47.387" lon="-0.43507">
        <ele>61</ele>
        <time>2013-02-13T10:19:30.890Z</time>
      </trkpt>
      <trkpt lat="47.38704" lon="-0.43516">
        <ele>61</ele>
        <time>2013-02-13T10:19:32.850Z</time>
      </trkpt>
      <trkpt lat="47.38706" lon="-0.4352">
        <ele>61</ele>
        <time>2013-02-13T10:19:33.860Z</time>
      </trkpt>
      <trkpt lat="47.3871" lon="-0.43529">
        <ele>61</ele>
        <time>2013-02-13T10:19:35.790Z</time>
      </trkpt>
      <trkpt lat="47.38712" lon="-0.43534">
        <ele>61</ele>
        <time>2013-02-13T10:19:36.840Z</time>
      </trkpt>
      <trkpt lat="47.38715" lon="-0.43543">
        <ele>61</ele>
        <time>2013-02-13T10:19:38.680Z</time>
      </trkpt>
      <trkpt lat="47.38717" lon="-0.43548">
        <ele>61</ele>
        <time>2013-02-13T10:19:39.770Z</time>
      </trkpt>
      <trkpt lat="47.38719" lon="-0.43553">
        <ele>61</ele>
        <time>2013-02-13T10:19:40.840Z</time>
      </trkpt>
      <trkpt lat="47.38721" lon="-0.43558">
        <ele>60.9</ele>
        <time>2013-02-13T10:19:41.880Z</time>
      </trkpt>
      <trkpt lat="47.38723" lon="-0.43563">
        <ele>60.7</ele>
        <time>2013-02-13T10:19:42.840Z</time>
      </trkpt>
      <trkpt lat="47.38726" lon="-0.43572">
        <ele>60.4</ele>
        <time>2013-02-13T10:19:44.880Z</time>
      </trkpt>
      <trkpt lat="47.38727" lon="-0.43581">
        <ele>60.1</ele>
        <time>2013-02-13T10:19:46.880Z</time>
      </trkpt>
      <trkpt lat="47.38728" lon="-0.43589">
        <ele>60</ele>
        <time>2013-02-13T10:19:48.830Z</time>
      </trkpt>
      <trkpt lat="47.38728" lon="-0.43592">
        <ele>60</ele>
        <time>2013-02-13T10:19:49.780Z</time>
      </trkpt>
      <trkpt lat="47.38729" lon="-0.43596">
        <ele>60</ele>
        <time>2013-02-13T10:19:50.850Z</time>
      </trkpt>
      <trkpt lat="47.3873" lon="-0.43604">
        <ele>60</ele>
        <time>2013-02-13T10:19:52.880Z</time>
      </trkpt>
      <trkpt lat="47.3873" lon="-0.43607">
        <ele>60</ele>
        <time>2013-02-13T10:19:53.850Z</time>
      </trkpt>
      <trkpt lat="47.38731" lon="-0.43612">
        <ele>60</ele>
        <time>2013-02-13T10:19:54.880Z</time>
      </trkpt>
      <trkpt lat="47.38732" lon="-0.43619">
        <ele>59.9</ele>
        <time>2013-02-13T10:19:56.770Z</time>
      </trkpt>
      <trkpt lat="47.38733" lon="-0.43623">
        <ele>59.8</ele>
        <time>2013-02-13T10:19:57.860Z</time>
      </trkpt>
      <trkpt lat="47.38733" lon="-0.43627">
        <ele>59.8</ele>
        <time>2013-02-13T10:19:58.880Z</time>
      </trkpt>
      <trkpt lat="47.38734" lon="-0.43635">
        <ele>59.6</ele>
        <time>2013-02-13T10:20:00.820Z</time>
      </trkpt>
      <trkpt lat="47.38734" lon="-0.43639">
        <ele>59.6</ele>
        <time>2013-02-13T10:20:01.780Z</time>
      </trkpt>
      <trkpt lat="47.38735" lon="-0.43643">
        <ele>59.5</ele>
        <time>2013-02-13T10:20:02.890Z</time>
      </trkpt>
      <trkpt lat="47.38736" lon="-0.43651">
        <ele>59.5</ele>
        <time>2013-02-13T10:20:04.770Z</time>
      </trkpt>
      <trkpt lat="47.38737" lon="-0.43656">
        <ele>59.5</ele>
        <time>2013-02-13T10:20:05.780Z</time>
      </trkpt>
      <trkpt lat="47.38737" lon="-0.43659">
        <ele>59.5</ele>
        <time>2013-02-13T10:20:06.880Z</time>
      </trkpt>
      <trkpt lat="47.38738" lon="-0.43666">
        <ele>59.4</ele>
        <time>2013-02-13T10:20:08.820Z</time>
      </trkpt>
      <trkpt lat="47.38739" lon="-0.43673">
        <ele>59.2</ele>
        <time>2013-02-13T10:20:10.820Z</time>
      </trkpt>
      <trkpt lat="47.38739" lon="-0.43677">
        <ele>59</ele>
        <time>2013-02-13T10:20:11.780Z</time>
      </trkpt>
      <trkpt lat="47.3874" lon="-0.43681">
        <ele>58.9</ele>
        <time>2013-02-13T10:20:12.910Z</time>
      </trkpt>
      <trkpt lat="47.38741" lon="-0.43687">
        <ele>58.6</ele>
        <time>2013-02-13T10:20:14.830Z</time>
      </trkpt>
      <trkpt lat="47.38741" lon="-0.4369">
        <ele>58.5</ele>
        <time>2013-02-13T10:20:15.780Z</time>
      </trkpt>
      <trkpt lat="47.38742" lon="-0.43694">
        <ele>58.3</ele>
        <time>2013-02-13T10:20:16.880Z</time>
      </trkpt>
      <trkpt lat="47.38743" lon="-0.437">
        <ele>58.1</ele>
        <time>2013-02-13T10:20:18.830Z</time>
      </trkpt>
      <trkpt lat="47.38745" lon="-0.43704">
        <ele>57.9</ele>
        <time>2013-02-13T10:20:19.770Z</time>
      </trkpt>
      <trkpt lat="47.38745" lon="-0.43707">
        <ele>57.8</ele>
        <time>2013-02-13T10:20:20.830Z</time>
      </trkpt>
      <trkpt lat="47.38747" lon="-0.43714">
        <ele>57.5</ele>
        <time>2013-02-13T10:20:22.830Z</time>
      </trkpt>
      <trkpt lat="47.38749" lon="-0.43721">
        <ele>57.1</ele>
        <time>2013-02-13T10:20:24.970Z</time>
      </trkpt>
      <trkpt lat="47.38751" lon="-0.43726">
        <ele>56.9</ele>
        <time>2013-02-13T10:20:26.870Z</time>
      </trkpt>
      <trkpt lat="47.38753" lon="-0.43733">
        <ele>56.9</ele>
        <time>2013-02-13T10:20:28.830Z</time>
      </trkpt>
      <trkpt lat="47.38754" lon="-0.43736">
        <ele>56.8</ele>
        <time>2013-02-13T10:20:29.680Z</time>
      </trkpt>
      <trkpt lat="47.38755" lon="-0.43739">
        <ele>56.7</ele>
        <time>2013-02-13T10:20:30.830Z</time>
      </trkpt>
      <trkpt lat="47.38757" lon="-0.43745">
        <ele>56.6</ele>
        <time>2013-02-13T10:20:32.820Z</time>
      </trkpt>
      <trkpt lat="47.38758" lon="-0.43752">
        <ele>56.2</ele>
        <time>2013-02-13T10:20:34.670Z</time>
      </trkpt>
      <trkpt lat="47.38759" lon="-0.43755">
        <ele>55.9</ele>
        <time>2013-02-13T10:20:35.670Z</time>
      </trkpt>
      <trkpt lat="47.38761" lon="-0.43758">
        <ele>55.5</ele>
        <time>2013-02-13T10:20:36.670Z</time>
      </trkpt>
      <trkpt lat="47.38762" lon="-0.43762">
        <ele>55</ele>
        <time>2013-02-13T10:20:37.670Z</time>
      </trkpt>
      <trkpt lat="47.38764" lon="-0.43765">
        <ele>54.7</ele>
        <time>2013-02-13T10:20:38.670Z</time>
      </trkpt>
      <trkpt lat="47.38765" lon="-0.43768">
        <ele>54.3</ele>
        <time>2013-02-13T10:20:39.670Z</time>
      </trkpt>
      <trkpt lat="47.38766" lon="-0.43771">
        <ele>54</ele>
        <time>2013-02-13T10:20:40.830Z</time>
      </trkpt>
      <trkpt lat="47.3877" lon="-0.43777">
        <ele>53.3</ele>
        <time>2013-02-13T10:20:42.820Z</time>
      </trkpt>
      <trkpt lat="47.38773" lon="-0.4378">
        <ele>53.2</ele>
        <time>2013-02-13T10:20:43.810Z</time>
      </trkpt>
      <trkpt lat="47.38778" lon="-0.43783">
        <ele>53</ele>
        <time>2013-02-13T10:20:45.770Z</time>
      </trkpt>
      <trkpt lat="47.3878" lon="-0.43784">
        <ele>52.9</ele>
        <time>2013-02-13T10:20:46.830Z</time>
      </trkpt>
      <trkpt lat="47.38782" lon="-0.43785">
        <ele>52.8</ele>
        <time>2013-02-13T10:20:47.850Z</time>
      </trkpt>
      <trkpt lat="47.38787" lon="-0.43785">
        <ele>52.6</ele>
        <time>2013-02-13T10:20:49.770Z</time>
      </trkpt>
      <trkpt lat="47.3879" lon="-0.43785">
        <ele>52.4</ele>
        <time>2013-02-13T10:20:50.830Z</time>
      </trkpt>
      <trkpt lat="47.38793" lon="-0.43786">
        <ele>52.3</ele>
        <time>2013-02-13T10:20:51.800Z</time>
      </trkpt>
      <trkpt lat="47.38796" lon="-0.43786">
        <ele>52.2</ele>
        <time>2013-02-13T10:20:52.820Z</time>
      </trkpt>
      <trkpt lat="47.38798" lon="-0.43787">
        <ele>52</ele>
        <time>2013-02-13T10:20:53.780Z</time>
      </trkpt>
      <trkpt lat="47.38801" lon="-0.43787">
        <ele>51.9</ele>
        <time>2013-02-13T10:20:54.830Z</time>
      </trkpt>
      <trkpt lat="47.38803" lon="-0.43789">
        <ele>51.7</ele>
        <time>2013-02-13T10:20:55.860Z</time>
      </trkpt>
      <trkpt lat="47.38805" lon="-0.43791">
        <ele>51.5</ele>
        <time>2013-02-13T10:20:56.830Z</time>
      </trkpt>
      <trkpt lat="47.38808" lon="-0.43797">
        <ele>51.1</ele>
        <time>2013-02-13T10:20:58.910Z</time>
      </trkpt>
      <trkpt lat="47.38809" lon="-0.438">
        <ele>50.9</ele>
        <time>2013-02-13T10:21:00.180Z</time>
      </trkpt>
      <trkpt lat="47.3881" lon="-0.43808">
        <ele>53.5</ele>
        <time>2013-02-13T10:21:01.680Z</time>
      </trkpt>
      <trkpt lat="47.3881" lon="-0.43812">
        <ele>50.7</ele>
        <time>2013-02-13T10:21:02.670Z</time>
      </trkpt>
      <trkpt lat="47.3881" lon="-0.43816">
        <ele>50.7</ele>
        <time>2013-02-13T10:21:03.680Z</time>
      </trkpt>
      <trkpt lat="47.3881" lon="-0.4382">
        <ele>50.7</ele>
        <time>2013-02-13T10:21:05.070Z</time>
      </trkpt>
      <trkpt lat="47.3881" lon="-0.43829">
        <ele>50.7</ele>
        <time>2013-02-13T10:21:06.820Z</time>
      </trkpt>
      <trkpt lat="47.38811" lon="-0.43833">
        <ele>50.6</ele>
        <time>2013-02-13T10:21:07.770Z</time>
      </trkpt>
      <trkpt lat="47.38811" lon="-0.43837">
        <ele>50.6</ele>
        <time>2013-02-13T10:21:08.820Z</time>
      </trkpt>
      <trkpt lat="47.38812" lon="-0.43841">
        <ele>50.6</ele>
        <time>2013-02-13T10:21:09.770Z</time>
      </trkpt>
      <trkpt lat="47.38812" lon="-0.43845">
        <ele>50.5</ele>
        <time>2013-02-13T10:21:10.770Z</time>
      </trkpt>
      <trkpt lat="47.38813" lon="-0.43849">
        <ele>50.5</ele>
        <time>2013-02-13T10:21:11.850Z</time>
      </trkpt>
      <trkpt lat="47.38813" lon="-0.43853">
        <ele>50.5</ele>
        <time>2013-02-13T10:21:12.820Z</time>
      </trkpt>
      <trkpt lat="47.38814" lon="-0.43857">
        <ele>50.4</ele>
        <time>2013-02-13T10:21:13.770Z</time>
      </trkpt>
      <trkpt lat="47.38814" lon="-0.43861">
        <ele>50.4</ele>
        <time>2013-02-13T10:21:14.770Z</time>
      </trkpt>
      <trkpt lat="47.38814" lon="-0.43865">
        <ele>50.3</ele>
        <time>2013-02-13T10:21:15.770Z</time>
      </trkpt>
      <trkpt lat="47.38815" lon="-0.43869">
        <ele>50.3</ele>
        <time>2013-02-13T10:21:16.830Z</time>
      </trkpt>
      <trkpt lat="47.38816" lon="-0.43877">
        <ele>50.1</ele>
        <time>2013-02-13T10:21:18.670Z</time>
      </trkpt>
      <trkpt lat="47.38817" lon="-0.43881">
        <ele>49.9</ele>
        <time>2013-02-13T10:21:19.770Z</time>
      </trkpt>
      <trkpt lat="47.38817" lon="-0.43884">
        <ele>49.8</ele>
        <time>2013-02-13T10:21:20.830Z</time>
      </trkpt>
      <trkpt lat="47.38818" lon="-0.43892">
        <ele>49.6</ele>
        <time>2013-02-13T10:21:22.770Z</time>
      </trkpt>
      <trkpt lat="47.38818" lon="-0.43896">
        <ele>49.6</ele>
        <time>2013-02-13T10:21:23.770Z</time>
      </trkpt>
      <trkpt lat="47.38818" lon="-0.439">
        <ele>49.5</ele>
        <time>2013-02-13T10:21:24.820Z</time>
      </trkpt>
      <trkpt lat="47.38818" lon="-0.43904">
        <ele>49.4</ele>
        <time>2013-02-13T10:21:25.770Z</time>
      </trkpt>
      <trkpt lat="47.38818" lon="-0.43908">
        <ele>49.3</ele>
        <time>2013-02-13T10:21:26.800Z</time>
      </trkpt>
      <trkpt lat="47.38818" lon="-0.43912">
        <ele>49.2</ele>
        <time>2013-02-13T10:21:27.750Z</time>
      </trkpt>
      <trkpt lat="47.38819" lon="-0.43917">
        <ele>49.1</ele>
        <time>2013-02-13T10:21:28.830Z</time>
      </trkpt>
      <trkpt lat="47.38819" lon="-0.43925">
        <ele>48.9</ele>
        <time>2013-02-13T10:21:30.920Z</time>
      </trkpt>
      <trkpt lat="47.38819" lon="-0.43933">
        <ele>48.7</ele>
        <time>2013-02-13T10:21:32.670Z</time>
      </trkpt>
      <trkpt lat="47.38819" lon="-0.43937">
        <ele>48.7</ele>
        <time>2013-02-13T10:21:33.680Z</time>
      </trkpt>
      <trkpt lat="47.38819" lon="-0.43941">
        <ele>48.6</ele>
        <time>2013-02-13T10:21:34.670Z</time>
      </trkpt>
      <trkpt lat="47.3882" lon="-0.43945">
        <ele>48.5</ele>
        <time>2013-02-13T10:21:35.770Z</time>
      </trkpt>
      <trkpt lat="47.3882" lon="-0.43949">
        <ele>48.3</ele>
        <time>2013-02-13T10:21:36.820Z</time>
      </trkpt>
      <trkpt lat="47.3882" lon="-0.43954">
        <ele>48.1</ele>
        <time>2013-02-13T10:21:37.780Z</time>
      </trkpt>
      <trkpt lat="47.3882" lon="-0.43957">
        <ele>47.9</ele>
        <time>2013-02-13T10:21:38.820Z</time>
      </trkpt>
      <trkpt lat="47.38821" lon="-0.43961">
        <ele>47.7</ele>
        <time>2013-02-13T10:21:39.850Z</time>
      </trkpt>
      <trkpt lat="47.38821" lon="-0.43966">
        <ele>47.6</ele>
        <time>2013-02-13T10:21:40.900Z</time>
      </trkpt>
      <trkpt lat="47.38822" lon="-0.43973">
        <ele>47.2</ele>
        <time>2013-02-13T10:21:42.670Z</time>
      </trkpt>
      <trkpt lat="47.38822" lon="-0.43977">
        <ele>47.1</ele>
        <time>2013-02-13T10:21:43.670Z</time>
      </trkpt>
      <trkpt lat="47.38822" lon="-0.43981">
        <ele>46.9</ele>
        <time>2013-02-13T10:21:44.770Z</time>
      </trkpt>
      <trkpt lat="47.38822" lon="-0.43985">
        <ele>46.7</ele>
        <time>2013-02-13T10:21:45.770Z</time>
      </trkpt>
      <trkpt lat="47.38823" lon="-0.43989">
        <ele>46.5</ele>
        <time>2013-02-13T10:21:46.770Z</time>
      </trkpt>
      <trkpt lat="47.38823" lon="-0.43993">
        <ele>46.4</ele>
        <time>2013-02-13T10:21:47.850Z</time>
      </trkpt>
      <trkpt lat="47.38823" lon="-0.43998">
        <ele>46.2</ele>
        <time>2013-02-13T10:21:48.820Z</time>
      </trkpt>
      <trkpt lat="47.38823" lon="-0.44002">
        <ele>46</ele>
        <time>2013-02-13T10:21:49.770Z</time>
      </trkpt>
      <trkpt lat="47.38824" lon="-0.44006">
        <ele>46</ele>
        <time>2013-02-13T10:21:50.830Z</time>
      </trkpt>
      <trkpt lat="47.38825" lon="-0.44014">
        <ele>45.8</ele>
        <time>2013-02-13T10:21:52.670Z</time>
      </trkpt>
      <trkpt lat="47.38825" lon="-0.44018">
        <ele>45.7</ele>
        <time>2013-02-13T10:21:53.770Z</time>
      </trkpt>
      <trkpt lat="47.38825" lon="-0.44022">
        <ele>45.6</ele>
        <time>2013-02-13T10:21:54.870Z</time>
      </trkpt>
      <trkpt lat="47.38826" lon="-0.4403">
        <ele>45.5</ele>
        <time>2013-02-13T10:21:56.670Z</time>
      </trkpt>
      <trkpt lat="47.38826" lon="-0.44034">
        <ele>45.3</ele>
        <time>2013-02-13T10:21:57.670Z</time>
      </trkpt>
      <trkpt lat="47.38826" lon="-0.44039">
        <ele>45.2</ele>
        <time>2013-02-13T10:21:58.670Z</time>
      </trkpt>
      <trkpt lat="47.38826" lon="-0.44043">
        <ele>45</ele>
        <time>2013-02-13T10:21:59.700Z</time>
      </trkpt>
      <trkpt lat="47.38826" lon="-0.44047">
        <ele>47.8</ele>
        <time>2013-02-13T10:22:00.820Z</time>
      </trkpt>
      <trkpt lat="47.38826" lon="-0.44056">
        <ele>44.5</ele>
        <time>2013-02-13T10:22:02.670Z</time>
      </trkpt>
      <trkpt lat="47.38827" lon="-0.4406">
        <ele>44.5</ele>
        <time>2013-02-13T10:22:03.770Z</time>
      </trkpt>
      <trkpt lat="47.38827" lon="-0.44064">
        <ele>44.5</ele>
        <time>2013-02-13T10:22:04.820Z</time>
      </trkpt>
      <trkpt lat="47.38826" lon="-0.44073">
        <ele>44.5</ele>
        <time>2013-02-13T10:22:06.670Z</time>
      </trkpt>
      <trkpt lat="47.38826" lon="-0.44077">
        <ele>44.6</ele>
        <time>2013-02-13T10:22:07.770Z</time>
      </trkpt>
      <trkpt lat="47.38826" lon="-0.44081">
        <ele>44.5</ele>
        <time>2013-02-13T10:22:08.890Z</time>
      </trkpt>
      <trkpt lat="47.38826" lon="-0.44089">
        <ele>44.3</ele>
        <time>2013-02-13T10:22:10.820Z</time>
      </trkpt>
      <trkpt lat="47.38826" lon="-0.44093">
        <ele>44.2</ele>
        <time>2013-02-13T10:22:11.780Z</time>
      </trkpt>
      <trkpt lat="47.38826" lon="-0.44098">
        <ele>44</ele>
        <time>2013-02-13T10:22:12.770Z</time>
      </trkpt>
      <trkpt lat="47.38827" lon="-0.44102">
        <ele>43.8</ele>
        <time>2013-02-13T10:22:13.850Z</time>
      </trkpt>
      <trkpt lat="47.38828" lon="-0.44111">
        <ele>43.4</ele>
        <time>2013-02-13T10:22:15.770Z</time>
      </trkpt>
      <trkpt lat="47.38828" lon="-0.44115">
        <ele>43.4</ele>
        <time>2013-02-13T10:22:16.780Z</time>
      </trkpt>
      <trkpt lat="47.38828" lon="-0.44123">
        <ele>43.3</ele>
        <time>2013-02-13T10:22:18.670Z</time>
      </trkpt>
      <trkpt lat="47.38829" lon="-0.44127">
        <ele>43.2</ele>
        <time>2013-02-13T10:22:19.770Z</time>
      </trkpt>
      <trkpt lat="47.38829" lon="-0.44131">
        <ele>43.2</ele>
        <time>2013-02-13T10:22:20.830Z</time>
      </trkpt>
      <trkpt lat="47.38829" lon="-0.44135">
        <ele>43.2</ele>
        <time>2013-02-13T10:22:21.850Z</time>
      </trkpt>
      <trkpt lat="47.3883" lon="-0.44144">
        <ele>43.1</ele>
        <time>2013-02-13T10:22:23.770Z</time>
      </trkpt>
      <trkpt lat="47.38829" lon="-0.44148">
        <ele>43.1</ele>
        <time>2013-02-13T10:22:24.780Z</time>
      </trkpt>
      <trkpt lat="47.3883" lon="-0.44153">
        <ele>43.1</ele>
        <time>2013-02-13T10:22:25.770Z</time>
      </trkpt>
      <trkpt lat="47.3883" lon="-0.4416">
        <ele>43</ele>
        <time>2013-02-13T10:22:27.770Z</time>
      </trkpt>
      <trkpt lat="47.38829" lon="-0.44163">
        <ele>43</ele>
        <time>2013-02-13T10:22:28.850Z</time>
      </trkpt>
      <trkpt lat="47.38825" lon="-0.44166">
        <ele>43</ele>
        <time>2013-02-13T10:22:30.670Z</time>
      </trkpt>
      <trkpt lat="47.38822" lon="-0.44166">
        <ele>43</ele>
        <time>2013-02-13T10:22:31.770Z</time>
      </trkpt>
      <trkpt lat="47.38819" lon="-0.44166">
        <ele>43</ele>
        <time>2013-02-13T10:22:32.820Z</time>
      </trkpt>
      <trkpt lat="47.38816" lon="-0.44167">
        <ele>43</ele>
        <time>2013-02-13T10:22:33.780Z</time>
      </trkpt>
      <trkpt lat="47.3881" lon="-0.44166">
        <ele>43</ele>
        <time>2013-02-13T10:22:35.770Z</time>
      </trkpt>
      <trkpt lat="47.38808" lon="-0.44166">
        <ele>43</ele>
        <time>2013-02-13T10:22:36.820Z</time>
      </trkpt>
      <trkpt lat="47.38805" lon="-0.44165">
        <ele>43.1</ele>
        <time>2013-02-13T10:22:37.850Z</time>
      </trkpt>
      <trkpt lat="47.38803" lon="-0.44165">
        <ele>43.2</ele>
        <time>2013-02-13T10:22:38.820Z</time>
      </trkpt>
      <trkpt lat="47.388" lon="-0.44165">
        <ele>43.3</ele>
        <time>2013-02-13T10:22:39.770Z</time>
      </trkpt>
      <trkpt lat="47.38797" lon="-0.44165">
        <ele>43.3</ele>
        <time>2013-02-13T10:22:40.830Z</time>
      </trkpt>
      <trkpt lat="47.38792" lon="-0.44165">
        <ele>43.5</ele>
        <time>2013-02-13T10:22:42.670Z</time>
      </trkpt>
      <trkpt lat="47.3879" lon="-0.44165">
        <ele>43.6</ele>
        <time>2013-02-13T10:22:43.770Z</time>
      </trkpt>
      <trkpt lat="47.38788" lon="-0.44165">
        <ele>43.7</ele>
        <time>2013-02-13T10:22:44.830Z</time>
      </trkpt>
      <trkpt lat="47.38785" lon="-0.44165">
        <ele>43.8</ele>
        <time>2013-02-13T10:22:45.860Z</time>
      </trkpt>
      <trkpt lat="47.3878" lon="-0.44165">
        <ele>44</ele>
        <time>2013-02-13T10:22:47.670Z</time>
      </trkpt>
      <trkpt lat="47.38777" lon="-0.44165">
        <ele>44.1</ele>
        <time>2013-02-13T10:22:48.670Z</time>
      </trkpt>
      <trkpt lat="47.38775" lon="-0.44165">
        <ele>44.2</ele>
        <time>2013-02-13T10:22:49.770Z</time>
      </trkpt>
      <trkpt lat="47.38772" lon="-0.44165">
        <ele>44.3</ele>
        <time>2013-02-13T10:22:50.700Z</time>
      </trkpt>
      <trkpt lat="47.38769" lon="-0.44165">
        <ele>44.4</ele>
        <time>2013-02-13T10:22:51.770Z</time>
      </trkpt>
      <trkpt lat="47.38767" lon="-0.44165">
        <ele>44.5</ele>
        <time>2013-02-13T10:22:52.770Z</time>
      </trkpt>
      <trkpt lat="47.38764" lon="-0.44165">
        <ele>44.5</ele>
        <time>2013-02-13T10:22:53.860Z</time>
      </trkpt>
      <trkpt lat="47.38759" lon="-0.44167">
        <ele>44.7</ele>
        <time>2013-02-13T10:22:55.780Z</time>
      </trkpt>
      <trkpt lat="47.38756" lon="-0.44167">
        <ele>44.8</ele>
        <time>2013-02-13T10:22:56.830Z</time>
      </trkpt>
      <trkpt lat="47.38754" lon="-0.44168">
        <ele>44.8</ele>
        <time>2013-02-13T10:22:57.860Z</time>
      </trkpt>
      <trkpt lat="47.38749" lon="-0.4417">
        <ele>44.9</ele>
        <time>2013-02-13T10:22:59.700Z</time>
      </trkpt>
      <trkpt lat="47.38744" lon="-0.44172">
        <ele>43.7</ele>
        <time>2013-02-13T10:23:01.770Z</time>
      </trkpt>
      <trkpt lat="47.38741" lon="-0.44173">
        <ele>44.8</ele>
        <time>2013-02-13T10:23:02.840Z</time>
      </trkpt>
      <trkpt lat="47.38736" lon="-0.44174">
        <ele>44.8</ele>
        <time>2013-02-13T10:23:04.770Z</time>
      </trkpt>
      <trkpt lat="47.38733" lon="-0.44174">
        <ele>44.7</ele>
        <time>2013-02-13T10:23:05.670Z</time>
      </trkpt>
      <trkpt lat="47.38731" lon="-0.44174">
        <ele>44.7</ele>
        <time>2013-02-13T10:23:06.670Z</time>
      </trkpt>
      <trkpt lat="47.38728" lon="-0.44175">
        <ele>44.7</ele>
        <time>2013-02-13T10:23:07.850Z</time>
      </trkpt>
      <trkpt lat="47.38722" lon="-0.44177">
        <ele>44.6</ele>
        <time>2013-02-13T10:23:09.670Z</time>
      </trkpt>
      <trkpt lat="47.3872" lon="-0.44178">
        <ele>44.6</ele>
        <time>2013-02-13T10:23:10.670Z</time>
      </trkpt>
      <trkpt lat="47.38717" lon="-0.44179">
        <ele>44.6</ele>
        <time>2013-02-13T10:23:11.670Z</time>
      </trkpt>
      <trkpt lat="47.38715" lon="-0.44179">
        <ele>44.5</ele>
        <time>2013-02-13T10:23:12.670Z</time>
      </trkpt>
      <trkpt lat="47.38712" lon="-0.4418">
        <ele>44.5</ele>
        <time>2013-02-13T10:23:13.770Z</time>
      </trkpt>
      <trkpt lat="47.3871" lon="-0.44181">
        <ele>44.5</ele>
        <time>2013-02-13T10:23:14.770Z</time>
      </trkpt>
      <trkpt lat="47.38708" lon="-0.44182">
        <ele>44.4</ele>
        <time>2013-02-13T10:23:15.770Z</time>
      </trkpt>
      <trkpt lat="47.38705" lon="-0.44183">
        <ele>44.4</ele>
        <time>2013-02-13T10:23:16.920Z</time>
      </trkpt>
      <trkpt lat="47.38701" lon="-0.44185">
        <ele>44.3</ele>
        <time>2013-02-13T10:23:18.830Z</time>
      </trkpt>
      <trkpt lat="47.38698" lon="-0.44186">
        <ele>44.3</ele>
        <time>2013-02-13T10:23:19.780Z</time>
      </trkpt>
      <trkpt lat="47.38696" lon="-0.44186">
        <ele>44.3</ele>
        <time>2013-02-13T10:23:20.850Z</time>
      </trkpt>
      <trkpt lat="47.38691" lon="-0.44187">
        <ele>44.1</ele>
        <time>2013-02-13T10:23:22.680Z</time>
      </trkpt>
      <trkpt lat="47.38688" lon="-0.44188">
        <ele>44</ele>
        <time>2013-02-13T10:23:23.770Z</time>
      </trkpt>
      <trkpt lat="47.38683" lon="-0.44189">
        <ele>43.8</ele>
        <time>2013-02-13T10:23:25.770Z</time>
      </trkpt>
      <trkpt lat="47.38681" lon="-0.4419">
        <ele>43.7</ele>
        <time>2013-02-13T10:23:26.840Z</time>
      </trkpt>
      <trkpt lat="47.38676" lon="-0.44192">
        <ele>43.4</ele>
        <time>2013-02-13T10:23:28.670Z</time>
      </trkpt>
      <trkpt lat="47.38673" lon="-0.44193">
        <ele>43.3</ele>
        <time>2013-02-13T10:23:29.770Z</time>
      </trkpt>
      <trkpt lat="47.38671" lon="-0.44194">
        <ele>43.2</ele>
        <time>2013-02-13T10:23:30.830Z</time>
      </trkpt>
      <trkpt lat="47.38666" lon="-0.44196">
        <ele>42.9</ele>
        <time>2013-02-13T10:23:32.670Z</time>
      </trkpt>
      <trkpt lat="47.38663" lon="-0.44197">
        <ele>42.9</ele>
        <time>2013-02-13T10:23:33.680Z</time>
      </trkpt>
      <trkpt lat="47.38661" lon="-0.44197">
        <ele>42.9</ele>
        <time>2013-02-13T10:23:34.770Z</time>
      </trkpt>
      <trkpt lat="47.38659" lon="-0.44198">
        <ele>42.9</ele>
        <time>2013-02-13T10:23:35.770Z</time>
      </trkpt>
      <trkpt lat="47.38656" lon="-0.44199">
        <ele>42.9</ele>
        <time>2013-02-13T10:23:36.780Z</time>
      </trkpt>
      <trkpt lat="47.38654" lon="-0.442">
        <ele>42.9</ele>
        <time>2013-02-13T10:23:37.770Z</time>
      </trkpt>
      <trkpt lat="47.38652" lon="-0.442">
        <ele>42.9</ele>
        <time>2013-02-13T10:23:38.770Z</time>
      </trkpt>
      <trkpt lat="47.38649" lon="-0.44202">
        <ele>42.9</ele>
        <time>2013-02-13T10:23:39.770Z</time>
      </trkpt>
      <trkpt lat="47.38647" lon="-0.44203">
        <ele>42.9</ele>
        <time>2013-02-13T10:23:40.770Z</time>
      </trkpt>
      <trkpt lat="47.38642" lon="-0.44204">
        <ele>43</ele>
        <time>2013-02-13T10:23:42.620Z</time>
      </trkpt>
      <trkpt lat="47.38639" lon="-0.44205">
        <ele>43</ele>
        <time>2013-02-13T10:23:43.620Z</time>
      </trkpt>
      <trkpt lat="47.38637" lon="-0.44205">
        <ele>43</ele>
        <time>2013-02-13T10:23:44.620Z</time>
      </trkpt>
      <trkpt lat="47.38634" lon="-0.44206">
        <ele>43</ele>
        <time>2013-02-13T10:23:45.770Z</time>
      </trkpt>
      <trkpt lat="47.38632" lon="-0.44207">
        <ele>43</ele>
        <time>2013-02-13T10:23:46.830Z</time>
      </trkpt>
      <trkpt lat="47.38627" lon="-0.44209">
        <ele>43</ele>
        <time>2013-02-13T10:23:48.620Z</time>
      </trkpt>
      <trkpt lat="47.38624" lon="-0.4421">
        <ele>43</ele>
        <time>2013-02-13T10:23:49.770Z</time>
      </trkpt>
      <trkpt lat="47.38621" lon="-0.44211">
        <ele>43</ele>
        <time>2013-02-13T10:23:50.840Z</time>
      </trkpt>
      <trkpt lat="47.38616" lon="-0.44214">
        <ele>43</ele>
        <time>2013-02-13T10:23:52.620Z</time>
      </trkpt>
      <trkpt lat="47.38615" lon="-0.44217">
        <ele>43</ele>
        <time>2013-02-13T10:23:53.680Z</time>
      </trkpt>
      <trkpt lat="47.38614" lon="-0.44221">
        <ele>43</ele>
        <time>2013-02-13T10:23:54.820Z</time>
      </trkpt>
      <trkpt lat="47.38615" lon="-0.44226">
        <ele>43</ele>
        <time>2013-02-13T10:23:55.780Z</time>
      </trkpt>
      <trkpt lat="47.38615" lon="-0.4423">
        <ele>43</ele>
        <time>2013-02-13T10:23:56.850Z</time>
      </trkpt>
      <trkpt lat="47.38616" lon="-0.44235">
        <ele>42.9</ele>
        <time>2013-02-13T10:23:57.820Z</time>
      </trkpt>
      <trkpt lat="47.38617" lon="-0.44239">
        <ele>42.9</ele>
        <time>2013-02-13T10:23:58.820Z</time>
      </trkpt>
      <trkpt lat="47.38618" lon="-0.44243">
        <ele>42.8</ele>
        <time>2013-02-13T10:23:59.910Z</time>
      </trkpt>
      <trkpt lat="47.3862" lon="-0.44251">
        <ele>42.7</ele>
        <time>2013-02-13T10:24:01.770Z</time>
      </trkpt>
      <trkpt lat="47.38621" lon="-0.44255">
        <ele>42.6</ele>
        <time>2013-02-13T10:24:02.820Z</time>
      </trkpt>
      <trkpt lat="47.38622" lon="-0.44258">
        <ele>42.6</ele>
        <time>2013-02-13T10:24:03.820Z</time>
      </trkpt>
      <trkpt lat="47.38623" lon="-0.44262">
        <ele>42.6</ele>
        <time>2013-02-13T10:24:04.820Z</time>
      </trkpt>
      <trkpt lat="47.38624" lon="-0.44266">
        <ele>42.6</ele>
        <time>2013-02-13T10:24:05.820Z</time>
      </trkpt>
      <trkpt lat="47.38625" lon="-0.4427">
        <ele>42.5</ele>
        <time>2013-02-13T10:24:06.820Z</time>
      </trkpt>
      <trkpt lat="47.38626" lon="-0.44273">
        <ele>42.5</ele>
        <time>2013-02-13T10:24:07.820Z</time>
      </trkpt>
      <trkpt lat="47.38627" lon="-0.44277">
        <ele>42.4</ele>
        <time>2013-02-13T10:24:08.920Z</time>
      </trkpt>
      <trkpt lat="47.3863" lon="-0.44285">
        <ele>42.3</ele>
        <time>2013-02-13T10:24:10.910Z</time>
      </trkpt>
      <trkpt lat="47.38633" lon="-0.44292">
        <ele>42.2</ele>
        <time>2013-02-13T10:24:12.770Z</time>
      </trkpt>
      <trkpt lat="47.38635" lon="-0.44295">
        <ele>42.2</ele>
        <time>2013-02-13T10:24:13.770Z</time>
      </trkpt>
      <trkpt lat="47.38636" lon="-0.44299">
        <ele>42.1</ele>
        <time>2013-02-13T10:24:14.850Z</time>
      </trkpt>
      <trkpt lat="47.38637" lon="-0.44302">
        <ele>42.1</ele>
        <time>2013-02-13T10:24:15.820Z</time>
      </trkpt>
      <trkpt lat="47.38638" lon="-0.44306">
        <ele>42</ele>
        <time>2013-02-13T10:24:16.800Z</time>
      </trkpt>
      <trkpt lat="47.38639" lon="-0.44309">
        <ele>42</ele>
        <time>2013-02-13T10:24:17.820Z</time>
      </trkpt>
      <trkpt lat="47.3864" lon="-0.44313">
        <ele>42</ele>
        <time>2013-02-13T10:24:18.920Z</time>
      </trkpt>
      <trkpt lat="47.38642" lon="-0.4432">
        <ele>42</ele>
        <time>2013-02-13T10:24:20.780Z</time>
      </trkpt>
      <trkpt lat="47.38643" lon="-0.44324">
        <ele>42</ele>
        <time>2013-02-13T10:24:21.850Z</time>
      </trkpt>
      <trkpt lat="47.38646" lon="-0.44331">
        <ele>42</ele>
        <time>2013-02-13T10:24:23.810Z</time>
      </trkpt>
      <trkpt lat="47.38647" lon="-0.44335">
        <ele>42</ele>
        <time>2013-02-13T10:24:24.910Z</time>
      </trkpt>
      <trkpt lat="47.38649" lon="-0.44342">
        <ele>41.9</ele>
        <time>2013-02-13T10:24:26.860Z</time>
      </trkpt>
      <trkpt lat="47.38651" lon="-0.44345">
        <ele>41.8</ele>
        <time>2013-02-13T10:24:27.800Z</time>
      </trkpt>
      <trkpt lat="47.38652" lon="-0.44348">
        <ele>41.7</ele>
        <time>2013-02-13T10:24:28.810Z</time>
      </trkpt>
      <trkpt lat="47.38653" lon="-0.44351">
        <ele>41.7</ele>
        <time>2013-02-13T10:24:29.910Z</time>
      </trkpt>
      <trkpt lat="47.38656" lon="-0.44359">
        <ele>41.4</ele>
        <time>2013-02-13T10:24:31.810Z</time>
      </trkpt>
      <trkpt lat="47.38657" lon="-0.44362">
        <ele>41.3</ele>
        <time>2013-02-13T10:24:32.910Z</time>
      </trkpt>
      <trkpt lat="47.38659" lon="-0.4437">
        <ele>41.3</ele>
        <time>2013-02-13T10:24:34.820Z</time>
      </trkpt>
      <trkpt lat="47.38661" lon="-0.44374">
        <ele>41.2</ele>
        <time>2013-02-13T10:24:35.810Z</time>
      </trkpt>
      <trkpt lat="47.38662" lon="-0.44378">
        <ele>41.2</ele>
        <time>2013-02-13T10:24:36.910Z</time>
      </trkpt>
      <trkpt lat="47.38663" lon="-0.44386">
        <ele>41.1</ele>
        <time>2013-02-13T10:24:38.770Z</time>
      </trkpt>
      <trkpt lat="47.38665" lon="-0.4439">
        <ele>41.1</ele>
        <time>2013-02-13T10:24:39.770Z</time>
      </trkpt>
      <trkpt lat="47.38665" lon="-0.44394">
        <ele>41.2</ele>
        <time>2013-02-13T10:24:40.830Z</time>
      </trkpt>
      <trkpt lat="47.38666" lon="-0.44398">
        <ele>41.3</ele>
        <time>2013-02-13T10:24:41.850Z</time>
      </trkpt>
      <trkpt lat="47.38668" lon="-0.44402">
        <ele>41.4</ele>
        <time>2013-02-13T10:24:42.910Z</time>
      </trkpt>
      <trkpt lat="47.3867" lon="-0.44409">
        <ele>41.6</ele>
        <time>2013-02-13T10:24:44.680Z</time>
      </trkpt>
      <trkpt lat="47.38672" lon="-0.44413">
        <ele>41.7</ele>
        <time>2013-02-13T10:24:45.850Z</time>
      </trkpt>
      <trkpt lat="47.38673" lon="-0.44417">
        <ele>41.8</ele>
        <time>2013-02-13T10:24:46.910Z</time>
      </trkpt>
      <trkpt lat="47.38675" lon="-0.44425">
        <ele>41.5</ele>
        <time>2013-02-13T10:24:48.830Z</time>
      </trkpt>
      <trkpt lat="47.38676" lon="-0.44429">
        <ele>41.4</ele>
        <time>2013-02-13T10:24:49.910Z</time>
      </trkpt>
      <trkpt lat="47.38679" lon="-0.44436">
        <ele>41.2</ele>
        <time>2013-02-13T10:24:51.780Z</time>
      </trkpt>
      <trkpt lat="47.3868" lon="-0.4444">
        <ele>41.1</ele>
        <time>2013-02-13T10:24:52.770Z</time>
      </trkpt>
      <trkpt lat="47.38682" lon="-0.44444">
        <ele>41</ele>
        <time>2013-02-13T10:24:53.860Z</time>
      </trkpt>
      <trkpt lat="47.38685" lon="-0.44451">
        <ele>41</ele>
        <time>2013-02-13T10:24:55.810Z</time>
      </trkpt>
      <trkpt lat="47.38686" lon="-0.44455">
        <ele>41</ele>
        <time>2013-02-13T10:24:56.890Z</time>
      </trkpt>
      <trkpt lat="47.38688" lon="-0.44462">
        <ele>41</ele>
        <time>2013-02-13T10:24:58.830Z</time>
      </trkpt>
      <trkpt lat="47.3869" lon="-0.44466">
        <ele>41</ele>
        <time>2013-02-13T10:24:59.810Z</time>
      </trkpt>
      <trkpt lat="47.38691" lon="-0.44469">
        <ele>41.5</ele>
        <time>2013-02-13T10:25:00.800Z</time>
      </trkpt>
      <trkpt lat="47.38692" lon="-0.44473">
        <ele>41</ele>
        <time>2013-02-13T10:25:01.790Z</time>
      </trkpt>
      <trkpt lat="47.38692" lon="-0.44477">
        <ele>41</ele>
        <time>2013-02-13T10:25:02.910Z</time>
      </trkpt>
      <trkpt lat="47.38693" lon="-0.44484">
        <ele>41</ele>
        <time>2013-02-13T10:25:04.830Z</time>
      </trkpt>
      <trkpt lat="47.38693" lon="-0.44489">
        <ele>41</ele>
        <time>2013-02-13T10:25:05.800Z</time>
      </trkpt>
      <trkpt lat="47.38693" lon="-0.44493">
        <ele>41</ele>
        <time>2013-02-13T10:25:06.900Z</time>
      </trkpt>
      <trkpt lat="47.38693" lon="-0.44501">
        <ele>41</ele>
        <time>2013-02-13T10:25:08.850Z</time>
      </trkpt>
      <trkpt lat="47.38693" lon="-0.44505">
        <ele>41</ele>
        <time>2013-02-13T10:25:09.800Z</time>
      </trkpt>
      <trkpt lat="47.38694" lon="-0.44509">
        <ele>41</ele>
        <time>2013-02-13T10:25:10.900Z</time>
      </trkpt>
      <trkpt lat="47.38695" lon="-0.44517">
        <ele>41</ele>
        <time>2013-02-13T10:25:12.770Z</time>
      </trkpt>
      <trkpt lat="47.38696" lon="-0.44521">
        <ele>40.9</ele>
        <time>2013-02-13T10:25:13.810Z</time>
      </trkpt>
      <trkpt lat="47.38697" lon="-0.44525">
        <ele>40.9</ele>
        <time>2013-02-13T10:25:14.900Z</time>
      </trkpt>
      <trkpt lat="47.38698" lon="-0.44533">
        <ele>40.9</ele>
        <time>2013-02-13T10:25:16.840Z</time>
      </trkpt>
      <trkpt lat="47.387" lon="-0.4454">
        <ele>40.8</ele>
        <time>2013-02-13T10:25:18.850Z</time>
      </trkpt>
      <trkpt lat="47.38702" lon="-0.44548">
        <ele>40.7</ele>
        <time>2013-02-13T10:25:20.850Z</time>
      </trkpt>
      <trkpt lat="47.38702" lon="-0.44552">
        <ele>40.7</ele>
        <time>2013-02-13T10:25:21.800Z</time>
      </trkpt>
      <trkpt lat="47.38703" lon="-0.44556">
        <ele>40.7</ele>
        <time>2013-02-13T10:25:22.800Z</time>
      </trkpt>
      <trkpt lat="47.38704" lon="-0.4456">
        <ele>40.7</ele>
        <time>2013-02-13T10:25:23.800Z</time>
      </trkpt>
      <trkpt lat="47.38704" lon="-0.44564">
        <ele>40.6</ele>
        <time>2013-02-13T10:25:25.000Z</time>
      </trkpt>
      <trkpt lat="47.38706" lon="-0.44572">
        <ele>40.6</ele>
        <time>2013-02-13T10:25:26.800Z</time>
      </trkpt>
      <trkpt lat="47.38706" lon="-0.44576">
        <ele>40.6</ele>
        <time>2013-02-13T10:25:27.800Z</time>
      </trkpt>
      <trkpt lat="47.38707" lon="-0.4458">
        <ele>40.6</ele>
        <time>2013-02-13T10:25:28.900Z</time>
      </trkpt>
      <trkpt lat="47.38708" lon="-0.44587">
        <ele>40.6</ele>
        <time>2013-02-13T10:25:30.820Z</time>
      </trkpt>
      <trkpt lat="47.38709" lon="-0.44591">
        <ele>40.6</ele>
        <time>2013-02-13T10:25:31.800Z</time>
      </trkpt>
      <trkpt lat="47.3871" lon="-0.44595">
        <ele>40.7</ele>
        <time>2013-02-13T10:25:32.800Z</time>
      </trkpt>
      <trkpt lat="47.38711" lon="-0.44598">
        <ele>40.7</ele>
        <time>2013-02-13T10:25:33.780Z</time>
      </trkpt>
      <trkpt lat="47.38711" lon="-0.44602">
        <ele>40.8</ele>
        <time>2013-02-13T10:25:34.840Z</time>
      </trkpt>
      <trkpt lat="47.38712" lon="-0.44606">
        <ele>40.9</ele>
        <time>2013-02-13T10:25:35.860Z</time>
      </trkpt>
      <trkpt lat="47.38712" lon="-0.4461">
        <ele>41</ele>
        <time>2013-02-13T10:25:36.900Z</time>
      </trkpt>
      <trkpt lat="47.38714" lon="-0.44618">
        <ele>41</ele>
        <time>2013-02-13T10:25:38.770Z</time>
      </trkpt>
      <trkpt lat="47.38714" lon="-0.44622">
        <ele>41</ele>
        <time>2013-02-13T10:25:39.800Z</time>
      </trkpt>
      <trkpt lat="47.38715" lon="-0.44626">
        <ele>41</ele>
        <time>2013-02-13T10:25:40.900Z</time>
      </trkpt>
      <trkpt lat="47.38716" lon="-0.44633">
        <ele>41</ele>
        <time>2013-02-13T10:25:42.820Z</time>
      </trkpt>
      <trkpt lat="47.38717" lon="-0.44637">
        <ele>41</ele>
        <time>2013-02-13T10:25:43.880Z</time>
      </trkpt>
      <trkpt lat="47.38719" lon="-0.44644">
        <ele>41</ele>
        <time>2013-02-13T10:25:45.790Z</time>
      </trkpt>
      <trkpt lat="47.38719" lon="-0.44648">
        <ele>41</ele>
        <time>2013-02-13T10:25:46.790Z</time>
      </trkpt>
      <trkpt lat="47.38719" lon="-0.44651">
        <ele>41</ele>
        <time>2013-02-13T10:25:47.940Z</time>
      </trkpt>
      <trkpt lat="47.3872" lon="-0.44659">
        <ele>41</ele>
        <time>2013-02-13T10:25:49.790Z</time>
      </trkpt>
      <trkpt lat="47.3872" lon="-0.44662">
        <ele>41</ele>
        <time>2013-02-13T10:25:50.830Z</time>
      </trkpt>
      <trkpt lat="47.38721" lon="-0.4467">
        <ele>41</ele>
        <time>2013-02-13T10:25:52.830Z</time>
      </trkpt>
      <trkpt lat="47.38721" lon="-0.44674">
        <ele>41</ele>
        <time>2013-02-13T10:25:53.790Z</time>
      </trkpt>
      <trkpt lat="47.38722" lon="-0.44677">
        <ele>41</ele>
        <time>2013-02-13T10:25:55.220Z</time>
      </trkpt>
      <trkpt lat="47.38723" lon="-0.44684">
        <ele>41</ele>
        <time>2013-02-13T10:25:56.790Z</time>
      </trkpt>
      <trkpt lat="47.38724" lon="-0.44688">
        <ele>41</ele>
        <time>2013-02-13T10:25:57.790Z</time>
      </trkpt>
      <trkpt lat="47.38724" lon="-0.44691">
        <ele>41</ele>
        <time>2013-02-13T10:25:58.790Z</time>
      </trkpt>
      <trkpt lat="47.38725" lon="-0.44695">
        <ele>41</ele>
        <time>2013-02-13T10:26:00.300Z</time>
      </trkpt>
      <trkpt lat="47.38726" lon="-0.44702">
        <ele>41.5</ele>
        <time>2013-02-13T10:26:01.830Z</time>
      </trkpt>
      <trkpt lat="47.38727" lon="-0.44705">
        <ele>41</ele>
        <time>2013-02-13T10:26:02.890Z</time>
      </trkpt>
      <trkpt lat="47.38728" lon="-0.44711">
        <ele>41</ele>
        <time>2013-02-13T10:26:04.790Z</time>
      </trkpt>
      <trkpt lat="47.38729" lon="-0.44715">
        <ele>41</ele>
        <time>2013-02-13T10:26:05.790Z</time>
      </trkpt>
      <trkpt lat="47.38729" lon="-0.44719">
        <ele>41</ele>
        <time>2013-02-13T10:26:06.890Z</time>
      </trkpt>
      <trkpt lat="47.3873" lon="-0.44722">
        <ele>41</ele>
        <time>2013-02-13T10:26:07.850Z</time>
      </trkpt>
      <trkpt lat="47.38731" lon="-0.44726">
        <ele>41</ele>
        <time>2013-02-13T10:26:08.890Z</time>
      </trkpt>
      <trkpt lat="47.38733" lon="-0.44733">
        <ele>41</ele>
        <time>2013-02-13T10:26:10.770Z</time>
      </trkpt>
      <trkpt lat="47.38733" lon="-0.44737">
        <ele>41</ele>
        <time>2013-02-13T10:26:11.800Z</time>
      </trkpt>
      <trkpt lat="47.38734" lon="-0.44741">
        <ele>41</ele>
        <time>2013-02-13T10:26:12.890Z</time>
      </trkpt>
      <trkpt lat="47.38735" lon="-0.44749">
        <ele>41</ele>
        <time>2013-02-13T10:26:14.820Z</time>
      </trkpt>
      <trkpt lat="47.38735" lon="-0.44752">
        <ele>41</ele>
        <time>2013-02-13T10:26:15.860Z</time>
      </trkpt>
      <trkpt lat="47.38736" lon="-0.44756">
        <ele>41</ele>
        <time>2013-02-13T10:26:16.830Z</time>
      </trkpt>
      <trkpt lat="47.38738" lon="-0.44763">
        <ele>41</ele>
        <time>2013-02-13T10:26:18.880Z</time>
      </trkpt>
      <trkpt lat="47.38739" lon="-0.44766">
        <ele>41</ele>
        <time>2013-02-13T10:26:19.860Z</time>
      </trkpt>
      <trkpt lat="47.38742" lon="-0.44773">
        <ele>41</ele>
        <time>2013-02-13T10:26:21.780Z</time>
      </trkpt>
      <trkpt lat="47.38743" lon="-0.44776">
        <ele>41</ele>
        <time>2013-02-13T10:26:22.880Z</time>
      </trkpt>
      <trkpt lat="47.38745" lon="-0.44779">
        <ele>41</ele>
        <time>2013-02-13T10:26:23.850Z</time>
      </trkpt>
      <trkpt lat="47.38747" lon="-0.44785">
        <ele>41</ele>
        <time>2013-02-13T10:26:25.780Z</time>
      </trkpt>
      <trkpt lat="47.38748" lon="-0.44788">
        <ele>41</ele>
        <time>2013-02-13T10:26:26.830Z</time>
      </trkpt>
      <trkpt lat="47.3875" lon="-0.44791">
        <ele>41</ele>
        <time>2013-02-13T10:26:27.880Z</time>
      </trkpt>
      <trkpt lat="47.38753" lon="-0.44797">
        <ele>41</ele>
        <time>2013-02-13T10:26:29.770Z</time>
      </trkpt>
      <trkpt lat="47.38754" lon="-0.448">
        <ele>41</ele>
        <time>2013-02-13T10:26:30.770Z</time>
      </trkpt>
      <trkpt lat="47.38756" lon="-0.44803">
        <ele>41</ele>
        <time>2013-02-13T10:26:31.780Z</time>
      </trkpt>
      <trkpt lat="47.38757" lon="-0.44807">
        <ele>41</ele>
        <time>2013-02-13T10:26:32.880Z</time>
      </trkpt>
      <trkpt lat="47.3876" lon="-0.44815">
        <ele>41.3</ele>
        <time>2013-02-13T10:26:34.820Z</time>
      </trkpt>
      <trkpt lat="47.3876" lon="-0.44819">
        <ele>41.5</ele>
        <time>2013-02-13T10:26:35.770Z</time>
      </trkpt>
      <trkpt lat="47.3876" lon="-0.44822">
        <ele>41.6</ele>
        <time>2013-02-13T10:26:36.820Z</time>
      </trkpt>
      <trkpt lat="47.38759" lon="-0.44825">
        <ele>41.7</ele>
        <time>2013-02-13T10:26:37.780Z</time>
      </trkpt>
      <trkpt lat="47.38758" lon="-0.44828">
        <ele>41.8</ele>
        <time>2013-02-13T10:26:38.880Z</time>
      </trkpt>
      <trkpt lat="47.38755" lon="-0.44833">
        <ele>42</ele>
        <time>2013-02-13T10:26:40.820Z</time>
      </trkpt>
      <trkpt lat="47.38753" lon="-0.44836">
        <ele>42.1</ele>
        <time>2013-02-13T10:26:41.830Z</time>
      </trkpt>
      <trkpt lat="47.3875" lon="-0.44839">
        <ele>42.2</ele>
        <time>2013-02-13T10:26:42.880Z</time>
      </trkpt>
      <trkpt lat="47.38747" lon="-0.44844">
        <ele>42.3</ele>
        <time>2013-02-13T10:26:44.820Z</time>
      </trkpt>
      <trkpt lat="47.38745" lon="-0.44847">
        <ele>42.4</ele>
        <time>2013-02-13T10:26:45.780Z</time>
      </trkpt>
      <trkpt lat="47.38743" lon="-0.44849">
        <ele>42.4</ele>
        <time>2013-02-13T10:26:46.980Z</time>
      </trkpt>
      <trkpt lat="47.3874" lon="-0.44854">
        <ele>42.5</ele>
        <time>2013-02-13T10:26:48.880Z</time>
      </trkpt>
      <trkpt lat="47.38736" lon="-0.44859">
        <ele>42.5</ele>
        <time>2013-02-13T10:26:50.680Z</time>
      </trkpt>
      <trkpt lat="47.38735" lon="-0.44861">
        <ele>42.5</ele>
        <time>2013-02-13T10:26:51.770Z</time>
      </trkpt>
      <trkpt lat="47.38733" lon="-0.44864">
        <ele>42.5</ele>
        <time>2013-02-13T10:26:52.840Z</time>
      </trkpt>
      <trkpt lat="47.38729" lon="-0.4487">
        <ele>42.5</ele>
        <time>2013-02-13T10:26:54.880Z</time>
      </trkpt>
      <trkpt lat="47.38726" lon="-0.44875">
        <ele>42.6</ele>
        <time>2013-02-13T10:26:56.770Z</time>
      </trkpt>
      <trkpt lat="47.38724" lon="-0.44878">
        <ele>42.6</ele>
        <time>2013-02-13T10:26:57.770Z</time>
      </trkpt>
      <trkpt lat="47.38722" lon="-0.44881">
        <ele>42.7</ele>
        <time>2013-02-13T10:26:58.770Z</time>
      </trkpt>
      <trkpt lat="47.38721" lon="-0.44884">
        <ele>42.8</ele>
        <time>2013-02-13T10:26:59.800Z</time>
      </trkpt>
      <trkpt lat="47.3872" lon="-0.44887">
        <ele>42.6</ele>
        <time>2013-02-13T10:27:00.830Z</time>
      </trkpt>
      <trkpt lat="47.38719" lon="-0.44894">
        <ele>43.2</ele>
        <time>2013-02-13T10:27:02.850Z</time>
      </trkpt>
      <trkpt lat="47.38719" lon="-0.44902">
        <ele>43.5</ele>
        <time>2013-02-13T10:27:04.870Z</time>
      </trkpt>
      <trkpt lat="47.38719" lon="-0.44908">
        <ele>43.7</ele>
        <time>2013-02-13T10:27:06.820Z</time>
      </trkpt>
      <trkpt lat="47.3872" lon="-0.44912">
        <ele>43.8</ele>
        <time>2013-02-13T10:27:07.770Z</time>
      </trkpt>
      <trkpt lat="47.3872" lon="-0.44916">
        <ele>44</ele>
        <time>2013-02-13T10:27:08.820Z</time>
      </trkpt>
      <trkpt lat="47.38721" lon="-0.44919">
        <ele>44.1</ele>
        <time>2013-02-13T10:27:09.770Z</time>
      </trkpt>
      <trkpt lat="47.38722" lon="-0.44922">
        <ele>44.2</ele>
        <time>2013-02-13T10:27:10.850Z</time>
      </trkpt>
      <trkpt lat="47.38724" lon="-0.44928">
        <ele>44.4</ele>
        <time>2013-02-13T10:27:12.820Z</time>
      </trkpt>
      <trkpt lat="47.38726" lon="-0.44935">
        <ele>44.7</ele>
        <time>2013-02-13T10:27:14.800Z</time>
      </trkpt>
      <trkpt lat="47.38727" lon="-0.44938">
        <ele>44.9</ele>
        <time>2013-02-13T10:27:15.770Z</time>
      </trkpt>
      <trkpt lat="47.38727" lon="-0.44941">
        <ele>45</ele>
        <time>2013-02-13T10:27:16.780Z</time>
      </trkpt>
      <trkpt lat="47.38728" lon="-0.44944">
        <ele>45.2</ele>
        <time>2013-02-13T10:27:17.780Z</time>
      </trkpt>
      <trkpt lat="47.38729" lon="-0.44947">
        <ele>45.4</ele>
        <time>2013-02-13T10:27:18.850Z</time>
      </trkpt>
      <trkpt lat="47.38731" lon="-0.44954">
        <ele>45.7</ele>
        <time>2013-02-13T10:27:20.830Z</time>
      </trkpt>
      <trkpt lat="47.38732" lon="-0.44957">
        <ele>45.8</ele>
        <time>2013-02-13T10:27:21.780Z</time>
      </trkpt>
      <trkpt lat="47.38732" lon="-0.4496">
        <ele>45.9</ele>
        <time>2013-02-13T10:27:22.850Z</time>
      </trkpt>
      <trkpt lat="47.38734" lon="-0.44966">
        <ele>46.2</ele>
        <time>2013-02-13T10:27:24.770Z</time>
      </trkpt>
      <trkpt lat="47.38735" lon="-0.44969">
        <ele>46.3</ele>
        <time>2013-02-13T10:27:25.780Z</time>
      </trkpt>
      <trkpt lat="47.38735" lon="-0.44972">
        <ele>46.5</ele>
        <time>2013-02-13T10:27:26.830Z</time>
      </trkpt>
      <trkpt lat="47.38736" lon="-0.44975">
        <ele>46.6</ele>
        <time>2013-02-13T10:27:27.780Z</time>
      </trkpt>
      <trkpt lat="47.38737" lon="-0.44978">
        <ele>46.7</ele>
        <time>2013-02-13T10:27:28.770Z</time>
      </trkpt>
      <trkpt lat="47.38738" lon="-0.44982">
        <ele>46.9</ele>
        <time>2013-02-13T10:27:29.850Z</time>
      </trkpt>
      <trkpt lat="47.38738" lon="-0.44985">
        <ele>47</ele>
        <time>2013-02-13T10:27:30.830Z</time>
      </trkpt>
      <trkpt lat="47.3874" lon="-0.44991">
        <ele>47.3</ele>
        <time>2013-02-13T10:27:32.830Z</time>
      </trkpt>
      <trkpt lat="47.3874" lon="-0.44995">
        <ele>47.5</ele>
        <time>2013-02-13T10:27:33.860Z</time>
      </trkpt>
      <trkpt lat="47.38742" lon="-0.45001">
        <ele>47.7</ele>
        <time>2013-02-13T10:27:35.670Z</time>
      </trkpt>
      <trkpt lat="47.38743" lon="-0.45004">
        <ele>47.8</ele>
        <time>2013-02-13T10:27:36.670Z</time>
      </trkpt>
      <trkpt lat="47.38744" lon="-0.45008">
        <ele>47.8</ele>
        <time>2013-02-13T10:27:37.670Z</time>
      </trkpt>
      <trkpt lat="47.38745" lon="-0.45011">
        <ele>47.9</ele>
        <time>2013-02-13T10:27:38.830Z</time>
      </trkpt>
      <trkpt lat="47.38747" lon="-0.45019">
        <ele>48</ele>
        <time>2013-02-13T10:27:40.830Z</time>
      </trkpt>
      <trkpt lat="47.38749" lon="-0.45025">
        <ele>48</ele>
        <time>2013-02-13T10:27:42.850Z</time>
      </trkpt>
      <trkpt lat="47.3875" lon="-0.45033">
        <ele>48</ele>
        <time>2013-02-13T10:27:44.830Z</time>
      </trkpt>
      <trkpt lat="47.38752" lon="-0.45039">
        <ele>48</ele>
        <time>2013-02-13T10:27:46.910Z</time>
      </trkpt>
      <trkpt lat="47.38754" lon="-0.45046">
        <ele>48</ele>
        <time>2013-02-13T10:27:48.670Z</time>
      </trkpt>
      <trkpt lat="47.38755" lon="-0.4505">
        <ele>48</ele>
        <time>2013-02-13T10:27:49.770Z</time>
      </trkpt>
      <trkpt lat="47.38756" lon="-0.45053">
        <ele>48</ele>
        <time>2013-02-13T10:27:50.850Z</time>
      </trkpt>
      <trkpt lat="47.38757" lon="-0.45061">
        <ele>48</ele>
        <time>2013-02-13T10:27:52.840Z</time>
      </trkpt>
      <trkpt lat="47.38759" lon="-0.45068">
        <ele>48</ele>
        <time>2013-02-13T10:27:54.840Z</time>
      </trkpt>
      <trkpt lat="47.38761" lon="-0.45075">
        <ele>48</ele>
        <time>2013-02-13T10:27:56.910Z</time>
      </trkpt>
      <trkpt lat="47.38762" lon="-0.45082">
        <ele>48</ele>
        <time>2013-02-13T10:27:58.670Z</time>
      </trkpt>
      <trkpt lat="47.38763" lon="-0.45085">
        <ele>48</ele>
        <time>2013-02-13T10:27:59.740Z</time>
      </trkpt>
      <trkpt lat="47.38764" lon="-0.45089">
        <ele>46.7</ele>
        <time>2013-02-13T10:28:00.840Z</time>
      </trkpt>
      <trkpt lat="47.38765" lon="-0.45096">
        <ele>48</ele>
        <time>2013-02-13T10:28:02.670Z</time>
      </trkpt>
      <trkpt lat="47.38766" lon="-0.451">
        <ele>48</ele>
        <time>2013-02-13T10:28:03.670Z</time>
      </trkpt>
      <trkpt lat="47.38767" lon="-0.45104">
        <ele>48</ele>
        <time>2013-02-13T10:28:04.670Z</time>
      </trkpt>
      <trkpt lat="47.38768" lon="-0.45107">
        <ele>48</ele>
        <time>2013-02-13T10:28:05.670Z</time>
      </trkpt>
      <trkpt lat="47.38769" lon="-0.4511">
        <ele>48</ele>
        <time>2013-02-13T10:28:06.770Z</time>
      </trkpt>
      <trkpt lat="47.3877" lon="-0.45114">
        <ele>48</ele>
        <time>2013-02-13T10:28:07.770Z</time>
      </trkpt>
      <trkpt lat="47.3877" lon="-0.45117">
        <ele>48</ele>
        <time>2013-02-13T10:28:08.840Z</time>
      </trkpt>
      <trkpt lat="47.38772" lon="-0.45124">
        <ele>48</ele>
        <time>2013-02-13T10:28:10.830Z</time>
      </trkpt>
      <trkpt lat="47.38772" lon="-0.45128">
        <ele>48</ele>
        <time>2013-02-13T10:28:11.780Z</time>
      </trkpt>
      <trkpt lat="47.38773" lon="-0.45132">
        <ele>48</ele>
        <time>2013-02-13T10:28:12.900Z</time>
      </trkpt>
      <trkpt lat="47.38775" lon="-0.4514">
        <ele>48</ele>
        <time>2013-02-13T10:28:14.670Z</time>
      </trkpt>
      <trkpt lat="47.38775" lon="-0.45143">
        <ele>48</ele>
        <time>2013-02-13T10:28:15.670Z</time>
      </trkpt>
      <trkpt lat="47.38776" lon="-0.45147">
        <ele>48</ele>
        <time>2013-02-13T10:28:16.680Z</time>
      </trkpt>
      <trkpt lat="47.38777" lon="-0.45151">
        <ele>48</ele>
        <time>2013-02-13T10:28:17.780Z</time>
      </trkpt>
      <trkpt lat="47.38778" lon="-0.45154">
        <ele>48</ele>
        <time>2013-02-13T10:28:18.850Z</time>
      </trkpt>
      <trkpt lat="47.3878" lon="-0.45161">
        <ele>47.9</ele>
        <time>2013-02-13T10:28:20.670Z</time>
      </trkpt>
      <trkpt lat="47.38781" lon="-0.45165">
        <ele>47.9</ele>
        <time>2013-02-13T10:28:21.670Z</time>
      </trkpt>
      <trkpt lat="47.38781" lon="-0.45169">
        <ele>47.9</ele>
        <time>2013-02-13T10:28:22.670Z</time>
      </trkpt>
      <trkpt lat="47.38782" lon="-0.45173">
        <ele>47.8</ele>
        <time>2013-02-13T10:28:23.670Z</time>
      </trkpt>
      <trkpt lat="47.38783" lon="-0.45176">
        <ele>47.8</ele>
        <time>2013-02-13T10:28:24.670Z</time>
      </trkpt>
      <trkpt lat="47.38784" lon="-0.4518">
        <ele>47.8</ele>
        <time>2013-02-13T10:28:25.700Z</time>
      </trkpt>
      <trkpt lat="47.38785" lon="-0.45183">
        <ele>47.8</ele>
        <time>2013-02-13T10:28:26.770Z</time>
      </trkpt>
      <trkpt lat="47.38786" lon="-0.45187">
        <ele>47.7</ele>
        <time>2013-02-13T10:28:27.770Z</time>
      </trkpt>
      <trkpt lat="47.38786" lon="-0.4519">
        <ele>47.7</ele>
        <time>2013-02-13T10:28:28.900Z</time>
      </trkpt>
      <trkpt lat="47.38789" lon="-0.45198">
        <ele>47.6</ele>
        <time>2013-02-13T10:28:30.670Z</time>
      </trkpt>
      <trkpt lat="47.3879" lon="-0.45201">
        <ele>47.6</ele>
        <time>2013-02-13T10:28:31.670Z</time>
      </trkpt>
      <trkpt lat="47.38791" lon="-0.45204">
        <ele>47.5</ele>
        <time>2013-02-13T10:28:32.670Z</time>
      </trkpt>
      <trkpt lat="47.38792" lon="-0.45208">
        <ele>47.5</ele>
        <time>2013-02-13T10:28:33.680Z</time>
      </trkpt>
      <trkpt lat="47.38793" lon="-0.45212">
        <ele>47.5</ele>
        <time>2013-02-13T10:28:34.670Z</time>
      </trkpt>
      <trkpt lat="47.38793" lon="-0.45216">
        <ele>47.4</ele>
        <time>2013-02-13T10:28:35.770Z</time>
      </trkpt>
      <trkpt lat="47.38794" lon="-0.4522">
        <ele>47.4</ele>
        <time>2013-02-13T10:28:36.820Z</time>
      </trkpt>
      <trkpt lat="47.38795" lon="-0.45227">
        <ele>47.4</ele>
        <time>2013-02-13T10:28:38.850Z</time>
      </trkpt>
      <trkpt lat="47.38797" lon="-0.45235">
        <ele>47.3</ele>
        <time>2013-02-13T10:28:40.680Z</time>
      </trkpt>
      <trkpt lat="47.38798" lon="-0.45238">
        <ele>47.3</ele>
        <time>2013-02-13T10:28:41.770Z</time>
      </trkpt>
      <trkpt lat="47.38799" lon="-0.45242">
        <ele>47.2</ele>
        <time>2013-02-13T10:28:42.840Z</time>
      </trkpt>
      <trkpt lat="47.38801" lon="-0.4525">
        <ele>47.2</ele>
        <time>2013-02-13T10:28:44.670Z</time>
      </trkpt>
      <trkpt lat="47.38802" lon="-0.45253">
        <ele>47.3</ele>
        <time>2013-02-13T10:28:45.770Z</time>
      </trkpt>
      <trkpt lat="47.38802" lon="-0.45257">
        <ele>47.4</ele>
        <time>2013-02-13T10:28:46.830Z</time>
      </trkpt>
      <trkpt lat="47.38804" lon="-0.45265">
        <ele>47.6</ele>
        <time>2013-02-13T10:28:48.670Z</time>
      </trkpt>
      <trkpt lat="47.38805" lon="-0.45268">
        <ele>47.7</ele>
        <time>2013-02-13T10:28:49.770Z</time>
      </trkpt>
      <trkpt lat="47.38806" lon="-0.45271">
        <ele>47.8</ele>
        <time>2013-02-13T10:28:50.840Z</time>
      </trkpt>
      <trkpt lat="47.38808" lon="-0.45279">
        <ele>47.9</ele>
        <time>2013-02-13T10:28:52.830Z</time>
      </trkpt>
      <trkpt lat="47.38809" lon="-0.45286">
        <ele>47.9</ele>
        <time>2013-02-13T10:28:54.770Z</time>
      </trkpt>
      <trkpt lat="47.3881" lon="-0.4529">
        <ele>47.8</ele>
        <time>2013-02-13T10:28:55.770Z</time>
      </trkpt>
      <trkpt lat="47.38811" lon="-0.45294">
        <ele>47.8</ele>
        <time>2013-02-13T10:28:56.770Z</time>
      </trkpt>
      <trkpt lat="47.38812" lon="-0.45297">
        <ele>47.8</ele>
        <time>2013-02-13T10:28:57.770Z</time>
      </trkpt>
      <trkpt lat="47.38813" lon="-0.45301">
        <ele>47.7</ele>
        <time>2013-02-13T10:28:58.820Z</time>
      </trkpt>
      <trkpt lat="47.38814" lon="-0.45309">
        <ele>47.1</ele>
        <time>2013-02-13T10:29:00.770Z</time>
      </trkpt>
      <trkpt lat="47.38815" lon="-0.45313">
        <ele>47.7</ele>
        <time>2013-02-13T10:29:01.770Z</time>
      </trkpt>
      <trkpt lat="47.38816" lon="-0.45317">
        <ele>47.6</ele>
        <time>2013-02-13T10:29:02.820Z</time>
      </trkpt>
      <trkpt lat="47.38817" lon="-0.4532">
        <ele>47.6</ele>
        <time>2013-02-13T10:29:03.850Z</time>
      </trkpt>
      <trkpt lat="47.3882" lon="-0.45327">
        <ele>47.5</ele>
        <time>2013-02-13T10:29:05.770Z</time>
      </trkpt>
      <trkpt lat="47.3882" lon="-0.45331">
        <ele>47.5</ele>
        <time>2013-02-13T10:29:06.820Z</time>
      </trkpt>
      <trkpt lat="47.38821" lon="-0.45335">
        <ele>47.4</ele>
        <time>2013-02-13T10:29:07.750Z</time>
      </trkpt>
      <trkpt lat="47.38823" lon="-0.45343">
        <ele>47.4</ele>
        <time>2013-02-13T10:29:09.770Z</time>
      </trkpt>
      <trkpt lat="47.38823" lon="-0.45347">
        <ele>47.4</ele>
        <time>2013-02-13T10:29:10.820Z</time>
      </trkpt>
      <trkpt lat="47.38826" lon="-0.45354">
        <ele>47.3</ele>
        <time>2013-02-13T10:29:12.670Z</time>
      </trkpt>
      <trkpt lat="47.38827" lon="-0.45358">
        <ele>47.2</ele>
        <time>2013-02-13T10:29:13.780Z</time>
      </trkpt>
      <trkpt lat="47.38828" lon="-0.45362">
        <ele>47.2</ele>
        <time>2013-02-13T10:29:14.770Z</time>
      </trkpt>
      <trkpt lat="47.38829" lon="-0.45365">
        <ele>47.3</ele>
        <time>2013-02-13T10:29:15.860Z</time>
      </trkpt>
      <trkpt lat="47.38828" lon="-0.45373">
        <ele>47.5</ele>
        <time>2013-02-13T10:29:17.670Z</time>
      </trkpt>
      <trkpt lat="47.38827" lon="-0.45376">
        <ele>47.7</ele>
        <time>2013-02-13T10:29:18.670Z</time>
      </trkpt>
      <trkpt lat="47.38825" lon="-0.45379">
        <ele>47.8</ele>
        <time>2013-02-13T10:29:19.780Z</time>
      </trkpt>
      <trkpt lat="47.38819" lon="-0.45382">
        <ele>47.9</ele>
        <time>2013-02-13T10:29:21.670Z</time>
      </trkpt>
      <trkpt lat="47.38817" lon="-0.45383">
        <ele>47.9</ele>
        <time>2013-02-13T10:29:22.670Z</time>
      </trkpt>
      <trkpt lat="47.38814" lon="-0.45383">
        <ele>47.9</ele>
        <time>2013-02-13T10:29:23.770Z</time>
      </trkpt>
      <trkpt lat="47.38811" lon="-0.45384">
        <ele>48</ele>
        <time>2013-02-13T10:29:24.820Z</time>
      </trkpt>
      <trkpt lat="47.38806" lon="-0.45385">
        <ele>48</ele>
        <time>2013-02-13T10:29:26.670Z</time>
      </trkpt>
      <trkpt lat="47.38803" lon="-0.45386">
        <ele>48.1</ele>
        <time>2013-02-13T10:29:27.670Z</time>
      </trkpt>
      <trkpt lat="47.38801" lon="-0.45387">
        <ele>48.2</ele>
        <time>2013-02-13T10:29:28.670Z</time>
      </trkpt>
      <trkpt lat="47.38798" lon="-0.45389">
        <ele>48.3</ele>
        <time>2013-02-13T10:29:29.770Z</time>
      </trkpt>
      <trkpt lat="47.38796" lon="-0.4539">
        <ele>48.4</ele>
        <time>2013-02-13T10:29:30.900Z</time>
      </trkpt>
      <trkpt lat="47.38791" lon="-0.45392">
        <ele>48.5</ele>
        <time>2013-02-13T10:29:32.670Z</time>
      </trkpt>
      <trkpt lat="47.38788" lon="-0.45394">
        <ele>48.6</ele>
        <time>2013-02-13T10:29:33.800Z</time>
      </trkpt>
      <trkpt lat="47.38783" lon="-0.45396">
        <ele>48.8</ele>
        <time>2013-02-13T10:29:35.770Z</time>
      </trkpt>
      <trkpt lat="47.3878" lon="-0.45397">
        <ele>48.9</ele>
        <time>2013-02-13T10:29:36.820Z</time>
      </trkpt>
      <trkpt lat="47.38777" lon="-0.45397">
        <ele>49</ele>
        <time>2013-02-13T10:29:37.770Z</time>
      </trkpt>
      <trkpt lat="47.38775" lon="-0.45398">
        <ele>49</ele>
        <time>2013-02-13T10:29:38.850Z</time>
      </trkpt>
      <trkpt lat="47.38769" lon="-0.45399">
        <ele>49</ele>
        <time>2013-02-13T10:29:40.680Z</time>
      </trkpt>
      <trkpt lat="47.38766" lon="-0.454">
        <ele>49</ele>
        <time>2013-02-13T10:29:41.670Z</time>
      </trkpt>
      <trkpt lat="47.38764" lon="-0.454">
        <ele>49</ele>
        <time>2013-02-13T10:29:42.670Z</time>
      </trkpt>
      <trkpt lat="47.38761" lon="-0.45401">
        <ele>49</ele>
        <time>2013-02-13T10:29:43.880Z</time>
      </trkpt>
      <trkpt lat="47.38757" lon="-0.45403">
        <ele>49</ele>
        <time>2013-02-13T10:29:45.770Z</time>
      </trkpt>
      <trkpt lat="47.38754" lon="-0.45404">
        <ele>49</ele>
        <time>2013-02-13T10:29:46.830Z</time>
      </trkpt>
      <trkpt lat="47.38752" lon="-0.45404">
        <ele>49</ele>
        <time>2013-02-13T10:29:47.850Z</time>
      </trkpt>
      <trkpt lat="47.38747" lon="-0.45406">
        <ele>49.1</ele>
        <time>2013-02-13T10:29:49.770Z</time>
      </trkpt>
      <trkpt lat="47.38744" lon="-0.45406">
        <ele>49.2</ele>
        <time>2013-02-13T10:29:50.810Z</time>
      </trkpt>
      <trkpt lat="47.38741" lon="-0.45407">
        <ele>49.3</ele>
        <time>2013-02-13T10:29:51.850Z</time>
      </trkpt>
      <trkpt lat="47.38736" lon="-0.45409">
        <ele>49.5</ele>
        <time>2013-02-13T10:29:53.670Z</time>
      </trkpt>
      <trkpt lat="47.38733" lon="-0.45409">
        <ele>49.6</ele>
        <time>2013-02-13T10:29:54.670Z</time>
      </trkpt>
      <trkpt lat="47.38731" lon="-0.4541">
        <ele>49.7</ele>
        <time>2013-02-13T10:29:55.670Z</time>
      </trkpt>
      <trkpt lat="47.38728" lon="-0.4541">
        <ele>49.8</ele>
        <time>2013-02-13T10:29:56.850Z</time>
      </trkpt>
      <trkpt lat="47.38726" lon="-0.45411">
        <ele>49.9</ele>
        <time>2013-02-13T10:29:57.770Z</time>
      </trkpt>
      <trkpt lat="47.38724" lon="-0.45411">
        <ele>49.9</ele>
        <time>2013-02-13T10:29:58.770Z</time>
      </trkpt>
      <trkpt lat="47.38721" lon="-0.45411">
        <ele>50</ele>
        <time>2013-02-13T10:29:59.800Z</time>
      </trkpt>
      <trkpt lat="47.38717" lon="-0.45412">
        <ele>50.5</ele>
        <time>2013-02-13T10:30:01.770Z</time>
      </trkpt>
      <trkpt lat="47.38715" lon="-0.45412">
        <ele>50.2</ele>
        <time>2013-02-13T10:30:02.770Z</time>
      </trkpt>
      <trkpt lat="47.38713" lon="-0.45412">
        <ele>50.3</ele>
        <time>2013-02-13T10:30:03.770Z</time>
      </trkpt>
      <trkpt lat="47.38709" lon="-0.45413">
        <ele>50.5</ele>
        <time>2013-02-13T10:30:05.670Z</time>
      </trkpt>
      <trkpt lat="47.38706" lon="-0.45413">
        <ele>50.6</ele>
        <time>2013-02-13T10:30:06.670Z</time>
      </trkpt>
      <trkpt lat="47.38704" lon="-0.45413">
        <ele>50.7</ele>
        <time>2013-02-13T10:30:07.680Z</time>
      </trkpt>
      <trkpt lat="47.38701" lon="-0.45413">
        <ele>50.8</ele>
        <time>2013-02-13T10:30:08.670Z</time>
      </trkpt>
      <trkpt lat="47.38699" lon="-0.45413">
        <ele>50.8</ele>
        <time>2013-02-13T10:30:09.880Z</time>
      </trkpt>
      <trkpt lat="47.38694" lon="-0.45414">
        <ele>51</ele>
        <time>2013-02-13T10:30:11.780Z</time>
      </trkpt>
      <trkpt lat="47.38692" lon="-0.45415">
        <ele>51.1</ele>
        <time>2013-02-13T10:30:12.770Z</time>
      </trkpt>
      <trkpt lat="47.38689" lon="-0.45415">
        <ele>51.2</ele>
        <time>2013-02-13T10:30:13.860Z</time>
      </trkpt>
      <trkpt lat="47.38685" lon="-0.45417">
        <ele>51.3</ele>
        <time>2013-02-13T10:30:15.670Z</time>
      </trkpt>
      <trkpt lat="47.38682" lon="-0.45418">
        <ele>51.4</ele>
        <time>2013-02-13T10:30:16.680Z</time>
      </trkpt>
      <trkpt lat="47.38676" lon="-0.4542">
        <ele>51.5</ele>
        <time>2013-02-13T10:30:18.670Z</time>
      </trkpt>
      <trkpt lat="47.38673" lon="-0.45421">
        <ele>51.5</ele>
        <time>2013-02-13T10:30:19.670Z</time>
      </trkpt>
      <trkpt lat="47.3867" lon="-0.45422">
        <ele>51.5</ele>
        <time>2013-02-13T10:30:20.670Z</time>
      </trkpt>
      <trkpt lat="47.38667" lon="-0.45422">
        <ele>51.6</ele>
        <time>2013-02-13T10:30:21.670Z</time>
      </trkpt>
      <trkpt lat="47.38664" lon="-0.45423">
        <ele>51.6</ele>
        <time>2013-02-13T10:30:22.670Z</time>
      </trkpt>
      <trkpt lat="47.38662" lon="-0.45423">
        <ele>51.6</ele>
        <time>2013-02-13T10:30:23.670Z</time>
      </trkpt>
      <trkpt lat="47.38659" lon="-0.45423">
        <ele>51.6</ele>
        <time>2013-02-13T10:30:24.680Z</time>
      </trkpt>
      <trkpt lat="47.38656" lon="-0.45424">
        <ele>51.6</ele>
        <time>2013-02-13T10:30:25.850Z</time>
      </trkpt>
      <trkpt lat="47.38652" lon="-0.45424">
        <ele>51.6</ele>
        <time>2013-02-13T10:30:27.670Z</time>
      </trkpt>
      <trkpt lat="47.38649" lon="-0.45425">
        <ele>51.6</ele>
        <time>2013-02-13T10:30:28.820Z</time>
      </trkpt>
      <trkpt lat="47.38644" lon="-0.45426">
        <ele>51.6</ele>
        <time>2013-02-13T10:30:30.620Z</time>
      </trkpt>
      <trkpt lat="47.38642" lon="-0.45427">
        <ele>51.6</ele>
        <time>2013-02-13T10:30:31.620Z</time>
      </trkpt>
      <trkpt lat="47.38639" lon="-0.45427">
        <ele>51.6</ele>
        <time>2013-02-13T10:30:32.620Z</time>
      </trkpt>
      <trkpt lat="47.38637" lon="-0.45427">
        <ele>51.7</ele>
        <time>2013-02-13T10:30:33.780Z</time>
      </trkpt>
      <trkpt lat="47.38634" lon="-0.45427">
        <ele>51.7</ele>
        <time>2013-02-13T10:30:34.820Z</time>
      </trkpt>
      <trkpt lat="47.38632" lon="-0.45427">
        <ele>51.7</ele>
        <time>2013-02-13T10:30:35.770Z</time>
      </trkpt>
      <trkpt lat="47.3863" lon="-0.45426">
        <ele>51.8</ele>
        <time>2013-02-13T10:30:36.900Z</time>
      </trkpt>
      <trkpt lat="47.38625" lon="-0.45426">
        <ele>51.8</ele>
        <time>2013-02-13T10:30:38.900Z</time>
      </trkpt>
      <trkpt lat="47.38619" lon="-0.45424">
        <ele>51.9</ele>
        <time>2013-02-13T10:30:40.910Z</time>
      </trkpt>
      <trkpt lat="47.38614" lon="-0.45421">
        <ele>52</ele>
        <time>2013-02-13T10:30:42.920Z</time>
      </trkpt>
      <trkpt lat="47.38609" lon="-0.45419">
        <ele>52</ele>
        <time>2013-02-13T10:30:44.780Z</time>
      </trkpt>
      <trkpt lat="47.38607" lon="-0.45417">
        <ele>52</ele>
        <time>2013-02-13T10:30:45.820Z</time>
      </trkpt>
      <trkpt lat="47.38604" lon="-0.45416">
        <ele>52</ele>
        <time>2013-02-13T10:30:46.820Z</time>
      </trkpt>
      <trkpt lat="47.38601" lon="-0.45413">
        <ele>52.1</ele>
        <time>2013-02-13T10:30:47.820Z</time>
      </trkpt>
      <trkpt lat="47.38599" lon="-0.45411">
        <ele>52.2</ele>
        <time>2013-02-13T10:30:48.970Z</time>
      </trkpt>
      <trkpt lat="47.38593" lon="-0.45408">
        <ele>52.3</ele>
        <time>2013-02-13T10:30:50.840Z</time>
      </trkpt>
      <trkpt lat="47.38589" lon="-0.45405">
        <ele>52.4</ele>
        <time>2013-02-13T10:30:52.920Z</time>
      </trkpt>
      <trkpt lat="47.38583" lon="-0.45402">
        <ele>52.5</ele>
        <time>2013-02-13T10:30:54.770Z</time>
      </trkpt>
      <trkpt lat="47.38581" lon="-0.45402">
        <ele>52.5</ele>
        <time>2013-02-13T10:30:55.770Z</time>
      </trkpt>
      <trkpt lat="47.38578" lon="-0.45401">
        <ele>52.4</ele>
        <time>2013-02-13T10:30:56.900Z</time>
      </trkpt>
      <trkpt lat="47.38576" lon="-0.45402">
        <ele>52.4</ele>
        <time>2013-02-13T10:30:58.200Z</time>
      </trkpt>
      <trkpt lat="47.38569" lon="-0.45401">
        <ele>52.3</ele>
        <time>2013-02-13T10:30:59.800Z</time>
      </trkpt>
      <trkpt lat="47.38566" lon="-0.45401">
        <ele>53</ele>
        <time>2013-02-13T10:31:00.760Z</time>
      </trkpt>
      <trkpt lat="47.38564" lon="-0.45402">
        <ele>52.2</ele>
        <time>2013-02-13T10:31:01.820Z</time>
      </trkpt>
      <trkpt lat="47.38561" lon="-0.45401">
        <ele>52.1</ele>
        <time>2013-02-13T10:31:03.260Z</time>
      </trkpt>
      <trkpt lat="47.38556" lon="-0.45401">
        <ele>52</ele>
        <time>2013-02-13T10:31:04.920Z</time>
      </trkpt>
      <trkpt lat="47.38551" lon="-0.45402">
        <ele>52</ele>
        <time>2013-02-13T10:31:06.820Z</time>
      </trkpt>
      <trkpt lat="47.38548" lon="-0.45403">
        <ele>52</ele>
        <time>2013-02-13T10:31:07.810Z</time>
      </trkpt>
      <trkpt lat="47.38545" lon="-0.45404">
        <ele>52</ele>
        <time>2013-02-13T10:31:08.910Z</time>
      </trkpt>
      <trkpt lat="47.3854" lon="-0.45406">
        <ele>52</ele>
        <time>2013-02-13T10:31:10.830Z</time>
      </trkpt>
      <trkpt lat="47.38537" lon="-0.45406">
        <ele>52</ele>
        <time>2013-02-13T10:31:11.810Z</time>
      </trkpt>
      <trkpt lat="47.38534" lon="-0.45406">
        <ele>52</ele>
        <time>2013-02-13T10:31:13.000Z</time>
      </trkpt>
      <trkpt lat="47.38528" lon="-0.45407">
        <ele>52</ele>
        <time>2013-02-13T10:31:14.910Z</time>
      </trkpt>
      <trkpt lat="47.38523" lon="-0.45408">
        <ele>51.9</ele>
        <time>2013-02-13T10:31:16.840Z</time>
      </trkpt>
      <trkpt lat="47.38518" lon="-0.45407">
        <ele>51.8</ele>
        <time>2013-02-13T10:31:18.770Z</time>
      </trkpt>
      <trkpt lat="47.38515" lon="-0.45408">
        <ele>51.7</ele>
        <time>2013-02-13T10:31:19.770Z</time>
      </trkpt>
      <trkpt lat="47.38513" lon="-0.45408">
        <ele>51.6</ele>
        <time>2013-02-13T10:31:20.830Z</time>
      </trkpt>
      <trkpt lat="47.3851" lon="-0.45408">
        <ele>51.5</ele>
        <time>2013-02-13T10:31:21.810Z</time>
      </trkpt>
      <trkpt lat="47.38507" lon="-0.45408">
        <ele>51.5</ele>
        <time>2013-02-13T10:31:22.910Z</time>
      </trkpt>
      <trkpt lat="47.38502" lon="-0.45408">
        <ele>51.4</ele>
        <time>2013-02-13T10:31:24.850Z</time>
      </trkpt>
      <trkpt lat="47.38496" lon="-0.45407">
        <ele>51.4</ele>
        <time>2013-02-13T10:31:26.860Z</time>
      </trkpt>
      <trkpt lat="47.38493" lon="-0.45406">
        <ele>51.4</ele>
        <time>2013-02-13T10:31:27.820Z</time>
      </trkpt>
      <trkpt lat="47.3849" lon="-0.45406">
        <ele>51.4</ele>
        <time>2013-02-13T10:31:28.910Z</time>
      </trkpt>
      <trkpt lat="47.38484" lon="-0.45405">
        <ele>51.4</ele>
        <time>2013-02-13T10:31:30.830Z</time>
      </trkpt>
      <trkpt lat="47.38482" lon="-0.45404">
        <ele>51.4</ele>
        <time>2013-02-13T10:31:31.810Z</time>
      </trkpt>
      <trkpt lat="47.38479" lon="-0.45404">
        <ele>51.5</ele>
        <time>2013-02-13T10:31:32.890Z</time>
      </trkpt>
      <trkpt lat="47.38474" lon="-0.45404">
        <ele>51.5</ele>
        <time>2013-02-13T10:31:34.780Z</time>
      </trkpt>
      <trkpt lat="47.38471" lon="-0.45405">
        <ele>51.4</ele>
        <time>2013-02-13T10:31:35.770Z</time>
      </trkpt>
      <trkpt lat="47.38468" lon="-0.45405">
        <ele>51.3</ele>
        <time>2013-02-13T10:31:36.910Z</time>
      </trkpt>
      <trkpt lat="47.38462" lon="-0.45406">
        <ele>51.3</ele>
        <time>2013-02-13T10:31:38.830Z</time>
      </trkpt>
      <trkpt lat="47.38459" lon="-0.45405">
        <ele>51.2</ele>
        <time>2013-02-13T10:31:39.810Z</time>
      </trkpt>
      <trkpt lat="47.38456" lon="-0.45405">
        <ele>51.2</ele>
        <time>2013-02-13T10:31:40.910Z</time>
      </trkpt>
      <trkpt lat="47.3845" lon="-0.45404">
        <ele>51.1</ele>
        <time>2013-02-13T10:31:42.770Z</time>
      </trkpt>
      <trkpt lat="47.38447" lon="-0.45403">
        <ele>51</ele>
        <time>2013-02-13T10:31:43.770Z</time>
      </trkpt>
      <trkpt lat="47.38444" lon="-0.45404">
        <ele>51</ele>
        <time>2013-02-13T10:31:44.810Z</time>
      </trkpt>
      <trkpt lat="47.38442" lon="-0.45404">
        <ele>51</ele>
        <time>2013-02-13T10:31:45.800Z</time>
      </trkpt>
      <trkpt lat="47.3844" lon="-0.45404">
        <ele>51</ele>
        <time>2013-02-13T10:31:46.800Z</time>
      </trkpt>
      <trkpt lat="47.38437" lon="-0.45405">
        <ele>51</ele>
        <time>2013-02-13T10:31:47.770Z</time>
      </trkpt>
      <trkpt lat="47.38432" lon="-0.45405">
        <ele>51</ele>
        <time>2013-02-13T10:31:49.790Z</time>
      </trkpt>
      <trkpt lat="47.38429" lon="-0.45406">
        <ele>51</ele>
        <time>2013-02-13T10:31:50.790Z</time>
      </trkpt>
      <trkpt lat="47.38427" lon="-0.45406">
        <ele>51</ele>
        <time>2013-02-13T10:31:51.820Z</time>
      </trkpt>
      <trkpt lat="47.38424" lon="-0.45407">
        <ele>51</ele>
        <time>2013-02-13T10:31:52.800Z</time>
      </trkpt>
      <trkpt lat="47.38421" lon="-0.45407">
        <ele>51</ele>
        <time>2013-02-13T10:31:53.800Z</time>
      </trkpt>
      <trkpt lat="47.38419" lon="-0.45408">
        <ele>51</ele>
        <time>2013-02-13T10:31:55.000Z</time>
      </trkpt>
      <trkpt lat="47.38413" lon="-0.45408">
        <ele>51</ele>
        <time>2013-02-13T10:31:56.900Z</time>
      </trkpt>
      <trkpt lat="47.38408" lon="-0.45409">
        <ele>51</ele>
        <time>2013-02-13T10:31:58.820Z</time>
      </trkpt>
      <trkpt lat="47.38406" lon="-0.4541">
        <ele>51</ele>
        <time>2013-02-13T10:31:59.710Z</time>
      </trkpt>
      <trkpt lat="47.38403" lon="-0.45411">
        <ele>53.4</ele>
        <time>2013-02-13T10:32:00.900Z</time>
      </trkpt>
      <trkpt lat="47.38398" lon="-0.45412">
        <ele>51</ele>
        <time>2013-02-13T10:32:02.820Z</time>
      </trkpt>
      <trkpt lat="47.38395" lon="-0.45413">
        <ele>51</ele>
        <time>2013-02-13T10:32:03.780Z</time>
      </trkpt>
      <trkpt lat="47.38393" lon="-0.45413">
        <ele>51</ele>
        <time>2013-02-13T10:32:04.820Z</time>
      </trkpt>
      <trkpt lat="47.3839" lon="-0.45415">
        <ele>51</ele>
        <time>2013-02-13T10:32:05.780Z</time>
      </trkpt>
      <trkpt lat="47.38388" lon="-0.45415">
        <ele>51</ele>
        <time>2013-02-13T10:32:06.860Z</time>
      </trkpt>
      <trkpt lat="47.38383" lon="-0.45416">
        <ele>51</ele>
        <time>2013-02-13T10:32:08.880Z</time>
      </trkpt>
      <trkpt lat="47.38378" lon="-0.45417">
        <ele>51</ele>
        <time>2013-02-13T10:32:10.850Z</time>
      </trkpt>
      <trkpt lat="47.38372" lon="-0.45418">
        <ele>51</ele>
        <time>2013-02-13T10:32:12.900Z</time>
      </trkpt>
      <trkpt lat="47.38366" lon="-0.45419">
        <ele>51</ele>
        <time>2013-02-13T10:32:14.820Z</time>
      </trkpt>
      <trkpt lat="47.38364" lon="-0.4542">
        <ele>51</ele>
        <time>2013-02-13T10:32:15.800Z</time>
      </trkpt>
      <trkpt lat="47.3836" lon="-0.45421">
        <ele>51</ele>
        <time>2013-02-13T10:32:16.830Z</time>
      </trkpt>
      <trkpt lat="47.38357" lon="-0.45422">
        <ele>51.1</ele>
        <time>2013-02-13T10:32:17.830Z</time>
      </trkpt>
      <trkpt lat="47.38355" lon="-0.45423">
        <ele>51.2</ele>
        <time>2013-02-13T10:32:19.000Z</time>
      </trkpt>
      <trkpt lat="47.38349" lon="-0.45423">
        <ele>51.4</ele>
        <time>2013-02-13T10:32:20.880Z</time>
      </trkpt>
      <trkpt lat="47.38344" lon="-0.45423">
        <ele>51.6</ele>
        <time>2013-02-13T10:32:22.850Z</time>
      </trkpt>
      <trkpt lat="47.38341" lon="-0.45424">
        <ele>51.7</ele>
        <time>2013-02-13T10:32:23.790Z</time>
      </trkpt>
      <trkpt lat="47.38338" lon="-0.45424">
        <ele>51.8</ele>
        <time>2013-02-13T10:32:24.800Z</time>
      </trkpt>
      <trkpt lat="47.38336" lon="-0.45425">
        <ele>51.9</ele>
        <time>2013-02-13T10:32:25.800Z</time>
      </trkpt>
      <trkpt lat="47.38333" lon="-0.45427">
        <ele>52</ele>
        <time>2013-02-13T10:32:26.890Z</time>
      </trkpt>
      <trkpt lat="47.38328" lon="-0.45429">
        <ele>52.2</ele>
        <time>2013-02-13T10:32:28.770Z</time>
      </trkpt>
      <trkpt lat="47.38326" lon="-0.45432">
        <ele>52.3</ele>
        <time>2013-02-13T10:32:29.770Z</time>
      </trkpt>
      <trkpt lat="47.38326" lon="-0.45435">
        <ele>52.3</ele>
        <time>2013-02-13T10:32:30.840Z</time>
      </trkpt>
      <trkpt lat="47.38326" lon="-0.4544">
        <ele>52.3</ele>
        <time>2013-02-13T10:32:31.790Z</time>
      </trkpt>
      <trkpt lat="47.38325" lon="-0.45445">
        <ele>52.3</ele>
        <time>2013-02-13T10:32:32.790Z</time>
      </trkpt>
      <trkpt lat="47.38326" lon="-0.4545">
        <ele>52.3</ele>
        <time>2013-02-13T10:32:33.780Z</time>
      </trkpt>
      <trkpt lat="47.38326" lon="-0.45455">
        <ele>52.2</ele>
        <time>2013-02-13T10:32:34.790Z</time>
      </trkpt>
      <trkpt lat="47.38328" lon="-0.45459">
        <ele>52.2</ele>
        <time>2013-02-13T10:32:35.790Z</time>
      </trkpt>
      <trkpt lat="47.38329" lon="-0.45463">
        <ele>52.2</ele>
        <time>2013-02-13T10:32:36.990Z</time>
      </trkpt>
      <trkpt lat="47.38332" lon="-0.4547">
        <ele>52.1</ele>
        <time>2013-02-13T10:32:38.890Z</time>
      </trkpt>
      <trkpt lat="47.38334" lon="-0.45481">
        <ele>52</ele>
        <time>2013-02-13T10:32:40.680Z</time>
      </trkpt>
      <trkpt lat="47.38335" lon="-0.45485">
        <ele>51.9</ele>
        <time>2013-02-13T10:32:41.850Z</time>
      </trkpt>
      <trkpt lat="47.38337" lon="-0.45495">
        <ele>51.9</ele>
        <time>2013-02-13T10:32:43.820Z</time>
      </trkpt>
      <trkpt lat="47.38338" lon="-0.45498">
        <ele>51.8</ele>
        <time>2013-02-13T10:32:44.890Z</time>
      </trkpt>
      <trkpt lat="47.38339" lon="-0.45505">
        <ele>51.8</ele>
        <time>2013-02-13T10:32:46.770Z</time>
      </trkpt>
      <trkpt lat="47.38341" lon="-0.45509">
        <ele>51.7</ele>
        <time>2013-02-13T10:32:47.770Z</time>
      </trkpt>
      <trkpt lat="47.38342" lon="-0.45513">
        <ele>51.7</ele>
        <time>2013-02-13T10:32:48.820Z</time>
      </trkpt>
      <trkpt lat="47.38342" lon="-0.45517">
        <ele>51.7</ele>
        <time>2013-02-13T10:32:49.770Z</time>
      </trkpt>
      <trkpt lat="47.38344" lon="-0.45525">
        <ele>51.6</ele>
        <time>2013-02-13T10:32:51.770Z</time>
      </trkpt>
      <trkpt lat="47.38345" lon="-0.45528">
        <ele>51.6</ele>
        <time>2013-02-13T10:32:52.820Z</time>
      </trkpt>
      <trkpt lat="47.38346" lon="-0.45531">
        <ele>51.5</ele>
        <time>2013-02-13T10:32:53.770Z</time>
      </trkpt>
      <trkpt lat="47.38348" lon="-0.45533">
        <ele>51.5</ele>
        <time>2013-02-13T10:32:54.770Z</time>
      </trkpt>
      <trkpt lat="47.38348" lon="-0.45536">
        <ele>51.5</ele>
        <time>2013-02-13T10:32:55.770Z</time>
      </trkpt>
      <trkpt lat="47.38349" lon="-0.4554">
        <ele>51.5</ele>
        <time>2013-02-13T10:32:56.890Z</time>
      </trkpt>
      <trkpt lat="47.38349" lon="-0.45548">
        <ele>51.4</ele>
        <time>2013-02-13T10:32:58.770Z</time>
      </trkpt>
      <trkpt lat="47.3835" lon="-0.45552">
        <ele>51.4</ele>
        <time>2013-02-13T10:32:59.700Z</time>
      </trkpt>
      <trkpt lat="47.3835" lon="-0.45556">
        <ele>50.7</ele>
        <time>2013-02-13T10:33:00.900Z</time>
      </trkpt>
      <trkpt lat="47.3835" lon="-0.45565">
        <ele>51.4</ele>
        <time>2013-02-13T10:33:02.820Z</time>
      </trkpt>
      <trkpt lat="47.38351" lon="-0.45569">
        <ele>51.4</ele>
        <time>2013-02-13T10:33:03.790Z</time>
      </trkpt>
      <trkpt lat="47.38352" lon="-0.45572">
        <ele>51.3</ele>
        <time>2013-02-13T10:33:04.890Z</time>
      </trkpt>
      <trkpt lat="47.38352" lon="-0.45579">
        <ele>51.3</ele>
        <time>2013-02-13T10:33:06.770Z</time>
      </trkpt>
      <trkpt lat="47.38352" lon="-0.45583">
        <ele>51.3</ele>
        <time>2013-02-13T10:33:07.780Z</time>
      </trkpt>
      <trkpt lat="47.38353" lon="-0.45586">
        <ele>51.3</ele>
        <time>2013-02-13T10:33:08.820Z</time>
      </trkpt>
      <trkpt lat="47.38353" lon="-0.4559">
        <ele>51.3</ele>
        <time>2013-02-13T10:33:09.780Z</time>
      </trkpt>
      <trkpt lat="47.38353" lon="-0.45594">
        <ele>51.3</ele>
        <time>2013-02-13T10:33:10.880Z</time>
      </trkpt>
      <trkpt lat="47.38353" lon="-0.45598">
        <ele>51.3</ele>
        <time>2013-02-13T10:33:11.850Z</time>
      </trkpt>
      <trkpt lat="47.38354" lon="-0.45606">
        <ele>51.3</ele>
        <time>2013-02-13T10:33:13.780Z</time>
      </trkpt>
      <trkpt lat="47.38354" lon="-0.45609">
        <ele>51.2</ele>
        <time>2013-02-13T10:33:14.780Z</time>
      </trkpt>
      <trkpt lat="47.38354" lon="-0.45613">
        <ele>51.3</ele>
        <time>2013-02-13T10:33:15.880Z</time>
      </trkpt>
      <trkpt lat="47.38356" lon="-0.4562">
        <ele>51.5</ele>
        <time>2013-02-13T10:33:17.780Z</time>
      </trkpt>
      <trkpt lat="47.38357" lon="-0.45624">
        <ele>51.6</ele>
        <time>2013-02-13T10:33:18.880Z</time>
      </trkpt>
      <trkpt lat="47.38359" lon="-0.4563">
        <ele>51.8</ele>
        <time>2013-02-13T10:33:20.770Z</time>
      </trkpt>
      <trkpt lat="47.3836" lon="-0.45633">
        <ele>51.8</ele>
        <time>2013-02-13T10:33:21.770Z</time>
      </trkpt>
      <trkpt lat="47.38361" lon="-0.45637">
        <ele>52</ele>
        <time>2013-02-13T10:33:22.850Z</time>
      </trkpt>
      <trkpt lat="47.38363" lon="-0.45645">
        <ele>51.9</ele>
        <time>2013-02-13T10:33:24.780Z</time>
      </trkpt>
      <trkpt lat="47.38364" lon="-0.45649">
        <ele>51.9</ele>
        <time>2013-02-13T10:33:25.780Z</time>
      </trkpt>
      <trkpt lat="47.38365" lon="-0.45653">
        <ele>51.9</ele>
        <time>2013-02-13T10:33:26.880Z</time>
      </trkpt>
      <trkpt lat="47.38367" lon="-0.4566">
        <ele>51.8</ele>
        <time>2013-02-13T10:33:28.820Z</time>
      </trkpt>
      <trkpt lat="47.38368" lon="-0.45663">
        <ele>51.7</ele>
        <time>2013-02-13T10:33:29.780Z</time>
      </trkpt>
      <trkpt lat="47.3837" lon="-0.45667">
        <ele>51.7</ele>
        <time>2013-02-13T10:33:30.830Z</time>
      </trkpt>
      <trkpt lat="47.38371" lon="-0.4567">
        <ele>51.6</ele>
        <time>2013-02-13T10:33:31.780Z</time>
      </trkpt>
      <trkpt lat="47.38373" lon="-0.45673">
        <ele>51.6</ele>
        <time>2013-02-13T10:33:32.880Z</time>
      </trkpt>
      <trkpt lat="47.38376" lon="-0.4568">
        <ele>51.5</ele>
        <time>2013-02-13T10:33:34.880Z</time>
      </trkpt>
      <trkpt lat="47.38378" lon="-0.45687">
        <ele>51.4</ele>
        <time>2013-02-13T10:33:36.830Z</time>
      </trkpt>
      <trkpt lat="47.3838" lon="-0.45694">
        <ele>51.3</ele>
        <time>2013-02-13T10:33:38.780Z</time>
      </trkpt>
      <trkpt lat="47.38382" lon="-0.45702">
        <ele>51.2</ele>
        <time>2013-02-13T10:33:40.820Z</time>
      </trkpt>
      <trkpt lat="47.38383" lon="-0.45705">
        <ele>51.1</ele>
        <time>2013-02-13T10:33:41.780Z</time>
      </trkpt>
      <trkpt lat="47.38384" lon="-0.45709">
        <ele>51.1</ele>
        <time>2013-02-13T10:33:42.780Z</time>
      </trkpt>
      <trkpt lat="47.38385" lon="-0.45711">
        <ele>51.1</ele>
        <time>2013-02-13T10:33:43.780Z</time>
      </trkpt>
      <trkpt lat="47.38386" lon="-0.45715">
        <ele>51</ele>
        <time>2013-02-13T10:33:44.780Z</time>
      </trkpt>
      <trkpt lat="47.38387" lon="-0.45718">
        <ele>51</ele>
        <time>2013-02-13T10:33:45.880Z</time>
      </trkpt>
      <trkpt lat="47.38389" lon="-0.45724">
        <ele>51</ele>
        <time>2013-02-13T10:33:47.780Z</time>
      </trkpt>
      <trkpt lat="47.3839" lon="-0.45728">
        <ele>51</ele>
        <time>2013-02-13T10:33:48.790Z</time>
      </trkpt>
      <trkpt lat="47.38393" lon="-0.45736">
        <ele>51</ele>
        <time>2013-02-13T10:33:50.680Z</time>
      </trkpt>
      <trkpt lat="47.38394" lon="-0.45739">
        <ele>51</ele>
        <time>2013-02-13T10:33:51.770Z</time>
      </trkpt>
      <trkpt lat="47.38395" lon="-0.45743">
        <ele>51</ele>
        <time>2013-02-13T10:33:52.870Z</time>
      </trkpt>
      <trkpt lat="47.38397" lon="-0.4575">
        <ele>51</ele>
        <time>2013-02-13T10:33:54.820Z</time>
      </trkpt>
      <trkpt lat="47.38398" lon="-0.45754">
        <ele>51.1</ele>
        <time>2013-02-13T10:33:55.770Z</time>
      </trkpt>
      <trkpt lat="47.38399" lon="-0.45757">
        <ele>51.3</ele>
        <time>2013-02-13T10:33:56.870Z</time>
      </trkpt>
      <trkpt lat="47.38401" lon="-0.45764">
        <ele>51.5</ele>
        <time>2013-02-13T10:33:58.670Z</time>
      </trkpt>
      <trkpt lat="47.38402" lon="-0.45767">
        <ele>51.6</ele>
        <time>2013-02-13T10:33:59.700Z</time>
      </trkpt>
      <trkpt lat="47.38404" lon="-0.4577">
        <ele>50.2</ele>
        <time>2013-02-13T10:34:00.820Z</time>
      </trkpt>
      <trkpt lat="47.38405" lon="-0.45774">
        <ele>51.9</ele>
        <time>2013-02-13T10:34:01.920Z</time>
      </trkpt>
      <trkpt lat="47.38408" lon="-0.45782">
        <ele>52</ele>
        <time>2013-02-13T10:34:03.670Z</time>
      </trkpt>
      <trkpt lat="47.38409" lon="-0.45785">
        <ele>52</ele>
        <time>2013-02-13T10:34:04.670Z</time>
      </trkpt>
      <trkpt lat="47.3841" lon="-0.45788">
        <ele>52</ele>
        <time>2013-02-13T10:34:05.680Z</time>
      </trkpt>
      <trkpt lat="47.38411" lon="-0.45792">
        <ele>52</ele>
        <time>2013-02-13T10:34:06.670Z</time>
      </trkpt>
      <trkpt lat="47.38412" lon="-0.45796">
        <ele>52</ele>
        <time>2013-02-13T10:34:07.670Z</time>
      </trkpt>
      <trkpt lat="47.38413" lon="-0.45799">
        <ele>52</ele>
        <time>2013-02-13T10:34:08.820Z</time>
      </trkpt>
      <trkpt lat="47.38414" lon="-0.45803">
        <ele>52</ele>
        <time>2013-02-13T10:34:09.780Z</time>
      </trkpt>
      <trkpt lat="47.38415" lon="-0.45806">
        <ele>52</ele>
        <time>2013-02-13T10:34:10.820Z</time>
      </trkpt>
      <trkpt lat="47.38417" lon="-0.45813">
        <ele>52.3</ele>
        <time>2013-02-13T10:34:12.670Z</time>
      </trkpt>
      <trkpt lat="47.38418" lon="-0.45816">
        <ele>52.4</ele>
        <time>2013-02-13T10:34:13.670Z</time>
      </trkpt>
      <trkpt lat="47.38419" lon="-0.4582">
        <ele>52.5</ele>
        <time>2013-02-13T10:34:14.820Z</time>
      </trkpt>
      <trkpt lat="47.3842" lon="-0.45823">
        <ele>52.6</ele>
        <time>2013-02-13T10:34:15.770Z</time>
      </trkpt>
      <trkpt lat="47.38421" lon="-0.45827">
        <ele>52.8</ele>
        <time>2013-02-13T10:34:16.830Z</time>
      </trkpt>
      <trkpt lat="47.38422" lon="-0.45834">
        <ele>53</ele>
        <time>2013-02-13T10:34:18.830Z</time>
      </trkpt>
      <trkpt lat="47.38423" lon="-0.45843">
        <ele>53</ele>
        <time>2013-02-13T10:34:20.900Z</time>
      </trkpt>
      <trkpt lat="47.38424" lon="-0.4585">
        <ele>53</ele>
        <time>2013-02-13T10:34:22.680Z</time>
      </trkpt>
      <trkpt lat="47.38425" lon="-0.45854">
        <ele>53</ele>
        <time>2013-02-13T10:34:23.670Z</time>
      </trkpt>
      <trkpt lat="47.38426" lon="-0.45857">
        <ele>53</ele>
        <time>2013-02-13T10:34:24.670Z</time>
      </trkpt>
      <trkpt lat="47.38427" lon="-0.45861">
        <ele>53</ele>
        <time>2013-02-13T10:34:25.670Z</time>
      </trkpt>
      <trkpt lat="47.38428" lon="-0.45864">
        <ele>53</ele>
        <time>2013-02-13T10:34:26.910Z</time>
      </trkpt>
      <trkpt lat="47.38431" lon="-0.45871">
        <ele>53</ele>
        <time>2013-02-13T10:34:28.670Z</time>
      </trkpt>
      <trkpt lat="47.38432" lon="-0.45874">
        <ele>53</ele>
        <time>2013-02-13T10:34:29.670Z</time>
      </trkpt>
      <trkpt lat="47.38434" lon="-0.45878">
        <ele>53</ele>
        <time>2013-02-13T10:34:30.680Z</time>
      </trkpt>
      <trkpt lat="47.38434" lon="-0.45882">
        <ele>53</ele>
        <time>2013-02-13T10:34:31.670Z</time>
      </trkpt>
      <trkpt lat="47.38435" lon="-0.45886">
        <ele>53</ele>
        <time>2013-02-13T10:34:32.780Z</time>
      </trkpt>
      <trkpt lat="47.38436" lon="-0.45889">
        <ele>53</ele>
        <time>2013-02-13T10:34:33.780Z</time>
      </trkpt>
      <trkpt lat="47.38437" lon="-0.45893">
        <ele>53</ele>
        <time>2013-02-13T10:34:34.830Z</time>
      </trkpt>
      <trkpt lat="47.38438" lon="-0.459">
        <ele>52.9</ele>
        <time>2013-02-13T10:34:36.670Z</time>
      </trkpt>
      <trkpt lat="47.3844" lon="-0.45903">
        <ele>52.9</ele>
        <time>2013-02-13T10:34:37.670Z</time>
      </trkpt>
      <trkpt lat="47.38441" lon="-0.45907">
        <ele>52.9</ele>
        <time>2013-02-13T10:34:38.670Z</time>
      </trkpt>
      <trkpt lat="47.38442" lon="-0.4591">
        <ele>52.9</ele>
        <time>2013-02-13T10:34:39.700Z</time>
      </trkpt>
      <trkpt lat="47.38443" lon="-0.45913">
        <ele>53</ele>
        <time>2013-02-13T10:34:40.670Z</time>
      </trkpt>
      <trkpt lat="47.38444" lon="-0.45917">
        <ele>53</ele>
        <time>2013-02-13T10:34:41.770Z</time>
      </trkpt>
      <trkpt lat="47.38445" lon="-0.4592">
        <ele>52.9</ele>
        <time>2013-02-13T10:34:42.820Z</time>
      </trkpt>
      <trkpt lat="47.38446" lon="-0.45923">
        <ele>52.8</ele>
        <time>2013-02-13T10:34:43.770Z</time>
      </trkpt>
      <trkpt lat="47.38449" lon="-0.4593">
        <ele>52.6</ele>
        <time>2013-02-13T10:34:45.670Z</time>
      </trkpt>
      <trkpt lat="47.3845" lon="-0.45933">
        <ele>52.5</ele>
        <time>2013-02-13T10:34:46.670Z</time>
      </trkpt>
      <trkpt lat="47.38451" lon="-0.45936">
        <ele>52.5</ele>
        <time>2013-02-13T10:34:47.670Z</time>
      </trkpt>
      <trkpt lat="47.38453" lon="-0.4594">
        <ele>52.4</ele>
        <time>2013-02-13T10:34:48.670Z</time>
      </trkpt>
      <trkpt lat="47.38454" lon="-0.45943">
        <ele>52.4</ele>
        <time>2013-02-13T10:34:49.670Z</time>
      </trkpt>
      <trkpt lat="47.38455" lon="-0.45946">
        <ele>52.4</ele>
        <time>2013-02-13T10:34:50.680Z</time>
      </trkpt>
      <trkpt lat="47.38457" lon="-0.4595">
        <ele>52.4</ele>
        <time>2013-02-13T10:34:51.770Z</time>
      </trkpt>
      <trkpt lat="47.38458" lon="-0.45953">
        <ele>52.4</ele>
        <time>2013-02-13T10:34:52.810Z</time>
      </trkpt>
      <trkpt lat="47.3846" lon="-0.45955">
        <ele>52.3</ele>
        <time>2013-02-13T10:34:53.770Z</time>
      </trkpt>
      <trkpt lat="47.38464" lon="-0.4596">
        <ele>52.3</ele>
        <time>2013-02-13T10:34:55.670Z</time>
      </trkpt>
      <trkpt lat="47.38466" lon="-0.45963">
        <ele>52.3</ele>
        <time>2013-02-13T10:34:56.680Z</time>
      </trkpt>
      <trkpt lat="47.3847" lon="-0.45968">
        <ele>52.1</ele>
        <time>2013-02-13T10:34:58.670Z</time>
      </trkpt>
      <trkpt lat="47.38472" lon="-0.45971">
        <ele>52</ele>
        <time>2013-02-13T10:34:59.730Z</time>
      </trkpt>
      <trkpt lat="47.38475" lon="-0.45978">
        <ele>52.7</ele>
        <time>2013-02-13T10:35:01.680Z</time>
      </trkpt>
      <trkpt lat="47.38476" lon="-0.45982">
        <ele>52</ele>
        <time>2013-02-13T10:35:02.670Z</time>
      </trkpt>
      <trkpt lat="47.38477" lon="-0.45986">
        <ele>52</ele>
        <time>2013-02-13T10:35:03.670Z</time>
      </trkpt>
      <trkpt lat="47.38478" lon="-0.4599">
        <ele>52</ele>
        <time>2013-02-13T10:35:04.670Z</time>
      </trkpt>
      <trkpt lat="47.38479" lon="-0.45993">
        <ele>52</ele>
        <time>2013-02-13T10:35:05.850Z</time>
      </trkpt>
      <trkpt lat="47.38479" lon="-0.45997">
        <ele>52</ele>
        <time>2013-02-13T10:35:06.770Z</time>
      </trkpt>
      <trkpt lat="47.38479" lon="-0.46001">
        <ele>52</ele>
        <time>2013-02-13T10:35:07.780Z</time>
      </trkpt>
      <trkpt lat="47.3848" lon="-0.46004">
        <ele>51.8</ele>
        <time>2013-02-13T10:35:08.820Z</time>
      </trkpt>
      <trkpt lat="47.38482" lon="-0.46012">
        <ele>51.6</ele>
        <time>2013-02-13T10:35:10.670Z</time>
      </trkpt>
      <trkpt lat="47.38483" lon="-0.46016">
        <ele>51.4</ele>
        <time>2013-02-13T10:35:11.670Z</time>
      </trkpt>
      <trkpt lat="47.38484" lon="-0.46019">
        <ele>51.3</ele>
        <time>2013-02-13T10:35:12.670Z</time>
      </trkpt>
      <trkpt lat="47.38484" lon="-0.46023">
        <ele>51.2</ele>
        <time>2013-02-13T10:35:13.780Z</time>
      </trkpt>
      <trkpt lat="47.38485" lon="-0.46026">
        <ele>51.1</ele>
        <time>2013-02-13T10:35:14.910Z</time>
      </trkpt>
      <trkpt lat="47.38487" lon="-0.46033">
        <ele>51</ele>
        <time>2013-02-13T10:35:16.680Z</time>
      </trkpt>
      <trkpt lat="47.38488" lon="-0.46036">
        <ele>51</ele>
        <time>2013-02-13T10:35:17.670Z</time>
      </trkpt>
      <trkpt lat="47.38489" lon="-0.4604">
        <ele>51</ele>
        <time>2013-02-13T10:35:18.830Z</time>
      </trkpt>
      <trkpt lat="47.38492" lon="-0.46046">
        <ele>51</ele>
        <time>2013-02-13T10:35:20.670Z</time>
      </trkpt>
      <trkpt lat="47.38493" lon="-0.46049">
        <ele>51</ele>
        <time>2013-02-13T10:35:21.770Z</time>
      </trkpt>
      <trkpt lat="47.38494" lon="-0.46052">
        <ele>51</ele>
        <time>2013-02-13T10:35:22.830Z</time>
      </trkpt>
      <trkpt lat="47.38495" lon="-0.46055">
        <ele>51</ele>
        <time>2013-02-13T10:35:23.850Z</time>
      </trkpt>
      <trkpt lat="47.38497" lon="-0.46062">
        <ele>51</ele>
        <time>2013-02-13T10:35:25.670Z</time>
      </trkpt>
      <trkpt lat="47.38498" lon="-0.46066">
        <ele>51</ele>
        <time>2013-02-13T10:35:26.670Z</time>
      </trkpt>
      <trkpt lat="47.38499" lon="-0.46069">
        <ele>51</ele>
        <time>2013-02-13T10:35:27.770Z</time>
      </trkpt>
      <trkpt lat="47.385" lon="-0.46075">
        <ele>51</ele>
        <time>2013-02-13T10:35:29.670Z</time>
      </trkpt>
      <trkpt lat="47.385" lon="-0.46079">
        <ele>51</ele>
        <time>2013-02-13T10:35:30.680Z</time>
      </trkpt>
      <trkpt lat="47.38501" lon="-0.46083">
        <ele>51</ele>
        <time>2013-02-13T10:35:31.770Z</time>
      </trkpt>
      <trkpt lat="47.38502" lon="-0.46086">
        <ele>50.9</ele>
        <time>2013-02-13T10:35:32.780Z</time>
      </trkpt>
      <trkpt lat="47.38503" lon="-0.46093">
        <ele>50.7</ele>
        <time>2013-02-13T10:35:34.670Z</time>
      </trkpt>
      <trkpt lat="47.38504" lon="-0.46096">
        <ele>50.6</ele>
        <time>2013-02-13T10:35:35.770Z</time>
      </trkpt>
      <trkpt lat="47.38505" lon="-0.461">
        <ele>50.5</ele>
        <time>2013-02-13T10:35:36.840Z</time>
      </trkpt>
      <trkpt lat="47.38506" lon="-0.46103">
        <ele>50.4</ele>
        <time>2013-02-13T10:35:37.850Z</time>
      </trkpt>
      <trkpt lat="47.38508" lon="-0.46111">
        <ele>50.3</ele>
        <time>2013-02-13T10:35:39.670Z</time>
      </trkpt>
      <trkpt lat="47.38509" lon="-0.46114">
        <ele>50.3</ele>
        <time>2013-02-13T10:35:40.670Z</time>
      </trkpt>
      <trkpt lat="47.3851" lon="-0.46117">
        <ele>50.3</ele>
        <time>2013-02-13T10:35:41.670Z</time>
      </trkpt>
      <trkpt lat="47.38511" lon="-0.4612">
        <ele>50.3</ele>
        <time>2013-02-13T10:35:42.670Z</time>
      </trkpt>
      <trkpt lat="47.38512" lon="-0.46123">
        <ele>50.2</ele>
        <time>2013-02-13T10:35:43.770Z</time>
      </trkpt>
      <trkpt lat="47.38513" lon="-0.46126">
        <ele>50.2</ele>
        <time>2013-02-13T10:35:44.830Z</time>
      </trkpt>
      <trkpt lat="47.38514" lon="-0.46133">
        <ele>50.1</ele>
        <time>2013-02-13T10:35:46.830Z</time>
      </trkpt>
      <trkpt lat="47.38515" lon="-0.46136">
        <ele>50.1</ele>
        <time>2013-02-13T10:35:47.680Z</time>
      </trkpt>
      <trkpt lat="47.38516" lon="-0.4614">
        <ele>50</ele>
        <time>2013-02-13T10:35:48.820Z</time>
      </trkpt>
      <trkpt lat="47.38518" lon="-0.46146">
        <ele>50</ele>
        <time>2013-02-13T10:35:50.780Z</time>
      </trkpt>
      <trkpt lat="47.38518" lon="-0.46151">
        <ele>50</ele>
        <time>2013-02-13T10:35:51.770Z</time>
      </trkpt>
      <trkpt lat="47.38518" lon="-0.46159">
        <ele>50</ele>
        <time>2013-02-13T10:35:53.770Z</time>
      </trkpt>
      <trkpt lat="47.38518" lon="-0.46163">
        <ele>50</ele>
        <time>2013-02-13T10:35:54.830Z</time>
      </trkpt>
      <trkpt lat="47.38518" lon="-0.46167">
        <ele>50</ele>
        <time>2013-02-13T10:35:56.030Z</time>
      </trkpt>
      <trkpt lat="47.38517" lon="-0.46175">
        <ele>50</ele>
        <time>2013-02-13T10:35:57.670Z</time>
      </trkpt>
      <trkpt lat="47.38516" lon="-0.46179">
        <ele>50</ele>
        <time>2013-02-13T10:35:58.670Z</time>
      </trkpt>
      <trkpt lat="47.38516" lon="-0.46182">
        <ele>50</ele>
        <time>2013-02-13T10:35:59.720Z</time>
      </trkpt>
      <trkpt lat="47.38515" lon="-0.46185">
        <ele>50.1</ele>
        <time>2013-02-13T10:36:00.990Z</time>
      </trkpt>
      <trkpt lat="47.38512" lon="-0.46191">
        <ele>50</ele>
        <time>2013-02-13T10:36:02.830Z</time>
      </trkpt>
      <trkpt lat="47.3851" lon="-0.46195">
        <ele>50</ele>
        <time>2013-02-13T10:36:03.780Z</time>
      </trkpt>
      <trkpt lat="47.38508" lon="-0.46201">
        <ele>50</ele>
        <time>2013-02-13T10:36:05.780Z</time>
      </trkpt>
      <trkpt lat="47.38506" lon="-0.46204">
        <ele>50</ele>
        <time>2013-02-13T10:36:06.770Z</time>
      </trkpt>
      <trkpt lat="47.38504" lon="-0.46207">
        <ele>50</ele>
        <time>2013-02-13T10:36:07.780Z</time>
      </trkpt>
      <trkpt lat="47.385" lon="-0.46212">
        <ele>50</ele>
        <time>2013-02-13T10:36:09.780Z</time>
      </trkpt>
      <trkpt lat="47.38497" lon="-0.46214">
        <ele>50</ele>
        <time>2013-02-13T10:36:10.820Z</time>
      </trkpt>
      <trkpt lat="47.38492" lon="-0.46217">
        <ele>50</ele>
        <time>2013-02-13T10:36:12.900Z</time>
      </trkpt>
      <trkpt lat="47.38487" lon="-0.46219">
        <ele>50</ele>
        <time>2013-02-13T10:36:14.670Z</time>
      </trkpt>
      <trkpt lat="47.38485" lon="-0.4622">
        <ele>50</ele>
        <time>2013-02-13T10:36:15.670Z</time>
      </trkpt>
      <trkpt lat="47.38483" lon="-0.46221">
        <ele>50</ele>
        <time>2013-02-13T10:36:16.680Z</time>
      </trkpt>
      <trkpt lat="47.3848" lon="-0.46222">
        <ele>50</ele>
        <time>2013-02-13T10:36:17.850Z</time>
      </trkpt>
      <trkpt lat="47.38475" lon="-0.46224">
        <ele>50</ele>
        <time>2013-02-13T10:36:19.670Z</time>
      </trkpt>
      <trkpt lat="47.38472" lon="-0.46225">
        <ele>50</ele>
        <time>2013-02-13T10:36:20.670Z</time>
      </trkpt>
      <trkpt lat="47.3847" lon="-0.46225">
        <ele>50</ele>
        <time>2013-02-13T10:36:21.780Z</time>
      </trkpt>
      <trkpt lat="47.38467" lon="-0.46226">
        <ele>50</ele>
        <time>2013-02-13T10:36:22.900Z</time>
      </trkpt>
      <trkpt lat="47.38462" lon="-0.46228">
        <ele>49.9</ele>
        <time>2013-02-13T10:36:24.670Z</time>
      </trkpt>
      <trkpt lat="47.3846" lon="-0.46229">
        <ele>49.9</ele>
        <time>2013-02-13T10:36:25.770Z</time>
      </trkpt>
      <trkpt lat="47.38458" lon="-0.46231">
        <ele>49.8</ele>
        <time>2013-02-13T10:36:26.670Z</time>
      </trkpt>
      <trkpt lat="47.38455" lon="-0.46232">
        <ele>49.8</ele>
        <time>2013-02-13T10:36:27.670Z</time>
      </trkpt>
      <trkpt lat="47.38453" lon="-0.46233">
        <ele>49.7</ele>
        <time>2013-02-13T10:36:28.670Z</time>
      </trkpt>
      <trkpt lat="47.3845" lon="-0.46234">
        <ele>49.7</ele>
        <time>2013-02-13T10:36:29.770Z</time>
      </trkpt>
      <trkpt lat="47.38448" lon="-0.46234">
        <ele>49.6</ele>
        <time>2013-02-13T10:36:30.770Z</time>
      </trkpt>
      <trkpt lat="47.38446" lon="-0.46234">
        <ele>49.6</ele>
        <time>2013-02-13T10:36:31.850Z</time>
      </trkpt>
      <trkpt lat="47.38441" lon="-0.46235">
        <ele>49.5</ele>
        <time>2013-02-13T10:36:33.780Z</time>
      </trkpt>
      <trkpt lat="47.38437" lon="-0.46237">
        <ele>49.3</ele>
        <time>2013-02-13T10:36:35.670Z</time>
      </trkpt>
      <trkpt lat="47.38434" lon="-0.46238">
        <ele>49.3</ele>
        <time>2013-02-13T10:36:36.670Z</time>
      </trkpt>
      <trkpt lat="47.38429" lon="-0.46241">
        <ele>49.1</ele>
        <time>2013-02-13T10:36:38.680Z</time>
      </trkpt>
      <trkpt lat="47.38427" lon="-0.46243">
        <ele>49.1</ele>
        <time>2013-02-13T10:36:39.780Z</time>
      </trkpt>
      <trkpt lat="47.38424" lon="-0.46244">
        <ele>49.1</ele>
        <time>2013-02-13T10:36:40.830Z</time>
      </trkpt>
      <trkpt lat="47.38419" lon="-0.46246">
        <ele>49</ele>
        <time>2013-02-13T10:36:42.670Z</time>
      </trkpt>
      <trkpt lat="47.38417" lon="-0.46247">
        <ele>49</ele>
        <time>2013-02-13T10:36:43.770Z</time>
      </trkpt>
      <trkpt lat="47.38414" lon="-0.46249">
        <ele>48.9</ele>
        <time>2013-02-13T10:36:44.820Z</time>
      </trkpt>
      <trkpt lat="47.38412" lon="-0.4625">
        <ele>48.8</ele>
        <time>2013-02-13T10:36:45.850Z</time>
      </trkpt>
      <trkpt lat="47.38406" lon="-0.46251">
        <ele>48.6</ele>
        <time>2013-02-13T10:36:47.770Z</time>
      </trkpt>
      <trkpt lat="47.38404" lon="-0.46253">
        <ele>48.5</ele>
        <time>2013-02-13T10:36:48.770Z</time>
      </trkpt>
      <trkpt lat="47.38397" lon="-0.46255">
        <ele>48.3</ele>
        <time>2013-02-13T10:36:50.680Z</time>
      </trkpt>
      <trkpt lat="47.38395" lon="-0.46256">
        <ele>48.2</ele>
        <time>2013-02-13T10:36:51.670Z</time>
      </trkpt>
      <trkpt lat="47.38392" lon="-0.46258">
        <ele>48.1</ele>
        <time>2013-02-13T10:36:52.680Z</time>
      </trkpt>
      <trkpt lat="47.3839" lon="-0.46259">
        <ele>48</ele>
        <time>2013-02-13T10:36:53.670Z</time>
      </trkpt>
      <trkpt lat="47.38388" lon="-0.4626">
        <ele>48</ele>
        <time>2013-02-13T10:36:54.670Z</time>
      </trkpt>
      <trkpt lat="47.38385" lon="-0.46262">
        <ele>48</ele>
        <time>2013-02-13T10:36:55.860Z</time>
      </trkpt>
      <trkpt lat="47.38381" lon="-0.46265">
        <ele>48</ele>
        <time>2013-02-13T10:36:57.670Z</time>
      </trkpt>
      <trkpt lat="47.38379" lon="-0.46266">
        <ele>48</ele>
        <time>2013-02-13T10:36:58.670Z</time>
      </trkpt>
      <trkpt lat="47.38377" lon="-0.46267">
        <ele>48</ele>
        <time>2013-02-13T10:36:59.800Z</time>
      </trkpt>
      <trkpt lat="47.38371" lon="-0.46268">
        <ele>48.5</ele>
        <time>2013-02-13T10:37:01.770Z</time>
      </trkpt>
      <trkpt lat="47.38369" lon="-0.46267">
        <ele>48</ele>
        <time>2013-02-13T10:37:02.820Z</time>
      </trkpt>
      <trkpt lat="47.38367" lon="-0.46266">
        <ele>48</ele>
        <time>2013-02-13T10:37:03.860Z</time>
      </trkpt>
      <trkpt lat="47.38364" lon="-0.46263">
        <ele>48</ele>
        <time>2013-02-13T10:37:05.670Z</time>
      </trkpt>
      <trkpt lat="47.38362" lon="-0.46261">
        <ele>48</ele>
        <time>2013-02-13T10:37:06.830Z</time>
      </trkpt>
      <trkpt lat="47.38361" lon="-0.46258">
        <ele>48</ele>
        <time>2013-02-13T10:37:07.780Z</time>
      </trkpt>
      <trkpt lat="47.38359" lon="-0.46253">
        <ele>48</ele>
        <time>2013-02-13T10:37:09.780Z</time>
      </trkpt>
      <trkpt lat="47.38358" lon="-0.4625">
        <ele>48</ele>
        <time>2013-02-13T10:37:10.830Z</time>
      </trkpt>
      <trkpt lat="47.38356" lon="-0.46246">
        <ele>48</ele>
        <time>2013-02-13T10:37:12.840Z</time>
      </trkpt>
      <trkpt lat="47.38354" lon="-0.46242">
        <ele>48</ele>
        <time>2013-02-13T10:37:14.670Z</time>
      </trkpt>
      <trkpt lat="47.38354" lon="-0.4624">
        <ele>48</ele>
        <time>2013-02-13T10:37:15.770Z</time>
      </trkpt>
      <trkpt lat="47.38352" lon="-0.46238">
        <ele>48</ele>
        <time>2013-02-13T10:37:16.930Z</time>
      </trkpt>
      <trkpt lat="47.38351" lon="-0.46235">
        <ele>48</ele>
        <time>2013-02-13T10:37:18.770Z</time>
      </trkpt>
      <trkpt lat="47.3835" lon="-0.46234">
        <ele>48</ele>
        <time>2013-02-13T10:37:19.770Z</time>
      </trkpt>
      <trkpt lat="47.3835" lon="-0.46232">
        <ele>48</ele>
        <time>2013-02-13T10:37:20.850Z</time>
      </trkpt>
      <trkpt lat="47.38349" lon="-0.46229">
        <ele>48</ele>
        <time>2013-02-13T10:37:21.800Z</time>
      </trkpt>
      <trkpt lat="47.38348" lon="-0.46227">
        <ele>48</ele>
        <time>2013-02-13T10:37:22.820Z</time>
      </trkpt>
      <trkpt lat="47.38347" lon="-0.46225">
        <ele>48</ele>
        <time>2013-02-13T10:37:23.920Z</time>
      </trkpt>
      <trkpt lat="47.38345" lon="-0.46222">
        <ele>48</ele>
        <time>2013-02-13T10:37:25.820Z</time>
      </trkpt>
      <trkpt lat="47.38344" lon="-0.46221">
        <ele>48</ele>
        <time>2013-02-13T10:37:26.920Z</time>
      </trkpt>
      <trkpt lat="47.38342" lon="-0.46219">
        <ele>48</ele>
        <time>2013-02-13T10:37:28.920Z</time>
      </trkpt>
      <trkpt lat="47.38339" lon="-0.46216">
        <ele>48</ele>
        <time>2013-02-13T10:37:30.830Z</time>
      </trkpt>
      <trkpt lat="47.38338" lon="-0.46214">
        <ele>48</ele>
        <time>2013-02-13T10:37:31.830Z</time>
      </trkpt>
      <trkpt lat="47.38334" lon="-0.46212">
        <ele>48</ele>
        <time>2013-02-13T10:37:33.780Z</time>
      </trkpt>
      <trkpt lat="47.38332" lon="-0.46211">
        <ele>48</ele>
        <time>2013-02-13T10:37:34.920Z</time>
      </trkpt>
      <trkpt lat="47.38328" lon="-0.4621">
        <ele>48.2</ele>
        <time>2013-02-13T10:37:36.820Z</time>
      </trkpt>
      <trkpt lat="47.38327" lon="-0.46209">
        <ele>48.2</ele>
        <time>2013-02-13T10:37:37.820Z</time>
      </trkpt>
      <trkpt lat="47.38326" lon="-0.46209">
        <ele>48.3</ele>
        <time>2013-02-13T10:37:38.820Z</time>
      </trkpt>
      <trkpt lat="47.38325" lon="-0.4621">
        <ele>48.3</ele>
        <time>2013-02-13T10:37:39.920Z</time>
      </trkpt>
      <trkpt lat="47.38322" lon="-0.4621">
        <ele>48.4</ele>
        <time>2013-02-13T10:37:41.820Z</time>
      </trkpt>
      <trkpt lat="47.38321" lon="-0.4621">
        <ele>48.4</ele>
        <time>2013-02-13T10:37:42.920Z</time>
      </trkpt>
      <trkpt lat="47.3832" lon="-0.46211">
        <ele>48.5</ele>
        <time>2013-02-13T10:37:44.820Z</time>
      </trkpt>
      <trkpt lat="47.38319" lon="-0.46211">
        <ele>48.5</ele>
        <time>2013-02-13T10:37:45.820Z</time>
      </trkpt>
      <trkpt lat="47.38318" lon="-0.46212">
        <ele>48.6</ele>
        <time>2013-02-13T10:37:46.880Z</time>
      </trkpt>
      <trkpt lat="47.38316" lon="-0.46213">
        <ele>48.6</ele>
        <time>2013-02-13T10:37:48.830Z</time>
      </trkpt>
      <trkpt lat="47.38315" lon="-0.46215">
        <ele>48.6</ele>
        <time>2013-02-13T10:37:50.840Z</time>
      </trkpt>
      <trkpt lat="47.38314" lon="-0.46216">
        <ele>48.7</ele>
        <time>2013-02-13T10:37:51.920Z</time>
      </trkpt>
      <trkpt lat="47.38313" lon="-0.46217">
        <ele>48.8</ele>
        <time>2013-02-13T10:37:53.810Z</time>
      </trkpt>
      <trkpt lat="47.38311" lon="-0.46218">
        <ele>48.8</ele>
        <time>2013-02-13T10:37:54.810Z</time>
      </trkpt>
      <trkpt lat="47.3831" lon="-0.46219">
        <ele>48.8</ele>
        <time>2013-02-13T10:37:55.870Z</time>
      </trkpt>
    </trkseg>
  </trk>
</gpx>